<?xml version="1.0" encoding="UTF-8" standalone="no" ?><gpx xmlns="http://www.topografix.com/GPX/1/1" xmlns:gpxx="http://www.garmin.com/xmlschemas/GpxExtensions/v3" xmlns:wptx1="http://www.garmin.com/xmlschemas/WaypointExtension/v1" xmlns:gpxtpx="http://www.garmin.com/xmlschemas/TrackPointExtension/v1" creator="GuideVTT.com" version="1.1" xmlns:xsi="http://www.w3.org/2001/XMLSchema-instance" xsi:schemaLocation="http://www.topografix.com/GPX/1/1 http://www.topografix.com/GPX/1/1/gpx.xsd http://www.garmin.com/xmlschemas/GpxExtensions/v3 http://www8.garmin.com/xmlschemas/GpxExtensionsv3.xsd http://www.garmin.com/xmlschemas/WaypointExtension/v1 http://www8.garmin.com/xmlschemas/WaypointExtensionv1.xsd http://www.garmin.com/xmlschemas/TrackPointExtension/v1 http://www.garmin.com/xmlschemas/TrackPointExtensionv1.xsd">
<metadata><link href="http://www.garmin.com"><text>Garmin International</text></link><time>2013-06-22T15:13:50Z</time></metadata>
<trk><name>cyclemeter-mountaincycle-20170615-0921.gpx</name><extensions><gpxx:TrackExtension><gpxx:DisplayColor>Cyan</gpxx:DisplayColor></gpxx:TrackExtension></extensions><trkseg>
<trkpt lat="46.24613" lon="7.01261"><ele></ele><time>2017-6-21T3:14:1Z</time></trkpt>
<trkpt lat="46.24612" lon="7.01259"><ele></ele><time>2017-6-21T3:14:4Z</time></trkpt>
<trkpt lat="46.2461" lon="7.01257"><ele></ele><time>2017-6-21T3:14:7Z</time></trkpt>
<trkpt lat="46.24609" lon="7.01255"><ele></ele><time>2017-6-21T3:14:10Z</time></trkpt>
<trkpt lat="46.24608" lon="7.01253"><ele></ele><time>2017-6-21T3:14:13Z</time></trkpt>
<trkpt lat="46.24606" lon="7.01251"><ele></ele><time>2017-6-21T3:14:16Z</time></trkpt>
<trkpt lat="46.246" lon="7.0125"><ele></ele><time>2017-6-21T3:14:19Z</time></trkpt>
<trkpt lat="46.24594" lon="7.01248"><ele></ele><time>2017-6-21T3:14:22Z</time></trkpt>
<trkpt lat="46.24588" lon="7.01247"><ele></ele><time>2017-6-21T3:14:25Z</time></trkpt>
<trkpt lat="46.24582" lon="7.01244"><ele></ele><time>2017-6-21T3:14:28Z</time></trkpt>
<trkpt lat="46.24578" lon="7.01236"><ele></ele><time>2017-6-21T3:14:31Z</time></trkpt>
<trkpt lat="46.24573" lon="7.01228"><ele></ele><time>2017-6-21T3:14:34Z</time></trkpt>
<trkpt lat="46.24569" lon="7.0122"><ele></ele><time>2017-6-21T3:14:37Z</time></trkpt>
<trkpt lat="46.24566" lon="7.01217"><ele></ele><time>2017-6-21T3:14:40Z</time></trkpt>
<trkpt lat="46.24562" lon="7.01216"><ele></ele><time>2017-6-21T3:14:43Z</time></trkpt>
<trkpt lat="46.24554" lon="7.01216"><ele></ele><time>2017-6-21T3:14:46Z</time></trkpt>
<trkpt lat="46.24546" lon="7.0122"><ele></ele><time>2017-6-21T3:14:49Z</time></trkpt>
<trkpt lat="46.24538" lon="7.01225"><ele></ele><time>2017-6-21T3:14:52Z</time></trkpt>
<trkpt lat="46.2453" lon="7.01229"><ele></ele><time>2017-6-21T3:14:55Z</time></trkpt>
<trkpt lat="46.24522" lon="7.01233"><ele></ele><time>2017-6-21T3:14:58Z</time></trkpt>
<trkpt lat="46.24514" lon="7.01238"><ele></ele><time>2017-6-21T3:15:1Z</time></trkpt>
<trkpt lat="46.24511" lon="7.0124"><ele></ele><time>2017-6-21T3:15:4Z</time></trkpt>
<trkpt lat="46.24507" lon="7.01241"><ele></ele><time>2017-6-21T3:15:7Z</time></trkpt>
<trkpt lat="46.245" lon="7.01245"><ele></ele><time>2017-6-21T3:15:10Z</time></trkpt>
<trkpt lat="46.24492" lon="7.01248"><ele></ele><time>2017-6-21T3:15:13Z</time></trkpt>
<trkpt lat="46.24485" lon="7.01252"><ele></ele><time>2017-6-21T3:15:16Z</time></trkpt>
<trkpt lat="46.24478" lon="7.01255"><ele></ele><time>2017-6-21T3:15:19Z</time></trkpt>
<trkpt lat="46.2447" lon="7.01259"><ele></ele><time>2017-6-21T3:15:22Z</time></trkpt>
<trkpt lat="46.24467" lon="7.01261"><ele></ele><time>2017-6-21T3:15:25Z</time></trkpt>
<trkpt lat="46.24464" lon="7.01264"><ele></ele><time>2017-6-21T3:15:28Z</time></trkpt>
<trkpt lat="46.24457" lon="7.0127"><ele></ele><time>2017-6-21T3:15:31Z</time></trkpt>
<trkpt lat="46.2445" lon="7.01276"><ele></ele><time>2017-6-21T3:15:34Z</time></trkpt>
<trkpt lat="46.24443" lon="7.01282"><ele></ele><time>2017-6-21T3:15:37Z</time></trkpt>
<trkpt lat="46.2444" lon="7.01285"><ele></ele><time>2017-6-21T3:15:40Z</time></trkpt>
<trkpt lat="46.24436" lon="7.01287"><ele></ele><time>2017-6-21T3:15:43Z</time></trkpt>
<trkpt lat="46.2443" lon="7.01293"><ele></ele><time>2017-6-21T3:15:46Z</time></trkpt>
<trkpt lat="46.24426" lon="7.01297"><ele></ele><time>2017-6-21T3:15:49Z</time></trkpt>
<trkpt lat="46.24422" lon="7.01301"><ele></ele><time>2017-6-21T3:15:52Z</time></trkpt>
<trkpt lat="46.24417" lon="7.01305"><ele></ele><time>2017-6-21T3:15:55Z</time></trkpt>
<trkpt lat="46.24413" lon="7.01309"><ele></ele><time>2017-6-21T3:15:58Z</time></trkpt>
<trkpt lat="46.24405" lon="7.01318"><ele></ele><time>2017-6-21T3:16:1Z</time></trkpt>
<trkpt lat="46.24396" lon="7.01326"><ele></ele><time>2017-6-21T3:16:4Z</time></trkpt>
<trkpt lat="46.24388" lon="7.01335"><ele></ele><time>2017-6-21T3:16:7Z</time></trkpt>
<trkpt lat="46.24383" lon="7.01339"><ele></ele><time>2017-6-21T3:16:10Z</time></trkpt>
<trkpt lat="46.24378" lon="7.01344"><ele></ele><time>2017-6-21T3:16:13Z</time></trkpt>
<trkpt lat="46.24372" lon="7.01347"><ele></ele><time>2017-6-21T3:16:16Z</time></trkpt>
<trkpt lat="46.24366" lon="7.01345"><ele></ele><time>2017-6-21T3:16:19Z</time></trkpt>
<trkpt lat="46.24361" lon="7.01338"><ele></ele><time>2017-6-21T3:16:22Z</time></trkpt>
<trkpt lat="46.24358" lon="7.01328"><ele></ele><time>2017-6-21T3:16:25Z</time></trkpt>
<trkpt lat="46.24351" lon="7.01309"><ele></ele><time>2017-6-21T3:16:28Z</time></trkpt>
<trkpt lat="46.24347" lon="7.01299"><ele></ele><time>2017-6-21T3:16:31Z</time></trkpt>
<trkpt lat="46.24344" lon="7.0129"><ele></ele><time>2017-6-21T3:16:34Z</time></trkpt>
<trkpt lat="46.24337" lon="7.0127"><ele></ele><time>2017-6-21T3:16:37Z</time></trkpt>
<trkpt lat="46.24328" lon="7.01249"><ele></ele><time>2017-6-21T3:16:40Z</time></trkpt>
<trkpt lat="46.24324" lon="7.01239"><ele></ele><time>2017-6-21T3:16:43Z</time></trkpt>
<trkpt lat="46.24319" lon="7.01228"><ele></ele><time>2017-6-21T3:16:46Z</time></trkpt>
<trkpt lat="46.24311" lon="7.01208"><ele></ele><time>2017-6-21T3:16:49Z</time></trkpt>
<trkpt lat="46.24303" lon="7.01189"><ele></ele><time>2017-6-21T3:16:52Z</time></trkpt>
<trkpt lat="46.24295" lon="7.01169"><ele></ele><time>2017-6-21T3:16:55Z</time></trkpt>
<trkpt lat="46.24288" lon="7.01151"><ele></ele><time>2017-6-21T3:16:58Z</time></trkpt>
<trkpt lat="46.24281" lon="7.01135"><ele></ele><time>2017-6-21T3:17:1Z</time></trkpt>
<trkpt lat="46.24275" lon="7.0112"><ele></ele><time>2017-6-21T3:17:4Z</time></trkpt>
<trkpt lat="46.24271" lon="7.01115"><ele></ele><time>2017-6-21T3:17:7Z</time></trkpt>
<trkpt lat="46.24266" lon="7.01115"><ele></ele><time>2017-6-21T3:17:10Z</time></trkpt>
<trkpt lat="46.24262" lon="7.01117"><ele></ele><time>2017-6-21T3:17:13Z</time></trkpt>
<trkpt lat="46.24258" lon="7.01122"><ele></ele><time>2017-6-21T3:17:16Z</time></trkpt>
<trkpt lat="46.24251" lon="7.01132"><ele></ele><time>2017-6-21T3:17:19Z</time></trkpt>
<trkpt lat="46.24244" lon="7.01143"><ele></ele><time>2017-6-21T3:17:22Z</time></trkpt>
<trkpt lat="46.24236" lon="7.01153"><ele></ele><time>2017-6-21T3:17:25Z</time></trkpt>
<trkpt lat="46.24229" lon="7.01163"><ele></ele><time>2017-6-21T3:17:28Z</time></trkpt>
<trkpt lat="46.2422" lon="7.01172"><ele></ele><time>2017-6-21T3:17:31Z</time></trkpt>
<trkpt lat="46.24212" lon="7.01181"><ele></ele><time>2017-6-21T3:17:34Z</time></trkpt>
<trkpt lat="46.24203" lon="7.0119"><ele></ele><time>2017-6-21T3:17:37Z</time></trkpt>
<trkpt lat="46.24195" lon="7.01199"><ele></ele><time>2017-6-21T3:17:40Z</time></trkpt>
<trkpt lat="46.24191" lon="7.01203"><ele></ele><time>2017-6-21T3:17:43Z</time></trkpt>
<trkpt lat="46.24186" lon="7.01204"><ele></ele><time>2017-6-21T3:17:46Z</time></trkpt>
<trkpt lat="46.24177" lon="7.01206"><ele></ele><time>2017-6-21T3:17:49Z</time></trkpt>
<trkpt lat="46.24168" lon="7.01208"><ele></ele><time>2017-6-21T3:17:52Z</time></trkpt>
<trkpt lat="46.24159" lon="7.0121"><ele></ele><time>2017-6-21T3:17:55Z</time></trkpt>
<trkpt lat="46.2415" lon="7.01212"><ele></ele><time>2017-6-21T3:17:58Z</time></trkpt>
<trkpt lat="46.24124" lon="7.01218"><ele></ele><time>2017-6-21T3:18:1Z</time></trkpt>
<trkpt lat="46.24124" lon="7.01218"><ele></ele><time>2017-6-21T3:18:4Z</time></trkpt>
<trkpt lat="46.24101" lon="7.01223"><ele></ele><time>2017-6-21T3:18:7Z</time></trkpt>
<trkpt lat="46.241" lon="7.01224"><ele></ele><time>2017-6-21T3:18:10Z</time></trkpt>
<trkpt lat="46.24099" lon="7.01224"><ele></ele><time>2017-6-21T3:18:13Z</time></trkpt>
<trkpt lat="46.24098" lon="7.01224"><ele></ele><time>2017-6-21T3:18:16Z</time></trkpt>
<trkpt lat="46.24097" lon="7.01225"><ele></ele><time>2017-6-21T3:18:19Z</time></trkpt>
<trkpt lat="46.24096" lon="7.01225"><ele></ele><time>2017-6-21T3:18:22Z</time></trkpt>
<trkpt lat="46.24095" lon="7.01226"><ele></ele><time>2017-6-21T3:18:25Z</time></trkpt>
<trkpt lat="46.24092" lon="7.01226"><ele></ele><time>2017-6-21T3:18:28Z</time></trkpt>
<trkpt lat="46.24089" lon="7.01227"><ele></ele><time>2017-6-21T3:18:31Z</time></trkpt>
<trkpt lat="46.24086" lon="7.01227"><ele></ele><time>2017-6-21T3:18:34Z</time></trkpt>
<trkpt lat="46.24083" lon="7.01228"><ele></ele><time>2017-6-21T3:18:37Z</time></trkpt>
<trkpt lat="46.2408" lon="7.01229"><ele></ele><time>2017-6-21T3:18:40Z</time></trkpt>
<trkpt lat="46.24077" lon="7.01229"><ele></ele><time>2017-6-21T3:18:43Z</time></trkpt>
<trkpt lat="46.24074" lon="7.0123"><ele></ele><time>2017-6-21T3:18:46Z</time></trkpt>
<trkpt lat="46.24071" lon="7.01231"><ele></ele><time>2017-6-21T3:18:49Z</time></trkpt>
<trkpt lat="46.24068" lon="7.01231"><ele></ele><time>2017-6-21T3:18:52Z</time></trkpt>
<trkpt lat="46.24065" lon="7.01232"><ele></ele><time>2017-6-21T3:18:55Z</time></trkpt>
<trkpt lat="46.24063" lon="7.01233"><ele></ele><time>2017-6-21T3:18:58Z</time></trkpt>
<trkpt lat="46.2406" lon="7.01233"><ele></ele><time>2017-6-21T3:19:1Z</time></trkpt>
<trkpt lat="46.24057" lon="7.01234"><ele></ele><time>2017-6-21T3:19:4Z</time></trkpt>
<trkpt lat="46.24054" lon="7.01235"><ele></ele><time>2017-6-21T3:19:7Z</time></trkpt>
<trkpt lat="46.24051" lon="7.01235"><ele></ele><time>2017-6-21T3:19:10Z</time></trkpt>
<trkpt lat="46.24049" lon="7.01236"><ele></ele><time>2017-6-21T3:19:13Z</time></trkpt>
<trkpt lat="46.24048" lon="7.01236"><ele></ele><time>2017-6-21T3:19:16Z</time></trkpt>
<trkpt lat="46.24045" lon="7.01238"><ele></ele><time>2017-6-21T3:19:19Z</time></trkpt>
<trkpt lat="46.24042" lon="7.01239"><ele></ele><time>2017-6-21T3:19:22Z</time></trkpt>
<trkpt lat="46.24039" lon="7.01241"><ele></ele><time>2017-6-21T3:19:25Z</time></trkpt>
<trkpt lat="46.24037" lon="7.01243"><ele></ele><time>2017-6-21T3:19:28Z</time></trkpt>
<trkpt lat="46.24034" lon="7.01244"><ele></ele><time>2017-6-21T3:19:31Z</time></trkpt>
<trkpt lat="46.24031" lon="7.01246"><ele></ele><time>2017-6-21T3:19:34Z</time></trkpt>
<trkpt lat="46.24028" lon="7.01247"><ele></ele><time>2017-6-21T3:19:37Z</time></trkpt>
<trkpt lat="46.24025" lon="7.01249"><ele></ele><time>2017-6-21T3:19:40Z</time></trkpt>
<trkpt lat="46.24022" lon="7.0125"><ele></ele><time>2017-6-21T3:19:43Z</time></trkpt>
<trkpt lat="46.24019" lon="7.01252"><ele></ele><time>2017-6-21T3:19:46Z</time></trkpt>
<trkpt lat="46.24017" lon="7.01253"><ele></ele><time>2017-6-21T3:19:49Z</time></trkpt>
<trkpt lat="46.24014" lon="7.01255"><ele></ele><time>2017-6-21T3:19:52Z</time></trkpt>
<trkpt lat="46.24011" lon="7.01256"><ele></ele><time>2017-6-21T3:19:55Z</time></trkpt>
<trkpt lat="46.24008" lon="7.01258"><ele></ele><time>2017-6-21T3:19:58Z</time></trkpt>
<trkpt lat="46.24007" lon="7.01259"><ele></ele><time>2017-6-21T3:20:1Z</time></trkpt>
<trkpt lat="46.24006" lon="7.0126"><ele></ele><time>2017-6-21T3:20:4Z</time></trkpt>
<trkpt lat="46.24003" lon="7.01263"><ele></ele><time>2017-6-21T3:20:7Z</time></trkpt>
<trkpt lat="46.24002" lon="7.01264"><ele></ele><time>2017-6-21T3:20:10Z</time></trkpt>
<trkpt lat="46.24001" lon="7.01265"><ele></ele><time>2017-6-21T3:20:13Z</time></trkpt>
<trkpt lat="46.23999" lon="7.01268"><ele></ele><time>2017-6-21T3:20:16Z</time></trkpt>
<trkpt lat="46.23996" lon="7.01271"><ele></ele><time>2017-6-21T3:20:19Z</time></trkpt>
<trkpt lat="46.23994" lon="7.01273"><ele></ele><time>2017-6-21T3:20:22Z</time></trkpt>
<trkpt lat="46.23992" lon="7.01276"><ele></ele><time>2017-6-21T3:20:25Z</time></trkpt>
<trkpt lat="46.23989" lon="7.01278"><ele></ele><time>2017-6-21T3:20:28Z</time></trkpt>
<trkpt lat="46.23987" lon="7.01281"><ele></ele><time>2017-6-21T3:20:31Z</time></trkpt>
<trkpt lat="46.23985" lon="7.01284"><ele></ele><time>2017-6-21T3:20:34Z</time></trkpt>
<trkpt lat="46.23982" lon="7.01286"><ele></ele><time>2017-6-21T3:20:37Z</time></trkpt>
<trkpt lat="46.2398" lon="7.01289"><ele></ele><time>2017-6-21T3:20:40Z</time></trkpt>
<trkpt lat="46.23978" lon="7.01292"><ele></ele><time>2017-6-21T3:20:43Z</time></trkpt>
<trkpt lat="46.23976" lon="7.01294"><ele></ele><time>2017-6-21T3:20:46Z</time></trkpt>
<trkpt lat="46.23971" lon="7.013"><ele></ele><time>2017-6-21T3:20:49Z</time></trkpt>
<trkpt lat="46.23964" lon="7.01315"><ele></ele><time>2017-6-21T3:20:52Z</time></trkpt>
<trkpt lat="46.23961" lon="7.0131"><ele></ele><time>2017-6-21T3:20:55Z</time></trkpt>
<trkpt lat="46.23959" lon="7.01308"><ele></ele><time>2017-6-21T3:20:58Z</time></trkpt>
<trkpt lat="46.23958" lon="7.01306"><ele></ele><time>2017-6-21T3:21:1Z</time></trkpt>
<trkpt lat="46.23956" lon="7.01304"><ele></ele><time>2017-6-21T3:21:4Z</time></trkpt>
<trkpt lat="46.23955" lon="7.01302"><ele></ele><time>2017-6-21T3:21:7Z</time></trkpt>
<trkpt lat="46.23954" lon="7.01301"><ele></ele><time>2017-6-21T3:21:10Z</time></trkpt>
<trkpt lat="46.23954" lon="7.01299"><ele></ele><time>2017-6-21T3:21:13Z</time></trkpt>
<trkpt lat="46.23954" lon="7.01296"><ele></ele><time>2017-6-21T3:21:16Z</time></trkpt>
<trkpt lat="46.23953" lon="7.01293"><ele></ele><time>2017-6-21T3:21:19Z</time></trkpt>
<trkpt lat="46.23953" lon="7.0129"><ele></ele><time>2017-6-21T3:21:22Z</time></trkpt>
<trkpt lat="46.23953" lon="7.01288"><ele></ele><time>2017-6-21T3:21:25Z</time></trkpt>
<trkpt lat="46.23952" lon="7.01287"><ele></ele><time>2017-6-21T3:21:28Z</time></trkpt>
<trkpt lat="46.23952" lon="7.01284"><ele></ele><time>2017-6-21T3:21:31Z</time></trkpt>
<trkpt lat="46.23952" lon="7.01281"><ele></ele><time>2017-6-21T3:21:34Z</time></trkpt>
<trkpt lat="46.23951" lon="7.01278"><ele></ele><time>2017-6-21T3:21:37Z</time></trkpt>
<trkpt lat="46.23951" lon="7.01275"><ele></ele><time>2017-6-21T3:21:40Z</time></trkpt>
<trkpt lat="46.23951" lon="7.01272"><ele></ele><time>2017-6-21T3:21:43Z</time></trkpt>
<trkpt lat="46.2395" lon="7.01268"><ele></ele><time>2017-6-21T3:21:46Z</time></trkpt>
<trkpt lat="46.2395" lon="7.01265"><ele></ele><time>2017-6-21T3:21:49Z</time></trkpt>
<trkpt lat="46.23949" lon="7.01262"><ele></ele><time>2017-6-21T3:21:52Z</time></trkpt>
<trkpt lat="46.23949" lon="7.01259"><ele></ele><time>2017-6-21T3:21:55Z</time></trkpt>
<trkpt lat="46.23949" lon="7.01256"><ele></ele><time>2017-6-21T3:21:58Z</time></trkpt>
<trkpt lat="46.23948" lon="7.01253"><ele></ele><time>2017-6-21T3:22:1Z</time></trkpt>
<trkpt lat="46.23948" lon="7.0125"><ele></ele><time>2017-6-21T3:22:4Z</time></trkpt>
<trkpt lat="46.23947" lon="7.01247"><ele></ele><time>2017-6-21T3:22:7Z</time></trkpt>
<trkpt lat="46.23947" lon="7.01244"><ele></ele><time>2017-6-21T3:22:10Z</time></trkpt>
<trkpt lat="46.23947" lon="7.01241"><ele></ele><time>2017-6-21T3:22:13Z</time></trkpt>
<trkpt lat="46.23946" lon="7.01239"><ele></ele><time>2017-6-21T3:22:16Z</time></trkpt>
<trkpt lat="46.23946" lon="7.01238"><ele></ele><time>2017-6-21T3:22:19Z</time></trkpt>
<trkpt lat="46.23946" lon="7.01236"><ele></ele><time>2017-6-21T3:22:22Z</time></trkpt>
<trkpt lat="46.23944" lon="7.01235"><ele></ele><time>2017-6-21T3:22:25Z</time></trkpt>
<trkpt lat="46.23942" lon="7.01232"><ele></ele><time>2017-6-21T3:22:28Z</time></trkpt>
<trkpt lat="46.23939" lon="7.0123"><ele></ele><time>2017-6-21T3:22:31Z</time></trkpt>
<trkpt lat="46.23937" lon="7.01227"><ele></ele><time>2017-6-21T3:22:34Z</time></trkpt>
<trkpt lat="46.23934" lon="7.01224"><ele></ele><time>2017-6-21T3:22:37Z</time></trkpt>
<trkpt lat="46.23932" lon="7.01222"><ele></ele><time>2017-6-21T3:22:40Z</time></trkpt>
<trkpt lat="46.23929" lon="7.01219"><ele></ele><time>2017-6-21T3:22:43Z</time></trkpt>
<trkpt lat="46.23928" lon="7.01218"><ele></ele><time>2017-6-21T3:22:46Z</time></trkpt>
<trkpt lat="46.23927" lon="7.01216"><ele></ele><time>2017-6-21T3:22:49Z</time></trkpt>
<trkpt lat="46.23924" lon="7.01214"><ele></ele><time>2017-6-21T3:22:52Z</time></trkpt>
<trkpt lat="46.23922" lon="7.01211"><ele></ele><time>2017-6-21T3:22:55Z</time></trkpt>
<trkpt lat="46.23919" lon="7.01208"><ele></ele><time>2017-6-21T3:22:58Z</time></trkpt>
<trkpt lat="46.23917" lon="7.01206"><ele></ele><time>2017-6-21T3:23:1Z</time></trkpt>
<trkpt lat="46.23914" lon="7.01203"><ele></ele><time>2017-6-21T3:23:4Z</time></trkpt>
<trkpt lat="46.23912" lon="7.012"><ele></ele><time>2017-6-21T3:23:7Z</time></trkpt>
<trkpt lat="46.23909" lon="7.01198"><ele></ele><time>2017-6-21T3:23:10Z</time></trkpt>
<trkpt lat="46.23908" lon="7.01196"><ele></ele><time>2017-6-21T3:23:13Z</time></trkpt>
<trkpt lat="46.23907" lon="7.01195"><ele></ele><time>2017-6-21T3:23:16Z</time></trkpt>
<trkpt lat="46.23904" lon="7.01191"><ele></ele><time>2017-6-21T3:23:19Z</time></trkpt>
<trkpt lat="46.23902" lon="7.01188"><ele></ele><time>2017-6-21T3:23:22Z</time></trkpt>
<trkpt lat="46.239" lon="7.01184"><ele></ele><time>2017-6-21T3:23:25Z</time></trkpt>
<trkpt lat="46.23897" lon="7.01181"><ele></ele><time>2017-6-21T3:23:28Z</time></trkpt>
<trkpt lat="46.23895" lon="7.01177"><ele></ele><time>2017-6-21T3:23:31Z</time></trkpt>
<trkpt lat="46.23892" lon="7.01174"><ele></ele><time>2017-6-21T3:23:34Z</time></trkpt>
<trkpt lat="46.2389" lon="7.0117"><ele></ele><time>2017-6-21T3:23:37Z</time></trkpt>
<trkpt lat="46.23887" lon="7.01167"><ele></ele><time>2017-6-21T3:23:40Z</time></trkpt>
<trkpt lat="46.23885" lon="7.01163"><ele></ele><time>2017-6-21T3:23:43Z</time></trkpt>
<trkpt lat="46.23882" lon="7.0116"><ele></ele><time>2017-6-21T3:23:46Z</time></trkpt>
<trkpt lat="46.23875" lon="7.01149"><ele></ele><time>2017-6-21T3:23:49Z</time></trkpt>
<trkpt lat="46.23858" lon="7.01132"><ele></ele><time>2017-6-21T3:23:52Z</time></trkpt>
<trkpt lat="46.23855" lon="7.01129"><ele></ele><time>2017-6-21T3:23:55Z</time></trkpt>
<trkpt lat="46.23851" lon="7.01126"><ele></ele><time>2017-6-21T3:23:58Z</time></trkpt>
<trkpt lat="46.23848" lon="7.01122"><ele></ele><time>2017-6-21T3:24:1Z</time></trkpt>
<trkpt lat="46.23845" lon="7.01119"><ele></ele><time>2017-6-21T3:24:4Z</time></trkpt>
<trkpt lat="46.23841" lon="7.01115"><ele></ele><time>2017-6-21T3:24:7Z</time></trkpt>
<trkpt lat="46.23838" lon="7.01112"><ele></ele><time>2017-6-21T3:24:10Z</time></trkpt>
<trkpt lat="46.23835" lon="7.01109"><ele></ele><time>2017-6-21T3:24:13Z</time></trkpt>
<trkpt lat="46.23832" lon="7.01106"><ele></ele><time>2017-6-21T3:24:16Z</time></trkpt>
<trkpt lat="46.2383" lon="7.01103"><ele></ele><time>2017-6-21T3:24:19Z</time></trkpt>
<trkpt lat="46.23827" lon="7.011"><ele></ele><time>2017-6-21T3:24:22Z</time></trkpt>
<trkpt lat="46.23824" lon="7.01096"><ele></ele><time>2017-6-21T3:24:25Z</time></trkpt>
<trkpt lat="46.23821" lon="7.01093"><ele></ele><time>2017-6-21T3:24:28Z</time></trkpt>
<trkpt lat="46.23818" lon="7.0109"><ele></ele><time>2017-6-21T3:24:31Z</time></trkpt>
<trkpt lat="46.23816" lon="7.01087"><ele></ele><time>2017-6-21T3:24:34Z</time></trkpt>
<trkpt lat="46.23813" lon="7.01084"><ele></ele><time>2017-6-21T3:24:37Z</time></trkpt>
<trkpt lat="46.2381" lon="7.01081"><ele></ele><time>2017-6-21T3:24:40Z</time></trkpt>
<trkpt lat="46.23807" lon="7.01078"><ele></ele><time>2017-6-21T3:24:43Z</time></trkpt>
<trkpt lat="46.23804" lon="7.01074"><ele></ele><time>2017-6-21T3:24:46Z</time></trkpt>
<trkpt lat="46.23802" lon="7.01071"><ele></ele><time>2017-6-21T3:24:49Z</time></trkpt>
<trkpt lat="46.23799" lon="7.01068"><ele></ele><time>2017-6-21T3:24:52Z</time></trkpt>
<trkpt lat="46.23798" lon="7.01067"><ele></ele><time>2017-6-21T3:24:55Z</time></trkpt>
<trkpt lat="46.23797" lon="7.01065"><ele></ele><time>2017-6-21T3:24:58Z</time></trkpt>
<trkpt lat="46.23795" lon="7.01062"><ele></ele><time>2017-6-21T3:25:1Z</time></trkpt>
<trkpt lat="46.23793" lon="7.01059"><ele></ele><time>2017-6-21T3:25:4Z</time></trkpt>
<trkpt lat="46.2379" lon="7.01056"><ele></ele><time>2017-6-21T3:25:7Z</time></trkpt>
<trkpt lat="46.23788" lon="7.01053"><ele></ele><time>2017-6-21T3:25:10Z</time></trkpt>
<trkpt lat="46.23786" lon="7.0105"><ele></ele><time>2017-6-21T3:25:13Z</time></trkpt>
<trkpt lat="46.23784" lon="7.01047"><ele></ele><time>2017-6-21T3:25:16Z</time></trkpt>
<trkpt lat="46.23781" lon="7.01044"><ele></ele><time>2017-6-21T3:25:19Z</time></trkpt>
<trkpt lat="46.23779" lon="7.01041"><ele></ele><time>2017-6-21T3:25:22Z</time></trkpt>
<trkpt lat="46.23777" lon="7.01038"><ele></ele><time>2017-6-21T3:25:25Z</time></trkpt>
<trkpt lat="46.23775" lon="7.01035"><ele></ele><time>2017-6-21T3:25:28Z</time></trkpt>
<trkpt lat="46.23772" lon="7.01032"><ele></ele><time>2017-6-21T3:25:31Z</time></trkpt>
<trkpt lat="46.2377" lon="7.01029"><ele></ele><time>2017-6-21T3:25:34Z</time></trkpt>
<trkpt lat="46.23768" lon="7.01026"><ele></ele><time>2017-6-21T3:25:37Z</time></trkpt>
<trkpt lat="46.23766" lon="7.01024"><ele></ele><time>2017-6-21T3:25:40Z</time></trkpt>
<trkpt lat="46.23764" lon="7.01022"><ele></ele><time>2017-6-21T3:25:43Z</time></trkpt>
<trkpt lat="46.23761" lon="7.01019"><ele></ele><time>2017-6-21T3:25:46Z</time></trkpt>
<trkpt lat="46.23759" lon="7.01017"><ele></ele><time>2017-6-21T3:25:49Z</time></trkpt>
<trkpt lat="46.23757" lon="7.01015"><ele></ele><time>2017-6-21T3:25:52Z</time></trkpt>
<trkpt lat="46.23755" lon="7.01013"><ele></ele><time>2017-6-21T3:25:55Z</time></trkpt>
<trkpt lat="46.23753" lon="7.01011"><ele></ele><time>2017-6-21T3:25:58Z</time></trkpt>
<trkpt lat="46.23751" lon="7.01009"><ele></ele><time>2017-6-21T3:26:1Z</time></trkpt>
<trkpt lat="46.23749" lon="7.01007"><ele></ele><time>2017-6-21T3:26:4Z</time></trkpt>
<trkpt lat="46.23747" lon="7.01004"><ele></ele><time>2017-6-21T3:26:7Z</time></trkpt>
<trkpt lat="46.23744" lon="7.01002"><ele></ele><time>2017-6-21T3:26:10Z</time></trkpt>
<trkpt lat="46.23742" lon="7.01"><ele></ele><time>2017-6-21T3:26:13Z</time></trkpt>
<trkpt lat="46.2374" lon="7.00998"><ele></ele><time>2017-6-21T3:26:16Z</time></trkpt>
<trkpt lat="46.23738" lon="7.00996"><ele></ele><time>2017-6-21T3:26:19Z</time></trkpt>
<trkpt lat="46.23735" lon="7.00993"><ele></ele><time>2017-6-21T3:26:22Z</time></trkpt>
<trkpt lat="46.23731" lon="7.00988"><ele></ele><time>2017-6-21T3:26:25Z</time></trkpt>
<trkpt lat="46.23712" lon="7.00965"><ele></ele><time>2017-6-21T3:26:28Z</time></trkpt>
<trkpt lat="46.23711" lon="7.00964"><ele></ele><time>2017-6-21T3:26:31Z</time></trkpt>
<trkpt lat="46.2371" lon="7.00963"><ele></ele><time>2017-6-21T3:26:34Z</time></trkpt>
<trkpt lat="46.23707" lon="7.0096"><ele></ele><time>2017-6-21T3:26:37Z</time></trkpt>
<trkpt lat="46.23705" lon="7.00957"><ele></ele><time>2017-6-21T3:26:40Z</time></trkpt>
<trkpt lat="46.23703" lon="7.00955"><ele></ele><time>2017-6-21T3:26:43Z</time></trkpt>
<trkpt lat="46.23701" lon="7.00952"><ele></ele><time>2017-6-21T3:26:46Z</time></trkpt>
<trkpt lat="46.23698" lon="7.00949"><ele></ele><time>2017-6-21T3:26:49Z</time></trkpt>
<trkpt lat="46.23696" lon="7.00947"><ele></ele><time>2017-6-21T3:26:52Z</time></trkpt>
<trkpt lat="46.23695" lon="7.00946"><ele></ele><time>2017-6-21T3:26:55Z</time></trkpt>
<trkpt lat="46.23694" lon="7.00947"><ele></ele><time>2017-6-21T3:26:58Z</time></trkpt>
<trkpt lat="46.23691" lon="7.00948"><ele></ele><time>2017-6-21T3:27:1Z</time></trkpt>
<trkpt lat="46.2369" lon="7.00949"><ele></ele><time>2017-6-21T3:27:4Z</time></trkpt>
<trkpt lat="46.23688" lon="7.00949"><ele></ele><time>2017-6-21T3:27:7Z</time></trkpt>
<trkpt lat="46.23685" lon="7.00951"><ele></ele><time>2017-6-21T3:27:10Z</time></trkpt>
<trkpt lat="46.23683" lon="7.00952"><ele></ele><time>2017-6-21T3:27:13Z</time></trkpt>
<trkpt lat="46.2368" lon="7.00954"><ele></ele><time>2017-6-21T3:27:16Z</time></trkpt>
<trkpt lat="46.23678" lon="7.00957"><ele></ele><time>2017-6-21T3:27:19Z</time></trkpt>
<trkpt lat="46.23676" lon="7.0096"><ele></ele><time>2017-6-21T3:27:22Z</time></trkpt>
<trkpt lat="46.23674" lon="7.00963"><ele></ele><time>2017-6-21T3:27:25Z</time></trkpt>
<trkpt lat="46.23672" lon="7.00966"><ele></ele><time>2017-6-21T3:27:28Z</time></trkpt>
<trkpt lat="46.2367" lon="7.0097"><ele></ele><time>2017-6-21T3:27:31Z</time></trkpt>
<trkpt lat="46.23668" lon="7.00973"><ele></ele><time>2017-6-21T3:27:34Z</time></trkpt>
<trkpt lat="46.23666" lon="7.00976"><ele></ele><time>2017-6-21T3:27:37Z</time></trkpt>
<trkpt lat="46.23664" lon="7.00979"><ele></ele><time>2017-6-21T3:27:40Z</time></trkpt>
<trkpt lat="46.23663" lon="7.00983"><ele></ele><time>2017-6-21T3:27:43Z</time></trkpt>
<trkpt lat="46.23661" lon="7.00986"><ele></ele><time>2017-6-21T3:27:46Z</time></trkpt>
<trkpt lat="46.23659" lon="7.00989"><ele></ele><time>2017-6-21T3:27:49Z</time></trkpt>
<trkpt lat="46.23657" lon="7.00992"><ele></ele><time>2017-6-21T3:27:52Z</time></trkpt>
<trkpt lat="46.23655" lon="7.00995"><ele></ele><time>2017-6-21T3:27:55Z</time></trkpt>
<trkpt lat="46.23654" lon="7.00997"><ele></ele><time>2017-6-21T3:27:58Z</time></trkpt>
<trkpt lat="46.23653" lon="7.00999"><ele></ele><time>2017-6-21T3:28:1Z</time></trkpt>
<trkpt lat="46.23651" lon="7.01002"><ele></ele><time>2017-6-21T3:28:4Z</time></trkpt>
<trkpt lat="46.2365" lon="7.01003"><ele></ele><time>2017-6-21T3:28:7Z</time></trkpt>
<trkpt lat="46.23649" lon="7.01005"><ele></ele><time>2017-6-21T3:28:10Z</time></trkpt>
<trkpt lat="46.23647" lon="7.01007"><ele></ele><time>2017-6-21T3:28:13Z</time></trkpt>
<trkpt lat="46.23644" lon="7.0101"><ele></ele><time>2017-6-21T3:28:16Z</time></trkpt>
<trkpt lat="46.23642" lon="7.01013"><ele></ele><time>2017-6-21T3:28:19Z</time></trkpt>
<trkpt lat="46.2364" lon="7.01015"><ele></ele><time>2017-6-21T3:28:22Z</time></trkpt>
<trkpt lat="46.23638" lon="7.01018"><ele></ele><time>2017-6-21T3:28:25Z</time></trkpt>
<trkpt lat="46.23636" lon="7.01021"><ele></ele><time>2017-6-21T3:28:28Z</time></trkpt>
<trkpt lat="46.23633" lon="7.01023"><ele></ele><time>2017-6-21T3:28:31Z</time></trkpt>
<trkpt lat="46.23631" lon="7.01026"><ele></ele><time>2017-6-21T3:28:34Z</time></trkpt>
<trkpt lat="46.2363" lon="7.01027"><ele></ele><time>2017-6-21T3:28:37Z</time></trkpt>
<trkpt lat="46.23629" lon="7.01029"><ele></ele><time>2017-6-21T3:28:40Z</time></trkpt>
<trkpt lat="46.23627" lon="7.01031"><ele></ele><time>2017-6-21T3:28:43Z</time></trkpt>
<trkpt lat="46.23625" lon="7.01034"><ele></ele><time>2017-6-21T3:28:46Z</time></trkpt>
<trkpt lat="46.23623" lon="7.01037"><ele></ele><time>2017-6-21T3:28:49Z</time></trkpt>
<trkpt lat="46.2362" lon="7.01039"><ele></ele><time>2017-6-21T3:28:52Z</time></trkpt>
<trkpt lat="46.23618" lon="7.01042"><ele></ele><time>2017-6-21T3:28:55Z</time></trkpt>
<trkpt lat="46.23616" lon="7.01045"><ele></ele><time>2017-6-21T3:28:58Z</time></trkpt>
<trkpt lat="46.23615" lon="7.01046"><ele></ele><time>2017-6-21T3:29:1Z</time></trkpt>
<trkpt lat="46.23613" lon="7.01047"><ele></ele><time>2017-6-21T3:29:4Z</time></trkpt>
<trkpt lat="46.23612" lon="7.01048"><ele></ele><time>2017-6-21T3:29:7Z</time></trkpt>
<trkpt lat="46.23611" lon="7.01049"><ele></ele><time>2017-6-21T3:29:10Z</time></trkpt>
<trkpt lat="46.23608" lon="7.01051"><ele></ele><time>2017-6-21T3:29:13Z</time></trkpt>
<trkpt lat="46.23579" lon="7.01074"><ele></ele><time>2017-6-21T3:29:16Z</time></trkpt>
<trkpt lat="46.23576" lon="7.01077"><ele></ele><time>2017-6-21T3:29:19Z</time></trkpt>
<trkpt lat="46.23575" lon="7.01077"><ele></ele><time>2017-6-21T3:29:22Z</time></trkpt>
<trkpt lat="46.23573" lon="7.01077"><ele></ele><time>2017-6-21T3:29:25Z</time></trkpt>
<trkpt lat="46.23571" lon="7.01077"><ele></ele><time>2017-6-21T3:29:28Z</time></trkpt>
<trkpt lat="46.23569" lon="7.01077"><ele></ele><time>2017-6-21T3:29:31Z</time></trkpt>
<trkpt lat="46.23568" lon="7.01077"><ele></ele><time>2017-6-21T3:29:34Z</time></trkpt>
<trkpt lat="46.23565" lon="7.01078"><ele></ele><time>2017-6-21T3:29:37Z</time></trkpt>
<trkpt lat="46.23562" lon="7.01078"><ele></ele><time>2017-6-21T3:29:40Z</time></trkpt>
<trkpt lat="46.2356" lon="7.01078"><ele></ele><time>2017-6-21T3:29:43Z</time></trkpt>
<trkpt lat="46.23559" lon="7.01078"><ele></ele><time>2017-6-21T3:29:46Z</time></trkpt>
<trkpt lat="46.23556" lon="7.01078"><ele></ele><time>2017-6-21T3:29:49Z</time></trkpt>
<trkpt lat="46.23553" lon="7.01078"><ele></ele><time>2017-6-21T3:29:52Z</time></trkpt>
<trkpt lat="46.2355" lon="7.01078"><ele></ele><time>2017-6-21T3:29:55Z</time></trkpt>
<trkpt lat="46.23547" lon="7.01078"><ele></ele><time>2017-6-21T3:29:58Z</time></trkpt>
<trkpt lat="46.23545" lon="7.01078"><ele></ele><time>2017-6-21T3:30:1Z</time></trkpt>
<trkpt lat="46.23542" lon="7.01078"><ele></ele><time>2017-6-21T3:30:4Z</time></trkpt>
<trkpt lat="46.23539" lon="7.01078"><ele></ele><time>2017-6-21T3:30:7Z</time></trkpt>
<trkpt lat="46.23536" lon="7.01078"><ele></ele><time>2017-6-21T3:30:10Z</time></trkpt>
<trkpt lat="46.23533" lon="7.01078"><ele></ele><time>2017-6-21T3:30:13Z</time></trkpt>
<trkpt lat="46.2353" lon="7.01078"><ele></ele><time>2017-6-21T3:30:16Z</time></trkpt>
<trkpt lat="46.23527" lon="7.01077"><ele></ele><time>2017-6-21T3:30:19Z</time></trkpt>
<trkpt lat="46.23524" lon="7.01076"><ele></ele><time>2017-6-21T3:30:22Z</time></trkpt>
<trkpt lat="46.2352" lon="7.01075"><ele></ele><time>2017-6-21T3:30:25Z</time></trkpt>
<trkpt lat="46.23517" lon="7.01074"><ele></ele><time>2017-6-21T3:30:28Z</time></trkpt>
<trkpt lat="46.23514" lon="7.01073"><ele></ele><time>2017-6-21T3:30:31Z</time></trkpt>
<trkpt lat="46.2351" lon="7.01072"><ele></ele><time>2017-6-21T3:30:34Z</time></trkpt>
<trkpt lat="46.23509" lon="7.01072"><ele></ele><time>2017-6-21T3:30:37Z</time></trkpt>
<trkpt lat="46.23507" lon="7.01071"><ele></ele><time>2017-6-21T3:30:40Z</time></trkpt>
<trkpt lat="46.23504" lon="7.0107"><ele></ele><time>2017-6-21T3:30:43Z</time></trkpt>
<trkpt lat="46.23501" lon="7.0107"><ele></ele><time>2017-6-21T3:30:46Z</time></trkpt>
<trkpt lat="46.235" lon="7.01076"><ele></ele><time>2017-6-21T3:30:49Z</time></trkpt>
<trkpt lat="46.235" lon="7.01081"><ele></ele><time>2017-6-21T3:30:52Z</time></trkpt>
<trkpt lat="46.23499" lon="7.01086"><ele></ele><time>2017-6-21T3:30:55Z</time></trkpt>
<trkpt lat="46.23498" lon="7.01092"><ele></ele><time>2017-6-21T3:30:58Z</time></trkpt>
<trkpt lat="46.23498" lon="7.01097"><ele></ele><time>2017-6-21T3:31:1Z</time></trkpt>
<trkpt lat="46.23497" lon="7.01102"><ele></ele><time>2017-6-21T3:31:4Z</time></trkpt>
<trkpt lat="46.23496" lon="7.01108"><ele></ele><time>2017-6-21T3:31:7Z</time></trkpt>
<trkpt lat="46.23496" lon="7.01113"><ele></ele><time>2017-6-21T3:31:10Z</time></trkpt>
<trkpt lat="46.23495" lon="7.01118"><ele></ele><time>2017-6-21T3:31:13Z</time></trkpt>
<trkpt lat="46.23494" lon="7.01124"><ele></ele><time>2017-6-21T3:31:16Z</time></trkpt>
<trkpt lat="46.23493" lon="7.01129"><ele></ele><time>2017-6-21T3:31:19Z</time></trkpt>
<trkpt lat="46.23493" lon="7.01134"><ele></ele><time>2017-6-21T3:31:22Z</time></trkpt>
<trkpt lat="46.23491" lon="7.01139"><ele></ele><time>2017-6-21T3:31:25Z</time></trkpt>
<trkpt lat="46.23489" lon="7.01142"><ele></ele><time>2017-6-21T3:31:28Z</time></trkpt>
<trkpt lat="46.23484" lon="7.01143"><ele></ele><time>2017-6-21T3:31:31Z</time></trkpt>
<trkpt lat="46.2348" lon="7.01144"><ele></ele><time>2017-6-21T3:31:34Z</time></trkpt>
<trkpt lat="46.23475" lon="7.01145"><ele></ele><time>2017-6-21T3:31:37Z</time></trkpt>
<trkpt lat="46.23471" lon="7.01146"><ele></ele><time>2017-6-21T3:31:40Z</time></trkpt>
<trkpt lat="46.23466" lon="7.01147"><ele></ele><time>2017-6-21T3:31:43Z</time></trkpt>
<trkpt lat="46.23462" lon="7.01148"><ele></ele><time>2017-6-21T3:31:46Z</time></trkpt>
<trkpt lat="46.23457" lon="7.0115"><ele></ele><time>2017-6-21T3:31:49Z</time></trkpt>
<trkpt lat="46.23453" lon="7.01151"><ele></ele><time>2017-6-21T3:31:52Z</time></trkpt>
<trkpt lat="46.23448" lon="7.01152"><ele></ele><time>2017-6-21T3:31:55Z</time></trkpt>
<trkpt lat="46.23444" lon="7.01153"><ele></ele><time>2017-6-21T3:31:58Z</time></trkpt>
<trkpt lat="46.23439" lon="7.01154"><ele></ele><time>2017-6-21T3:32:1Z</time></trkpt>
<trkpt lat="46.23423" lon="7.01156"><ele></ele><time>2017-6-21T3:32:4Z</time></trkpt>
<trkpt lat="46.23398" lon="7.0116"><ele></ele><time>2017-6-21T3:32:7Z</time></trkpt>
<trkpt lat="46.23394" lon="7.01158"><ele></ele><time>2017-6-21T3:32:10Z</time></trkpt>
<trkpt lat="46.2339" lon="7.01156"><ele></ele><time>2017-6-21T3:32:13Z</time></trkpt>
<trkpt lat="46.23386" lon="7.01154"><ele></ele><time>2017-6-21T3:32:16Z</time></trkpt>
<trkpt lat="46.23382" lon="7.01152"><ele></ele><time>2017-6-21T3:32:19Z</time></trkpt>
<trkpt lat="46.23378" lon="7.0115"><ele></ele><time>2017-6-21T3:32:22Z</time></trkpt>
<trkpt lat="46.23374" lon="7.01148"><ele></ele><time>2017-6-21T3:32:25Z</time></trkpt>
<trkpt lat="46.23369" lon="7.01146"><ele></ele><time>2017-6-21T3:32:28Z</time></trkpt>
<trkpt lat="46.23365" lon="7.01144"><ele></ele><time>2017-6-21T3:32:31Z</time></trkpt>
<trkpt lat="46.23361" lon="7.01142"><ele></ele><time>2017-6-21T3:32:34Z</time></trkpt>
<trkpt lat="46.23357" lon="7.0114"><ele></ele><time>2017-6-21T3:32:37Z</time></trkpt>
<trkpt lat="46.23355" lon="7.01138"><ele></ele><time>2017-6-21T3:32:40Z</time></trkpt>
<trkpt lat="46.23353" lon="7.01136"><ele></ele><time>2017-6-21T3:32:43Z</time></trkpt>
<trkpt lat="46.23351" lon="7.01134"><ele></ele><time>2017-6-21T3:32:46Z</time></trkpt>
<trkpt lat="46.23349" lon="7.01132"><ele></ele><time>2017-6-21T3:32:49Z</time></trkpt>
<trkpt lat="46.23345" lon="7.01129"><ele></ele><time>2017-6-21T3:32:52Z</time></trkpt>
<trkpt lat="46.23341" lon="7.01125"><ele></ele><time>2017-6-21T3:32:55Z</time></trkpt>
<trkpt lat="46.23337" lon="7.01121"><ele></ele><time>2017-6-21T3:32:58Z</time></trkpt>
<trkpt lat="46.23333" lon="7.01117"><ele></ele><time>2017-6-21T3:33:1Z</time></trkpt>
<trkpt lat="46.23329" lon="7.01113"><ele></ele><time>2017-6-21T3:33:4Z</time></trkpt>
<trkpt lat="46.23324" lon="7.01109"><ele></ele><time>2017-6-21T3:33:7Z</time></trkpt>
<trkpt lat="46.2332" lon="7.01105"><ele></ele><time>2017-6-21T3:33:10Z</time></trkpt>
<trkpt lat="46.23316" lon="7.01101"><ele></ele><time>2017-6-21T3:33:13Z</time></trkpt>
<trkpt lat="46.23313" lon="7.01092"><ele></ele><time>2017-6-21T3:33:16Z</time></trkpt>
<trkpt lat="46.23309" lon="7.01083"><ele></ele><time>2017-6-21T3:33:19Z</time></trkpt>
<trkpt lat="46.23305" lon="7.01074"><ele></ele><time>2017-6-21T3:33:22Z</time></trkpt>
<trkpt lat="46.23302" lon="7.01065"><ele></ele><time>2017-6-21T3:33:25Z</time></trkpt>
<trkpt lat="46.23298" lon="7.01056"><ele></ele><time>2017-6-21T3:33:28Z</time></trkpt>
<trkpt lat="46.23294" lon="7.01048"><ele></ele><time>2017-6-21T3:33:31Z</time></trkpt>
<trkpt lat="46.23293" lon="7.01043"><ele></ele><time>2017-6-21T3:33:34Z</time></trkpt>
<trkpt lat="46.23292" lon="7.01039"><ele></ele><time>2017-6-21T3:33:37Z</time></trkpt>
<trkpt lat="46.2329" lon="7.01031"><ele></ele><time>2017-6-21T3:33:40Z</time></trkpt>
<trkpt lat="46.23289" lon="7.01023"><ele></ele><time>2017-6-21T3:33:43Z</time></trkpt>
<trkpt lat="46.23287" lon="7.01015"><ele></ele><time>2017-6-21T3:33:46Z</time></trkpt>
<trkpt lat="46.23285" lon="7.01007"><ele></ele><time>2017-6-21T3:33:49Z</time></trkpt>
<trkpt lat="46.23283" lon="7.00999"><ele></ele><time>2017-6-21T3:33:52Z</time></trkpt>
<trkpt lat="46.23282" lon="7.00991"><ele></ele><time>2017-6-21T3:33:55Z</time></trkpt>
<trkpt lat="46.2328" lon="7.00983"><ele></ele><time>2017-6-21T3:33:58Z</time></trkpt>
<trkpt lat="46.23279" lon="7.00979"><ele></ele><time>2017-6-21T3:34:1Z</time></trkpt>
<trkpt lat="46.23278" lon="7.00976"><ele></ele><time>2017-6-21T3:34:4Z</time></trkpt>
<trkpt lat="46.23276" lon="7.00969"><ele></ele><time>2017-6-21T3:34:7Z</time></trkpt>
<trkpt lat="46.23273" lon="7.00962"><ele></ele><time>2017-6-21T3:34:10Z</time></trkpt>
<trkpt lat="46.23271" lon="7.00955"><ele></ele><time>2017-6-21T3:34:13Z</time></trkpt>
<trkpt lat="46.23269" lon="7.00948"><ele></ele><time>2017-6-21T3:34:16Z</time></trkpt>
<trkpt lat="46.23267" lon="7.00941"><ele></ele><time>2017-6-21T3:34:19Z</time></trkpt>
<trkpt lat="46.23264" lon="7.00934"><ele></ele><time>2017-6-21T3:34:22Z</time></trkpt>
<trkpt lat="46.23263" lon="7.0093"><ele></ele><time>2017-6-21T3:34:25Z</time></trkpt>
<trkpt lat="46.23262" lon="7.00927"><ele></ele><time>2017-6-21T3:34:28Z</time></trkpt>
<trkpt lat="46.23261" lon="7.00924"><ele></ele><time>2017-6-21T3:34:31Z</time></trkpt>
<trkpt lat="46.23258" lon="7.00923"><ele></ele><time>2017-6-21T3:34:34Z</time></trkpt>
<trkpt lat="46.23253" lon="7.0092"><ele></ele><time>2017-6-21T3:34:37Z</time></trkpt>
<trkpt lat="46.23248" lon="7.00918"><ele></ele><time>2017-6-21T3:34:40Z</time></trkpt>
<trkpt lat="46.23242" lon="7.00915"><ele></ele><time>2017-6-21T3:34:43Z</time></trkpt>
<trkpt lat="46.2324" lon="7.00913"><ele></ele><time>2017-6-21T3:34:46Z</time></trkpt>
<trkpt lat="46.23238" lon="7.00908"><ele></ele><time>2017-6-21T3:34:49Z</time></trkpt>
<trkpt lat="46.23236" lon="7.00903"><ele></ele><time>2017-6-21T3:34:52Z</time></trkpt>
<trkpt lat="46.23235" lon="7.00895"><ele></ele><time>2017-6-21T3:34:55Z</time></trkpt>
<trkpt lat="46.23232" lon="7.0088"><ele></ele><time>2017-6-21T3:34:58Z</time></trkpt>
<trkpt lat="46.2323" lon="7.00872"><ele></ele><time>2017-6-21T3:35:1Z</time></trkpt>
<trkpt lat="46.23225" lon="7.00843"><ele></ele><time>2017-6-21T3:35:4Z</time></trkpt>
<trkpt lat="46.23222" lon="7.00842"><ele></ele><time>2017-6-21T3:35:7Z</time></trkpt>
<trkpt lat="46.23209" lon="7.00852"><ele></ele><time>2017-6-21T3:35:10Z</time></trkpt>
<trkpt lat="46.23196" lon="7.00861"><ele></ele><time>2017-6-21T3:35:13Z</time></trkpt>
<trkpt lat="46.23192" lon="7.00865"><ele></ele><time>2017-6-21T3:35:16Z</time></trkpt>
<trkpt lat="46.23188" lon="7.00868"><ele></ele><time>2017-6-21T3:35:19Z</time></trkpt>
<trkpt lat="46.23184" lon="7.00871"><ele></ele><time>2017-6-21T3:35:22Z</time></trkpt>
<trkpt lat="46.23181" lon="7.00872"><ele></ele><time>2017-6-21T3:35:25Z</time></trkpt>
<trkpt lat="46.2318" lon="7.00873"><ele></ele><time>2017-6-21T3:35:28Z</time></trkpt>
<trkpt lat="46.23176" lon="7.00873"><ele></ele><time>2017-6-21T3:35:31Z</time></trkpt>
<trkpt lat="46.23174" lon="7.00873"><ele></ele><time>2017-6-21T3:35:34Z</time></trkpt>
<trkpt lat="46.23173" lon="7.00874"><ele></ele><time>2017-6-21T3:35:37Z</time></trkpt>
<trkpt lat="46.23169" lon="7.00874"><ele></ele><time>2017-6-21T3:35:40Z</time></trkpt>
<trkpt lat="46.23166" lon="7.00875"><ele></ele><time>2017-6-21T3:35:43Z</time></trkpt>
<trkpt lat="46.23162" lon="7.00875"><ele></ele><time>2017-6-21T3:35:46Z</time></trkpt>
<trkpt lat="46.23158" lon="7.00876"><ele></ele><time>2017-6-21T3:35:49Z</time></trkpt>
<trkpt lat="46.23157" lon="7.00877"><ele></ele><time>2017-6-21T3:35:52Z</time></trkpt>
<trkpt lat="46.23155" lon="7.0088"><ele></ele><time>2017-6-21T3:35:55Z</time></trkpt>
<trkpt lat="46.23152" lon="7.00885"><ele></ele><time>2017-6-21T3:35:58Z</time></trkpt>
<trkpt lat="46.23148" lon="7.00891"><ele></ele><time>2017-6-21T3:36:1Z</time></trkpt>
<trkpt lat="46.23145" lon="7.00897"><ele></ele><time>2017-6-21T3:36:4Z</time></trkpt>
<trkpt lat="46.23143" lon="7.009"><ele></ele><time>2017-6-21T3:36:7Z</time></trkpt>
<trkpt lat="46.23141" lon="7.00902"><ele></ele><time>2017-6-21T3:36:10Z</time></trkpt>
<trkpt lat="46.23138" lon="7.00908"><ele></ele><time>2017-6-21T3:36:13Z</time></trkpt>
<trkpt lat="46.23135" lon="7.00914"><ele></ele><time>2017-6-21T3:36:16Z</time></trkpt>
<trkpt lat="46.23131" lon="7.00919"><ele></ele><time>2017-6-21T3:36:19Z</time></trkpt>
<trkpt lat="46.23128" lon="7.00925"><ele></ele><time>2017-6-21T3:36:22Z</time></trkpt>
<trkpt lat="46.23126" lon="7.00928"><ele></ele><time>2017-6-21T3:36:25Z</time></trkpt>
<trkpt lat="46.23123" lon="7.00929"><ele></ele><time>2017-6-21T3:36:28Z</time></trkpt>
<trkpt lat="46.23118" lon="7.00933"><ele></ele><time>2017-6-21T3:36:31Z</time></trkpt>
<trkpt lat="46.23113" lon="7.00937"><ele></ele><time>2017-6-21T3:36:34Z</time></trkpt>
<trkpt lat="46.23108" lon="7.00941"><ele></ele><time>2017-6-21T3:36:37Z</time></trkpt>
<trkpt lat="46.23103" lon="7.00944"><ele></ele><time>2017-6-21T3:36:40Z</time></trkpt>
<trkpt lat="46.23098" lon="7.00948"><ele></ele><time>2017-6-21T3:36:43Z</time></trkpt>
<trkpt lat="46.23092" lon="7.00952"><ele></ele><time>2017-6-21T3:36:46Z</time></trkpt>
<trkpt lat="46.23087" lon="7.00956"><ele></ele><time>2017-6-21T3:36:49Z</time></trkpt>
<trkpt lat="46.23084" lon="7.00958"><ele></ele><time>2017-6-21T3:36:52Z</time></trkpt>
<trkpt lat="46.23081" lon="7.0096"><ele></ele><time>2017-6-21T3:36:55Z</time></trkpt>
<trkpt lat="46.23075" lon="7.00964"><ele></ele><time>2017-6-21T3:36:58Z</time></trkpt>
<trkpt lat="46.23068" lon="7.00969"><ele></ele><time>2017-6-21T3:37:1Z</time></trkpt>
<trkpt lat="46.23062" lon="7.00973"><ele></ele><time>2017-6-21T3:37:4Z</time></trkpt>
<trkpt lat="46.23056" lon="7.00978"><ele></ele><time>2017-6-21T3:37:7Z</time></trkpt>
<trkpt lat="46.23049" lon="7.00982"><ele></ele><time>2017-6-21T3:37:10Z</time></trkpt>
<trkpt lat="46.23042" lon="7.00988"><ele></ele><time>2017-6-21T3:37:13Z</time></trkpt>
<trkpt lat="46.23034" lon="7.01004"><ele></ele><time>2017-6-21T3:37:16Z</time></trkpt>
<trkpt lat="46.23025" lon="7.01019"><ele></ele><time>2017-6-21T3:37:19Z</time></trkpt>
<trkpt lat="46.23016" lon="7.01035"><ele></ele><time>2017-6-21T3:37:22Z</time></trkpt>
<trkpt lat="46.23011" lon="7.01043"><ele></ele><time>2017-6-21T3:37:25Z</time></trkpt>
<trkpt lat="46.23004" lon="7.01051"><ele></ele><time>2017-6-21T3:37:28Z</time></trkpt>
<trkpt lat="46.22997" lon="7.01057"><ele></ele><time>2017-6-21T3:37:31Z</time></trkpt>
<trkpt lat="46.22988" lon="7.01061"><ele></ele><time>2017-6-21T3:37:34Z</time></trkpt>
<trkpt lat="46.22979" lon="7.01064"><ele></ele><time>2017-6-21T3:37:37Z</time></trkpt>
<trkpt lat="46.2297" lon="7.01068"><ele></ele><time>2017-6-21T3:37:40Z</time></trkpt>
<trkpt lat="46.22953" lon="7.01074"><ele></ele><time>2017-6-21T3:37:43Z</time></trkpt>
<trkpt lat="46.22937" lon="7.01077"><ele></ele><time>2017-6-21T3:37:46Z</time></trkpt>
<trkpt lat="46.22922" lon="7.01081"><ele></ele><time>2017-6-21T3:37:49Z</time></trkpt>
<trkpt lat="46.22907" lon="7.01085"><ele></ele><time>2017-6-21T3:37:52Z</time></trkpt>
<trkpt lat="46.22896" lon="7.01094"><ele></ele><time>2017-6-21T3:37:55Z</time></trkpt>
<trkpt lat="46.22885" lon="7.01103"><ele></ele><time>2017-6-21T3:37:58Z</time></trkpt>
<trkpt lat="46.22874" lon="7.01111"><ele></ele><time>2017-6-21T3:38:1Z</time></trkpt>
<trkpt lat="46.22859" lon="7.01116"><ele></ele><time>2017-6-21T3:38:4Z</time></trkpt>
<trkpt lat="46.22845" lon="7.01122"><ele></ele><time>2017-6-21T3:38:7Z</time></trkpt>
<trkpt lat="46.22841" lon="7.01132"><ele></ele><time>2017-6-21T3:38:10Z</time></trkpt>
<trkpt lat="46.22842" lon="7.01138"><ele></ele><time>2017-6-21T3:38:13Z</time></trkpt>
<trkpt lat="46.22843" lon="7.01145"><ele></ele><time>2017-6-21T3:38:16Z</time></trkpt>
<trkpt lat="46.22848" lon="7.01172"><ele></ele><time>2017-6-21T3:38:19Z</time></trkpt>
<trkpt lat="46.22851" lon="7.01188"><ele></ele><time>2017-6-21T3:38:22Z</time></trkpt>
<trkpt lat="46.22852" lon="7.01195"><ele></ele><time>2017-6-21T3:38:25Z</time></trkpt>
<trkpt lat="46.22857" lon="7.01202"><ele></ele><time>2017-6-21T3:38:28Z</time></trkpt>
<trkpt lat="46.22859" lon="7.01204"><ele></ele><time>2017-6-21T3:38:31Z</time></trkpt>
<trkpt lat="46.2286" lon="7.01206"><ele></ele><time>2017-6-21T3:38:34Z</time></trkpt>
<trkpt lat="46.22864" lon="7.01211"><ele></ele><time>2017-6-21T3:38:37Z</time></trkpt>
<trkpt lat="46.22867" lon="7.01216"><ele></ele><time>2017-6-21T3:38:40Z</time></trkpt>
<trkpt lat="46.2287" lon="7.0122"><ele></ele><time>2017-6-21T3:38:43Z</time></trkpt>
<trkpt lat="46.22873" lon="7.01225"><ele></ele><time>2017-6-21T3:38:46Z</time></trkpt>
<trkpt lat="46.22877" lon="7.0123"><ele></ele><time>2017-6-21T3:38:49Z</time></trkpt>
<trkpt lat="46.2288" lon="7.01234"><ele></ele><time>2017-6-21T3:38:52Z</time></trkpt>
<trkpt lat="46.22883" lon="7.01239"><ele></ele><time>2017-6-21T3:38:55Z</time></trkpt>
<trkpt lat="46.22885" lon="7.01241"><ele></ele><time>2017-6-21T3:38:58Z</time></trkpt>
<trkpt lat="46.22887" lon="7.01243"><ele></ele><time>2017-6-21T3:39:1Z</time></trkpt>
<trkpt lat="46.2289" lon="7.01245"><ele></ele><time>2017-6-21T3:39:4Z</time></trkpt>
<trkpt lat="46.22894" lon="7.01248"><ele></ele><time>2017-6-21T3:39:7Z</time></trkpt>
<trkpt lat="46.22898" lon="7.01251"><ele></ele><time>2017-6-21T3:39:10Z</time></trkpt>
<trkpt lat="46.22901" lon="7.01254"><ele></ele><time>2017-6-21T3:39:13Z</time></trkpt>
<trkpt lat="46.22905" lon="7.01257"><ele></ele><time>2017-6-21T3:39:16Z</time></trkpt>
<trkpt lat="46.22909" lon="7.0126"><ele></ele><time>2017-6-21T3:39:19Z</time></trkpt>
<trkpt lat="46.22912" lon="7.01263"><ele></ele><time>2017-6-21T3:39:22Z</time></trkpt>
<trkpt lat="46.22916" lon="7.01265"><ele></ele><time>2017-6-21T3:39:25Z</time></trkpt>
<trkpt lat="46.2292" lon="7.01268"><ele></ele><time>2017-6-21T3:39:28Z</time></trkpt>
<trkpt lat="46.22923" lon="7.01271"><ele></ele><time>2017-6-21T3:39:31Z</time></trkpt>
<trkpt lat="46.22924" lon="7.01272"><ele></ele><time>2017-6-21T3:39:34Z</time></trkpt>
<trkpt lat="46.22923" lon="7.01273"><ele></ele><time>2017-6-21T3:39:37Z</time></trkpt>
<trkpt lat="46.22922" lon="7.01275"><ele></ele><time>2017-6-21T3:39:40Z</time></trkpt>
<trkpt lat="46.2292" lon="7.01277"><ele></ele><time>2017-6-21T3:39:43Z</time></trkpt>
<trkpt lat="46.22918" lon="7.01278"><ele></ele><time>2017-6-21T3:39:46Z</time></trkpt>
<trkpt lat="46.22916" lon="7.0128"><ele></ele><time>2017-6-21T3:39:49Z</time></trkpt>
<trkpt lat="46.22915" lon="7.01281"><ele></ele><time>2017-6-21T3:39:52Z</time></trkpt>
<trkpt lat="46.22914" lon="7.01281"><ele></ele><time>2017-6-21T3:39:55Z</time></trkpt>
<trkpt lat="46.22912" lon="7.01283"><ele></ele><time>2017-6-21T3:39:58Z</time></trkpt>
<trkpt lat="46.2291" lon="7.01285"><ele></ele><time>2017-6-21T3:40:1Z</time></trkpt>
<trkpt lat="46.22908" lon="7.01286"><ele></ele><time>2017-6-21T3:40:4Z</time></trkpt>
<trkpt lat="46.22906" lon="7.01288"><ele></ele><time>2017-6-21T3:40:7Z</time></trkpt>
<trkpt lat="46.22904" lon="7.0129"><ele></ele><time>2017-6-21T3:40:10Z</time></trkpt>
<trkpt lat="46.22902" lon="7.01291"><ele></ele><time>2017-6-21T3:40:13Z</time></trkpt>
<trkpt lat="46.229" lon="7.01293"><ele></ele><time>2017-6-21T3:40:16Z</time></trkpt>
<trkpt lat="46.22899" lon="7.01294"><ele></ele><time>2017-6-21T3:40:19Z</time></trkpt>
<trkpt lat="46.22899" lon="7.01295"><ele></ele><time>2017-6-21T3:40:22Z</time></trkpt>
<trkpt lat="46.22897" lon="7.01296"><ele></ele><time>2017-6-21T3:40:25Z</time></trkpt>
<trkpt lat="46.22895" lon="7.01298"><ele></ele><time>2017-6-21T3:40:28Z</time></trkpt>
<trkpt lat="46.22893" lon="7.013"><ele></ele><time>2017-6-21T3:40:31Z</time></trkpt>
<trkpt lat="46.22891" lon="7.01301"><ele></ele><time>2017-6-21T3:40:34Z</time></trkpt>
<trkpt lat="46.22889" lon="7.01303"><ele></ele><time>2017-6-21T3:40:37Z</time></trkpt>
<trkpt lat="46.22887" lon="7.01305"><ele></ele><time>2017-6-21T3:40:40Z</time></trkpt>
<trkpt lat="46.22885" lon="7.01306"><ele></ele><time>2017-6-21T3:40:43Z</time></trkpt>
<trkpt lat="46.22884" lon="7.01308"><ele></ele><time>2017-6-21T3:40:46Z</time></trkpt>
<trkpt lat="46.22883" lon="7.0131"><ele></ele><time>2017-6-21T3:40:49Z</time></trkpt>
<trkpt lat="46.22882" lon="7.01311"><ele></ele><time>2017-6-21T3:40:52Z</time></trkpt>
<trkpt lat="46.22881" lon="7.01313"><ele></ele><time>2017-6-21T3:40:55Z</time></trkpt>
<trkpt lat="46.2288" lon="7.01315"><ele></ele><time>2017-6-21T3:40:58Z</time></trkpt>
<trkpt lat="46.22879" lon="7.01316"><ele></ele><time>2017-6-21T3:41:1Z</time></trkpt>
<trkpt lat="46.22878" lon="7.01318"><ele></ele><time>2017-6-21T3:41:4Z</time></trkpt>
<trkpt lat="46.22877" lon="7.0132"><ele></ele><time>2017-6-21T3:41:7Z</time></trkpt>
<trkpt lat="46.22876" lon="7.01321"><ele></ele><time>2017-6-21T3:41:10Z</time></trkpt>
<trkpt lat="46.22875" lon="7.01323"><ele></ele><time>2017-6-21T3:41:13Z</time></trkpt>
<trkpt lat="46.22875" lon="7.01324"><ele></ele><time>2017-6-21T3:41:16Z</time></trkpt>
<trkpt lat="46.22875" lon="7.01325"><ele></ele><time>2017-6-21T3:41:19Z</time></trkpt>
<trkpt lat="46.22875" lon="7.01327"><ele></ele><time>2017-6-21T3:41:22Z</time></trkpt>
<trkpt lat="46.22876" lon="7.01344"><ele></ele><time>2017-6-21T3:41:25Z</time></trkpt>
<trkpt lat="46.22876" lon="7.01346"><ele></ele><time>2017-6-21T3:41:28Z</time></trkpt>
<trkpt lat="46.22876" lon="7.01347"><ele></ele><time>2017-6-21T3:41:31Z</time></trkpt>
<trkpt lat="46.22876" lon="7.01349"><ele></ele><time>2017-6-21T3:41:34Z</time></trkpt>
<trkpt lat="46.22876" lon="7.01351"><ele></ele><time>2017-6-21T3:41:37Z</time></trkpt>
<trkpt lat="46.22876" lon="7.01353"><ele></ele><time>2017-6-21T3:41:40Z</time></trkpt>
<trkpt lat="46.22876" lon="7.01355"><ele></ele><time>2017-6-21T3:41:43Z</time></trkpt>
<trkpt lat="46.22877" lon="7.01357"><ele></ele><time>2017-6-21T3:41:46Z</time></trkpt>
<trkpt lat="46.22877" lon="7.01359"><ele></ele><time>2017-6-21T3:41:49Z</time></trkpt>
<trkpt lat="46.22877" lon="7.01361"><ele></ele><time>2017-6-21T3:41:52Z</time></trkpt>
<trkpt lat="46.22877" lon="7.01363"><ele></ele><time>2017-6-21T3:41:55Z</time></trkpt>
<trkpt lat="46.22877" lon="7.01364"><ele></ele><time>2017-6-21T3:41:58Z</time></trkpt>
<trkpt lat="46.22877" lon="7.01366"><ele></ele><time>2017-6-21T3:42:1Z</time></trkpt>
<trkpt lat="46.22877" lon="7.01368"><ele></ele><time>2017-6-21T3:42:4Z</time></trkpt>
<trkpt lat="46.22877" lon="7.0137"><ele></ele><time>2017-6-21T3:42:7Z</time></trkpt>
<trkpt lat="46.22877" lon="7.01372"><ele></ele><time>2017-6-21T3:42:10Z</time></trkpt>
<trkpt lat="46.22877" lon="7.01374"><ele></ele><time>2017-6-21T3:42:13Z</time></trkpt>
<trkpt lat="46.22878" lon="7.01376"><ele></ele><time>2017-6-21T3:42:16Z</time></trkpt>
<trkpt lat="46.22878" lon="7.01378"><ele></ele><time>2017-6-21T3:42:19Z</time></trkpt>
<trkpt lat="46.22878" lon="7.01379"><ele></ele><time>2017-6-21T3:42:22Z</time></trkpt>
<trkpt lat="46.22878" lon="7.01381"><ele></ele><time>2017-6-21T3:42:25Z</time></trkpt>
<trkpt lat="46.22878" lon="7.01383"><ele></ele><time>2017-6-21T3:42:28Z</time></trkpt>
<trkpt lat="46.22878" lon="7.01385"><ele></ele><time>2017-6-21T3:42:31Z</time></trkpt>
<trkpt lat="46.22878" lon="7.01387"><ele></ele><time>2017-6-21T3:42:34Z</time></trkpt>
<trkpt lat="46.22878" lon="7.01389"><ele></ele><time>2017-6-21T3:42:37Z</time></trkpt>
<trkpt lat="46.22879" lon="7.01392"><ele></ele><time>2017-6-21T3:42:40Z</time></trkpt>
<trkpt lat="46.2288" lon="7.01396"><ele></ele><time>2017-6-21T3:42:43Z</time></trkpt>
<trkpt lat="46.22881" lon="7.01399"><ele></ele><time>2017-6-21T3:42:46Z</time></trkpt>
<trkpt lat="46.22882" lon="7.01402"><ele></ele><time>2017-6-21T3:42:49Z</time></trkpt>
<trkpt lat="46.22882" lon="7.01406"><ele></ele><time>2017-6-21T3:42:52Z</time></trkpt>
<trkpt lat="46.22883" lon="7.01409"><ele></ele><time>2017-6-21T3:42:55Z</time></trkpt>
<trkpt lat="46.22884" lon="7.01412"><ele></ele><time>2017-6-21T3:42:58Z</time></trkpt>
<trkpt lat="46.22885" lon="7.01416"><ele></ele><time>2017-6-21T3:43:1Z</time></trkpt>
<trkpt lat="46.22885" lon="7.01417"><ele></ele><time>2017-6-21T3:43:4Z</time></trkpt>
<trkpt lat="46.22886" lon="7.01419"><ele></ele><time>2017-6-21T3:43:7Z</time></trkpt>
<trkpt lat="46.22886" lon="7.01422"><ele></ele><time>2017-6-21T3:43:10Z</time></trkpt>
<trkpt lat="46.22887" lon="7.01425"><ele></ele><time>2017-6-21T3:43:13Z</time></trkpt>
<trkpt lat="46.22888" lon="7.01429"><ele></ele><time>2017-6-21T3:43:16Z</time></trkpt>
<trkpt lat="46.22889" lon="7.01432"><ele></ele><time>2017-6-21T3:43:19Z</time></trkpt>
<trkpt lat="46.2289" lon="7.01435"><ele></ele><time>2017-6-21T3:43:22Z</time></trkpt>
<trkpt lat="46.2289" lon="7.01439"><ele></ele><time>2017-6-21T3:43:25Z</time></trkpt>
<trkpt lat="46.22891" lon="7.01442"><ele></ele><time>2017-6-21T3:43:28Z</time></trkpt>
<trkpt lat="46.22892" lon="7.01445"><ele></ele><time>2017-6-21T3:43:31Z</time></trkpt>
<trkpt lat="46.22893" lon="7.01449"><ele></ele><time>2017-6-21T3:43:34Z</time></trkpt>
<trkpt lat="46.22894" lon="7.01452"><ele></ele><time>2017-6-21T3:43:37Z</time></trkpt>
<trkpt lat="46.22895" lon="7.01457"><ele></ele><time>2017-6-21T3:43:40Z</time></trkpt>
<trkpt lat="46.22896" lon="7.01461"><ele></ele><time>2017-6-21T3:43:43Z</time></trkpt>
<trkpt lat="46.22897" lon="7.01466"><ele></ele><time>2017-6-21T3:43:46Z</time></trkpt>
<trkpt lat="46.22897" lon="7.0147"><ele></ele><time>2017-6-21T3:43:49Z</time></trkpt>
<trkpt lat="46.22899" lon="7.01477"><ele></ele><time>2017-6-21T3:43:52Z</time></trkpt>
<trkpt lat="46.22905" lon="7.01504"><ele></ele><time>2017-6-21T3:43:55Z</time></trkpt>
<trkpt lat="46.22906" lon="7.01511"><ele></ele><time>2017-6-21T3:43:58Z</time></trkpt>
<trkpt lat="46.22907" lon="7.01515"><ele></ele><time>2017-6-21T3:44:1Z</time></trkpt>
<trkpt lat="46.22907" lon="7.01518"><ele></ele><time>2017-6-21T3:44:4Z</time></trkpt>
<trkpt lat="46.22908" lon="7.01523"><ele></ele><time>2017-6-21T3:44:7Z</time></trkpt>
<trkpt lat="46.22909" lon="7.01533"><ele></ele><time>2017-6-21T3:44:10Z</time></trkpt>
<trkpt lat="46.2291" lon="7.01543"><ele></ele><time>2017-6-21T3:44:13Z</time></trkpt>
<trkpt lat="46.22911" lon="7.01554"><ele></ele><time>2017-6-21T3:44:16Z</time></trkpt>
<trkpt lat="46.22912" lon="7.01564"><ele></ele><time>2017-6-21T3:44:19Z</time></trkpt>
<trkpt lat="46.22914" lon="7.01574"><ele></ele><time>2017-6-21T3:44:22Z</time></trkpt>
<trkpt lat="46.22915" lon="7.01584"><ele></ele><time>2017-6-21T3:44:25Z</time></trkpt>
<trkpt lat="46.22915" lon="7.01593"><ele></ele><time>2017-6-21T3:44:28Z</time></trkpt>
<trkpt lat="46.22915" lon="7.01603"><ele></ele><time>2017-6-21T3:44:31Z</time></trkpt>
<trkpt lat="46.22916" lon="7.01613"><ele></ele><time>2017-6-21T3:44:34Z</time></trkpt>
<trkpt lat="46.22918" lon="7.0162"><ele></ele><time>2017-6-21T3:44:37Z</time></trkpt>
<trkpt lat="46.22921" lon="7.01627"><ele></ele><time>2017-6-21T3:44:40Z</time></trkpt>
<trkpt lat="46.22923" lon="7.01635"><ele></ele><time>2017-6-21T3:44:43Z</time></trkpt>
<trkpt lat="46.22926" lon="7.01642"><ele></ele><time>2017-6-21T3:44:46Z</time></trkpt>
<trkpt lat="46.22928" lon="7.01649"><ele></ele><time>2017-6-21T3:44:49Z</time></trkpt>
<trkpt lat="46.2293" lon="7.01657"><ele></ele><time>2017-6-21T3:44:52Z</time></trkpt>
<trkpt lat="46.22933" lon="7.01664"><ele></ele><time>2017-6-21T3:44:55Z</time></trkpt>
<trkpt lat="46.22933" lon="7.01667"><ele></ele><time>2017-6-21T3:44:58Z</time></trkpt>
<trkpt lat="46.22932" lon="7.0167"><ele></ele><time>2017-6-21T3:45:1Z</time></trkpt>
<trkpt lat="46.2293" lon="7.01675"><ele></ele><time>2017-6-21T3:45:4Z</time></trkpt>
<trkpt lat="46.22928" lon="7.01681"><ele></ele><time>2017-6-21T3:45:7Z</time></trkpt>
<trkpt lat="46.22926" lon="7.01686"><ele></ele><time>2017-6-21T3:45:10Z</time></trkpt>
<trkpt lat="46.22923" lon="7.01692"><ele></ele><time>2017-6-21T3:45:13Z</time></trkpt>
<trkpt lat="46.22921" lon="7.01697"><ele></ele><time>2017-6-21T3:45:16Z</time></trkpt>
<trkpt lat="46.22919" lon="7.01702"><ele></ele><time>2017-6-21T3:45:19Z</time></trkpt>
<trkpt lat="46.22917" lon="7.01708"><ele></ele><time>2017-6-21T3:45:22Z</time></trkpt>
<trkpt lat="46.22915" lon="7.01713"><ele></ele><time>2017-6-21T3:45:25Z</time></trkpt>
<trkpt lat="46.22912" lon="7.01719"><ele></ele><time>2017-6-21T3:45:28Z</time></trkpt>
<trkpt lat="46.2291" lon="7.01724"><ele></ele><time>2017-6-21T3:45:31Z</time></trkpt>
<trkpt lat="46.22909" lon="7.01729"><ele></ele><time>2017-6-21T3:45:34Z</time></trkpt>
<trkpt lat="46.22908" lon="7.01734"><ele></ele><time>2017-6-21T3:45:37Z</time></trkpt>
<trkpt lat="46.22907" lon="7.01739"><ele></ele><time>2017-6-21T3:45:40Z</time></trkpt>
<trkpt lat="46.22906" lon="7.01744"><ele></ele><time>2017-6-21T3:45:43Z</time></trkpt>
<trkpt lat="46.22905" lon="7.01749"><ele></ele><time>2017-6-21T3:45:46Z</time></trkpt>
<trkpt lat="46.22904" lon="7.01754"><ele></ele><time>2017-6-21T3:45:49Z</time></trkpt>
<trkpt lat="46.22903" lon="7.01759"><ele></ele><time>2017-6-21T3:45:52Z</time></trkpt>
<trkpt lat="46.22901" lon="7.01763"><ele></ele><time>2017-6-21T3:45:55Z</time></trkpt>
<trkpt lat="46.229" lon="7.01768"><ele></ele><time>2017-6-21T3:45:58Z</time></trkpt>
<trkpt lat="46.22899" lon="7.01773"><ele></ele><time>2017-6-21T3:46:1Z</time></trkpt>
<trkpt lat="46.22898" lon="7.01778"><ele></ele><time>2017-6-21T3:46:4Z</time></trkpt>
<trkpt lat="46.22898" lon="7.01781"><ele></ele><time>2017-6-21T3:46:7Z</time></trkpt>
<trkpt lat="46.22899" lon="7.01783"><ele></ele><time>2017-6-21T3:46:10Z</time></trkpt>
<trkpt lat="46.229" lon="7.01787"><ele></ele><time>2017-6-21T3:46:13Z</time></trkpt>
<trkpt lat="46.22902" lon="7.01792"><ele></ele><time>2017-6-21T3:46:16Z</time></trkpt>
<trkpt lat="46.22903" lon="7.01796"><ele></ele><time>2017-6-21T3:46:19Z</time></trkpt>
<trkpt lat="46.22905" lon="7.01801"><ele></ele><time>2017-6-21T3:46:22Z</time></trkpt>
<trkpt lat="46.22907" lon="7.01805"><ele></ele><time>2017-6-21T3:46:25Z</time></trkpt>
<trkpt lat="46.22907" lon="7.01807"><ele></ele><time>2017-6-21T3:46:28Z</time></trkpt>
<trkpt lat="46.22908" lon="7.0181"><ele></ele><time>2017-6-21T3:46:31Z</time></trkpt>
<trkpt lat="46.2291" lon="7.01814"><ele></ele><time>2017-6-21T3:46:34Z</time></trkpt>
<trkpt lat="46.22911" lon="7.01818"><ele></ele><time>2017-6-21T3:46:37Z</time></trkpt>
<trkpt lat="46.22913" lon="7.01823"><ele></ele><time>2017-6-21T3:46:40Z</time></trkpt>
<trkpt lat="46.22919" lon="7.01841"><ele></ele><time>2017-6-21T3:46:43Z</time></trkpt>
<trkpt lat="46.22925" lon="7.01863"><ele></ele><time>2017-6-21T3:46:46Z</time></trkpt>
<trkpt lat="46.22931" lon="7.01884"><ele></ele><time>2017-6-21T3:46:49Z</time></trkpt>
<trkpt lat="46.22933" lon="7.0189"><ele></ele><time>2017-6-21T3:46:52Z</time></trkpt>
<trkpt lat="46.22935" lon="7.01896"><ele></ele><time>2017-6-21T3:46:55Z</time></trkpt>
<trkpt lat="46.22937" lon="7.01903"><ele></ele><time>2017-6-21T3:46:58Z</time></trkpt>
<trkpt lat="46.2294" lon="7.01912"><ele></ele><time>2017-6-21T3:47:1Z</time></trkpt>
<trkpt lat="46.22942" lon="7.0192"><ele></ele><time>2017-6-21T3:47:4Z</time></trkpt>
<trkpt lat="46.22945" lon="7.01929"><ele></ele><time>2017-6-21T3:47:7Z</time></trkpt>
<trkpt lat="46.22947" lon="7.01938"><ele></ele><time>2017-6-21T3:47:10Z</time></trkpt>
<trkpt lat="46.2295" lon="7.01946"><ele></ele><time>2017-6-21T3:47:13Z</time></trkpt>
<trkpt lat="46.22953" lon="7.01955"><ele></ele><time>2017-6-21T3:47:16Z</time></trkpt>
<trkpt lat="46.22955" lon="7.01963"><ele></ele><time>2017-6-21T3:47:19Z</time></trkpt>
<trkpt lat="46.22956" lon="7.01971"><ele></ele><time>2017-6-21T3:47:22Z</time></trkpt>
<trkpt lat="46.22957" lon="7.01978"><ele></ele><time>2017-6-21T3:47:25Z</time></trkpt>
<trkpt lat="46.22958" lon="7.01985"><ele></ele><time>2017-6-21T3:47:28Z</time></trkpt>
<trkpt lat="46.22959" lon="7.01992"><ele></ele><time>2017-6-21T3:47:31Z</time></trkpt>
<trkpt lat="46.2296" lon="7.02"><ele></ele><time>2017-6-21T3:47:34Z</time></trkpt>
<trkpt lat="46.2296" lon="7.02003"><ele></ele><time>2017-6-21T3:47:37Z</time></trkpt>
<trkpt lat="46.22961" lon="7.02007"><ele></ele><time>2017-6-21T3:47:40Z</time></trkpt>
<trkpt lat="46.22962" lon="7.02014"><ele></ele><time>2017-6-21T3:47:43Z</time></trkpt>
<trkpt lat="46.22963" lon="7.02022"><ele></ele><time>2017-6-21T3:47:46Z</time></trkpt>
<trkpt lat="46.22963" lon="7.02029"><ele></ele><time>2017-6-21T3:47:49Z</time></trkpt>
<trkpt lat="46.22963" lon="7.02039"><ele></ele><time>2017-6-21T3:47:52Z</time></trkpt>
<trkpt lat="46.22963" lon="7.02048"><ele></ele><time>2017-6-21T3:47:55Z</time></trkpt>
<trkpt lat="46.22963" lon="7.02057"><ele></ele><time>2017-6-21T3:47:58Z</time></trkpt>
<trkpt lat="46.22962" lon="7.02066"><ele></ele><time>2017-6-21T3:48:1Z</time></trkpt>
<trkpt lat="46.22962" lon="7.02076"><ele></ele><time>2017-6-21T3:48:4Z</time></trkpt>
<trkpt lat="46.22962" lon="7.02085"><ele></ele><time>2017-6-21T3:48:7Z</time></trkpt>
<trkpt lat="46.22962" lon="7.02094"><ele></ele><time>2017-6-21T3:48:10Z</time></trkpt>
<trkpt lat="46.22962" lon="7.021"><ele></ele><time>2017-6-21T3:48:13Z</time></trkpt>
<trkpt lat="46.22963" lon="7.02107"><ele></ele><time>2017-6-21T3:48:16Z</time></trkpt>
<trkpt lat="46.22966" lon="7.02121"><ele></ele><time>2017-6-21T3:48:19Z</time></trkpt>
<trkpt lat="46.22969" lon="7.02136"><ele></ele><time>2017-6-21T3:48:22Z</time></trkpt>
<trkpt lat="46.22971" lon="7.0215"><ele></ele><time>2017-6-21T3:48:25Z</time></trkpt>
<trkpt lat="46.22974" lon="7.02165"><ele></ele><time>2017-6-21T3:48:28Z</time></trkpt>
<trkpt lat="46.22978" lon="7.02181"><ele></ele><time>2017-6-21T3:48:31Z</time></trkpt>
<trkpt lat="46.22981" lon="7.02198"><ele></ele><time>2017-6-21T3:48:34Z</time></trkpt>
<trkpt lat="46.22985" lon="7.02215"><ele></ele><time>2017-6-21T3:48:37Z</time></trkpt>
<trkpt lat="46.22988" lon="7.02234"><ele></ele><time>2017-6-21T3:48:40Z</time></trkpt>
<trkpt lat="46.22993" lon="7.02261"><ele></ele><time>2017-6-21T3:48:43Z</time></trkpt>
<trkpt lat="46.22994" lon="7.02274"><ele></ele><time>2017-6-21T3:48:46Z</time></trkpt>
<trkpt lat="46.22994" lon="7.02289"><ele></ele><time>2017-6-21T3:48:49Z</time></trkpt>
<trkpt lat="46.22993" lon="7.02318"><ele></ele><time>2017-6-21T3:48:52Z</time></trkpt>
<trkpt lat="46.22993" lon="7.02347"><ele></ele><time>2017-6-21T3:48:55Z</time></trkpt>
<trkpt lat="46.22995" lon="7.02374"><ele></ele><time>2017-6-21T3:48:58Z</time></trkpt>
<trkpt lat="46.23004" lon="7.02402"><ele></ele><time>2017-6-21T3:49:1Z</time></trkpt>
<trkpt lat="46.23013" lon="7.0243"><ele></ele><time>2017-6-21T3:49:4Z</time></trkpt>
<trkpt lat="46.23017" lon="7.02444"><ele></ele><time>2017-6-21T3:49:7Z</time></trkpt>
<trkpt lat="46.23022" lon="7.02458"><ele></ele><time>2017-6-21T3:49:10Z</time></trkpt>
<trkpt lat="46.2303" lon="7.02488"><ele></ele><time>2017-6-21T3:49:13Z</time></trkpt>
<trkpt lat="46.23032" lon="7.0252"><ele></ele><time>2017-6-21T3:49:16Z</time></trkpt>
<trkpt lat="46.23033" lon="7.02535"><ele></ele><time>2017-6-21T3:49:19Z</time></trkpt>
<trkpt lat="46.23032" lon="7.02549"><ele></ele><time>2017-6-21T3:49:22Z</time></trkpt>
<trkpt lat="46.23029" lon="7.02578"><ele></ele><time>2017-6-21T3:49:25Z</time></trkpt>
<trkpt lat="46.23027" lon="7.02591"><ele></ele><time>2017-6-21T3:49:28Z</time></trkpt>
<trkpt lat="46.23022" lon="7.026"><ele></ele><time>2017-6-21T3:49:31Z</time></trkpt>
<trkpt lat="46.23012" lon="7.02618"><ele></ele><time>2017-6-21T3:49:34Z</time></trkpt>
<trkpt lat="46.22995" lon="7.02636"><ele></ele><time>2017-6-21T3:49:37Z</time></trkpt>
<trkpt lat="46.22992" lon="7.0265"><ele></ele><time>2017-6-21T3:49:40Z</time></trkpt>
<trkpt lat="46.22999" lon="7.0267"><ele></ele><time>2017-6-21T3:49:43Z</time></trkpt>
<trkpt lat="46.22994" lon="7.02679"><ele></ele><time>2017-6-21T3:49:46Z</time></trkpt>
<trkpt lat="46.22991" lon="7.02684"><ele></ele><time>2017-6-21T3:49:49Z</time></trkpt>
<trkpt lat="46.22988" lon="7.02688"><ele></ele><time>2017-6-21T3:49:52Z</time></trkpt>
<trkpt lat="46.22987" lon="7.02691"><ele></ele><time>2017-6-21T3:49:55Z</time></trkpt>
<trkpt lat="46.22985" lon="7.02693"><ele></ele><time>2017-6-21T3:49:58Z</time></trkpt>
<trkpt lat="46.22982" lon="7.02698"><ele></ele><time>2017-6-21T3:50:1Z</time></trkpt>
<trkpt lat="46.2298" lon="7.02702"><ele></ele><time>2017-6-21T3:50:4Z</time></trkpt>
<trkpt lat="46.22977" lon="7.02707"><ele></ele><time>2017-6-21T3:50:7Z</time></trkpt>
<trkpt lat="46.22974" lon="7.02711"><ele></ele><time>2017-6-21T3:50:10Z</time></trkpt>
<trkpt lat="46.22971" lon="7.02716"><ele></ele><time>2017-6-21T3:50:13Z</time></trkpt>
<trkpt lat="46.22968" lon="7.0272"><ele></ele><time>2017-6-21T3:50:16Z</time></trkpt>
<trkpt lat="46.22963" lon="7.02719"><ele></ele><time>2017-6-21T3:50:19Z</time></trkpt>
<trkpt lat="46.22958" lon="7.02719"><ele></ele><time>2017-6-21T3:50:22Z</time></trkpt>
<trkpt lat="46.22953" lon="7.02718"><ele></ele><time>2017-6-21T3:50:25Z</time></trkpt>
<trkpt lat="46.22948" lon="7.02718"><ele></ele><time>2017-6-21T3:50:28Z</time></trkpt>
<trkpt lat="46.22942" lon="7.02718"><ele></ele><time>2017-6-21T3:50:31Z</time></trkpt>
<trkpt lat="46.22937" lon="7.02717"><ele></ele><time>2017-6-21T3:50:34Z</time></trkpt>
<trkpt lat="46.22932" lon="7.02717"><ele></ele><time>2017-6-21T3:50:37Z</time></trkpt>
<trkpt lat="46.22927" lon="7.02716"><ele></ele><time>2017-6-21T3:50:40Z</time></trkpt>
<trkpt lat="46.22922" lon="7.02716"><ele></ele><time>2017-6-21T3:50:43Z</time></trkpt>
<trkpt lat="46.22916" lon="7.02716"><ele></ele><time>2017-6-21T3:50:46Z</time></trkpt>
<trkpt lat="46.22914" lon="7.02716"><ele></ele><time>2017-6-21T3:50:49Z</time></trkpt>
<trkpt lat="46.22911" lon="7.02716"><ele></ele><time>2017-6-21T3:50:52Z</time></trkpt>
<trkpt lat="46.22905" lon="7.02717"><ele></ele><time>2017-6-21T3:50:55Z</time></trkpt>
<trkpt lat="46.22899" lon="7.02717"><ele></ele><time>2017-6-21T3:50:58Z</time></trkpt>
<trkpt lat="46.22894" lon="7.02717"><ele></ele><time>2017-6-21T3:51:1Z</time></trkpt>
<trkpt lat="46.22888" lon="7.02717"><ele></ele><time>2017-6-21T3:51:4Z</time></trkpt>
<trkpt lat="46.22882" lon="7.02717"><ele></ele><time>2017-6-21T3:51:7Z</time></trkpt>
<trkpt lat="46.22877" lon="7.02717"><ele></ele><time>2017-6-21T3:51:10Z</time></trkpt>
<trkpt lat="46.22871" lon="7.02718"><ele></ele><time>2017-6-21T3:51:13Z</time></trkpt>
<trkpt lat="46.22864" lon="7.02718"><ele></ele><time>2017-6-21T3:51:16Z</time></trkpt>
<trkpt lat="46.22858" lon="7.02719"><ele></ele><time>2017-6-21T3:51:19Z</time></trkpt>
<trkpt lat="46.22852" lon="7.02719"><ele></ele><time>2017-6-21T3:51:22Z</time></trkpt>
<trkpt lat="46.22846" lon="7.0272"><ele></ele><time>2017-6-21T3:51:25Z</time></trkpt>
<trkpt lat="46.2284" lon="7.02721"><ele></ele><time>2017-6-21T3:51:28Z</time></trkpt>
<trkpt lat="46.22834" lon="7.02721"><ele></ele><time>2017-6-21T3:51:31Z</time></trkpt>
<trkpt lat="46.22831" lon="7.02722"><ele></ele><time>2017-6-21T3:51:34Z</time></trkpt>
<trkpt lat="46.22829" lon="7.02723"><ele></ele><time>2017-6-21T3:51:37Z</time></trkpt>
<trkpt lat="46.22823" lon="7.02726"><ele></ele><time>2017-6-21T3:51:40Z</time></trkpt>
<trkpt lat="46.22818" lon="7.02729"><ele></ele><time>2017-6-21T3:51:43Z</time></trkpt>
<trkpt lat="46.22816" lon="7.0273"><ele></ele><time>2017-6-21T3:51:46Z</time></trkpt>
<trkpt lat="46.22813" lon="7.02731"><ele></ele><time>2017-6-21T3:51:49Z</time></trkpt>
<trkpt lat="46.22808" lon="7.02734"><ele></ele><time>2017-6-21T3:51:52Z</time></trkpt>
<trkpt lat="46.22802" lon="7.02737"><ele></ele><time>2017-6-21T3:51:55Z</time></trkpt>
<trkpt lat="46.22797" lon="7.0274"><ele></ele><time>2017-6-21T3:51:58Z</time></trkpt>
<trkpt lat="46.22792" lon="7.02742"><ele></ele><time>2017-6-21T3:52:1Z</time></trkpt>
<trkpt lat="46.22787" lon="7.02745"><ele></ele><time>2017-6-21T3:52:4Z</time></trkpt>
<trkpt lat="46.22786" lon="7.02747"><ele></ele><time>2017-6-21T3:52:7Z</time></trkpt>
<trkpt lat="46.22784" lon="7.02749"><ele></ele><time>2017-6-21T3:52:10Z</time></trkpt>
<trkpt lat="46.22781" lon="7.02753"><ele></ele><time>2017-6-21T3:52:13Z</time></trkpt>
<trkpt lat="46.22778" lon="7.02757"><ele></ele><time>2017-6-21T3:52:16Z</time></trkpt>
<trkpt lat="46.22775" lon="7.02761"><ele></ele><time>2017-6-21T3:52:19Z</time></trkpt>
<trkpt lat="46.22772" lon="7.02764"><ele></ele><time>2017-6-21T3:52:22Z</time></trkpt>
<trkpt lat="46.22769" lon="7.02768"><ele></ele><time>2017-6-21T3:52:25Z</time></trkpt>
<trkpt lat="46.22766" lon="7.02772"><ele></ele><time>2017-6-21T3:52:28Z</time></trkpt>
<trkpt lat="46.22763" lon="7.02776"><ele></ele><time>2017-6-21T3:52:31Z</time></trkpt>
<trkpt lat="46.2276" lon="7.0278"><ele></ele><time>2017-6-21T3:52:34Z</time></trkpt>
<trkpt lat="46.22752" lon="7.02789"><ele></ele><time>2017-6-21T3:52:37Z</time></trkpt>
<trkpt lat="46.22728" lon="7.02799"><ele></ele><time>2017-6-21T3:52:40Z</time></trkpt>
<trkpt lat="46.22725" lon="7.02799"><ele></ele><time>2017-6-21T3:52:43Z</time></trkpt>
<trkpt lat="46.22721" lon="7.02801"><ele></ele><time>2017-6-21T3:52:46Z</time></trkpt>
<trkpt lat="46.22717" lon="7.02803"><ele></ele><time>2017-6-21T3:52:49Z</time></trkpt>
<trkpt lat="46.22713" lon="7.02804"><ele></ele><time>2017-6-21T3:52:52Z</time></trkpt>
<trkpt lat="46.22711" lon="7.02806"><ele></ele><time>2017-6-21T3:52:55Z</time></trkpt>
<trkpt lat="46.22709" lon="7.02809"><ele></ele><time>2017-6-21T3:52:58Z</time></trkpt>
<trkpt lat="46.22708" lon="7.02812"><ele></ele><time>2017-6-21T3:53:1Z</time></trkpt>
<trkpt lat="46.22706" lon="7.02815"><ele></ele><time>2017-6-21T3:53:4Z</time></trkpt>
<trkpt lat="46.22703" lon="7.02822"><ele></ele><time>2017-6-21T3:53:7Z</time></trkpt>
<trkpt lat="46.22699" lon="7.02828"><ele></ele><time>2017-6-21T3:53:10Z</time></trkpt>
<trkpt lat="46.22696" lon="7.02834"><ele></ele><time>2017-6-21T3:53:13Z</time></trkpt>
<trkpt lat="46.22693" lon="7.02841"><ele></ele><time>2017-6-21T3:53:16Z</time></trkpt>
<trkpt lat="46.22689" lon="7.02847"><ele></ele><time>2017-6-21T3:53:19Z</time></trkpt>
<trkpt lat="46.22686" lon="7.02853"><ele></ele><time>2017-6-21T3:53:22Z</time></trkpt>
<trkpt lat="46.22682" lon="7.0286"><ele></ele><time>2017-6-21T3:53:25Z</time></trkpt>
<trkpt lat="46.22677" lon="7.02865"><ele></ele><time>2017-6-21T3:53:28Z</time></trkpt>
<trkpt lat="46.22672" lon="7.02871"><ele></ele><time>2017-6-21T3:53:31Z</time></trkpt>
<trkpt lat="46.22667" lon="7.02877"><ele></ele><time>2017-6-21T3:53:34Z</time></trkpt>
<trkpt lat="46.22662" lon="7.02882"><ele></ele><time>2017-6-21T3:53:37Z</time></trkpt>
<trkpt lat="46.22657" lon="7.02888"><ele></ele><time>2017-6-21T3:53:40Z</time></trkpt>
<trkpt lat="46.22652" lon="7.02893"><ele></ele><time>2017-6-21T3:53:43Z</time></trkpt>
<trkpt lat="46.22647" lon="7.02899"><ele></ele><time>2017-6-21T3:53:46Z</time></trkpt>
<trkpt lat="46.22644" lon="7.02902"><ele></ele><time>2017-6-21T3:53:49Z</time></trkpt>
<trkpt lat="46.22641" lon="7.02906"><ele></ele><time>2017-6-21T3:53:52Z</time></trkpt>
<trkpt lat="46.22634" lon="7.02913"><ele></ele><time>2017-6-21T3:53:55Z</time></trkpt>
<trkpt lat="46.22626" lon="7.0292"><ele></ele><time>2017-6-21T3:53:58Z</time></trkpt>
<trkpt lat="46.22619" lon="7.02927"><ele></ele><time>2017-6-21T3:54:1Z</time></trkpt>
<trkpt lat="46.22612" lon="7.02934"><ele></ele><time>2017-6-21T3:54:4Z</time></trkpt>
<trkpt lat="46.22605" lon="7.02941"><ele></ele><time>2017-6-21T3:54:7Z</time></trkpt>
<trkpt lat="46.22601" lon="7.02945"><ele></ele><time>2017-6-21T3:54:10Z</time></trkpt>
<trkpt lat="46.22596" lon="7.02949"><ele></ele><time>2017-6-21T3:54:13Z</time></trkpt>
<trkpt lat="46.22592" lon="7.02954"><ele></ele><time>2017-6-21T3:54:16Z</time></trkpt>
<trkpt lat="46.22589" lon="7.02955"><ele></ele><time>2017-6-21T3:54:19Z</time></trkpt>
<trkpt lat="46.22585" lon="7.02954"><ele></ele><time>2017-6-21T3:54:22Z</time></trkpt>
<trkpt lat="46.22581" lon="7.02951"><ele></ele><time>2017-6-21T3:54:25Z</time></trkpt>
<trkpt lat="46.22576" lon="7.02943"><ele></ele><time>2017-6-21T3:54:28Z</time></trkpt>
<trkpt lat="46.22567" lon="7.02928"><ele></ele><time>2017-6-21T3:54:31Z</time></trkpt>
<trkpt lat="46.22557" lon="7.02913"><ele></ele><time>2017-6-21T3:54:34Z</time></trkpt>
<trkpt lat="46.22552" lon="7.02906"><ele></ele><time>2017-6-21T3:54:37Z</time></trkpt>
<trkpt lat="46.22544" lon="7.02898"><ele></ele><time>2017-6-21T3:54:40Z</time></trkpt>
<trkpt lat="46.22536" lon="7.0289"><ele></ele><time>2017-6-21T3:54:43Z</time></trkpt>
<trkpt lat="46.22528" lon="7.02882"><ele></ele><time>2017-6-21T3:54:46Z</time></trkpt>
<trkpt lat="46.22514" lon="7.02865"><ele></ele><time>2017-6-21T3:54:49Z</time></trkpt>
<trkpt lat="46.22502" lon="7.02844"><ele></ele><time>2017-6-21T3:54:52Z</time></trkpt>
<trkpt lat="46.22497" lon="7.02834"><ele></ele><time>2017-6-21T3:54:55Z</time></trkpt>
<trkpt lat="46.22491" lon="7.02823"><ele></ele><time>2017-6-21T3:54:58Z</time></trkpt>
<trkpt lat="46.22486" lon="7.02815"><ele></ele><time>2017-6-21T3:55:1Z</time></trkpt>
<trkpt lat="46.22482" lon="7.02809"><ele></ele><time>2017-6-21T3:55:4Z</time></trkpt>
<trkpt lat="46.22475" lon="7.02797"><ele></ele><time>2017-6-21T3:55:7Z</time></trkpt>
<trkpt lat="46.22473" lon="7.02794"><ele></ele><time>2017-6-21T3:55:10Z</time></trkpt>
<trkpt lat="46.22471" lon="7.02795"><ele></ele><time>2017-6-21T3:55:13Z</time></trkpt>
<trkpt lat="46.22469" lon="7.02797"><ele></ele><time>2017-6-21T3:55:16Z</time></trkpt>
<trkpt lat="46.22467" lon="7.028"><ele></ele><time>2017-6-21T3:55:19Z</time></trkpt>
<trkpt lat="46.22466" lon="7.02801"><ele></ele><time>2017-6-21T3:55:22Z</time></trkpt>
<trkpt lat="46.22464" lon="7.02802"><ele></ele><time>2017-6-21T3:55:25Z</time></trkpt>
<trkpt lat="46.22462" lon="7.02804"><ele></ele><time>2017-6-21T3:55:28Z</time></trkpt>
<trkpt lat="46.2246" lon="7.02807"><ele></ele><time>2017-6-21T3:55:31Z</time></trkpt>
<trkpt lat="46.22457" lon="7.02809"><ele></ele><time>2017-6-21T3:55:34Z</time></trkpt>
<trkpt lat="46.22455" lon="7.02811"><ele></ele><time>2017-6-21T3:55:37Z</time></trkpt>
<trkpt lat="46.22453" lon="7.02814"><ele></ele><time>2017-6-21T3:55:40Z</time></trkpt>
<trkpt lat="46.2245" lon="7.02816"><ele></ele><time>2017-6-21T3:55:43Z</time></trkpt>
<trkpt lat="46.22448" lon="7.02818"><ele></ele><time>2017-6-21T3:55:46Z</time></trkpt>
<trkpt lat="46.22446" lon="7.0282"><ele></ele><time>2017-6-21T3:55:49Z</time></trkpt>
<trkpt lat="46.2244" lon="7.02826"><ele></ele><time>2017-6-21T3:55:52Z</time></trkpt>
<trkpt lat="46.22423" lon="7.02815"><ele></ele><time>2017-6-21T3:55:55Z</time></trkpt>
<trkpt lat="46.2242" lon="7.02813"><ele></ele><time>2017-6-21T3:55:58Z</time></trkpt>
<trkpt lat="46.22418" lon="7.02812"><ele></ele><time>2017-6-21T3:56:1Z</time></trkpt>
<trkpt lat="46.22416" lon="7.02811"><ele></ele><time>2017-6-21T3:56:4Z</time></trkpt>
<trkpt lat="46.22415" lon="7.0281"><ele></ele><time>2017-6-21T3:56:7Z</time></trkpt>
<trkpt lat="46.22412" lon="7.02809"><ele></ele><time>2017-6-21T3:56:10Z</time></trkpt>
<trkpt lat="46.2241" lon="7.02807"><ele></ele><time>2017-6-21T3:56:13Z</time></trkpt>
<trkpt lat="46.22407" lon="7.02805"><ele></ele><time>2017-6-21T3:56:16Z</time></trkpt>
<trkpt lat="46.22405" lon="7.02804"><ele></ele><time>2017-6-21T3:56:19Z</time></trkpt>
<trkpt lat="46.22402" lon="7.02802"><ele></ele><time>2017-6-21T3:56:22Z</time></trkpt>
<trkpt lat="46.22399" lon="7.028"><ele></ele><time>2017-6-21T3:56:25Z</time></trkpt>
<trkpt lat="46.22398" lon="7.028"><ele></ele><time>2017-6-21T3:56:28Z</time></trkpt>
<trkpt lat="46.22396" lon="7.02799"><ele></ele><time>2017-6-21T3:56:31Z</time></trkpt>
<trkpt lat="46.22393" lon="7.02797"><ele></ele><time>2017-6-21T3:56:34Z</time></trkpt>
<trkpt lat="46.2239" lon="7.02795"><ele></ele><time>2017-6-21T3:56:37Z</time></trkpt>
<trkpt lat="46.22387" lon="7.02793"><ele></ele><time>2017-6-21T3:56:40Z</time></trkpt>
<trkpt lat="46.22384" lon="7.02791"><ele></ele><time>2017-6-21T3:56:43Z</time></trkpt>
<trkpt lat="46.22381" lon="7.02789"><ele></ele><time>2017-6-21T3:56:46Z</time></trkpt>
<trkpt lat="46.22377" lon="7.02787"><ele></ele><time>2017-6-21T3:56:49Z</time></trkpt>
<trkpt lat="46.22374" lon="7.02785"><ele></ele><time>2017-6-21T3:56:52Z</time></trkpt>
<trkpt lat="46.22371" lon="7.02783"><ele></ele><time>2017-6-21T3:56:55Z</time></trkpt>
<trkpt lat="46.22368" lon="7.02781"><ele></ele><time>2017-6-21T3:56:58Z</time></trkpt>
<trkpt lat="46.22365" lon="7.02779"><ele></ele><time>2017-6-21T3:57:1Z</time></trkpt>
<trkpt lat="46.22362" lon="7.02777"><ele></ele><time>2017-6-21T3:57:4Z</time></trkpt>
<trkpt lat="46.22358" lon="7.02775"><ele></ele><time>2017-6-21T3:57:7Z</time></trkpt>
<trkpt lat="46.22355" lon="7.02774"><ele></ele><time>2017-6-21T3:57:10Z</time></trkpt>
<trkpt lat="46.22353" lon="7.02774"><ele></ele><time>2017-6-21T3:57:13Z</time></trkpt>
<trkpt lat="46.22351" lon="7.02774"><ele></ele><time>2017-6-21T3:57:16Z</time></trkpt>
<trkpt lat="46.22349" lon="7.02774"><ele></ele><time>2017-6-21T3:57:19Z</time></trkpt>
<trkpt lat="46.22347" lon="7.02774"><ele></ele><time>2017-6-21T3:57:22Z</time></trkpt>
<trkpt lat="46.22346" lon="7.02774"><ele></ele><time>2017-6-21T3:57:25Z</time></trkpt>
<trkpt lat="46.22344" lon="7.02774"><ele></ele><time>2017-6-21T3:57:28Z</time></trkpt>
<trkpt lat="46.22342" lon="7.02774"><ele></ele><time>2017-6-21T3:57:31Z</time></trkpt>
<trkpt lat="46.2234" lon="7.02774"><ele></ele><time>2017-6-21T3:57:34Z</time></trkpt>
<trkpt lat="46.22338" lon="7.02774"><ele></ele><time>2017-6-21T3:57:37Z</time></trkpt>
<trkpt lat="46.22336" lon="7.02774"><ele></ele><time>2017-6-21T3:57:40Z</time></trkpt>
<trkpt lat="46.22334" lon="7.02774"><ele></ele><time>2017-6-21T3:57:43Z</time></trkpt>
<trkpt lat="46.22332" lon="7.02774"><ele></ele><time>2017-6-21T3:57:46Z</time></trkpt>
<trkpt lat="46.2233" lon="7.02774"><ele></ele><time>2017-6-21T3:57:49Z</time></trkpt>
<trkpt lat="46.22328" lon="7.02774"><ele></ele><time>2017-6-21T3:57:52Z</time></trkpt>
<trkpt lat="46.22326" lon="7.02774"><ele></ele><time>2017-6-21T3:57:55Z</time></trkpt>
<trkpt lat="46.22324" lon="7.02774"><ele></ele><time>2017-6-21T3:57:58Z</time></trkpt>
<trkpt lat="46.22322" lon="7.02775"><ele></ele><time>2017-6-21T3:58:1Z</time></trkpt>
<trkpt lat="46.2232" lon="7.02775"><ele></ele><time>2017-6-21T3:58:4Z</time></trkpt>
<trkpt lat="46.22318" lon="7.02775"><ele></ele><time>2017-6-21T3:58:7Z</time></trkpt>
<trkpt lat="46.22316" lon="7.02775"><ele></ele><time>2017-6-21T3:58:10Z</time></trkpt>
<trkpt lat="46.22314" lon="7.02775"><ele></ele><time>2017-6-21T3:58:13Z</time></trkpt>
<trkpt lat="46.22312" lon="7.02775"><ele></ele><time>2017-6-21T3:58:16Z</time></trkpt>
<trkpt lat="46.2231" lon="7.02775"><ele></ele><time>2017-6-21T3:58:19Z</time></trkpt>
<trkpt lat="46.22309" lon="7.02774"><ele></ele><time>2017-6-21T3:58:22Z</time></trkpt>
<trkpt lat="46.22306" lon="7.02774"><ele></ele><time>2017-6-21T3:58:25Z</time></trkpt>
<trkpt lat="46.22298" lon="7.02772"><ele></ele><time>2017-6-21T3:58:28Z</time></trkpt>
<trkpt lat="46.22297" lon="7.02772"><ele></ele><time>2017-6-21T3:58:31Z</time></trkpt>
<trkpt lat="46.22296" lon="7.02771"><ele></ele><time>2017-6-21T3:58:34Z</time></trkpt>
<trkpt lat="46.22295" lon="7.02771"><ele></ele><time>2017-6-21T3:58:37Z</time></trkpt>
<trkpt lat="46.22294" lon="7.02771"><ele></ele><time>2017-6-21T3:58:40Z</time></trkpt>
<trkpt lat="46.22293" lon="7.02771"><ele></ele><time>2017-6-21T3:58:43Z</time></trkpt>
<trkpt lat="46.22293" lon="7.02771"><ele></ele><time>2017-6-21T3:58:46Z</time></trkpt>
<trkpt lat="46.22291" lon="7.0277"><ele></ele><time>2017-6-21T3:58:49Z</time></trkpt>
<trkpt lat="46.2229" lon="7.0277"><ele></ele><time>2017-6-21T3:58:52Z</time></trkpt>
<trkpt lat="46.22289" lon="7.0277"><ele></ele><time>2017-6-21T3:58:55Z</time></trkpt>
<trkpt lat="46.22288" lon="7.02769"><ele></ele><time>2017-6-21T3:58:58Z</time></trkpt>
<trkpt lat="46.22287" lon="7.02769"><ele></ele><time>2017-6-21T3:59:1Z</time></trkpt>
<trkpt lat="46.22286" lon="7.02769"><ele></ele><time>2017-6-21T3:59:4Z</time></trkpt>
<trkpt lat="46.22284" lon="7.02769"><ele></ele><time>2017-6-21T3:59:7Z</time></trkpt>
<trkpt lat="46.22283" lon="7.02768"><ele></ele><time>2017-6-21T3:59:10Z</time></trkpt>
<trkpt lat="46.22282" lon="7.02768"><ele></ele><time>2017-6-21T3:59:13Z</time></trkpt>
<trkpt lat="46.22281" lon="7.02768"><ele></ele><time>2017-6-21T3:59:16Z</time></trkpt>
<trkpt lat="46.2228" lon="7.02768"><ele></ele><time>2017-6-21T3:59:19Z</time></trkpt>
<trkpt lat="46.22279" lon="7.02767"><ele></ele><time>2017-6-21T3:59:22Z</time></trkpt>
<trkpt lat="46.22279" lon="7.02767"><ele></ele><time>2017-6-21T3:59:25Z</time></trkpt>
<trkpt lat="46.22277" lon="7.02767"><ele></ele><time>2017-6-21T3:59:28Z</time></trkpt>
<trkpt lat="46.22276" lon="7.02767"><ele></ele><time>2017-6-21T3:59:31Z</time></trkpt>
<trkpt lat="46.22275" lon="7.02766"><ele></ele><time>2017-6-21T3:59:34Z</time></trkpt>
<trkpt lat="46.22274" lon="7.02766"><ele></ele><time>2017-6-21T3:59:37Z</time></trkpt>
<trkpt lat="46.22273" lon="7.02766"><ele></ele><time>2017-6-21T3:59:40Z</time></trkpt>
<trkpt lat="46.22272" lon="7.02766"><ele></ele><time>2017-6-21T3:59:43Z</time></trkpt>
<trkpt lat="46.22271" lon="7.02765"><ele></ele><time>2017-6-21T3:59:46Z</time></trkpt>
<trkpt lat="46.22269" lon="7.02765"><ele></ele><time>2017-6-21T3:59:49Z</time></trkpt>
<trkpt lat="46.22268" lon="7.02765"><ele></ele><time>2017-6-21T3:59:52Z</time></trkpt>
<trkpt lat="46.22267" lon="7.02765"><ele></ele><time>2017-6-21T3:59:55Z</time></trkpt>
<trkpt lat="46.22266" lon="7.02764"><ele></ele><time>2017-6-21T3:59:58Z</time></trkpt>
<trkpt lat="46.22266" lon="7.02764"><ele></ele><time>2017-6-21T4:0:1Z</time></trkpt>
<trkpt lat="46.22265" lon="7.02764"><ele></ele><time>2017-6-21T4:0:4Z</time></trkpt>
<trkpt lat="46.22263" lon="7.02764"><ele></ele><time>2017-6-21T4:0:7Z</time></trkpt>
<trkpt lat="46.22261" lon="7.02764"><ele></ele><time>2017-6-21T4:0:10Z</time></trkpt>
<trkpt lat="46.22259" lon="7.02764"><ele></ele><time>2017-6-21T4:0:13Z</time></trkpt>
<trkpt lat="46.22258" lon="7.02763"><ele></ele><time>2017-6-21T4:0:16Z</time></trkpt>
<trkpt lat="46.22256" lon="7.02763"><ele></ele><time>2017-6-21T4:0:19Z</time></trkpt>
<trkpt lat="46.22254" lon="7.02763"><ele></ele><time>2017-6-21T4:0:22Z</time></trkpt>
<trkpt lat="46.22253" lon="7.02763"><ele></ele><time>2017-6-21T4:0:25Z</time></trkpt>
<trkpt lat="46.22251" lon="7.02763"><ele></ele><time>2017-6-21T4:0:28Z</time></trkpt>
<trkpt lat="46.22249" lon="7.02763"><ele></ele><time>2017-6-21T4:0:31Z</time></trkpt>
<trkpt lat="46.22248" lon="7.02763"><ele></ele><time>2017-6-21T4:0:34Z</time></trkpt>
<trkpt lat="46.22247" lon="7.02763"><ele></ele><time>2017-6-21T4:0:37Z</time></trkpt>
<trkpt lat="46.22246" lon="7.02762"><ele></ele><time>2017-6-21T4:0:40Z</time></trkpt>
<trkpt lat="46.22244" lon="7.02762"><ele></ele><time>2017-6-21T4:0:43Z</time></trkpt>
<trkpt lat="46.22242" lon="7.02762"><ele></ele><time>2017-6-21T4:0:46Z</time></trkpt>
<trkpt lat="46.22241" lon="7.02762"><ele></ele><time>2017-6-21T4:0:49Z</time></trkpt>
<trkpt lat="46.22239" lon="7.02762"><ele></ele><time>2017-6-21T4:0:52Z</time></trkpt>
<trkpt lat="46.22237" lon="7.02762"><ele></ele><time>2017-6-21T4:0:55Z</time></trkpt>
<trkpt lat="46.22235" lon="7.02762"><ele></ele><time>2017-6-21T4:0:58Z</time></trkpt>
<trkpt lat="46.22234" lon="7.02761"><ele></ele><time>2017-6-21T4:1:1Z</time></trkpt>
<trkpt lat="46.22232" lon="7.02761"><ele></ele><time>2017-6-21T4:1:4Z</time></trkpt>
<trkpt lat="46.2223" lon="7.02761"><ele></ele><time>2017-6-21T4:1:7Z</time></trkpt>
<trkpt lat="46.22229" lon="7.02761"><ele></ele><time>2017-6-21T4:1:10Z</time></trkpt>
<trkpt lat="46.22227" lon="7.02761"><ele></ele><time>2017-6-21T4:1:13Z</time></trkpt>
<trkpt lat="46.22219" lon="7.0276"><ele></ele><time>2017-6-21T4:1:16Z</time></trkpt>
<trkpt lat="46.22217" lon="7.02762"><ele></ele><time>2017-6-21T4:1:19Z</time></trkpt>
<trkpt lat="46.22215" lon="7.02764"><ele></ele><time>2017-6-21T4:1:22Z</time></trkpt>
<trkpt lat="46.22214" lon="7.02765"><ele></ele><time>2017-6-21T4:1:25Z</time></trkpt>
<trkpt lat="46.22213" lon="7.02766"><ele></ele><time>2017-6-21T4:1:28Z</time></trkpt>
<trkpt lat="46.22212" lon="7.02767"><ele></ele><time>2017-6-21T4:1:31Z</time></trkpt>
<trkpt lat="46.22211" lon="7.02768"><ele></ele><time>2017-6-21T4:1:34Z</time></trkpt>
<trkpt lat="46.22209" lon="7.02769"><ele></ele><time>2017-6-21T4:1:37Z</time></trkpt>
<trkpt lat="46.22208" lon="7.0277"><ele></ele><time>2017-6-21T4:1:40Z</time></trkpt>
<trkpt lat="46.22207" lon="7.02771"><ele></ele><time>2017-6-21T4:1:43Z</time></trkpt>
<trkpt lat="46.22206" lon="7.02772"><ele></ele><time>2017-6-21T4:1:46Z</time></trkpt>
<trkpt lat="46.22205" lon="7.02773"><ele></ele><time>2017-6-21T4:1:49Z</time></trkpt>
<trkpt lat="46.22204" lon="7.02774"><ele></ele><time>2017-6-21T4:1:52Z</time></trkpt>
<trkpt lat="46.22202" lon="7.02775"><ele></ele><time>2017-6-21T4:1:55Z</time></trkpt>
<trkpt lat="46.22201" lon="7.02776"><ele></ele><time>2017-6-21T4:1:58Z</time></trkpt>
<trkpt lat="46.222" lon="7.02777"><ele></ele><time>2017-6-21T4:2:1Z</time></trkpt>
<trkpt lat="46.22189" lon="7.02787"><ele></ele><time>2017-6-21T4:2:4Z</time></trkpt>
<trkpt lat="46.22189" lon="7.02787"><ele></ele><time>2017-6-21T4:2:7Z</time></trkpt>
<trkpt lat="46.22179" lon="7.02795"><ele></ele><time>2017-6-21T4:2:10Z</time></trkpt>
<trkpt lat="46.22178" lon="7.02796"><ele></ele><time>2017-6-21T4:2:13Z</time></trkpt>
<trkpt lat="46.22177" lon="7.02797"><ele></ele><time>2017-6-21T4:2:16Z</time></trkpt>
<trkpt lat="46.22176" lon="7.02798"><ele></ele><time>2017-6-21T4:2:19Z</time></trkpt>
<trkpt lat="46.22175" lon="7.02799"><ele></ele><time>2017-6-21T4:2:22Z</time></trkpt>
<trkpt lat="46.22175" lon="7.02799"><ele></ele><time>2017-6-21T4:2:25Z</time></trkpt>
<trkpt lat="46.22173" lon="7.028"><ele></ele><time>2017-6-21T4:2:28Z</time></trkpt>
<trkpt lat="46.22172" lon="7.02801"><ele></ele><time>2017-6-21T4:2:31Z</time></trkpt>
<trkpt lat="46.22171" lon="7.02802"><ele></ele><time>2017-6-21T4:2:34Z</time></trkpt>
<trkpt lat="46.2217" lon="7.02803"><ele></ele><time>2017-6-21T4:2:37Z</time></trkpt>
<trkpt lat="46.22169" lon="7.02804"><ele></ele><time>2017-6-21T4:2:40Z</time></trkpt>
<trkpt lat="46.22168" lon="7.02805"><ele></ele><time>2017-6-21T4:2:43Z</time></trkpt>
<trkpt lat="46.22167" lon="7.02806"><ele></ele><time>2017-6-21T4:2:46Z</time></trkpt>
<trkpt lat="46.22166" lon="7.02807"><ele></ele><time>2017-6-21T4:2:49Z</time></trkpt>
<trkpt lat="46.22164" lon="7.02808"><ele></ele><time>2017-6-21T4:2:52Z</time></trkpt>
<trkpt lat="46.22163" lon="7.02809"><ele></ele><time>2017-6-21T4:2:55Z</time></trkpt>
<trkpt lat="46.22162" lon="7.0281"><ele></ele><time>2017-6-21T4:2:58Z</time></trkpt>
<trkpt lat="46.22161" lon="7.02811"><ele></ele><time>2017-6-21T4:3:1Z</time></trkpt>
<trkpt lat="46.2216" lon="7.02812"><ele></ele><time>2017-6-21T4:3:4Z</time></trkpt>
<trkpt lat="46.22159" lon="7.02813"><ele></ele><time>2017-6-21T4:3:7Z</time></trkpt>
<trkpt lat="46.22158" lon="7.02814"><ele></ele><time>2017-6-21T4:3:10Z</time></trkpt>
<trkpt lat="46.22156" lon="7.02815"><ele></ele><time>2017-6-21T4:3:13Z</time></trkpt>
<trkpt lat="46.22153" lon="7.02818"><ele></ele><time>2017-6-21T4:3:16Z</time></trkpt>
<trkpt lat="46.22152" lon="7.02817"><ele></ele><time>2017-6-21T4:3:19Z</time></trkpt>
<trkpt lat="46.22133" lon="7.02793"><ele></ele><time>2017-6-21T4:3:22Z</time></trkpt>
<trkpt lat="46.22129" lon="7.02787"><ele></ele><time>2017-6-21T4:3:25Z</time></trkpt>
<trkpt lat="46.22116" lon="7.02767"><ele></ele><time>2017-6-21T4:3:28Z</time></trkpt>
<trkpt lat="46.22108" lon="7.02754"><ele></ele><time>2017-6-21T4:3:31Z</time></trkpt>
<trkpt lat="46.22104" lon="7.02746"><ele></ele><time>2017-6-21T4:3:34Z</time></trkpt>
<trkpt lat="46.22101" lon="7.02737"><ele></ele><time>2017-6-21T4:3:37Z</time></trkpt>
<trkpt lat="46.22095" lon="7.02718"><ele></ele><time>2017-6-21T4:3:40Z</time></trkpt>
<trkpt lat="46.22093" lon="7.02708"><ele></ele><time>2017-6-21T4:3:43Z</time></trkpt>
<trkpt lat="46.2209" lon="7.02698"><ele></ele><time>2017-6-21T4:3:46Z</time></trkpt>
<trkpt lat="46.22086" lon="7.02679"><ele></ele><time>2017-6-21T4:3:49Z</time></trkpt>
<trkpt lat="46.22083" lon="7.0267"><ele></ele><time>2017-6-21T4:3:52Z</time></trkpt>
<trkpt lat="46.2208" lon="7.02662"><ele></ele><time>2017-6-21T4:3:55Z</time></trkpt>
<trkpt lat="46.22072" lon="7.02647"><ele></ele><time>2017-6-21T4:3:58Z</time></trkpt>
<trkpt lat="46.22064" lon="7.02631"><ele></ele><time>2017-6-21T4:4:1Z</time></trkpt>
<trkpt lat="46.22059" lon="7.02623"><ele></ele><time>2017-6-21T4:4:4Z</time></trkpt>
<trkpt lat="46.22054" lon="7.02617"><ele></ele><time>2017-6-21T4:4:7Z</time></trkpt>
<trkpt lat="46.22042" lon="7.02603"><ele></ele><time>2017-6-21T4:4:10Z</time></trkpt>
<trkpt lat="46.2203" lon="7.02589"><ele></ele><time>2017-6-21T4:4:13Z</time></trkpt>
<trkpt lat="46.22017" lon="7.02575"><ele></ele><time>2017-6-21T4:4:16Z</time></trkpt>
<trkpt lat="46.22003" lon="7.02561"><ele></ele><time>2017-6-21T4:4:19Z</time></trkpt>
<trkpt lat="46.21995" lon="7.02555"><ele></ele><time>2017-6-21T4:4:22Z</time></trkpt>
<trkpt lat="46.21987" lon="7.0255"><ele></ele><time>2017-6-21T4:4:25Z</time></trkpt>
<trkpt lat="46.2198" lon="7.02545"><ele></ele><time>2017-6-21T4:4:28Z</time></trkpt>
<trkpt lat="46.21975" lon="7.02541"><ele></ele><time>2017-6-21T4:4:31Z</time></trkpt>
<trkpt lat="46.21964" lon="7.02532"><ele></ele><time>2017-6-21T4:4:34Z</time></trkpt>
<trkpt lat="46.21958" lon="7.02526"><ele></ele><time>2017-6-21T4:4:37Z</time></trkpt>
<trkpt lat="46.21953" lon="7.02519"><ele></ele><time>2017-6-21T4:4:40Z</time></trkpt>
<trkpt lat="46.21949" lon="7.02511"><ele></ele><time>2017-6-21T4:4:43Z</time></trkpt>
<trkpt lat="46.21947" lon="7.025"><ele></ele><time>2017-6-21T4:4:46Z</time></trkpt>
<trkpt lat="46.21941" lon="7.02479"><ele></ele><time>2017-6-21T4:4:49Z</time></trkpt>
<trkpt lat="46.21935" lon="7.02458"><ele></ele><time>2017-6-21T4:4:52Z</time></trkpt>
<trkpt lat="46.21932" lon="7.02449"><ele></ele><time>2017-6-21T4:4:55Z</time></trkpt>
<trkpt lat="46.21927" lon="7.02441"><ele></ele><time>2017-6-21T4:4:58Z</time></trkpt>
<trkpt lat="46.21921" lon="7.02435"><ele></ele><time>2017-6-21T4:5:1Z</time></trkpt>
<trkpt lat="46.21914" lon="7.02432"><ele></ele><time>2017-6-21T4:5:4Z</time></trkpt>
<trkpt lat="46.21901" lon="7.02418"><ele></ele><time>2017-6-21T4:5:7Z</time></trkpt>
<trkpt lat="46.21889" lon="7.02405"><ele></ele><time>2017-6-21T4:5:10Z</time></trkpt>
<trkpt lat="46.21878" lon="7.02391"><ele></ele><time>2017-6-21T4:5:13Z</time></trkpt>
<trkpt lat="46.2187" lon="7.02379"><ele></ele><time>2017-6-21T4:5:16Z</time></trkpt>
<trkpt lat="46.21862" lon="7.02369"><ele></ele><time>2017-6-21T4:5:19Z</time></trkpt>
<trkpt lat="46.21857" lon="7.02366"><ele></ele><time>2017-6-21T4:5:22Z</time></trkpt>
<trkpt lat="46.21854" lon="7.02358"><ele></ele><time>2017-6-21T4:5:25Z</time></trkpt>
<trkpt lat="46.21846" lon="7.02342"><ele></ele><time>2017-6-21T4:5:28Z</time></trkpt>
<trkpt lat="46.21838" lon="7.02326"><ele></ele><time>2017-6-21T4:5:31Z</time></trkpt>
<trkpt lat="46.2183" lon="7.0231"><ele></ele><time>2017-6-21T4:5:34Z</time></trkpt>
<trkpt lat="46.21821" lon="7.0229"><ele></ele><time>2017-6-21T4:5:37Z</time></trkpt>
<trkpt lat="46.21806" lon="7.02269"><ele></ele><time>2017-6-21T4:5:40Z</time></trkpt>
<trkpt lat="46.21792" lon="7.02249"><ele></ele><time>2017-6-21T4:5:43Z</time></trkpt>
<trkpt lat="46.21785" lon="7.02238"><ele></ele><time>2017-6-21T4:5:46Z</time></trkpt>
<trkpt lat="46.21778" lon="7.02226"><ele></ele><time>2017-6-21T4:5:49Z</time></trkpt>
<trkpt lat="46.21773" lon="7.02213"><ele></ele><time>2017-6-21T4:5:52Z</time></trkpt>
<trkpt lat="46.21772" lon="7.022"><ele></ele><time>2017-6-21T4:5:55Z</time></trkpt>
<trkpt lat="46.21769" lon="7.02175"><ele></ele><time>2017-6-21T4:5:58Z</time></trkpt>
<trkpt lat="46.21771" lon="7.02152"><ele></ele><time>2017-6-21T4:6:1Z</time></trkpt>
<trkpt lat="46.21772" lon="7.02129"><ele></ele><time>2017-6-21T4:6:4Z</time></trkpt>
<trkpt lat="46.21772" lon="7.02119"><ele></ele><time>2017-6-21T4:6:7Z</time></trkpt>
<trkpt lat="46.21769" lon="7.02109"><ele></ele><time>2017-6-21T4:6:10Z</time></trkpt>
<trkpt lat="46.21762" lon="7.02091"><ele></ele><time>2017-6-21T4:6:13Z</time></trkpt>
<trkpt lat="46.21755" lon="7.02073"><ele></ele><time>2017-6-21T4:6:16Z</time></trkpt>
<trkpt lat="46.2175" lon="7.02067"><ele></ele><time>2017-6-21T4:6:19Z</time></trkpt>
<trkpt lat="46.21745" lon="7.02062"><ele></ele><time>2017-6-21T4:6:22Z</time></trkpt>
<trkpt lat="46.21734" lon="7.02051"><ele></ele><time>2017-6-21T4:6:25Z</time></trkpt>
<trkpt lat="46.21724" lon="7.02039"><ele></ele><time>2017-6-21T4:6:28Z</time></trkpt>
<trkpt lat="46.21719" lon="7.02035"><ele></ele><time>2017-6-21T4:6:31Z</time></trkpt>
<trkpt lat="46.21712" lon="7.02032"><ele></ele><time>2017-6-21T4:6:34Z</time></trkpt>
<trkpt lat="46.21699" lon="7.02026"><ele></ele><time>2017-6-21T4:6:37Z</time></trkpt>
<trkpt lat="46.21687" lon="7.02023"><ele></ele><time>2017-6-21T4:6:40Z</time></trkpt>
<trkpt lat="46.21666" lon="7.02028"><ele></ele><time>2017-6-21T4:6:43Z</time></trkpt>
<trkpt lat="46.21649" lon="7.02022"><ele></ele><time>2017-6-21T4:6:46Z</time></trkpt>
<trkpt lat="46.21644" lon="7.02014"><ele></ele><time>2017-6-21T4:6:49Z</time></trkpt>
<trkpt lat="46.21635" lon="7.01998"><ele></ele><time>2017-6-21T4:6:52Z</time></trkpt>
<trkpt lat="46.21625" lon="7.01977"><ele></ele><time>2017-6-21T4:6:55Z</time></trkpt>
<trkpt lat="46.21618" lon="7.01965"><ele></ele><time>2017-6-21T4:6:58Z</time></trkpt>
<trkpt lat="46.2161" lon="7.01966"><ele></ele><time>2017-6-21T4:7:1Z</time></trkpt>
<trkpt lat="46.21608" lon="7.01966"><ele></ele><time>2017-6-21T4:7:4Z</time></trkpt>
<trkpt lat="46.21604" lon="7.01966"><ele></ele><time>2017-6-21T4:7:7Z</time></trkpt>
<trkpt lat="46.21599" lon="7.01967"><ele></ele><time>2017-6-21T4:7:10Z</time></trkpt>
<trkpt lat="46.21595" lon="7.01967"><ele></ele><time>2017-6-21T4:7:13Z</time></trkpt>
<trkpt lat="46.21591" lon="7.01968"><ele></ele><time>2017-6-21T4:7:16Z</time></trkpt>
<trkpt lat="46.21586" lon="7.01968"><ele></ele><time>2017-6-21T4:7:19Z</time></trkpt>
<trkpt lat="46.21582" lon="7.01969"><ele></ele><time>2017-6-21T4:7:22Z</time></trkpt>
<trkpt lat="46.21578" lon="7.01969"><ele></ele><time>2017-6-21T4:7:25Z</time></trkpt>
<trkpt lat="46.21574" lon="7.0197"><ele></ele><time>2017-6-21T4:7:28Z</time></trkpt>
<trkpt lat="46.2157" lon="7.01969"><ele></ele><time>2017-6-21T4:7:31Z</time></trkpt>
<trkpt lat="46.21565" lon="7.01969"><ele></ele><time>2017-6-21T4:7:34Z</time></trkpt>
<trkpt lat="46.21563" lon="7.01968"><ele></ele><time>2017-6-21T4:7:37Z</time></trkpt>
<trkpt lat="46.21561" lon="7.01968"><ele></ele><time>2017-6-21T4:7:40Z</time></trkpt>
<trkpt lat="46.21557" lon="7.01967"><ele></ele><time>2017-6-21T4:7:43Z</time></trkpt>
<trkpt lat="46.21553" lon="7.01967"><ele></ele><time>2017-6-21T4:7:46Z</time></trkpt>
<trkpt lat="46.21549" lon="7.01966"><ele></ele><time>2017-6-21T4:7:49Z</time></trkpt>
<trkpt lat="46.21545" lon="7.01966"><ele></ele><time>2017-6-21T4:7:52Z</time></trkpt>
<trkpt lat="46.21541" lon="7.01965"><ele></ele><time>2017-6-21T4:7:55Z</time></trkpt>
<trkpt lat="46.21537" lon="7.01965"><ele></ele><time>2017-6-21T4:7:58Z</time></trkpt>
<trkpt lat="46.21533" lon="7.01964"><ele></ele><time>2017-6-21T4:8:1Z</time></trkpt>
<trkpt lat="46.21529" lon="7.01963"><ele></ele><time>2017-6-21T4:8:4Z</time></trkpt>
<trkpt lat="46.21525" lon="7.01963"><ele></ele><time>2017-6-21T4:8:7Z</time></trkpt>
<trkpt lat="46.21521" lon="7.01963"><ele></ele><time>2017-6-21T4:8:10Z</time></trkpt>
<trkpt lat="46.21519" lon="7.01963"><ele></ele><time>2017-6-21T4:8:13Z</time></trkpt>
<trkpt lat="46.21517" lon="7.01962"><ele></ele><time>2017-6-21T4:8:16Z</time></trkpt>
<trkpt lat="46.21513" lon="7.01962"><ele></ele><time>2017-6-21T4:8:19Z</time></trkpt>
<trkpt lat="46.21509" lon="7.01962"><ele></ele><time>2017-6-21T4:8:22Z</time></trkpt>
<trkpt lat="46.21505" lon="7.01961"><ele></ele><time>2017-6-21T4:8:25Z</time></trkpt>
<trkpt lat="46.21501" lon="7.01961"><ele></ele><time>2017-6-21T4:8:28Z</time></trkpt>
<trkpt lat="46.21497" lon="7.01961"><ele></ele><time>2017-6-21T4:8:31Z</time></trkpt>
<trkpt lat="46.21495" lon="7.01961"><ele></ele><time>2017-6-21T4:8:34Z</time></trkpt>
<trkpt lat="46.21493" lon="7.0196"><ele></ele><time>2017-6-21T4:8:37Z</time></trkpt>
<trkpt lat="46.21489" lon="7.0196"><ele></ele><time>2017-6-21T4:8:40Z</time></trkpt>
<trkpt lat="46.21484" lon="7.0196"><ele></ele><time>2017-6-21T4:8:43Z</time></trkpt>
<trkpt lat="46.21481" lon="7.01958"><ele></ele><time>2017-6-21T4:8:46Z</time></trkpt>
<trkpt lat="46.21473" lon="7.01952"><ele></ele><time>2017-6-21T4:8:49Z</time></trkpt>
<trkpt lat="46.21457" lon="7.01941"><ele></ele><time>2017-6-21T4:8:52Z</time></trkpt>
<trkpt lat="46.21442" lon="7.0193"><ele></ele><time>2017-6-21T4:8:55Z</time></trkpt>
<trkpt lat="46.21434" lon="7.01925"><ele></ele><time>2017-6-21T4:8:58Z</time></trkpt>
<trkpt lat="46.21428" lon="7.01919"><ele></ele><time>2017-6-21T4:9:1Z</time></trkpt>
<trkpt lat="46.21414" lon="7.01908"><ele></ele><time>2017-6-21T4:9:4Z</time></trkpt>
<trkpt lat="46.21408" lon="7.01903"><ele></ele><time>2017-6-21T4:9:7Z</time></trkpt>
<trkpt lat="46.21401" lon="7.01897"><ele></ele><time>2017-6-21T4:9:10Z</time></trkpt>
<trkpt lat="46.21395" lon="7.01892"><ele></ele><time>2017-6-21T4:9:13Z</time></trkpt>
<trkpt lat="46.21389" lon="7.0189"><ele></ele><time>2017-6-21T4:9:16Z</time></trkpt>
<trkpt lat="46.21379" lon="7.01886"><ele></ele><time>2017-6-21T4:9:19Z</time></trkpt>
<trkpt lat="46.21375" lon="7.0188"><ele></ele><time>2017-6-21T4:9:22Z</time></trkpt>
<trkpt lat="46.21372" lon="7.01875"><ele></ele><time>2017-6-21T4:9:25Z</time></trkpt>
<trkpt lat="46.2137" lon="7.01872"><ele></ele><time>2017-6-21T4:9:28Z</time></trkpt>
<trkpt lat="46.21369" lon="7.01869"><ele></ele><time>2017-6-21T4:9:31Z</time></trkpt>
<trkpt lat="46.21365" lon="7.01864"><ele></ele><time>2017-6-21T4:9:34Z</time></trkpt>
<trkpt lat="46.21362" lon="7.01859"><ele></ele><time>2017-6-21T4:9:37Z</time></trkpt>
<trkpt lat="46.2136" lon="7.01856"><ele></ele><time>2017-6-21T4:9:40Z</time></trkpt>
<trkpt lat="46.21359" lon="7.01853"><ele></ele><time>2017-6-21T4:9:43Z</time></trkpt>
<trkpt lat="46.21355" lon="7.01848"><ele></ele><time>2017-6-21T4:9:46Z</time></trkpt>
<trkpt lat="46.21352" lon="7.01842"><ele></ele><time>2017-6-21T4:9:49Z</time></trkpt>
<trkpt lat="46.21348" lon="7.01838"><ele></ele><time>2017-6-21T4:9:52Z</time></trkpt>
<trkpt lat="46.21344" lon="7.0184"><ele></ele><time>2017-6-21T4:9:55Z</time></trkpt>
<trkpt lat="46.2134" lon="7.01841"><ele></ele><time>2017-6-21T4:9:58Z</time></trkpt>
<trkpt lat="46.21327" lon="7.01847"><ele></ele><time>2017-6-21T4:10:1Z</time></trkpt>
<trkpt lat="46.21312" lon="7.01872"><ele></ele><time>2017-6-21T4:10:4Z</time></trkpt>
<trkpt lat="46.2129" lon="7.0188"><ele></ele><time>2017-6-21T4:10:7Z</time></trkpt>
<trkpt lat="46.21289" lon="7.01875"><ele></ele><time>2017-6-21T4:10:10Z</time></trkpt>
<trkpt lat="46.21298" lon="7.0184"><ele></ele><time>2017-6-21T4:10:13Z</time></trkpt>
<trkpt lat="46.21299" lon="7.01828"><ele></ele><time>2017-6-21T4:10:16Z</time></trkpt>
<trkpt lat="46.21297" lon="7.01815"><ele></ele><time>2017-6-21T4:10:19Z</time></trkpt>
<trkpt lat="46.21293" lon="7.01803"><ele></ele><time>2017-6-21T4:10:22Z</time></trkpt>
<trkpt lat="46.21284" lon="7.01778"><ele></ele><time>2017-6-21T4:10:25Z</time></trkpt>
<trkpt lat="46.21276" lon="7.01767"><ele></ele><time>2017-6-21T4:10:28Z</time></trkpt>
<trkpt lat="46.21267" lon="7.01756"><ele></ele><time>2017-6-21T4:10:31Z</time></trkpt>
<trkpt lat="46.21251" lon="7.01733"><ele></ele><time>2017-6-21T4:10:34Z</time></trkpt>
<trkpt lat="46.21237" lon="7.01704"><ele></ele><time>2017-6-21T4:10:37Z</time></trkpt>
<trkpt lat="46.2123" lon="7.01689"><ele></ele><time>2017-6-21T4:10:40Z</time></trkpt>
<trkpt lat="46.21223" lon="7.01674"><ele></ele><time>2017-6-21T4:10:43Z</time></trkpt>
<trkpt lat="46.21211" lon="7.01643"><ele></ele><time>2017-6-21T4:10:46Z</time></trkpt>
<trkpt lat="46.21199" lon="7.01613"><ele></ele><time>2017-6-21T4:10:49Z</time></trkpt>
<trkpt lat="46.21188" lon="7.01584"><ele></ele><time>2017-6-21T4:10:52Z</time></trkpt>
<trkpt lat="46.21183" lon="7.01569"><ele></ele><time>2017-6-21T4:10:55Z</time></trkpt>
<trkpt lat="46.21182" lon="7.01554"><ele></ele><time>2017-6-21T4:10:58Z</time></trkpt>
<trkpt lat="46.21187" lon="7.01542"><ele></ele><time>2017-6-21T4:11:1Z</time></trkpt>
<trkpt lat="46.21193" lon="7.01533"><ele></ele><time>2017-6-21T4:11:4Z</time></trkpt>
<trkpt lat="46.212" lon="7.01526"><ele></ele><time>2017-6-21T4:11:7Z</time></trkpt>
<trkpt lat="46.21209" lon="7.01522"><ele></ele><time>2017-6-21T4:11:10Z</time></trkpt>
<trkpt lat="46.2122" lon="7.01523"><ele></ele><time>2017-6-21T4:11:13Z</time></trkpt>
<trkpt lat="46.2123" lon="7.01527"><ele></ele><time>2017-6-21T4:11:16Z</time></trkpt>
<trkpt lat="46.21239" lon="7.0153"><ele></ele><time>2017-6-21T4:11:19Z</time></trkpt>
<trkpt lat="46.2125" lon="7.01532"><ele></ele><time>2017-6-21T4:11:22Z</time></trkpt>
<trkpt lat="46.21279" lon="7.01531"><ele></ele><time>2017-6-21T4:11:25Z</time></trkpt>
<trkpt lat="46.21305" lon="7.01516"><ele></ele><time>2017-6-21T4:11:28Z</time></trkpt>
<trkpt lat="46.21332" lon="7.01502"><ele></ele><time>2017-6-21T4:11:31Z</time></trkpt>
<trkpt lat="46.2136" lon="7.01489"><ele></ele><time>2017-6-21T4:11:34Z</time></trkpt>
<trkpt lat="46.21388" lon="7.01477"><ele></ele><time>2017-6-21T4:11:37Z</time></trkpt>
<trkpt lat="46.21414" lon="7.01469"><ele></ele><time>2017-6-21T4:11:40Z</time></trkpt>
<trkpt lat="46.21439" lon="7.0146"><ele></ele><time>2017-6-21T4:11:43Z</time></trkpt>
<trkpt lat="46.21464" lon="7.01451"><ele></ele><time>2017-6-21T4:11:46Z</time></trkpt>
<trkpt lat="46.21473" lon="7.01443"><ele></ele><time>2017-6-21T4:11:49Z</time></trkpt>
<trkpt lat="46.21479" lon="7.01432"><ele></ele><time>2017-6-21T4:11:52Z</time></trkpt>
<trkpt lat="46.21483" lon="7.01419"><ele></ele><time>2017-6-21T4:11:55Z</time></trkpt>
<trkpt lat="46.21485" lon="7.01404"><ele></ele><time>2017-6-21T4:11:58Z</time></trkpt>
<trkpt lat="46.21484" lon="7.01391"><ele></ele><time>2017-6-21T4:12:1Z</time></trkpt>
<trkpt lat="46.21475" lon="7.01381"><ele></ele><time>2017-6-21T4:12:4Z</time></trkpt>
<trkpt lat="46.21459" lon="7.01362"><ele></ele><time>2017-6-21T4:12:7Z</time></trkpt>
<trkpt lat="46.2145" lon="7.01353"><ele></ele><time>2017-6-21T4:12:10Z</time></trkpt>
<trkpt lat="46.21439" lon="7.01348"><ele></ele><time>2017-6-21T4:12:13Z</time></trkpt>
<trkpt lat="46.21417" lon="7.01337"><ele></ele><time>2017-6-21T4:12:16Z</time></trkpt>
<trkpt lat="46.21406" lon="7.01333"><ele></ele><time>2017-6-21T4:12:19Z</time></trkpt>
<trkpt lat="46.21393" lon="7.01331"><ele></ele><time>2017-6-21T4:12:22Z</time></trkpt>
<trkpt lat="46.21379" lon="7.01329"><ele></ele><time>2017-6-21T4:12:25Z</time></trkpt>
<trkpt lat="46.21366" lon="7.01329"><ele></ele><time>2017-6-21T4:12:28Z</time></trkpt>
<trkpt lat="46.21351" lon="7.01334"><ele></ele><time>2017-6-21T4:12:31Z</time></trkpt>
<trkpt lat="46.21338" lon="7.01332"><ele></ele><time>2017-6-21T4:12:34Z</time></trkpt>
<trkpt lat="46.21311" lon="7.01332"><ele></ele><time>2017-6-21T4:12:37Z</time></trkpt>
<trkpt lat="46.213" lon="7.01338"><ele></ele><time>2017-6-21T4:12:40Z</time></trkpt>
<trkpt lat="46.21289" lon="7.01344"><ele></ele><time>2017-6-21T4:12:43Z</time></trkpt>
<trkpt lat="46.21267" lon="7.01366"><ele></ele><time>2017-6-21T4:12:46Z</time></trkpt>
<trkpt lat="46.21259" lon="7.01385"><ele></ele><time>2017-6-21T4:12:49Z</time></trkpt>
<trkpt lat="46.21249" lon="7.01396"><ele></ele><time>2017-6-21T4:12:52Z</time></trkpt>
<trkpt lat="46.21238" lon="7.01405"><ele></ele><time>2017-6-21T4:12:55Z</time></trkpt>
<trkpt lat="46.21226" lon="7.01408"><ele></ele><time>2017-6-21T4:12:58Z</time></trkpt>
<trkpt lat="46.21201" lon="7.01415"><ele></ele><time>2017-6-21T4:13:1Z</time></trkpt>
<trkpt lat="46.21186" lon="7.01414"><ele></ele><time>2017-6-21T4:13:4Z</time></trkpt>
<trkpt lat="46.21173" lon="7.0141"><ele></ele><time>2017-6-21T4:13:7Z</time></trkpt>
<trkpt lat="46.21146" lon="7.01401"><ele></ele><time>2017-6-21T4:13:10Z</time></trkpt>
<trkpt lat="46.21133" lon="7.014"><ele></ele><time>2017-6-21T4:13:13Z</time></trkpt>
<trkpt lat="46.21121" lon="7.01406"><ele></ele><time>2017-6-21T4:13:16Z</time></trkpt>
<trkpt lat="46.21097" lon="7.01418"><ele></ele><time>2017-6-21T4:13:19Z</time></trkpt>
<trkpt lat="46.21072" lon="7.01434"><ele></ele><time>2017-6-21T4:13:22Z</time></trkpt>
<trkpt lat="46.2104" lon="7.01445"><ele></ele><time>2017-6-21T4:13:25Z</time></trkpt>
<trkpt lat="46.21024" lon="7.0145"><ele></ele><time>2017-6-21T4:13:28Z</time></trkpt>
<trkpt lat="46.21006" lon="7.01449"><ele></ele><time>2017-6-21T4:13:31Z</time></trkpt>
<trkpt lat="46.2099" lon="7.01441"><ele></ele><time>2017-6-21T4:13:34Z</time></trkpt>
<trkpt lat="46.20975" lon="7.01436"><ele></ele><time>2017-6-21T4:13:37Z</time></trkpt>
<trkpt lat="46.20965" lon="7.01427"><ele></ele><time>2017-6-21T4:13:40Z</time></trkpt>
<trkpt lat="46.2096" lon="7.0142"><ele></ele><time>2017-6-21T4:13:43Z</time></trkpt>
<trkpt lat="46.20949" lon="7.0141"><ele></ele><time>2017-6-21T4:13:46Z</time></trkpt>
<trkpt lat="46.20934" lon="7.01416"><ele></ele><time>2017-6-21T4:13:49Z</time></trkpt>
<trkpt lat="46.20925" lon="7.0142"><ele></ele><time>2017-6-21T4:13:52Z</time></trkpt>
<trkpt lat="46.2088" lon="7.01446"><ele></ele><time>2017-6-21T4:13:55Z</time></trkpt>
<trkpt lat="46.20855" lon="7.01462"><ele></ele><time>2017-6-21T4:13:58Z</time></trkpt>
<trkpt lat="46.20846" lon="7.01467"><ele></ele><time>2017-6-21T4:14:1Z</time></trkpt>
<trkpt lat="46.20838" lon="7.01473"><ele></ele><time>2017-6-21T4:14:4Z</time></trkpt>
<trkpt lat="46.20834" lon="7.01475"><ele></ele><time>2017-6-21T4:14:7Z</time></trkpt>
<trkpt lat="46.20829" lon="7.01478"><ele></ele><time>2017-6-21T4:14:10Z</time></trkpt>
<trkpt lat="46.20821" lon="7.01484"><ele></ele><time>2017-6-21T4:14:13Z</time></trkpt>
<trkpt lat="46.20813" lon="7.0149"><ele></ele><time>2017-6-21T4:14:16Z</time></trkpt>
<trkpt lat="46.20804" lon="7.01496"><ele></ele><time>2017-6-21T4:14:19Z</time></trkpt>
<trkpt lat="46.20796" lon="7.01501"><ele></ele><time>2017-6-21T4:14:22Z</time></trkpt>
<trkpt lat="46.20788" lon="7.01506"><ele></ele><time>2017-6-21T4:14:25Z</time></trkpt>
<trkpt lat="46.20779" lon="7.0151"><ele></ele><time>2017-6-21T4:14:28Z</time></trkpt>
<trkpt lat="46.20771" lon="7.01515"><ele></ele><time>2017-6-21T4:14:31Z</time></trkpt>
<trkpt lat="46.20763" lon="7.0152"><ele></ele><time>2017-6-21T4:14:34Z</time></trkpt>
<trkpt lat="46.20755" lon="7.01524"><ele></ele><time>2017-6-21T4:14:37Z</time></trkpt>
<trkpt lat="46.20751" lon="7.01527"><ele></ele><time>2017-6-21T4:14:40Z</time></trkpt>
<trkpt lat="46.20747" lon="7.0153"><ele></ele><time>2017-6-21T4:14:43Z</time></trkpt>
<trkpt lat="46.2074" lon="7.01537"><ele></ele><time>2017-6-21T4:14:46Z</time></trkpt>
<trkpt lat="46.20732" lon="7.01543"><ele></ele><time>2017-6-21T4:14:49Z</time></trkpt>
<trkpt lat="46.20725" lon="7.0155"><ele></ele><time>2017-6-21T4:14:52Z</time></trkpt>
<trkpt lat="46.20721" lon="7.01553"><ele></ele><time>2017-6-21T4:14:55Z</time></trkpt>
<trkpt lat="46.20717" lon="7.01555"><ele></ele><time>2017-6-21T4:14:58Z</time></trkpt>
<trkpt lat="46.20709" lon="7.01559"><ele></ele><time>2017-6-21T4:15:1Z</time></trkpt>
<trkpt lat="46.20701" lon="7.01564"><ele></ele><time>2017-6-21T4:15:4Z</time></trkpt>
<trkpt lat="46.20693" lon="7.01568"><ele></ele><time>2017-6-21T4:15:7Z</time></trkpt>
<trkpt lat="46.20684" lon="7.01572"><ele></ele><time>2017-6-21T4:15:10Z</time></trkpt>
<trkpt lat="46.20676" lon="7.01577"><ele></ele><time>2017-6-21T4:15:13Z</time></trkpt>
<trkpt lat="46.20669" lon="7.01582"><ele></ele><time>2017-6-21T4:15:16Z</time></trkpt>
<trkpt lat="46.20661" lon="7.01588"><ele></ele><time>2017-6-21T4:15:19Z</time></trkpt>
<trkpt lat="46.20653" lon="7.01593"><ele></ele><time>2017-6-21T4:15:22Z</time></trkpt>
<trkpt lat="46.20646" lon="7.01599"><ele></ele><time>2017-6-21T4:15:25Z</time></trkpt>
<trkpt lat="46.20638" lon="7.01604"><ele></ele><time>2017-6-21T4:15:28Z</time></trkpt>
<trkpt lat="46.20634" lon="7.01607"><ele></ele><time>2017-6-21T4:15:31Z</time></trkpt>
<trkpt lat="46.2063" lon="7.0161"><ele></ele><time>2017-6-21T4:15:34Z</time></trkpt>
<trkpt lat="46.20621" lon="7.01616"><ele></ele><time>2017-6-21T4:15:37Z</time></trkpt>
<trkpt lat="46.20613" lon="7.01621"><ele></ele><time>2017-6-21T4:15:40Z</time></trkpt>
<trkpt lat="46.20605" lon="7.01627"><ele></ele><time>2017-6-21T4:15:43Z</time></trkpt>
<trkpt lat="46.20596" lon="7.01633"><ele></ele><time>2017-6-21T4:15:46Z</time></trkpt>
<trkpt lat="46.20592" lon="7.01636"><ele></ele><time>2017-6-21T4:15:49Z</time></trkpt>
<trkpt lat="46.20588" lon="7.01639"><ele></ele><time>2017-6-21T4:15:52Z</time></trkpt>
<trkpt lat="46.20579" lon="7.01645"><ele></ele><time>2017-6-21T4:15:55Z</time></trkpt>
<trkpt lat="46.20571" lon="7.0165"><ele></ele><time>2017-6-21T4:15:58Z</time></trkpt>
<trkpt lat="46.20562" lon="7.01656"><ele></ele><time>2017-6-21T4:16:1Z</time></trkpt>
<trkpt lat="46.20553" lon="7.01662"><ele></ele><time>2017-6-21T4:16:4Z</time></trkpt>
<trkpt lat="46.20549" lon="7.01666"><ele></ele><time>2017-6-21T4:16:7Z</time></trkpt>
<trkpt lat="46.20546" lon="7.0167"><ele></ele><time>2017-6-21T4:16:10Z</time></trkpt>
<trkpt lat="46.20539" lon="7.01678"><ele></ele><time>2017-6-21T4:16:13Z</time></trkpt>
<trkpt lat="46.20532" lon="7.01686"><ele></ele><time>2017-6-21T4:16:16Z</time></trkpt>
<trkpt lat="46.20526" lon="7.01694"><ele></ele><time>2017-6-21T4:16:19Z</time></trkpt>
<trkpt lat="46.20523" lon="7.01698"><ele></ele><time>2017-6-21T4:16:22Z</time></trkpt>
<trkpt lat="46.20521" lon="7.01703"><ele></ele><time>2017-6-21T4:16:25Z</time></trkpt>
<trkpt lat="46.20519" lon="7.01713"><ele></ele><time>2017-6-21T4:16:28Z</time></trkpt>
<trkpt lat="46.20495" lon="7.01719"><ele></ele><time>2017-6-21T4:16:31Z</time></trkpt>
<trkpt lat="46.20495" lon="7.01719"><ele></ele><time>2017-6-21T4:16:34Z</time></trkpt>
<trkpt lat="46.20475" lon="7.01715"><ele></ele><time>2017-6-21T4:16:37Z</time></trkpt>
<trkpt lat="46.20473" lon="7.01714"><ele></ele><time>2017-6-21T4:16:40Z</time></trkpt>
<trkpt lat="46.20472" lon="7.01713"><ele></ele><time>2017-6-21T4:16:43Z</time></trkpt>
<trkpt lat="46.20471" lon="7.01712"><ele></ele><time>2017-6-21T4:16:46Z</time></trkpt>
<trkpt lat="46.20469" lon="7.0171"><ele></ele><time>2017-6-21T4:16:49Z</time></trkpt>
<trkpt lat="46.20463" lon="7.01705"><ele></ele><time>2017-6-21T4:16:52Z</time></trkpt>
<trkpt lat="46.20457" lon="7.017"><ele></ele><time>2017-6-21T4:16:55Z</time></trkpt>
<trkpt lat="46.20451" lon="7.01694"><ele></ele><time>2017-6-21T4:16:58Z</time></trkpt>
<trkpt lat="46.20445" lon="7.01689"><ele></ele><time>2017-6-21T4:17:1Z</time></trkpt>
<trkpt lat="46.20439" lon="7.01684"><ele></ele><time>2017-6-21T4:17:4Z</time></trkpt>
<trkpt lat="46.20433" lon="7.01678"><ele></ele><time>2017-6-21T4:17:7Z</time></trkpt>
<trkpt lat="46.2043" lon="7.01676"><ele></ele><time>2017-6-21T4:17:10Z</time></trkpt>
<trkpt lat="46.20427" lon="7.01672"><ele></ele><time>2017-6-21T4:17:13Z</time></trkpt>
<trkpt lat="46.2042" lon="7.01666"><ele></ele><time>2017-6-21T4:17:16Z</time></trkpt>
<trkpt lat="46.20413" lon="7.01659"><ele></ele><time>2017-6-21T4:17:19Z</time></trkpt>
<trkpt lat="46.20406" lon="7.01653"><ele></ele><time>2017-6-21T4:17:22Z</time></trkpt>
<trkpt lat="46.20399" lon="7.01647"><ele></ele><time>2017-6-21T4:17:25Z</time></trkpt>
<trkpt lat="46.20392" lon="7.0164"><ele></ele><time>2017-6-21T4:17:28Z</time></trkpt>
<trkpt lat="46.20385" lon="7.01635"><ele></ele><time>2017-6-21T4:17:31Z</time></trkpt>
<trkpt lat="46.20378" lon="7.01629"><ele></ele><time>2017-6-21T4:17:34Z</time></trkpt>
<trkpt lat="46.20371" lon="7.01623"><ele></ele><time>2017-6-21T4:17:37Z</time></trkpt>
<trkpt lat="46.20364" lon="7.01618"><ele></ele><time>2017-6-21T4:17:40Z</time></trkpt>
<trkpt lat="46.2036" lon="7.01615"><ele></ele><time>2017-6-21T4:17:43Z</time></trkpt>
<trkpt lat="46.20356" lon="7.01612"><ele></ele><time>2017-6-21T4:17:46Z</time></trkpt>
<trkpt lat="46.2035" lon="7.01606"><ele></ele><time>2017-6-21T4:17:49Z</time></trkpt>
<trkpt lat="46.20344" lon="7.01599"><ele></ele><time>2017-6-21T4:17:52Z</time></trkpt>
<trkpt lat="46.20338" lon="7.01591"><ele></ele><time>2017-6-21T4:17:55Z</time></trkpt>
<trkpt lat="46.20332" lon="7.01584"><ele></ele><time>2017-6-21T4:17:58Z</time></trkpt>
<trkpt lat="46.20326" lon="7.01577"><ele></ele><time>2017-6-21T4:18:1Z</time></trkpt>
<trkpt lat="46.2032" lon="7.01568"><ele></ele><time>2017-6-21T4:18:4Z</time></trkpt>
<trkpt lat="46.20316" lon="7.0155"><ele></ele><time>2017-6-21T4:18:7Z</time></trkpt>
<trkpt lat="46.20312" lon="7.01533"><ele></ele><time>2017-6-21T4:18:10Z</time></trkpt>
<trkpt lat="46.20308" lon="7.01516"><ele></ele><time>2017-6-21T4:18:13Z</time></trkpt>
<trkpt lat="46.20303" lon="7.01498"><ele></ele><time>2017-6-21T4:18:16Z</time></trkpt>
<trkpt lat="46.20299" lon="7.01473"><ele></ele><time>2017-6-21T4:18:19Z</time></trkpt>
<trkpt lat="46.20295" lon="7.01449"><ele></ele><time>2017-6-21T4:18:22Z</time></trkpt>
<trkpt lat="46.20291" lon="7.01425"><ele></ele><time>2017-6-21T4:18:25Z</time></trkpt>
<trkpt lat="46.20289" lon="7.01416"><ele></ele><time>2017-6-21T4:18:28Z</time></trkpt>
<trkpt lat="46.20286" lon="7.01406"><ele></ele><time>2017-6-21T4:18:31Z</time></trkpt>
<trkpt lat="46.20282" lon="7.01387"><ele></ele><time>2017-6-21T4:18:34Z</time></trkpt>
<trkpt lat="46.20278" lon="7.01367"><ele></ele><time>2017-6-21T4:18:37Z</time></trkpt>
<trkpt lat="46.20276" lon="7.01359"><ele></ele><time>2017-6-21T4:18:40Z</time></trkpt>
<trkpt lat="46.20274" lon="7.01353"><ele></ele><time>2017-6-21T4:18:43Z</time></trkpt>
<trkpt lat="46.20269" lon="7.01333"><ele></ele><time>2017-6-21T4:18:46Z</time></trkpt>
<trkpt lat="46.20269" lon="7.01326"><ele></ele><time>2017-6-21T4:18:49Z</time></trkpt>
<trkpt lat="46.20268" lon="7.01311"><ele></ele><time>2017-6-21T4:18:52Z</time></trkpt>
<trkpt lat="46.20267" lon="7.01305"><ele></ele><time>2017-6-21T4:18:55Z</time></trkpt>
<trkpt lat="46.20265" lon="7.01293"><ele></ele><time>2017-6-21T4:18:58Z</time></trkpt>
<trkpt lat="46.20253" lon="7.01264"><ele></ele><time>2017-6-21T4:19:1Z</time></trkpt>
<trkpt lat="46.20244" lon="7.01241"><ele></ele><time>2017-6-21T4:19:4Z</time></trkpt>
<trkpt lat="46.20242" lon="7.01235"><ele></ele><time>2017-6-21T4:19:7Z</time></trkpt>
<trkpt lat="46.2024" lon="7.01229"><ele></ele><time>2017-6-21T4:19:10Z</time></trkpt>
<trkpt lat="46.20235" lon="7.01215"><ele></ele><time>2017-6-21T4:19:13Z</time></trkpt>
<trkpt lat="46.20231" lon="7.01202"><ele></ele><time>2017-6-21T4:19:16Z</time></trkpt>
<trkpt lat="46.20229" lon="7.01195"><ele></ele><time>2017-6-21T4:19:19Z</time></trkpt>
<trkpt lat="46.20227" lon="7.01189"><ele></ele><time>2017-6-21T4:19:22Z</time></trkpt>
<trkpt lat="46.20222" lon="7.01176"><ele></ele><time>2017-6-21T4:19:25Z</time></trkpt>
<trkpt lat="46.20218" lon="7.01166"><ele></ele><time>2017-6-21T4:19:28Z</time></trkpt>
<trkpt lat="46.20214" lon="7.01156"><ele></ele><time>2017-6-21T4:19:31Z</time></trkpt>
<trkpt lat="46.20209" lon="7.01146"><ele></ele><time>2017-6-21T4:19:34Z</time></trkpt>
<trkpt lat="46.20205" lon="7.01136"><ele></ele><time>2017-6-21T4:19:37Z</time></trkpt>
<trkpt lat="46.20201" lon="7.01126"><ele></ele><time>2017-6-21T4:19:40Z</time></trkpt>
<trkpt lat="46.202" lon="7.01121"><ele></ele><time>2017-6-21T4:19:43Z</time></trkpt>
<trkpt lat="46.20201" lon="7.01119"><ele></ele><time>2017-6-21T4:19:46Z</time></trkpt>
<trkpt lat="46.20201" lon="7.01115"><ele></ele><time>2017-6-21T4:19:49Z</time></trkpt>
<trkpt lat="46.20199" lon="7.01109"><ele></ele><time>2017-6-21T4:19:52Z</time></trkpt>
<trkpt lat="46.20195" lon="7.01097"><ele></ele><time>2017-6-21T4:19:55Z</time></trkpt>
<trkpt lat="46.20191" lon="7.01085"><ele></ele><time>2017-6-21T4:19:58Z</time></trkpt>
<trkpt lat="46.20187" lon="7.01073"><ele></ele><time>2017-6-21T4:20:1Z</time></trkpt>
<trkpt lat="46.20183" lon="7.01061"><ele></ele><time>2017-6-21T4:20:4Z</time></trkpt>
<trkpt lat="46.2018" lon="7.01049"><ele></ele><time>2017-6-21T4:20:7Z</time></trkpt>
<trkpt lat="46.20175" lon="7.01033"><ele></ele><time>2017-6-21T4:20:10Z</time></trkpt>
<trkpt lat="46.20171" lon="7.01018"><ele></ele><time>2017-6-21T4:20:13Z</time></trkpt>
<trkpt lat="46.20167" lon="7.01002"><ele></ele><time>2017-6-21T4:20:16Z</time></trkpt>
<trkpt lat="46.20163" lon="7.00987"><ele></ele><time>2017-6-21T4:20:19Z</time></trkpt>
<trkpt lat="46.2016" lon="7.00969"><ele></ele><time>2017-6-21T4:20:22Z</time></trkpt>
<trkpt lat="46.20157" lon="7.00951"><ele></ele><time>2017-6-21T4:20:25Z</time></trkpt>
<trkpt lat="46.20154" lon="7.00933"><ele></ele><time>2017-6-21T4:20:28Z</time></trkpt>
<trkpt lat="46.2015" lon="7.00916"><ele></ele><time>2017-6-21T4:20:31Z</time></trkpt>
<trkpt lat="46.20147" lon="7.009"><ele></ele><time>2017-6-21T4:20:34Z</time></trkpt>
<trkpt lat="46.20143" lon="7.00884"><ele></ele><time>2017-6-21T4:20:37Z</time></trkpt>
<trkpt lat="46.2014" lon="7.00868"><ele></ele><time>2017-6-21T4:20:40Z</time></trkpt>
<trkpt lat="46.20136" lon="7.00852"><ele></ele><time>2017-6-21T4:20:43Z</time></trkpt>
<trkpt lat="46.20133" lon="7.0084"><ele></ele><time>2017-6-21T4:20:46Z</time></trkpt>
<trkpt lat="46.20129" lon="7.00827"><ele></ele><time>2017-6-21T4:20:49Z</time></trkpt>
<trkpt lat="46.20125" lon="7.00814"><ele></ele><time>2017-6-21T4:20:52Z</time></trkpt>
<trkpt lat="46.20121" lon="7.00801"><ele></ele><time>2017-6-21T4:20:55Z</time></trkpt>
<trkpt lat="46.20118" lon="7.00789"><ele></ele><time>2017-6-21T4:20:58Z</time></trkpt>
<trkpt lat="46.20116" lon="7.00779"><ele></ele><time>2017-6-21T4:21:1Z</time></trkpt>
<trkpt lat="46.20116" lon="7.00769"><ele></ele><time>2017-6-21T4:21:4Z</time></trkpt>
<trkpt lat="46.20122" lon="7.00758"><ele></ele><time>2017-6-21T4:21:7Z</time></trkpt>
<trkpt lat="46.20128" lon="7.00748"><ele></ele><time>2017-6-21T4:21:10Z</time></trkpt>
<trkpt lat="46.20131" lon="7.00744"><ele></ele><time>2017-6-21T4:21:13Z</time></trkpt>
<trkpt lat="46.20136" lon="7.00742"><ele></ele><time>2017-6-21T4:21:16Z</time></trkpt>
<trkpt lat="46.20146" lon="7.00738"><ele></ele><time>2017-6-21T4:21:19Z</time></trkpt>
<trkpt lat="46.20156" lon="7.00734"><ele></ele><time>2017-6-21T4:21:22Z</time></trkpt>
<trkpt lat="46.20166" lon="7.00731"><ele></ele><time>2017-6-21T4:21:25Z</time></trkpt>
<trkpt lat="46.20171" lon="7.00728"><ele></ele><time>2017-6-21T4:21:28Z</time></trkpt>
<trkpt lat="46.20175" lon="7.00722"><ele></ele><time>2017-6-21T4:21:31Z</time></trkpt>
<trkpt lat="46.20177" lon="7.00716"><ele></ele><time>2017-6-21T4:21:34Z</time></trkpt>
<trkpt lat="46.20176" lon="7.00708"><ele></ele><time>2017-6-21T4:21:37Z</time></trkpt>
<trkpt lat="46.20173" lon="7.00695"><ele></ele><time>2017-6-21T4:21:40Z</time></trkpt>
<trkpt lat="46.20164" lon="7.00689"><ele></ele><time>2017-6-21T4:21:43Z</time></trkpt>
<trkpt lat="46.20154" lon="7.00684"><ele></ele><time>2017-6-21T4:21:46Z</time></trkpt>
<trkpt lat="46.20145" lon="7.00679"><ele></ele><time>2017-6-21T4:21:49Z</time></trkpt>
<trkpt lat="46.20136" lon="7.00676"><ele></ele><time>2017-6-21T4:21:52Z</time></trkpt>
<trkpt lat="46.20128" lon="7.00674"><ele></ele><time>2017-6-21T4:21:55Z</time></trkpt>
<trkpt lat="46.2012" lon="7.00671"><ele></ele><time>2017-6-21T4:21:58Z</time></trkpt>
<trkpt lat="46.20111" lon="7.00668"><ele></ele><time>2017-6-21T4:22:1Z</time></trkpt>
<trkpt lat="46.20103" lon="7.00666"><ele></ele><time>2017-6-21T4:22:4Z</time></trkpt>
<trkpt lat="46.20099" lon="7.00664"><ele></ele><time>2017-6-21T4:22:7Z</time></trkpt>
<trkpt lat="46.20096" lon="7.00663"><ele></ele><time>2017-6-21T4:22:10Z</time></trkpt>
<trkpt lat="46.20089" lon="7.00659"><ele></ele><time>2017-6-21T4:22:13Z</time></trkpt>
<trkpt lat="46.20082" lon="7.00655"><ele></ele><time>2017-6-21T4:22:16Z</time></trkpt>
<trkpt lat="46.20075" lon="7.00652"><ele></ele><time>2017-6-21T4:22:19Z</time></trkpt>
<trkpt lat="46.20068" lon="7.00648"><ele></ele><time>2017-6-21T4:22:22Z</time></trkpt>
<trkpt lat="46.20062" lon="7.00644"><ele></ele><time>2017-6-21T4:22:25Z</time></trkpt>
<trkpt lat="46.20055" lon="7.00641"><ele></ele><time>2017-6-21T4:22:28Z</time></trkpt>
<trkpt lat="46.20049" lon="7.00638"><ele></ele><time>2017-6-21T4:22:31Z</time></trkpt>
<trkpt lat="46.20045" lon="7.00637"><ele></ele><time>2017-6-21T4:22:34Z</time></trkpt>
<trkpt lat="46.20042" lon="7.00635"><ele></ele><time>2017-6-21T4:22:37Z</time></trkpt>
<trkpt lat="46.20036" lon="7.00632"><ele></ele><time>2017-6-21T4:22:40Z</time></trkpt>
<trkpt lat="46.2003" lon="7.00629"><ele></ele><time>2017-6-21T4:22:43Z</time></trkpt>
<trkpt lat="46.20027" lon="7.00628"><ele></ele><time>2017-6-21T4:22:46Z</time></trkpt>
<trkpt lat="46.20024" lon="7.00626"><ele></ele><time>2017-6-21T4:22:49Z</time></trkpt>
<trkpt lat="46.20018" lon="7.00624"><ele></ele><time>2017-6-21T4:22:52Z</time></trkpt>
<trkpt lat="46.20015" lon="7.00622"><ele></ele><time>2017-6-21T4:22:55Z</time></trkpt>
<trkpt lat="46.20011" lon="7.00621"><ele></ele><time>2017-6-21T4:22:58Z</time></trkpt>
<trkpt lat="46.20005" lon="7.00621"><ele></ele><time>2017-6-21T4:23:1Z</time></trkpt>
<trkpt lat="46.19998" lon="7.00621"><ele></ele><time>2017-6-21T4:23:4Z</time></trkpt>
<trkpt lat="46.19992" lon="7.00621"><ele></ele><time>2017-6-21T4:23:7Z</time></trkpt>
<trkpt lat="46.19985" lon="7.00621"><ele></ele><time>2017-6-21T4:23:10Z</time></trkpt>
<trkpt lat="46.19979" lon="7.00621"><ele></ele><time>2017-6-21T4:23:13Z</time></trkpt>
<trkpt lat="46.19973" lon="7.00622"><ele></ele><time>2017-6-21T4:23:16Z</time></trkpt>
<trkpt lat="46.19966" lon="7.00622"><ele></ele><time>2017-6-21T4:23:19Z</time></trkpt>
<trkpt lat="46.1996" lon="7.00622"><ele></ele><time>2017-6-21T4:23:22Z</time></trkpt>
<trkpt lat="46.19957" lon="7.00622"><ele></ele><time>2017-6-21T4:23:25Z</time></trkpt>
<trkpt lat="46.19954" lon="7.00622"><ele></ele><time>2017-6-21T4:23:28Z</time></trkpt>
<trkpt lat="46.19948" lon="7.00622"><ele></ele><time>2017-6-21T4:23:31Z</time></trkpt>
<trkpt lat="46.19941" lon="7.00622"><ele></ele><time>2017-6-21T4:23:34Z</time></trkpt>
<trkpt lat="46.19935" lon="7.00622"><ele></ele><time>2017-6-21T4:23:37Z</time></trkpt>
<trkpt lat="46.19929" lon="7.00622"><ele></ele><time>2017-6-21T4:23:40Z</time></trkpt>
<trkpt lat="46.19923" lon="7.00622"><ele></ele><time>2017-6-21T4:23:43Z</time></trkpt>
<trkpt lat="46.1992" lon="7.00622"><ele></ele><time>2017-6-21T4:23:46Z</time></trkpt>
<trkpt lat="46.19917" lon="7.00623"><ele></ele><time>2017-6-21T4:23:49Z</time></trkpt>
<trkpt lat="46.19911" lon="7.00624"><ele></ele><time>2017-6-21T4:23:52Z</time></trkpt>
<trkpt lat="46.19906" lon="7.00625"><ele></ele><time>2017-6-21T4:23:55Z</time></trkpt>
<trkpt lat="46.199" lon="7.00626"><ele></ele><time>2017-6-21T4:23:58Z</time></trkpt>
<trkpt lat="46.19894" lon="7.00627"><ele></ele><time>2017-6-21T4:24:1Z</time></trkpt>
<trkpt lat="46.19888" lon="7.00628"><ele></ele><time>2017-6-21T4:24:4Z</time></trkpt>
<trkpt lat="46.19882" lon="7.00629"><ele></ele><time>2017-6-21T4:24:7Z</time></trkpt>
<trkpt lat="46.19877" lon="7.0063"><ele></ele><time>2017-6-21T4:24:10Z</time></trkpt>
<trkpt lat="46.19874" lon="7.0063"><ele></ele><time>2017-6-21T4:24:13Z</time></trkpt>
<trkpt lat="46.19872" lon="7.0063"><ele></ele><time>2017-6-21T4:24:16Z</time></trkpt>
<trkpt lat="46.19867" lon="7.0063"><ele></ele><time>2017-6-21T4:24:19Z</time></trkpt>
<trkpt lat="46.19862" lon="7.0063"><ele></ele><time>2017-6-21T4:24:22Z</time></trkpt>
<trkpt lat="46.19857" lon="7.0063"><ele></ele><time>2017-6-21T4:24:25Z</time></trkpt>
<trkpt lat="46.19852" lon="7.0063"><ele></ele><time>2017-6-21T4:24:28Z</time></trkpt>
<trkpt lat="46.19847" lon="7.0063"><ele></ele><time>2017-6-21T4:24:31Z</time></trkpt>
<trkpt lat="46.19843" lon="7.0063"><ele></ele><time>2017-6-21T4:24:34Z</time></trkpt>
<trkpt lat="46.19838" lon="7.0063"><ele></ele><time>2017-6-21T4:24:37Z</time></trkpt>
<trkpt lat="46.19833" lon="7.0063"><ele></ele><time>2017-6-21T4:24:40Z</time></trkpt>
<trkpt lat="46.19828" lon="7.0063"><ele></ele><time>2017-6-21T4:24:43Z</time></trkpt>
<trkpt lat="46.19823" lon="7.0063"><ele></ele><time>2017-6-21T4:24:46Z</time></trkpt>
<trkpt lat="46.19818" lon="7.0063"><ele></ele><time>2017-6-21T4:24:49Z</time></trkpt>
<trkpt lat="46.19813" lon="7.00629"><ele></ele><time>2017-6-21T4:24:52Z</time></trkpt>
<trkpt lat="46.19808" lon="7.00629"><ele></ele><time>2017-6-21T4:24:55Z</time></trkpt>
<trkpt lat="46.19803" lon="7.00628"><ele></ele><time>2017-6-21T4:24:58Z</time></trkpt>
<trkpt lat="46.19798" lon="7.00628"><ele></ele><time>2017-6-21T4:25:1Z</time></trkpt>
<trkpt lat="46.19793" lon="7.00628"><ele></ele><time>2017-6-21T4:25:4Z</time></trkpt>
<trkpt lat="46.19788" lon="7.00627"><ele></ele><time>2017-6-21T4:25:7Z</time></trkpt>
<trkpt lat="46.19783" lon="7.00627"><ele></ele><time>2017-6-21T4:25:10Z</time></trkpt>
<trkpt lat="46.19781" lon="7.00627"><ele></ele><time>2017-6-21T4:25:13Z</time></trkpt>
<trkpt lat="46.19778" lon="7.00626"><ele></ele><time>2017-6-21T4:25:16Z</time></trkpt>
<trkpt lat="46.19773" lon="7.00624"><ele></ele><time>2017-6-21T4:25:19Z</time></trkpt>
<trkpt lat="46.19768" lon="7.00623"><ele></ele><time>2017-6-21T4:25:22Z</time></trkpt>
<trkpt lat="46.19763" lon="7.00621"><ele></ele><time>2017-6-21T4:25:25Z</time></trkpt>
<trkpt lat="46.19758" lon="7.0062"><ele></ele><time>2017-6-21T4:25:28Z</time></trkpt>
<trkpt lat="46.19753" lon="7.00618"><ele></ele><time>2017-6-21T4:25:31Z</time></trkpt>
<trkpt lat="46.19748" lon="7.00616"><ele></ele><time>2017-6-21T4:25:34Z</time></trkpt>
<trkpt lat="46.19743" lon="7.00615"><ele></ele><time>2017-6-21T4:25:37Z</time></trkpt>
<trkpt lat="46.19738" lon="7.00613"><ele></ele><time>2017-6-21T4:25:40Z</time></trkpt>
<trkpt lat="46.19736" lon="7.00612"><ele></ele><time>2017-6-21T4:25:43Z</time></trkpt>
<trkpt lat="46.19733" lon="7.00612"><ele></ele><time>2017-6-21T4:25:46Z</time></trkpt>
<trkpt lat="46.19728" lon="7.0061"><ele></ele><time>2017-6-21T4:25:49Z</time></trkpt>
<trkpt lat="46.19723" lon="7.00608"><ele></ele><time>2017-6-21T4:25:52Z</time></trkpt>
<trkpt lat="46.19718" lon="7.00606"><ele></ele><time>2017-6-21T4:25:55Z</time></trkpt>
<trkpt lat="46.19713" lon="7.00605"><ele></ele><time>2017-6-21T4:25:58Z</time></trkpt>
<trkpt lat="46.19708" lon="7.00603"><ele></ele><time>2017-6-21T4:26:1Z</time></trkpt>
<trkpt lat="46.19703" lon="7.00601"><ele></ele><time>2017-6-21T4:26:4Z</time></trkpt>
<trkpt lat="46.19699" lon="7.00599"><ele></ele><time>2017-6-21T4:26:7Z</time></trkpt>
<trkpt lat="46.19696" lon="7.00599"><ele></ele><time>2017-6-21T4:26:10Z</time></trkpt>
<trkpt lat="46.19694" lon="7.00598"><ele></ele><time>2017-6-21T4:26:13Z</time></trkpt>
<trkpt lat="46.19691" lon="7.00597"><ele></ele><time>2017-6-21T4:26:16Z</time></trkpt>
<trkpt lat="46.19688" lon="7.00598"><ele></ele><time>2017-6-21T4:26:19Z</time></trkpt>
<trkpt lat="46.19683" lon="7.00598"><ele></ele><time>2017-6-21T4:26:22Z</time></trkpt>
<trkpt lat="46.19678" lon="7.00599"><ele></ele><time>2017-6-21T4:26:25Z</time></trkpt>
<trkpt lat="46.19673" lon="7.00599"><ele></ele><time>2017-6-21T4:26:28Z</time></trkpt>
<trkpt lat="46.19668" lon="7.006"><ele></ele><time>2017-6-21T4:26:31Z</time></trkpt>
<trkpt lat="46.19665" lon="7.006"><ele></ele><time>2017-6-21T4:26:34Z</time></trkpt>
<trkpt lat="46.19663" lon="7.00601"><ele></ele><time>2017-6-21T4:26:37Z</time></trkpt>
<trkpt lat="46.19657" lon="7.00601"><ele></ele><time>2017-6-21T4:26:40Z</time></trkpt>
<trkpt lat="46.19652" lon="7.00602"><ele></ele><time>2017-6-21T4:26:43Z</time></trkpt>
<trkpt lat="46.19647" lon="7.00602"><ele></ele><time>2017-6-21T4:26:46Z</time></trkpt>
<trkpt lat="46.19645" lon="7.00602"><ele></ele><time>2017-6-21T4:26:49Z</time></trkpt>
<trkpt lat="46.19642" lon="7.00602"><ele></ele><time>2017-6-21T4:26:52Z</time></trkpt>
<trkpt lat="46.19637" lon="7.00602"><ele></ele><time>2017-6-21T4:26:55Z</time></trkpt>
<trkpt lat="46.19632" lon="7.00601"><ele></ele><time>2017-6-21T4:26:58Z</time></trkpt>
<trkpt lat="46.19627" lon="7.00601"><ele></ele><time>2017-6-21T4:27:1Z</time></trkpt>
<trkpt lat="46.19622" lon="7.006"><ele></ele><time>2017-6-21T4:27:4Z</time></trkpt>
<trkpt lat="46.19618" lon="7.006"><ele></ele><time>2017-6-21T4:27:7Z</time></trkpt>
<trkpt lat="46.19613" lon="7.006"><ele></ele><time>2017-6-21T4:27:10Z</time></trkpt>
<trkpt lat="46.19608" lon="7.00599"><ele></ele><time>2017-6-21T4:27:13Z</time></trkpt>
<trkpt lat="46.19603" lon="7.00599"><ele></ele><time>2017-6-21T4:27:16Z</time></trkpt>
<trkpt lat="46.19598" lon="7.00598"><ele></ele><time>2017-6-21T4:27:19Z</time></trkpt>
<trkpt lat="46.19594" lon="7.00599"><ele></ele><time>2017-6-21T4:27:22Z</time></trkpt>
<trkpt lat="46.19589" lon="7.006"><ele></ele><time>2017-6-21T4:27:25Z</time></trkpt>
<trkpt lat="46.19585" lon="7.00601"><ele></ele><time>2017-6-21T4:27:28Z</time></trkpt>
<trkpt lat="46.1958" lon="7.00602"><ele></ele><time>2017-6-21T4:27:31Z</time></trkpt>
<trkpt lat="46.19576" lon="7.00603"><ele></ele><time>2017-6-21T4:27:34Z</time></trkpt>
<trkpt lat="46.19571" lon="7.00604"><ele></ele><time>2017-6-21T4:27:37Z</time></trkpt>
<trkpt lat="46.19567" lon="7.00605"><ele></ele><time>2017-6-21T4:27:40Z</time></trkpt>
<trkpt lat="46.19562" lon="7.00606"><ele></ele><time>2017-6-21T4:27:43Z</time></trkpt>
<trkpt lat="46.19558" lon="7.00607"><ele></ele><time>2017-6-21T4:27:46Z</time></trkpt>
<trkpt lat="46.19553" lon="7.00608"><ele></ele><time>2017-6-21T4:27:49Z</time></trkpt>
<trkpt lat="46.19549" lon="7.00611"><ele></ele><time>2017-6-21T4:27:52Z</time></trkpt>
<trkpt lat="46.19545" lon="7.00613"><ele></ele><time>2017-6-21T4:27:55Z</time></trkpt>
<trkpt lat="46.1954" lon="7.00616"><ele></ele><time>2017-6-21T4:27:58Z</time></trkpt>
<trkpt lat="46.19536" lon="7.00618"><ele></ele><time>2017-6-21T4:28:1Z</time></trkpt>
<trkpt lat="46.19532" lon="7.00621"><ele></ele><time>2017-6-21T4:28:4Z</time></trkpt>
<trkpt lat="46.19527" lon="7.00623"><ele></ele><time>2017-6-21T4:28:7Z</time></trkpt>
<trkpt lat="46.19523" lon="7.00626"><ele></ele><time>2017-6-21T4:28:10Z</time></trkpt>
<trkpt lat="46.19518" lon="7.00628"><ele></ele><time>2017-6-21T4:28:13Z</time></trkpt>
<trkpt lat="46.19514" lon="7.00631"><ele></ele><time>2017-6-21T4:28:16Z</time></trkpt>
<trkpt lat="46.1951" lon="7.00633"><ele></ele><time>2017-6-21T4:28:19Z</time></trkpt>
<trkpt lat="46.19505" lon="7.00636"><ele></ele><time>2017-6-21T4:28:22Z</time></trkpt>
<trkpt lat="46.19501" lon="7.00639"><ele></ele><time>2017-6-21T4:28:25Z</time></trkpt>
<trkpt lat="46.19497" lon="7.00641"><ele></ele><time>2017-6-21T4:28:28Z</time></trkpt>
<trkpt lat="46.19492" lon="7.00644"><ele></ele><time>2017-6-21T4:28:31Z</time></trkpt>
<trkpt lat="46.1949" lon="7.00645"><ele></ele><time>2017-6-21T4:28:34Z</time></trkpt>
<trkpt lat="46.19488" lon="7.00647"><ele></ele><time>2017-6-21T4:28:37Z</time></trkpt>
<trkpt lat="46.19483" lon="7.00649"><ele></ele><time>2017-6-21T4:28:40Z</time></trkpt>
<trkpt lat="46.19479" lon="7.00652"><ele></ele><time>2017-6-21T4:28:43Z</time></trkpt>
<trkpt lat="46.19475" lon="7.00655"><ele></ele><time>2017-6-21T4:28:46Z</time></trkpt>
<trkpt lat="46.1947" lon="7.00658"><ele></ele><time>2017-6-21T4:28:49Z</time></trkpt>
<trkpt lat="46.19468" lon="7.00659"><ele></ele><time>2017-6-21T4:28:52Z</time></trkpt>
<trkpt lat="46.19466" lon="7.0066"><ele></ele><time>2017-6-21T4:28:55Z</time></trkpt>
<trkpt lat="46.19463" lon="7.00662"><ele></ele><time>2017-6-21T4:28:58Z</time></trkpt>
<trkpt lat="46.19459" lon="7.00663"><ele></ele><time>2017-6-21T4:29:1Z</time></trkpt>
<trkpt lat="46.19455" lon="7.00665"><ele></ele><time>2017-6-21T4:29:4Z</time></trkpt>
<trkpt lat="46.19451" lon="7.00667"><ele></ele><time>2017-6-21T4:29:7Z</time></trkpt>
<trkpt lat="46.19447" lon="7.00669"><ele></ele><time>2017-6-21T4:29:10Z</time></trkpt>
<trkpt lat="46.19443" lon="7.00671"><ele></ele><time>2017-6-21T4:29:13Z</time></trkpt>
<trkpt lat="46.19441" lon="7.00672"><ele></ele><time>2017-6-21T4:29:16Z</time></trkpt>
<trkpt lat="46.1944" lon="7.00672"><ele></ele><time>2017-6-21T4:29:19Z</time></trkpt>
<trkpt lat="46.19436" lon="7.00674"><ele></ele><time>2017-6-21T4:29:22Z</time></trkpt>
<trkpt lat="46.19432" lon="7.00676"><ele></ele><time>2017-6-21T4:29:25Z</time></trkpt>
<trkpt lat="46.19428" lon="7.00678"><ele></ele><time>2017-6-21T4:29:28Z</time></trkpt>
<trkpt lat="46.19424" lon="7.0068"><ele></ele><time>2017-6-21T4:29:31Z</time></trkpt>
<trkpt lat="46.19421" lon="7.00682"><ele></ele><time>2017-6-21T4:29:34Z</time></trkpt>
<trkpt lat="46.19417" lon="7.00684"><ele></ele><time>2017-6-21T4:29:37Z</time></trkpt>
<trkpt lat="46.19413" lon="7.00686"><ele></ele><time>2017-6-21T4:29:40Z</time></trkpt>
<trkpt lat="46.1941" lon="7.00688"><ele></ele><time>2017-6-21T4:29:43Z</time></trkpt>
<trkpt lat="46.19406" lon="7.0069"><ele></ele><time>2017-6-21T4:29:46Z</time></trkpt>
<trkpt lat="46.19403" lon="7.00692"><ele></ele><time>2017-6-21T4:29:49Z</time></trkpt>
<trkpt lat="46.19401" lon="7.00693"><ele></ele><time>2017-6-21T4:29:52Z</time></trkpt>
<trkpt lat="46.19399" lon="7.00693"><ele></ele><time>2017-6-21T4:29:55Z</time></trkpt>
<trkpt lat="46.19396" lon="7.00695"><ele></ele><time>2017-6-21T4:29:58Z</time></trkpt>
<trkpt lat="46.19392" lon="7.00697"><ele></ele><time>2017-6-21T4:30:1Z</time></trkpt>
<trkpt lat="46.19388" lon="7.00699"><ele></ele><time>2017-6-21T4:30:4Z</time></trkpt>
<trkpt lat="46.19385" lon="7.00701"><ele></ele><time>2017-6-21T4:30:7Z</time></trkpt>
<trkpt lat="46.19381" lon="7.00703"><ele></ele><time>2017-6-21T4:30:10Z</time></trkpt>
<trkpt lat="46.19378" lon="7.00706"><ele></ele><time>2017-6-21T4:30:13Z</time></trkpt>
<trkpt lat="46.19375" lon="7.0071"><ele></ele><time>2017-6-21T4:30:16Z</time></trkpt>
<trkpt lat="46.19371" lon="7.00713"><ele></ele><time>2017-6-21T4:30:19Z</time></trkpt>
<trkpt lat="46.19368" lon="7.00716"><ele></ele><time>2017-6-21T4:30:22Z</time></trkpt>
<trkpt lat="46.19364" lon="7.00719"><ele></ele><time>2017-6-21T4:30:25Z</time></trkpt>
<trkpt lat="46.19361" lon="7.00722"><ele></ele><time>2017-6-21T4:30:28Z</time></trkpt>
<trkpt lat="46.19357" lon="7.00725"><ele></ele><time>2017-6-21T4:30:31Z</time></trkpt>
<trkpt lat="46.19354" lon="7.00728"><ele></ele><time>2017-6-21T4:30:34Z</time></trkpt>
<trkpt lat="46.19351" lon="7.00731"><ele></ele><time>2017-6-21T4:30:37Z</time></trkpt>
<trkpt lat="46.19347" lon="7.00734"><ele></ele><time>2017-6-21T4:30:40Z</time></trkpt>
<trkpt lat="46.19344" lon="7.00737"><ele></ele><time>2017-6-21T4:30:43Z</time></trkpt>
<trkpt lat="46.19342" lon="7.00739"><ele></ele><time>2017-6-21T4:30:46Z</time></trkpt>
<trkpt lat="46.19341" lon="7.0074"><ele></ele><time>2017-6-21T4:30:49Z</time></trkpt>
<trkpt lat="46.19338" lon="7.00744"><ele></ele><time>2017-6-21T4:30:52Z</time></trkpt>
<trkpt lat="46.19336" lon="7.00748"><ele></ele><time>2017-6-21T4:30:55Z</time></trkpt>
<trkpt lat="46.19333" lon="7.00752"><ele></ele><time>2017-6-21T4:30:58Z</time></trkpt>
<trkpt lat="46.1933" lon="7.00756"><ele></ele><time>2017-6-21T4:31:1Z</time></trkpt>
<trkpt lat="46.19328" lon="7.0076"><ele></ele><time>2017-6-21T4:31:4Z</time></trkpt>
<trkpt lat="46.19325" lon="7.00763"><ele></ele><time>2017-6-21T4:31:7Z</time></trkpt>
<trkpt lat="46.19322" lon="7.00767"><ele></ele><time>2017-6-21T4:31:10Z</time></trkpt>
<trkpt lat="46.1932" lon="7.00771"><ele></ele><time>2017-6-21T4:31:13Z</time></trkpt>
<trkpt lat="46.19317" lon="7.00775"><ele></ele><time>2017-6-21T4:31:16Z</time></trkpt>
<trkpt lat="46.19315" lon="7.00779"><ele></ele><time>2017-6-21T4:31:19Z</time></trkpt>
<trkpt lat="46.19312" lon="7.00783"><ele></ele><time>2017-6-21T4:31:22Z</time></trkpt>
<trkpt lat="46.19309" lon="7.00786"><ele></ele><time>2017-6-21T4:31:25Z</time></trkpt>
<trkpt lat="46.19307" lon="7.0079"><ele></ele><time>2017-6-21T4:31:28Z</time></trkpt>
<trkpt lat="46.19304" lon="7.00794"><ele></ele><time>2017-6-21T4:31:31Z</time></trkpt>
<trkpt lat="46.19301" lon="7.00798"><ele></ele><time>2017-6-21T4:31:34Z</time></trkpt>
<trkpt lat="46.19298" lon="7.00802"><ele></ele><time>2017-6-21T4:31:37Z</time></trkpt>
<trkpt lat="46.19297" lon="7.00804"><ele></ele><time>2017-6-21T4:31:40Z</time></trkpt>
<trkpt lat="46.19296" lon="7.00805"><ele></ele><time>2017-6-21T4:31:43Z</time></trkpt>
<trkpt lat="46.19293" lon="7.00809"><ele></ele><time>2017-6-21T4:31:46Z</time></trkpt>
<trkpt lat="46.1929" lon="7.00813"><ele></ele><time>2017-6-21T4:31:49Z</time></trkpt>
<trkpt lat="46.19287" lon="7.00817"><ele></ele><time>2017-6-21T4:31:52Z</time></trkpt>
<trkpt lat="46.19285" lon="7.00821"><ele></ele><time>2017-6-21T4:31:55Z</time></trkpt>
<trkpt lat="46.19282" lon="7.00824"><ele></ele><time>2017-6-21T4:31:58Z</time></trkpt>
<trkpt lat="46.19279" lon="7.00828"><ele></ele><time>2017-6-21T4:32:1Z</time></trkpt>
<trkpt lat="46.19276" lon="7.00832"><ele></ele><time>2017-6-21T4:32:4Z</time></trkpt>
<trkpt lat="46.19274" lon="7.00836"><ele></ele><time>2017-6-21T4:32:7Z</time></trkpt>
<trkpt lat="46.19271" lon="7.0084"><ele></ele><time>2017-6-21T4:32:10Z</time></trkpt>
<trkpt lat="46.19269" lon="7.00844"><ele></ele><time>2017-6-21T4:32:13Z</time></trkpt>
<trkpt lat="46.19267" lon="7.00846"><ele></ele><time>2017-6-21T4:32:16Z</time></trkpt>
<trkpt lat="46.19266" lon="7.00848"><ele></ele><time>2017-6-21T4:32:19Z</time></trkpt>
<trkpt lat="46.19263" lon="7.00852"><ele></ele><time>2017-6-21T4:32:22Z</time></trkpt>
<trkpt lat="46.19261" lon="7.00856"><ele></ele><time>2017-6-21T4:32:25Z</time></trkpt>
<trkpt lat="46.19258" lon="7.0086"><ele></ele><time>2017-6-21T4:32:28Z</time></trkpt>
<trkpt lat="46.19255" lon="7.00864"><ele></ele><time>2017-6-21T4:32:31Z</time></trkpt>
<trkpt lat="46.19253" lon="7.00868"><ele></ele><time>2017-6-21T4:32:34Z</time></trkpt>
<trkpt lat="46.1925" lon="7.00873"><ele></ele><time>2017-6-21T4:32:37Z</time></trkpt>
<trkpt lat="46.19248" lon="7.00877"><ele></ele><time>2017-6-21T4:32:40Z</time></trkpt>
<trkpt lat="46.19246" lon="7.00879"><ele></ele><time>2017-6-21T4:32:43Z</time></trkpt>
<trkpt lat="46.19245" lon="7.00881"><ele></ele><time>2017-6-21T4:32:46Z</time></trkpt>
<trkpt lat="46.19244" lon="7.00886"><ele></ele><time>2017-6-21T4:32:49Z</time></trkpt>
<trkpt lat="46.19243" lon="7.00891"><ele></ele><time>2017-6-21T4:32:52Z</time></trkpt>
<trkpt lat="46.19242" lon="7.00896"><ele></ele><time>2017-6-21T4:32:55Z</time></trkpt>
<trkpt lat="46.19241" lon="7.009"><ele></ele><time>2017-6-21T4:32:58Z</time></trkpt>
<trkpt lat="46.1924" lon="7.00905"><ele></ele><time>2017-6-21T4:33:1Z</time></trkpt>
<trkpt lat="46.19239" lon="7.0091"><ele></ele><time>2017-6-21T4:33:4Z</time></trkpt>
<trkpt lat="46.19238" lon="7.00915"><ele></ele><time>2017-6-21T4:33:7Z</time></trkpt>
<trkpt lat="46.19238" lon="7.0092"><ele></ele><time>2017-6-21T4:33:10Z</time></trkpt>
<trkpt lat="46.19237" lon="7.00925"><ele></ele><time>2017-6-21T4:33:13Z</time></trkpt>
<trkpt lat="46.19236" lon="7.0093"><ele></ele><time>2017-6-21T4:33:16Z</time></trkpt>
<trkpt lat="46.19235" lon="7.00933"><ele></ele><time>2017-6-21T4:33:19Z</time></trkpt>
<trkpt lat="46.19235" lon="7.00935"><ele></ele><time>2017-6-21T4:33:22Z</time></trkpt>
<trkpt lat="46.19234" lon="7.0094"><ele></ele><time>2017-6-21T4:33:25Z</time></trkpt>
<trkpt lat="46.19233" lon="7.00945"><ele></ele><time>2017-6-21T4:33:28Z</time></trkpt>
<trkpt lat="46.19232" lon="7.0095"><ele></ele><time>2017-6-21T4:33:31Z</time></trkpt>
<trkpt lat="46.19232" lon="7.00955"><ele></ele><time>2017-6-21T4:33:34Z</time></trkpt>
<trkpt lat="46.19231" lon="7.0096"><ele></ele><time>2017-6-21T4:33:37Z</time></trkpt>
<trkpt lat="46.1923" lon="7.00965"><ele></ele><time>2017-6-21T4:33:40Z</time></trkpt>
<trkpt lat="46.1923" lon="7.0097"><ele></ele><time>2017-6-21T4:33:43Z</time></trkpt>
<trkpt lat="46.19229" lon="7.00975"><ele></ele><time>2017-6-21T4:33:46Z</time></trkpt>
<trkpt lat="46.19229" lon="7.0098"><ele></ele><time>2017-6-21T4:33:49Z</time></trkpt>
<trkpt lat="46.19228" lon="7.00984"><ele></ele><time>2017-6-21T4:33:52Z</time></trkpt>
<trkpt lat="46.19227" lon="7.00989"><ele></ele><time>2017-6-21T4:33:55Z</time></trkpt>
<trkpt lat="46.19227" lon="7.00994"><ele></ele><time>2017-6-21T4:33:58Z</time></trkpt>
<trkpt lat="46.19226" lon="7.00999"><ele></ele><time>2017-6-21T4:34:1Z</time></trkpt>
<trkpt lat="46.19226" lon="7.01004"><ele></ele><time>2017-6-21T4:34:4Z</time></trkpt>
<trkpt lat="46.19225" lon="7.01009"><ele></ele><time>2017-6-21T4:34:7Z</time></trkpt>
<trkpt lat="46.19223" lon="7.01012"><ele></ele><time>2017-6-21T4:34:10Z</time></trkpt>
<trkpt lat="46.19222" lon="7.01014"><ele></ele><time>2017-6-21T4:34:13Z</time></trkpt>
<trkpt lat="46.19221" lon="7.01015"><ele></ele><time>2017-6-21T4:34:16Z</time></trkpt>
<trkpt lat="46.19219" lon="7.01018"><ele></ele><time>2017-6-21T4:34:19Z</time></trkpt>
<trkpt lat="46.19217" lon="7.01021"><ele></ele><time>2017-6-21T4:34:22Z</time></trkpt>
<trkpt lat="46.19215" lon="7.01025"><ele></ele><time>2017-6-21T4:34:25Z</time></trkpt>
<trkpt lat="46.19214" lon="7.01028"><ele></ele><time>2017-6-21T4:34:28Z</time></trkpt>
<trkpt lat="46.19212" lon="7.01031"><ele></ele><time>2017-6-21T4:34:31Z</time></trkpt>
<trkpt lat="46.1921" lon="7.01034"><ele></ele><time>2017-6-21T4:34:34Z</time></trkpt>
<trkpt lat="46.19208" lon="7.01037"><ele></ele><time>2017-6-21T4:34:37Z</time></trkpt>
<trkpt lat="46.19206" lon="7.0104"><ele></ele><time>2017-6-21T4:34:40Z</time></trkpt>
<trkpt lat="46.19204" lon="7.01043"><ele></ele><time>2017-6-21T4:34:43Z</time></trkpt>
<trkpt lat="46.19202" lon="7.01047"><ele></ele><time>2017-6-21T4:34:46Z</time></trkpt>
<trkpt lat="46.192" lon="7.0105"><ele></ele><time>2017-6-21T4:34:49Z</time></trkpt>
<trkpt lat="46.19199" lon="7.01053"><ele></ele><time>2017-6-21T4:34:52Z</time></trkpt>
<trkpt lat="46.19197" lon="7.01056"><ele></ele><time>2017-6-21T4:34:55Z</time></trkpt>
<trkpt lat="46.19195" lon="7.01059"><ele></ele><time>2017-6-21T4:34:58Z</time></trkpt>
<trkpt lat="46.19191" lon="7.0106"><ele></ele><time>2017-6-21T4:35:1Z</time></trkpt>
<trkpt lat="46.19188" lon="7.0106"><ele></ele><time>2017-6-21T4:35:4Z</time></trkpt>
<trkpt lat="46.19185" lon="7.01061"><ele></ele><time>2017-6-21T4:35:7Z</time></trkpt>
<trkpt lat="46.19182" lon="7.01062"><ele></ele><time>2017-6-21T4:35:10Z</time></trkpt>
<trkpt lat="46.19179" lon="7.01063"><ele></ele><time>2017-6-21T4:35:13Z</time></trkpt>
<trkpt lat="46.19175" lon="7.01064"><ele></ele><time>2017-6-21T4:35:16Z</time></trkpt>
<trkpt lat="46.19172" lon="7.01065"><ele></ele><time>2017-6-21T4:35:19Z</time></trkpt>
<trkpt lat="46.19169" lon="7.01066"><ele></ele><time>2017-6-21T4:35:22Z</time></trkpt>
<trkpt lat="46.19166" lon="7.01066"><ele></ele><time>2017-6-21T4:35:25Z</time></trkpt>
<trkpt lat="46.19162" lon="7.01067"><ele></ele><time>2017-6-21T4:35:28Z</time></trkpt>
<trkpt lat="46.19159" lon="7.01068"><ele></ele><time>2017-6-21T4:35:31Z</time></trkpt>
<trkpt lat="46.19158" lon="7.01069"><ele></ele><time>2017-6-21T4:35:34Z</time></trkpt>
<trkpt lat="46.19156" lon="7.01069"><ele></ele><time>2017-6-21T4:35:37Z</time></trkpt>
<trkpt lat="46.19153" lon="7.0107"><ele></ele><time>2017-6-21T4:35:40Z</time></trkpt>
<trkpt lat="46.19149" lon="7.01071"><ele></ele><time>2017-6-21T4:35:43Z</time></trkpt>
<trkpt lat="46.19146" lon="7.01071"><ele></ele><time>2017-6-21T4:35:46Z</time></trkpt>
<trkpt lat="46.19143" lon="7.01072"><ele></ele><time>2017-6-21T4:35:49Z</time></trkpt>
<trkpt lat="46.19139" lon="7.01073"><ele></ele><time>2017-6-21T4:35:52Z</time></trkpt>
<trkpt lat="46.19136" lon="7.01073"><ele></ele><time>2017-6-21T4:35:55Z</time></trkpt>
<trkpt lat="46.19133" lon="7.01074"><ele></ele><time>2017-6-21T4:35:58Z</time></trkpt>
<trkpt lat="46.19129" lon="7.01075"><ele></ele><time>2017-6-21T4:36:1Z</time></trkpt>
<trkpt lat="46.19126" lon="7.01075"><ele></ele><time>2017-6-21T4:36:4Z</time></trkpt>
<trkpt lat="46.19123" lon="7.01076"><ele></ele><time>2017-6-21T4:36:7Z</time></trkpt>
<trkpt lat="46.19119" lon="7.01077"><ele></ele><time>2017-6-21T4:36:10Z</time></trkpt>
<trkpt lat="46.19116" lon="7.01077"><ele></ele><time>2017-6-21T4:36:13Z</time></trkpt>
<trkpt lat="46.19113" lon="7.01078"><ele></ele><time>2017-6-21T4:36:16Z</time></trkpt>
<trkpt lat="46.19109" lon="7.01079"><ele></ele><time>2017-6-21T4:36:19Z</time></trkpt>
<trkpt lat="46.19106" lon="7.01079"><ele></ele><time>2017-6-21T4:36:22Z</time></trkpt>
<trkpt lat="46.19104" lon="7.0108"><ele></ele><time>2017-6-21T4:36:25Z</time></trkpt>
<trkpt lat="46.19103" lon="7.0108"><ele></ele><time>2017-6-21T4:36:28Z</time></trkpt>
<trkpt lat="46.19099" lon="7.01081"><ele></ele><time>2017-6-21T4:36:31Z</time></trkpt>
<trkpt lat="46.19096" lon="7.01082"><ele></ele><time>2017-6-21T4:36:34Z</time></trkpt>
<trkpt lat="46.19094" lon="7.01082"><ele></ele><time>2017-6-21T4:36:37Z</time></trkpt>
<trkpt lat="46.19093" lon="7.01082"><ele></ele><time>2017-6-21T4:36:40Z</time></trkpt>
<trkpt lat="46.19089" lon="7.01083"><ele></ele><time>2017-6-21T4:36:43Z</time></trkpt>
<trkpt lat="46.19086" lon="7.01084"><ele></ele><time>2017-6-21T4:36:46Z</time></trkpt>
<trkpt lat="46.19083" lon="7.01084"><ele></ele><time>2017-6-21T4:36:49Z</time></trkpt>
<trkpt lat="46.19079" lon="7.01085"><ele></ele><time>2017-6-21T4:36:52Z</time></trkpt>
<trkpt lat="46.19076" lon="7.01086"><ele></ele><time>2017-6-21T4:36:55Z</time></trkpt>
<trkpt lat="46.19073" lon="7.01086"><ele></ele><time>2017-6-21T4:36:58Z</time></trkpt>
<trkpt lat="46.19069" lon="7.01087"><ele></ele><time>2017-6-21T4:37:1Z</time></trkpt>
<trkpt lat="46.19066" lon="7.01088"><ele></ele><time>2017-6-21T4:37:4Z</time></trkpt>
<trkpt lat="46.19063" lon="7.01089"><ele></ele><time>2017-6-21T4:37:7Z</time></trkpt>
<trkpt lat="46.19059" lon="7.01089"><ele></ele><time>2017-6-21T4:37:10Z</time></trkpt>
<trkpt lat="46.19057" lon="7.0109"><ele></ele><time>2017-6-21T4:37:13Z</time></trkpt>
<trkpt lat="46.19054" lon="7.01091"><ele></ele><time>2017-6-21T4:37:16Z</time></trkpt>
<trkpt lat="46.19051" lon="7.01092"><ele></ele><time>2017-6-21T4:37:19Z</time></trkpt>
<trkpt lat="46.19048" lon="7.01092"><ele></ele><time>2017-6-21T4:37:22Z</time></trkpt>
<trkpt lat="46.19045" lon="7.01093"><ele></ele><time>2017-6-21T4:37:25Z</time></trkpt>
<trkpt lat="46.19042" lon="7.01094"><ele></ele><time>2017-6-21T4:37:28Z</time></trkpt>
<trkpt lat="46.1904" lon="7.01095"><ele></ele><time>2017-6-21T4:37:31Z</time></trkpt>
<trkpt lat="46.19037" lon="7.01096"><ele></ele><time>2017-6-21T4:37:34Z</time></trkpt>
<trkpt lat="46.19035" lon="7.01096"><ele></ele><time>2017-6-21T4:37:37Z</time></trkpt>
<trkpt lat="46.19034" lon="7.01096"><ele></ele><time>2017-6-21T4:37:40Z</time></trkpt>
<trkpt lat="46.19031" lon="7.01097"><ele></ele><time>2017-6-21T4:37:43Z</time></trkpt>
<trkpt lat="46.19028" lon="7.01098"><ele></ele><time>2017-6-21T4:37:46Z</time></trkpt>
<trkpt lat="46.19025" lon="7.01099"><ele></ele><time>2017-6-21T4:37:49Z</time></trkpt>
<trkpt lat="46.19023" lon="7.011"><ele></ele><time>2017-6-21T4:37:52Z</time></trkpt>
<trkpt lat="46.1902" lon="7.011"><ele></ele><time>2017-6-21T4:37:55Z</time></trkpt>
<trkpt lat="46.19017" lon="7.01101"><ele></ele><time>2017-6-21T4:37:58Z</time></trkpt>
<trkpt lat="46.19014" lon="7.01102"><ele></ele><time>2017-6-21T4:38:1Z</time></trkpt>
<trkpt lat="46.19011" lon="7.01103"><ele></ele><time>2017-6-21T4:38:4Z</time></trkpt>
<trkpt lat="46.19008" lon="7.01104"><ele></ele><time>2017-6-21T4:38:7Z</time></trkpt>
<trkpt lat="46.19006" lon="7.01105"><ele></ele><time>2017-6-21T4:38:10Z</time></trkpt>
<trkpt lat="46.19004" lon="7.01106"><ele></ele><time>2017-6-21T4:38:13Z</time></trkpt>
<trkpt lat="46.19003" lon="7.01106"><ele></ele><time>2017-6-21T4:38:16Z</time></trkpt>
<trkpt lat="46.19" lon="7.01107"><ele></ele><time>2017-6-21T4:38:19Z</time></trkpt>
<trkpt lat="46.18997" lon="7.01108"><ele></ele><time>2017-6-21T4:38:22Z</time></trkpt>
<trkpt lat="46.18994" lon="7.01109"><ele></ele><time>2017-6-21T4:38:25Z</time></trkpt>
<trkpt lat="46.18991" lon="7.0111"><ele></ele><time>2017-6-21T4:38:28Z</time></trkpt>
<trkpt lat="46.18988" lon="7.01111"><ele></ele><time>2017-6-21T4:38:31Z</time></trkpt>
<trkpt lat="46.18986" lon="7.01112"><ele></ele><time>2017-6-21T4:38:34Z</time></trkpt>
<trkpt lat="46.18983" lon="7.01113"><ele></ele><time>2017-6-21T4:38:37Z</time></trkpt>
<trkpt lat="46.1898" lon="7.01114"><ele></ele><time>2017-6-21T4:38:40Z</time></trkpt>
<trkpt lat="46.18977" lon="7.01115"><ele></ele><time>2017-6-21T4:38:43Z</time></trkpt>
<trkpt lat="46.18974" lon="7.01116"><ele></ele><time>2017-6-21T4:38:46Z</time></trkpt>
<trkpt lat="46.18971" lon="7.01117"><ele></ele><time>2017-6-21T4:38:49Z</time></trkpt>
<trkpt lat="46.1897" lon="7.01118"><ele></ele><time>2017-6-21T4:38:52Z</time></trkpt>
<trkpt lat="46.18968" lon="7.01118"><ele></ele><time>2017-6-21T4:38:55Z</time></trkpt>
<trkpt lat="46.18965" lon="7.01118"><ele></ele><time>2017-6-21T4:38:58Z</time></trkpt>
<trkpt lat="46.18962" lon="7.01119"><ele></ele><time>2017-6-21T4:39:1Z</time></trkpt>
<trkpt lat="46.18959" lon="7.0112"><ele></ele><time>2017-6-21T4:39:4Z</time></trkpt>
<trkpt lat="46.18957" lon="7.0112"><ele></ele><time>2017-6-21T4:39:7Z</time></trkpt>
<trkpt lat="46.18954" lon="7.01121"><ele></ele><time>2017-6-21T4:39:10Z</time></trkpt>
<trkpt lat="46.18951" lon="7.01121"><ele></ele><time>2017-6-21T4:39:13Z</time></trkpt>
<trkpt lat="46.18948" lon="7.01122"><ele></ele><time>2017-6-21T4:39:16Z</time></trkpt>
<trkpt lat="46.18946" lon="7.01122"><ele></ele><time>2017-6-21T4:39:19Z</time></trkpt>
<trkpt lat="46.18945" lon="7.01122"><ele></ele><time>2017-6-21T4:39:22Z</time></trkpt>
<trkpt lat="46.18942" lon="7.01123"><ele></ele><time>2017-6-21T4:39:25Z</time></trkpt>
<trkpt lat="46.18939" lon="7.01123"><ele></ele><time>2017-6-21T4:39:28Z</time></trkpt>
<trkpt lat="46.18936" lon="7.01124"><ele></ele><time>2017-6-21T4:39:31Z</time></trkpt>
<trkpt lat="46.18933" lon="7.01124"><ele></ele><time>2017-6-21T4:39:34Z</time></trkpt>
<trkpt lat="46.1893" lon="7.01125"><ele></ele><time>2017-6-21T4:39:37Z</time></trkpt>
<trkpt lat="46.18927" lon="7.01125"><ele></ele><time>2017-6-21T4:39:40Z</time></trkpt>
<trkpt lat="46.18924" lon="7.01126"><ele></ele><time>2017-6-21T4:39:43Z</time></trkpt>
<trkpt lat="46.18921" lon="7.01126"><ele></ele><time>2017-6-21T4:39:46Z</time></trkpt>
<trkpt lat="46.18918" lon="7.01126"><ele></ele><time>2017-6-21T4:39:49Z</time></trkpt>
<trkpt lat="46.18915" lon="7.01127"><ele></ele><time>2017-6-21T4:39:52Z</time></trkpt>
<trkpt lat="46.18912" lon="7.01127"><ele></ele><time>2017-6-21T4:39:55Z</time></trkpt>
<trkpt lat="46.18909" lon="7.01127"><ele></ele><time>2017-6-21T4:39:58Z</time></trkpt>
<trkpt lat="46.18906" lon="7.01127"><ele></ele><time>2017-6-21T4:40:1Z</time></trkpt>
<trkpt lat="46.18903" lon="7.01127"><ele></ele><time>2017-6-21T4:40:4Z</time></trkpt>
<trkpt lat="46.18899" lon="7.01128"><ele></ele><time>2017-6-21T4:40:7Z</time></trkpt>
<trkpt lat="46.18896" lon="7.01128"><ele></ele><time>2017-6-21T4:40:10Z</time></trkpt>
<trkpt lat="46.18893" lon="7.01128"><ele></ele><time>2017-6-21T4:40:13Z</time></trkpt>
<trkpt lat="46.1889" lon="7.01128"><ele></ele><time>2017-6-21T4:40:16Z</time></trkpt>
<trkpt lat="46.18887" lon="7.01129"><ele></ele><time>2017-6-21T4:40:19Z</time></trkpt>
<trkpt lat="46.18884" lon="7.01129"><ele></ele><time>2017-6-21T4:40:22Z</time></trkpt>
<trkpt lat="46.18881" lon="7.01129"><ele></ele><time>2017-6-21T4:40:25Z</time></trkpt>
<trkpt lat="46.1888" lon="7.01129"><ele></ele><time>2017-6-21T4:40:28Z</time></trkpt>
<trkpt lat="46.18878" lon="7.01129"><ele></ele><time>2017-6-21T4:40:31Z</time></trkpt>
<trkpt lat="46.18875" lon="7.0113"><ele></ele><time>2017-6-21T4:40:34Z</time></trkpt>
<trkpt lat="46.18872" lon="7.01131"><ele></ele><time>2017-6-21T4:40:37Z</time></trkpt>
<trkpt lat="46.18869" lon="7.01131"><ele></ele><time>2017-6-21T4:40:40Z</time></trkpt>
<trkpt lat="46.18866" lon="7.01132"><ele></ele><time>2017-6-21T4:40:43Z</time></trkpt>
<trkpt lat="46.18863" lon="7.01132"><ele></ele><time>2017-6-21T4:40:46Z</time></trkpt>
<trkpt lat="46.1886" lon="7.01133"><ele></ele><time>2017-6-21T4:40:49Z</time></trkpt>
<trkpt lat="46.18857" lon="7.01134"><ele></ele><time>2017-6-21T4:40:52Z</time></trkpt>
<trkpt lat="46.18854" lon="7.01134"><ele></ele><time>2017-6-21T4:40:55Z</time></trkpt>
<trkpt lat="46.18851" lon="7.01135"><ele></ele><time>2017-6-21T4:40:58Z</time></trkpt>
<trkpt lat="46.18848" lon="7.01136"><ele></ele><time>2017-6-21T4:41:1Z</time></trkpt>
<trkpt lat="46.18845" lon="7.01136"><ele></ele><time>2017-6-21T4:41:4Z</time></trkpt>
<trkpt lat="46.18842" lon="7.01137"><ele></ele><time>2017-6-21T4:41:7Z</time></trkpt>
<trkpt lat="46.18839" lon="7.01137"><ele></ele><time>2017-6-21T4:41:10Z</time></trkpt>
<trkpt lat="46.18836" lon="7.01138"><ele></ele><time>2017-6-21T4:41:13Z</time></trkpt>
<trkpt lat="46.18833" lon="7.01139"><ele></ele><time>2017-6-21T4:41:16Z</time></trkpt>
<trkpt lat="46.18829" lon="7.01141"><ele></ele><time>2017-6-21T4:41:19Z</time></trkpt>
<trkpt lat="46.18826" lon="7.01143"><ele></ele><time>2017-6-21T4:41:22Z</time></trkpt>
<trkpt lat="46.18823" lon="7.01145"><ele></ele><time>2017-6-21T4:41:25Z</time></trkpt>
<trkpt lat="46.1882" lon="7.01147"><ele></ele><time>2017-6-21T4:41:28Z</time></trkpt>
<trkpt lat="46.18817" lon="7.0115"><ele></ele><time>2017-6-21T4:41:31Z</time></trkpt>
<trkpt lat="46.18814" lon="7.01152"><ele></ele><time>2017-6-21T4:41:34Z</time></trkpt>
<trkpt lat="46.18811" lon="7.01154"><ele></ele><time>2017-6-21T4:41:37Z</time></trkpt>
<trkpt lat="46.18807" lon="7.01156"><ele></ele><time>2017-6-21T4:41:40Z</time></trkpt>
<trkpt lat="46.18804" lon="7.01158"><ele></ele><time>2017-6-21T4:41:43Z</time></trkpt>
<trkpt lat="46.18801" lon="7.0116"><ele></ele><time>2017-6-21T4:41:46Z</time></trkpt>
<trkpt lat="46.18798" lon="7.01163"><ele></ele><time>2017-6-21T4:41:49Z</time></trkpt>
<trkpt lat="46.18795" lon="7.01165"><ele></ele><time>2017-6-21T4:41:52Z</time></trkpt>
<trkpt lat="46.18792" lon="7.01167"><ele></ele><time>2017-6-21T4:41:55Z</time></trkpt>
<trkpt lat="46.1879" lon="7.01171"><ele></ele><time>2017-6-21T4:41:58Z</time></trkpt>
<trkpt lat="46.1879" lon="7.01173"><ele></ele><time>2017-6-21T4:42:1Z</time></trkpt>
<trkpt lat="46.18789" lon="7.01175"><ele></ele><time>2017-6-21T4:42:4Z</time></trkpt>
<trkpt lat="46.18788" lon="7.01178"><ele></ele><time>2017-6-21T4:42:7Z</time></trkpt>
<trkpt lat="46.18786" lon="7.01182"><ele></ele><time>2017-6-21T4:42:10Z</time></trkpt>
<trkpt lat="46.18785" lon="7.01186"><ele></ele><time>2017-6-21T4:42:13Z</time></trkpt>
<trkpt lat="46.18783" lon="7.0119"><ele></ele><time>2017-6-21T4:42:16Z</time></trkpt>
<trkpt lat="46.18782" lon="7.01193"><ele></ele><time>2017-6-21T4:42:19Z</time></trkpt>
<trkpt lat="46.1878" lon="7.01197"><ele></ele><time>2017-6-21T4:42:22Z</time></trkpt>
<trkpt lat="46.18779" lon="7.01201"><ele></ele><time>2017-6-21T4:42:25Z</time></trkpt>
<trkpt lat="46.18777" lon="7.01205"><ele></ele><time>2017-6-21T4:42:28Z</time></trkpt>
<trkpt lat="46.18776" lon="7.01208"><ele></ele><time>2017-6-21T4:42:31Z</time></trkpt>
<trkpt lat="46.18774" lon="7.01212"><ele></ele><time>2017-6-21T4:42:34Z</time></trkpt>
<trkpt lat="46.18774" lon="7.01214"><ele></ele><time>2017-6-21T4:42:37Z</time></trkpt>
<trkpt lat="46.18773" lon="7.01216"><ele></ele><time>2017-6-21T4:42:40Z</time></trkpt>
<trkpt lat="46.18771" lon="7.0122"><ele></ele><time>2017-6-21T4:42:43Z</time></trkpt>
<trkpt lat="46.1877" lon="7.01223"><ele></ele><time>2017-6-21T4:42:46Z</time></trkpt>
<trkpt lat="46.18769" lon="7.01225"><ele></ele><time>2017-6-21T4:42:49Z</time></trkpt>
<trkpt lat="46.18768" lon="7.01227"><ele></ele><time>2017-6-21T4:42:52Z</time></trkpt>
<trkpt lat="46.18767" lon="7.01231"><ele></ele><time>2017-6-21T4:42:55Z</time></trkpt>
<trkpt lat="46.18765" lon="7.01234"><ele></ele><time>2017-6-21T4:42:58Z</time></trkpt>
<trkpt lat="46.18763" lon="7.01238"><ele></ele><time>2017-6-21T4:43:1Z</time></trkpt>
<trkpt lat="46.18761" lon="7.01241"><ele></ele><time>2017-6-21T4:43:4Z</time></trkpt>
<trkpt lat="46.1876" lon="7.01245"><ele></ele><time>2017-6-21T4:43:7Z</time></trkpt>
<trkpt lat="46.18758" lon="7.01249"><ele></ele><time>2017-6-21T4:43:10Z</time></trkpt>
<trkpt lat="46.18756" lon="7.01252"><ele></ele><time>2017-6-21T4:43:13Z</time></trkpt>
<trkpt lat="46.18754" lon="7.01256"><ele></ele><time>2017-6-21T4:43:16Z</time></trkpt>
<trkpt lat="46.18753" lon="7.01259"><ele></ele><time>2017-6-21T4:43:19Z</time></trkpt>
<trkpt lat="46.18751" lon="7.01263"><ele></ele><time>2017-6-21T4:43:22Z</time></trkpt>
<trkpt lat="46.18749" lon="7.01267"><ele></ele><time>2017-6-21T4:43:25Z</time></trkpt>
<trkpt lat="46.18748" lon="7.0127"><ele></ele><time>2017-6-21T4:43:28Z</time></trkpt>
<trkpt lat="46.18746" lon="7.01274"><ele></ele><time>2017-6-21T4:43:31Z</time></trkpt>
<trkpt lat="46.18744" lon="7.01277"><ele></ele><time>2017-6-21T4:43:34Z</time></trkpt>
<trkpt lat="46.18743" lon="7.01279"><ele></ele><time>2017-6-21T4:43:37Z</time></trkpt>
<trkpt lat="46.18741" lon="7.01279"><ele></ele><time>2017-6-21T4:43:40Z</time></trkpt>
<trkpt lat="46.1874" lon="7.01279"><ele></ele><time>2017-6-21T4:43:43Z</time></trkpt>
<trkpt lat="46.18738" lon="7.01279"><ele></ele><time>2017-6-21T4:43:46Z</time></trkpt>
<trkpt lat="46.18735" lon="7.01279"><ele></ele><time>2017-6-21T4:43:49Z</time></trkpt>
<trkpt lat="46.18731" lon="7.01279"><ele></ele><time>2017-6-21T4:43:52Z</time></trkpt>
<trkpt lat="46.18728" lon="7.01279"><ele></ele><time>2017-6-21T4:43:55Z</time></trkpt>
<trkpt lat="46.18725" lon="7.0128"><ele></ele><time>2017-6-21T4:43:58Z</time></trkpt>
<trkpt lat="46.18721" lon="7.0128"><ele></ele><time>2017-6-21T4:44:1Z</time></trkpt>
<trkpt lat="46.18718" lon="7.0128"><ele></ele><time>2017-6-21T4:44:4Z</time></trkpt>
<trkpt lat="46.18715" lon="7.0128"><ele></ele><time>2017-6-21T4:44:7Z</time></trkpt>
<trkpt lat="46.18712" lon="7.0128"><ele></ele><time>2017-6-21T4:44:10Z</time></trkpt>
<trkpt lat="46.18708" lon="7.0128"><ele></ele><time>2017-6-21T4:44:13Z</time></trkpt>
<trkpt lat="46.18705" lon="7.01281"><ele></ele><time>2017-6-21T4:44:16Z</time></trkpt>
<trkpt lat="46.18702" lon="7.01281"><ele></ele><time>2017-6-21T4:44:19Z</time></trkpt>
<trkpt lat="46.18698" lon="7.01281"><ele></ele><time>2017-6-21T4:44:22Z</time></trkpt>
<trkpt lat="46.18697" lon="7.01281"><ele></ele><time>2017-6-21T4:44:25Z</time></trkpt>
<trkpt lat="46.18695" lon="7.0128"><ele></ele><time>2017-6-21T4:44:28Z</time></trkpt>
<trkpt lat="46.18692" lon="7.01279"><ele></ele><time>2017-6-21T4:44:31Z</time></trkpt>
<trkpt lat="46.18689" lon="7.01278"><ele></ele><time>2017-6-21T4:44:34Z</time></trkpt>
<trkpt lat="46.18686" lon="7.01277"><ele></ele><time>2017-6-21T4:44:37Z</time></trkpt>
<trkpt lat="46.18683" lon="7.01276"><ele></ele><time>2017-6-21T4:44:40Z</time></trkpt>
<trkpt lat="46.1868" lon="7.01275"><ele></ele><time>2017-6-21T4:44:43Z</time></trkpt>
<trkpt lat="46.18677" lon="7.01274"><ele></ele><time>2017-6-21T4:44:46Z</time></trkpt>
<trkpt lat="46.18674" lon="7.01273"><ele></ele><time>2017-6-21T4:44:49Z</time></trkpt>
<trkpt lat="46.18671" lon="7.01272"><ele></ele><time>2017-6-21T4:44:52Z</time></trkpt>
<trkpt lat="46.18668" lon="7.01271"><ele></ele><time>2017-6-21T4:44:55Z</time></trkpt>
<trkpt lat="46.18665" lon="7.0127"><ele></ele><time>2017-6-21T4:44:58Z</time></trkpt>
<trkpt lat="46.18662" lon="7.01269"><ele></ele><time>2017-6-21T4:45:1Z</time></trkpt>
<trkpt lat="46.18659" lon="7.01268"><ele></ele><time>2017-6-21T4:45:4Z</time></trkpt>
<trkpt lat="46.18656" lon="7.01267"><ele></ele><time>2017-6-21T4:45:7Z</time></trkpt>
<trkpt lat="46.18653" lon="7.01266"><ele></ele><time>2017-6-21T4:45:10Z</time></trkpt>
<trkpt lat="46.18651" lon="7.01265"><ele></ele><time>2017-6-21T4:45:13Z</time></trkpt>
<trkpt lat="46.18648" lon="7.01263"><ele></ele><time>2017-6-21T4:45:16Z</time></trkpt>
<trkpt lat="46.18646" lon="7.01262"><ele></ele><time>2017-6-21T4:45:19Z</time></trkpt>
<trkpt lat="46.18643" lon="7.01261"><ele></ele><time>2017-6-21T4:45:22Z</time></trkpt>
<trkpt lat="46.18641" lon="7.0126"><ele></ele><time>2017-6-21T4:45:25Z</time></trkpt>
<trkpt lat="46.18638" lon="7.01258"><ele></ele><time>2017-6-21T4:45:28Z</time></trkpt>
<trkpt lat="46.18636" lon="7.01257"><ele></ele><time>2017-6-21T4:45:31Z</time></trkpt>
<trkpt lat="46.18633" lon="7.01256"><ele></ele><time>2017-6-21T4:45:34Z</time></trkpt>
<trkpt lat="46.18631" lon="7.01254"><ele></ele><time>2017-6-21T4:45:37Z</time></trkpt>
<trkpt lat="46.18628" lon="7.01253"><ele></ele><time>2017-6-21T4:45:40Z</time></trkpt>
<trkpt lat="46.18626" lon="7.01252"><ele></ele><time>2017-6-21T4:45:43Z</time></trkpt>
<trkpt lat="46.18623" lon="7.01251"><ele></ele><time>2017-6-21T4:45:46Z</time></trkpt>
<trkpt lat="46.18621" lon="7.01249"><ele></ele><time>2017-6-21T4:45:49Z</time></trkpt>
<trkpt lat="46.18618" lon="7.01248"><ele></ele><time>2017-6-21T4:45:52Z</time></trkpt>
<trkpt lat="46.18616" lon="7.01247"><ele></ele><time>2017-6-21T4:45:55Z</time></trkpt>
<trkpt lat="46.18613" lon="7.01246"><ele></ele><time>2017-6-21T4:45:58Z</time></trkpt>
<trkpt lat="46.18611" lon="7.01244"><ele></ele><time>2017-6-21T4:46:1Z</time></trkpt>
<trkpt lat="46.18609" lon="7.01244"><ele></ele><time>2017-6-21T4:46:4Z</time></trkpt>
<trkpt lat="46.18608" lon="7.01243"><ele></ele><time>2017-6-21T4:46:7Z</time></trkpt>
<trkpt lat="46.18605" lon="7.01242"><ele></ele><time>2017-6-21T4:46:10Z</time></trkpt>
<trkpt lat="46.18602" lon="7.01241"><ele></ele><time>2017-6-21T4:46:13Z</time></trkpt>
<trkpt lat="46.18598" lon="7.01239"><ele></ele><time>2017-6-21T4:46:16Z</time></trkpt>
<trkpt lat="46.18595" lon="7.01238"><ele></ele><time>2017-6-21T4:46:19Z</time></trkpt>
<trkpt lat="46.18592" lon="7.01237"><ele></ele><time>2017-6-21T4:46:22Z</time></trkpt>
<trkpt lat="46.18589" lon="7.01236"><ele></ele><time>2017-6-21T4:46:25Z</time></trkpt>
<trkpt lat="46.18586" lon="7.01234"><ele></ele><time>2017-6-21T4:46:28Z</time></trkpt>
<trkpt lat="46.18582" lon="7.01233"><ele></ele><time>2017-6-21T4:46:31Z</time></trkpt>
<trkpt lat="46.18579" lon="7.01232"><ele></ele><time>2017-6-21T4:46:34Z</time></trkpt>
<trkpt lat="46.18578" lon="7.01231"><ele></ele><time>2017-6-21T4:46:37Z</time></trkpt>
<trkpt lat="46.18576" lon="7.01231"><ele></ele><time>2017-6-21T4:46:40Z</time></trkpt>
<trkpt lat="46.18573" lon="7.01229"><ele></ele><time>2017-6-21T4:46:43Z</time></trkpt>
<trkpt lat="46.1857" lon="7.01228"><ele></ele><time>2017-6-21T4:46:46Z</time></trkpt>
<trkpt lat="46.18566" lon="7.01227"><ele></ele><time>2017-6-21T4:46:49Z</time></trkpt>
<trkpt lat="46.18565" lon="7.01226"><ele></ele><time>2017-6-21T4:46:52Z</time></trkpt>
<trkpt lat="46.18564" lon="7.01225"><ele></ele><time>2017-6-21T4:46:55Z</time></trkpt>
<trkpt lat="46.18561" lon="7.01223"><ele></ele><time>2017-6-21T4:46:58Z</time></trkpt>
<trkpt lat="46.18558" lon="7.01221"><ele></ele><time>2017-6-21T4:47:1Z</time></trkpt>
<trkpt lat="46.18556" lon="7.01219"><ele></ele><time>2017-6-21T4:47:4Z</time></trkpt>
<trkpt lat="46.18553" lon="7.01217"><ele></ele><time>2017-6-21T4:47:7Z</time></trkpt>
<trkpt lat="46.1855" lon="7.01215"><ele></ele><time>2017-6-21T4:47:10Z</time></trkpt>
<trkpt lat="46.18548" lon="7.01213"><ele></ele><time>2017-6-21T4:47:13Z</time></trkpt>
<trkpt lat="46.18545" lon="7.01211"><ele></ele><time>2017-6-21T4:47:16Z</time></trkpt>
<trkpt lat="46.18542" lon="7.01209"><ele></ele><time>2017-6-21T4:47:19Z</time></trkpt>
<trkpt lat="46.1854" lon="7.01207"><ele></ele><time>2017-6-21T4:47:22Z</time></trkpt>
<trkpt lat="46.18537" lon="7.01206"><ele></ele><time>2017-6-21T4:47:25Z</time></trkpt>
<trkpt lat="46.18535" lon="7.01204"><ele></ele><time>2017-6-21T4:47:28Z</time></trkpt>
<trkpt lat="46.18532" lon="7.01202"><ele></ele><time>2017-6-21T4:47:31Z</time></trkpt>
<trkpt lat="46.18529" lon="7.012"><ele></ele><time>2017-6-21T4:47:34Z</time></trkpt>
<trkpt lat="46.18527" lon="7.01198"><ele></ele><time>2017-6-21T4:47:37Z</time></trkpt>
<trkpt lat="46.18524" lon="7.01196"><ele></ele><time>2017-6-21T4:47:40Z</time></trkpt>
<trkpt lat="46.18521" lon="7.01193"><ele></ele><time>2017-6-21T4:47:43Z</time></trkpt>
<trkpt lat="46.1852" lon="7.01192"><ele></ele><time>2017-6-21T4:47:46Z</time></trkpt>
<trkpt lat="46.18519" lon="7.0119"><ele></ele><time>2017-6-21T4:47:49Z</time></trkpt>
<trkpt lat="46.18516" lon="7.01188"><ele></ele><time>2017-6-21T4:47:52Z</time></trkpt>
<trkpt lat="46.18513" lon="7.01185"><ele></ele><time>2017-6-21T4:47:55Z</time></trkpt>
<trkpt lat="46.1851" lon="7.01182"><ele></ele><time>2017-6-21T4:47:58Z</time></trkpt>
<trkpt lat="46.18508" lon="7.0118"><ele></ele><time>2017-6-21T4:48:1Z</time></trkpt>
<trkpt lat="46.18505" lon="7.01177"><ele></ele><time>2017-6-21T4:48:4Z</time></trkpt>
<trkpt lat="46.18502" lon="7.01175"><ele></ele><time>2017-6-21T4:48:7Z</time></trkpt>
<trkpt lat="46.185" lon="7.01172"><ele></ele><time>2017-6-21T4:48:10Z</time></trkpt>
<trkpt lat="46.18497" lon="7.01169"><ele></ele><time>2017-6-21T4:48:13Z</time></trkpt>
<trkpt lat="46.18494" lon="7.01167"><ele></ele><time>2017-6-21T4:48:16Z</time></trkpt>
<trkpt lat="46.18491" lon="7.01164"><ele></ele><time>2017-6-21T4:48:19Z</time></trkpt>
<trkpt lat="46.18489" lon="7.01162"><ele></ele><time>2017-6-21T4:48:22Z</time></trkpt>
<trkpt lat="46.18486" lon="7.01159"><ele></ele><time>2017-6-21T4:48:25Z</time></trkpt>
<trkpt lat="46.18484" lon="7.01155"><ele></ele><time>2017-6-21T4:48:28Z</time></trkpt>
<trkpt lat="46.18482" lon="7.01152"><ele></ele><time>2017-6-21T4:48:31Z</time></trkpt>
<trkpt lat="46.1848" lon="7.01148"><ele></ele><time>2017-6-21T4:48:34Z</time></trkpt>
<trkpt lat="46.18478" lon="7.01145"><ele></ele><time>2017-6-21T4:48:37Z</time></trkpt>
<trkpt lat="46.18476" lon="7.01141"><ele></ele><time>2017-6-21T4:48:40Z</time></trkpt>
<trkpt lat="46.18474" lon="7.01137"><ele></ele><time>2017-6-21T4:48:43Z</time></trkpt>
<trkpt lat="46.18473" lon="7.01134"><ele></ele><time>2017-6-21T4:48:46Z</time></trkpt>
<trkpt lat="46.18471" lon="7.0113"><ele></ele><time>2017-6-21T4:48:49Z</time></trkpt>
<trkpt lat="46.18469" lon="7.01127"><ele></ele><time>2017-6-21T4:48:52Z</time></trkpt>
<trkpt lat="46.18467" lon="7.01123"><ele></ele><time>2017-6-21T4:48:55Z</time></trkpt>
<trkpt lat="46.18465" lon="7.0112"><ele></ele><time>2017-6-21T4:48:58Z</time></trkpt>
<trkpt lat="46.18463" lon="7.01116"><ele></ele><time>2017-6-21T4:49:1Z</time></trkpt>
<trkpt lat="46.18461" lon="7.01113"><ele></ele><time>2017-6-21T4:49:4Z</time></trkpt>
<trkpt lat="46.18459" lon="7.01109"><ele></ele><time>2017-6-21T4:49:7Z</time></trkpt>
<trkpt lat="46.18459" lon="7.01107"><ele></ele><time>2017-6-21T4:49:10Z</time></trkpt>
<trkpt lat="46.18459" lon="7.01106"><ele></ele><time>2017-6-21T4:49:13Z</time></trkpt>
<trkpt lat="46.18461" lon="7.01103"><ele></ele><time>2017-6-21T4:49:16Z</time></trkpt>
<trkpt lat="46.18462" lon="7.01099"><ele></ele><time>2017-6-21T4:49:19Z</time></trkpt>
<trkpt lat="46.18463" lon="7.01098"><ele></ele><time>2017-6-21T4:49:22Z</time></trkpt>
<trkpt lat="46.18463" lon="7.01096"><ele></ele><time>2017-6-21T4:49:25Z</time></trkpt>
<trkpt lat="46.18465" lon="7.01093"><ele></ele><time>2017-6-21T4:49:28Z</time></trkpt>
<trkpt lat="46.18466" lon="7.0109"><ele></ele><time>2017-6-21T4:49:31Z</time></trkpt>
<trkpt lat="46.18468" lon="7.01087"><ele></ele><time>2017-6-21T4:49:34Z</time></trkpt>
<trkpt lat="46.18469" lon="7.01084"><ele></ele><time>2017-6-21T4:49:37Z</time></trkpt>
<trkpt lat="46.1847" lon="7.01081"><ele></ele><time>2017-6-21T4:49:40Z</time></trkpt>
<trkpt lat="46.18472" lon="7.01077"><ele></ele><time>2017-6-21T4:49:43Z</time></trkpt>
<trkpt lat="46.18473" lon="7.01074"><ele></ele><time>2017-6-21T4:49:46Z</time></trkpt>
<trkpt lat="46.18475" lon="7.01071"><ele></ele><time>2017-6-21T4:49:49Z</time></trkpt>
<trkpt lat="46.18476" lon="7.01068"><ele></ele><time>2017-6-21T4:49:52Z</time></trkpt>
<trkpt lat="46.18477" lon="7.01065"><ele></ele><time>2017-6-21T4:49:55Z</time></trkpt>
<trkpt lat="46.18478" lon="7.01062"><ele></ele><time>2017-6-21T4:49:58Z</time></trkpt>
<trkpt lat="46.18475" lon="7.01061"><ele></ele><time>2017-6-21T4:50:1Z</time></trkpt>
<trkpt lat="46.18471" lon="7.0106"><ele></ele><time>2017-6-21T4:50:4Z</time></trkpt>
<trkpt lat="46.18468" lon="7.0106"><ele></ele><time>2017-6-21T4:50:7Z</time></trkpt>
<trkpt lat="46.18465" lon="7.01059"><ele></ele><time>2017-6-21T4:50:10Z</time></trkpt>
<trkpt lat="46.18462" lon="7.01058"><ele></ele><time>2017-6-21T4:50:13Z</time></trkpt>
<trkpt lat="46.18458" lon="7.01057"><ele></ele><time>2017-6-21T4:50:16Z</time></trkpt>
<trkpt lat="46.18455" lon="7.01056"><ele></ele><time>2017-6-21T4:50:19Z</time></trkpt>
<trkpt lat="46.18452" lon="7.01056"><ele></ele><time>2017-6-21T4:50:22Z</time></trkpt>
<trkpt lat="46.18448" lon="7.01055"><ele></ele><time>2017-6-21T4:50:25Z</time></trkpt>
<trkpt lat="46.18445" lon="7.01054"><ele></ele><time>2017-6-21T4:50:28Z</time></trkpt>
<trkpt lat="46.18443" lon="7.01054"><ele></ele><time>2017-6-21T4:50:31Z</time></trkpt>
<trkpt lat="46.18442" lon="7.01053"><ele></ele><time>2017-6-21T4:50:34Z</time></trkpt>
<trkpt lat="46.18438" lon="7.01053"><ele></ele><time>2017-6-21T4:50:37Z</time></trkpt>
<trkpt lat="46.18435" lon="7.01052"><ele></ele><time>2017-6-21T4:50:40Z</time></trkpt>
<trkpt lat="46.18434" lon="7.01051"><ele></ele><time>2017-6-21T4:50:43Z</time></trkpt>
<trkpt lat="46.18432" lon="7.01051"><ele></ele><time>2017-6-21T4:50:46Z</time></trkpt>
<trkpt lat="46.18429" lon="7.01049"><ele></ele><time>2017-6-21T4:50:49Z</time></trkpt>
<trkpt lat="46.18426" lon="7.01048"><ele></ele><time>2017-6-21T4:50:52Z</time></trkpt>
<trkpt lat="46.18423" lon="7.01046"><ele></ele><time>2017-6-21T4:50:55Z</time></trkpt>
<trkpt lat="46.1842" lon="7.01045"><ele></ele><time>2017-6-21T4:50:58Z</time></trkpt>
<trkpt lat="46.18417" lon="7.01044"><ele></ele><time>2017-6-21T4:51:1Z</time></trkpt>
<trkpt lat="46.18414" lon="7.01042"><ele></ele><time>2017-6-21T4:51:4Z</time></trkpt>
<trkpt lat="46.1841" lon="7.01041"><ele></ele><time>2017-6-21T4:51:7Z</time></trkpt>
<trkpt lat="46.18407" lon="7.0104"><ele></ele><time>2017-6-21T4:51:10Z</time></trkpt>
<trkpt lat="46.18404" lon="7.01038"><ele></ele><time>2017-6-21T4:51:13Z</time></trkpt>
<trkpt lat="46.18401" lon="7.01037"><ele></ele><time>2017-6-21T4:51:16Z</time></trkpt>
<trkpt lat="46.18398" lon="7.01036"><ele></ele><time>2017-6-21T4:51:19Z</time></trkpt>
<trkpt lat="46.18395" lon="7.01034"><ele></ele><time>2017-6-21T4:51:22Z</time></trkpt>
<trkpt lat="46.18392" lon="7.01033"><ele></ele><time>2017-6-21T4:51:25Z</time></trkpt>
<trkpt lat="46.18391" lon="7.01032"><ele></ele><time>2017-6-21T4:51:28Z</time></trkpt>
<trkpt lat="46.18389" lon="7.01031"><ele></ele><time>2017-6-21T4:51:31Z</time></trkpt>
<trkpt lat="46.18387" lon="7.01028"><ele></ele><time>2017-6-21T4:51:34Z</time></trkpt>
<trkpt lat="46.18384" lon="7.01025"><ele></ele><time>2017-6-21T4:51:37Z</time></trkpt>
<trkpt lat="46.18382" lon="7.01022"><ele></ele><time>2017-6-21T4:51:40Z</time></trkpt>
<trkpt lat="46.1838" lon="7.0102"><ele></ele><time>2017-6-21T4:51:43Z</time></trkpt>
<trkpt lat="46.18377" lon="7.01017"><ele></ele><time>2017-6-21T4:51:46Z</time></trkpt>
<trkpt lat="46.18375" lon="7.01014"><ele></ele><time>2017-6-21T4:51:49Z</time></trkpt>
<trkpt lat="46.18372" lon="7.01012"><ele></ele><time>2017-6-21T4:51:52Z</time></trkpt>
<trkpt lat="46.1837" lon="7.01009"><ele></ele><time>2017-6-21T4:51:55Z</time></trkpt>
<trkpt lat="46.18367" lon="7.01006"><ele></ele><time>2017-6-21T4:51:58Z</time></trkpt>
<trkpt lat="46.18365" lon="7.01004"><ele></ele><time>2017-6-21T4:52:1Z</time></trkpt>
<trkpt lat="46.18362" lon="7.01001"><ele></ele><time>2017-6-21T4:52:4Z</time></trkpt>
<trkpt lat="46.1836" lon="7.00998"><ele></ele><time>2017-6-21T4:52:7Z</time></trkpt>
<trkpt lat="46.18358" lon="7.00995"><ele></ele><time>2017-6-21T4:52:10Z</time></trkpt>
<trkpt lat="46.18355" lon="7.00993"><ele></ele><time>2017-6-21T4:52:13Z</time></trkpt>
<trkpt lat="46.18354" lon="7.00991"><ele></ele><time>2017-6-21T4:52:16Z</time></trkpt>
<trkpt lat="46.18353" lon="7.00989"><ele></ele><time>2017-6-21T4:52:19Z</time></trkpt>
<trkpt lat="46.18352" lon="7.00985"><ele></ele><time>2017-6-21T4:52:22Z</time></trkpt>
<trkpt lat="46.18351" lon="7.00981"><ele></ele><time>2017-6-21T4:52:25Z</time></trkpt>
<trkpt lat="46.18349" lon="7.00977"><ele></ele><time>2017-6-21T4:52:28Z</time></trkpt>
<trkpt lat="46.18349" lon="7.00975"><ele></ele><time>2017-6-21T4:52:31Z</time></trkpt>
<trkpt lat="46.18348" lon="7.00972"><ele></ele><time>2017-6-21T4:52:34Z</time></trkpt>
<trkpt lat="46.18347" lon="7.00968"><ele></ele><time>2017-6-21T4:52:37Z</time></trkpt>
<trkpt lat="46.18346" lon="7.00964"><ele></ele><time>2017-6-21T4:52:40Z</time></trkpt>
<trkpt lat="46.18344" lon="7.0096"><ele></ele><time>2017-6-21T4:52:43Z</time></trkpt>
<trkpt lat="46.18343" lon="7.00956"><ele></ele><time>2017-6-21T4:52:46Z</time></trkpt>
<trkpt lat="46.18342" lon="7.00952"><ele></ele><time>2017-6-21T4:52:49Z</time></trkpt>
<trkpt lat="46.1834" lon="7.00947"><ele></ele><time>2017-6-21T4:52:52Z</time></trkpt>
<trkpt lat="46.18339" lon="7.00943"><ele></ele><time>2017-6-21T4:52:55Z</time></trkpt>
<trkpt lat="46.18338" lon="7.00939"><ele></ele><time>2017-6-21T4:52:58Z</time></trkpt>
<trkpt lat="46.18336" lon="7.00935"><ele></ele><time>2017-6-21T4:53:1Z</time></trkpt>
<trkpt lat="46.18335" lon="7.00931"><ele></ele><time>2017-6-21T4:53:4Z</time></trkpt>
<trkpt lat="46.18332" lon="7.00928"><ele></ele><time>2017-6-21T4:53:7Z</time></trkpt>
<trkpt lat="46.18329" lon="7.00925"><ele></ele><time>2017-6-21T4:53:10Z</time></trkpt>
<trkpt lat="46.18325" lon="7.00922"><ele></ele><time>2017-6-21T4:53:13Z</time></trkpt>
<trkpt lat="46.18322" lon="7.00919"><ele></ele><time>2017-6-21T4:53:16Z</time></trkpt>
<trkpt lat="46.18319" lon="7.00916"><ele></ele><time>2017-6-21T4:53:19Z</time></trkpt>
<trkpt lat="46.18316" lon="7.00913"><ele></ele><time>2017-6-21T4:53:22Z</time></trkpt>
<trkpt lat="46.18313" lon="7.0091"><ele></ele><time>2017-6-21T4:53:25Z</time></trkpt>
<trkpt lat="46.1831" lon="7.00907"><ele></ele><time>2017-6-21T4:53:28Z</time></trkpt>
<trkpt lat="46.18307" lon="7.00904"><ele></ele><time>2017-6-21T4:53:31Z</time></trkpt>
<trkpt lat="46.18304" lon="7.009"><ele></ele><time>2017-6-21T4:53:34Z</time></trkpt>
<trkpt lat="46.18301" lon="7.00897"><ele></ele><time>2017-6-21T4:53:37Z</time></trkpt>
<trkpt lat="46.18298" lon="7.00894"><ele></ele><time>2017-6-21T4:53:40Z</time></trkpt>
<trkpt lat="46.18296" lon="7.00893"><ele></ele><time>2017-6-21T4:53:43Z</time></trkpt>
<trkpt lat="46.18295" lon="7.00892"><ele></ele><time>2017-6-21T4:53:46Z</time></trkpt>
<trkpt lat="46.18292" lon="7.0089"><ele></ele><time>2017-6-21T4:53:49Z</time></trkpt>
<trkpt lat="46.18288" lon="7.00888"><ele></ele><time>2017-6-21T4:53:52Z</time></trkpt>
<trkpt lat="46.18285" lon="7.00886"><ele></ele><time>2017-6-21T4:53:55Z</time></trkpt>
<trkpt lat="46.18283" lon="7.00885"><ele></ele><time>2017-6-21T4:53:58Z</time></trkpt>
<trkpt lat="46.18282" lon="7.00884"><ele></ele><time>2017-6-21T4:54:1Z</time></trkpt>
<trkpt lat="46.18278" lon="7.00883"><ele></ele><time>2017-6-21T4:54:4Z</time></trkpt>
<trkpt lat="46.18275" lon="7.00882"><ele></ele><time>2017-6-21T4:54:7Z</time></trkpt>
<trkpt lat="46.18271" lon="7.00882"><ele></ele><time>2017-6-21T4:54:10Z</time></trkpt>
<trkpt lat="46.18267" lon="7.00881"><ele></ele><time>2017-6-21T4:54:13Z</time></trkpt>
<trkpt lat="46.18263" lon="7.0088"><ele></ele><time>2017-6-21T4:54:16Z</time></trkpt>
<trkpt lat="46.1826" lon="7.00878"><ele></ele><time>2017-6-21T4:54:19Z</time></trkpt>
<trkpt lat="46.18257" lon="7.00876"><ele></ele><time>2017-6-21T4:54:22Z</time></trkpt>
<trkpt lat="46.18255" lon="7.00875"><ele></ele><time>2017-6-21T4:54:25Z</time></trkpt>
<trkpt lat="46.18254" lon="7.00874"><ele></ele><time>2017-6-21T4:54:28Z</time></trkpt>
<trkpt lat="46.1825" lon="7.00872"><ele></ele><time>2017-6-21T4:54:31Z</time></trkpt>
<trkpt lat="46.1823" lon="7.00887"><ele></ele><time>2017-6-21T4:54:34Z</time></trkpt>
<trkpt lat="46.1823" lon="7.00887"><ele></ele><time>2017-6-21T4:54:37Z</time></trkpt>
<trkpt lat="46.18213" lon="7.00904"><ele></ele><time>2017-6-21T4:54:40Z</time></trkpt>
<trkpt lat="46.18212" lon="7.00905"><ele></ele><time>2017-6-21T4:54:43Z</time></trkpt>
<trkpt lat="46.18211" lon="7.00906"><ele></ele><time>2017-6-21T4:54:46Z</time></trkpt>
<trkpt lat="46.1821" lon="7.00907"><ele></ele><time>2017-6-21T4:54:49Z</time></trkpt>
<trkpt lat="46.18208" lon="7.00909"><ele></ele><time>2017-6-21T4:54:52Z</time></trkpt>
<trkpt lat="46.18207" lon="7.00909"><ele></ele><time>2017-6-21T4:54:55Z</time></trkpt>
<trkpt lat="46.18209" lon="7.00922"><ele></ele><time>2017-6-21T4:54:58Z</time></trkpt>
<trkpt lat="46.18209" lon="7.00922"><ele></ele><time>2017-6-21T4:55:1Z</time></trkpt>
<trkpt lat="46.18212" lon="7.00938"><ele></ele><time>2017-6-21T4:55:4Z</time></trkpt>
<trkpt lat="46.18212" lon="7.00939"><ele></ele><time>2017-6-21T4:55:7Z</time></trkpt>
<trkpt lat="46.18213" lon="7.00939"><ele></ele><time>2017-6-21T4:55:10Z</time></trkpt>
<trkpt lat="46.18214" lon="7.00941"><ele></ele><time>2017-6-21T4:55:13Z</time></trkpt>
<trkpt lat="46.1822" lon="7.00948"><ele></ele><time>2017-6-21T4:55:16Z</time></trkpt>
<trkpt lat="46.18231" lon="7.00961"><ele></ele><time>2017-6-21T4:55:19Z</time></trkpt>
<trkpt lat="46.18243" lon="7.00973"><ele></ele><time>2017-6-21T4:55:22Z</time></trkpt>
<trkpt lat="46.18248" lon="7.00981"><ele></ele><time>2017-6-21T4:55:25Z</time></trkpt>
<trkpt lat="46.18251" lon="7.00992"><ele></ele><time>2017-6-21T4:55:28Z</time></trkpt>
<trkpt lat="46.18257" lon="7.01013"><ele></ele><time>2017-6-21T4:55:31Z</time></trkpt>
<trkpt lat="46.18253" lon="7.01031"><ele></ele><time>2017-6-21T4:55:34Z</time></trkpt>
<trkpt lat="46.18234" lon="7.01046"><ele></ele><time>2017-6-21T4:55:37Z</time></trkpt>
<trkpt lat="46.18231" lon="7.01053"><ele></ele><time>2017-6-21T4:55:40Z</time></trkpt>
<trkpt lat="46.18228" lon="7.01061"><ele></ele><time>2017-6-21T4:55:43Z</time></trkpt>
<trkpt lat="46.18227" lon="7.0107"><ele></ele><time>2017-6-21T4:55:46Z</time></trkpt>
<trkpt lat="46.18229" lon="7.01074"><ele></ele><time>2017-6-21T4:55:49Z</time></trkpt>
<trkpt lat="46.18241" lon="7.01059"><ele></ele><time>2017-6-21T4:55:52Z</time></trkpt>
<trkpt lat="46.18247" lon="7.01054"><ele></ele><time>2017-6-21T4:55:55Z</time></trkpt>
<trkpt lat="46.18254" lon="7.01055"><ele></ele><time>2017-6-21T4:55:58Z</time></trkpt>
<trkpt lat="46.18262" lon="7.01058"><ele></ele><time>2017-6-21T4:56:1Z</time></trkpt>
<trkpt lat="46.18272" lon="7.01065"><ele></ele><time>2017-6-21T4:56:4Z</time></trkpt>
<trkpt lat="46.18287" lon="7.01083"><ele></ele><time>2017-6-21T4:56:7Z</time></trkpt>
<trkpt lat="46.18287" lon="7.01097"><ele></ele><time>2017-6-21T4:56:10Z</time></trkpt>
<trkpt lat="46.18296" lon="7.01105"><ele></ele><time>2017-6-21T4:56:13Z</time></trkpt>
<trkpt lat="46.18316" lon="7.01122"><ele></ele><time>2017-6-21T4:56:16Z</time></trkpt>
<trkpt lat="46.18326" lon="7.0113"><ele></ele><time>2017-6-21T4:56:19Z</time></trkpt>
<trkpt lat="46.18335" lon="7.01137"><ele></ele><time>2017-6-21T4:56:22Z</time></trkpt>
<trkpt lat="46.18343" lon="7.01144"><ele></ele><time>2017-6-21T4:56:25Z</time></trkpt>
<trkpt lat="46.18346" lon="7.01153"><ele></ele><time>2017-6-21T4:56:28Z</time></trkpt>
<trkpt lat="46.18346" lon="7.01163"><ele></ele><time>2017-6-21T4:56:31Z</time></trkpt>
<trkpt lat="46.18345" lon="7.01173"><ele></ele><time>2017-6-21T4:56:34Z</time></trkpt>
<trkpt lat="46.1834" lon="7.01178"><ele></ele><time>2017-6-21T4:56:37Z</time></trkpt>
<trkpt lat="46.18332" lon="7.01178"><ele></ele><time>2017-6-21T4:56:40Z</time></trkpt>
<trkpt lat="46.18314" lon="7.01178"><ele></ele><time>2017-6-21T4:56:43Z</time></trkpt>
<trkpt lat="46.18306" lon="7.0118"><ele></ele><time>2017-6-21T4:56:46Z</time></trkpt>
<trkpt lat="46.18297" lon="7.01186"><ele></ele><time>2017-6-21T4:56:49Z</time></trkpt>
<trkpt lat="46.1829" lon="7.01193"><ele></ele><time>2017-6-21T4:56:52Z</time></trkpt>
<trkpt lat="46.18284" lon="7.01202"><ele></ele><time>2017-6-21T4:56:55Z</time></trkpt>
<trkpt lat="46.18273" lon="7.01223"><ele></ele><time>2017-6-21T4:56:58Z</time></trkpt>
<trkpt lat="46.18271" lon="7.01235"><ele></ele><time>2017-6-21T4:57:1Z</time></trkpt>
<trkpt lat="46.18275" lon="7.01247"><ele></ele><time>2017-6-21T4:57:4Z</time></trkpt>
<trkpt lat="46.18279" lon="7.0126"><ele></ele><time>2017-6-21T4:57:7Z</time></trkpt>
<trkpt lat="46.18286" lon="7.01273"><ele></ele><time>2017-6-21T4:57:10Z</time></trkpt>
<trkpt lat="46.18292" lon="7.01286"><ele></ele><time>2017-6-21T4:57:13Z</time></trkpt>
<trkpt lat="46.18299" lon="7.01297"><ele></ele><time>2017-6-21T4:57:16Z</time></trkpt>
<trkpt lat="46.18304" lon="7.01311"><ele></ele><time>2017-6-21T4:57:19Z</time></trkpt>
<trkpt lat="46.18306" lon="7.01328"><ele></ele><time>2017-6-21T4:57:22Z</time></trkpt>
<trkpt lat="46.18304" lon="7.01344"><ele></ele><time>2017-6-21T4:57:25Z</time></trkpt>
<trkpt lat="46.18297" lon="7.01359"><ele></ele><time>2017-6-21T4:57:28Z</time></trkpt>
<trkpt lat="46.1829" lon="7.01372"><ele></ele><time>2017-6-21T4:57:31Z</time></trkpt>
<trkpt lat="46.18281" lon="7.01384"><ele></ele><time>2017-6-21T4:57:34Z</time></trkpt>
<trkpt lat="46.18264" lon="7.01408"><ele></ele><time>2017-6-21T4:57:37Z</time></trkpt>
<trkpt lat="46.18259" lon="7.01421"><ele></ele><time>2017-6-21T4:57:40Z</time></trkpt>
<trkpt lat="46.18258" lon="7.01435"><ele></ele><time>2017-6-21T4:57:43Z</time></trkpt>
<trkpt lat="46.18261" lon="7.01463"><ele></ele><time>2017-6-21T4:57:46Z</time></trkpt>
<trkpt lat="46.18265" lon="7.01474"><ele></ele><time>2017-6-21T4:57:49Z</time></trkpt>
<trkpt lat="46.18275" lon="7.01481"><ele></ele><time>2017-6-21T4:57:52Z</time></trkpt>
<trkpt lat="46.18294" lon="7.01495"><ele></ele><time>2017-6-21T4:57:55Z</time></trkpt>
<trkpt lat="46.18299" lon="7.01504"><ele></ele><time>2017-6-21T4:57:58Z</time></trkpt>
<trkpt lat="46.18302" lon="7.01513"><ele></ele><time>2017-6-21T4:58:1Z</time></trkpt>
<trkpt lat="46.18303" lon="7.01523"><ele></ele><time>2017-6-21T4:58:4Z</time></trkpt>
<trkpt lat="46.18299" lon="7.01535"><ele></ele><time>2017-6-21T4:58:7Z</time></trkpt>
<trkpt lat="46.18287" lon="7.01558"><ele></ele><time>2017-6-21T4:58:10Z</time></trkpt>
<trkpt lat="46.18281" lon="7.01569"><ele></ele><time>2017-6-21T4:58:13Z</time></trkpt>
<trkpt lat="46.18275" lon="7.01581"><ele></ele><time>2017-6-21T4:58:16Z</time></trkpt>
<trkpt lat="46.18269" lon="7.01593"><ele></ele><time>2017-6-21T4:58:19Z</time></trkpt>
<trkpt lat="46.18264" lon="7.01614"><ele></ele><time>2017-6-21T4:58:22Z</time></trkpt>
<trkpt lat="46.18261" lon="7.0165"><ele></ele><time>2017-6-21T4:58:25Z</time></trkpt>
<trkpt lat="46.18257" lon="7.01685"><ele></ele><time>2017-6-21T4:58:28Z</time></trkpt>
<trkpt lat="46.1825" lon="7.01721"><ele></ele><time>2017-6-21T4:58:31Z</time></trkpt>
<trkpt lat="46.18242" lon="7.01737"><ele></ele><time>2017-6-21T4:58:34Z</time></trkpt>
<trkpt lat="46.18234" lon="7.01751"><ele></ele><time>2017-6-21T4:58:37Z</time></trkpt>
<trkpt lat="46.18212" lon="7.01774"><ele></ele><time>2017-6-21T4:58:40Z</time></trkpt>
<trkpt lat="46.18191" lon="7.01797"><ele></ele><time>2017-6-21T4:58:43Z</time></trkpt>
<trkpt lat="46.18182" lon="7.01811"><ele></ele><time>2017-6-21T4:58:46Z</time></trkpt>
<trkpt lat="46.18174" lon="7.01826"><ele></ele><time>2017-6-21T4:58:49Z</time></trkpt>
<trkpt lat="46.1816" lon="7.01858"><ele></ele><time>2017-6-21T4:58:52Z</time></trkpt>
<trkpt lat="46.18152" lon="7.01874"><ele></ele><time>2017-6-21T4:58:55Z</time></trkpt>
<trkpt lat="46.18144" lon="7.01889"><ele></ele><time>2017-6-21T4:58:58Z</time></trkpt>
<trkpt lat="46.18128" lon="7.01918"><ele></ele><time>2017-6-21T4:59:1Z</time></trkpt>
<trkpt lat="46.1812" lon="7.01934"><ele></ele><time>2017-6-21T4:59:4Z</time></trkpt>
<trkpt lat="46.18115" lon="7.0195"><ele></ele><time>2017-6-21T4:59:7Z</time></trkpt>
<trkpt lat="46.18109" lon="7.01967"><ele></ele><time>2017-6-21T4:59:10Z</time></trkpt>
<trkpt lat="46.18104" lon="7.01984"><ele></ele><time>2017-6-21T4:59:13Z</time></trkpt>
<trkpt lat="46.18099" lon="7.01999"><ele></ele><time>2017-6-21T4:59:16Z</time></trkpt>
<trkpt lat="46.18094" lon="7.0201"><ele></ele><time>2017-6-21T4:59:19Z</time></trkpt>
<trkpt lat="46.18088" lon="7.02017"><ele></ele><time>2017-6-21T4:59:22Z</time></trkpt>
<trkpt lat="46.18078" lon="7.0202"><ele></ele><time>2017-6-21T4:59:25Z</time></trkpt>
<trkpt lat="46.18069" lon="7.02021"><ele></ele><time>2017-6-21T4:59:28Z</time></trkpt>
<trkpt lat="46.1806" lon="7.02017"><ele></ele><time>2017-6-21T4:59:31Z</time></trkpt>
<trkpt lat="46.1804" lon="7.02012"><ele></ele><time>2017-6-21T4:59:34Z</time></trkpt>
<trkpt lat="46.18029" lon="7.02014"><ele></ele><time>2017-6-21T4:59:37Z</time></trkpt>
<trkpt lat="46.1802" lon="7.0202"><ele></ele><time>2017-6-21T4:59:40Z</time></trkpt>
<trkpt lat="46.18002" lon="7.02033"><ele></ele><time>2017-6-21T4:59:43Z</time></trkpt>
<trkpt lat="46.17983" lon="7.02046"><ele></ele><time>2017-6-21T4:59:46Z</time></trkpt>
<trkpt lat="46.17972" lon="7.02055"><ele></ele><time>2017-6-21T4:59:49Z</time></trkpt>
<trkpt lat="46.17961" lon="7.02065"><ele></ele><time>2017-6-21T4:59:52Z</time></trkpt>
<trkpt lat="46.1794" lon="7.02085"><ele></ele><time>2017-6-21T4:59:55Z</time></trkpt>
<trkpt lat="46.17923" lon="7.02108"><ele></ele><time>2017-6-21T4:59:58Z</time></trkpt>
<trkpt lat="46.17914" lon="7.0212"><ele></ele><time>2017-6-21T5:0:1Z</time></trkpt>
<trkpt lat="46.17905" lon="7.02132"><ele></ele><time>2017-6-21T5:0:4Z</time></trkpt>
<trkpt lat="46.17885" lon="7.02158"><ele></ele><time>2017-6-21T5:0:7Z</time></trkpt>
<trkpt lat="46.17865" lon="7.02183"><ele></ele><time>2017-6-21T5:0:10Z</time></trkpt>
<trkpt lat="46.17856" lon="7.02195"><ele></ele><time>2017-6-21T5:0:13Z</time></trkpt>
<trkpt lat="46.17847" lon="7.02206"><ele></ele><time>2017-6-21T5:0:16Z</time></trkpt>
<trkpt lat="46.1783" lon="7.02228"><ele></ele><time>2017-6-21T5:0:19Z</time></trkpt>
<trkpt lat="46.17822" lon="7.02234"><ele></ele><time>2017-6-21T5:0:22Z</time></trkpt>
<trkpt lat="46.17813" lon="7.02234"><ele></ele><time>2017-6-21T5:0:25Z</time></trkpt>
<trkpt lat="46.17805" lon="7.02233"><ele></ele><time>2017-6-21T5:0:28Z</time></trkpt>
<trkpt lat="46.17797" lon="7.02229"><ele></ele><time>2017-6-21T5:0:31Z</time></trkpt>
<trkpt lat="46.17781" lon="7.02221"><ele></ele><time>2017-6-21T5:0:34Z</time></trkpt>
<trkpt lat="46.17765" lon="7.02215"><ele></ele><time>2017-6-21T5:0:37Z</time></trkpt>
<trkpt lat="46.17746" lon="7.02216"><ele></ele><time>2017-6-21T5:0:40Z</time></trkpt>
<trkpt lat="46.17726" lon="7.02217"><ele></ele><time>2017-6-21T5:0:43Z</time></trkpt>
<trkpt lat="46.17717" lon="7.02218"><ele></ele><time>2017-6-21T5:0:46Z</time></trkpt>
<trkpt lat="46.17706" lon="7.02221"><ele></ele><time>2017-6-21T5:0:49Z</time></trkpt>
<trkpt lat="46.17686" lon="7.02226"><ele></ele><time>2017-6-21T5:0:52Z</time></trkpt>
<trkpt lat="46.17666" lon="7.02233"><ele></ele><time>2017-6-21T5:0:55Z</time></trkpt>
<trkpt lat="46.17646" lon="7.0224"><ele></ele><time>2017-6-21T5:0:58Z</time></trkpt>
<trkpt lat="46.17625" lon="7.02248"><ele></ele><time>2017-6-21T5:1:1Z</time></trkpt>
<trkpt lat="46.17615" lon="7.02251"><ele></ele><time>2017-6-21T5:1:4Z</time></trkpt>
<trkpt lat="46.17605" lon="7.02254"><ele></ele><time>2017-6-21T5:1:7Z</time></trkpt>
<trkpt lat="46.17594" lon="7.02258"><ele></ele><time>2017-6-21T5:1:10Z</time></trkpt>
<trkpt lat="46.17584" lon="7.02261"><ele></ele><time>2017-6-21T5:1:13Z</time></trkpt>
<trkpt lat="46.17563" lon="7.02266"><ele></ele><time>2017-6-21T5:1:16Z</time></trkpt>
<trkpt lat="46.17542" lon="7.02268"><ele></ele><time>2017-6-21T5:1:19Z</time></trkpt>
<trkpt lat="46.17531" lon="7.02269"><ele></ele><time>2017-6-21T5:1:22Z</time></trkpt>
<trkpt lat="46.17521" lon="7.0227"><ele></ele><time>2017-6-21T5:1:25Z</time></trkpt>
<trkpt lat="46.17511" lon="7.02271"><ele></ele><time>2017-6-21T5:1:28Z</time></trkpt>
<trkpt lat="46.17503" lon="7.02271"><ele></ele><time>2017-6-21T5:1:31Z</time></trkpt>
<trkpt lat="46.17496" lon="7.02271"><ele></ele><time>2017-6-21T5:1:34Z</time></trkpt>
<trkpt lat="46.17492" lon="7.02268"><ele></ele><time>2017-6-21T5:1:37Z</time></trkpt>
<trkpt lat="46.17482" lon="7.02262"><ele></ele><time>2017-6-21T5:1:40Z</time></trkpt>
<trkpt lat="46.17473" lon="7.02256"><ele></ele><time>2017-6-21T5:1:43Z</time></trkpt>
<trkpt lat="46.17469" lon="7.02253"><ele></ele><time>2017-6-21T5:1:46Z</time></trkpt>
<trkpt lat="46.17464" lon="7.0225"><ele></ele><time>2017-6-21T5:1:49Z</time></trkpt>
<trkpt lat="46.17455" lon="7.02244"><ele></ele><time>2017-6-21T5:1:52Z</time></trkpt>
<trkpt lat="46.17442" lon="7.0223"><ele></ele><time>2017-6-21T5:1:55Z</time></trkpt>
<trkpt lat="46.17429" lon="7.02215"><ele></ele><time>2017-6-21T5:1:58Z</time></trkpt>
<trkpt lat="46.17416" lon="7.02201"><ele></ele><time>2017-6-21T5:2:1Z</time></trkpt>
<trkpt lat="46.17403" lon="7.02186"><ele></ele><time>2017-6-21T5:2:4Z</time></trkpt>
<trkpt lat="46.17396" lon="7.0218"><ele></ele><time>2017-6-21T5:2:7Z</time></trkpt>
<trkpt lat="46.17388" lon="7.02177"><ele></ele><time>2017-6-21T5:2:10Z</time></trkpt>
<trkpt lat="46.17372" lon="7.0217"><ele></ele><time>2017-6-21T5:2:13Z</time></trkpt>
<trkpt lat="46.17364" lon="7.02167"><ele></ele><time>2017-6-21T5:2:16Z</time></trkpt>
<trkpt lat="46.17356" lon="7.02168"><ele></ele><time>2017-6-21T5:2:19Z</time></trkpt>
<trkpt lat="46.1734" lon="7.02169"><ele></ele><time>2017-6-21T5:2:22Z</time></trkpt>
<trkpt lat="46.17324" lon="7.02171"><ele></ele><time>2017-6-21T5:2:25Z</time></trkpt>
<trkpt lat="46.17317" lon="7.02171"><ele></ele><time>2017-6-21T5:2:28Z</time></trkpt>
<trkpt lat="46.17309" lon="7.02171"><ele></ele><time>2017-6-21T5:2:31Z</time></trkpt>
<trkpt lat="46.17295" lon="7.02171"><ele></ele><time>2017-6-21T5:2:34Z</time></trkpt>
<trkpt lat="46.1728" lon="7.02171"><ele></ele><time>2017-6-21T5:2:37Z</time></trkpt>
<trkpt lat="46.17266" lon="7.0217"><ele></ele><time>2017-6-21T5:2:40Z</time></trkpt>
<trkpt lat="46.17253" lon="7.02167"><ele></ele><time>2017-6-21T5:2:43Z</time></trkpt>
<trkpt lat="46.17247" lon="7.02164"><ele></ele><time>2017-6-21T5:2:46Z</time></trkpt>
<trkpt lat="46.17243" lon="7.02159"><ele></ele><time>2017-6-21T5:2:49Z</time></trkpt>
<trkpt lat="46.17233" lon="7.0215"><ele></ele><time>2017-6-21T5:2:52Z</time></trkpt>
<trkpt lat="46.17223" lon="7.02141"><ele></ele><time>2017-6-21T5:2:55Z</time></trkpt>
<trkpt lat="46.17213" lon="7.02132"><ele></ele><time>2017-6-21T5:2:58Z</time></trkpt>
<trkpt lat="46.17208" lon="7.02128"><ele></ele><time>2017-6-21T5:3:1Z</time></trkpt>
<trkpt lat="46.17203" lon="7.02126"><ele></ele><time>2017-6-21T5:3:4Z</time></trkpt>
<trkpt lat="46.17191" lon="7.02122"><ele></ele><time>2017-6-21T5:3:7Z</time></trkpt>
<trkpt lat="46.1718" lon="7.02118"><ele></ele><time>2017-6-21T5:3:10Z</time></trkpt>
<trkpt lat="46.17168" lon="7.02114"><ele></ele><time>2017-6-21T5:3:13Z</time></trkpt>
<trkpt lat="46.17157" lon="7.02115"><ele></ele><time>2017-6-21T5:3:16Z</time></trkpt>
<trkpt lat="46.17148" lon="7.02119"><ele></ele><time>2017-6-21T5:3:19Z</time></trkpt>
<trkpt lat="46.17139" lon="7.02123"><ele></ele><time>2017-6-21T5:3:22Z</time></trkpt>
<trkpt lat="46.17129" lon="7.02127"><ele></ele><time>2017-6-21T5:3:25Z</time></trkpt>
<trkpt lat="46.1712" lon="7.02131"><ele></ele><time>2017-6-21T5:3:28Z</time></trkpt>
<trkpt lat="46.17111" lon="7.02134"><ele></ele><time>2017-6-21T5:3:31Z</time></trkpt>
<trkpt lat="46.17102" lon="7.02133"><ele></ele><time>2017-6-21T5:3:34Z</time></trkpt>
<trkpt lat="46.17093" lon="7.02131"><ele></ele><time>2017-6-21T5:3:37Z</time></trkpt>
<trkpt lat="46.17088" lon="7.02132"><ele></ele><time>2017-6-21T5:3:40Z</time></trkpt>
<trkpt lat="46.17084" lon="7.02134"><ele></ele><time>2017-6-21T5:3:43Z</time></trkpt>
<trkpt lat="46.17075" lon="7.02133"><ele></ele><time>2017-6-21T5:3:46Z</time></trkpt>
<trkpt lat="46.17067" lon="7.02132"><ele></ele><time>2017-6-21T5:3:49Z</time></trkpt>
<trkpt lat="46.17059" lon="7.0213"><ele></ele><time>2017-6-21T5:3:52Z</time></trkpt>
<trkpt lat="46.1705" lon="7.02129"><ele></ele><time>2017-6-21T5:3:55Z</time></trkpt>
<trkpt lat="46.17042" lon="7.02128"><ele></ele><time>2017-6-21T5:3:58Z</time></trkpt>
<trkpt lat="46.17038" lon="7.02127"><ele></ele><time>2017-6-21T5:4:1Z</time></trkpt>
<trkpt lat="46.17033" lon="7.02125"><ele></ele><time>2017-6-21T5:4:4Z</time></trkpt>
<trkpt lat="46.17025" lon="7.02123"><ele></ele><time>2017-6-21T5:4:7Z</time></trkpt>
<trkpt lat="46.17017" lon="7.0212"><ele></ele><time>2017-6-21T5:4:10Z</time></trkpt>
<trkpt lat="46.17009" lon="7.02117"><ele></ele><time>2017-6-21T5:4:13Z</time></trkpt>
<trkpt lat="46.17004" lon="7.02116"><ele></ele><time>2017-6-21T5:4:16Z</time></trkpt>
<trkpt lat="46.16998" lon="7.02116"><ele></ele><time>2017-6-21T5:4:19Z</time></trkpt>
<trkpt lat="46.16986" lon="7.02115"><ele></ele><time>2017-6-21T5:4:22Z</time></trkpt>
<trkpt lat="46.16975" lon="7.02114"><ele></ele><time>2017-6-21T5:4:25Z</time></trkpt>
<trkpt lat="46.16963" lon="7.02114"><ele></ele><time>2017-6-21T5:4:28Z</time></trkpt>
<trkpt lat="46.16957" lon="7.02113"><ele></ele><time>2017-6-21T5:4:31Z</time></trkpt>
<trkpt lat="46.16951" lon="7.02114"><ele></ele><time>2017-6-21T5:4:34Z</time></trkpt>
<trkpt lat="46.1694" lon="7.02114"><ele></ele><time>2017-6-21T5:4:37Z</time></trkpt>
<trkpt lat="46.16935" lon="7.02115"><ele></ele><time>2017-6-21T5:4:40Z</time></trkpt>
<trkpt lat="46.16929" lon="7.02118"><ele></ele><time>2017-6-21T5:4:43Z</time></trkpt>
<trkpt lat="46.16918" lon="7.02124"><ele></ele><time>2017-6-21T5:4:46Z</time></trkpt>
<trkpt lat="46.16907" lon="7.02131"><ele></ele><time>2017-6-21T5:4:49Z</time></trkpt>
<trkpt lat="46.16896" lon="7.02137"><ele></ele><time>2017-6-21T5:4:52Z</time></trkpt>
<trkpt lat="46.16891" lon="7.02141"><ele></ele><time>2017-6-21T5:4:55Z</time></trkpt>
<trkpt lat="46.16885" lon="7.02144"><ele></ele><time>2017-6-21T5:4:58Z</time></trkpt>
<trkpt lat="46.16874" lon="7.0215"><ele></ele><time>2017-6-21T5:5:1Z</time></trkpt>
<trkpt lat="46.16863" lon="7.02157"><ele></ele><time>2017-6-21T5:5:4Z</time></trkpt>
<trkpt lat="46.16852" lon="7.02163"><ele></ele><time>2017-6-21T5:5:7Z</time></trkpt>
<trkpt lat="46.16847" lon="7.02167"><ele></ele><time>2017-6-21T5:5:10Z</time></trkpt>
<trkpt lat="46.1684" lon="7.02171"><ele></ele><time>2017-6-21T5:5:13Z</time></trkpt>
<trkpt lat="46.16827" lon="7.0218"><ele></ele><time>2017-6-21T5:5:16Z</time></trkpt>
<trkpt lat="46.16815" lon="7.02189"><ele></ele><time>2017-6-21T5:5:19Z</time></trkpt>
<trkpt lat="46.16803" lon="7.02197"><ele></ele><time>2017-6-21T5:5:22Z</time></trkpt>
<trkpt lat="46.16793" lon="7.02202"><ele></ele><time>2017-6-21T5:5:25Z</time></trkpt>
<trkpt lat="46.16789" lon="7.02204"><ele></ele><time>2017-6-21T5:5:28Z</time></trkpt>
<trkpt lat="46.16786" lon="7.02209"><ele></ele><time>2017-6-21T5:5:31Z</time></trkpt>
<trkpt lat="46.16783" lon="7.02214"><ele></ele><time>2017-6-21T5:5:34Z</time></trkpt>
<trkpt lat="46.16777" lon="7.02219"><ele></ele><time>2017-6-21T5:5:37Z</time></trkpt>
<trkpt lat="46.16765" lon="7.02228"><ele></ele><time>2017-6-21T5:5:40Z</time></trkpt>
<trkpt lat="46.16752" lon="7.02238"><ele></ele><time>2017-6-21T5:5:43Z</time></trkpt>
<trkpt lat="46.1674" lon="7.02248"><ele></ele><time>2017-6-21T5:5:46Z</time></trkpt>
<trkpt lat="46.16728" lon="7.02259"><ele></ele><time>2017-6-21T5:5:49Z</time></trkpt>
<trkpt lat="46.16721" lon="7.02264"><ele></ele><time>2017-6-21T5:5:52Z</time></trkpt>
<trkpt lat="46.16712" lon="7.02269"><ele></ele><time>2017-6-21T5:5:55Z</time></trkpt>
<trkpt lat="46.16695" lon="7.0228"><ele></ele><time>2017-6-21T5:5:58Z</time></trkpt>
<trkpt lat="46.16679" lon="7.0229"><ele></ele><time>2017-6-21T5:6:1Z</time></trkpt>
<trkpt lat="46.16668" lon="7.02298"><ele></ele><time>2017-6-21T5:6:4Z</time></trkpt>
<trkpt lat="46.16656" lon="7.02306"><ele></ele><time>2017-6-21T5:6:7Z</time></trkpt>
<trkpt lat="46.16644" lon="7.02314"><ele></ele><time>2017-6-21T5:6:10Z</time></trkpt>
<trkpt lat="46.16633" lon="7.02323"><ele></ele><time>2017-6-21T5:6:13Z</time></trkpt>
<trkpt lat="46.16621" lon="7.02332"><ele></ele><time>2017-6-21T5:6:16Z</time></trkpt>
<trkpt lat="46.1661" lon="7.02341"><ele></ele><time>2017-6-21T5:6:19Z</time></trkpt>
<trkpt lat="46.16598" lon="7.02351"><ele></ele><time>2017-6-21T5:6:22Z</time></trkpt>
<trkpt lat="46.16592" lon="7.02355"><ele></ele><time>2017-6-21T5:6:25Z</time></trkpt>
<trkpt lat="46.16587" lon="7.02359"><ele></ele><time>2017-6-21T5:6:28Z</time></trkpt>
<trkpt lat="46.16576" lon="7.02367"><ele></ele><time>2017-6-21T5:6:31Z</time></trkpt>
<trkpt lat="46.16565" lon="7.02376"><ele></ele><time>2017-6-21T5:6:34Z</time></trkpt>
<trkpt lat="46.16554" lon="7.02384"><ele></ele><time>2017-6-21T5:6:37Z</time></trkpt>
<trkpt lat="46.16549" lon="7.02388"><ele></ele><time>2017-6-21T5:6:40Z</time></trkpt>
<trkpt lat="46.16545" lon="7.02391"><ele></ele><time>2017-6-21T5:6:43Z</time></trkpt>
<trkpt lat="46.16536" lon="7.02397"><ele></ele><time>2017-6-21T5:6:46Z</time></trkpt>
<trkpt lat="46.16527" lon="7.02403"><ele></ele><time>2017-6-21T5:6:49Z</time></trkpt>
<trkpt lat="46.16518" lon="7.02409"><ele></ele><time>2017-6-21T5:6:52Z</time></trkpt>
<trkpt lat="46.16509" lon="7.02415"><ele></ele><time>2017-6-21T5:6:55Z</time></trkpt>
<trkpt lat="46.16505" lon="7.02418"><ele></ele><time>2017-6-21T5:6:58Z</time></trkpt>
<trkpt lat="46.16501" lon="7.02421"><ele></ele><time>2017-6-21T5:7:1Z</time></trkpt>
<trkpt lat="46.16494" lon="7.02427"><ele></ele><time>2017-6-21T5:7:4Z</time></trkpt>
<trkpt lat="46.16486" lon="7.02433"><ele></ele><time>2017-6-21T5:7:7Z</time></trkpt>
<trkpt lat="46.16478" lon="7.02439"><ele></ele><time>2017-6-21T5:7:10Z</time></trkpt>
<trkpt lat="46.16471" lon="7.02446"><ele></ele><time>2017-6-21T5:7:13Z</time></trkpt>
<trkpt lat="46.16463" lon="7.02452"><ele></ele><time>2017-6-21T5:7:16Z</time></trkpt>
<trkpt lat="46.16456" lon="7.02459"><ele></ele><time>2017-6-21T5:7:19Z</time></trkpt>
<trkpt lat="46.16449" lon="7.02466"><ele></ele><time>2017-6-21T5:7:22Z</time></trkpt>
<trkpt lat="46.16441" lon="7.02474"><ele></ele><time>2017-6-21T5:7:25Z</time></trkpt>
<trkpt lat="46.16435" lon="7.02481"><ele></ele><time>2017-6-21T5:7:28Z</time></trkpt>
<trkpt lat="46.1643" lon="7.02487"><ele></ele><time>2017-6-21T5:7:31Z</time></trkpt>
<trkpt lat="46.16425" lon="7.02494"><ele></ele><time>2017-6-21T5:7:34Z</time></trkpt>
<trkpt lat="46.16411" lon="7.02505"><ele></ele><time>2017-6-21T5:7:37Z</time></trkpt>
<trkpt lat="46.16405" lon="7.02509"><ele></ele><time>2017-6-21T5:7:40Z</time></trkpt>
<trkpt lat="46.16399" lon="7.02512"><ele></ele><time>2017-6-21T5:7:43Z</time></trkpt>
<trkpt lat="46.16393" lon="7.02514"><ele></ele><time>2017-6-21T5:7:46Z</time></trkpt>
<trkpt lat="46.16386" lon="7.02518"><ele></ele><time>2017-6-21T5:7:49Z</time></trkpt>
<trkpt lat="46.16372" lon="7.02525"><ele></ele><time>2017-6-21T5:7:52Z</time></trkpt>
<trkpt lat="46.16359" lon="7.02531"><ele></ele><time>2017-6-21T5:7:55Z</time></trkpt>
<trkpt lat="46.16347" lon="7.02531"><ele></ele><time>2017-6-21T5:7:58Z</time></trkpt>
<trkpt lat="46.16336" lon="7.02531"><ele></ele><time>2017-6-21T5:8:1Z</time></trkpt>
<trkpt lat="46.16324" lon="7.02531"><ele></ele><time>2017-6-21T5:8:4Z</time></trkpt>
<trkpt lat="46.16318" lon="7.02532"><ele></ele><time>2017-6-21T5:8:7Z</time></trkpt>
<trkpt lat="46.16313" lon="7.02536"><ele></ele><time>2017-6-21T5:8:10Z</time></trkpt>
<trkpt lat="46.16302" lon="7.02544"><ele></ele><time>2017-6-21T5:8:13Z</time></trkpt>
<trkpt lat="46.16292" lon="7.02552"><ele></ele><time>2017-6-21T5:8:16Z</time></trkpt>
<trkpt lat="46.16282" lon="7.0256"><ele></ele><time>2017-6-21T5:8:19Z</time></trkpt>
<trkpt lat="46.16277" lon="7.02564"><ele></ele><time>2017-6-21T5:8:22Z</time></trkpt>
<trkpt lat="46.16272" lon="7.02567"><ele></ele><time>2017-6-21T5:8:25Z</time></trkpt>
<trkpt lat="46.16263" lon="7.02575"><ele></ele><time>2017-6-21T5:8:28Z</time></trkpt>
<trkpt lat="46.16254" lon="7.02582"><ele></ele><time>2017-6-21T5:8:31Z</time></trkpt>
<trkpt lat="46.16244" lon="7.02582"><ele></ele><time>2017-6-21T5:8:34Z</time></trkpt>
<trkpt lat="46.16234" lon="7.02583"><ele></ele><time>2017-6-21T5:8:37Z</time></trkpt>
<trkpt lat="46.16224" lon="7.02584"><ele></ele><time>2017-6-21T5:8:40Z</time></trkpt>
<trkpt lat="46.16214" lon="7.02585"><ele></ele><time>2017-6-21T5:8:43Z</time></trkpt>
<trkpt lat="46.16203" lon="7.02588"><ele></ele><time>2017-6-21T5:8:46Z</time></trkpt>
<trkpt lat="46.16198" lon="7.0259"><ele></ele><time>2017-6-21T5:8:49Z</time></trkpt>
<trkpt lat="46.16194" lon="7.02593"><ele></ele><time>2017-6-21T5:8:52Z</time></trkpt>
<trkpt lat="46.16186" lon="7.02597"><ele></ele><time>2017-6-21T5:8:55Z</time></trkpt>
<trkpt lat="46.16178" lon="7.02602"><ele></ele><time>2017-6-21T5:8:58Z</time></trkpt>
<trkpt lat="46.16171" lon="7.02607"><ele></ele><time>2017-6-21T5:9:1Z</time></trkpt>
<trkpt lat="46.16163" lon="7.02611"><ele></ele><time>2017-6-21T5:9:4Z</time></trkpt>
<trkpt lat="46.16156" lon="7.02616"><ele></ele><time>2017-6-21T5:9:7Z</time></trkpt>
<trkpt lat="46.16152" lon="7.02622"><ele></ele><time>2017-6-21T5:9:10Z</time></trkpt>
<trkpt lat="46.16147" lon="7.02628"><ele></ele><time>2017-6-21T5:9:13Z</time></trkpt>
<trkpt lat="46.16143" lon="7.02634"><ele></ele><time>2017-6-21T5:9:16Z</time></trkpt>
<trkpt lat="46.16139" lon="7.0264"><ele></ele><time>2017-6-21T5:9:19Z</time></trkpt>
<trkpt lat="46.16136" lon="7.02643"><ele></ele><time>2017-6-21T5:9:22Z</time></trkpt>
<trkpt lat="46.16134" lon="7.02646"><ele></ele><time>2017-6-21T5:9:25Z</time></trkpt>
<trkpt lat="46.1613" lon="7.02652"><ele></ele><time>2017-6-21T5:9:28Z</time></trkpt>
<trkpt lat="46.16126" lon="7.02658"><ele></ele><time>2017-6-21T5:9:31Z</time></trkpt>
<trkpt lat="46.16123" lon="7.02662"><ele></ele><time>2017-6-21T5:9:34Z</time></trkpt>
<trkpt lat="46.1612" lon="7.02667"><ele></ele><time>2017-6-21T5:9:37Z</time></trkpt>
<trkpt lat="46.16114" lon="7.02677"><ele></ele><time>2017-6-21T5:9:40Z</time></trkpt>
<trkpt lat="46.16108" lon="7.02687"><ele></ele><time>2017-6-21T5:9:43Z</time></trkpt>
<trkpt lat="46.16102" lon="7.02697"><ele></ele><time>2017-6-21T5:9:46Z</time></trkpt>
<trkpt lat="46.16096" lon="7.02707"><ele></ele><time>2017-6-21T5:9:49Z</time></trkpt>
<trkpt lat="46.16092" lon="7.02712"><ele></ele><time>2017-6-21T5:9:52Z</time></trkpt>
<trkpt lat="46.16088" lon="7.02717"><ele></ele><time>2017-6-21T5:9:55Z</time></trkpt>
<trkpt lat="46.1608" lon="7.02727"><ele></ele><time>2017-6-21T5:9:58Z</time></trkpt>
<trkpt lat="46.16076" lon="7.02732"><ele></ele><time>2017-6-21T5:10:1Z</time></trkpt>
<trkpt lat="46.16073" lon="7.02738"><ele></ele><time>2017-6-21T5:10:4Z</time></trkpt>
<trkpt lat="46.16066" lon="7.02749"><ele></ele><time>2017-6-21T5:10:7Z</time></trkpt>
<trkpt lat="46.16059" lon="7.0276"><ele></ele><time>2017-6-21T5:10:10Z</time></trkpt>
<trkpt lat="46.16052" lon="7.02771"><ele></ele><time>2017-6-21T5:10:13Z</time></trkpt>
<trkpt lat="46.16048" lon="7.02776"><ele></ele><time>2017-6-21T5:10:16Z</time></trkpt>
<trkpt lat="46.16044" lon="7.0278"><ele></ele><time>2017-6-21T5:10:19Z</time></trkpt>
<trkpt lat="46.1604" lon="7.02784"><ele></ele><time>2017-6-21T5:10:22Z</time></trkpt>
<trkpt lat="46.16036" lon="7.02789"><ele></ele><time>2017-6-21T5:10:25Z</time></trkpt>
<trkpt lat="46.16028" lon="7.02798"><ele></ele><time>2017-6-21T5:10:28Z</time></trkpt>
<trkpt lat="46.1602" lon="7.02807"><ele></ele><time>2017-6-21T5:10:31Z</time></trkpt>
<trkpt lat="46.16016" lon="7.0281"><ele></ele><time>2017-6-21T5:10:34Z</time></trkpt>
<trkpt lat="46.16011" lon="7.0281"><ele></ele><time>2017-6-21T5:10:37Z</time></trkpt>
<trkpt lat="46.16002" lon="7.02816"><ele></ele><time>2017-6-21T5:10:40Z</time></trkpt>
<trkpt lat="46.15992" lon="7.02818"><ele></ele><time>2017-6-21T5:10:43Z</time></trkpt>
<trkpt lat="46.15982" lon="7.0282"><ele></ele><time>2017-6-21T5:10:46Z</time></trkpt>
<trkpt lat="46.15972" lon="7.02821"><ele></ele><time>2017-6-21T5:10:49Z</time></trkpt>
<trkpt lat="46.15962" lon="7.02823"><ele></ele><time>2017-6-21T5:10:52Z</time></trkpt>
<trkpt lat="46.15957" lon="7.02824"><ele></ele><time>2017-6-21T5:10:55Z</time></trkpt>
<trkpt lat="46.15951" lon="7.02825"><ele></ele><time>2017-6-21T5:10:58Z</time></trkpt>
<trkpt lat="46.15939" lon="7.02827"><ele></ele><time>2017-6-21T5:11:1Z</time></trkpt>
<trkpt lat="46.15928" lon="7.02829"><ele></ele><time>2017-6-21T5:11:4Z</time></trkpt>
<trkpt lat="46.15916" lon="7.02831"><ele></ele><time>2017-6-21T5:11:7Z</time></trkpt>
<trkpt lat="46.1591" lon="7.02831"><ele></ele><time>2017-6-21T5:11:10Z</time></trkpt>
<trkpt lat="46.15905" lon="7.02831"><ele></ele><time>2017-6-21T5:11:13Z</time></trkpt>
<trkpt lat="46.15894" lon="7.0283"><ele></ele><time>2017-6-21T5:11:16Z</time></trkpt>
<trkpt lat="46.15883" lon="7.0283"><ele></ele><time>2017-6-21T5:11:19Z</time></trkpt>
<trkpt lat="46.15872" lon="7.02829"><ele></ele><time>2017-6-21T5:11:22Z</time></trkpt>
<trkpt lat="46.15861" lon="7.02829"><ele></ele><time>2017-6-21T5:11:25Z</time></trkpt>
<trkpt lat="46.15849" lon="7.02829"><ele></ele><time>2017-6-21T5:11:28Z</time></trkpt>
<trkpt lat="46.15836" lon="7.0283"><ele></ele><time>2017-6-21T5:11:31Z</time></trkpt>
<trkpt lat="46.15823" lon="7.02831"><ele></ele><time>2017-6-21T5:11:34Z</time></trkpt>
<trkpt lat="46.1581" lon="7.02841"><ele></ele><time>2017-6-21T5:11:37Z</time></trkpt>
<trkpt lat="46.15802" lon="7.02855"><ele></ele><time>2017-6-21T5:11:40Z</time></trkpt>
<trkpt lat="46.15796" lon="7.02875"><ele></ele><time>2017-6-21T5:11:43Z</time></trkpt>
<trkpt lat="46.15793" lon="7.02884"><ele></ele><time>2017-6-21T5:11:46Z</time></trkpt>
<trkpt lat="46.15787" lon="7.0289"><ele></ele><time>2017-6-21T5:11:49Z</time></trkpt>
<trkpt lat="46.15775" lon="7.02902"><ele></ele><time>2017-6-21T5:11:52Z</time></trkpt>
<trkpt lat="46.15769" lon="7.02909"><ele></ele><time>2017-6-21T5:11:55Z</time></trkpt>
<trkpt lat="46.15763" lon="7.02915"><ele></ele><time>2017-6-21T5:11:58Z</time></trkpt>
<trkpt lat="46.15751" lon="7.02927"><ele></ele><time>2017-6-21T5:12:1Z</time></trkpt>
<trkpt lat="46.15742" lon="7.0294"><ele></ele><time>2017-6-21T5:12:4Z</time></trkpt>
<trkpt lat="46.15732" lon="7.02954"><ele></ele><time>2017-6-21T5:12:7Z</time></trkpt>
<trkpt lat="46.15722" lon="7.02967"><ele></ele><time>2017-6-21T5:12:10Z</time></trkpt>
<trkpt lat="46.15718" lon="7.02973"><ele></ele><time>2017-6-21T5:12:13Z</time></trkpt>
<trkpt lat="46.15714" lon="7.0298"><ele></ele><time>2017-6-21T5:12:16Z</time></trkpt>
<trkpt lat="46.15709" lon="7.02986"><ele></ele><time>2017-6-21T5:12:19Z</time></trkpt>
<trkpt lat="46.15705" lon="7.02993"><ele></ele><time>2017-6-21T5:12:22Z</time></trkpt>
<trkpt lat="46.15697" lon="7.03006"><ele></ele><time>2017-6-21T5:12:25Z</time></trkpt>
<trkpt lat="46.15688" lon="7.03019"><ele></ele><time>2017-6-21T5:12:28Z</time></trkpt>
<trkpt lat="46.15684" lon="7.03025"><ele></ele><time>2017-6-21T5:12:31Z</time></trkpt>
<trkpt lat="46.15679" lon="7.03029"><ele></ele><time>2017-6-21T5:12:34Z</time></trkpt>
<trkpt lat="46.15669" lon="7.03038"><ele></ele><time>2017-6-21T5:12:37Z</time></trkpt>
<trkpt lat="46.1566" lon="7.03047"><ele></ele><time>2017-6-21T5:12:40Z</time></trkpt>
<trkpt lat="46.1565" lon="7.03056"><ele></ele><time>2017-6-21T5:12:43Z</time></trkpt>
<trkpt lat="46.15645" lon="7.0306"><ele></ele><time>2017-6-21T5:12:46Z</time></trkpt>
<trkpt lat="46.1564" lon="7.03063"><ele></ele><time>2017-6-21T5:12:49Z</time></trkpt>
<trkpt lat="46.1563" lon="7.03069"><ele></ele><time>2017-6-21T5:12:52Z</time></trkpt>
<trkpt lat="46.1562" lon="7.03075"><ele></ele><time>2017-6-21T5:12:55Z</time></trkpt>
<trkpt lat="46.1561" lon="7.03081"><ele></ele><time>2017-6-21T5:12:58Z</time></trkpt>
<trkpt lat="46.156" lon="7.03087"><ele></ele><time>2017-6-21T5:13:1Z</time></trkpt>
<trkpt lat="46.15593" lon="7.03092"><ele></ele><time>2017-6-21T5:13:4Z</time></trkpt>
<trkpt lat="46.15585" lon="7.03097"><ele></ele><time>2017-6-21T5:13:7Z</time></trkpt>
<trkpt lat="46.15578" lon="7.03103"><ele></ele><time>2017-6-21T5:13:10Z</time></trkpt>
<trkpt lat="46.1557" lon="7.03108"><ele></ele><time>2017-6-21T5:13:13Z</time></trkpt>
<trkpt lat="46.15562" lon="7.03113"><ele></ele><time>2017-6-21T5:13:16Z</time></trkpt>
<trkpt lat="46.15558" lon="7.03116"><ele></ele><time>2017-6-21T5:13:19Z</time></trkpt>
<trkpt lat="46.15554" lon="7.03117"><ele></ele><time>2017-6-21T5:13:22Z</time></trkpt>
<trkpt lat="46.1555" lon="7.03118"><ele></ele><time>2017-6-21T5:13:25Z</time></trkpt>
<trkpt lat="46.15545" lon="7.03118"><ele></ele><time>2017-6-21T5:13:28Z</time></trkpt>
<trkpt lat="46.15535" lon="7.03118"><ele></ele><time>2017-6-21T5:13:31Z</time></trkpt>
<trkpt lat="46.15525" lon="7.03118"><ele></ele><time>2017-6-21T5:13:34Z</time></trkpt>
<trkpt lat="46.15515" lon="7.03117"><ele></ele><time>2017-6-21T5:13:37Z</time></trkpt>
<trkpt lat="46.15505" lon="7.03117"><ele></ele><time>2017-6-21T5:13:40Z</time></trkpt>
<trkpt lat="46.155" lon="7.03117"><ele></ele><time>2017-6-21T5:13:43Z</time></trkpt>
<trkpt lat="46.15495" lon="7.03116"><ele></ele><time>2017-6-21T5:13:46Z</time></trkpt>
<trkpt lat="46.15485" lon="7.03115"><ele></ele><time>2017-6-21T5:13:49Z</time></trkpt>
<trkpt lat="46.15475" lon="7.03114"><ele></ele><time>2017-6-21T5:13:52Z</time></trkpt>
<trkpt lat="46.15464" lon="7.03113"><ele></ele><time>2017-6-21T5:13:55Z</time></trkpt>
<trkpt lat="46.15454" lon="7.03112"><ele></ele><time>2017-6-21T5:13:58Z</time></trkpt>
<trkpt lat="46.15443" lon="7.03111"><ele></ele><time>2017-6-21T5:14:1Z</time></trkpt>
<trkpt lat="46.15433" lon="7.03109"><ele></ele><time>2017-6-21T5:14:4Z</time></trkpt>
<trkpt lat="46.15422" lon="7.03108"><ele></ele><time>2017-6-21T5:14:7Z</time></trkpt>
<trkpt lat="46.15412" lon="7.03106"><ele></ele><time>2017-6-21T5:14:10Z</time></trkpt>
<trkpt lat="46.15406" lon="7.03106"><ele></ele><time>2017-6-21T5:14:13Z</time></trkpt>
<trkpt lat="46.15401" lon="7.03104"><ele></ele><time>2017-6-21T5:14:16Z</time></trkpt>
<trkpt lat="46.15392" lon="7.03102"><ele></ele><time>2017-6-21T5:14:19Z</time></trkpt>
<trkpt lat="46.15382" lon="7.031"><ele></ele><time>2017-6-21T5:14:22Z</time></trkpt>
<trkpt lat="46.15372" lon="7.03097"><ele></ele><time>2017-6-21T5:14:25Z</time></trkpt>
<trkpt lat="46.15362" lon="7.03095"><ele></ele><time>2017-6-21T5:14:28Z</time></trkpt>
<trkpt lat="46.15358" lon="7.03094"><ele></ele><time>2017-6-21T5:14:31Z</time></trkpt>
<trkpt lat="46.15353" lon="7.03093"><ele></ele><time>2017-6-21T5:14:34Z</time></trkpt>
<trkpt lat="46.15344" lon="7.03091"><ele></ele><time>2017-6-21T5:14:37Z</time></trkpt>
<trkpt lat="46.15334" lon="7.03089"><ele></ele><time>2017-6-21T5:14:40Z</time></trkpt>
<trkpt lat="46.15325" lon="7.03088"><ele></ele><time>2017-6-21T5:14:43Z</time></trkpt>
<trkpt lat="46.15316" lon="7.03086"><ele></ele><time>2017-6-21T5:14:46Z</time></trkpt>
<trkpt lat="46.15311" lon="7.03085"><ele></ele><time>2017-6-21T5:14:49Z</time></trkpt>
<trkpt lat="46.15306" lon="7.03084"><ele></ele><time>2017-6-21T5:14:52Z</time></trkpt>
<trkpt lat="46.15296" lon="7.03082"><ele></ele><time>2017-6-21T5:14:55Z</time></trkpt>
<trkpt lat="46.15286" lon="7.0308"><ele></ele><time>2017-6-21T5:14:58Z</time></trkpt>
<trkpt lat="46.15276" lon="7.03078"><ele></ele><time>2017-6-21T5:15:1Z</time></trkpt>
<trkpt lat="46.15267" lon="7.03076"><ele></ele><time>2017-6-21T5:15:4Z</time></trkpt>
<trkpt lat="46.15257" lon="7.03074"><ele></ele><time>2017-6-21T5:15:7Z</time></trkpt>
<trkpt lat="46.15247" lon="7.03072"><ele></ele><time>2017-6-21T5:15:10Z</time></trkpt>
<trkpt lat="46.15237" lon="7.03069"><ele></ele><time>2017-6-21T5:15:13Z</time></trkpt>
<trkpt lat="46.15227" lon="7.03067"><ele></ele><time>2017-6-21T5:15:16Z</time></trkpt>
<trkpt lat="46.15217" lon="7.03065"><ele></ele><time>2017-6-21T5:15:19Z</time></trkpt>
<trkpt lat="46.15207" lon="7.03064"><ele></ele><time>2017-6-21T5:15:22Z</time></trkpt>
<trkpt lat="46.15198" lon="7.03062"><ele></ele><time>2017-6-21T5:15:25Z</time></trkpt>
<trkpt lat="46.15188" lon="7.03061"><ele></ele><time>2017-6-21T5:15:28Z</time></trkpt>
<trkpt lat="46.15178" lon="7.03059"><ele></ele><time>2017-6-21T5:15:31Z</time></trkpt>
<trkpt lat="46.15168" lon="7.03058"><ele></ele><time>2017-6-21T5:15:34Z</time></trkpt>
<trkpt lat="46.15159" lon="7.03056"><ele></ele><time>2017-6-21T5:15:37Z</time></trkpt>
<trkpt lat="46.15149" lon="7.03055"><ele></ele><time>2017-6-21T5:15:40Z</time></trkpt>
<trkpt lat="46.1514" lon="7.03054"><ele></ele><time>2017-6-21T5:15:43Z</time></trkpt>
<trkpt lat="46.15131" lon="7.03053"><ele></ele><time>2017-6-21T5:15:46Z</time></trkpt>
<trkpt lat="46.15121" lon="7.03052"><ele></ele><time>2017-6-21T5:15:49Z</time></trkpt>
<trkpt lat="46.15111" lon="7.03051"><ele></ele><time>2017-6-21T5:15:52Z</time></trkpt>
<trkpt lat="46.15101" lon="7.0305"><ele></ele><time>2017-6-21T5:15:55Z</time></trkpt>
<trkpt lat="46.15091" lon="7.03049"><ele></ele><time>2017-6-21T5:15:58Z</time></trkpt>
<trkpt lat="46.15081" lon="7.03048"><ele></ele><time>2017-6-21T5:16:1Z</time></trkpt>
<trkpt lat="46.15076" lon="7.03047"><ele></ele><time>2017-6-21T5:16:4Z</time></trkpt>
<trkpt lat="46.15071" lon="7.03047"><ele></ele><time>2017-6-21T5:16:7Z</time></trkpt>
<trkpt lat="46.1506" lon="7.03045"><ele></ele><time>2017-6-21T5:16:10Z</time></trkpt>
<trkpt lat="46.1505" lon="7.03044"><ele></ele><time>2017-6-21T5:16:13Z</time></trkpt>
<trkpt lat="46.1504" lon="7.03043"><ele></ele><time>2017-6-21T5:16:16Z</time></trkpt>
<trkpt lat="46.1503" lon="7.03041"><ele></ele><time>2017-6-21T5:16:19Z</time></trkpt>
<trkpt lat="46.15019" lon="7.0304"><ele></ele><time>2017-6-21T5:16:22Z</time></trkpt>
<trkpt lat="46.15009" lon="7.03038"><ele></ele><time>2017-6-21T5:16:25Z</time></trkpt>
<trkpt lat="46.14999" lon="7.03036"><ele></ele><time>2017-6-21T5:16:28Z</time></trkpt>
<trkpt lat="46.14988" lon="7.03034"><ele></ele><time>2017-6-21T5:16:31Z</time></trkpt>
<trkpt lat="46.14978" lon="7.03032"><ele></ele><time>2017-6-21T5:16:34Z</time></trkpt>
<trkpt lat="46.14968" lon="7.03029"><ele></ele><time>2017-6-21T5:16:37Z</time></trkpt>
<trkpt lat="46.14963" lon="7.03028"><ele></ele><time>2017-6-21T5:16:40Z</time></trkpt>
<trkpt lat="46.14958" lon="7.03025"><ele></ele><time>2017-6-21T5:16:43Z</time></trkpt>
<trkpt lat="46.14948" lon="7.0302"><ele></ele><time>2017-6-21T5:16:46Z</time></trkpt>
<trkpt lat="46.14938" lon="7.03016"><ele></ele><time>2017-6-21T5:16:49Z</time></trkpt>
<trkpt lat="46.14928" lon="7.03011"><ele></ele><time>2017-6-21T5:16:52Z</time></trkpt>
<trkpt lat="46.14918" lon="7.03005"><ele></ele><time>2017-6-21T5:16:55Z</time></trkpt>
<trkpt lat="46.1491" lon="7.02995"><ele></ele><time>2017-6-21T5:16:58Z</time></trkpt>
<trkpt lat="46.14906" lon="7.02991"><ele></ele><time>2017-6-21T5:17:1Z</time></trkpt>
<trkpt lat="46.14901" lon="7.02989"><ele></ele><time>2017-6-21T5:17:4Z</time></trkpt>
<trkpt lat="46.1489" lon="7.02984"><ele></ele><time>2017-6-21T5:17:7Z</time></trkpt>
<trkpt lat="46.1488" lon="7.02979"><ele></ele><time>2017-6-21T5:17:10Z</time></trkpt>
<trkpt lat="46.1487" lon="7.02973"><ele></ele><time>2017-6-21T5:17:13Z</time></trkpt>
<trkpt lat="46.14859" lon="7.02969"><ele></ele><time>2017-6-21T5:17:16Z</time></trkpt>
<trkpt lat="46.14849" lon="7.02965"><ele></ele><time>2017-6-21T5:17:19Z</time></trkpt>
<trkpt lat="46.14838" lon="7.02962"><ele></ele><time>2017-6-21T5:17:22Z</time></trkpt>
<trkpt lat="46.14827" lon="7.02958"><ele></ele><time>2017-6-21T5:17:25Z</time></trkpt>
<trkpt lat="46.14821" lon="7.02958"><ele></ele><time>2017-6-21T5:17:28Z</time></trkpt>
<trkpt lat="46.14815" lon="7.02959"><ele></ele><time>2017-6-21T5:17:31Z</time></trkpt>
<trkpt lat="46.14802" lon="7.02962"><ele></ele><time>2017-6-21T5:17:34Z</time></trkpt>
<trkpt lat="46.14789" lon="7.02965"><ele></ele><time>2017-6-21T5:17:37Z</time></trkpt>
<trkpt lat="46.14776" lon="7.02967"><ele></ele><time>2017-6-21T5:17:40Z</time></trkpt>
<trkpt lat="46.14763" lon="7.0297"><ele></ele><time>2017-6-21T5:17:43Z</time></trkpt>
<trkpt lat="46.1475" lon="7.02972"><ele></ele><time>2017-6-21T5:17:46Z</time></trkpt>
<trkpt lat="46.14737" lon="7.02974"><ele></ele><time>2017-6-21T5:17:49Z</time></trkpt>
<trkpt lat="46.14725" lon="7.02977"><ele></ele><time>2017-6-21T5:17:52Z</time></trkpt>
<trkpt lat="46.14715" lon="7.02979"><ele></ele><time>2017-6-21T5:17:55Z</time></trkpt>
<trkpt lat="46.14705" lon="7.02982"><ele></ele><time>2017-6-21T5:17:58Z</time></trkpt>
<trkpt lat="46.14695" lon="7.02985"><ele></ele><time>2017-6-21T5:18:1Z</time></trkpt>
<trkpt lat="46.14686" lon="7.02988"><ele></ele><time>2017-6-21T5:18:4Z</time></trkpt>
<trkpt lat="46.14676" lon="7.02991"><ele></ele><time>2017-6-21T5:18:7Z</time></trkpt>
<trkpt lat="46.14666" lon="7.02993"><ele></ele><time>2017-6-21T5:18:10Z</time></trkpt>
<trkpt lat="46.14657" lon="7.02995"><ele></ele><time>2017-6-21T5:18:13Z</time></trkpt>
<trkpt lat="46.14647" lon="7.02998"><ele></ele><time>2017-6-21T5:18:16Z</time></trkpt>
<trkpt lat="46.14637" lon="7.03"><ele></ele><time>2017-6-21T5:18:19Z</time></trkpt>
<trkpt lat="46.14628" lon="7.03001"><ele></ele><time>2017-6-21T5:18:22Z</time></trkpt>
<trkpt lat="46.1462" lon="7.02996"><ele></ele><time>2017-6-21T5:18:25Z</time></trkpt>
<trkpt lat="46.1462" lon="7.02988"><ele></ele><time>2017-6-21T5:18:28Z</time></trkpt>
<trkpt lat="46.14612" lon="7.02963"><ele></ele><time>2017-6-21T5:18:31Z</time></trkpt>
<trkpt lat="46.14612" lon="7.02963"><ele></ele><time>2017-6-21T5:18:34Z</time></trkpt>
<trkpt lat="46.14604" lon="7.02948"><ele></ele><time>2017-6-21T5:18:37Z</time></trkpt>
<trkpt lat="46.14601" lon="7.02944"><ele></ele><time>2017-6-21T5:18:40Z</time></trkpt>
<trkpt lat="46.14597" lon="7.02946"><ele></ele><time>2017-6-21T5:18:43Z</time></trkpt>
<trkpt lat="46.14593" lon="7.02949"><ele></ele><time>2017-6-21T5:18:46Z</time></trkpt>
<trkpt lat="46.14589" lon="7.0295"><ele></ele><time>2017-6-21T5:18:49Z</time></trkpt>
<trkpt lat="46.14587" lon="7.02944"><ele></ele><time>2017-6-21T5:18:52Z</time></trkpt>
<trkpt lat="46.14588" lon="7.02933"><ele></ele><time>2017-6-21T5:18:55Z</time></trkpt>
<trkpt lat="46.1459" lon="7.02923"><ele></ele><time>2017-6-21T5:18:58Z</time></trkpt>
<trkpt lat="46.14589" lon="7.02919"><ele></ele><time>2017-6-21T5:19:1Z</time></trkpt>
<trkpt lat="46.14585" lon="7.02917"><ele></ele><time>2017-6-21T5:19:4Z</time></trkpt>
<trkpt lat="46.14578" lon="7.02914"><ele></ele><time>2017-6-21T5:19:7Z</time></trkpt>
<trkpt lat="46.14569" lon="7.02916"><ele></ele><time>2017-6-21T5:19:10Z</time></trkpt>
<trkpt lat="46.14564" lon="7.02917"><ele></ele><time>2017-6-21T5:19:13Z</time></trkpt>
<trkpt lat="46.1456" lon="7.02918"><ele></ele><time>2017-6-21T5:19:16Z</time></trkpt>
<trkpt lat="46.1455" lon="7.02919"><ele></ele><time>2017-6-21T5:19:19Z</time></trkpt>
<trkpt lat="46.14541" lon="7.0292"><ele></ele><time>2017-6-21T5:19:22Z</time></trkpt>
<trkpt lat="46.14532" lon="7.02922"><ele></ele><time>2017-6-21T5:19:25Z</time></trkpt>
<trkpt lat="46.14523" lon="7.02923"><ele></ele><time>2017-6-21T5:19:28Z</time></trkpt>
<trkpt lat="46.14518" lon="7.02924"><ele></ele><time>2017-6-21T5:19:31Z</time></trkpt>
<trkpt lat="46.14515" lon="7.02924"><ele></ele><time>2017-6-21T5:19:34Z</time></trkpt>
<trkpt lat="46.14508" lon="7.02925"><ele></ele><time>2017-6-21T5:19:37Z</time></trkpt>
<trkpt lat="46.14501" lon="7.02927"><ele></ele><time>2017-6-21T5:19:40Z</time></trkpt>
<trkpt lat="46.14494" lon="7.02928"><ele></ele><time>2017-6-21T5:19:43Z</time></trkpt>
<trkpt lat="46.14487" lon="7.02929"><ele></ele><time>2017-6-21T5:19:46Z</time></trkpt>
<trkpt lat="46.14481" lon="7.0293"><ele></ele><time>2017-6-21T5:19:49Z</time></trkpt>
<trkpt lat="46.14474" lon="7.02931"><ele></ele><time>2017-6-21T5:19:52Z</time></trkpt>
<trkpt lat="46.14466" lon="7.02933"><ele></ele><time>2017-6-21T5:19:55Z</time></trkpt>
<trkpt lat="46.14459" lon="7.02935"><ele></ele><time>2017-6-21T5:19:58Z</time></trkpt>
<trkpt lat="46.14451" lon="7.02936"><ele></ele><time>2017-6-21T5:20:1Z</time></trkpt>
<trkpt lat="46.14444" lon="7.02938"><ele></ele><time>2017-6-21T5:20:4Z</time></trkpt>
<trkpt lat="46.14436" lon="7.0294"><ele></ele><time>2017-6-21T5:20:7Z</time></trkpt>
<trkpt lat="46.14429" lon="7.02942"><ele></ele><time>2017-6-21T5:20:10Z</time></trkpt>
<trkpt lat="46.1442" lon="7.02943"><ele></ele><time>2017-6-21T5:20:13Z</time></trkpt>
<trkpt lat="46.14412" lon="7.02945"><ele></ele><time>2017-6-21T5:20:16Z</time></trkpt>
<trkpt lat="46.14407" lon="7.02946"><ele></ele><time>2017-6-21T5:20:19Z</time></trkpt>
<trkpt lat="46.14405" lon="7.02946"><ele></ele><time>2017-6-21T5:20:22Z</time></trkpt>
<trkpt lat="46.14396" lon="7.02933"><ele></ele><time>2017-6-21T5:20:25Z</time></trkpt>
<trkpt lat="46.14396" lon="7.02933"><ele></ele><time>2017-6-21T5:20:28Z</time></trkpt>
<trkpt lat="46.14387" lon="7.02921"><ele></ele><time>2017-6-21T5:20:31Z</time></trkpt>
<trkpt lat="46.14384" lon="7.02923"><ele></ele><time>2017-6-21T5:20:34Z</time></trkpt>
<trkpt lat="46.14381" lon="7.02924"><ele></ele><time>2017-6-21T5:20:37Z</time></trkpt>
<trkpt lat="46.14379" lon="7.02926"><ele></ele><time>2017-6-21T5:20:40Z</time></trkpt>
<trkpt lat="46.14378" lon="7.02927"><ele></ele><time>2017-6-21T5:20:43Z</time></trkpt>
<trkpt lat="46.14377" lon="7.02928"><ele></ele><time>2017-6-21T5:20:46Z</time></trkpt>
<trkpt lat="46.14376" lon="7.02932"><ele></ele><time>2017-6-21T5:20:49Z</time></trkpt>
<trkpt lat="46.14375" lon="7.02935"><ele></ele><time>2017-6-21T5:20:52Z</time></trkpt>
<trkpt lat="46.14374" lon="7.02938"><ele></ele><time>2017-6-21T5:20:55Z</time></trkpt>
<trkpt lat="46.14373" lon="7.0294"><ele></ele><time>2017-6-21T5:20:58Z</time></trkpt>
<trkpt lat="46.1437" lon="7.0294"><ele></ele><time>2017-6-21T5:21:1Z</time></trkpt>
<trkpt lat="46.14368" lon="7.02939"><ele></ele><time>2017-6-21T5:21:4Z</time></trkpt>
<trkpt lat="46.14366" lon="7.02938"><ele></ele><time>2017-6-21T5:21:7Z</time></trkpt>
<trkpt lat="46.14364" lon="7.02938"><ele></ele><time>2017-6-21T5:21:10Z</time></trkpt>
<trkpt lat="46.14363" lon="7.0294"><ele></ele><time>2017-6-21T5:21:13Z</time></trkpt>
<trkpt lat="46.14363" lon="7.02942"><ele></ele><time>2017-6-21T5:21:16Z</time></trkpt>
<trkpt lat="46.14363" lon="7.02943"><ele></ele><time>2017-6-21T5:21:19Z</time></trkpt>
<trkpt lat="46.14362" lon="7.02945"><ele></ele><time>2017-6-21T5:21:22Z</time></trkpt>
<trkpt lat="46.14362" lon="7.02947"><ele></ele><time>2017-6-21T5:21:25Z</time></trkpt>
<trkpt lat="46.14362" lon="7.02949"><ele></ele><time>2017-6-21T5:21:28Z</time></trkpt>
<trkpt lat="46.1436" lon="7.02951"><ele></ele><time>2017-6-21T5:21:31Z</time></trkpt>
<trkpt lat="46.14357" lon="7.02954"><ele></ele><time>2017-6-21T5:21:34Z</time></trkpt>
<trkpt lat="46.14351" lon="7.02961"><ele></ele><time>2017-6-21T5:21:37Z</time></trkpt>
<trkpt lat="46.14345" lon="7.02968"><ele></ele><time>2017-6-21T5:21:40Z</time></trkpt>
<trkpt lat="46.14338" lon="7.02975"><ele></ele><time>2017-6-21T5:21:43Z</time></trkpt>
<trkpt lat="46.14332" lon="7.02981"><ele></ele><time>2017-6-21T5:21:46Z</time></trkpt>
<trkpt lat="46.14326" lon="7.02988"><ele></ele><time>2017-6-21T5:21:49Z</time></trkpt>
<trkpt lat="46.14322" lon="7.02991"><ele></ele><time>2017-6-21T5:21:52Z</time></trkpt>
<trkpt lat="46.14318" lon="7.02994"><ele></ele><time>2017-6-21T5:21:55Z</time></trkpt>
<trkpt lat="46.14309" lon="7.02999"><ele></ele><time>2017-6-21T5:21:58Z</time></trkpt>
<trkpt lat="46.14299" lon="7.03004"><ele></ele><time>2017-6-21T5:22:1Z</time></trkpt>
<trkpt lat="46.14294" lon="7.03007"><ele></ele><time>2017-6-21T5:22:4Z</time></trkpt>
<trkpt lat="46.14289" lon="7.03011"><ele></ele><time>2017-6-21T5:22:7Z</time></trkpt>
<trkpt lat="46.14278" lon="7.0302"><ele></ele><time>2017-6-21T5:22:10Z</time></trkpt>
<trkpt lat="46.14266" lon="7.03029"><ele></ele><time>2017-6-21T5:22:13Z</time></trkpt>
<trkpt lat="46.14261" lon="7.03034"><ele></ele><time>2017-6-21T5:22:16Z</time></trkpt>
<trkpt lat="46.14258" lon="7.0304"><ele></ele><time>2017-6-21T5:22:19Z</time></trkpt>
<trkpt lat="46.14251" lon="7.03052"><ele></ele><time>2017-6-21T5:22:22Z</time></trkpt>
<trkpt lat="46.14247" lon="7.03056"><ele></ele><time>2017-6-21T5:22:25Z</time></trkpt>
<trkpt lat="46.14244" lon="7.03057"><ele></ele><time>2017-6-21T5:22:28Z</time></trkpt>
<trkpt lat="46.14239" lon="7.0306"><ele></ele><time>2017-6-21T5:22:31Z</time></trkpt>
<trkpt lat="46.14238" lon="7.03062"><ele></ele><time>2017-6-21T5:22:34Z</time></trkpt>
<trkpt lat="46.14238" lon="7.03067"><ele></ele><time>2017-6-21T5:22:37Z</time></trkpt>
<trkpt lat="46.14232" lon="7.03072"><ele></ele><time>2017-6-21T5:22:40Z</time></trkpt>
<trkpt lat="46.14226" lon="7.03077"><ele></ele><time>2017-6-21T5:22:43Z</time></trkpt>
<trkpt lat="46.1422" lon="7.03083"><ele></ele><time>2017-6-21T5:22:46Z</time></trkpt>
<trkpt lat="46.14214" lon="7.03088"><ele></ele><time>2017-6-21T5:22:49Z</time></trkpt>
<trkpt lat="46.14208" lon="7.03093"><ele></ele><time>2017-6-21T5:22:52Z</time></trkpt>
<trkpt lat="46.14202" lon="7.03099"><ele></ele><time>2017-6-21T5:22:55Z</time></trkpt>
<trkpt lat="46.14199" lon="7.03101"><ele></ele><time>2017-6-21T5:22:58Z</time></trkpt>
<trkpt lat="46.14196" lon="7.03102"><ele></ele><time>2017-6-21T5:23:1Z</time></trkpt>
<trkpt lat="46.1419" lon="7.03105"><ele></ele><time>2017-6-21T5:23:4Z</time></trkpt>
<trkpt lat="46.14183" lon="7.03108"><ele></ele><time>2017-6-21T5:23:7Z</time></trkpt>
<trkpt lat="46.14177" lon="7.0311"><ele></ele><time>2017-6-21T5:23:10Z</time></trkpt>
<trkpt lat="46.14171" lon="7.03113"><ele></ele><time>2017-6-21T5:23:13Z</time></trkpt>
<trkpt lat="46.14167" lon="7.03115"><ele></ele><time>2017-6-21T5:23:16Z</time></trkpt>
<trkpt lat="46.14161" lon="7.03116"><ele></ele><time>2017-6-21T5:23:19Z</time></trkpt>
<trkpt lat="46.14148" lon="7.03119"><ele></ele><time>2017-6-21T5:23:22Z</time></trkpt>
<trkpt lat="46.14137" lon="7.03124"><ele></ele><time>2017-6-21T5:23:25Z</time></trkpt>
<trkpt lat="46.14128" lon="7.03134"><ele></ele><time>2017-6-21T5:23:28Z</time></trkpt>
<trkpt lat="46.14123" lon="7.03137"><ele></ele><time>2017-6-21T5:23:31Z</time></trkpt>
<trkpt lat="46.1412" lon="7.03143"><ele></ele><time>2017-6-21T5:23:34Z</time></trkpt>
<trkpt lat="46.14114" lon="7.03154"><ele></ele><time>2017-6-21T5:23:37Z</time></trkpt>
<trkpt lat="46.14104" lon="7.03161"><ele></ele><time>2017-6-21T5:23:40Z</time></trkpt>
<trkpt lat="46.14094" lon="7.03167"><ele></ele><time>2017-6-21T5:23:43Z</time></trkpt>
<trkpt lat="46.14084" lon="7.03174"><ele></ele><time>2017-6-21T5:23:46Z</time></trkpt>
<trkpt lat="46.1408" lon="7.03176"><ele></ele><time>2017-6-21T5:23:49Z</time></trkpt>
<trkpt lat="46.14078" lon="7.03176"><ele></ele><time>2017-6-21T5:23:52Z</time></trkpt>
<trkpt lat="46.14075" lon="7.03177"><ele></ele><time>2017-6-21T5:23:55Z</time></trkpt>
<trkpt lat="46.14073" lon="7.03181"><ele></ele><time>2017-6-21T5:23:58Z</time></trkpt>
<trkpt lat="46.14068" lon="7.03188"><ele></ele><time>2017-6-21T5:24:1Z</time></trkpt>
<trkpt lat="46.14064" lon="7.03195"><ele></ele><time>2017-6-21T5:24:4Z</time></trkpt>
<trkpt lat="46.14061" lon="7.03199"><ele></ele><time>2017-6-21T5:24:7Z</time></trkpt>
<trkpt lat="46.14059" lon="7.032"><ele></ele><time>2017-6-21T5:24:10Z</time></trkpt>
<trkpt lat="46.14054" lon="7.03204"><ele></ele><time>2017-6-21T5:24:13Z</time></trkpt>
<trkpt lat="46.14049" lon="7.03208"><ele></ele><time>2017-6-21T5:24:16Z</time></trkpt>
<trkpt lat="46.14047" lon="7.0321"><ele></ele><time>2017-6-21T5:24:19Z</time></trkpt>
<trkpt lat="46.14045" lon="7.03212"><ele></ele><time>2017-6-21T5:24:22Z</time></trkpt>
<trkpt lat="46.1404" lon="7.03216"><ele></ele><time>2017-6-21T5:24:25Z</time></trkpt>
<trkpt lat="46.14035" lon="7.0322"><ele></ele><time>2017-6-21T5:24:28Z</time></trkpt>
<trkpt lat="46.14032" lon="7.03223"><ele></ele><time>2017-6-21T5:24:31Z</time></trkpt>
<trkpt lat="46.14028" lon="7.0323"><ele></ele><time>2017-6-21T5:24:34Z</time></trkpt>
<trkpt lat="46.14021" lon="7.03243"><ele></ele><time>2017-6-21T5:24:37Z</time></trkpt>
<trkpt lat="46.14017" lon="7.03249"><ele></ele><time>2017-6-21T5:24:40Z</time></trkpt>
<trkpt lat="46.14013" lon="7.03254"><ele></ele><time>2017-6-21T5:24:43Z</time></trkpt>
<trkpt lat="46.14009" lon="7.03259"><ele></ele><time>2017-6-21T5:24:46Z</time></trkpt>
<trkpt lat="46.14004" lon="7.03264"><ele></ele><time>2017-6-21T5:24:49Z</time></trkpt>
<trkpt lat="46.14" lon="7.03268"><ele></ele><time>2017-6-21T5:24:52Z</time></trkpt>
<trkpt lat="46.13994" lon="7.03272"><ele></ele><time>2017-6-21T5:24:55Z</time></trkpt>
<trkpt lat="46.13984" lon="7.0328"><ele></ele><time>2017-6-21T5:24:58Z</time></trkpt>
<trkpt lat="46.1398" lon="7.03285"><ele></ele><time>2017-6-21T5:25:1Z</time></trkpt>
<trkpt lat="46.13976" lon="7.03286"><ele></ele><time>2017-6-21T5:25:4Z</time></trkpt>
<trkpt lat="46.13968" lon="7.03287"><ele></ele><time>2017-6-21T5:25:7Z</time></trkpt>
<trkpt lat="46.1396" lon="7.03289"><ele></ele><time>2017-6-21T5:25:10Z</time></trkpt>
<trkpt lat="46.13956" lon="7.0329"><ele></ele><time>2017-6-21T5:25:13Z</time></trkpt>
<trkpt lat="46.13953" lon="7.03289"><ele></ele><time>2017-6-21T5:25:16Z</time></trkpt>
<trkpt lat="46.13952" lon="7.03287"><ele></ele><time>2017-6-21T5:25:19Z</time></trkpt>
<trkpt lat="46.13949" lon="7.03287"><ele></ele><time>2017-6-21T5:25:22Z</time></trkpt>
<trkpt lat="46.13945" lon="7.03288"><ele></ele><time>2017-6-21T5:25:25Z</time></trkpt>
<trkpt lat="46.13941" lon="7.0329"><ele></ele><time>2017-6-21T5:25:28Z</time></trkpt>
<trkpt lat="46.13933" lon="7.03292"><ele></ele><time>2017-6-21T5:25:31Z</time></trkpt>
<trkpt lat="46.13924" lon="7.03295"><ele></ele><time>2017-6-21T5:25:34Z</time></trkpt>
<trkpt lat="46.13916" lon="7.03298"><ele></ele><time>2017-6-21T5:25:37Z</time></trkpt>
<trkpt lat="46.13912" lon="7.03299"><ele></ele><time>2017-6-21T5:25:40Z</time></trkpt>
<trkpt lat="46.13908" lon="7.03301"><ele></ele><time>2017-6-21T5:25:43Z</time></trkpt>
<trkpt lat="46.13899" lon="7.03302"><ele></ele><time>2017-6-21T5:25:46Z</time></trkpt>
<trkpt lat="46.1389" lon="7.03297"><ele></ele><time>2017-6-21T5:25:49Z</time></trkpt>
<trkpt lat="46.13881" lon="7.03296"><ele></ele><time>2017-6-21T5:25:52Z</time></trkpt>
<trkpt lat="46.13873" lon="7.03296"><ele></ele><time>2017-6-21T5:25:55Z</time></trkpt>
<trkpt lat="46.13864" lon="7.03296"><ele></ele><time>2017-6-21T5:25:58Z</time></trkpt>
<trkpt lat="46.13855" lon="7.03301"><ele></ele><time>2017-6-21T5:26:1Z</time></trkpt>
<trkpt lat="46.13851" lon="7.03303"><ele></ele><time>2017-6-21T5:26:4Z</time></trkpt>
<trkpt lat="46.13847" lon="7.03302"><ele></ele><time>2017-6-21T5:26:7Z</time></trkpt>
<trkpt lat="46.1384" lon="7.03302"><ele></ele><time>2017-6-21T5:26:10Z</time></trkpt>
<trkpt lat="46.13833" lon="7.03301"><ele></ele><time>2017-6-21T5:26:13Z</time></trkpt>
<trkpt lat="46.13826" lon="7.033"><ele></ele><time>2017-6-21T5:26:16Z</time></trkpt>
<trkpt lat="46.13823" lon="7.03302"><ele></ele><time>2017-6-21T5:26:19Z</time></trkpt>
<trkpt lat="46.13824" lon="7.03308"><ele></ele><time>2017-6-21T5:26:22Z</time></trkpt>
<trkpt lat="46.13825" lon="7.03321"><ele></ele><time>2017-6-21T5:26:25Z</time></trkpt>
<trkpt lat="46.13826" lon="7.03334"><ele></ele><time>2017-6-21T5:26:28Z</time></trkpt>
<trkpt lat="46.13827" lon="7.03347"><ele></ele><time>2017-6-21T5:26:31Z</time></trkpt>
<trkpt lat="46.13827" lon="7.03359"><ele></ele><time>2017-6-21T5:26:34Z</time></trkpt>
<trkpt lat="46.13828" lon="7.03372"><ele></ele><time>2017-6-21T5:26:37Z</time></trkpt>
<trkpt lat="46.13829" lon="7.03382"><ele></ele><time>2017-6-21T5:26:40Z</time></trkpt>
<trkpt lat="46.13828" lon="7.03389"><ele></ele><time>2017-6-21T5:26:43Z</time></trkpt>
<trkpt lat="46.13826" lon="7.03397"><ele></ele><time>2017-6-21T5:26:46Z</time></trkpt>
<trkpt lat="46.13822" lon="7.034"><ele></ele><time>2017-6-21T5:26:49Z</time></trkpt>
<trkpt lat="46.13812" lon="7.03405"><ele></ele><time>2017-6-21T5:26:52Z</time></trkpt>
<trkpt lat="46.13803" lon="7.03409"><ele></ele><time>2017-6-21T5:26:55Z</time></trkpt>
<trkpt lat="46.13793" lon="7.03414"><ele></ele><time>2017-6-21T5:26:58Z</time></trkpt>
<trkpt lat="46.13783" lon="7.03418"><ele></ele><time>2017-6-21T5:27:1Z</time></trkpt>
<trkpt lat="46.13779" lon="7.0342"><ele></ele><time>2017-6-21T5:27:4Z</time></trkpt>
<trkpt lat="46.13774" lon="7.03423"><ele></ele><time>2017-6-21T5:27:7Z</time></trkpt>
<trkpt lat="46.13764" lon="7.03428"><ele></ele><time>2017-6-21T5:27:10Z</time></trkpt>
<trkpt lat="46.13755" lon="7.03433"><ele></ele><time>2017-6-21T5:27:13Z</time></trkpt>
<trkpt lat="46.13745" lon="7.03438"><ele></ele><time>2017-6-21T5:27:16Z</time></trkpt>
<trkpt lat="46.13736" lon="7.03443"><ele></ele><time>2017-6-21T5:27:19Z</time></trkpt>
<trkpt lat="46.13725" lon="7.03449"><ele></ele><time>2017-6-21T5:27:22Z</time></trkpt>
<trkpt lat="46.13715" lon="7.03455"><ele></ele><time>2017-6-21T5:27:25Z</time></trkpt>
<trkpt lat="46.13705" lon="7.03461"><ele></ele><time>2017-6-21T5:27:28Z</time></trkpt>
<trkpt lat="46.13695" lon="7.03467"><ele></ele><time>2017-6-21T5:27:31Z</time></trkpt>
<trkpt lat="46.1369" lon="7.0347"><ele></ele><time>2017-6-21T5:27:34Z</time></trkpt>
<trkpt lat="46.13685" lon="7.03473"><ele></ele><time>2017-6-21T5:27:37Z</time></trkpt>
<trkpt lat="46.13675" lon="7.0348"><ele></ele><time>2017-6-21T5:27:40Z</time></trkpt>
<trkpt lat="46.13666" lon="7.03486"><ele></ele><time>2017-6-21T5:27:43Z</time></trkpt>
<trkpt lat="46.13656" lon="7.03492"><ele></ele><time>2017-6-21T5:27:46Z</time></trkpt>
<trkpt lat="46.13646" lon="7.03498"><ele></ele><time>2017-6-21T5:27:49Z</time></trkpt>
<trkpt lat="46.13636" lon="7.03503"><ele></ele><time>2017-6-21T5:27:52Z</time></trkpt>
<trkpt lat="46.13627" lon="7.03509"><ele></ele><time>2017-6-21T5:27:55Z</time></trkpt>
<trkpt lat="46.13617" lon="7.03515"><ele></ele><time>2017-6-21T5:27:58Z</time></trkpt>
<trkpt lat="46.13612" lon="7.03517"><ele></ele><time>2017-6-21T5:28:1Z</time></trkpt>
<trkpt lat="46.13609" lon="7.0352"><ele></ele><time>2017-6-21T5:28:4Z</time></trkpt>
<trkpt lat="46.13601" lon="7.03525"><ele></ele><time>2017-6-21T5:28:7Z</time></trkpt>
<trkpt lat="46.13594" lon="7.03531"><ele></ele><time>2017-6-21T5:28:10Z</time></trkpt>
<trkpt lat="46.13586" lon="7.03536"><ele></ele><time>2017-6-21T5:28:13Z</time></trkpt>
<trkpt lat="46.13579" lon="7.03541"><ele></ele><time>2017-6-21T5:28:16Z</time></trkpt>
<trkpt lat="46.13571" lon="7.03546"><ele></ele><time>2017-6-21T5:28:19Z</time></trkpt>
<trkpt lat="46.13568" lon="7.03549"><ele></ele><time>2017-6-21T5:28:22Z</time></trkpt>
<trkpt lat="46.13563" lon="7.03552"><ele></ele><time>2017-6-21T5:28:25Z</time></trkpt>
<trkpt lat="46.13555" lon="7.03559"><ele></ele><time>2017-6-21T5:28:28Z</time></trkpt>
<trkpt lat="46.13547" lon="7.03565"><ele></ele><time>2017-6-21T5:28:31Z</time></trkpt>
<trkpt lat="46.13543" lon="7.03567"><ele></ele><time>2017-6-21T5:28:34Z</time></trkpt>
<trkpt lat="46.13538" lon="7.03569"><ele></ele><time>2017-6-21T5:28:37Z</time></trkpt>
<trkpt lat="46.13533" lon="7.0357"><ele></ele><time>2017-6-21T5:28:40Z</time></trkpt>
<trkpt lat="46.13529" lon="7.03572"><ele></ele><time>2017-6-21T5:28:43Z</time></trkpt>
<trkpt lat="46.1352" lon="7.03576"><ele></ele><time>2017-6-21T5:28:46Z</time></trkpt>
<trkpt lat="46.13511" lon="7.0358"><ele></ele><time>2017-6-21T5:28:49Z</time></trkpt>
<trkpt lat="46.13502" lon="7.03584"><ele></ele><time>2017-6-21T5:28:52Z</time></trkpt>
<trkpt lat="46.13493" lon="7.03588"><ele></ele><time>2017-6-21T5:28:55Z</time></trkpt>
<trkpt lat="46.13489" lon="7.0359"><ele></ele><time>2017-6-21T5:28:58Z</time></trkpt>
<trkpt lat="46.13485" lon="7.03591"><ele></ele><time>2017-6-21T5:29:1Z</time></trkpt>
<trkpt lat="46.13477" lon="7.03592"><ele></ele><time>2017-6-21T5:29:4Z</time></trkpt>
<trkpt lat="46.13469" lon="7.03593"><ele></ele><time>2017-6-21T5:29:7Z</time></trkpt>
<trkpt lat="46.13466" lon="7.03592"><ele></ele><time>2017-6-21T5:29:10Z</time></trkpt>
<trkpt lat="46.13462" lon="7.03589"><ele></ele><time>2017-6-21T5:29:13Z</time></trkpt>
<trkpt lat="46.13455" lon="7.03583"><ele></ele><time>2017-6-21T5:29:16Z</time></trkpt>
<trkpt lat="46.13448" lon="7.03577"><ele></ele><time>2017-6-21T5:29:19Z</time></trkpt>
<trkpt lat="46.13442" lon="7.03571"><ele></ele><time>2017-6-21T5:29:22Z</time></trkpt>
<trkpt lat="46.13435" lon="7.03565"><ele></ele><time>2017-6-21T5:29:25Z</time></trkpt>
<trkpt lat="46.13428" lon="7.03559"><ele></ele><time>2017-6-21T5:29:28Z</time></trkpt>
<trkpt lat="46.13419" lon="7.03555"><ele></ele><time>2017-6-21T5:29:31Z</time></trkpt>
<trkpt lat="46.13411" lon="7.0355"><ele></ele><time>2017-6-21T5:29:34Z</time></trkpt>
<trkpt lat="46.13403" lon="7.03546"><ele></ele><time>2017-6-21T5:29:37Z</time></trkpt>
<trkpt lat="46.13394" lon="7.03541"><ele></ele><time>2017-6-21T5:29:40Z</time></trkpt>
<trkpt lat="46.13391" lon="7.03539"><ele></ele><time>2017-6-21T5:29:43Z</time></trkpt>
<trkpt lat="46.13391" lon="7.03537"><ele></ele><time>2017-6-21T5:29:46Z</time></trkpt>
<trkpt lat="46.13389" lon="7.03532"><ele></ele><time>2017-6-21T5:29:49Z</time></trkpt>
<trkpt lat="46.13388" lon="7.03528"><ele></ele><time>2017-6-21T5:29:52Z</time></trkpt>
<trkpt lat="46.13386" lon="7.03524"><ele></ele><time>2017-6-21T5:29:55Z</time></trkpt>
<trkpt lat="46.13385" lon="7.03519"><ele></ele><time>2017-6-21T5:29:58Z</time></trkpt>
<trkpt lat="46.13383" lon="7.03515"><ele></ele><time>2017-6-21T5:30:1Z</time></trkpt>
<trkpt lat="46.13383" lon="7.0351"><ele></ele><time>2017-6-21T5:30:4Z</time></trkpt>
<trkpt lat="46.13384" lon="7.03508"><ele></ele><time>2017-6-21T5:30:7Z</time></trkpt>
<trkpt lat="46.13384" lon="7.03506"><ele></ele><time>2017-6-21T5:30:10Z</time></trkpt>
<trkpt lat="46.13384" lon="7.03501"><ele></ele><time>2017-6-21T5:30:13Z</time></trkpt>
<trkpt lat="46.13384" lon="7.03497"><ele></ele><time>2017-6-21T5:30:16Z</time></trkpt>
<trkpt lat="46.13384" lon="7.03492"><ele></ele><time>2017-6-21T5:30:19Z</time></trkpt>
<trkpt lat="46.13384" lon="7.03488"><ele></ele><time>2017-6-21T5:30:22Z</time></trkpt>
<trkpt lat="46.13384" lon="7.03484"><ele></ele><time>2017-6-21T5:30:25Z</time></trkpt>
<trkpt lat="46.13384" lon="7.03479"><ele></ele><time>2017-6-21T5:30:28Z</time></trkpt>
<trkpt lat="46.13384" lon="7.03475"><ele></ele><time>2017-6-21T5:30:31Z</time></trkpt>
<trkpt lat="46.13384" lon="7.03472"><ele></ele><time>2017-6-21T5:30:34Z</time></trkpt>
<trkpt lat="46.13384" lon="7.0347"><ele></ele><time>2017-6-21T5:30:37Z</time></trkpt>
<trkpt lat="46.13384" lon="7.03466"><ele></ele><time>2017-6-21T5:30:40Z</time></trkpt>
<trkpt lat="46.13385" lon="7.03461"><ele></ele><time>2017-6-21T5:30:43Z</time></trkpt>
<trkpt lat="46.13385" lon="7.03457"><ele></ele><time>2017-6-21T5:30:46Z</time></trkpt>
<trkpt lat="46.13385" lon="7.03452"><ele></ele><time>2017-6-21T5:30:49Z</time></trkpt>
<trkpt lat="46.13385" lon="7.03451"><ele></ele><time>2017-6-21T5:30:52Z</time></trkpt>
<trkpt lat="46.13385" lon="7.0345"><ele></ele><time>2017-6-21T5:30:55Z</time></trkpt>
<trkpt lat="46.13385" lon="7.0345"><ele></ele><time>2017-6-21T5:30:58Z</time></trkpt>
<trkpt lat="46.13385" lon="7.03449"><ele></ele><time>2017-6-21T5:31:1Z</time></trkpt>
<trkpt lat="46.13385" lon="7.03449"><ele></ele><time>2017-6-21T5:31:4Z</time></trkpt>
<trkpt lat="46.13385" lon="7.03448"><ele></ele><time>2017-6-21T5:31:7Z</time></trkpt>
<trkpt lat="46.13385" lon="7.03447"><ele></ele><time>2017-6-21T5:31:10Z</time></trkpt>
<trkpt lat="46.134" lon="7.03411"><ele></ele><time>2017-6-21T5:31:13Z</time></trkpt>
<trkpt lat="46.134" lon="7.03411"><ele></ele><time>2017-6-21T5:31:16Z</time></trkpt>
<trkpt lat="46.13415" lon="7.03376"><ele></ele><time>2017-6-21T5:31:19Z</time></trkpt>
<trkpt lat="46.13415" lon="7.03374"><ele></ele><time>2017-6-21T5:31:22Z</time></trkpt>
<trkpt lat="46.13416" lon="7.03373"><ele></ele><time>2017-6-21T5:31:25Z</time></trkpt>
<trkpt lat="46.13417" lon="7.03372"><ele></ele><time>2017-6-21T5:31:28Z</time></trkpt>
<trkpt lat="46.13418" lon="7.03371"><ele></ele><time>2017-6-21T5:31:31Z</time></trkpt>
<trkpt lat="46.13419" lon="7.0337"><ele></ele><time>2017-6-21T5:31:34Z</time></trkpt>
<trkpt lat="46.13419" lon="7.03368"><ele></ele><time>2017-6-21T5:31:37Z</time></trkpt>
<trkpt lat="46.1342" lon="7.03367"><ele></ele><time>2017-6-21T5:31:40Z</time></trkpt>
<trkpt lat="46.13421" lon="7.03366"><ele></ele><time>2017-6-21T5:31:43Z</time></trkpt>
<trkpt lat="46.13422" lon="7.03365"><ele></ele><time>2017-6-21T5:31:46Z</time></trkpt>
<trkpt lat="46.13422" lon="7.03364"><ele></ele><time>2017-6-21T5:31:49Z</time></trkpt>
<trkpt lat="46.13423" lon="7.03363"><ele></ele><time>2017-6-21T5:31:52Z</time></trkpt>
<trkpt lat="46.13424" lon="7.03361"><ele></ele><time>2017-6-21T5:31:55Z</time></trkpt>
<trkpt lat="46.13414" lon="7.03362"><ele></ele><time>2017-6-21T5:31:58Z</time></trkpt>
<trkpt lat="46.13414" lon="7.03362"><ele></ele><time>2017-6-21T5:32:1Z</time></trkpt>
<trkpt lat="46.13403" lon="7.03364"><ele></ele><time>2017-6-21T5:32:4Z</time></trkpt>
<trkpt lat="46.13402" lon="7.03365"><ele></ele><time>2017-6-21T5:32:7Z</time></trkpt>
<trkpt lat="46.13401" lon="7.03365"><ele></ele><time>2017-6-21T5:32:10Z</time></trkpt>
<trkpt lat="46.134" lon="7.03366"><ele></ele><time>2017-6-21T5:32:13Z</time></trkpt>
<trkpt lat="46.13398" lon="7.03367"><ele></ele><time>2017-6-21T5:32:16Z</time></trkpt>
<trkpt lat="46.13397" lon="7.03367"><ele></ele><time>2017-6-21T5:32:19Z</time></trkpt>
<trkpt lat="46.13396" lon="7.03368"><ele></ele><time>2017-6-21T5:32:22Z</time></trkpt>
<trkpt lat="46.13395" lon="7.03369"><ele></ele><time>2017-6-21T5:32:25Z</time></trkpt>
<trkpt lat="46.13394" lon="7.03369"><ele></ele><time>2017-6-21T5:32:28Z</time></trkpt>
<trkpt lat="46.13393" lon="7.0337"><ele></ele><time>2017-6-21T5:32:31Z</time></trkpt>
<trkpt lat="46.13392" lon="7.0337"><ele></ele><time>2017-6-21T5:32:34Z</time></trkpt>
<trkpt lat="46.13391" lon="7.03371"><ele></ele><time>2017-6-21T5:32:37Z</time></trkpt>
<trkpt lat="46.1339" lon="7.03371"><ele></ele><time>2017-6-21T5:32:40Z</time></trkpt>
<trkpt lat="46.13389" lon="7.03372"><ele></ele><time>2017-6-21T5:32:43Z</time></trkpt>
<trkpt lat="46.13388" lon="7.03373"><ele></ele><time>2017-6-21T5:32:46Z</time></trkpt>
<trkpt lat="46.13387" lon="7.03374"><ele></ele><time>2017-6-21T5:32:49Z</time></trkpt>
<trkpt lat="46.13385" lon="7.03376"><ele></ele><time>2017-6-21T5:32:52Z</time></trkpt>
<trkpt lat="46.13382" lon="7.03378"><ele></ele><time>2017-6-21T5:32:55Z</time></trkpt>
<trkpt lat="46.1338" lon="7.0338"><ele></ele><time>2017-6-21T5:32:58Z</time></trkpt>
<trkpt lat="46.13377" lon="7.03382"><ele></ele><time>2017-6-21T5:33:1Z</time></trkpt>
<trkpt lat="46.13375" lon="7.03384"><ele></ele><time>2017-6-21T5:33:4Z</time></trkpt>
<trkpt lat="46.13373" lon="7.03386"><ele></ele><time>2017-6-21T5:33:7Z</time></trkpt>
<trkpt lat="46.1337" lon="7.03388"><ele></ele><time>2017-6-21T5:33:10Z</time></trkpt>
<trkpt lat="46.13368" lon="7.0339"><ele></ele><time>2017-6-21T5:33:13Z</time></trkpt>
<trkpt lat="46.13366" lon="7.03392"><ele></ele><time>2017-6-21T5:33:16Z</time></trkpt>
<trkpt lat="46.13363" lon="7.03394"><ele></ele><time>2017-6-21T5:33:19Z</time></trkpt>
<trkpt lat="46.13361" lon="7.03396"><ele></ele><time>2017-6-21T5:33:22Z</time></trkpt>
<trkpt lat="46.13358" lon="7.03398"><ele></ele><time>2017-6-21T5:33:25Z</time></trkpt>
<trkpt lat="46.13356" lon="7.034"><ele></ele><time>2017-6-21T5:33:28Z</time></trkpt>
<trkpt lat="46.13354" lon="7.03402"><ele></ele><time>2017-6-21T5:33:31Z</time></trkpt>
<trkpt lat="46.13351" lon="7.03404"><ele></ele><time>2017-6-21T5:33:34Z</time></trkpt>
<trkpt lat="46.1335" lon="7.03405"><ele></ele><time>2017-6-21T5:33:37Z</time></trkpt>
<trkpt lat="46.13349" lon="7.03405"><ele></ele><time>2017-6-21T5:33:40Z</time></trkpt>
<trkpt lat="46.13348" lon="7.03404"><ele></ele><time>2017-6-21T5:33:43Z</time></trkpt>
<trkpt lat="46.13347" lon="7.03403"><ele></ele><time>2017-6-21T5:33:46Z</time></trkpt>
<trkpt lat="46.13346" lon="7.03402"><ele></ele><time>2017-6-21T5:33:49Z</time></trkpt>
<trkpt lat="46.13348" lon="7.034"><ele></ele><time>2017-6-21T5:33:52Z</time></trkpt>
<trkpt lat="46.13349" lon="7.03397"><ele></ele><time>2017-6-21T5:33:55Z</time></trkpt>
<trkpt lat="46.13351" lon="7.03395"><ele></ele><time>2017-6-21T5:33:58Z</time></trkpt>
<trkpt lat="46.13353" lon="7.03392"><ele></ele><time>2017-6-21T5:34:1Z</time></trkpt>
<trkpt lat="46.13355" lon="7.0339"><ele></ele><time>2017-6-21T5:34:4Z</time></trkpt>
<trkpt lat="46.13357" lon="7.03387"><ele></ele><time>2017-6-21T5:34:7Z</time></trkpt>
<trkpt lat="46.13358" lon="7.03385"><ele></ele><time>2017-6-21T5:34:10Z</time></trkpt>
<trkpt lat="46.1336" lon="7.03382"><ele></ele><time>2017-6-21T5:34:13Z</time></trkpt>
<trkpt lat="46.13362" lon="7.0338"><ele></ele><time>2017-6-21T5:34:16Z</time></trkpt>
<trkpt lat="46.13364" lon="7.03377"><ele></ele><time>2017-6-21T5:34:19Z</time></trkpt>
<trkpt lat="46.13366" lon="7.03375"><ele></ele><time>2017-6-21T5:34:22Z</time></trkpt>
<trkpt lat="46.13367" lon="7.03372"><ele></ele><time>2017-6-21T5:34:25Z</time></trkpt>
<trkpt lat="46.13369" lon="7.0337"><ele></ele><time>2017-6-21T5:34:28Z</time></trkpt>
<trkpt lat="46.13371" lon="7.03368"><ele></ele><time>2017-6-21T5:34:31Z</time></trkpt>
<trkpt lat="46.13373" lon="7.03365"><ele></ele><time>2017-6-21T5:34:34Z</time></trkpt>
<trkpt lat="46.13375" lon="7.03363"><ele></ele><time>2017-6-21T5:34:37Z</time></trkpt>
<trkpt lat="46.13376" lon="7.0336"><ele></ele><time>2017-6-21T5:34:40Z</time></trkpt>
<trkpt lat="46.13378" lon="7.03358"><ele></ele><time>2017-6-21T5:34:43Z</time></trkpt>
<trkpt lat="46.13379" lon="7.03357"><ele></ele><time>2017-6-21T5:34:46Z</time></trkpt>
<trkpt lat="46.1338" lon="7.03356"><ele></ele><time>2017-6-21T5:34:49Z</time></trkpt>
<trkpt lat="46.13382" lon="7.03354"><ele></ele><time>2017-6-21T5:34:52Z</time></trkpt>
<trkpt lat="46.13384" lon="7.03352"><ele></ele><time>2017-6-21T5:34:55Z</time></trkpt>
<trkpt lat="46.13387" lon="7.03349"><ele></ele><time>2017-6-21T5:34:58Z</time></trkpt>
<trkpt lat="46.13389" lon="7.03347"><ele></ele><time>2017-6-21T5:35:1Z</time></trkpt>
<trkpt lat="46.13391" lon="7.03345"><ele></ele><time>2017-6-21T5:35:4Z</time></trkpt>
<trkpt lat="46.13393" lon="7.03343"><ele></ele><time>2017-6-21T5:35:7Z</time></trkpt>
<trkpt lat="46.13395" lon="7.03341"><ele></ele><time>2017-6-21T5:35:10Z</time></trkpt>
<trkpt lat="46.13397" lon="7.03339"><ele></ele><time>2017-6-21T5:35:13Z</time></trkpt>
<trkpt lat="46.134" lon="7.03337"><ele></ele><time>2017-6-21T5:35:16Z</time></trkpt>
<trkpt lat="46.13402" lon="7.03335"><ele></ele><time>2017-6-21T5:35:19Z</time></trkpt>
<trkpt lat="46.13404" lon="7.03333"><ele></ele><time>2017-6-21T5:35:22Z</time></trkpt>
<trkpt lat="46.13405" lon="7.03332"><ele></ele><time>2017-6-21T5:35:25Z</time></trkpt>
<trkpt lat="46.13406" lon="7.03331"><ele></ele><time>2017-6-21T5:35:28Z</time></trkpt>
<trkpt lat="46.13408" lon="7.03329"><ele></ele><time>2017-6-21T5:35:31Z</time></trkpt>
<trkpt lat="46.1341" lon="7.03327"><ele></ele><time>2017-6-21T5:35:34Z</time></trkpt>
<trkpt lat="46.13413" lon="7.03325"><ele></ele><time>2017-6-21T5:35:37Z</time></trkpt>
<trkpt lat="46.13415" lon="7.03323"><ele></ele><time>2017-6-21T5:35:40Z</time></trkpt>
<trkpt lat="46.13416" lon="7.03321"><ele></ele><time>2017-6-21T5:35:43Z</time></trkpt>
<trkpt lat="46.13416" lon="7.03319"><ele></ele><time>2017-6-21T5:35:46Z</time></trkpt>
<trkpt lat="46.13415" lon="7.03316"><ele></ele><time>2017-6-21T5:35:49Z</time></trkpt>
<trkpt lat="46.13414" lon="7.03314"><ele></ele><time>2017-6-21T5:35:52Z</time></trkpt>
<trkpt lat="46.13411" lon="7.03316"><ele></ele><time>2017-6-21T5:35:55Z</time></trkpt>
<trkpt lat="46.13409" lon="7.03318"><ele></ele><time>2017-6-21T5:35:58Z</time></trkpt>
<trkpt lat="46.13407" lon="7.03319"><ele></ele><time>2017-6-21T5:36:1Z</time></trkpt>
<trkpt lat="46.13406" lon="7.0332"><ele></ele><time>2017-6-21T5:36:4Z</time></trkpt>
<trkpt lat="46.13404" lon="7.03321"><ele></ele><time>2017-6-21T5:36:7Z</time></trkpt>
<trkpt lat="46.13401" lon="7.03323"><ele></ele><time>2017-6-21T5:36:10Z</time></trkpt>
<trkpt lat="46.13398" lon="7.03325"><ele></ele><time>2017-6-21T5:36:13Z</time></trkpt>
<trkpt lat="46.13396" lon="7.03326"><ele></ele><time>2017-6-21T5:36:16Z</time></trkpt>
<trkpt lat="46.13393" lon="7.03328"><ele></ele><time>2017-6-21T5:36:19Z</time></trkpt>
<trkpt lat="46.13391" lon="7.0333"><ele></ele><time>2017-6-21T5:36:22Z</time></trkpt>
<trkpt lat="46.13388" lon="7.03331"><ele></ele><time>2017-6-21T5:36:25Z</time></trkpt>
<trkpt lat="46.13386" lon="7.03333"><ele></ele><time>2017-6-21T5:36:28Z</time></trkpt>
<trkpt lat="46.13383" lon="7.03335"><ele></ele><time>2017-6-21T5:36:31Z</time></trkpt>
<trkpt lat="46.1338" lon="7.03337"><ele></ele><time>2017-6-21T5:36:34Z</time></trkpt>
<trkpt lat="46.13378" lon="7.03338"><ele></ele><time>2017-6-21T5:36:37Z</time></trkpt>
<trkpt lat="46.13375" lon="7.0334"><ele></ele><time>2017-6-21T5:36:40Z</time></trkpt>
<trkpt lat="46.13373" lon="7.03342"><ele></ele><time>2017-6-21T5:36:43Z</time></trkpt>
<trkpt lat="46.1337" lon="7.03343"><ele></ele><time>2017-6-21T5:36:46Z</time></trkpt>
<trkpt lat="46.13368" lon="7.03345"><ele></ele><time>2017-6-21T5:36:49Z</time></trkpt>
<trkpt lat="46.13366" lon="7.03347"><ele></ele><time>2017-6-21T5:36:52Z</time></trkpt>
<trkpt lat="46.13363" lon="7.03348"><ele></ele><time>2017-6-21T5:36:55Z</time></trkpt>
<trkpt lat="46.13361" lon="7.0335"><ele></ele><time>2017-6-21T5:36:58Z</time></trkpt>
<trkpt lat="46.13358" lon="7.03351"><ele></ele><time>2017-6-21T5:37:1Z</time></trkpt>
<trkpt lat="46.13356" lon="7.03353"><ele></ele><time>2017-6-21T5:37:4Z</time></trkpt>
<trkpt lat="46.13354" lon="7.03355"><ele></ele><time>2017-6-21T5:37:7Z</time></trkpt>
<trkpt lat="46.13351" lon="7.03356"><ele></ele><time>2017-6-21T5:37:10Z</time></trkpt>
<trkpt lat="46.13349" lon="7.03358"><ele></ele><time>2017-6-21T5:37:13Z</time></trkpt>
<trkpt lat="46.13346" lon="7.03359"><ele></ele><time>2017-6-21T5:37:16Z</time></trkpt>
<trkpt lat="46.13344" lon="7.03361"><ele></ele><time>2017-6-21T5:37:19Z</time></trkpt>
<trkpt lat="46.13342" lon="7.03363"><ele></ele><time>2017-6-21T5:37:22Z</time></trkpt>
<trkpt lat="46.13339" lon="7.03364"><ele></ele><time>2017-6-21T5:37:25Z</time></trkpt>
<trkpt lat="46.13337" lon="7.03366"><ele></ele><time>2017-6-21T5:37:28Z</time></trkpt>
<trkpt lat="46.13334" lon="7.03368"><ele></ele><time>2017-6-21T5:37:31Z</time></trkpt>
<trkpt lat="46.13332" lon="7.03369"><ele></ele><time>2017-6-21T5:37:34Z</time></trkpt>
<trkpt lat="46.13332" lon="7.03369"><ele></ele><time>2017-6-21T5:37:37Z</time></trkpt>
<trkpt lat="46.13332" lon="7.03369"><ele></ele><time>2017-6-21T5:37:40Z</time></trkpt>
<trkpt lat="46.13331" lon="7.03369"><ele></ele><time>2017-6-21T5:37:43Z</time></trkpt>
<trkpt lat="46.13331" lon="7.03369"><ele></ele><time>2017-6-21T5:37:46Z</time></trkpt>
<trkpt lat="46.1333" lon="7.03369"><ele></ele><time>2017-6-21T5:37:49Z</time></trkpt>
<trkpt lat="46.1333" lon="7.03369"><ele></ele><time>2017-6-21T5:37:52Z</time></trkpt>
<trkpt lat="46.13329" lon="7.03369"><ele></ele><time>2017-6-21T5:37:55Z</time></trkpt>
<trkpt lat="46.13329" lon="7.03369"><ele></ele><time>2017-6-21T5:37:58Z</time></trkpt>
<trkpt lat="46.13328" lon="7.03369"><ele></ele><time>2017-6-21T5:38:1Z</time></trkpt>
<trkpt lat="46.13328" lon="7.03369"><ele></ele><time>2017-6-21T5:38:4Z</time></trkpt>
<trkpt lat="46.13328" lon="7.03368"><ele></ele><time>2017-6-21T5:38:7Z</time></trkpt>
<trkpt lat="46.13327" lon="7.03368"><ele></ele><time>2017-6-21T5:38:10Z</time></trkpt>
<trkpt lat="46.13327" lon="7.03368"><ele></ele><time>2017-6-21T5:38:13Z</time></trkpt>
<trkpt lat="46.13326" lon="7.03368"><ele></ele><time>2017-6-21T5:38:16Z</time></trkpt>
<trkpt lat="46.13326" lon="7.03368"><ele></ele><time>2017-6-21T5:38:19Z</time></trkpt>
<trkpt lat="46.13325" lon="7.03368"><ele></ele><time>2017-6-21T5:38:22Z</time></trkpt>
<trkpt lat="46.13325" lon="7.03368"><ele></ele><time>2017-6-21T5:38:25Z</time></trkpt>
<trkpt lat="46.13324" lon="7.03368"><ele></ele><time>2017-6-21T5:38:28Z</time></trkpt>
<trkpt lat="46.13324" lon="7.03368"><ele></ele><time>2017-6-21T5:38:31Z</time></trkpt>
<trkpt lat="46.13323" lon="7.03368"><ele></ele><time>2017-6-21T5:38:34Z</time></trkpt>
<trkpt lat="46.13323" lon="7.03368"><ele></ele><time>2017-6-21T5:38:37Z</time></trkpt>
<trkpt lat="46.13322" lon="7.03368"><ele></ele><time>2017-6-21T5:38:40Z</time></trkpt>
<trkpt lat="46.13322" lon="7.03368"><ele></ele><time>2017-6-21T5:38:43Z</time></trkpt>
<trkpt lat="46.13322" lon="7.03368"><ele></ele><time>2017-6-21T5:38:46Z</time></trkpt>
<trkpt lat="46.13321" lon="7.03368"><ele></ele><time>2017-6-21T5:38:49Z</time></trkpt>
<trkpt lat="46.13321" lon="7.03368"><ele></ele><time>2017-6-21T5:38:52Z</time></trkpt>
<trkpt lat="46.1332" lon="7.03368"><ele></ele><time>2017-6-21T5:38:55Z</time></trkpt>
<trkpt lat="46.1332" lon="7.03368"><ele></ele><time>2017-6-21T5:38:58Z</time></trkpt>
<trkpt lat="46.13319" lon="7.03368"><ele></ele><time>2017-6-21T5:39:1Z</time></trkpt>
<trkpt lat="46.13319" lon="7.03368"><ele></ele><time>2017-6-21T5:39:4Z</time></trkpt>
<trkpt lat="46.13318" lon="7.03368"><ele></ele><time>2017-6-21T5:39:7Z</time></trkpt>
<trkpt lat="46.13318" lon="7.03368"><ele></ele><time>2017-6-21T5:39:10Z</time></trkpt>
<trkpt lat="46.13317" lon="7.03368"><ele></ele><time>2017-6-21T5:39:13Z</time></trkpt>
<trkpt lat="46.13318" lon="7.03367"><ele></ele><time>2017-6-21T5:39:16Z</time></trkpt>
<trkpt lat="46.13318" lon="7.03366"><ele></ele><time>2017-6-21T5:39:19Z</time></trkpt>
<trkpt lat="46.13319" lon="7.03363"><ele></ele><time>2017-6-21T5:39:22Z</time></trkpt>
<trkpt lat="46.1332" lon="7.0336"><ele></ele><time>2017-6-21T5:39:25Z</time></trkpt>
<trkpt lat="46.13321" lon="7.03357"><ele></ele><time>2017-6-21T5:39:28Z</time></trkpt>
<trkpt lat="46.13322" lon="7.03354"><ele></ele><time>2017-6-21T5:39:31Z</time></trkpt>
<trkpt lat="46.13323" lon="7.03352"><ele></ele><time>2017-6-21T5:39:34Z</time></trkpt>
<trkpt lat="46.13321" lon="7.03353"><ele></ele><time>2017-6-21T5:39:37Z</time></trkpt>
<trkpt lat="46.13319" lon="7.03354"><ele></ele><time>2017-6-21T5:39:40Z</time></trkpt>
<trkpt lat="46.13317" lon="7.03356"><ele></ele><time>2017-6-21T5:39:43Z</time></trkpt>
<trkpt lat="46.13315" lon="7.03357"><ele></ele><time>2017-6-21T5:39:46Z</time></trkpt>
<trkpt lat="46.13313" lon="7.03358"><ele></ele><time>2017-6-21T5:39:49Z</time></trkpt>
<trkpt lat="46.13312" lon="7.0336"><ele></ele><time>2017-6-21T5:39:52Z</time></trkpt>
<trkpt lat="46.1331" lon="7.03361"><ele></ele><time>2017-6-21T5:39:55Z</time></trkpt>
<trkpt lat="46.13308" lon="7.03362"><ele></ele><time>2017-6-21T5:39:58Z</time></trkpt>
<trkpt lat="46.13306" lon="7.03364"><ele></ele><time>2017-6-21T5:40:1Z</time></trkpt>
<trkpt lat="46.13304" lon="7.03365"><ele></ele><time>2017-6-21T5:40:4Z</time></trkpt>
<trkpt lat="46.13302" lon="7.03366"><ele></ele><time>2017-6-21T5:40:7Z</time></trkpt>
<trkpt lat="46.13301" lon="7.03367"><ele></ele><time>2017-6-21T5:40:10Z</time></trkpt>
<trkpt lat="46.13292" lon="7.0337"><ele></ele><time>2017-6-21T5:40:13Z</time></trkpt>
<trkpt lat="46.13292" lon="7.0337"><ele></ele><time>2017-6-21T5:40:16Z</time></trkpt>
<trkpt lat="46.13285" lon="7.03371"><ele></ele><time>2017-6-21T5:40:19Z</time></trkpt>
<trkpt lat="46.13285" lon="7.0337"><ele></ele><time>2017-6-21T5:40:22Z</time></trkpt>
<trkpt lat="46.13286" lon="7.03369"><ele></ele><time>2017-6-21T5:40:25Z</time></trkpt>
<trkpt lat="46.13286" lon="7.03368"><ele></ele><time>2017-6-21T5:40:28Z</time></trkpt>
<trkpt lat="46.13286" lon="7.03367"><ele></ele><time>2017-6-21T5:40:31Z</time></trkpt>
<trkpt lat="46.13286" lon="7.03366"><ele></ele><time>2017-6-21T5:40:34Z</time></trkpt>
<trkpt lat="46.13287" lon="7.03365"><ele></ele><time>2017-6-21T5:40:37Z</time></trkpt>
<trkpt lat="46.13287" lon="7.03364"><ele></ele><time>2017-6-21T5:40:40Z</time></trkpt>
<trkpt lat="46.13287" lon="7.03363"><ele></ele><time>2017-6-21T5:40:43Z</time></trkpt>
<trkpt lat="46.13287" lon="7.03362"><ele></ele><time>2017-6-21T5:40:46Z</time></trkpt>
<trkpt lat="46.13288" lon="7.03361"><ele></ele><time>2017-6-21T5:40:49Z</time></trkpt>
<trkpt lat="46.13288" lon="7.03361"><ele></ele><time>2017-6-21T5:40:52Z</time></trkpt>
<trkpt lat="46.13288" lon="7.0336"><ele></ele><time>2017-6-21T5:40:55Z</time></trkpt>
<trkpt lat="46.13288" lon="7.03359"><ele></ele><time>2017-6-21T5:40:58Z</time></trkpt>
<trkpt lat="46.13288" lon="7.03358"><ele></ele><time>2017-6-21T5:41:1Z</time></trkpt>
<trkpt lat="46.13289" lon="7.03357"><ele></ele><time>2017-6-21T5:41:4Z</time></trkpt>
<trkpt lat="46.13289" lon="7.03356"><ele></ele><time>2017-6-21T5:41:7Z</time></trkpt>
<trkpt lat="46.13289" lon="7.03355"><ele></ele><time>2017-6-21T5:41:10Z</time></trkpt>
<trkpt lat="46.13289" lon="7.03354"><ele></ele><time>2017-6-21T5:41:13Z</time></trkpt>
<trkpt lat="46.1329" lon="7.03353"><ele></ele><time>2017-6-21T5:41:16Z</time></trkpt>
<trkpt lat="46.1329" lon="7.03352"><ele></ele><time>2017-6-21T5:41:19Z</time></trkpt>
<trkpt lat="46.1329" lon="7.03351"><ele></ele><time>2017-6-21T5:41:22Z</time></trkpt>
<trkpt lat="46.13291" lon="7.0335"><ele></ele><time>2017-6-21T5:41:25Z</time></trkpt>
<trkpt lat="46.13291" lon="7.0335"><ele></ele><time>2017-6-21T5:41:28Z</time></trkpt>
<trkpt lat="46.13291" lon="7.03349"><ele></ele><time>2017-6-21T5:41:31Z</time></trkpt>
<trkpt lat="46.13291" lon="7.03348"><ele></ele><time>2017-6-21T5:41:34Z</time></trkpt>
<trkpt lat="46.1329" lon="7.0335"><ele></ele><time>2017-6-21T5:41:37Z</time></trkpt>
<trkpt lat="46.13288" lon="7.03351"><ele></ele><time>2017-6-21T5:41:40Z</time></trkpt>
<trkpt lat="46.13286" lon="7.03353"><ele></ele><time>2017-6-21T5:41:43Z</time></trkpt>
<trkpt lat="46.13285" lon="7.03355"><ele></ele><time>2017-6-21T5:41:46Z</time></trkpt>
<trkpt lat="46.13283" lon="7.03356"><ele></ele><time>2017-6-21T5:41:49Z</time></trkpt>
<trkpt lat="46.13282" lon="7.03358"><ele></ele><time>2017-6-21T5:41:52Z</time></trkpt>
<trkpt lat="46.1328" lon="7.03359"><ele></ele><time>2017-6-21T5:41:55Z</time></trkpt>
<trkpt lat="46.13279" lon="7.03361"><ele></ele><time>2017-6-21T5:41:58Z</time></trkpt>
<trkpt lat="46.13277" lon="7.03362"><ele></ele><time>2017-6-21T5:42:1Z</time></trkpt>
<trkpt lat="46.13277" lon="7.03363"><ele></ele><time>2017-6-21T5:42:4Z</time></trkpt>
<trkpt lat="46.13276" lon="7.03364"><ele></ele><time>2017-6-21T5:42:7Z</time></trkpt>
<trkpt lat="46.13274" lon="7.03366"><ele></ele><time>2017-6-21T5:42:10Z</time></trkpt>
<trkpt lat="46.13273" lon="7.03367"><ele></ele><time>2017-6-21T5:42:13Z</time></trkpt>
<trkpt lat="46.13271" lon="7.03369"><ele></ele><time>2017-6-21T5:42:16Z</time></trkpt>
<trkpt lat="46.1327" lon="7.0337"><ele></ele><time>2017-6-21T5:42:19Z</time></trkpt>
<trkpt lat="46.13268" lon="7.03372"><ele></ele><time>2017-6-21T5:42:22Z</time></trkpt>
<trkpt lat="46.13268" lon="7.03373"><ele></ele><time>2017-6-21T5:42:25Z</time></trkpt>
<trkpt lat="46.13268" lon="7.03375"><ele></ele><time>2017-6-21T5:42:28Z</time></trkpt>
<trkpt lat="46.13269" lon="7.03378"><ele></ele><time>2017-6-21T5:42:31Z</time></trkpt>
<trkpt lat="46.13271" lon="7.03382"><ele></ele><time>2017-6-21T5:42:34Z</time></trkpt>
<trkpt lat="46.13272" lon="7.03385"><ele></ele><time>2017-6-21T5:42:37Z</time></trkpt>
<trkpt lat="46.13273" lon="7.03389"><ele></ele><time>2017-6-21T5:42:40Z</time></trkpt>
<trkpt lat="46.13273" lon="7.0339"><ele></ele><time>2017-6-21T5:42:43Z</time></trkpt>
<trkpt lat="46.13274" lon="7.03392"><ele></ele><time>2017-6-21T5:42:46Z</time></trkpt>
<trkpt lat="46.13275" lon="7.03395"><ele></ele><time>2017-6-21T5:42:49Z</time></trkpt>
<trkpt lat="46.13276" lon="7.03399"><ele></ele><time>2017-6-21T5:42:52Z</time></trkpt>
<trkpt lat="46.13277" lon="7.03402"><ele></ele><time>2017-6-21T5:42:55Z</time></trkpt>
<trkpt lat="46.13275" lon="7.034"><ele></ele><time>2017-6-21T5:42:58Z</time></trkpt>
<trkpt lat="46.13274" lon="7.03399"><ele></ele><time>2017-6-21T5:43:1Z</time></trkpt>
<trkpt lat="46.13273" lon="7.03398"><ele></ele><time>2017-6-21T5:43:4Z</time></trkpt>
<trkpt lat="46.13271" lon="7.03397"><ele></ele><time>2017-6-21T5:43:7Z</time></trkpt>
<trkpt lat="46.1327" lon="7.03395"><ele></ele><time>2017-6-21T5:43:10Z</time></trkpt>
<trkpt lat="46.13268" lon="7.03394"><ele></ele><time>2017-6-21T5:43:13Z</time></trkpt>
<trkpt lat="46.13268" lon="7.03393"><ele></ele><time>2017-6-21T5:43:16Z</time></trkpt>
<trkpt lat="46.13268" lon="7.03392"><ele></ele><time>2017-6-21T5:43:19Z</time></trkpt>
<trkpt lat="46.13269" lon="7.0339"><ele></ele><time>2017-6-21T5:43:22Z</time></trkpt>
<trkpt lat="46.13269" lon="7.03389"><ele></ele><time>2017-6-21T5:43:25Z</time></trkpt>
<trkpt lat="46.13269" lon="7.03386"><ele></ele><time>2017-6-21T5:43:28Z</time></trkpt>
<trkpt lat="46.1327" lon="7.03383"><ele></ele><time>2017-6-21T5:43:31Z</time></trkpt>
<trkpt lat="46.1327" lon="7.0338"><ele></ele><time>2017-6-21T5:43:34Z</time></trkpt>
<trkpt lat="46.13271" lon="7.03377"><ele></ele><time>2017-6-21T5:43:37Z</time></trkpt>
<trkpt lat="46.13271" lon="7.03375"><ele></ele><time>2017-6-21T5:43:40Z</time></trkpt>
<trkpt lat="46.13271" lon="7.03372"><ele></ele><time>2017-6-21T5:43:43Z</time></trkpt>
<trkpt lat="46.13272" lon="7.03369"><ele></ele><time>2017-6-21T5:43:46Z</time></trkpt>
<trkpt lat="46.13272" lon="7.03366"><ele></ele><time>2017-6-21T5:43:49Z</time></trkpt>
<trkpt lat="46.13273" lon="7.03363"><ele></ele><time>2017-6-21T5:43:52Z</time></trkpt>
<trkpt lat="46.13273" lon="7.0336"><ele></ele><time>2017-6-21T5:43:55Z</time></trkpt>
<trkpt lat="46.13274" lon="7.03357"><ele></ele><time>2017-6-21T5:43:58Z</time></trkpt>
<trkpt lat="46.13274" lon="7.03354"><ele></ele><time>2017-6-21T5:44:1Z</time></trkpt>
<trkpt lat="46.13275" lon="7.03351"><ele></ele><time>2017-6-21T5:44:4Z</time></trkpt>
<trkpt lat="46.13275" lon="7.03349"><ele></ele><time>2017-6-21T5:44:7Z</time></trkpt>
<trkpt lat="46.13276" lon="7.03346"><ele></ele><time>2017-6-21T5:44:10Z</time></trkpt>
<trkpt lat="46.13276" lon="7.03343"><ele></ele><time>2017-6-21T5:44:13Z</time></trkpt>
<trkpt lat="46.13277" lon="7.0334"><ele></ele><time>2017-6-21T5:44:16Z</time></trkpt>
<trkpt lat="46.13278" lon="7.03339"><ele></ele><time>2017-6-21T5:44:19Z</time></trkpt>
<trkpt lat="46.13279" lon="7.03338"><ele></ele><time>2017-6-21T5:44:22Z</time></trkpt>
<trkpt lat="46.13281" lon="7.03337"><ele></ele><time>2017-6-21T5:44:25Z</time></trkpt>
<trkpt lat="46.13282" lon="7.03336"><ele></ele><time>2017-6-21T5:44:28Z</time></trkpt>
<trkpt lat="46.13282" lon="7.03336"><ele></ele><time>2017-6-21T5:44:31Z</time></trkpt>
<trkpt lat="46.13284" lon="7.03335"><ele></ele><time>2017-6-21T5:44:34Z</time></trkpt>
<trkpt lat="46.13285" lon="7.03333"><ele></ele><time>2017-6-21T5:44:37Z</time></trkpt>
<trkpt lat="46.13287" lon="7.03332"><ele></ele><time>2017-6-21T5:44:40Z</time></trkpt>
<trkpt lat="46.13288" lon="7.03331"><ele></ele><time>2017-6-21T5:44:43Z</time></trkpt>
<trkpt lat="46.13289" lon="7.0333"><ele></ele><time>2017-6-21T5:44:46Z</time></trkpt>
<trkpt lat="46.13291" lon="7.03329"><ele></ele><time>2017-6-21T5:44:49Z</time></trkpt>
<trkpt lat="46.13292" lon="7.03328"><ele></ele><time>2017-6-21T5:44:52Z</time></trkpt>
<trkpt lat="46.13294" lon="7.03327"><ele></ele><time>2017-6-21T5:44:55Z</time></trkpt>
<trkpt lat="46.13295" lon="7.03325"><ele></ele><time>2017-6-21T5:44:58Z</time></trkpt>
<trkpt lat="46.13296" lon="7.03324"><ele></ele><time>2017-6-21T5:45:1Z</time></trkpt>
<trkpt lat="46.13297" lon="7.03324"><ele></ele><time>2017-6-21T5:45:4Z</time></trkpt>
<trkpt lat="46.13298" lon="7.03323"><ele></ele><time>2017-6-21T5:45:7Z</time></trkpt>
<trkpt lat="46.13299" lon="7.03322"><ele></ele><time>2017-6-21T5:45:10Z</time></trkpt>
<trkpt lat="46.13301" lon="7.03321"><ele></ele><time>2017-6-21T5:45:13Z</time></trkpt>
<trkpt lat="46.13302" lon="7.0332"><ele></ele><time>2017-6-21T5:45:16Z</time></trkpt>
<trkpt lat="46.13304" lon="7.03319"><ele></ele><time>2017-6-21T5:45:19Z</time></trkpt>
<trkpt lat="46.13306" lon="7.03318"><ele></ele><time>2017-6-21T5:45:22Z</time></trkpt>
<trkpt lat="46.13308" lon="7.03317"><ele></ele><time>2017-6-21T5:45:25Z</time></trkpt>
<trkpt lat="46.13309" lon="7.03317"><ele></ele><time>2017-6-21T5:45:28Z</time></trkpt>
<trkpt lat="46.13311" lon="7.03316"><ele></ele><time>2017-6-21T5:45:31Z</time></trkpt>
<trkpt lat="46.13313" lon="7.03315"><ele></ele><time>2017-6-21T5:45:34Z</time></trkpt>
<trkpt lat="46.13315" lon="7.03314"><ele></ele><time>2017-6-21T5:45:37Z</time></trkpt>
<trkpt lat="46.13315" lon="7.03313"><ele></ele><time>2017-6-21T5:45:40Z</time></trkpt>
<trkpt lat="46.13314" lon="7.03311"><ele></ele><time>2017-6-21T5:45:43Z</time></trkpt>
<trkpt lat="46.13312" lon="7.03308"><ele></ele><time>2017-6-21T5:45:46Z</time></trkpt>
<trkpt lat="46.13311" lon="7.03305"><ele></ele><time>2017-6-21T5:45:49Z</time></trkpt>
<trkpt lat="46.13308" lon="7.03304"><ele></ele><time>2017-6-21T5:45:52Z</time></trkpt>
<trkpt lat="46.13306" lon="7.03304"><ele></ele><time>2017-6-21T5:45:55Z</time></trkpt>
<trkpt lat="46.13303" lon="7.03303"><ele></ele><time>2017-6-21T5:45:58Z</time></trkpt>
<trkpt lat="46.13301" lon="7.03303"><ele></ele><time>2017-6-21T5:46:1Z</time></trkpt>
<trkpt lat="46.13299" lon="7.03302"><ele></ele><time>2017-6-21T5:46:4Z</time></trkpt>
<trkpt lat="46.13296" lon="7.03302"><ele></ele><time>2017-6-21T5:46:7Z</time></trkpt>
<trkpt lat="46.13294" lon="7.03301"><ele></ele><time>2017-6-21T5:46:10Z</time></trkpt>
<trkpt lat="46.13291" lon="7.03301"><ele></ele><time>2017-6-21T5:46:13Z</time></trkpt>
<trkpt lat="46.13289" lon="7.033"><ele></ele><time>2017-6-21T5:46:16Z</time></trkpt>
<trkpt lat="46.13287" lon="7.033"><ele></ele><time>2017-6-21T5:46:19Z</time></trkpt>
<trkpt lat="46.13284" lon="7.03299"><ele></ele><time>2017-6-21T5:46:22Z</time></trkpt>
<trkpt lat="46.13282" lon="7.03299"><ele></ele><time>2017-6-21T5:46:25Z</time></trkpt>
<trkpt lat="46.13279" lon="7.03298"><ele></ele><time>2017-6-21T5:46:28Z</time></trkpt>
<trkpt lat="46.13277" lon="7.03298"><ele></ele><time>2017-6-21T5:46:31Z</time></trkpt>
<trkpt lat="46.13275" lon="7.03297"><ele></ele><time>2017-6-21T5:46:34Z</time></trkpt>
<trkpt lat="46.13272" lon="7.03297"><ele></ele><time>2017-6-21T5:46:37Z</time></trkpt>
<trkpt lat="46.1327" lon="7.03297"><ele></ele><time>2017-6-21T5:46:40Z</time></trkpt>
<trkpt lat="46.13267" lon="7.03296"><ele></ele><time>2017-6-21T5:46:43Z</time></trkpt>
<trkpt lat="46.13265" lon="7.03296"><ele></ele><time>2017-6-21T5:46:46Z</time></trkpt>
<trkpt lat="46.13265" lon="7.03295"><ele></ele><time>2017-6-21T5:46:49Z</time></trkpt>
<trkpt lat="46.13265" lon="7.03295"><ele></ele><time>2017-6-21T5:46:52Z</time></trkpt>
<trkpt lat="46.13265" lon="7.03295"><ele></ele><time>2017-6-21T5:46:55Z</time></trkpt>
<trkpt lat="46.13265" lon="7.03295"><ele></ele><time>2017-6-21T5:46:58Z</time></trkpt>
<trkpt lat="46.13265" lon="7.03294"><ele></ele><time>2017-6-21T5:47:1Z</time></trkpt>
<trkpt lat="46.13265" lon="7.03294"><ele></ele><time>2017-6-21T5:47:4Z</time></trkpt>
<trkpt lat="46.13265" lon="7.03294"><ele></ele><time>2017-6-21T5:47:7Z</time></trkpt>
<trkpt lat="46.13265" lon="7.03294"><ele></ele><time>2017-6-21T5:47:10Z</time></trkpt>
<trkpt lat="46.13265" lon="7.03294"><ele></ele><time>2017-6-21T5:47:13Z</time></trkpt>
<trkpt lat="46.13265" lon="7.03293"><ele></ele><time>2017-6-21T5:47:16Z</time></trkpt>
<trkpt lat="46.13264" lon="7.03293"><ele></ele><time>2017-6-21T5:47:19Z</time></trkpt>
<trkpt lat="46.13264" lon="7.03293"><ele></ele><time>2017-6-21T5:47:22Z</time></trkpt>
<trkpt lat="46.13264" lon="7.03293"><ele></ele><time>2017-6-21T5:47:25Z</time></trkpt>
<trkpt lat="46.13264" lon="7.03293"><ele></ele><time>2017-6-21T5:47:28Z</time></trkpt>
<trkpt lat="46.13264" lon="7.03292"><ele></ele><time>2017-6-21T5:47:31Z</time></trkpt>
<trkpt lat="46.13264" lon="7.03292"><ele></ele><time>2017-6-21T5:47:34Z</time></trkpt>
<trkpt lat="46.13264" lon="7.03292"><ele></ele><time>2017-6-21T5:47:37Z</time></trkpt>
<trkpt lat="46.13264" lon="7.03292"><ele></ele><time>2017-6-21T5:47:40Z</time></trkpt>
<trkpt lat="46.13264" lon="7.03291"><ele></ele><time>2017-6-21T5:47:43Z</time></trkpt>
<trkpt lat="46.13264" lon="7.03291"><ele></ele><time>2017-6-21T5:47:46Z</time></trkpt>
<trkpt lat="46.13264" lon="7.03291"><ele></ele><time>2017-6-21T5:47:49Z</time></trkpt>
<trkpt lat="46.13264" lon="7.03291"><ele></ele><time>2017-6-21T5:47:52Z</time></trkpt>
<trkpt lat="46.13263" lon="7.03291"><ele></ele><time>2017-6-21T5:47:55Z</time></trkpt>
<trkpt lat="46.13263" lon="7.0329"><ele></ele><time>2017-6-21T5:47:58Z</time></trkpt>
<trkpt lat="46.13263" lon="7.0329"><ele></ele><time>2017-6-21T5:48:1Z</time></trkpt>
<trkpt lat="46.13263" lon="7.0329"><ele></ele><time>2017-6-21T5:48:4Z</time></trkpt>
<trkpt lat="46.13263" lon="7.0329"><ele></ele><time>2017-6-21T5:48:7Z</time></trkpt>
<trkpt lat="46.13263" lon="7.03289"><ele></ele><time>2017-6-21T5:48:10Z</time></trkpt>
<trkpt lat="46.13263" lon="7.03289"><ele></ele><time>2017-6-21T5:48:13Z</time></trkpt>
<trkpt lat="46.13263" lon="7.03289"><ele></ele><time>2017-6-21T5:48:16Z</time></trkpt>
<trkpt lat="46.13263" lon="7.03289"><ele></ele><time>2017-6-21T5:48:19Z</time></trkpt>
<trkpt lat="46.13263" lon="7.03289"><ele></ele><time>2017-6-21T5:48:22Z</time></trkpt>
<trkpt lat="46.13263" lon="7.03288"><ele></ele><time>2017-6-21T5:48:25Z</time></trkpt>
<trkpt lat="46.13262" lon="7.03288"><ele></ele><time>2017-6-21T5:48:28Z</time></trkpt>
<trkpt lat="46.13262" lon="7.03288"><ele></ele><time>2017-6-21T5:48:31Z</time></trkpt>
<trkpt lat="46.13262" lon="7.03288"><ele></ele><time>2017-6-21T5:48:34Z</time></trkpt>
<trkpt lat="46.13262" lon="7.03288"><ele></ele><time>2017-6-21T5:48:37Z</time></trkpt>
<trkpt lat="46.13262" lon="7.03287"><ele></ele><time>2017-6-21T5:48:40Z</time></trkpt>
<trkpt lat="46.13262" lon="7.03287"><ele></ele><time>2017-6-21T5:48:43Z</time></trkpt>
<trkpt lat="46.13262" lon="7.03287"><ele></ele><time>2017-6-21T5:48:46Z</time></trkpt>
<trkpt lat="46.13262" lon="7.03286"><ele></ele><time>2017-6-21T5:48:49Z</time></trkpt>
<trkpt lat="46.13263" lon="7.03283"><ele></ele><time>2017-6-21T5:48:52Z</time></trkpt>
<trkpt lat="46.13264" lon="7.03281"><ele></ele><time>2017-6-21T5:48:55Z</time></trkpt>
<trkpt lat="46.13265" lon="7.03278"><ele></ele><time>2017-6-21T5:48:58Z</time></trkpt>
<trkpt lat="46.13263" lon="7.0328"><ele></ele><time>2017-6-21T5:49:1Z</time></trkpt>
<trkpt lat="46.13261" lon="7.03282"><ele></ele><time>2017-6-21T5:49:4Z</time></trkpt>
<trkpt lat="46.1326" lon="7.03283"><ele></ele><time>2017-6-21T5:49:7Z</time></trkpt>
<trkpt lat="46.13258" lon="7.03284"><ele></ele><time>2017-6-21T5:49:10Z</time></trkpt>
<trkpt lat="46.13256" lon="7.03286"><ele></ele><time>2017-6-21T5:49:13Z</time></trkpt>
<trkpt lat="46.13254" lon="7.03287"><ele></ele><time>2017-6-21T5:49:16Z</time></trkpt>
<trkpt lat="46.13252" lon="7.03289"><ele></ele><time>2017-6-21T5:49:19Z</time></trkpt>
<trkpt lat="46.1325" lon="7.03291"><ele></ele><time>2017-6-21T5:49:22Z</time></trkpt>
<trkpt lat="46.13248" lon="7.03293"><ele></ele><time>2017-6-21T5:49:25Z</time></trkpt>
<trkpt lat="46.13246" lon="7.03294"><ele></ele><time>2017-6-21T5:49:28Z</time></trkpt>
<trkpt lat="46.13244" lon="7.03296"><ele></ele><time>2017-6-21T5:49:31Z</time></trkpt>
<trkpt lat="46.13242" lon="7.03298"><ele></ele><time>2017-6-21T5:49:34Z</time></trkpt>
<trkpt lat="46.1324" lon="7.033"><ele></ele><time>2017-6-21T5:49:37Z</time></trkpt>
<trkpt lat="46.13238" lon="7.03302"><ele></ele><time>2017-6-21T5:49:40Z</time></trkpt>
<trkpt lat="46.13235" lon="7.03303"><ele></ele><time>2017-6-21T5:49:43Z</time></trkpt>
<trkpt lat="46.13233" lon="7.03305"><ele></ele><time>2017-6-21T5:49:46Z</time></trkpt>
<trkpt lat="46.13231" lon="7.03307"><ele></ele><time>2017-6-21T5:49:49Z</time></trkpt>
<trkpt lat="46.13229" lon="7.03309"><ele></ele><time>2017-6-21T5:49:52Z</time></trkpt>
<trkpt lat="46.13227" lon="7.03311"><ele></ele><time>2017-6-21T5:49:55Z</time></trkpt>
<trkpt lat="46.13226" lon="7.03311"><ele></ele><time>2017-6-21T5:49:58Z</time></trkpt>
<trkpt lat="46.13227" lon="7.0331"><ele></ele><time>2017-6-21T5:50:1Z</time></trkpt>
<trkpt lat="46.13227" lon="7.03309"><ele></ele><time>2017-6-21T5:50:4Z</time></trkpt>
<trkpt lat="46.13227" lon="7.03307"><ele></ele><time>2017-6-21T5:50:7Z</time></trkpt>
<trkpt lat="46.13228" lon="7.03306"><ele></ele><time>2017-6-21T5:50:10Z</time></trkpt>
<trkpt lat="46.13228" lon="7.03304"><ele></ele><time>2017-6-21T5:50:13Z</time></trkpt>
<trkpt lat="46.13229" lon="7.03303"><ele></ele><time>2017-6-21T5:50:16Z</time></trkpt>
<trkpt lat="46.13229" lon="7.03301"><ele></ele><time>2017-6-21T5:50:19Z</time></trkpt>
<trkpt lat="46.13229" lon="7.033"><ele></ele><time>2017-6-21T5:50:22Z</time></trkpt>
<trkpt lat="46.1323" lon="7.03298"><ele></ele><time>2017-6-21T5:50:25Z</time></trkpt>
<trkpt lat="46.1323" lon="7.03296"><ele></ele><time>2017-6-21T5:50:28Z</time></trkpt>
<trkpt lat="46.13231" lon="7.03295"><ele></ele><time>2017-6-21T5:50:31Z</time></trkpt>
<trkpt lat="46.13231" lon="7.03293"><ele></ele><time>2017-6-21T5:50:34Z</time></trkpt>
<trkpt lat="46.13231" lon="7.03292"><ele></ele><time>2017-6-21T5:50:37Z</time></trkpt>
<trkpt lat="46.13232" lon="7.0329"><ele></ele><time>2017-6-21T5:50:40Z</time></trkpt>
<trkpt lat="46.13232" lon="7.03289"><ele></ele><time>2017-6-21T5:50:43Z</time></trkpt>
<trkpt lat="46.13232" lon="7.03287"><ele></ele><time>2017-6-21T5:50:46Z</time></trkpt>
<trkpt lat="46.13233" lon="7.03286"><ele></ele><time>2017-6-21T5:50:49Z</time></trkpt>
<trkpt lat="46.13233" lon="7.03284"><ele></ele><time>2017-6-21T5:50:52Z</time></trkpt>
<trkpt lat="46.13234" lon="7.03283"><ele></ele><time>2017-6-21T5:50:55Z</time></trkpt>
<trkpt lat="46.13234" lon="7.03281"><ele></ele><time>2017-6-21T5:50:58Z</time></trkpt>
<trkpt lat="46.13234" lon="7.0328"><ele></ele><time>2017-6-21T5:51:1Z</time></trkpt>
<trkpt lat="46.13235" lon="7.03278"><ele></ele><time>2017-6-21T5:51:4Z</time></trkpt>
<trkpt lat="46.13235" lon="7.03277"><ele></ele><time>2017-6-21T5:51:7Z</time></trkpt>
<trkpt lat="46.13236" lon="7.03275"><ele></ele><time>2017-6-21T5:51:10Z</time></trkpt>
<trkpt lat="46.13236" lon="7.03274"><ele></ele><time>2017-6-21T5:51:13Z</time></trkpt>
<trkpt lat="46.13236" lon="7.03272"><ele></ele><time>2017-6-21T5:51:16Z</time></trkpt>
<trkpt lat="46.13237" lon="7.03271"><ele></ele><time>2017-6-21T5:51:19Z</time></trkpt>
<trkpt lat="46.13237" lon="7.03269"><ele></ele><time>2017-6-21T5:51:22Z</time></trkpt>
<trkpt lat="46.13238" lon="7.03268"><ele></ele><time>2017-6-21T5:51:25Z</time></trkpt>
<trkpt lat="46.13238" lon="7.03267"><ele></ele><time>2017-6-21T5:51:28Z</time></trkpt>
<trkpt lat="46.13238" lon="7.03266"><ele></ele><time>2017-6-21T5:51:31Z</time></trkpt>
<trkpt lat="46.13238" lon="7.03265"><ele></ele><time>2017-6-21T5:51:34Z</time></trkpt>
<trkpt lat="46.13239" lon="7.03263"><ele></ele><time>2017-6-21T5:51:37Z</time></trkpt>
<trkpt lat="46.13239" lon="7.03262"><ele></ele><time>2017-6-21T5:51:40Z</time></trkpt>
<trkpt lat="46.13239" lon="7.0326"><ele></ele><time>2017-6-21T5:51:43Z</time></trkpt>
<trkpt lat="46.1324" lon="7.03258"><ele></ele><time>2017-6-21T5:51:46Z</time></trkpt>
<trkpt lat="46.1324" lon="7.03257"><ele></ele><time>2017-6-21T5:51:49Z</time></trkpt>
<trkpt lat="46.13238" lon="7.03259"><ele></ele><time>2017-6-21T5:51:52Z</time></trkpt>
<trkpt lat="46.13235" lon="7.0326"><ele></ele><time>2017-6-21T5:51:55Z</time></trkpt>
<trkpt lat="46.13233" lon="7.03262"><ele></ele><time>2017-6-21T5:51:58Z</time></trkpt>
<trkpt lat="46.13231" lon="7.03263"><ele></ele><time>2017-6-21T5:52:1Z</time></trkpt>
<trkpt lat="46.1323" lon="7.03264"><ele></ele><time>2017-6-21T5:52:4Z</time></trkpt>
<trkpt lat="46.13229" lon="7.03265"><ele></ele><time>2017-6-21T5:52:7Z</time></trkpt>
<trkpt lat="46.13226" lon="7.03266"><ele></ele><time>2017-6-21T5:52:10Z</time></trkpt>
<trkpt lat="46.13224" lon="7.03268"><ele></ele><time>2017-6-21T5:52:13Z</time></trkpt>
<trkpt lat="46.13222" lon="7.03269"><ele></ele><time>2017-6-21T5:52:16Z</time></trkpt>
<trkpt lat="46.1322" lon="7.03271"><ele></ele><time>2017-6-21T5:52:19Z</time></trkpt>
<trkpt lat="46.13217" lon="7.03272"><ele></ele><time>2017-6-21T5:52:22Z</time></trkpt>
<trkpt lat="46.13215" lon="7.03274"><ele></ele><time>2017-6-21T5:52:25Z</time></trkpt>
<trkpt lat="46.13213" lon="7.03275"><ele></ele><time>2017-6-21T5:52:28Z</time></trkpt>
<trkpt lat="46.13211" lon="7.03276"><ele></ele><time>2017-6-21T5:52:31Z</time></trkpt>
<trkpt lat="46.13211" lon="7.03275"><ele></ele><time>2017-6-21T5:52:34Z</time></trkpt>
<trkpt lat="46.13211" lon="7.03275"><ele></ele><time>2017-6-21T5:52:37Z</time></trkpt>
<trkpt lat="46.13211" lon="7.03274"><ele></ele><time>2017-6-21T5:52:40Z</time></trkpt>
<trkpt lat="46.13211" lon="7.03274"><ele></ele><time>2017-6-21T5:52:43Z</time></trkpt>
<trkpt lat="46.13212" lon="7.03273"><ele></ele><time>2017-6-21T5:52:46Z</time></trkpt>
<trkpt lat="46.13212" lon="7.03272"><ele></ele><time>2017-6-21T5:52:49Z</time></trkpt>
<trkpt lat="46.13212" lon="7.03272"><ele></ele><time>2017-6-21T5:52:52Z</time></trkpt>
<trkpt lat="46.13212" lon="7.03271"><ele></ele><time>2017-6-21T5:52:55Z</time></trkpt>
<trkpt lat="46.13213" lon="7.0327"><ele></ele><time>2017-6-21T5:52:58Z</time></trkpt>
<trkpt lat="46.13213" lon="7.03269"><ele></ele><time>2017-6-21T5:53:1Z</time></trkpt>
<trkpt lat="46.13213" lon="7.03269"><ele></ele><time>2017-6-21T5:53:4Z</time></trkpt>
<trkpt lat="46.13213" lon="7.03268"><ele></ele><time>2017-6-21T5:53:7Z</time></trkpt>
<trkpt lat="46.13213" lon="7.03267"><ele></ele><time>2017-6-21T5:53:10Z</time></trkpt>
<trkpt lat="46.13214" lon="7.03266"><ele></ele><time>2017-6-21T5:53:13Z</time></trkpt>
<trkpt lat="46.13214" lon="7.03265"><ele></ele><time>2017-6-21T5:53:16Z</time></trkpt>
<trkpt lat="46.13214" lon="7.03265"><ele></ele><time>2017-6-21T5:53:19Z</time></trkpt>
<trkpt lat="46.13214" lon="7.03264"><ele></ele><time>2017-6-21T5:53:22Z</time></trkpt>
<trkpt lat="46.13214" lon="7.03263"><ele></ele><time>2017-6-21T5:53:25Z</time></trkpt>
<trkpt lat="46.13215" lon="7.03262"><ele></ele><time>2017-6-21T5:53:28Z</time></trkpt>
<trkpt lat="46.13215" lon="7.03262"><ele></ele><time>2017-6-21T5:53:31Z</time></trkpt>
<trkpt lat="46.13215" lon="7.03261"><ele></ele><time>2017-6-21T5:53:34Z</time></trkpt>
<trkpt lat="46.13215" lon="7.0326"><ele></ele><time>2017-6-21T5:53:37Z</time></trkpt>
<trkpt lat="46.13215" lon="7.03259"><ele></ele><time>2017-6-21T5:53:40Z</time></trkpt>
<trkpt lat="46.13216" lon="7.03259"><ele></ele><time>2017-6-21T5:53:43Z</time></trkpt>
<trkpt lat="46.13216" lon="7.03258"><ele></ele><time>2017-6-21T5:53:46Z</time></trkpt>
<trkpt lat="46.13216" lon="7.03257"><ele></ele><time>2017-6-21T5:53:49Z</time></trkpt>
<trkpt lat="46.13216" lon="7.03256"><ele></ele><time>2017-6-21T5:53:52Z</time></trkpt>
<trkpt lat="46.13217" lon="7.03256"><ele></ele><time>2017-6-21T5:53:55Z</time></trkpt>
<trkpt lat="46.13217" lon="7.03255"><ele></ele><time>2017-6-21T5:53:58Z</time></trkpt>
<trkpt lat="46.13217" lon="7.03254"><ele></ele><time>2017-6-21T5:54:1Z</time></trkpt>
<trkpt lat="46.13217" lon="7.03253"><ele></ele><time>2017-6-21T5:54:4Z</time></trkpt>
<trkpt lat="46.13217" lon="7.03252"><ele></ele><time>2017-6-21T5:54:7Z</time></trkpt>
<trkpt lat="46.13218" lon="7.03252"><ele></ele><time>2017-6-21T5:54:10Z</time></trkpt>
<trkpt lat="46.13218" lon="7.03251"><ele></ele><time>2017-6-21T5:54:13Z</time></trkpt>
<trkpt lat="46.13218" lon="7.0325"><ele></ele><time>2017-6-21T5:54:16Z</time></trkpt>
<trkpt lat="46.13218" lon="7.03249"><ele></ele><time>2017-6-21T5:54:19Z</time></trkpt>
<trkpt lat="46.13218" lon="7.03249"><ele></ele><time>2017-6-21T5:54:22Z</time></trkpt>
<trkpt lat="46.13219" lon="7.03248"><ele></ele><time>2017-6-21T5:54:25Z</time></trkpt>
<trkpt lat="46.13219" lon="7.03247"><ele></ele><time>2017-6-21T5:54:28Z</time></trkpt>
<trkpt lat="46.13219" lon="7.03246"><ele></ele><time>2017-6-21T5:54:31Z</time></trkpt>
<trkpt lat="46.13219" lon="7.03246"><ele></ele><time>2017-6-21T5:54:34Z</time></trkpt>
<trkpt lat="46.13222" lon="7.03255"><ele></ele><time>2017-6-21T5:54:37Z</time></trkpt>
<trkpt lat="46.13222" lon="7.03255"><ele></ele><time>2017-6-21T5:54:40Z</time></trkpt>
<trkpt lat="46.1322" lon="7.03269"><ele></ele><time>2017-6-21T5:54:43Z</time></trkpt>
<trkpt lat="46.1322" lon="7.03269"><ele></ele><time>2017-6-21T5:54:46Z</time></trkpt>
<trkpt lat="46.13215" lon="7.03272"><ele></ele><time>2017-6-21T5:54:49Z</time></trkpt>
<trkpt lat="46.13213" lon="7.03274"><ele></ele><time>2017-6-21T5:54:52Z</time></trkpt>
<trkpt lat="46.13211" lon="7.03276"><ele></ele><time>2017-6-21T5:54:55Z</time></trkpt>
<trkpt lat="46.1321" lon="7.03278"><ele></ele><time>2017-6-21T5:54:58Z</time></trkpt>
<trkpt lat="46.13208" lon="7.0328"><ele></ele><time>2017-6-21T5:55:1Z</time></trkpt>
<trkpt lat="46.13206" lon="7.0328"><ele></ele><time>2017-6-21T5:55:4Z</time></trkpt>
<trkpt lat="46.13204" lon="7.0328"><ele></ele><time>2017-6-21T5:55:7Z</time></trkpt>
<trkpt lat="46.13203" lon="7.0328"><ele></ele><time>2017-6-21T5:55:10Z</time></trkpt>
<trkpt lat="46.13201" lon="7.0328"><ele></ele><time>2017-6-21T5:55:13Z</time></trkpt>
<trkpt lat="46.13199" lon="7.0328"><ele></ele><time>2017-6-21T5:55:16Z</time></trkpt>
<trkpt lat="46.13197" lon="7.0328"><ele></ele><time>2017-6-21T5:55:19Z</time></trkpt>
<trkpt lat="46.13195" lon="7.0328"><ele></ele><time>2017-6-21T5:55:22Z</time></trkpt>
<trkpt lat="46.13193" lon="7.0328"><ele></ele><time>2017-6-21T5:55:25Z</time></trkpt>
<trkpt lat="46.13191" lon="7.0328"><ele></ele><time>2017-6-21T5:55:28Z</time></trkpt>
<trkpt lat="46.13189" lon="7.0328"><ele></ele><time>2017-6-21T5:55:31Z</time></trkpt>
<trkpt lat="46.13187" lon="7.0328"><ele></ele><time>2017-6-21T5:55:34Z</time></trkpt>
<trkpt lat="46.13185" lon="7.0328"><ele></ele><time>2017-6-21T5:55:37Z</time></trkpt>
<trkpt lat="46.13184" lon="7.0328"><ele></ele><time>2017-6-21T5:55:40Z</time></trkpt>
<trkpt lat="46.13184" lon="7.0328"><ele></ele><time>2017-6-21T5:55:43Z</time></trkpt>
<trkpt lat="46.13184" lon="7.0328"><ele></ele><time>2017-6-21T5:55:46Z</time></trkpt>
<trkpt lat="46.13184" lon="7.03281"><ele></ele><time>2017-6-21T5:55:49Z</time></trkpt>
<trkpt lat="46.13184" lon="7.03281"><ele></ele><time>2017-6-21T5:55:52Z</time></trkpt>
<trkpt lat="46.13183" lon="7.03281"><ele></ele><time>2017-6-21T5:55:55Z</time></trkpt>
<trkpt lat="46.13183" lon="7.03281"><ele></ele><time>2017-6-21T5:55:58Z</time></trkpt>
<trkpt lat="46.13183" lon="7.03281"><ele></ele><time>2017-6-21T5:56:1Z</time></trkpt>
<trkpt lat="46.13183" lon="7.03281"><ele></ele><time>2017-6-21T5:56:4Z</time></trkpt>
<trkpt lat="46.13182" lon="7.03282"><ele></ele><time>2017-6-21T5:56:7Z</time></trkpt>
<trkpt lat="46.13182" lon="7.03282"><ele></ele><time>2017-6-21T5:56:10Z</time></trkpt>
<trkpt lat="46.13182" lon="7.03282"><ele></ele><time>2017-6-21T5:56:13Z</time></trkpt>
<trkpt lat="46.13182" lon="7.03282"><ele></ele><time>2017-6-21T5:56:16Z</time></trkpt>
<trkpt lat="46.13182" lon="7.03282"><ele></ele><time>2017-6-21T5:56:19Z</time></trkpt>
<trkpt lat="46.13181" lon="7.03282"><ele></ele><time>2017-6-21T5:56:22Z</time></trkpt>
<trkpt lat="46.13181" lon="7.03282"><ele></ele><time>2017-6-21T5:56:25Z</time></trkpt>
<trkpt lat="46.13181" lon="7.03283"><ele></ele><time>2017-6-21T5:56:28Z</time></trkpt>
<trkpt lat="46.13181" lon="7.03283"><ele></ele><time>2017-6-21T5:56:31Z</time></trkpt>
<trkpt lat="46.13181" lon="7.03283"><ele></ele><time>2017-6-21T5:56:34Z</time></trkpt>
<trkpt lat="46.1318" lon="7.03283"><ele></ele><time>2017-6-21T5:56:37Z</time></trkpt>
<trkpt lat="46.1318" lon="7.03283"><ele></ele><time>2017-6-21T5:56:40Z</time></trkpt>
<trkpt lat="46.1318" lon="7.03283"><ele></ele><time>2017-6-21T5:56:43Z</time></trkpt>
<trkpt lat="46.1318" lon="7.03282"><ele></ele><time>2017-6-21T5:56:46Z</time></trkpt>
<trkpt lat="46.1318" lon="7.0328"><ele></ele><time>2017-6-21T5:56:49Z</time></trkpt>
<trkpt lat="46.1318" lon="7.03279"><ele></ele><time>2017-6-21T5:56:52Z</time></trkpt>
<trkpt lat="46.13181" lon="7.03278"><ele></ele><time>2017-6-21T5:56:55Z</time></trkpt>
<trkpt lat="46.13181" lon="7.03277"><ele></ele><time>2017-6-21T5:56:58Z</time></trkpt>
<trkpt lat="46.13181" lon="7.03275"><ele></ele><time>2017-6-21T5:57:1Z</time></trkpt>
<trkpt lat="46.13181" lon="7.03273"><ele></ele><time>2017-6-21T5:57:4Z</time></trkpt>
<trkpt lat="46.13181" lon="7.03271"><ele></ele><time>2017-6-21T5:57:7Z</time></trkpt>
<trkpt lat="46.13181" lon="7.0327"><ele></ele><time>2017-6-21T5:57:10Z</time></trkpt>
<trkpt lat="46.13181" lon="7.03268"><ele></ele><time>2017-6-21T5:57:13Z</time></trkpt>
<trkpt lat="46.13181" lon="7.03266"><ele></ele><time>2017-6-21T5:57:16Z</time></trkpt>
<trkpt lat="46.13182" lon="7.03264"><ele></ele><time>2017-6-21T5:57:19Z</time></trkpt>
<trkpt lat="46.13182" lon="7.03262"><ele></ele><time>2017-6-21T5:57:22Z</time></trkpt>
<trkpt lat="46.13182" lon="7.03261"><ele></ele><time>2017-6-21T5:57:25Z</time></trkpt>
<trkpt lat="46.13182" lon="7.03259"><ele></ele><time>2017-6-21T5:57:28Z</time></trkpt>
<trkpt lat="46.13182" lon="7.03257"><ele></ele><time>2017-6-21T5:57:31Z</time></trkpt>
<trkpt lat="46.13182" lon="7.03255"><ele></ele><time>2017-6-21T5:57:34Z</time></trkpt>
<trkpt lat="46.13183" lon="7.03253"><ele></ele><time>2017-6-21T5:57:37Z</time></trkpt>
<trkpt lat="46.13183" lon="7.03252"><ele></ele><time>2017-6-21T5:57:40Z</time></trkpt>
<trkpt lat="46.13183" lon="7.0325"><ele></ele><time>2017-6-21T5:57:43Z</time></trkpt>
<trkpt lat="46.13183" lon="7.03248"><ele></ele><time>2017-6-21T5:57:46Z</time></trkpt>
<trkpt lat="46.13183" lon="7.03246"><ele></ele><time>2017-6-21T5:57:49Z</time></trkpt>
<trkpt lat="46.13183" lon="7.03244"><ele></ele><time>2017-6-21T5:57:52Z</time></trkpt>
<trkpt lat="46.13183" lon="7.03243"><ele></ele><time>2017-6-21T5:57:55Z</time></trkpt>
<trkpt lat="46.13184" lon="7.03242"><ele></ele><time>2017-6-21T5:57:58Z</time></trkpt>
<trkpt lat="46.13184" lon="7.03241"><ele></ele><time>2017-6-21T5:58:1Z</time></trkpt>
<trkpt lat="46.13176" lon="7.03244"><ele></ele><time>2017-6-21T5:58:4Z</time></trkpt>
<trkpt lat="46.13176" lon="7.03244"><ele></ele><time>2017-6-21T5:58:7Z</time></trkpt>
<trkpt lat="46.13168" lon="7.03249"><ele></ele><time>2017-6-21T5:58:10Z</time></trkpt>
<trkpt lat="46.13168" lon="7.0325"><ele></ele><time>2017-6-21T5:58:13Z</time></trkpt>
<trkpt lat="46.13168" lon="7.0325"><ele></ele><time>2017-6-21T5:58:16Z</time></trkpt>
<trkpt lat="46.13168" lon="7.0325"><ele></ele><time>2017-6-21T5:58:19Z</time></trkpt>
<trkpt lat="46.13168" lon="7.03251"><ele></ele><time>2017-6-21T5:58:22Z</time></trkpt>
<trkpt lat="46.13167" lon="7.03252"><ele></ele><time>2017-6-21T5:58:25Z</time></trkpt>
<trkpt lat="46.13167" lon="7.03252"><ele></ele><time>2017-6-21T5:58:28Z</time></trkpt>
<trkpt lat="46.13167" lon="7.03253"><ele></ele><time>2017-6-21T5:58:31Z</time></trkpt>
<trkpt lat="46.13167" lon="7.03254"><ele></ele><time>2017-6-21T5:58:34Z</time></trkpt>
<trkpt lat="46.13167" lon="7.03254"><ele></ele><time>2017-6-21T5:58:37Z</time></trkpt>
<trkpt lat="46.13167" lon="7.03255"><ele></ele><time>2017-6-21T5:58:40Z</time></trkpt>
<trkpt lat="46.13167" lon="7.03255"><ele></ele><time>2017-6-21T5:58:43Z</time></trkpt>
<trkpt lat="46.13167" lon="7.03256"><ele></ele><time>2017-6-21T5:58:46Z</time></trkpt>
<trkpt lat="46.13167" lon="7.03256"><ele></ele><time>2017-6-21T5:58:49Z</time></trkpt>
<trkpt lat="46.13167" lon="7.03257"><ele></ele><time>2017-6-21T5:58:52Z</time></trkpt>
<trkpt lat="46.13167" lon="7.03258"><ele></ele><time>2017-6-21T5:58:55Z</time></trkpt>
<trkpt lat="46.13167" lon="7.03258"><ele></ele><time>2017-6-21T5:58:58Z</time></trkpt>
<trkpt lat="46.13167" lon="7.03257"><ele></ele><time>2017-6-21T5:59:1Z</time></trkpt>
<trkpt lat="46.13168" lon="7.03255"><ele></ele><time>2017-6-21T5:59:4Z</time></trkpt>
<trkpt lat="46.13169" lon="7.03253"><ele></ele><time>2017-6-21T5:59:7Z</time></trkpt>
<trkpt lat="46.13171" lon="7.03251"><ele></ele><time>2017-6-21T5:59:10Z</time></trkpt>
<trkpt lat="46.13172" lon="7.03249"><ele></ele><time>2017-6-21T5:59:13Z</time></trkpt>
<trkpt lat="46.13173" lon="7.03247"><ele></ele><time>2017-6-21T5:59:16Z</time></trkpt>
<trkpt lat="46.13174" lon="7.03245"><ele></ele><time>2017-6-21T5:59:19Z</time></trkpt>
<trkpt lat="46.13175" lon="7.03243"><ele></ele><time>2017-6-21T5:59:22Z</time></trkpt>
<trkpt lat="46.13176" lon="7.03241"><ele></ele><time>2017-6-21T5:59:25Z</time></trkpt>
<trkpt lat="46.13177" lon="7.03239"><ele></ele><time>2017-6-21T5:59:28Z</time></trkpt>
<trkpt lat="46.13178" lon="7.03237"><ele></ele><time>2017-6-21T5:59:31Z</time></trkpt>
<trkpt lat="46.13179" lon="7.03235"><ele></ele><time>2017-6-21T5:59:34Z</time></trkpt>
<trkpt lat="46.13181" lon="7.03233"><ele></ele><time>2017-6-21T5:59:37Z</time></trkpt>
<trkpt lat="46.13182" lon="7.03231"><ele></ele><time>2017-6-21T5:59:40Z</time></trkpt>
<trkpt lat="46.13183" lon="7.03229"><ele></ele><time>2017-6-21T5:59:43Z</time></trkpt>
<trkpt lat="46.13184" lon="7.03227"><ele></ele><time>2017-6-21T5:59:46Z</time></trkpt>
<trkpt lat="46.13185" lon="7.03225"><ele></ele><time>2017-6-21T5:59:49Z</time></trkpt>
<trkpt lat="46.13186" lon="7.03223"><ele></ele><time>2017-6-21T5:59:52Z</time></trkpt>
<trkpt lat="46.13187" lon="7.03221"><ele></ele><time>2017-6-21T5:59:55Z</time></trkpt>
<trkpt lat="46.13188" lon="7.03219"><ele></ele><time>2017-6-21T5:59:58Z</time></trkpt>
<trkpt lat="46.13189" lon="7.03217"><ele></ele><time>2017-6-21T6:0:1Z</time></trkpt>
<trkpt lat="46.13191" lon="7.03215"><ele></ele><time>2017-6-21T6:0:4Z</time></trkpt>
<trkpt lat="46.13191" lon="7.03213"><ele></ele><time>2017-6-21T6:0:7Z</time></trkpt>
<trkpt lat="46.13189" lon="7.03213"><ele></ele><time>2017-6-21T6:0:10Z</time></trkpt>
<trkpt lat="46.13186" lon="7.03213"><ele></ele><time>2017-6-21T6:0:13Z</time></trkpt>
<trkpt lat="46.13184" lon="7.03212"><ele></ele><time>2017-6-21T6:0:16Z</time></trkpt>
<trkpt lat="46.13181" lon="7.03212"><ele></ele><time>2017-6-21T6:0:19Z</time></trkpt>
<trkpt lat="46.13179" lon="7.03212"><ele></ele><time>2017-6-21T6:0:22Z</time></trkpt>
<trkpt lat="46.13178" lon="7.03213"><ele></ele><time>2017-6-21T6:0:25Z</time></trkpt>
<trkpt lat="46.13177" lon="7.03214"><ele></ele><time>2017-6-21T6:0:28Z</time></trkpt>
<trkpt lat="46.13175" lon="7.03216"><ele></ele><time>2017-6-21T6:0:31Z</time></trkpt>
<trkpt lat="46.13173" lon="7.03219"><ele></ele><time>2017-6-21T6:0:34Z</time></trkpt>
<trkpt lat="46.13171" lon="7.03221"><ele></ele><time>2017-6-21T6:0:37Z</time></trkpt>
<trkpt lat="46.1317" lon="7.03224"><ele></ele><time>2017-6-21T6:0:40Z</time></trkpt>
<trkpt lat="46.13168" lon="7.03226"><ele></ele><time>2017-6-21T6:0:43Z</time></trkpt>
<trkpt lat="46.13166" lon="7.03229"><ele></ele><time>2017-6-21T6:0:46Z</time></trkpt>
<trkpt lat="46.13164" lon="7.03232"><ele></ele><time>2017-6-21T6:0:49Z</time></trkpt>
<trkpt lat="46.13162" lon="7.03234"><ele></ele><time>2017-6-21T6:0:52Z</time></trkpt>
<trkpt lat="46.13161" lon="7.03237"><ele></ele><time>2017-6-21T6:0:55Z</time></trkpt>
<trkpt lat="46.1316" lon="7.03238"><ele></ele><time>2017-6-21T6:0:58Z</time></trkpt>
<trkpt lat="46.13159" lon="7.03239"><ele></ele><time>2017-6-21T6:1:1Z</time></trkpt>
<trkpt lat="46.13157" lon="7.03242"><ele></ele><time>2017-6-21T6:1:4Z</time></trkpt>
<trkpt lat="46.13155" lon="7.03244"><ele></ele><time>2017-6-21T6:1:7Z</time></trkpt>
<trkpt lat="46.13153" lon="7.03247"><ele></ele><time>2017-6-21T6:1:10Z</time></trkpt>
<trkpt lat="46.13152" lon="7.03249"><ele></ele><time>2017-6-21T6:1:13Z</time></trkpt>
<trkpt lat="46.13151" lon="7.0325"><ele></ele><time>2017-6-21T6:1:16Z</time></trkpt>
<trkpt lat="46.13151" lon="7.0325"><ele></ele><time>2017-6-21T6:1:19Z</time></trkpt>
<trkpt lat="46.13151" lon="7.03249"><ele></ele><time>2017-6-21T6:1:22Z</time></trkpt>
<trkpt lat="46.13151" lon="7.03249"><ele></ele><time>2017-6-21T6:1:25Z</time></trkpt>
<trkpt lat="46.1315" lon="7.03248"><ele></ele><time>2017-6-21T6:1:28Z</time></trkpt>
<trkpt lat="46.1315" lon="7.03248"><ele></ele><time>2017-6-21T6:1:31Z</time></trkpt>
<trkpt lat="46.1315" lon="7.03247"><ele></ele><time>2017-6-21T6:1:34Z</time></trkpt>
<trkpt lat="46.1315" lon="7.03247"><ele></ele><time>2017-6-21T6:1:37Z</time></trkpt>
<trkpt lat="46.1315" lon="7.03246"><ele></ele><time>2017-6-21T6:1:40Z</time></trkpt>
<trkpt lat="46.1315" lon="7.03245"><ele></ele><time>2017-6-21T6:1:43Z</time></trkpt>
<trkpt lat="46.1315" lon="7.03245"><ele></ele><time>2017-6-21T6:1:46Z</time></trkpt>
<trkpt lat="46.13149" lon="7.03244"><ele></ele><time>2017-6-21T6:1:49Z</time></trkpt>
<trkpt lat="46.13149" lon="7.03244"><ele></ele><time>2017-6-21T6:1:52Z</time></trkpt>
<trkpt lat="46.13149" lon="7.03243"><ele></ele><time>2017-6-21T6:1:55Z</time></trkpt>
<trkpt lat="46.13149" lon="7.03242"><ele></ele><time>2017-6-21T6:1:58Z</time></trkpt>
<trkpt lat="46.13149" lon="7.03242"><ele></ele><time>2017-6-21T6:2:1Z</time></trkpt>
<trkpt lat="46.13149" lon="7.03242"><ele></ele><time>2017-6-21T6:2:4Z</time></trkpt>
<trkpt lat="46.13149" lon="7.03241"><ele></ele><time>2017-6-21T6:2:7Z</time></trkpt>
<trkpt lat="46.13148" lon="7.03241"><ele></ele><time>2017-6-21T6:2:10Z</time></trkpt>
<trkpt lat="46.13148" lon="7.0324"><ele></ele><time>2017-6-21T6:2:13Z</time></trkpt>
<trkpt lat="46.13148" lon="7.03239"><ele></ele><time>2017-6-21T6:2:16Z</time></trkpt>
<trkpt lat="46.13148" lon="7.03239"><ele></ele><time>2017-6-21T6:2:19Z</time></trkpt>
<trkpt lat="46.13148" lon="7.03238"><ele></ele><time>2017-6-21T6:2:22Z</time></trkpt>
<trkpt lat="46.13148" lon="7.03238"><ele></ele><time>2017-6-21T6:2:25Z</time></trkpt>
<trkpt lat="46.13147" lon="7.03237"><ele></ele><time>2017-6-21T6:2:28Z</time></trkpt>
<trkpt lat="46.13147" lon="7.03236"><ele></ele><time>2017-6-21T6:2:31Z</time></trkpt>
<trkpt lat="46.13147" lon="7.03236"><ele></ele><time>2017-6-21T6:2:34Z</time></trkpt>
<trkpt lat="46.13147" lon="7.03235"><ele></ele><time>2017-6-21T6:2:37Z</time></trkpt>
<trkpt lat="46.13147" lon="7.03235"><ele></ele><time>2017-6-21T6:2:40Z</time></trkpt>
<trkpt lat="46.13147" lon="7.03234"><ele></ele><time>2017-6-21T6:2:43Z</time></trkpt>
<trkpt lat="46.13146" lon="7.03233"><ele></ele><time>2017-6-21T6:2:46Z</time></trkpt>
<trkpt lat="46.13146" lon="7.03233"><ele></ele><time>2017-6-21T6:2:49Z</time></trkpt>
<trkpt lat="46.13146" lon="7.03232"><ele></ele><time>2017-6-21T6:2:52Z</time></trkpt>
<trkpt lat="46.13146" lon="7.03231"><ele></ele><time>2017-6-21T6:2:55Z</time></trkpt>
<trkpt lat="46.13146" lon="7.03231"><ele></ele><time>2017-6-21T6:2:58Z</time></trkpt>
<trkpt lat="46.13146" lon="7.0323"><ele></ele><time>2017-6-21T6:3:1Z</time></trkpt>
<trkpt lat="46.13145" lon="7.0323"><ele></ele><time>2017-6-21T6:3:4Z</time></trkpt>
<trkpt lat="46.13145" lon="7.03229"><ele></ele><time>2017-6-21T6:3:7Z</time></trkpt>
<trkpt lat="46.13145" lon="7.03229"><ele></ele><time>2017-6-21T6:3:10Z</time></trkpt>
<trkpt lat="46.13145" lon="7.03233"><ele></ele><time>2017-6-21T6:3:13Z</time></trkpt>
<trkpt lat="46.13145" lon="7.03234"><ele></ele><time>2017-6-21T6:3:16Z</time></trkpt>
<trkpt lat="46.13145" lon="7.03236"><ele></ele><time>2017-6-21T6:3:19Z</time></trkpt>
<trkpt lat="46.13145" lon="7.03239"><ele></ele><time>2017-6-21T6:3:22Z</time></trkpt>
<trkpt lat="46.13145" lon="7.03243"><ele></ele><time>2017-6-21T6:3:25Z</time></trkpt>
<trkpt lat="46.13145" lon="7.03246"><ele></ele><time>2017-6-21T6:3:28Z</time></trkpt>
<trkpt lat="46.13145" lon="7.0325"><ele></ele><time>2017-6-21T6:3:31Z</time></trkpt>
<trkpt lat="46.13145" lon="7.03253"><ele></ele><time>2017-6-21T6:3:34Z</time></trkpt>
<trkpt lat="46.13145" lon="7.03257"><ele></ele><time>2017-6-21T6:3:37Z</time></trkpt>
<trkpt lat="46.13145" lon="7.0326"><ele></ele><time>2017-6-21T6:3:40Z</time></trkpt>
<trkpt lat="46.13144" lon="7.03263"><ele></ele><time>2017-6-21T6:3:43Z</time></trkpt>
<trkpt lat="46.13144" lon="7.03267"><ele></ele><time>2017-6-21T6:3:46Z</time></trkpt>
<trkpt lat="46.13144" lon="7.0327"><ele></ele><time>2017-6-21T6:3:49Z</time></trkpt>
<trkpt lat="46.13144" lon="7.03272"><ele></ele><time>2017-6-21T6:3:52Z</time></trkpt>
<trkpt lat="46.13144" lon="7.03274"><ele></ele><time>2017-6-21T6:3:55Z</time></trkpt>
<trkpt lat="46.13144" lon="7.03277"><ele></ele><time>2017-6-21T6:3:58Z</time></trkpt>
<trkpt lat="46.13144" lon="7.0328"><ele></ele><time>2017-6-21T6:4:1Z</time></trkpt>
<trkpt lat="46.13144" lon="7.03284"><ele></ele><time>2017-6-21T6:4:4Z</time></trkpt>
<trkpt lat="46.13144" lon="7.03287"><ele></ele><time>2017-6-21T6:4:7Z</time></trkpt>
<trkpt lat="46.13144" lon="7.03291"><ele></ele><time>2017-6-21T6:4:10Z</time></trkpt>
<trkpt lat="46.13144" lon="7.03293"><ele></ele><time>2017-6-21T6:4:13Z</time></trkpt>
<trkpt lat="46.13141" lon="7.03291"><ele></ele><time>2017-6-21T6:4:16Z</time></trkpt>
<trkpt lat="46.13139" lon="7.03288"><ele></ele><time>2017-6-21T6:4:19Z</time></trkpt>
<trkpt lat="46.13137" lon="7.03286"><ele></ele><time>2017-6-21T6:4:22Z</time></trkpt>
<trkpt lat="46.13135" lon="7.03284"><ele></ele><time>2017-6-21T6:4:25Z</time></trkpt>
<trkpt lat="46.13134" lon="7.03281"><ele></ele><time>2017-6-21T6:4:28Z</time></trkpt>
<trkpt lat="46.13134" lon="7.03278"><ele></ele><time>2017-6-21T6:4:31Z</time></trkpt>
<trkpt lat="46.13133" lon="7.03274"><ele></ele><time>2017-6-21T6:4:34Z</time></trkpt>
<trkpt lat="46.13132" lon="7.03271"><ele></ele><time>2017-6-21T6:4:37Z</time></trkpt>
<trkpt lat="46.13131" lon="7.03268"><ele></ele><time>2017-6-21T6:4:40Z</time></trkpt>
<trkpt lat="46.1313" lon="7.03265"><ele></ele><time>2017-6-21T6:4:43Z</time></trkpt>
<trkpt lat="46.13129" lon="7.03262"><ele></ele><time>2017-6-21T6:4:46Z</time></trkpt>
<trkpt lat="46.13129" lon="7.03259"><ele></ele><time>2017-6-21T6:4:49Z</time></trkpt>
<trkpt lat="46.13128" lon="7.03256"><ele></ele><time>2017-6-21T6:4:52Z</time></trkpt>
<trkpt lat="46.13127" lon="7.03253"><ele></ele><time>2017-6-21T6:4:55Z</time></trkpt>
<trkpt lat="46.13126" lon="7.0325"><ele></ele><time>2017-6-21T6:4:58Z</time></trkpt>
<trkpt lat="46.13125" lon="7.03247"><ele></ele><time>2017-6-21T6:5:1Z</time></trkpt>
<trkpt lat="46.13125" lon="7.03244"><ele></ele><time>2017-6-21T6:5:4Z</time></trkpt>
<trkpt lat="46.13124" lon="7.03241"><ele></ele><time>2017-6-21T6:5:7Z</time></trkpt>
<trkpt lat="46.13123" lon="7.03239"><ele></ele><time>2017-6-21T6:5:10Z</time></trkpt>
<trkpt lat="46.13123" lon="7.03238"><ele></ele><time>2017-6-21T6:5:13Z</time></trkpt>
<trkpt lat="46.13122" lon="7.03234"><ele></ele><time>2017-6-21T6:5:16Z</time></trkpt>
<trkpt lat="46.13121" lon="7.03231"><ele></ele><time>2017-6-21T6:5:19Z</time></trkpt>
<trkpt lat="46.1312" lon="7.03228"><ele></ele><time>2017-6-21T6:5:22Z</time></trkpt>
<trkpt lat="46.1312" lon="7.03225"><ele></ele><time>2017-6-21T6:5:25Z</time></trkpt>
<trkpt lat="46.13119" lon="7.03222"><ele></ele><time>2017-6-21T6:5:28Z</time></trkpt>
<trkpt lat="46.13117" lon="7.03218"><ele></ele><time>2017-6-21T6:5:31Z</time></trkpt>
<trkpt lat="46.13115" lon="7.03215"><ele></ele><time>2017-6-21T6:5:34Z</time></trkpt>
<trkpt lat="46.13113" lon="7.03211"><ele></ele><time>2017-6-21T6:5:37Z</time></trkpt>
<trkpt lat="46.13111" lon="7.03208"><ele></ele><time>2017-6-21T6:5:40Z</time></trkpt>
<trkpt lat="46.13111" lon="7.03207"><ele></ele><time>2017-6-21T6:5:43Z</time></trkpt>
<trkpt lat="46.13111" lon="7.03206"><ele></ele><time>2017-6-21T6:5:46Z</time></trkpt>
<trkpt lat="46.13112" lon="7.03206"><ele></ele><time>2017-6-21T6:5:49Z</time></trkpt>
<trkpt lat="46.13112" lon="7.03205"><ele></ele><time>2017-6-21T6:5:52Z</time></trkpt>
<trkpt lat="46.13113" lon="7.03205"><ele></ele><time>2017-6-21T6:5:55Z</time></trkpt>
<trkpt lat="46.13114" lon="7.03204"><ele></ele><time>2017-6-21T6:5:58Z</time></trkpt>
<trkpt lat="46.13114" lon="7.03203"><ele></ele><time>2017-6-21T6:6:1Z</time></trkpt>
<trkpt lat="46.13115" lon="7.03203"><ele></ele><time>2017-6-21T6:6:4Z</time></trkpt>
<trkpt lat="46.13116" lon="7.03202"><ele></ele><time>2017-6-21T6:6:7Z</time></trkpt>
<trkpt lat="46.13117" lon="7.03201"><ele></ele><time>2017-6-21T6:6:10Z</time></trkpt>
<trkpt lat="46.13125" lon="7.03195"><ele></ele><time>2017-6-21T6:6:13Z</time></trkpt>
<trkpt lat="46.13125" lon="7.03195"><ele></ele><time>2017-6-21T6:6:16Z</time></trkpt>
<trkpt lat="46.13132" lon="7.03189"><ele></ele><time>2017-6-21T6:6:19Z</time></trkpt>
<trkpt lat="46.13133" lon="7.03188"><ele></ele><time>2017-6-21T6:6:22Z</time></trkpt>
<trkpt lat="46.13134" lon="7.03187"><ele></ele><time>2017-6-21T6:6:25Z</time></trkpt>
<trkpt lat="46.13134" lon="7.03187"><ele></ele><time>2017-6-21T6:6:28Z</time></trkpt>
<trkpt lat="46.13133" lon="7.03187"><ele></ele><time>2017-6-21T6:6:31Z</time></trkpt>
<trkpt lat="46.13131" lon="7.03186"><ele></ele><time>2017-6-21T6:6:34Z</time></trkpt>
<trkpt lat="46.13128" lon="7.03186"><ele></ele><time>2017-6-21T6:6:37Z</time></trkpt>
<trkpt lat="46.13126" lon="7.03186"><ele></ele><time>2017-6-21T6:6:40Z</time></trkpt>
<trkpt lat="46.13124" lon="7.03186"><ele></ele><time>2017-6-21T6:6:43Z</time></trkpt>
<trkpt lat="46.13122" lon="7.03185"><ele></ele><time>2017-6-21T6:6:46Z</time></trkpt>
<trkpt lat="46.1312" lon="7.03185"><ele></ele><time>2017-6-21T6:6:49Z</time></trkpt>
<trkpt lat="46.13118" lon="7.03185"><ele></ele><time>2017-6-21T6:6:52Z</time></trkpt>
<trkpt lat="46.13116" lon="7.03185"><ele></ele><time>2017-6-21T6:6:55Z</time></trkpt>
<trkpt lat="46.13114" lon="7.03184"><ele></ele><time>2017-6-21T6:6:58Z</time></trkpt>
<trkpt lat="46.13112" lon="7.03184"><ele></ele><time>2017-6-21T6:7:1Z</time></trkpt>
<trkpt lat="46.13111" lon="7.03184"><ele></ele><time>2017-6-21T6:7:4Z</time></trkpt>
<trkpt lat="46.1311" lon="7.03184"><ele></ele><time>2017-6-21T6:7:7Z</time></trkpt>
<trkpt lat="46.13108" lon="7.03183"><ele></ele><time>2017-6-21T6:7:10Z</time></trkpt>
<trkpt lat="46.13106" lon="7.03183"><ele></ele><time>2017-6-21T6:7:13Z</time></trkpt>
<trkpt lat="46.13104" lon="7.03183"><ele></ele><time>2017-6-21T6:7:16Z</time></trkpt>
<trkpt lat="46.13102" lon="7.03183"><ele></ele><time>2017-6-21T6:7:19Z</time></trkpt>
<trkpt lat="46.131" lon="7.03182"><ele></ele><time>2017-6-21T6:7:22Z</time></trkpt>
<trkpt lat="46.13098" lon="7.03182"><ele></ele><time>2017-6-21T6:7:25Z</time></trkpt>
<trkpt lat="46.13095" lon="7.03182"><ele></ele><time>2017-6-21T6:7:28Z</time></trkpt>
<trkpt lat="46.13093" lon="7.03182"><ele></ele><time>2017-6-21T6:7:31Z</time></trkpt>
<trkpt lat="46.13091" lon="7.03181"><ele></ele><time>2017-6-21T6:7:34Z</time></trkpt>
<trkpt lat="46.13089" lon="7.03181"><ele></ele><time>2017-6-21T6:7:37Z</time></trkpt>
<trkpt lat="46.13088" lon="7.03181"><ele></ele><time>2017-6-21T6:7:40Z</time></trkpt>
<trkpt lat="46.13087" lon="7.03181"><ele></ele><time>2017-6-21T6:7:43Z</time></trkpt>
<trkpt lat="46.13085" lon="7.0318"><ele></ele><time>2017-6-21T6:7:46Z</time></trkpt>
<trkpt lat="46.13082" lon="7.0318"><ele></ele><time>2017-6-21T6:7:49Z</time></trkpt>
<trkpt lat="46.1308" lon="7.03179"><ele></ele><time>2017-6-21T6:7:52Z</time></trkpt>
<trkpt lat="46.13078" lon="7.03179"><ele></ele><time>2017-6-21T6:7:55Z</time></trkpt>
<trkpt lat="46.13076" lon="7.03178"><ele></ele><time>2017-6-21T6:7:58Z</time></trkpt>
<trkpt lat="46.13073" lon="7.03178"><ele></ele><time>2017-6-21T6:8:1Z</time></trkpt>
<trkpt lat="46.13071" lon="7.03177"><ele></ele><time>2017-6-21T6:8:4Z</time></trkpt>
<trkpt lat="46.13071" lon="7.03177"><ele></ele><time>2017-6-21T6:8:7Z</time></trkpt>
<trkpt lat="46.13072" lon="7.03176"><ele></ele><time>2017-6-21T6:8:10Z</time></trkpt>
<trkpt lat="46.13074" lon="7.03175"><ele></ele><time>2017-6-21T6:8:13Z</time></trkpt>
<trkpt lat="46.13075" lon="7.03174"><ele></ele><time>2017-6-21T6:8:16Z</time></trkpt>
<trkpt lat="46.13076" lon="7.03173"><ele></ele><time>2017-6-21T6:8:19Z</time></trkpt>
<trkpt lat="46.13077" lon="7.03172"><ele></ele><time>2017-6-21T6:8:22Z</time></trkpt>
<trkpt lat="46.13079" lon="7.03171"><ele></ele><time>2017-6-21T6:8:25Z</time></trkpt>
<trkpt lat="46.13081" lon="7.0317"><ele></ele><time>2017-6-21T6:8:28Z</time></trkpt>
<trkpt lat="46.13083" lon="7.03169"><ele></ele><time>2017-6-21T6:8:31Z</time></trkpt>
<trkpt lat="46.13085" lon="7.03168"><ele></ele><time>2017-6-21T6:8:34Z</time></trkpt>
<trkpt lat="46.13087" lon="7.03166"><ele></ele><time>2017-6-21T6:8:37Z</time></trkpt>
<trkpt lat="46.13089" lon="7.03165"><ele></ele><time>2017-6-21T6:8:40Z</time></trkpt>
<trkpt lat="46.13091" lon="7.03164"><ele></ele><time>2017-6-21T6:8:43Z</time></trkpt>
<trkpt lat="46.13093" lon="7.03163"><ele></ele><time>2017-6-21T6:8:46Z</time></trkpt>
<trkpt lat="46.13095" lon="7.03161"><ele></ele><time>2017-6-21T6:8:49Z</time></trkpt>
<trkpt lat="46.13097" lon="7.0316"><ele></ele><time>2017-6-21T6:8:52Z</time></trkpt>
<trkpt lat="46.13098" lon="7.0316"><ele></ele><time>2017-6-21T6:8:55Z</time></trkpt>
<trkpt lat="46.13099" lon="7.03159"><ele></ele><time>2017-6-21T6:8:58Z</time></trkpt>
<trkpt lat="46.13101" lon="7.03158"><ele></ele><time>2017-6-21T6:9:1Z</time></trkpt>
<trkpt lat="46.13103" lon="7.03156"><ele></ele><time>2017-6-21T6:9:4Z</time></trkpt>
<trkpt lat="46.13105" lon="7.03155"><ele></ele><time>2017-6-21T6:9:7Z</time></trkpt>
<trkpt lat="46.13107" lon="7.03154"><ele></ele><time>2017-6-21T6:9:10Z</time></trkpt>
<trkpt lat="46.13109" lon="7.03153"><ele></ele><time>2017-6-21T6:9:13Z</time></trkpt>
<trkpt lat="46.13109" lon="7.03152"><ele></ele><time>2017-6-21T6:9:16Z</time></trkpt>
<trkpt lat="46.13108" lon="7.03152"><ele></ele><time>2017-6-21T6:9:19Z</time></trkpt>
<trkpt lat="46.13106" lon="7.03152"><ele></ele><time>2017-6-21T6:9:22Z</time></trkpt>
<trkpt lat="46.13104" lon="7.03152"><ele></ele><time>2017-6-21T6:9:25Z</time></trkpt>
<trkpt lat="46.13102" lon="7.03152"><ele></ele><time>2017-6-21T6:9:28Z</time></trkpt>
<trkpt lat="46.13099" lon="7.03151"><ele></ele><time>2017-6-21T6:9:31Z</time></trkpt>
<trkpt lat="46.13097" lon="7.03151"><ele></ele><time>2017-6-21T6:9:34Z</time></trkpt>
<trkpt lat="46.13095" lon="7.03151"><ele></ele><time>2017-6-21T6:9:37Z</time></trkpt>
<trkpt lat="46.13093" lon="7.03151"><ele></ele><time>2017-6-21T6:9:40Z</time></trkpt>
<trkpt lat="46.13091" lon="7.0315"><ele></ele><time>2017-6-21T6:9:43Z</time></trkpt>
<trkpt lat="46.13088" lon="7.0315"><ele></ele><time>2017-6-21T6:9:46Z</time></trkpt>
<trkpt lat="46.13086" lon="7.0315"><ele></ele><time>2017-6-21T6:9:49Z</time></trkpt>
<trkpt lat="46.13084" lon="7.0315"><ele></ele><time>2017-6-21T6:9:52Z</time></trkpt>
<trkpt lat="46.13082" lon="7.0315"><ele></ele><time>2017-6-21T6:9:55Z</time></trkpt>
<trkpt lat="46.1308" lon="7.03149"><ele></ele><time>2017-6-21T6:9:58Z</time></trkpt>
<trkpt lat="46.13077" lon="7.03149"><ele></ele><time>2017-6-21T6:10:1Z</time></trkpt>
<trkpt lat="46.13075" lon="7.03149"><ele></ele><time>2017-6-21T6:10:4Z</time></trkpt>
<trkpt lat="46.13073" lon="7.03149"><ele></ele><time>2017-6-21T6:10:7Z</time></trkpt>
<trkpt lat="46.13071" lon="7.03148"><ele></ele><time>2017-6-21T6:10:10Z</time></trkpt>
<trkpt lat="46.13069" lon="7.03148"><ele></ele><time>2017-6-21T6:10:13Z</time></trkpt>
<trkpt lat="46.13067" lon="7.03148"><ele></ele><time>2017-6-21T6:10:16Z</time></trkpt>
<trkpt lat="46.13064" lon="7.03148"><ele></ele><time>2017-6-21T6:10:19Z</time></trkpt>
<trkpt lat="46.13063" lon="7.03148"><ele></ele><time>2017-6-21T6:10:22Z</time></trkpt>
<trkpt lat="46.13062" lon="7.03148"><ele></ele><time>2017-6-21T6:10:25Z</time></trkpt>
<trkpt lat="46.13061" lon="7.03148"><ele></ele><time>2017-6-21T6:10:28Z</time></trkpt>
<trkpt lat="46.13059" lon="7.03148"><ele></ele><time>2017-6-21T6:10:31Z</time></trkpt>
<trkpt lat="46.13058" lon="7.03148"><ele></ele><time>2017-6-21T6:10:34Z</time></trkpt>
<trkpt lat="46.13057" lon="7.03148"><ele></ele><time>2017-6-21T6:10:37Z</time></trkpt>
<trkpt lat="46.13055" lon="7.03148"><ele></ele><time>2017-6-21T6:10:40Z</time></trkpt>
<trkpt lat="46.13053" lon="7.03147"><ele></ele><time>2017-6-21T6:10:43Z</time></trkpt>
<trkpt lat="46.13051" lon="7.03147"><ele></ele><time>2017-6-21T6:10:46Z</time></trkpt>
<trkpt lat="46.13049" lon="7.03147"><ele></ele><time>2017-6-21T6:10:49Z</time></trkpt>
<trkpt lat="46.13048" lon="7.03147"><ele></ele><time>2017-6-21T6:10:52Z</time></trkpt>
<trkpt lat="46.13046" lon="7.03147"><ele></ele><time>2017-6-21T6:10:55Z</time></trkpt>
<trkpt lat="46.13044" lon="7.03147"><ele></ele><time>2017-6-21T6:10:58Z</time></trkpt>
<trkpt lat="46.13042" lon="7.03147"><ele></ele><time>2017-6-21T6:11:1Z</time></trkpt>
<trkpt lat="46.1304" lon="7.03147"><ele></ele><time>2017-6-21T6:11:4Z</time></trkpt>
<trkpt lat="46.13039" lon="7.03147"><ele></ele><time>2017-6-21T6:11:7Z</time></trkpt>
<trkpt lat="46.13039" lon="7.03146"><ele></ele><time>2017-6-21T6:11:10Z</time></trkpt>
<trkpt lat="46.1304" lon="7.03145"><ele></ele><time>2017-6-21T6:11:13Z</time></trkpt>
<trkpt lat="46.13041" lon="7.03143"><ele></ele><time>2017-6-21T6:11:16Z</time></trkpt>
<trkpt lat="46.13041" lon="7.03142"><ele></ele><time>2017-6-21T6:11:19Z</time></trkpt>
<trkpt lat="46.13042" lon="7.0314"><ele></ele><time>2017-6-21T6:11:22Z</time></trkpt>
<trkpt lat="46.13043" lon="7.03138"><ele></ele><time>2017-6-21T6:11:25Z</time></trkpt>
<trkpt lat="46.13044" lon="7.03137"><ele></ele><time>2017-6-21T6:11:28Z</time></trkpt>
<trkpt lat="46.13045" lon="7.03135"><ele></ele><time>2017-6-21T6:11:31Z</time></trkpt>
<trkpt lat="46.13046" lon="7.03133"><ele></ele><time>2017-6-21T6:11:34Z</time></trkpt>
<trkpt lat="46.13046" lon="7.03131"><ele></ele><time>2017-6-21T6:11:37Z</time></trkpt>
<trkpt lat="46.13047" lon="7.0313"><ele></ele><time>2017-6-21T6:11:40Z</time></trkpt>
<trkpt lat="46.13048" lon="7.03128"><ele></ele><time>2017-6-21T6:11:43Z</time></trkpt>
<trkpt lat="46.13049" lon="7.03127"><ele></ele><time>2017-6-21T6:11:46Z</time></trkpt>
<trkpt lat="46.13049" lon="7.03126"><ele></ele><time>2017-6-21T6:11:49Z</time></trkpt>
<trkpt lat="46.1305" lon="7.03125"><ele></ele><time>2017-6-21T6:11:52Z</time></trkpt>
<trkpt lat="46.13051" lon="7.03123"><ele></ele><time>2017-6-21T6:11:55Z</time></trkpt>
<trkpt lat="46.13051" lon="7.03123"><ele></ele><time>2017-6-21T6:11:58Z</time></trkpt>
<trkpt lat="46.13051" lon="7.03122"><ele></ele><time>2017-6-21T6:12:1Z</time></trkpt>
<trkpt lat="46.13051" lon="7.03122"><ele></ele><time>2017-6-21T6:12:4Z</time></trkpt>
<trkpt lat="46.13051" lon="7.03121"><ele></ele><time>2017-6-21T6:12:7Z</time></trkpt>
<trkpt lat="46.13051" lon="7.03121"><ele></ele><time>2017-6-21T6:12:10Z</time></trkpt>
<trkpt lat="46.13051" lon="7.03121"><ele></ele><time>2017-6-21T6:12:13Z</time></trkpt>
<trkpt lat="46.13051" lon="7.0312"><ele></ele><time>2017-6-21T6:12:16Z</time></trkpt>
<trkpt lat="46.13051" lon="7.0312"><ele></ele><time>2017-6-21T6:12:19Z</time></trkpt>
<trkpt lat="46.13051" lon="7.0312"><ele></ele><time>2017-6-21T6:12:22Z</time></trkpt>
<trkpt lat="46.13052" lon="7.03119"><ele></ele><time>2017-6-21T6:12:25Z</time></trkpt>
<trkpt lat="46.13052" lon="7.03119"><ele></ele><time>2017-6-21T6:12:28Z</time></trkpt>
<trkpt lat="46.13052" lon="7.03119"><ele></ele><time>2017-6-21T6:12:31Z</time></trkpt>
<trkpt lat="46.13052" lon="7.03118"><ele></ele><time>2017-6-21T6:12:34Z</time></trkpt>
<trkpt lat="46.13052" lon="7.03118"><ele></ele><time>2017-6-21T6:12:37Z</time></trkpt>
<trkpt lat="46.13052" lon="7.03117"><ele></ele><time>2017-6-21T6:12:40Z</time></trkpt>
<trkpt lat="46.13052" lon="7.03117"><ele></ele><time>2017-6-21T6:12:43Z</time></trkpt>
<trkpt lat="46.13052" lon="7.03117"><ele></ele><time>2017-6-21T6:12:46Z</time></trkpt>
<trkpt lat="46.13052" lon="7.03116"><ele></ele><time>2017-6-21T6:12:49Z</time></trkpt>
<trkpt lat="46.13052" lon="7.03116"><ele></ele><time>2017-6-21T6:12:52Z</time></trkpt>
<trkpt lat="46.13053" lon="7.03116"><ele></ele><time>2017-6-21T6:12:55Z</time></trkpt>
<trkpt lat="46.13052" lon="7.03115"><ele></ele><time>2017-6-21T6:12:58Z</time></trkpt>
<trkpt lat="46.13051" lon="7.03113"><ele></ele><time>2017-6-21T6:13:1Z</time></trkpt>
<trkpt lat="46.13049" lon="7.03112"><ele></ele><time>2017-6-21T6:13:4Z</time></trkpt>
<trkpt lat="46.13047" lon="7.0311"><ele></ele><time>2017-6-21T6:13:7Z</time></trkpt>
<trkpt lat="46.13045" lon="7.03109"><ele></ele><time>2017-6-21T6:13:10Z</time></trkpt>
<trkpt lat="46.13044" lon="7.03107"><ele></ele><time>2017-6-21T6:13:13Z</time></trkpt>
<trkpt lat="46.13042" lon="7.03106"><ele></ele><time>2017-6-21T6:13:16Z</time></trkpt>
<trkpt lat="46.1304" lon="7.03104"><ele></ele><time>2017-6-21T6:13:19Z</time></trkpt>
<trkpt lat="46.13038" lon="7.03103"><ele></ele><time>2017-6-21T6:13:22Z</time></trkpt>
<trkpt lat="46.13037" lon="7.03101"><ele></ele><time>2017-6-21T6:13:25Z</time></trkpt>
<trkpt lat="46.13035" lon="7.031"><ele></ele><time>2017-6-21T6:13:28Z</time></trkpt>
<trkpt lat="46.13033" lon="7.03098"><ele></ele><time>2017-6-21T6:13:31Z</time></trkpt>
<trkpt lat="46.13031" lon="7.03097"><ele></ele><time>2017-6-21T6:13:34Z</time></trkpt>
<trkpt lat="46.1303" lon="7.03095"><ele></ele><time>2017-6-21T6:13:37Z</time></trkpt>
<trkpt lat="46.13028" lon="7.03094"><ele></ele><time>2017-6-21T6:13:40Z</time></trkpt>
<trkpt lat="46.13026" lon="7.03092"><ele></ele><time>2017-6-21T6:13:43Z</time></trkpt>
<trkpt lat="46.13024" lon="7.03091"><ele></ele><time>2017-6-21T6:13:46Z</time></trkpt>
<trkpt lat="46.13023" lon="7.03089"><ele></ele><time>2017-6-21T6:13:49Z</time></trkpt>
<trkpt lat="46.13021" lon="7.03088"><ele></ele><time>2017-6-21T6:13:52Z</time></trkpt>
<trkpt lat="46.13019" lon="7.03086"><ele></ele><time>2017-6-21T6:13:55Z</time></trkpt>
<trkpt lat="46.13017" lon="7.03085"><ele></ele><time>2017-6-21T6:13:58Z</time></trkpt>
<trkpt lat="46.13016" lon="7.03083"><ele></ele><time>2017-6-21T6:14:1Z</time></trkpt>
<trkpt lat="46.13014" lon="7.03082"><ele></ele><time>2017-6-21T6:14:4Z</time></trkpt>
<trkpt lat="46.13013" lon="7.0308"><ele></ele><time>2017-6-21T6:14:7Z</time></trkpt>
<trkpt lat="46.13013" lon="7.03078"><ele></ele><time>2017-6-21T6:14:10Z</time></trkpt>
<trkpt lat="46.13013" lon="7.03074"><ele></ele><time>2017-6-21T6:14:13Z</time></trkpt>
<trkpt lat="46.13013" lon="7.03072"><ele></ele><time>2017-6-21T6:14:16Z</time></trkpt>
<trkpt lat="46.13013" lon="7.03072"><ele></ele><time>2017-6-21T6:14:19Z</time></trkpt>
<trkpt lat="46.13012" lon="7.03071"><ele></ele><time>2017-6-21T6:14:22Z</time></trkpt>
<trkpt lat="46.13011" lon="7.0307"><ele></ele><time>2017-6-21T6:14:25Z</time></trkpt>
<trkpt lat="46.1301" lon="7.0307"><ele></ele><time>2017-6-21T6:14:28Z</time></trkpt>
<trkpt lat="46.13009" lon="7.03069"><ele></ele><time>2017-6-21T6:14:31Z</time></trkpt>
<trkpt lat="46.13008" lon="7.03068"><ele></ele><time>2017-6-21T6:14:34Z</time></trkpt>
<trkpt lat="46.13008" lon="7.03067"><ele></ele><time>2017-6-21T6:14:37Z</time></trkpt>
<trkpt lat="46.13007" lon="7.03066"><ele></ele><time>2017-6-21T6:14:40Z</time></trkpt>
<trkpt lat="46.13006" lon="7.03065"><ele></ele><time>2017-6-21T6:14:43Z</time></trkpt>
<trkpt lat="46.13005" lon="7.03064"><ele></ele><time>2017-6-21T6:14:46Z</time></trkpt>
<trkpt lat="46.13004" lon="7.03064"><ele></ele><time>2017-6-21T6:14:49Z</time></trkpt>
<trkpt lat="46.13004" lon="7.03063"><ele></ele><time>2017-6-21T6:14:52Z</time></trkpt>
<trkpt lat="46.13003" lon="7.03063"><ele></ele><time>2017-6-21T6:14:55Z</time></trkpt>
<trkpt lat="46.13002" lon="7.03062"><ele></ele><time>2017-6-21T6:14:58Z</time></trkpt>
<trkpt lat="46.13001" lon="7.03061"><ele></ele><time>2017-6-21T6:15:1Z</time></trkpt>
<trkpt lat="46.13001" lon="7.0306"><ele></ele><time>2017-6-21T6:15:4Z</time></trkpt>
<trkpt lat="46.13" lon="7.03059"><ele></ele><time>2017-6-21T6:15:7Z</time></trkpt>
<trkpt lat="46.12999" lon="7.03059"><ele></ele><time>2017-6-21T6:15:10Z</time></trkpt>
<trkpt lat="46.12998" lon="7.03058"><ele></ele><time>2017-6-21T6:15:13Z</time></trkpt>
<trkpt lat="46.12997" lon="7.03057"><ele></ele><time>2017-6-21T6:15:16Z</time></trkpt>
<trkpt lat="46.12996" lon="7.03056"><ele></ele><time>2017-6-21T6:15:19Z</time></trkpt>
<trkpt lat="46.12995" lon="7.03055"><ele></ele><time>2017-6-21T6:15:22Z</time></trkpt>
<trkpt lat="46.12995" lon="7.03054"><ele></ele><time>2017-6-21T6:15:25Z</time></trkpt>
<trkpt lat="46.12994" lon="7.03054"><ele></ele><time>2017-6-21T6:15:28Z</time></trkpt>
<trkpt lat="46.12994" lon="7.03053"><ele></ele><time>2017-6-21T6:15:31Z</time></trkpt>
<trkpt lat="46.12993" lon="7.03053"><ele></ele><time>2017-6-21T6:15:34Z</time></trkpt>
<trkpt lat="46.12992" lon="7.03052"><ele></ele><time>2017-6-21T6:15:37Z</time></trkpt>
<trkpt lat="46.12991" lon="7.03051"><ele></ele><time>2017-6-21T6:15:40Z</time></trkpt>
<trkpt lat="46.1299" lon="7.0305"><ele></ele><time>2017-6-21T6:15:43Z</time></trkpt>
<trkpt lat="46.1299" lon="7.03049"><ele></ele><time>2017-6-21T6:15:46Z</time></trkpt>
<trkpt lat="46.1299" lon="7.03048"><ele></ele><time>2017-6-21T6:15:49Z</time></trkpt>
<trkpt lat="46.1299" lon="7.03048"><ele></ele><time>2017-6-21T6:15:52Z</time></trkpt>
<trkpt lat="46.12991" lon="7.03047"><ele></ele><time>2017-6-21T6:15:55Z</time></trkpt>
<trkpt lat="46.12991" lon="7.03046"><ele></ele><time>2017-6-21T6:15:58Z</time></trkpt>
<trkpt lat="46.12992" lon="7.03046"><ele></ele><time>2017-6-21T6:16:1Z</time></trkpt>
<trkpt lat="46.12992" lon="7.03045"><ele></ele><time>2017-6-21T6:16:4Z</time></trkpt>
<trkpt lat="46.12992" lon="7.03044"><ele></ele><time>2017-6-21T6:16:7Z</time></trkpt>
<trkpt lat="46.12993" lon="7.03043"><ele></ele><time>2017-6-21T6:16:10Z</time></trkpt>
<trkpt lat="46.12993" lon="7.03043"><ele></ele><time>2017-6-21T6:16:13Z</time></trkpt>
<trkpt lat="46.12994" lon="7.03042"><ele></ele><time>2017-6-21T6:16:16Z</time></trkpt>
<trkpt lat="46.12994" lon="7.03041"><ele></ele><time>2017-6-21T6:16:19Z</time></trkpt>
<trkpt lat="46.12994" lon="7.03041"><ele></ele><time>2017-6-21T6:16:22Z</time></trkpt>
<trkpt lat="46.12995" lon="7.0304"><ele></ele><time>2017-6-21T6:16:25Z</time></trkpt>
<trkpt lat="46.12995" lon="7.03039"><ele></ele><time>2017-6-21T6:16:28Z</time></trkpt>
<trkpt lat="46.12996" lon="7.03038"><ele></ele><time>2017-6-21T6:16:31Z</time></trkpt>
<trkpt lat="46.12996" lon="7.03038"><ele></ele><time>2017-6-21T6:16:34Z</time></trkpt>
<trkpt lat="46.12996" lon="7.03037"><ele></ele><time>2017-6-21T6:16:37Z</time></trkpt>
<trkpt lat="46.12996" lon="7.03037"><ele></ele><time>2017-6-21T6:16:40Z</time></trkpt>
<trkpt lat="46.12996" lon="7.03037"><ele></ele><time>2017-6-21T6:16:43Z</time></trkpt>
<trkpt lat="46.12996" lon="7.03036"><ele></ele><time>2017-6-21T6:16:46Z</time></trkpt>
<trkpt lat="46.12994" lon="7.03036"><ele></ele><time>2017-6-21T6:16:49Z</time></trkpt>
<trkpt lat="46.12993" lon="7.03036"><ele></ele><time>2017-6-21T6:16:52Z</time></trkpt>
<trkpt lat="46.12992" lon="7.03035"><ele></ele><time>2017-6-21T6:16:55Z</time></trkpt>
<trkpt lat="46.12991" lon="7.03035"><ele></ele><time>2017-6-21T6:16:58Z</time></trkpt>
<trkpt lat="46.12989" lon="7.03034"><ele></ele><time>2017-6-21T6:17:1Z</time></trkpt>
<trkpt lat="46.12988" lon="7.03034"><ele></ele><time>2017-6-21T6:17:4Z</time></trkpt>
<trkpt lat="46.12987" lon="7.03034"><ele></ele><time>2017-6-21T6:17:7Z</time></trkpt>
<trkpt lat="46.12985" lon="7.03033"><ele></ele><time>2017-6-21T6:17:10Z</time></trkpt>
<trkpt lat="46.12984" lon="7.03033"><ele></ele><time>2017-6-21T6:17:13Z</time></trkpt>
<trkpt lat="46.12984" lon="7.03032"><ele></ele><time>2017-6-21T6:17:16Z</time></trkpt>
<trkpt lat="46.12983" lon="7.03032"><ele></ele><time>2017-6-21T6:17:19Z</time></trkpt>
<trkpt lat="46.12982" lon="7.03032"><ele></ele><time>2017-6-21T6:17:22Z</time></trkpt>
<trkpt lat="46.1298" lon="7.03031"><ele></ele><time>2017-6-21T6:17:25Z</time></trkpt>
<trkpt lat="46.12979" lon="7.03031"><ele></ele><time>2017-6-21T6:17:28Z</time></trkpt>
<trkpt lat="46.12978" lon="7.03031"><ele></ele><time>2017-6-21T6:17:31Z</time></trkpt>
<trkpt lat="46.12976" lon="7.0303"><ele></ele><time>2017-6-21T6:17:34Z</time></trkpt>
<trkpt lat="46.12975" lon="7.0303"><ele></ele><time>2017-6-21T6:17:37Z</time></trkpt>
<trkpt lat="46.12974" lon="7.03029"><ele></ele><time>2017-6-21T6:17:40Z</time></trkpt>
<trkpt lat="46.12973" lon="7.03029"><ele></ele><time>2017-6-21T6:17:43Z</time></trkpt>
<trkpt lat="46.12971" lon="7.03029"><ele></ele><time>2017-6-21T6:17:46Z</time></trkpt>
<trkpt lat="46.1297" lon="7.03028"><ele></ele><time>2017-6-21T6:17:49Z</time></trkpt>
<trkpt lat="46.1297" lon="7.03028"><ele></ele><time>2017-6-21T6:17:52Z</time></trkpt>
<trkpt lat="46.12971" lon="7.03028"><ele></ele><time>2017-6-21T6:17:55Z</time></trkpt>
<trkpt lat="46.12973" lon="7.03027"><ele></ele><time>2017-6-21T6:17:58Z</time></trkpt>
<trkpt lat="46.12975" lon="7.03026"><ele></ele><time>2017-6-21T6:18:1Z</time></trkpt>
<trkpt lat="46.12977" lon="7.03025"><ele></ele><time>2017-6-21T6:18:4Z</time></trkpt>
<trkpt lat="46.1298" lon="7.03025"><ele></ele><time>2017-6-21T6:18:7Z</time></trkpt>
<trkpt lat="46.12982" lon="7.03024"><ele></ele><time>2017-6-21T6:18:10Z</time></trkpt>
<trkpt lat="46.12984" lon="7.03023"><ele></ele><time>2017-6-21T6:18:13Z</time></trkpt>
<trkpt lat="46.12986" lon="7.03023"><ele></ele><time>2017-6-21T6:18:16Z</time></trkpt>
<trkpt lat="46.12988" lon="7.03022"><ele></ele><time>2017-6-21T6:18:19Z</time></trkpt>
<trkpt lat="46.1299" lon="7.03021"><ele></ele><time>2017-6-21T6:18:22Z</time></trkpt>
<trkpt lat="46.12993" lon="7.0302"><ele></ele><time>2017-6-21T6:18:25Z</time></trkpt>
<trkpt lat="46.12995" lon="7.0302"><ele></ele><time>2017-6-21T6:18:28Z</time></trkpt>
<trkpt lat="46.12997" lon="7.03019"><ele></ele><time>2017-6-21T6:18:31Z</time></trkpt>
<trkpt lat="46.12999" lon="7.03018"><ele></ele><time>2017-6-21T6:18:34Z</time></trkpt>
<trkpt lat="46.13001" lon="7.03018"><ele></ele><time>2017-6-21T6:18:37Z</time></trkpt>
<trkpt lat="46.13002" lon="7.03017"><ele></ele><time>2017-6-21T6:18:40Z</time></trkpt>
<trkpt lat="46.13001" lon="7.03016"><ele></ele><time>2017-6-21T6:18:43Z</time></trkpt>
<trkpt lat="46.13001" lon="7.03013"><ele></ele><time>2017-6-21T6:18:46Z</time></trkpt>
<trkpt lat="46.13" lon="7.03011"><ele></ele><time>2017-6-21T6:18:49Z</time></trkpt>
<trkpt lat="46.12998" lon="7.03011"><ele></ele><time>2017-6-21T6:18:52Z</time></trkpt>
<trkpt lat="46.12996" lon="7.03011"><ele></ele><time>2017-6-21T6:18:55Z</time></trkpt>
<trkpt lat="46.12994" lon="7.03011"><ele></ele><time>2017-6-21T6:18:58Z</time></trkpt>
<trkpt lat="46.12992" lon="7.03011"><ele></ele><time>2017-6-21T6:19:1Z</time></trkpt>
<trkpt lat="46.1299" lon="7.03011"><ele></ele><time>2017-6-21T6:19:4Z</time></trkpt>
<trkpt lat="46.12988" lon="7.03012"><ele></ele><time>2017-6-21T6:19:7Z</time></trkpt>
<trkpt lat="46.12987" lon="7.03012"><ele></ele><time>2017-6-21T6:19:10Z</time></trkpt>
<trkpt lat="46.12985" lon="7.03012"><ele></ele><time>2017-6-21T6:19:13Z</time></trkpt>
<trkpt lat="46.12983" lon="7.03012"><ele></ele><time>2017-6-21T6:19:16Z</time></trkpt>
<trkpt lat="46.12981" lon="7.03012"><ele></ele><time>2017-6-21T6:19:19Z</time></trkpt>
<trkpt lat="46.12979" lon="7.03012"><ele></ele><time>2017-6-21T6:19:22Z</time></trkpt>
<trkpt lat="46.12977" lon="7.03012"><ele></ele><time>2017-6-21T6:19:25Z</time></trkpt>
<trkpt lat="46.12975" lon="7.03012"><ele></ele><time>2017-6-21T6:19:28Z</time></trkpt>
<trkpt lat="46.12973" lon="7.03013"><ele></ele><time>2017-6-21T6:19:31Z</time></trkpt>
<trkpt lat="46.12972" lon="7.03013"><ele></ele><time>2017-6-21T6:19:34Z</time></trkpt>
<trkpt lat="46.1297" lon="7.03013"><ele></ele><time>2017-6-21T6:19:37Z</time></trkpt>
<trkpt lat="46.12969" lon="7.03013"><ele></ele><time>2017-6-21T6:19:40Z</time></trkpt>
<trkpt lat="46.12968" lon="7.03013"><ele></ele><time>2017-6-21T6:19:43Z</time></trkpt>
<trkpt lat="46.12966" lon="7.03013"><ele></ele><time>2017-6-21T6:19:46Z</time></trkpt>
<trkpt lat="46.12964" lon="7.03013"><ele></ele><time>2017-6-21T6:19:49Z</time></trkpt>
<trkpt lat="46.12962" lon="7.03013"><ele></ele><time>2017-6-21T6:19:52Z</time></trkpt>
<trkpt lat="46.1296" lon="7.03013"><ele></ele><time>2017-6-21T6:19:55Z</time></trkpt>
<trkpt lat="46.12959" lon="7.03013"><ele></ele><time>2017-6-21T6:19:58Z</time></trkpt>
<trkpt lat="46.12957" lon="7.03014"><ele></ele><time>2017-6-21T6:20:1Z</time></trkpt>
<trkpt lat="46.12955" lon="7.03014"><ele></ele><time>2017-6-21T6:20:4Z</time></trkpt>
<trkpt lat="46.12954" lon="7.03014"><ele></ele><time>2017-6-21T6:20:7Z</time></trkpt>
<trkpt lat="46.12953" lon="7.03014"><ele></ele><time>2017-6-21T6:20:10Z</time></trkpt>
<trkpt lat="46.12951" lon="7.03014"><ele></ele><time>2017-6-21T6:20:13Z</time></trkpt>
<trkpt lat="46.1295" lon="7.03014"><ele></ele><time>2017-6-21T6:20:16Z</time></trkpt>
<trkpt lat="46.12948" lon="7.03014"><ele></ele><time>2017-6-21T6:20:19Z</time></trkpt>
<trkpt lat="46.12947" lon="7.03014"><ele></ele><time>2017-6-21T6:20:22Z</time></trkpt>
<trkpt lat="46.12945" lon="7.03014"><ele></ele><time>2017-6-21T6:20:25Z</time></trkpt>
<trkpt lat="46.12943" lon="7.03014"><ele></ele><time>2017-6-21T6:20:28Z</time></trkpt>
<trkpt lat="46.12943" lon="7.03014"><ele></ele><time>2017-6-21T6:20:31Z</time></trkpt>
<trkpt lat="46.12943" lon="7.03013"><ele></ele><time>2017-6-21T6:20:34Z</time></trkpt>
<trkpt lat="46.12944" lon="7.03011"><ele></ele><time>2017-6-21T6:20:37Z</time></trkpt>
<trkpt lat="46.12945" lon="7.0301"><ele></ele><time>2017-6-21T6:20:40Z</time></trkpt>
<trkpt lat="46.12945" lon="7.03008"><ele></ele><time>2017-6-21T6:20:43Z</time></trkpt>
<trkpt lat="46.12946" lon="7.03007"><ele></ele><time>2017-6-21T6:20:46Z</time></trkpt>
<trkpt lat="46.12946" lon="7.03006"><ele></ele><time>2017-6-21T6:20:49Z</time></trkpt>
<trkpt lat="46.12947" lon="7.03005"><ele></ele><time>2017-6-21T6:20:52Z</time></trkpt>
<trkpt lat="46.12947" lon="7.03003"><ele></ele><time>2017-6-21T6:20:55Z</time></trkpt>
<trkpt lat="46.12948" lon="7.03002"><ele></ele><time>2017-6-21T6:20:58Z</time></trkpt>
<trkpt lat="46.12949" lon="7.03"><ele></ele><time>2017-6-21T6:21:1Z</time></trkpt>
<trkpt lat="46.12949" lon="7.02998"><ele></ele><time>2017-6-21T6:21:4Z</time></trkpt>
<trkpt lat="46.1295" lon="7.02997"><ele></ele><time>2017-6-21T6:21:7Z</time></trkpt>
<trkpt lat="46.12951" lon="7.02995"><ele></ele><time>2017-6-21T6:21:10Z</time></trkpt>
<trkpt lat="46.12948" lon="7.03006"><ele></ele><time>2017-6-21T6:21:13Z</time></trkpt>
<trkpt lat="46.12948" lon="7.03006"><ele></ele><time>2017-6-21T6:21:16Z</time></trkpt>
<trkpt lat="46.12945" lon="7.03018"><ele></ele><time>2017-6-21T6:21:19Z</time></trkpt>
<trkpt lat="46.12944" lon="7.03019"><ele></ele><time>2017-6-21T6:21:22Z</time></trkpt>
<trkpt lat="46.12942" lon="7.0302"><ele></ele><time>2017-6-21T6:21:25Z</time></trkpt>
<trkpt lat="46.12942" lon="7.0302"><ele></ele><time>2017-6-21T6:21:28Z</time></trkpt>
<trkpt lat="46.12941" lon="7.03021"><ele></ele><time>2017-6-21T6:21:31Z</time></trkpt>
<trkpt lat="46.12939" lon="7.03021"><ele></ele><time>2017-6-21T6:21:34Z</time></trkpt>
<trkpt lat="46.12937" lon="7.03018"><ele></ele><time>2017-6-21T6:21:37Z</time></trkpt>
<trkpt lat="46.12936" lon="7.03017"><ele></ele><time>2017-6-21T6:21:40Z</time></trkpt>
<trkpt lat="46.12935" lon="7.03016"><ele></ele><time>2017-6-21T6:21:43Z</time></trkpt>
<trkpt lat="46.12933" lon="7.03013"><ele></ele><time>2017-6-21T6:21:46Z</time></trkpt>
<trkpt lat="46.1293" lon="7.03011"><ele></ele><time>2017-6-21T6:21:49Z</time></trkpt>
<trkpt lat="46.12928" lon="7.03008"><ele></ele><time>2017-6-21T6:21:52Z</time></trkpt>
<trkpt lat="46.12926" lon="7.03006"><ele></ele><time>2017-6-21T6:21:55Z</time></trkpt>
<trkpt lat="46.12924" lon="7.03003"><ele></ele><time>2017-6-21T6:21:58Z</time></trkpt>
<trkpt lat="46.12922" lon="7.03"><ele></ele><time>2017-6-21T6:22:1Z</time></trkpt>
<trkpt lat="46.12919" lon="7.02998"><ele></ele><time>2017-6-21T6:22:4Z</time></trkpt>
<trkpt lat="46.12918" lon="7.02997"><ele></ele><time>2017-6-21T6:22:7Z</time></trkpt>
<trkpt lat="46.12917" lon="7.02995"><ele></ele><time>2017-6-21T6:22:10Z</time></trkpt>
<trkpt lat="46.12915" lon="7.02993"><ele></ele><time>2017-6-21T6:22:13Z</time></trkpt>
<trkpt lat="46.12913" lon="7.0299"><ele></ele><time>2017-6-21T6:22:16Z</time></trkpt>
<trkpt lat="46.1291" lon="7.02988"><ele></ele><time>2017-6-21T6:22:19Z</time></trkpt>
<trkpt lat="46.12908" lon="7.02985"><ele></ele><time>2017-6-21T6:22:22Z</time></trkpt>
<trkpt lat="46.12906" lon="7.02983"><ele></ele><time>2017-6-21T6:22:25Z</time></trkpt>
<trkpt lat="46.12904" lon="7.0298"><ele></ele><time>2017-6-21T6:22:28Z</time></trkpt>
<trkpt lat="46.12902" lon="7.02979"><ele></ele><time>2017-6-21T6:22:31Z</time></trkpt>
<trkpt lat="46.129" lon="7.02977"><ele></ele><time>2017-6-21T6:22:34Z</time></trkpt>
<trkpt lat="46.12898" lon="7.02975"><ele></ele><time>2017-6-21T6:22:37Z</time></trkpt>
<trkpt lat="46.12896" lon="7.02974"><ele></ele><time>2017-6-21T6:22:40Z</time></trkpt>
<trkpt lat="46.12895" lon="7.02973"><ele></ele><time>2017-6-21T6:22:43Z</time></trkpt>
<trkpt lat="46.12894" lon="7.02972"><ele></ele><time>2017-6-21T6:22:46Z</time></trkpt>
<trkpt lat="46.12892" lon="7.0297"><ele></ele><time>2017-6-21T6:22:49Z</time></trkpt>
<trkpt lat="46.12891" lon="7.02969"><ele></ele><time>2017-6-21T6:22:52Z</time></trkpt>
<trkpt lat="46.12889" lon="7.02967"><ele></ele><time>2017-6-21T6:22:55Z</time></trkpt>
<trkpt lat="46.12887" lon="7.02965"><ele></ele><time>2017-6-21T6:22:58Z</time></trkpt>
<trkpt lat="46.12885" lon="7.02964"><ele></ele><time>2017-6-21T6:23:1Z</time></trkpt>
<trkpt lat="46.12883" lon="7.02962"><ele></ele><time>2017-6-21T6:23:4Z</time></trkpt>
<trkpt lat="46.12881" lon="7.02961"><ele></ele><time>2017-6-21T6:23:7Z</time></trkpt>
<trkpt lat="46.12879" lon="7.02959"><ele></ele><time>2017-6-21T6:23:10Z</time></trkpt>
<trkpt lat="46.12877" lon="7.02957"><ele></ele><time>2017-6-21T6:23:13Z</time></trkpt>
<trkpt lat="46.12875" lon="7.02956"><ele></ele><time>2017-6-21T6:23:16Z</time></trkpt>
<trkpt lat="46.12874" lon="7.02955"><ele></ele><time>2017-6-21T6:23:19Z</time></trkpt>
<trkpt lat="46.12874" lon="7.02954"><ele></ele><time>2017-6-21T6:23:22Z</time></trkpt>
<trkpt lat="46.12875" lon="7.02952"><ele></ele><time>2017-6-21T6:23:25Z</time></trkpt>
<trkpt lat="46.12876" lon="7.02949"><ele></ele><time>2017-6-21T6:23:28Z</time></trkpt>
<trkpt lat="46.12877" lon="7.02947"><ele></ele><time>2017-6-21T6:23:31Z</time></trkpt>
<trkpt lat="46.12879" lon="7.02945"><ele></ele><time>2017-6-21T6:23:34Z</time></trkpt>
<trkpt lat="46.1288" lon="7.02943"><ele></ele><time>2017-6-21T6:23:37Z</time></trkpt>
<trkpt lat="46.12881" lon="7.02941"><ele></ele><time>2017-6-21T6:23:40Z</time></trkpt>
<trkpt lat="46.12882" lon="7.02938"><ele></ele><time>2017-6-21T6:23:43Z</time></trkpt>
<trkpt lat="46.12883" lon="7.02938"><ele></ele><time>2017-6-21T6:23:46Z</time></trkpt>
<trkpt lat="46.12884" lon="7.02938"><ele></ele><time>2017-6-21T6:23:49Z</time></trkpt>
<trkpt lat="46.12886" lon="7.02939"><ele></ele><time>2017-6-21T6:23:52Z</time></trkpt>
<trkpt lat="46.12888" lon="7.0294"><ele></ele><time>2017-6-21T6:23:55Z</time></trkpt>
<trkpt lat="46.12889" lon="7.0294"><ele></ele><time>2017-6-21T6:23:58Z</time></trkpt>
<trkpt lat="46.1289" lon="7.0294"><ele></ele><time>2017-6-21T6:24:1Z</time></trkpt>
<trkpt lat="46.12892" lon="7.02941"><ele></ele><time>2017-6-21T6:24:4Z</time></trkpt>
<trkpt lat="46.12894" lon="7.02942"><ele></ele><time>2017-6-21T6:24:7Z</time></trkpt>
<trkpt lat="46.12896" lon="7.02943"><ele></ele><time>2017-6-21T6:24:10Z</time></trkpt>
<trkpt lat="46.12898" lon="7.02944"><ele></ele><time>2017-6-21T6:24:13Z</time></trkpt>
<trkpt lat="46.12901" lon="7.02944"><ele></ele><time>2017-6-21T6:24:16Z</time></trkpt>
<trkpt lat="46.12903" lon="7.02945"><ele></ele><time>2017-6-21T6:24:19Z</time></trkpt>
<trkpt lat="46.12905" lon="7.02946"><ele></ele><time>2017-6-21T6:24:22Z</time></trkpt>
<trkpt lat="46.12907" lon="7.02947"><ele></ele><time>2017-6-21T6:24:25Z</time></trkpt>
<trkpt lat="46.12909" lon="7.02947"><ele></ele><time>2017-6-21T6:24:28Z</time></trkpt>
<trkpt lat="46.12911" lon="7.02948"><ele></ele><time>2017-6-21T6:24:31Z</time></trkpt>
<trkpt lat="46.12912" lon="7.02949"><ele></ele><time>2017-6-21T6:24:34Z</time></trkpt>
<trkpt lat="46.12905" lon="7.02937"><ele></ele><time>2017-6-21T6:24:37Z</time></trkpt>
<trkpt lat="46.12905" lon="7.02937"><ele></ele><time>2017-6-21T6:24:40Z</time></trkpt>
<trkpt lat="46.12897" lon="7.02925"><ele></ele><time>2017-6-21T6:24:43Z</time></trkpt>
<trkpt lat="46.12896" lon="7.02925"><ele></ele><time>2017-6-21T6:24:46Z</time></trkpt>
<trkpt lat="46.12896" lon="7.02924"><ele></ele><time>2017-6-21T6:24:49Z</time></trkpt>
<trkpt lat="46.12895" lon="7.02923"><ele></ele><time>2017-6-21T6:24:52Z</time></trkpt>
<trkpt lat="46.12894" lon="7.02923"><ele></ele><time>2017-6-21T6:24:55Z</time></trkpt>
<trkpt lat="46.12894" lon="7.02922"><ele></ele><time>2017-6-21T6:24:58Z</time></trkpt>
<trkpt lat="46.12893" lon="7.02921"><ele></ele><time>2017-6-21T6:25:1Z</time></trkpt>
<trkpt lat="46.12892" lon="7.0292"><ele></ele><time>2017-6-21T6:25:4Z</time></trkpt>
<trkpt lat="46.12891" lon="7.0292"><ele></ele><time>2017-6-21T6:25:7Z</time></trkpt>
<trkpt lat="46.12891" lon="7.02919"><ele></ele><time>2017-6-21T6:25:10Z</time></trkpt>
<trkpt lat="46.1289" lon="7.02918"><ele></ele><time>2017-6-21T6:25:13Z</time></trkpt>
<trkpt lat="46.12889" lon="7.02918"><ele></ele><time>2017-6-21T6:25:16Z</time></trkpt>
<trkpt lat="46.12889" lon="7.02917"><ele></ele><time>2017-6-21T6:25:19Z</time></trkpt>
<trkpt lat="46.12888" lon="7.02916"><ele></ele><time>2017-6-21T6:25:22Z</time></trkpt>
<trkpt lat="46.12887" lon="7.02915"><ele></ele><time>2017-6-21T6:25:25Z</time></trkpt>
<trkpt lat="46.12886" lon="7.02913"><ele></ele><time>2017-6-21T6:25:28Z</time></trkpt>
<trkpt lat="46.12884" lon="7.02911"><ele></ele><time>2017-6-21T6:25:31Z</time></trkpt>
<trkpt lat="46.12883" lon="7.02909"><ele></ele><time>2017-6-21T6:25:34Z</time></trkpt>
<trkpt lat="46.12882" lon="7.02909"><ele></ele><time>2017-6-21T6:25:37Z</time></trkpt>
<trkpt lat="46.12882" lon="7.02908"><ele></ele><time>2017-6-21T6:25:40Z</time></trkpt>
<trkpt lat="46.1288" lon="7.02906"><ele></ele><time>2017-6-21T6:25:43Z</time></trkpt>
<trkpt lat="46.12879" lon="7.02904"><ele></ele><time>2017-6-21T6:25:46Z</time></trkpt>
<trkpt lat="46.12878" lon="7.02903"><ele></ele><time>2017-6-21T6:25:49Z</time></trkpt>
<trkpt lat="46.12876" lon="7.02901"><ele></ele><time>2017-6-21T6:25:52Z</time></trkpt>
<trkpt lat="46.12875" lon="7.02899"><ele></ele><time>2017-6-21T6:25:55Z</time></trkpt>
<trkpt lat="46.12874" lon="7.02897"><ele></ele><time>2017-6-21T6:25:58Z</time></trkpt>
<trkpt lat="46.12872" lon="7.02896"><ele></ele><time>2017-6-21T6:26:1Z</time></trkpt>
<trkpt lat="46.12871" lon="7.02894"><ele></ele><time>2017-6-21T6:26:4Z</time></trkpt>
<trkpt lat="46.1287" lon="7.02892"><ele></ele><time>2017-6-21T6:26:7Z</time></trkpt>
<trkpt lat="46.12868" lon="7.0289"><ele></ele><time>2017-6-21T6:26:10Z</time></trkpt>
<trkpt lat="46.12867" lon="7.02889"><ele></ele><time>2017-6-21T6:26:13Z</time></trkpt>
<trkpt lat="46.12866" lon="7.02888"><ele></ele><time>2017-6-21T6:26:16Z</time></trkpt>
<trkpt lat="46.12866" lon="7.02887"><ele></ele><time>2017-6-21T6:26:19Z</time></trkpt>
<trkpt lat="46.12864" lon="7.02885"><ele></ele><time>2017-6-21T6:26:22Z</time></trkpt>
<trkpt lat="46.12863" lon="7.02884"><ele></ele><time>2017-6-21T6:26:25Z</time></trkpt>
<trkpt lat="46.12862" lon="7.02882"><ele></ele><time>2017-6-21T6:26:28Z</time></trkpt>
<trkpt lat="46.1286" lon="7.0288"><ele></ele><time>2017-6-21T6:26:31Z</time></trkpt>
<trkpt lat="46.12859" lon="7.02878"><ele></ele><time>2017-6-21T6:26:34Z</time></trkpt>
<trkpt lat="46.12858" lon="7.02877"><ele></ele><time>2017-6-21T6:26:37Z</time></trkpt>
<trkpt lat="46.12857" lon="7.02875"><ele></ele><time>2017-6-21T6:26:40Z</time></trkpt>
<trkpt lat="46.12855" lon="7.02873"><ele></ele><time>2017-6-21T6:26:43Z</time></trkpt>
<trkpt lat="46.12854" lon="7.02872"><ele></ele><time>2017-6-21T6:26:46Z</time></trkpt>
<trkpt lat="46.12854" lon="7.02872"><ele></ele><time>2017-6-21T6:26:49Z</time></trkpt>
<trkpt lat="46.12852" lon="7.0287"><ele></ele><time>2017-6-21T6:26:52Z</time></trkpt>
<trkpt lat="46.12851" lon="7.02868"><ele></ele><time>2017-6-21T6:26:55Z</time></trkpt>
<trkpt lat="46.12849" lon="7.02867"><ele></ele><time>2017-6-21T6:26:58Z</time></trkpt>
<trkpt lat="46.12848" lon="7.02865"><ele></ele><time>2017-6-21T6:27:1Z</time></trkpt>
<trkpt lat="46.12846" lon="7.02863"><ele></ele><time>2017-6-21T6:27:4Z</time></trkpt>
<trkpt lat="46.12845" lon="7.02862"><ele></ele><time>2017-6-21T6:27:7Z</time></trkpt>
<trkpt lat="46.12843" lon="7.0286"><ele></ele><time>2017-6-21T6:27:10Z</time></trkpt>
<trkpt lat="46.12841" lon="7.02858"><ele></ele><time>2017-6-21T6:27:13Z</time></trkpt>
<trkpt lat="46.1284" lon="7.02857"><ele></ele><time>2017-6-21T6:27:16Z</time></trkpt>
<trkpt lat="46.12838" lon="7.02855"><ele></ele><time>2017-6-21T6:27:19Z</time></trkpt>
<trkpt lat="46.12837" lon="7.02853"><ele></ele><time>2017-6-21T6:27:22Z</time></trkpt>
<trkpt lat="46.12835" lon="7.02852"><ele></ele><time>2017-6-21T6:27:25Z</time></trkpt>
<trkpt lat="46.12834" lon="7.0285"><ele></ele><time>2017-6-21T6:27:28Z</time></trkpt>
<trkpt lat="46.12832" lon="7.02848"><ele></ele><time>2017-6-21T6:27:31Z</time></trkpt>
<trkpt lat="46.12832" lon="7.02847"><ele></ele><time>2017-6-21T6:27:34Z</time></trkpt>
<trkpt lat="46.12831" lon="7.02847"><ele></ele><time>2017-6-21T6:27:37Z</time></trkpt>
<trkpt lat="46.12829" lon="7.02845"><ele></ele><time>2017-6-21T6:27:40Z</time></trkpt>
<trkpt lat="46.12828" lon="7.02843"><ele></ele><time>2017-6-21T6:27:43Z</time></trkpt>
<trkpt lat="46.12827" lon="7.02842"><ele></ele><time>2017-6-21T6:27:46Z</time></trkpt>
<trkpt lat="46.12826" lon="7.02842"><ele></ele><time>2017-6-21T6:27:49Z</time></trkpt>
<trkpt lat="46.12825" lon="7.0284"><ele></ele><time>2017-6-21T6:27:52Z</time></trkpt>
<trkpt lat="46.12823" lon="7.02838"><ele></ele><time>2017-6-21T6:27:55Z</time></trkpt>
<trkpt lat="46.12822" lon="7.02837"><ele></ele><time>2017-6-21T6:27:58Z</time></trkpt>
<trkpt lat="46.1282" lon="7.02835"><ele></ele><time>2017-6-21T6:28:1Z</time></trkpt>
<trkpt lat="46.12819" lon="7.02833"><ele></ele><time>2017-6-21T6:28:4Z</time></trkpt>
<trkpt lat="46.12818" lon="7.02833"><ele></ele><time>2017-6-21T6:28:7Z</time></trkpt>
<trkpt lat="46.12817" lon="7.02832"><ele></ele><time>2017-6-21T6:28:10Z</time></trkpt>
<trkpt lat="46.12816" lon="7.02831"><ele></ele><time>2017-6-21T6:28:13Z</time></trkpt>
<trkpt lat="46.12814" lon="7.02829"><ele></ele><time>2017-6-21T6:28:16Z</time></trkpt>
<trkpt lat="46.12813" lon="7.02828"><ele></ele><time>2017-6-21T6:28:19Z</time></trkpt>
<trkpt lat="46.12812" lon="7.02827"><ele></ele><time>2017-6-21T6:28:22Z</time></trkpt>
<trkpt lat="46.1281" lon="7.02826"><ele></ele><time>2017-6-21T6:28:25Z</time></trkpt>
<trkpt lat="46.12809" lon="7.02824"><ele></ele><time>2017-6-21T6:28:28Z</time></trkpt>
<trkpt lat="46.12808" lon="7.02823"><ele></ele><time>2017-6-21T6:28:31Z</time></trkpt>
<trkpt lat="46.12806" lon="7.02822"><ele></ele><time>2017-6-21T6:28:34Z</time></trkpt>
<trkpt lat="46.12805" lon="7.02821"><ele></ele><time>2017-6-21T6:28:37Z</time></trkpt>
<trkpt lat="46.12804" lon="7.02819"><ele></ele><time>2017-6-21T6:28:40Z</time></trkpt>
<trkpt lat="46.12802" lon="7.02818"><ele></ele><time>2017-6-21T6:28:43Z</time></trkpt>
<trkpt lat="46.12801" lon="7.02817"><ele></ele><time>2017-6-21T6:28:46Z</time></trkpt>
<trkpt lat="46.128" lon="7.02816"><ele></ele><time>2017-6-21T6:28:49Z</time></trkpt>
<trkpt lat="46.12798" lon="7.02815"><ele></ele><time>2017-6-21T6:28:52Z</time></trkpt>
<trkpt lat="46.12797" lon="7.02813"><ele></ele><time>2017-6-21T6:28:55Z</time></trkpt>
<trkpt lat="46.12796" lon="7.02812"><ele></ele><time>2017-6-21T6:28:58Z</time></trkpt>
<trkpt lat="46.12795" lon="7.02811"><ele></ele><time>2017-6-21T6:29:1Z</time></trkpt>
<trkpt lat="46.12794" lon="7.02811"><ele></ele><time>2017-6-21T6:29:4Z</time></trkpt>
<trkpt lat="46.12793" lon="7.0281"><ele></ele><time>2017-6-21T6:29:7Z</time></trkpt>
<trkpt lat="46.12792" lon="7.02808"><ele></ele><time>2017-6-21T6:29:10Z</time></trkpt>
<trkpt lat="46.1279" lon="7.02807"><ele></ele><time>2017-6-21T6:29:13Z</time></trkpt>
<trkpt lat="46.12789" lon="7.02806"><ele></ele><time>2017-6-21T6:29:16Z</time></trkpt>
<trkpt lat="46.12788" lon="7.02805"><ele></ele><time>2017-6-21T6:29:19Z</time></trkpt>
<trkpt lat="46.12786" lon="7.02803"><ele></ele><time>2017-6-21T6:29:22Z</time></trkpt>
<trkpt lat="46.12785" lon="7.02802"><ele></ele><time>2017-6-21T6:29:25Z</time></trkpt>
<trkpt lat="46.12784" lon="7.02801"><ele></ele><time>2017-6-21T6:29:28Z</time></trkpt>
<trkpt lat="46.12782" lon="7.028"><ele></ele><time>2017-6-21T6:29:31Z</time></trkpt>
<trkpt lat="46.12781" lon="7.02798"><ele></ele><time>2017-6-21T6:29:34Z</time></trkpt>
<trkpt lat="46.1278" lon="7.02797"><ele></ele><time>2017-6-21T6:29:37Z</time></trkpt>
<trkpt lat="46.12779" lon="7.02796"><ele></ele><time>2017-6-21T6:29:40Z</time></trkpt>
<trkpt lat="46.12778" lon="7.02794"><ele></ele><time>2017-6-21T6:29:43Z</time></trkpt>
<trkpt lat="46.12777" lon="7.02792"><ele></ele><time>2017-6-21T6:29:46Z</time></trkpt>
<trkpt lat="46.12776" lon="7.02789"><ele></ele><time>2017-6-21T6:29:49Z</time></trkpt>
<trkpt lat="46.12774" lon="7.02786"><ele></ele><time>2017-6-21T6:29:52Z</time></trkpt>
<trkpt lat="46.12773" lon="7.02784"><ele></ele><time>2017-6-21T6:29:55Z</time></trkpt>
<trkpt lat="46.12772" lon="7.02781"><ele></ele><time>2017-6-21T6:29:58Z</time></trkpt>
<trkpt lat="46.1277" lon="7.02778"><ele></ele><time>2017-6-21T6:30:1Z</time></trkpt>
<trkpt lat="46.12769" lon="7.02776"><ele></ele><time>2017-6-21T6:30:4Z</time></trkpt>
<trkpt lat="46.12768" lon="7.02773"><ele></ele><time>2017-6-21T6:30:7Z</time></trkpt>
<trkpt lat="46.12766" lon="7.0277"><ele></ele><time>2017-6-21T6:30:10Z</time></trkpt>
<trkpt lat="46.12765" lon="7.02768"><ele></ele><time>2017-6-21T6:30:13Z</time></trkpt>
<trkpt lat="46.12764" lon="7.02765"><ele></ele><time>2017-6-21T6:30:16Z</time></trkpt>
<trkpt lat="46.12762" lon="7.02762"><ele></ele><time>2017-6-21T6:30:19Z</time></trkpt>
<trkpt lat="46.12761" lon="7.0276"><ele></ele><time>2017-6-21T6:30:22Z</time></trkpt>
<trkpt lat="46.1276" lon="7.02757"><ele></ele><time>2017-6-21T6:30:25Z</time></trkpt>
<trkpt lat="46.12758" lon="7.02754"><ele></ele><time>2017-6-21T6:30:28Z</time></trkpt>
<trkpt lat="46.12757" lon="7.02752"><ele></ele><time>2017-6-21T6:30:31Z</time></trkpt>
<trkpt lat="46.12756" lon="7.02749"><ele></ele><time>2017-6-21T6:30:34Z</time></trkpt>
<trkpt lat="46.12755" lon="7.02746"><ele></ele><time>2017-6-21T6:30:37Z</time></trkpt>
<trkpt lat="46.12753" lon="7.02744"><ele></ele><time>2017-6-21T6:30:40Z</time></trkpt>
<trkpt lat="46.12751" lon="7.02743"><ele></ele><time>2017-6-21T6:30:43Z</time></trkpt>
<trkpt lat="46.12749" lon="7.02741"><ele></ele><time>2017-6-21T6:30:46Z</time></trkpt>
<trkpt lat="46.12747" lon="7.0274"><ele></ele><time>2017-6-21T6:30:49Z</time></trkpt>
<trkpt lat="46.12746" lon="7.02739"><ele></ele><time>2017-6-21T6:30:52Z</time></trkpt>
<trkpt lat="46.12745" lon="7.02739"><ele></ele><time>2017-6-21T6:30:55Z</time></trkpt>
<trkpt lat="46.12743" lon="7.02738"><ele></ele><time>2017-6-21T6:30:58Z</time></trkpt>
<trkpt lat="46.12741" lon="7.02736"><ele></ele><time>2017-6-21T6:31:1Z</time></trkpt>
<trkpt lat="46.12739" lon="7.02735"><ele></ele><time>2017-6-21T6:31:4Z</time></trkpt>
<trkpt lat="46.12737" lon="7.02734"><ele></ele><time>2017-6-21T6:31:7Z</time></trkpt>
<trkpt lat="46.12735" lon="7.02733"><ele></ele><time>2017-6-21T6:31:10Z</time></trkpt>
<trkpt lat="46.12733" lon="7.02731"><ele></ele><time>2017-6-21T6:31:13Z</time></trkpt>
<trkpt lat="46.12731" lon="7.0273"><ele></ele><time>2017-6-21T6:31:16Z</time></trkpt>
<trkpt lat="46.12729" lon="7.02729"><ele></ele><time>2017-6-21T6:31:19Z</time></trkpt>
<trkpt lat="46.12727" lon="7.02728"><ele></ele><time>2017-6-21T6:31:22Z</time></trkpt>
<trkpt lat="46.12725" lon="7.02726"><ele></ele><time>2017-6-21T6:31:25Z</time></trkpt>
<trkpt lat="46.12723" lon="7.02725"><ele></ele><time>2017-6-21T6:31:28Z</time></trkpt>
<trkpt lat="46.12721" lon="7.02724"><ele></ele><time>2017-6-21T6:31:31Z</time></trkpt>
<trkpt lat="46.12719" lon="7.02723"><ele></ele><time>2017-6-21T6:31:34Z</time></trkpt>
<trkpt lat="46.12717" lon="7.02721"><ele></ele><time>2017-6-21T6:31:37Z</time></trkpt>
<trkpt lat="46.12715" lon="7.0272"><ele></ele><time>2017-6-21T6:31:40Z</time></trkpt>
<trkpt lat="46.12713" lon="7.02719"><ele></ele><time>2017-6-21T6:31:43Z</time></trkpt>
<trkpt lat="46.12711" lon="7.02718"><ele></ele><time>2017-6-21T6:31:46Z</time></trkpt>
<trkpt lat="46.12709" lon="7.02717"><ele></ele><time>2017-6-21T6:31:49Z</time></trkpt>
<trkpt lat="46.12707" lon="7.02716"><ele></ele><time>2017-6-21T6:31:52Z</time></trkpt>
<trkpt lat="46.12705" lon="7.02715"><ele></ele><time>2017-6-21T6:31:55Z</time></trkpt>
<trkpt lat="46.12703" lon="7.02715"><ele></ele><time>2017-6-21T6:31:58Z</time></trkpt>
<trkpt lat="46.12701" lon="7.02714"><ele></ele><time>2017-6-21T6:32:1Z</time></trkpt>
<trkpt lat="46.12699" lon="7.02713"><ele></ele><time>2017-6-21T6:32:4Z</time></trkpt>
<trkpt lat="46.12697" lon="7.02712"><ele></ele><time>2017-6-21T6:32:7Z</time></trkpt>
<trkpt lat="46.12695" lon="7.02712"><ele></ele><time>2017-6-21T6:32:10Z</time></trkpt>
<trkpt lat="46.12694" lon="7.02711"><ele></ele><time>2017-6-21T6:32:13Z</time></trkpt>
<trkpt lat="46.12692" lon="7.0271"><ele></ele><time>2017-6-21T6:32:16Z</time></trkpt>
<trkpt lat="46.1269" lon="7.02709"><ele></ele><time>2017-6-21T6:32:19Z</time></trkpt>
<trkpt lat="46.12688" lon="7.02708"><ele></ele><time>2017-6-21T6:32:22Z</time></trkpt>
<trkpt lat="46.12686" lon="7.02708"><ele></ele><time>2017-6-21T6:32:25Z</time></trkpt>
<trkpt lat="46.12684" lon="7.02707"><ele></ele><time>2017-6-21T6:32:28Z</time></trkpt>
<trkpt lat="46.12682" lon="7.02706"><ele></ele><time>2017-6-21T6:32:31Z</time></trkpt>
<trkpt lat="46.1268" lon="7.02705"><ele></ele><time>2017-6-21T6:32:34Z</time></trkpt>
<trkpt lat="46.12679" lon="7.02705"><ele></ele><time>2017-6-21T6:32:37Z</time></trkpt>
<trkpt lat="46.12678" lon="7.02705"><ele></ele><time>2017-6-21T6:32:40Z</time></trkpt>
<trkpt lat="46.12676" lon="7.02704"><ele></ele><time>2017-6-21T6:32:43Z</time></trkpt>
<trkpt lat="46.12674" lon="7.02703"><ele></ele><time>2017-6-21T6:32:46Z</time></trkpt>
<trkpt lat="46.12672" lon="7.02702"><ele></ele><time>2017-6-21T6:32:49Z</time></trkpt>
<trkpt lat="46.12671" lon="7.02702"><ele></ele><time>2017-6-21T6:32:52Z</time></trkpt>
<trkpt lat="46.12669" lon="7.02701"><ele></ele><time>2017-6-21T6:32:55Z</time></trkpt>
<trkpt lat="46.12667" lon="7.027"><ele></ele><time>2017-6-21T6:32:58Z</time></trkpt>
<trkpt lat="46.12665" lon="7.02698"><ele></ele><time>2017-6-21T6:33:1Z</time></trkpt>
<trkpt lat="46.12663" lon="7.02696"><ele></ele><time>2017-6-21T6:33:4Z</time></trkpt>
<trkpt lat="46.12661" lon="7.02694"><ele></ele><time>2017-6-21T6:33:7Z</time></trkpt>
<trkpt lat="46.12659" lon="7.02692"><ele></ele><time>2017-6-21T6:33:10Z</time></trkpt>
<trkpt lat="46.12657" lon="7.02689"><ele></ele><time>2017-6-21T6:33:13Z</time></trkpt>
<trkpt lat="46.12655" lon="7.02687"><ele></ele><time>2017-6-21T6:33:16Z</time></trkpt>
<trkpt lat="46.12653" lon="7.02685"><ele></ele><time>2017-6-21T6:33:19Z</time></trkpt>
<trkpt lat="46.12651" lon="7.02683"><ele></ele><time>2017-6-21T6:33:22Z</time></trkpt>
<trkpt lat="46.12649" lon="7.02681"><ele></ele><time>2017-6-21T6:33:25Z</time></trkpt>
<trkpt lat="46.12647" lon="7.02679"><ele></ele><time>2017-6-21T6:33:28Z</time></trkpt>
<trkpt lat="46.12646" lon="7.02677"><ele></ele><time>2017-6-21T6:33:31Z</time></trkpt>
<trkpt lat="46.12644" lon="7.02675"><ele></ele><time>2017-6-21T6:33:34Z</time></trkpt>
<trkpt lat="46.12642" lon="7.02673"><ele></ele><time>2017-6-21T6:33:37Z</time></trkpt>
<trkpt lat="46.1264" lon="7.02671"><ele></ele><time>2017-6-21T6:33:40Z</time></trkpt>
<trkpt lat="46.12638" lon="7.02668"><ele></ele><time>2017-6-21T6:33:43Z</time></trkpt>
<trkpt lat="46.12636" lon="7.02666"><ele></ele><time>2017-6-21T6:33:46Z</time></trkpt>
<trkpt lat="46.12634" lon="7.02664"><ele></ele><time>2017-6-21T6:33:49Z</time></trkpt>
<trkpt lat="46.12632" lon="7.02662"><ele></ele><time>2017-6-21T6:33:52Z</time></trkpt>
<trkpt lat="46.1263" lon="7.0266"><ele></ele><time>2017-6-21T6:33:55Z</time></trkpt>
<trkpt lat="46.12628" lon="7.02658"><ele></ele><time>2017-6-21T6:33:58Z</time></trkpt>
<trkpt lat="46.12626" lon="7.02656"><ele></ele><time>2017-6-21T6:34:1Z</time></trkpt>
<trkpt lat="46.12624" lon="7.02655"><ele></ele><time>2017-6-21T6:34:4Z</time></trkpt>
<trkpt lat="46.12622" lon="7.02653"><ele></ele><time>2017-6-21T6:34:7Z</time></trkpt>
<trkpt lat="46.1262" lon="7.02651"><ele></ele><time>2017-6-21T6:34:10Z</time></trkpt>
<trkpt lat="46.12618" lon="7.02649"><ele></ele><time>2017-6-21T6:34:13Z</time></trkpt>
<trkpt lat="46.12616" lon="7.02647"><ele></ele><time>2017-6-21T6:34:16Z</time></trkpt>
<trkpt lat="46.12614" lon="7.02645"><ele></ele><time>2017-6-21T6:34:19Z</time></trkpt>
<trkpt lat="46.12613" lon="7.02644"><ele></ele><time>2017-6-21T6:34:22Z</time></trkpt>
<trkpt lat="46.12611" lon="7.02642"><ele></ele><time>2017-6-21T6:34:25Z</time></trkpt>
<trkpt lat="46.1261" lon="7.02641"><ele></ele><time>2017-6-21T6:34:28Z</time></trkpt>
<trkpt lat="46.12609" lon="7.0264"><ele></ele><time>2017-6-21T6:34:31Z</time></trkpt>
<trkpt lat="46.12607" lon="7.02638"><ele></ele><time>2017-6-21T6:34:34Z</time></trkpt>
<trkpt lat="46.12605" lon="7.02636"><ele></ele><time>2017-6-21T6:34:37Z</time></trkpt>
<trkpt lat="46.12603" lon="7.02634"><ele></ele><time>2017-6-21T6:34:40Z</time></trkpt>
<trkpt lat="46.12601" lon="7.02632"><ele></ele><time>2017-6-21T6:34:43Z</time></trkpt>
<trkpt lat="46.12599" lon="7.02631"><ele></ele><time>2017-6-21T6:34:46Z</time></trkpt>
<trkpt lat="46.12597" lon="7.02629"><ele></ele><time>2017-6-21T6:34:49Z</time></trkpt>
<trkpt lat="46.12595" lon="7.02627"><ele></ele><time>2017-6-21T6:34:52Z</time></trkpt>
<trkpt lat="46.12593" lon="7.02625"><ele></ele><time>2017-6-21T6:34:55Z</time></trkpt>
<trkpt lat="46.12592" lon="7.02624"><ele></ele><time>2017-6-21T6:34:58Z</time></trkpt>
<trkpt lat="46.12591" lon="7.02623"><ele></ele><time>2017-6-21T6:35:1Z</time></trkpt>
<trkpt lat="46.12588" lon="7.02621"><ele></ele><time>2017-6-21T6:35:4Z</time></trkpt>
<trkpt lat="46.12586" lon="7.02618"><ele></ele><time>2017-6-21T6:35:7Z</time></trkpt>
<trkpt lat="46.12583" lon="7.02616"><ele></ele><time>2017-6-21T6:35:10Z</time></trkpt>
<trkpt lat="46.12581" lon="7.02614"><ele></ele><time>2017-6-21T6:35:13Z</time></trkpt>
<trkpt lat="46.12579" lon="7.02611"><ele></ele><time>2017-6-21T6:35:16Z</time></trkpt>
<trkpt lat="46.12576" lon="7.02609"><ele></ele><time>2017-6-21T6:35:19Z</time></trkpt>
<trkpt lat="46.12574" lon="7.02607"><ele></ele><time>2017-6-21T6:35:22Z</time></trkpt>
<trkpt lat="46.12571" lon="7.02604"><ele></ele><time>2017-6-21T6:35:25Z</time></trkpt>
<trkpt lat="46.12569" lon="7.02602"><ele></ele><time>2017-6-21T6:35:28Z</time></trkpt>
<trkpt lat="46.12566" lon="7.026"><ele></ele><time>2017-6-21T6:35:31Z</time></trkpt>
<trkpt lat="46.12564" lon="7.02597"><ele></ele><time>2017-6-21T6:35:34Z</time></trkpt>
<trkpt lat="46.12562" lon="7.02595"><ele></ele><time>2017-6-21T6:35:37Z</time></trkpt>
<trkpt lat="46.12559" lon="7.02593"><ele></ele><time>2017-6-21T6:35:40Z</time></trkpt>
<trkpt lat="46.12557" lon="7.0259"><ele></ele><time>2017-6-21T6:35:43Z</time></trkpt>
<trkpt lat="46.12554" lon="7.02588"><ele></ele><time>2017-6-21T6:35:46Z</time></trkpt>
<trkpt lat="46.12552" lon="7.02586"><ele></ele><time>2017-6-21T6:35:49Z</time></trkpt>
<trkpt lat="46.1255" lon="7.02584"><ele></ele><time>2017-6-21T6:35:52Z</time></trkpt>
<trkpt lat="46.12547" lon="7.02582"><ele></ele><time>2017-6-21T6:35:55Z</time></trkpt>
<trkpt lat="46.12545" lon="7.0258"><ele></ele><time>2017-6-21T6:35:58Z</time></trkpt>
<trkpt lat="46.12543" lon="7.02578"><ele></ele><time>2017-6-21T6:36:1Z</time></trkpt>
<trkpt lat="46.1254" lon="7.02576"><ele></ele><time>2017-6-21T6:36:4Z</time></trkpt>
<trkpt lat="46.12538" lon="7.02574"><ele></ele><time>2017-6-21T6:36:7Z</time></trkpt>
<trkpt lat="46.12535" lon="7.02572"><ele></ele><time>2017-6-21T6:36:10Z</time></trkpt>
<trkpt lat="46.12533" lon="7.0257"><ele></ele><time>2017-6-21T6:36:13Z</time></trkpt>
<trkpt lat="46.12531" lon="7.02568"><ele></ele><time>2017-6-21T6:36:16Z</time></trkpt>
<trkpt lat="46.12528" lon="7.02566"><ele></ele><time>2017-6-21T6:36:19Z</time></trkpt>
<trkpt lat="46.12526" lon="7.02563"><ele></ele><time>2017-6-21T6:36:22Z</time></trkpt>
<trkpt lat="46.12524" lon="7.02561"><ele></ele><time>2017-6-21T6:36:25Z</time></trkpt>
<trkpt lat="46.12521" lon="7.02559"><ele></ele><time>2017-6-21T6:36:28Z</time></trkpt>
<trkpt lat="46.1252" lon="7.02558"><ele></ele><time>2017-6-21T6:36:31Z</time></trkpt>
<trkpt lat="46.12519" lon="7.02557"><ele></ele><time>2017-6-21T6:36:34Z</time></trkpt>
<trkpt lat="46.12516" lon="7.02555"><ele></ele><time>2017-6-21T6:36:37Z</time></trkpt>
<trkpt lat="46.12515" lon="7.02554"><ele></ele><time>2017-6-21T6:36:40Z</time></trkpt>
<trkpt lat="46.12514" lon="7.02553"><ele></ele><time>2017-6-21T6:36:43Z</time></trkpt>
<trkpt lat="46.12512" lon="7.02551"><ele></ele><time>2017-6-21T6:36:46Z</time></trkpt>
<trkpt lat="46.1251" lon="7.02549"><ele></ele><time>2017-6-21T6:36:49Z</time></trkpt>
<trkpt lat="46.12508" lon="7.02547"><ele></ele><time>2017-6-21T6:36:52Z</time></trkpt>
<trkpt lat="46.12506" lon="7.02545"><ele></ele><time>2017-6-21T6:36:55Z</time></trkpt>
<trkpt lat="46.12504" lon="7.02543"><ele></ele><time>2017-6-21T6:36:58Z</time></trkpt>
<trkpt lat="46.12502" lon="7.02541"><ele></ele><time>2017-6-21T6:37:1Z</time></trkpt>
<trkpt lat="46.125" lon="7.02539"><ele></ele><time>2017-6-21T6:37:4Z</time></trkpt>
<trkpt lat="46.12498" lon="7.02537"><ele></ele><time>2017-6-21T6:37:7Z</time></trkpt>
<trkpt lat="46.12497" lon="7.02536"><ele></ele><time>2017-6-21T6:37:10Z</time></trkpt>
<trkpt lat="46.12496" lon="7.02536"><ele></ele><time>2017-6-21T6:37:13Z</time></trkpt>
<trkpt lat="46.12494" lon="7.02534"><ele></ele><time>2017-6-21T6:37:16Z</time></trkpt>
<trkpt lat="46.12492" lon="7.02532"><ele></ele><time>2017-6-21T6:37:19Z</time></trkpt>
<trkpt lat="46.1249" lon="7.0253"><ele></ele><time>2017-6-21T6:37:22Z</time></trkpt>
<trkpt lat="46.12488" lon="7.02528"><ele></ele><time>2017-6-21T6:37:25Z</time></trkpt>
<trkpt lat="46.12486" lon="7.02526"><ele></ele><time>2017-6-21T6:37:28Z</time></trkpt>
<trkpt lat="46.12484" lon="7.02524"><ele></ele><time>2017-6-21T6:37:31Z</time></trkpt>
<trkpt lat="46.12481" lon="7.02522"><ele></ele><time>2017-6-21T6:37:34Z</time></trkpt>
<trkpt lat="46.12479" lon="7.0252"><ele></ele><time>2017-6-21T6:37:37Z</time></trkpt>
<trkpt lat="46.12477" lon="7.02518"><ele></ele><time>2017-6-21T6:37:40Z</time></trkpt>
<trkpt lat="46.12475" lon="7.02516"><ele></ele><time>2017-6-21T6:37:43Z</time></trkpt>
<trkpt lat="46.12473" lon="7.02514"><ele></ele><time>2017-6-21T6:37:46Z</time></trkpt>
<trkpt lat="46.12471" lon="7.02512"><ele></ele><time>2017-6-21T6:37:49Z</time></trkpt>
<trkpt lat="46.12469" lon="7.0251"><ele></ele><time>2017-6-21T6:37:52Z</time></trkpt>
<trkpt lat="46.12466" lon="7.02509"><ele></ele><time>2017-6-21T6:37:55Z</time></trkpt>
<trkpt lat="46.12464" lon="7.02507"><ele></ele><time>2017-6-21T6:37:58Z</time></trkpt>
<trkpt lat="46.12462" lon="7.02505"><ele></ele><time>2017-6-21T6:38:1Z</time></trkpt>
<trkpt lat="46.1246" lon="7.02503"><ele></ele><time>2017-6-21T6:38:4Z</time></trkpt>
<trkpt lat="46.12458" lon="7.02501"><ele></ele><time>2017-6-21T6:38:7Z</time></trkpt>
<trkpt lat="46.12455" lon="7.02499"><ele></ele><time>2017-6-21T6:38:10Z</time></trkpt>
<trkpt lat="46.12453" lon="7.02498"><ele></ele><time>2017-6-21T6:38:13Z</time></trkpt>
<trkpt lat="46.12451" lon="7.02496"><ele></ele><time>2017-6-21T6:38:16Z</time></trkpt>
<trkpt lat="46.12449" lon="7.02494"><ele></ele><time>2017-6-21T6:38:19Z</time></trkpt>
<trkpt lat="46.12447" lon="7.02492"><ele></ele><time>2017-6-21T6:38:22Z</time></trkpt>
<trkpt lat="46.12445" lon="7.0249"><ele></ele><time>2017-6-21T6:38:25Z</time></trkpt>
<trkpt lat="46.12442" lon="7.02488"><ele></ele><time>2017-6-21T6:38:28Z</time></trkpt>
<trkpt lat="46.1244" lon="7.02487"><ele></ele><time>2017-6-21T6:38:31Z</time></trkpt>
<trkpt lat="46.12438" lon="7.02485"><ele></ele><time>2017-6-21T6:38:34Z</time></trkpt>
<trkpt lat="46.12435" lon="7.02483"><ele></ele><time>2017-6-21T6:38:37Z</time></trkpt>
<trkpt lat="46.12433" lon="7.02482"><ele></ele><time>2017-6-21T6:38:40Z</time></trkpt>
<trkpt lat="46.1243" lon="7.0248"><ele></ele><time>2017-6-21T6:38:43Z</time></trkpt>
<trkpt lat="46.12428" lon="7.02478"><ele></ele><time>2017-6-21T6:38:46Z</time></trkpt>
<trkpt lat="46.12427" lon="7.02477"><ele></ele><time>2017-6-21T6:38:49Z</time></trkpt>
<trkpt lat="46.12425" lon="7.02477"><ele></ele><time>2017-6-21T6:38:52Z</time></trkpt>
<trkpt lat="46.12423" lon="7.02475"><ele></ele><time>2017-6-21T6:38:55Z</time></trkpt>
<trkpt lat="46.1242" lon="7.02473"><ele></ele><time>2017-6-21T6:38:58Z</time></trkpt>
<trkpt lat="46.12418" lon="7.02472"><ele></ele><time>2017-6-21T6:39:1Z</time></trkpt>
<trkpt lat="46.12415" lon="7.0247"><ele></ele><time>2017-6-21T6:39:4Z</time></trkpt>
<trkpt lat="46.12413" lon="7.02469"><ele></ele><time>2017-6-21T6:39:7Z</time></trkpt>
<trkpt lat="46.1241" lon="7.02467"><ele></ele><time>2017-6-21T6:39:10Z</time></trkpt>
<trkpt lat="46.12408" lon="7.02465"><ele></ele><time>2017-6-21T6:39:13Z</time></trkpt>
<trkpt lat="46.12405" lon="7.02464"><ele></ele><time>2017-6-21T6:39:16Z</time></trkpt>
<trkpt lat="46.12403" lon="7.02462"><ele></ele><time>2017-6-21T6:39:19Z</time></trkpt>
<trkpt lat="46.124" lon="7.0246"><ele></ele><time>2017-6-21T6:39:22Z</time></trkpt>
<trkpt lat="46.12398" lon="7.02459"><ele></ele><time>2017-6-21T6:39:25Z</time></trkpt>
<trkpt lat="46.12397" lon="7.02458"><ele></ele><time>2017-6-21T6:39:28Z</time></trkpt>
<trkpt lat="46.12396" lon="7.02456"><ele></ele><time>2017-6-21T6:39:31Z</time></trkpt>
<trkpt lat="46.12394" lon="7.02454"><ele></ele><time>2017-6-21T6:39:34Z</time></trkpt>
<trkpt lat="46.12393" lon="7.02451"><ele></ele><time>2017-6-21T6:39:37Z</time></trkpt>
<trkpt lat="46.12391" lon="7.02448"><ele></ele><time>2017-6-21T6:39:40Z</time></trkpt>
<trkpt lat="46.1239" lon="7.02447"><ele></ele><time>2017-6-21T6:39:43Z</time></trkpt>
<trkpt lat="46.12389" lon="7.02445"><ele></ele><time>2017-6-21T6:39:46Z</time></trkpt>
<trkpt lat="46.12388" lon="7.02442"><ele></ele><time>2017-6-21T6:39:49Z</time></trkpt>
<trkpt lat="46.12386" lon="7.0244"><ele></ele><time>2017-6-21T6:39:52Z</time></trkpt>
<trkpt lat="46.12385" lon="7.02437"><ele></ele><time>2017-6-21T6:39:55Z</time></trkpt>
<trkpt lat="46.12383" lon="7.02434"><ele></ele><time>2017-6-21T6:39:58Z</time></trkpt>
<trkpt lat="46.12382" lon="7.02433"><ele></ele><time>2017-6-21T6:40:1Z</time></trkpt>
<trkpt lat="46.12381" lon="7.02431"><ele></ele><time>2017-6-21T6:40:4Z</time></trkpt>
<trkpt lat="46.1238" lon="7.02429"><ele></ele><time>2017-6-21T6:40:7Z</time></trkpt>
<trkpt lat="46.12378" lon="7.02426"><ele></ele><time>2017-6-21T6:40:10Z</time></trkpt>
<trkpt lat="46.12376" lon="7.02423"><ele></ele><time>2017-6-21T6:40:13Z</time></trkpt>
<trkpt lat="46.12375" lon="7.0242"><ele></ele><time>2017-6-21T6:40:16Z</time></trkpt>
<trkpt lat="46.12373" lon="7.02417"><ele></ele><time>2017-6-21T6:40:19Z</time></trkpt>
<trkpt lat="46.12372" lon="7.02415"><ele></ele><time>2017-6-21T6:40:22Z</time></trkpt>
<trkpt lat="46.1237" lon="7.02412"><ele></ele><time>2017-6-21T6:40:25Z</time></trkpt>
<trkpt lat="46.12368" lon="7.02409"><ele></ele><time>2017-6-21T6:40:28Z</time></trkpt>
<trkpt lat="46.12368" lon="7.02408"><ele></ele><time>2017-6-21T6:40:31Z</time></trkpt>
<trkpt lat="46.12367" lon="7.02406"><ele></ele><time>2017-6-21T6:40:34Z</time></trkpt>
<trkpt lat="46.12365" lon="7.02404"><ele></ele><time>2017-6-21T6:40:37Z</time></trkpt>
<trkpt lat="46.12364" lon="7.02401"><ele></ele><time>2017-6-21T6:40:40Z</time></trkpt>
<trkpt lat="46.12362" lon="7.02398"><ele></ele><time>2017-6-21T6:40:43Z</time></trkpt>
<trkpt lat="46.12361" lon="7.02396"><ele></ele><time>2017-6-21T6:40:46Z</time></trkpt>
<trkpt lat="46.12359" lon="7.02393"><ele></ele><time>2017-6-21T6:40:49Z</time></trkpt>
<trkpt lat="46.12358" lon="7.0239"><ele></ele><time>2017-6-21T6:40:52Z</time></trkpt>
<trkpt lat="46.12356" lon="7.02387"><ele></ele><time>2017-6-21T6:40:55Z</time></trkpt>
<trkpt lat="46.12355" lon="7.02385"><ele></ele><time>2017-6-21T6:40:58Z</time></trkpt>
<trkpt lat="46.12353" lon="7.02382"><ele></ele><time>2017-6-21T6:41:1Z</time></trkpt>
<trkpt lat="46.12352" lon="7.02379"><ele></ele><time>2017-6-21T6:41:4Z</time></trkpt>
<trkpt lat="46.1235" lon="7.02376"><ele></ele><time>2017-6-21T6:41:7Z</time></trkpt>
<trkpt lat="46.12349" lon="7.02374"><ele></ele><time>2017-6-21T6:41:10Z</time></trkpt>
<trkpt lat="46.12347" lon="7.02371"><ele></ele><time>2017-6-21T6:41:13Z</time></trkpt>
<trkpt lat="46.12347" lon="7.0237"><ele></ele><time>2017-6-21T6:41:16Z</time></trkpt>
<trkpt lat="46.12346" lon="7.02368"><ele></ele><time>2017-6-21T6:41:19Z</time></trkpt>
<trkpt lat="46.12344" lon="7.02366"><ele></ele><time>2017-6-21T6:41:22Z</time></trkpt>
<trkpt lat="46.12343" lon="7.02363"><ele></ele><time>2017-6-21T6:41:25Z</time></trkpt>
<trkpt lat="46.12341" lon="7.0236"><ele></ele><time>2017-6-21T6:41:28Z</time></trkpt>
<trkpt lat="46.1234" lon="7.02357"><ele></ele><time>2017-6-21T6:41:31Z</time></trkpt>
<trkpt lat="46.12339" lon="7.02356"><ele></ele><time>2017-6-21T6:41:34Z</time></trkpt>
<trkpt lat="46.12338" lon="7.02356"><ele></ele><time>2017-6-21T6:41:37Z</time></trkpt>
<trkpt lat="46.12336" lon="7.02354"><ele></ele><time>2017-6-21T6:41:40Z</time></trkpt>
<trkpt lat="46.12335" lon="7.02353"><ele></ele><time>2017-6-21T6:41:43Z</time></trkpt>
<trkpt lat="46.12333" lon="7.02351"><ele></ele><time>2017-6-21T6:41:46Z</time></trkpt>
<trkpt lat="46.12331" lon="7.0235"><ele></ele><time>2017-6-21T6:41:49Z</time></trkpt>
<trkpt lat="46.12329" lon="7.02348"><ele></ele><time>2017-6-21T6:41:52Z</time></trkpt>
<trkpt lat="46.12327" lon="7.02347"><ele></ele><time>2017-6-21T6:41:55Z</time></trkpt>
<trkpt lat="46.12326" lon="7.02345"><ele></ele><time>2017-6-21T6:41:58Z</time></trkpt>
<trkpt lat="46.12324" lon="7.02344"><ele></ele><time>2017-6-21T6:42:1Z</time></trkpt>
<trkpt lat="46.12322" lon="7.02342"><ele></ele><time>2017-6-21T6:42:4Z</time></trkpt>
<trkpt lat="46.1232" lon="7.02341"><ele></ele><time>2017-6-21T6:42:7Z</time></trkpt>
<trkpt lat="46.12319" lon="7.0234"><ele></ele><time>2017-6-21T6:42:10Z</time></trkpt>
<trkpt lat="46.12317" lon="7.02338"><ele></ele><time>2017-6-21T6:42:13Z</time></trkpt>
<trkpt lat="46.12315" lon="7.02337"><ele></ele><time>2017-6-21T6:42:16Z</time></trkpt>
<trkpt lat="46.12313" lon="7.02335"><ele></ele><time>2017-6-21T6:42:19Z</time></trkpt>
<trkpt lat="46.12311" lon="7.02334"><ele></ele><time>2017-6-21T6:42:22Z</time></trkpt>
<trkpt lat="46.1231" lon="7.02332"><ele></ele><time>2017-6-21T6:42:25Z</time></trkpt>
<trkpt lat="46.12308" lon="7.02331"><ele></ele><time>2017-6-21T6:42:28Z</time></trkpt>
<trkpt lat="46.12306" lon="7.02329"><ele></ele><time>2017-6-21T6:42:31Z</time></trkpt>
<trkpt lat="46.12304" lon="7.02328"><ele></ele><time>2017-6-21T6:42:34Z</time></trkpt>
<trkpt lat="46.12302" lon="7.02327"><ele></ele><time>2017-6-21T6:42:37Z</time></trkpt>
<trkpt lat="46.12301" lon="7.02325"><ele></ele><time>2017-6-21T6:42:40Z</time></trkpt>
<trkpt lat="46.123" lon="7.02324"><ele></ele><time>2017-6-21T6:42:43Z</time></trkpt>
<trkpt lat="46.12298" lon="7.02323"><ele></ele><time>2017-6-21T6:42:46Z</time></trkpt>
<trkpt lat="46.12296" lon="7.02319"><ele></ele><time>2017-6-21T6:42:49Z</time></trkpt>
<trkpt lat="46.12293" lon="7.02316"><ele></ele><time>2017-6-21T6:42:52Z</time></trkpt>
<trkpt lat="46.1229" lon="7.02313"><ele></ele><time>2017-6-21T6:42:55Z</time></trkpt>
<trkpt lat="46.12288" lon="7.0231"><ele></ele><time>2017-6-21T6:42:58Z</time></trkpt>
<trkpt lat="46.12285" lon="7.02307"><ele></ele><time>2017-6-21T6:43:1Z</time></trkpt>
<trkpt lat="46.12283" lon="7.02304"><ele></ele><time>2017-6-21T6:43:4Z</time></trkpt>
<trkpt lat="46.1228" lon="7.02301"><ele></ele><time>2017-6-21T6:43:7Z</time></trkpt>
<trkpt lat="46.12277" lon="7.02298"><ele></ele><time>2017-6-21T6:43:10Z</time></trkpt>
<trkpt lat="46.12275" lon="7.02295"><ele></ele><time>2017-6-21T6:43:13Z</time></trkpt>
<trkpt lat="46.12272" lon="7.02292"><ele></ele><time>2017-6-21T6:43:16Z</time></trkpt>
<trkpt lat="46.12269" lon="7.02289"><ele></ele><time>2017-6-21T6:43:19Z</time></trkpt>
<trkpt lat="46.12267" lon="7.02286"><ele></ele><time>2017-6-21T6:43:22Z</time></trkpt>
<trkpt lat="46.12265" lon="7.02283"><ele></ele><time>2017-6-21T6:43:25Z</time></trkpt>
<trkpt lat="46.12265" lon="7.02283"><ele></ele><time>2017-6-21T6:43:28Z</time></trkpt>
<trkpt lat="46.12265" lon="7.02282"><ele></ele><time>2017-6-21T6:43:31Z</time></trkpt>
<trkpt lat="46.12265" lon="7.02281"><ele></ele><time>2017-6-21T6:43:34Z</time></trkpt>
<trkpt lat="46.12265" lon="7.02281"><ele></ele><time>2017-6-21T6:43:37Z</time></trkpt>
<trkpt lat="46.12265" lon="7.0228"><ele></ele><time>2017-6-21T6:43:40Z</time></trkpt>
<trkpt lat="46.12265" lon="7.0228"><ele></ele><time>2017-6-21T6:43:43Z</time></trkpt>
<trkpt lat="46.12265" lon="7.02279"><ele></ele><time>2017-6-21T6:43:46Z</time></trkpt>
<trkpt lat="46.12265" lon="7.02279"><ele></ele><time>2017-6-21T6:43:49Z</time></trkpt>
<trkpt lat="46.12265" lon="7.02278"><ele></ele><time>2017-6-21T6:43:52Z</time></trkpt>
<trkpt lat="46.12265" lon="7.02277"><ele></ele><time>2017-6-21T6:43:55Z</time></trkpt>
<trkpt lat="46.12265" lon="7.02277"><ele></ele><time>2017-6-21T6:43:58Z</time></trkpt>
<trkpt lat="46.12265" lon="7.02276"><ele></ele><time>2017-6-21T6:44:1Z</time></trkpt>
<trkpt lat="46.12265" lon="7.02276"><ele></ele><time>2017-6-21T6:44:4Z</time></trkpt>
<trkpt lat="46.12265" lon="7.02275"><ele></ele><time>2017-6-21T6:44:7Z</time></trkpt>
<trkpt lat="46.12265" lon="7.02275"><ele></ele><time>2017-6-21T6:44:10Z</time></trkpt>
<trkpt lat="46.12268" lon="7.02276"><ele></ele><time>2017-6-21T6:44:13Z</time></trkpt>
<trkpt lat="46.1227" lon="7.02278"><ele></ele><time>2017-6-21T6:44:16Z</time></trkpt>
<trkpt lat="46.12272" lon="7.02279"><ele></ele><time>2017-6-21T6:44:19Z</time></trkpt>
<trkpt lat="46.12274" lon="7.02281"><ele></ele><time>2017-6-21T6:44:22Z</time></trkpt>
<trkpt lat="46.12276" lon="7.02282"><ele></ele><time>2017-6-21T6:44:25Z</time></trkpt>
<trkpt lat="46.12278" lon="7.02283"><ele></ele><time>2017-6-21T6:44:28Z</time></trkpt>
<trkpt lat="46.12279" lon="7.02283"><ele></ele><time>2017-6-21T6:44:31Z</time></trkpt>
<trkpt lat="46.12281" lon="7.02285"><ele></ele><time>2017-6-21T6:44:34Z</time></trkpt>
<trkpt lat="46.12283" lon="7.02286"><ele></ele><time>2017-6-21T6:44:37Z</time></trkpt>
<trkpt lat="46.12285" lon="7.02288"><ele></ele><time>2017-6-21T6:44:40Z</time></trkpt>
<trkpt lat="46.12288" lon="7.02289"><ele></ele><time>2017-6-21T6:44:43Z</time></trkpt>
<trkpt lat="46.1229" lon="7.0229"><ele></ele><time>2017-6-21T6:44:46Z</time></trkpt>
<trkpt lat="46.12292" lon="7.02292"><ele></ele><time>2017-6-21T6:44:49Z</time></trkpt>
<trkpt lat="46.12294" lon="7.02293"><ele></ele><time>2017-6-21T6:44:52Z</time></trkpt>
<trkpt lat="46.12296" lon="7.02295"><ele></ele><time>2017-6-21T6:44:55Z</time></trkpt>
<trkpt lat="46.12299" lon="7.02296"><ele></ele><time>2017-6-21T6:44:58Z</time></trkpt>
<trkpt lat="46.12301" lon="7.02298"><ele></ele><time>2017-6-21T6:45:1Z</time></trkpt>
<trkpt lat="46.12303" lon="7.02299"><ele></ele><time>2017-6-21T6:45:4Z</time></trkpt>
<trkpt lat="46.12305" lon="7.023"><ele></ele><time>2017-6-21T6:45:7Z</time></trkpt>
<trkpt lat="46.12306" lon="7.02301"><ele></ele><time>2017-6-21T6:45:10Z</time></trkpt>
<trkpt lat="46.12307" lon="7.02302"><ele></ele><time>2017-6-21T6:45:13Z</time></trkpt>
<trkpt lat="46.1231" lon="7.02303"><ele></ele><time>2017-6-21T6:45:16Z</time></trkpt>
<trkpt lat="46.12312" lon="7.02303"><ele></ele><time>2017-6-21T6:45:19Z</time></trkpt>
<trkpt lat="46.12315" lon="7.02304"><ele></ele><time>2017-6-21T6:45:22Z</time></trkpt>
<trkpt lat="46.12317" lon="7.02305"><ele></ele><time>2017-6-21T6:45:25Z</time></trkpt>
<trkpt lat="46.1232" lon="7.02306"><ele></ele><time>2017-6-21T6:45:28Z</time></trkpt>
<trkpt lat="46.12322" lon="7.02307"><ele></ele><time>2017-6-21T6:45:31Z</time></trkpt>
<trkpt lat="46.12325" lon="7.02307"><ele></ele><time>2017-6-21T6:45:34Z</time></trkpt>
<trkpt lat="46.12327" lon="7.02308"><ele></ele><time>2017-6-21T6:45:37Z</time></trkpt>
<trkpt lat="46.1233" lon="7.02309"><ele></ele><time>2017-6-21T6:45:40Z</time></trkpt>
<trkpt lat="46.12332" lon="7.0231"><ele></ele><time>2017-6-21T6:45:43Z</time></trkpt>
<trkpt lat="46.12335" lon="7.02311"><ele></ele><time>2017-6-21T6:45:46Z</time></trkpt>
<trkpt lat="46.12337" lon="7.02312"><ele></ele><time>2017-6-21T6:45:49Z</time></trkpt>
<trkpt lat="46.1234" lon="7.02312"><ele></ele><time>2017-6-21T6:45:52Z</time></trkpt>
<trkpt lat="46.12342" lon="7.02313"><ele></ele><time>2017-6-21T6:45:55Z</time></trkpt>
<trkpt lat="46.12344" lon="7.02314"><ele></ele><time>2017-6-21T6:45:58Z</time></trkpt>
<trkpt lat="46.12347" lon="7.02315"><ele></ele><time>2017-6-21T6:46:1Z</time></trkpt>
<trkpt lat="46.12349" lon="7.02316"><ele></ele><time>2017-6-21T6:46:4Z</time></trkpt>
<trkpt lat="46.12352" lon="7.02316"><ele></ele><time>2017-6-21T6:46:7Z</time></trkpt>
<trkpt lat="46.12355" lon="7.02317"><ele></ele><time>2017-6-21T6:46:10Z</time></trkpt>
<trkpt lat="46.12357" lon="7.02318"><ele></ele><time>2017-6-21T6:46:13Z</time></trkpt>
<trkpt lat="46.1236" lon="7.02319"><ele></ele><time>2017-6-21T6:46:16Z</time></trkpt>
<trkpt lat="46.12363" lon="7.0232"><ele></ele><time>2017-6-21T6:46:19Z</time></trkpt>
<trkpt lat="46.12366" lon="7.02321"><ele></ele><time>2017-6-21T6:46:22Z</time></trkpt>
<trkpt lat="46.12368" lon="7.02322"><ele></ele><time>2017-6-21T6:46:25Z</time></trkpt>
<trkpt lat="46.1237" lon="7.02322"><ele></ele><time>2017-6-21T6:46:28Z</time></trkpt>
<trkpt lat="46.12371" lon="7.02323"><ele></ele><time>2017-6-21T6:46:31Z</time></trkpt>
<trkpt lat="46.12374" lon="7.02324"><ele></ele><time>2017-6-21T6:46:34Z</time></trkpt>
<trkpt lat="46.12376" lon="7.02324"><ele></ele><time>2017-6-21T6:46:37Z</time></trkpt>
<trkpt lat="46.12379" lon="7.02325"><ele></ele><time>2017-6-21T6:46:40Z</time></trkpt>
<trkpt lat="46.12382" lon="7.02326"><ele></ele><time>2017-6-21T6:46:43Z</time></trkpt>
<trkpt lat="46.12385" lon="7.02327"><ele></ele><time>2017-6-21T6:46:46Z</time></trkpt>
<trkpt lat="46.12387" lon="7.02328"><ele></ele><time>2017-6-21T6:46:49Z</time></trkpt>
<trkpt lat="46.1239" lon="7.02329"><ele></ele><time>2017-6-21T6:46:52Z</time></trkpt>
<trkpt lat="46.12393" lon="7.0233"><ele></ele><time>2017-6-21T6:46:55Z</time></trkpt>
<trkpt lat="46.12396" lon="7.02331"><ele></ele><time>2017-6-21T6:46:58Z</time></trkpt>
<trkpt lat="46.12397" lon="7.02331"><ele></ele><time>2017-6-21T6:47:1Z</time></trkpt>
<trkpt lat="46.12398" lon="7.02331"><ele></ele><time>2017-6-21T6:47:4Z</time></trkpt>
<trkpt lat="46.12401" lon="7.02332"><ele></ele><time>2017-6-21T6:47:7Z</time></trkpt>
<trkpt lat="46.12403" lon="7.02333"><ele></ele><time>2017-6-21T6:47:10Z</time></trkpt>
<trkpt lat="46.12406" lon="7.02334"><ele></ele><time>2017-6-21T6:47:13Z</time></trkpt>
<trkpt lat="46.12408" lon="7.02334"><ele></ele><time>2017-6-21T6:47:16Z</time></trkpt>
<trkpt lat="46.12411" lon="7.02335"><ele></ele><time>2017-6-21T6:47:19Z</time></trkpt>
<trkpt lat="46.12414" lon="7.02336"><ele></ele><time>2017-6-21T6:47:22Z</time></trkpt>
<trkpt lat="46.12416" lon="7.02336"><ele></ele><time>2017-6-21T6:47:25Z</time></trkpt>
<trkpt lat="46.12419" lon="7.02337"><ele></ele><time>2017-6-21T6:47:28Z</time></trkpt>
<trkpt lat="46.12421" lon="7.02338"><ele></ele><time>2017-6-21T6:47:31Z</time></trkpt>
<trkpt lat="46.12424" lon="7.02338"><ele></ele><time>2017-6-21T6:47:34Z</time></trkpt>
<trkpt lat="46.12426" lon="7.02339"><ele></ele><time>2017-6-21T6:47:37Z</time></trkpt>
<trkpt lat="46.12429" lon="7.0234"><ele></ele><time>2017-6-21T6:47:40Z</time></trkpt>
<trkpt lat="46.12431" lon="7.02341"><ele></ele><time>2017-6-21T6:47:43Z</time></trkpt>
<trkpt lat="46.12434" lon="7.02341"><ele></ele><time>2017-6-21T6:47:46Z</time></trkpt>
<trkpt lat="46.12437" lon="7.02342"><ele></ele><time>2017-6-21T6:47:49Z</time></trkpt>
<trkpt lat="46.12439" lon="7.02343"><ele></ele><time>2017-6-21T6:47:52Z</time></trkpt>
<trkpt lat="46.12442" lon="7.02344"><ele></ele><time>2017-6-21T6:47:55Z</time></trkpt>
<trkpt lat="46.12444" lon="7.02346"><ele></ele><time>2017-6-21T6:47:58Z</time></trkpt>
<trkpt lat="46.12446" lon="7.02348"><ele></ele><time>2017-6-21T6:48:1Z</time></trkpt>
<trkpt lat="46.12448" lon="7.0235"><ele></ele><time>2017-6-21T6:48:4Z</time></trkpt>
<trkpt lat="46.1245" lon="7.02352"><ele></ele><time>2017-6-21T6:48:7Z</time></trkpt>
<trkpt lat="46.12452" lon="7.02354"><ele></ele><time>2017-6-21T6:48:10Z</time></trkpt>
<trkpt lat="46.12454" lon="7.02356"><ele></ele><time>2017-6-21T6:48:13Z</time></trkpt>
<trkpt lat="46.12455" lon="7.02357"><ele></ele><time>2017-6-21T6:48:16Z</time></trkpt>
<trkpt lat="46.12456" lon="7.02358"><ele></ele><time>2017-6-21T6:48:19Z</time></trkpt>
<trkpt lat="46.12458" lon="7.0236"><ele></ele><time>2017-6-21T6:48:22Z</time></trkpt>
<trkpt lat="46.1246" lon="7.02362"><ele></ele><time>2017-6-21T6:48:25Z</time></trkpt>
<trkpt lat="46.12462" lon="7.02364"><ele></ele><time>2017-6-21T6:48:28Z</time></trkpt>
<trkpt lat="46.12464" lon="7.02366"><ele></ele><time>2017-6-21T6:48:31Z</time></trkpt>
<trkpt lat="46.12466" lon="7.02368"><ele></ele><time>2017-6-21T6:48:34Z</time></trkpt>
<trkpt lat="46.12468" lon="7.0237"><ele></ele><time>2017-6-21T6:48:37Z</time></trkpt>
<trkpt lat="46.1247" lon="7.02372"><ele></ele><time>2017-6-21T6:48:40Z</time></trkpt>
<trkpt lat="46.12472" lon="7.02374"><ele></ele><time>2017-6-21T6:48:43Z</time></trkpt>
<trkpt lat="46.12474" lon="7.02376"><ele></ele><time>2017-6-21T6:48:46Z</time></trkpt>
<trkpt lat="46.12476" lon="7.02378"><ele></ele><time>2017-6-21T6:48:49Z</time></trkpt>
<trkpt lat="46.12478" lon="7.0238"><ele></ele><time>2017-6-21T6:48:52Z</time></trkpt>
<trkpt lat="46.12479" lon="7.0238"><ele></ele><time>2017-6-21T6:48:55Z</time></trkpt>
<trkpt lat="46.12481" lon="7.02381"><ele></ele><time>2017-6-21T6:48:58Z</time></trkpt>
<trkpt lat="46.12483" lon="7.02382"><ele></ele><time>2017-6-21T6:49:1Z</time></trkpt>
<trkpt lat="46.12484" lon="7.02382"><ele></ele><time>2017-6-21T6:49:4Z</time></trkpt>
<trkpt lat="46.12485" lon="7.02383"><ele></ele><time>2017-6-21T6:49:7Z</time></trkpt>
<trkpt lat="46.12488" lon="7.02384"><ele></ele><time>2017-6-21T6:49:10Z</time></trkpt>
<trkpt lat="46.1249" lon="7.02385"><ele></ele><time>2017-6-21T6:49:13Z</time></trkpt>
<trkpt lat="46.12492" lon="7.02386"><ele></ele><time>2017-6-21T6:49:16Z</time></trkpt>
<trkpt lat="46.12495" lon="7.02387"><ele></ele><time>2017-6-21T6:49:19Z</time></trkpt>
<trkpt lat="46.12497" lon="7.02388"><ele></ele><time>2017-6-21T6:49:22Z</time></trkpt>
<trkpt lat="46.12499" lon="7.02389"><ele></ele><time>2017-6-21T6:49:25Z</time></trkpt>
<trkpt lat="46.12502" lon="7.0239"><ele></ele><time>2017-6-21T6:49:28Z</time></trkpt>
<trkpt lat="46.12504" lon="7.02391"><ele></ele><time>2017-6-21T6:49:31Z</time></trkpt>
<trkpt lat="46.12506" lon="7.02392"><ele></ele><time>2017-6-21T6:49:34Z</time></trkpt>
<trkpt lat="46.12509" lon="7.02393"><ele></ele><time>2017-6-21T6:49:37Z</time></trkpt>
<trkpt lat="46.1251" lon="7.02393"><ele></ele><time>2017-6-21T6:49:40Z</time></trkpt>
<trkpt lat="46.12511" lon="7.02393"><ele></ele><time>2017-6-21T6:49:43Z</time></trkpt>
<trkpt lat="46.12513" lon="7.02394"><ele></ele><time>2017-6-21T6:49:46Z</time></trkpt>
<trkpt lat="46.12516" lon="7.02395"><ele></ele><time>2017-6-21T6:49:49Z</time></trkpt>
<trkpt lat="46.12518" lon="7.02396"><ele></ele><time>2017-6-21T6:49:52Z</time></trkpt>
<trkpt lat="46.1252" lon="7.02397"><ele></ele><time>2017-6-21T6:49:55Z</time></trkpt>
<trkpt lat="46.12523" lon="7.02398"><ele></ele><time>2017-6-21T6:49:58Z</time></trkpt>
<trkpt lat="46.12524" lon="7.02399"><ele></ele><time>2017-6-21T6:50:1Z</time></trkpt>
<trkpt lat="46.12525" lon="7.02398"><ele></ele><time>2017-6-21T6:50:4Z</time></trkpt>
<trkpt lat="46.12528" lon="7.02398"><ele></ele><time>2017-6-21T6:50:7Z</time></trkpt>
<trkpt lat="46.12529" lon="7.02398"><ele></ele><time>2017-6-21T6:50:10Z</time></trkpt>
<trkpt lat="46.1253" lon="7.02398"><ele></ele><time>2017-6-21T6:50:13Z</time></trkpt>
<trkpt lat="46.12533" lon="7.02397"><ele></ele><time>2017-6-21T6:50:16Z</time></trkpt>
<trkpt lat="46.12535" lon="7.02397"><ele></ele><time>2017-6-21T6:50:19Z</time></trkpt>
<trkpt lat="46.12538" lon="7.02397"><ele></ele><time>2017-6-21T6:50:22Z</time></trkpt>
<trkpt lat="46.1254" lon="7.02396"><ele></ele><time>2017-6-21T6:50:25Z</time></trkpt>
<trkpt lat="46.12543" lon="7.02396"><ele></ele><time>2017-6-21T6:50:28Z</time></trkpt>
<trkpt lat="46.12545" lon="7.02395"><ele></ele><time>2017-6-21T6:50:31Z</time></trkpt>
<trkpt lat="46.12548" lon="7.02395"><ele></ele><time>2017-6-21T6:50:34Z</time></trkpt>
<trkpt lat="46.1255" lon="7.02395"><ele></ele><time>2017-6-21T6:50:37Z</time></trkpt>
<trkpt lat="46.12553" lon="7.02394"><ele></ele><time>2017-6-21T6:50:40Z</time></trkpt>
<trkpt lat="46.12555" lon="7.02394"><ele></ele><time>2017-6-21T6:50:43Z</time></trkpt>
<trkpt lat="46.12558" lon="7.02394"><ele></ele><time>2017-6-21T6:50:46Z</time></trkpt>
<trkpt lat="46.12561" lon="7.02393"><ele></ele><time>2017-6-21T6:50:49Z</time></trkpt>
<trkpt lat="46.12563" lon="7.02393"><ele></ele><time>2017-6-21T6:50:52Z</time></trkpt>
<trkpt lat="46.12564" lon="7.02393"><ele></ele><time>2017-6-21T6:50:55Z</time></trkpt>
<trkpt lat="46.12566" lon="7.02393"><ele></ele><time>2017-6-21T6:50:58Z</time></trkpt>
<trkpt lat="46.12568" lon="7.02392"><ele></ele><time>2017-6-21T6:51:1Z</time></trkpt>
<trkpt lat="46.12569" lon="7.02392"><ele></ele><time>2017-6-21T6:51:4Z</time></trkpt>
<trkpt lat="46.12571" lon="7.02391"><ele></ele><time>2017-6-21T6:51:7Z</time></trkpt>
<trkpt lat="46.12573" lon="7.0239"><ele></ele><time>2017-6-21T6:51:10Z</time></trkpt>
<trkpt lat="46.12575" lon="7.02389"><ele></ele><time>2017-6-21T6:51:13Z</time></trkpt>
<trkpt lat="46.12577" lon="7.02387"><ele></ele><time>2017-6-21T6:51:16Z</time></trkpt>
<trkpt lat="46.1258" lon="7.02386"><ele></ele><time>2017-6-21T6:51:19Z</time></trkpt>
<trkpt lat="46.12582" lon="7.02385"><ele></ele><time>2017-6-21T6:51:22Z</time></trkpt>
<trkpt lat="46.12584" lon="7.02384"><ele></ele><time>2017-6-21T6:51:25Z</time></trkpt>
<trkpt lat="46.12586" lon="7.02382"><ele></ele><time>2017-6-21T6:51:28Z</time></trkpt>
<trkpt lat="46.12589" lon="7.02381"><ele></ele><time>2017-6-21T6:51:31Z</time></trkpt>
<trkpt lat="46.1259" lon="7.0238"><ele></ele><time>2017-6-21T6:51:34Z</time></trkpt>
<trkpt lat="46.12591" lon="7.0238"><ele></ele><time>2017-6-21T6:51:37Z</time></trkpt>
<trkpt lat="46.12593" lon="7.02379"><ele></ele><time>2017-6-21T6:51:40Z</time></trkpt>
<trkpt lat="46.12595" lon="7.02377"><ele></ele><time>2017-6-21T6:51:43Z</time></trkpt>
<trkpt lat="46.12598" lon="7.02376"><ele></ele><time>2017-6-21T6:51:46Z</time></trkpt>
<trkpt lat="46.126" lon="7.02375"><ele></ele><time>2017-6-21T6:51:49Z</time></trkpt>
<trkpt lat="46.12602" lon="7.02373"><ele></ele><time>2017-6-21T6:51:52Z</time></trkpt>
<trkpt lat="46.12603" lon="7.02373"><ele></ele><time>2017-6-21T6:51:55Z</time></trkpt>
<trkpt lat="46.12604" lon="7.02372"><ele></ele><time>2017-6-21T6:51:58Z</time></trkpt>
<trkpt lat="46.12607" lon="7.02371"><ele></ele><time>2017-6-21T6:52:1Z</time></trkpt>
<trkpt lat="46.12609" lon="7.0237"><ele></ele><time>2017-6-21T6:52:4Z</time></trkpt>
<trkpt lat="46.12611" lon="7.02368"><ele></ele><time>2017-6-21T6:52:7Z</time></trkpt>
<trkpt lat="46.12612" lon="7.02368"><ele></ele><time>2017-6-21T6:52:10Z</time></trkpt>
<trkpt lat="46.12614" lon="7.02368"><ele></ele><time>2017-6-21T6:52:13Z</time></trkpt>
<trkpt lat="46.12616" lon="7.02367"><ele></ele><time>2017-6-21T6:52:16Z</time></trkpt>
<trkpt lat="46.12619" lon="7.02367"><ele></ele><time>2017-6-21T6:52:19Z</time></trkpt>
<trkpt lat="46.12621" lon="7.02366"><ele></ele><time>2017-6-21T6:52:22Z</time></trkpt>
<trkpt lat="46.12624" lon="7.02366"><ele></ele><time>2017-6-21T6:52:25Z</time></trkpt>
<trkpt lat="46.12626" lon="7.02366"><ele></ele><time>2017-6-21T6:52:28Z</time></trkpt>
<trkpt lat="46.12629" lon="7.02365"><ele></ele><time>2017-6-21T6:52:31Z</time></trkpt>
<trkpt lat="46.12631" lon="7.02365"><ele></ele><time>2017-6-21T6:52:34Z</time></trkpt>
<trkpt lat="46.12633" lon="7.02365"><ele></ele><time>2017-6-21T6:52:37Z</time></trkpt>
<trkpt lat="46.12634" lon="7.02364"><ele></ele><time>2017-6-21T6:52:40Z</time></trkpt>
<trkpt lat="46.12636" lon="7.02364"><ele></ele><time>2017-6-21T6:52:43Z</time></trkpt>
<trkpt lat="46.12639" lon="7.02364"><ele></ele><time>2017-6-21T6:52:46Z</time></trkpt>
<trkpt lat="46.12641" lon="7.02363"><ele></ele><time>2017-6-21T6:52:49Z</time></trkpt>
<trkpt lat="46.12644" lon="7.02363"><ele></ele><time>2017-6-21T6:52:52Z</time></trkpt>
<trkpt lat="46.12646" lon="7.02362"><ele></ele><time>2017-6-21T6:52:55Z</time></trkpt>
<trkpt lat="46.12649" lon="7.02362"><ele></ele><time>2017-6-21T6:52:58Z</time></trkpt>
<trkpt lat="46.12652" lon="7.02362"><ele></ele><time>2017-6-21T6:53:1Z</time></trkpt>
<trkpt lat="46.12654" lon="7.02361"><ele></ele><time>2017-6-21T6:53:4Z</time></trkpt>
<trkpt lat="46.12657" lon="7.02361"><ele></ele><time>2017-6-21T6:53:7Z</time></trkpt>
<trkpt lat="46.12658" lon="7.02361"><ele></ele><time>2017-6-21T6:53:10Z</time></trkpt>
<trkpt lat="46.12659" lon="7.02361"><ele></ele><time>2017-6-21T6:53:13Z</time></trkpt>
<trkpt lat="46.12661" lon="7.02362"><ele></ele><time>2017-6-21T6:53:16Z</time></trkpt>
<trkpt lat="46.12664" lon="7.02363"><ele></ele><time>2017-6-21T6:53:19Z</time></trkpt>
<trkpt lat="46.12666" lon="7.02364"><ele></ele><time>2017-6-21T6:53:22Z</time></trkpt>
<trkpt lat="46.12668" lon="7.02365"><ele></ele><time>2017-6-21T6:53:25Z</time></trkpt>
<trkpt lat="46.12671" lon="7.02366"><ele></ele><time>2017-6-21T6:53:28Z</time></trkpt>
<trkpt lat="46.12673" lon="7.02367"><ele></ele><time>2017-6-21T6:53:31Z</time></trkpt>
<trkpt lat="46.12675" lon="7.02368"><ele></ele><time>2017-6-21T6:53:34Z</time></trkpt>
<trkpt lat="46.12678" lon="7.02369"><ele></ele><time>2017-6-21T6:53:37Z</time></trkpt>
<trkpt lat="46.1268" lon="7.0237"><ele></ele><time>2017-6-21T6:53:40Z</time></trkpt>
<trkpt lat="46.12682" lon="7.02371"><ele></ele><time>2017-6-21T6:53:43Z</time></trkpt>
<trkpt lat="46.12684" lon="7.02372"><ele></ele><time>2017-6-21T6:53:46Z</time></trkpt>
<trkpt lat="46.12686" lon="7.02373"><ele></ele><time>2017-6-21T6:53:49Z</time></trkpt>
<trkpt lat="46.12687" lon="7.02373"><ele></ele><time>2017-6-21T6:53:52Z</time></trkpt>
<trkpt lat="46.12689" lon="7.02375"><ele></ele><time>2017-6-21T6:53:55Z</time></trkpt>
<trkpt lat="46.12691" lon="7.02376"><ele></ele><time>2017-6-21T6:53:58Z</time></trkpt>
<trkpt lat="46.12694" lon="7.02377"><ele></ele><time>2017-6-21T6:54:1Z</time></trkpt>
<trkpt lat="46.12696" lon="7.02378"><ele></ele><time>2017-6-21T6:54:4Z</time></trkpt>
<trkpt lat="46.12698" lon="7.02379"><ele></ele><time>2017-6-21T6:54:7Z</time></trkpt>
<trkpt lat="46.12701" lon="7.0238"><ele></ele><time>2017-6-21T6:54:10Z</time></trkpt>
<trkpt lat="46.12702" lon="7.0238"><ele></ele><time>2017-6-21T6:54:13Z</time></trkpt>
<trkpt lat="46.12703" lon="7.02381"><ele></ele><time>2017-6-21T6:54:16Z</time></trkpt>
<trkpt lat="46.12705" lon="7.02383"><ele></ele><time>2017-6-21T6:54:19Z</time></trkpt>
<trkpt lat="46.12707" lon="7.02385"><ele></ele><time>2017-6-21T6:54:22Z</time></trkpt>
<trkpt lat="46.12709" lon="7.02387"><ele></ele><time>2017-6-21T6:54:25Z</time></trkpt>
<trkpt lat="46.1271" lon="7.02388"><ele></ele><time>2017-6-21T6:54:28Z</time></trkpt>
<trkpt lat="46.12711" lon="7.02388"><ele></ele><time>2017-6-21T6:54:31Z</time></trkpt>
<trkpt lat="46.12713" lon="7.0239"><ele></ele><time>2017-6-21T6:54:34Z</time></trkpt>
<trkpt lat="46.12715" lon="7.02392"><ele></ele><time>2017-6-21T6:54:37Z</time></trkpt>
<trkpt lat="46.12717" lon="7.02394"><ele></ele><time>2017-6-21T6:54:40Z</time></trkpt>
<trkpt lat="46.12719" lon="7.02396"><ele></ele><time>2017-6-21T6:54:43Z</time></trkpt>
<trkpt lat="46.12722" lon="7.02397"><ele></ele><time>2017-6-21T6:54:46Z</time></trkpt>
<trkpt lat="46.12724" lon="7.02399"><ele></ele><time>2017-6-21T6:54:49Z</time></trkpt>
<trkpt lat="46.12726" lon="7.02401"><ele></ele><time>2017-6-21T6:54:52Z</time></trkpt>
<trkpt lat="46.12728" lon="7.02403"><ele></ele><time>2017-6-21T6:54:55Z</time></trkpt>
<trkpt lat="46.1273" lon="7.02405"><ele></ele><time>2017-6-21T6:54:58Z</time></trkpt>
<trkpt lat="46.12732" lon="7.02407"><ele></ele><time>2017-6-21T6:55:1Z</time></trkpt>
<trkpt lat="46.12734" lon="7.02408"><ele></ele><time>2017-6-21T6:55:4Z</time></trkpt>
<trkpt lat="46.12736" lon="7.0241"><ele></ele><time>2017-6-21T6:55:7Z</time></trkpt>
<trkpt lat="46.12738" lon="7.02412"><ele></ele><time>2017-6-21T6:55:10Z</time></trkpt>
<trkpt lat="46.1274" lon="7.02414"><ele></ele><time>2017-6-21T6:55:13Z</time></trkpt>
<trkpt lat="46.12742" lon="7.02417"><ele></ele><time>2017-6-21T6:55:16Z</time></trkpt>
<trkpt lat="46.12744" lon="7.02419"><ele></ele><time>2017-6-21T6:55:19Z</time></trkpt>
<trkpt lat="46.12746" lon="7.02422"><ele></ele><time>2017-6-21T6:55:22Z</time></trkpt>
<trkpt lat="46.12747" lon="7.02425"><ele></ele><time>2017-6-21T6:55:25Z</time></trkpt>
<trkpt lat="46.12749" lon="7.02428"><ele></ele><time>2017-6-21T6:55:28Z</time></trkpt>
<trkpt lat="46.12751" lon="7.0243"><ele></ele><time>2017-6-21T6:55:31Z</time></trkpt>
<trkpt lat="46.12753" lon="7.02433"><ele></ele><time>2017-6-21T6:55:34Z</time></trkpt>
<trkpt lat="46.12754" lon="7.02436"><ele></ele><time>2017-6-21T6:55:37Z</time></trkpt>
<trkpt lat="46.12756" lon="7.02439"><ele></ele><time>2017-6-21T6:55:40Z</time></trkpt>
<trkpt lat="46.12758" lon="7.02441"><ele></ele><time>2017-6-21T6:55:43Z</time></trkpt>
<trkpt lat="46.1276" lon="7.02444"><ele></ele><time>2017-6-21T6:55:46Z</time></trkpt>
<trkpt lat="46.12761" lon="7.02447"><ele></ele><time>2017-6-21T6:55:49Z</time></trkpt>
<trkpt lat="46.12763" lon="7.0245"><ele></ele><time>2017-6-21T6:55:52Z</time></trkpt>
<trkpt lat="46.12764" lon="7.0245"><ele></ele><time>2017-6-21T6:55:55Z</time></trkpt>
<trkpt lat="46.12765" lon="7.02449"><ele></ele><time>2017-6-21T6:55:58Z</time></trkpt>
<trkpt lat="46.12766" lon="7.02446"><ele></ele><time>2017-6-21T6:56:1Z</time></trkpt>
<trkpt lat="46.12767" lon="7.02443"><ele></ele><time>2017-6-21T6:56:4Z</time></trkpt>
<trkpt lat="46.12767" lon="7.02441"><ele></ele><time>2017-6-21T6:56:7Z</time></trkpt>
<trkpt lat="46.12766" lon="7.02439"><ele></ele><time>2017-6-21T6:56:10Z</time></trkpt>
<trkpt lat="46.12764" lon="7.02434"><ele></ele><time>2017-6-21T6:56:13Z</time></trkpt>
<trkpt lat="46.12762" lon="7.0243"><ele></ele><time>2017-6-21T6:56:16Z</time></trkpt>
<trkpt lat="46.1276" lon="7.02425"><ele></ele><time>2017-6-21T6:56:19Z</time></trkpt>
<trkpt lat="46.12759" lon="7.02421"><ele></ele><time>2017-6-21T6:56:22Z</time></trkpt>
<trkpt lat="46.12757" lon="7.02416"><ele></ele><time>2017-6-21T6:56:25Z</time></trkpt>
<trkpt lat="46.12755" lon="7.02412"><ele></ele><time>2017-6-21T6:56:28Z</time></trkpt>
<trkpt lat="46.12753" lon="7.02407"><ele></ele><time>2017-6-21T6:56:31Z</time></trkpt>
<trkpt lat="46.12751" lon="7.02403"><ele></ele><time>2017-6-21T6:56:34Z</time></trkpt>
<trkpt lat="46.12749" lon="7.02398"><ele></ele><time>2017-6-21T6:56:37Z</time></trkpt>
<trkpt lat="46.12747" lon="7.02394"><ele></ele><time>2017-6-21T6:56:40Z</time></trkpt>
<trkpt lat="46.12746" lon="7.02391"><ele></ele><time>2017-6-21T6:56:43Z</time></trkpt>
<trkpt lat="46.12745" lon="7.02389"><ele></ele><time>2017-6-21T6:56:46Z</time></trkpt>
<trkpt lat="46.12743" lon="7.02385"><ele></ele><time>2017-6-21T6:56:49Z</time></trkpt>
<trkpt lat="46.12741" lon="7.02381"><ele></ele><time>2017-6-21T6:56:52Z</time></trkpt>
<trkpt lat="46.12739" lon="7.02377"><ele></ele><time>2017-6-21T6:56:55Z</time></trkpt>
<trkpt lat="46.12738" lon="7.02373"><ele></ele><time>2017-6-21T6:56:58Z</time></trkpt>
<trkpt lat="46.12736" lon="7.02369"><ele></ele><time>2017-6-21T6:57:1Z</time></trkpt>
<trkpt lat="46.12734" lon="7.02365"><ele></ele><time>2017-6-21T6:57:4Z</time></trkpt>
<trkpt lat="46.12732" lon="7.02361"><ele></ele><time>2017-6-21T6:57:7Z</time></trkpt>
<trkpt lat="46.1273" lon="7.02357"><ele></ele><time>2017-6-21T6:57:10Z</time></trkpt>
<trkpt lat="46.12729" lon="7.02353"><ele></ele><time>2017-6-21T6:57:13Z</time></trkpt>
<trkpt lat="46.12727" lon="7.02349"><ele></ele><time>2017-6-21T6:57:16Z</time></trkpt>
<trkpt lat="46.12725" lon="7.02346"><ele></ele><time>2017-6-21T6:57:19Z</time></trkpt>
<trkpt lat="46.12723" lon="7.02342"><ele></ele><time>2017-6-21T6:57:22Z</time></trkpt>
<trkpt lat="46.12721" lon="7.02338"><ele></ele><time>2017-6-21T6:57:25Z</time></trkpt>
<trkpt lat="46.12719" lon="7.02334"><ele></ele><time>2017-6-21T6:57:28Z</time></trkpt>
<trkpt lat="46.12719" lon="7.02332"><ele></ele><time>2017-6-21T6:57:31Z</time></trkpt>
<trkpt lat="46.12717" lon="7.0233"><ele></ele><time>2017-6-21T6:57:34Z</time></trkpt>
<trkpt lat="46.12714" lon="7.02327"><ele></ele><time>2017-6-21T6:57:37Z</time></trkpt>
<trkpt lat="46.12711" lon="7.02325"><ele></ele><time>2017-6-21T6:57:40Z</time></trkpt>
<trkpt lat="46.12709" lon="7.02322"><ele></ele><time>2017-6-21T6:57:43Z</time></trkpt>
<trkpt lat="46.12706" lon="7.02319"><ele></ele><time>2017-6-21T6:57:46Z</time></trkpt>
<trkpt lat="46.12703" lon="7.02316"><ele></ele><time>2017-6-21T6:57:49Z</time></trkpt>
<trkpt lat="46.127" lon="7.02313"><ele></ele><time>2017-6-21T6:57:52Z</time></trkpt>
<trkpt lat="46.12697" lon="7.0231"><ele></ele><time>2017-6-21T6:57:55Z</time></trkpt>
<trkpt lat="46.12696" lon="7.02309"><ele></ele><time>2017-6-21T6:57:58Z</time></trkpt>
<trkpt lat="46.12694" lon="7.02307"><ele></ele><time>2017-6-21T6:58:1Z</time></trkpt>
<trkpt lat="46.12691" lon="7.02305"><ele></ele><time>2017-6-21T6:58:4Z</time></trkpt>
<trkpt lat="46.12688" lon="7.02302"><ele></ele><time>2017-6-21T6:58:7Z</time></trkpt>
<trkpt lat="46.12686" lon="7.02299"><ele></ele><time>2017-6-21T6:58:10Z</time></trkpt>
<trkpt lat="46.12683" lon="7.02296"><ele></ele><time>2017-6-21T6:58:13Z</time></trkpt>
<trkpt lat="46.1268" lon="7.02293"><ele></ele><time>2017-6-21T6:58:16Z</time></trkpt>
<trkpt lat="46.12677" lon="7.0229"><ele></ele><time>2017-6-21T6:58:19Z</time></trkpt>
<trkpt lat="46.12674" lon="7.02287"><ele></ele><time>2017-6-21T6:58:22Z</time></trkpt>
<trkpt lat="46.12671" lon="7.02284"><ele></ele><time>2017-6-21T6:58:25Z</time></trkpt>
<trkpt lat="46.12668" lon="7.02281"><ele></ele><time>2017-6-21T6:58:28Z</time></trkpt>
<trkpt lat="46.12665" lon="7.02278"><ele></ele><time>2017-6-21T6:58:31Z</time></trkpt>
<trkpt lat="46.12662" lon="7.02275"><ele></ele><time>2017-6-21T6:58:34Z</time></trkpt>
<trkpt lat="46.12659" lon="7.02272"><ele></ele><time>2017-6-21T6:58:37Z</time></trkpt>
<trkpt lat="46.12656" lon="7.02269"><ele></ele><time>2017-6-21T6:58:40Z</time></trkpt>
<trkpt lat="46.12653" lon="7.02266"><ele></ele><time>2017-6-21T6:58:43Z</time></trkpt>
<trkpt lat="46.1265" lon="7.02263"><ele></ele><time>2017-6-21T6:58:46Z</time></trkpt>
<trkpt lat="46.12647" lon="7.0226"><ele></ele><time>2017-6-21T6:58:49Z</time></trkpt>
<trkpt lat="46.12644" lon="7.02257"><ele></ele><time>2017-6-21T6:58:52Z</time></trkpt>
<trkpt lat="46.12642" lon="7.02256"><ele></ele><time>2017-6-21T6:58:55Z</time></trkpt>
<trkpt lat="46.12641" lon="7.02256"><ele></ele><time>2017-6-21T6:58:58Z</time></trkpt>
<trkpt lat="46.12637" lon="7.02256"><ele></ele><time>2017-6-21T6:59:1Z</time></trkpt>
<trkpt lat="46.12634" lon="7.02256"><ele></ele><time>2017-6-21T6:59:4Z</time></trkpt>
<trkpt lat="46.12631" lon="7.02256"><ele></ele><time>2017-6-21T6:59:7Z</time></trkpt>
<trkpt lat="46.12627" lon="7.02256"><ele></ele><time>2017-6-21T6:59:10Z</time></trkpt>
<trkpt lat="46.12624" lon="7.02257"><ele></ele><time>2017-6-21T6:59:13Z</time></trkpt>
<trkpt lat="46.12621" lon="7.02257"><ele></ele><time>2017-6-21T6:59:16Z</time></trkpt>
<trkpt lat="46.12617" lon="7.02257"><ele></ele><time>2017-6-21T6:59:19Z</time></trkpt>
<trkpt lat="46.12614" lon="7.02257"><ele></ele><time>2017-6-21T6:59:22Z</time></trkpt>
<trkpt lat="46.12611" lon="7.02257"><ele></ele><time>2017-6-21T6:59:25Z</time></trkpt>
<trkpt lat="46.12607" lon="7.02257"><ele></ele><time>2017-6-21T6:59:28Z</time></trkpt>
<trkpt lat="46.12604" lon="7.02257"><ele></ele><time>2017-6-21T6:59:31Z</time></trkpt>
<trkpt lat="46.12601" lon="7.02257"><ele></ele><time>2017-6-21T6:59:34Z</time></trkpt>
<trkpt lat="46.12597" lon="7.02257"><ele></ele><time>2017-6-21T6:59:37Z</time></trkpt>
<trkpt lat="46.12594" lon="7.02257"><ele></ele><time>2017-6-21T6:59:40Z</time></trkpt>
<trkpt lat="46.12591" lon="7.02256"><ele></ele><time>2017-6-21T6:59:43Z</time></trkpt>
<trkpt lat="46.12587" lon="7.02256"><ele></ele><time>2017-6-21T6:59:46Z</time></trkpt>
<trkpt lat="46.12584" lon="7.02255"><ele></ele><time>2017-6-21T6:59:49Z</time></trkpt>
<trkpt lat="46.1258" lon="7.02255"><ele></ele><time>2017-6-21T6:59:52Z</time></trkpt>
<trkpt lat="46.12577" lon="7.02254"><ele></ele><time>2017-6-21T6:59:55Z</time></trkpt>
<trkpt lat="46.12561" lon="7.02224"><ele></ele><time>2017-6-21T6:59:58Z</time></trkpt>
<trkpt lat="46.12561" lon="7.02224"><ele></ele><time>2017-6-21T7:0:1Z</time></trkpt>
<trkpt lat="46.12549" lon="7.02194"><ele></ele><time>2017-6-21T7:0:4Z</time></trkpt>
<trkpt lat="46.12549" lon="7.02194"><ele></ele><time>2017-6-21T7:0:7Z</time></trkpt>
<trkpt lat="46.12549" lon="7.02194"><ele></ele><time>2017-6-21T7:0:10Z</time></trkpt>
<trkpt lat="46.12549" lon="7.02193"><ele></ele><time>2017-6-21T7:0:13Z</time></trkpt>
<trkpt lat="46.12549" lon="7.02193"><ele></ele><time>2017-6-21T7:0:16Z</time></trkpt>
<trkpt lat="46.12548" lon="7.02193"><ele></ele><time>2017-6-21T7:0:19Z</time></trkpt>
<trkpt lat="46.12548" lon="7.02193"><ele></ele><time>2017-6-21T7:0:22Z</time></trkpt>
<trkpt lat="46.12548" lon="7.02193"><ele></ele><time>2017-6-21T7:0:25Z</time></trkpt>
<trkpt lat="46.12548" lon="7.02192"><ele></ele><time>2017-6-21T7:0:28Z</time></trkpt>
<trkpt lat="46.12548" lon="7.02192"><ele></ele><time>2017-6-21T7:0:31Z</time></trkpt>
<trkpt lat="46.12548" lon="7.02192"><ele></ele><time>2017-6-21T7:0:34Z</time></trkpt>
<trkpt lat="46.12546" lon="7.02191"><ele></ele><time>2017-6-21T7:0:37Z</time></trkpt>
<trkpt lat="46.12544" lon="7.02188"><ele></ele><time>2017-6-21T7:0:40Z</time></trkpt>
<trkpt lat="46.12541" lon="7.02185"><ele></ele><time>2017-6-21T7:0:43Z</time></trkpt>
<trkpt lat="46.12538" lon="7.02183"><ele></ele><time>2017-6-21T7:0:46Z</time></trkpt>
<trkpt lat="46.12535" lon="7.0218"><ele></ele><time>2017-6-21T7:0:49Z</time></trkpt>
<trkpt lat="46.12532" lon="7.02178"><ele></ele><time>2017-6-21T7:0:52Z</time></trkpt>
<trkpt lat="46.1253" lon="7.02175"><ele></ele><time>2017-6-21T7:0:55Z</time></trkpt>
<trkpt lat="46.12528" lon="7.02174"><ele></ele><time>2017-6-21T7:0:58Z</time></trkpt>
<trkpt lat="46.12527" lon="7.02173"><ele></ele><time>2017-6-21T7:1:1Z</time></trkpt>
<trkpt lat="46.12524" lon="7.0217"><ele></ele><time>2017-6-21T7:1:4Z</time></trkpt>
<trkpt lat="46.12521" lon="7.02168"><ele></ele><time>2017-6-21T7:1:7Z</time></trkpt>
<trkpt lat="46.12518" lon="7.02165"><ele></ele><time>2017-6-21T7:1:10Z</time></trkpt>
<trkpt lat="46.12516" lon="7.02163"><ele></ele><time>2017-6-21T7:1:13Z</time></trkpt>
<trkpt lat="46.12513" lon="7.0216"><ele></ele><time>2017-6-21T7:1:16Z</time></trkpt>
<trkpt lat="46.1251" lon="7.02158"><ele></ele><time>2017-6-21T7:1:19Z</time></trkpt>
<trkpt lat="46.12508" lon="7.02157"><ele></ele><time>2017-6-21T7:1:22Z</time></trkpt>
<trkpt lat="46.12507" lon="7.02156"><ele></ele><time>2017-6-21T7:1:25Z</time></trkpt>
<trkpt lat="46.12504" lon="7.02153"><ele></ele><time>2017-6-21T7:1:28Z</time></trkpt>
<trkpt lat="46.12502" lon="7.02152"><ele></ele><time>2017-6-21T7:1:31Z</time></trkpt>
<trkpt lat="46.12501" lon="7.02151"><ele></ele><time>2017-6-21T7:1:34Z</time></trkpt>
<trkpt lat="46.12498" lon="7.02149"><ele></ele><time>2017-6-21T7:1:37Z</time></trkpt>
<trkpt lat="46.12495" lon="7.02147"><ele></ele><time>2017-6-21T7:1:40Z</time></trkpt>
<trkpt lat="46.12491" lon="7.02145"><ele></ele><time>2017-6-21T7:1:43Z</time></trkpt>
<trkpt lat="46.12488" lon="7.02143"><ele></ele><time>2017-6-21T7:1:46Z</time></trkpt>
<trkpt lat="46.12485" lon="7.02141"><ele></ele><time>2017-6-21T7:1:49Z</time></trkpt>
<trkpt lat="46.12482" lon="7.02139"><ele></ele><time>2017-6-21T7:1:52Z</time></trkpt>
<trkpt lat="46.12479" lon="7.02137"><ele></ele><time>2017-6-21T7:1:55Z</time></trkpt>
<trkpt lat="46.12478" lon="7.02136"><ele></ele><time>2017-6-21T7:1:58Z</time></trkpt>
<trkpt lat="46.12476" lon="7.02134"><ele></ele><time>2017-6-21T7:2:1Z</time></trkpt>
<trkpt lat="46.12473" lon="7.02132"><ele></ele><time>2017-6-21T7:2:4Z</time></trkpt>
<trkpt lat="46.1247" lon="7.0213"><ele></ele><time>2017-6-21T7:2:7Z</time></trkpt>
<trkpt lat="46.12467" lon="7.02128"><ele></ele><time>2017-6-21T7:2:10Z</time></trkpt>
<trkpt lat="46.12464" lon="7.02125"><ele></ele><time>2017-6-21T7:2:13Z</time></trkpt>
<trkpt lat="46.12462" lon="7.02122"><ele></ele><time>2017-6-21T7:2:16Z</time></trkpt>
<trkpt lat="46.12459" lon="7.0212"><ele></ele><time>2017-6-21T7:2:19Z</time></trkpt>
<trkpt lat="46.12457" lon="7.02117"><ele></ele><time>2017-6-21T7:2:22Z</time></trkpt>
<trkpt lat="46.12454" lon="7.02114"><ele></ele><time>2017-6-21T7:2:25Z</time></trkpt>
<trkpt lat="46.12452" lon="7.02111"><ele></ele><time>2017-6-21T7:2:28Z</time></trkpt>
<trkpt lat="46.12449" lon="7.02108"><ele></ele><time>2017-6-21T7:2:31Z</time></trkpt>
<trkpt lat="46.12447" lon="7.02106"><ele></ele><time>2017-6-21T7:2:34Z</time></trkpt>
<trkpt lat="46.12444" lon="7.02103"><ele></ele><time>2017-6-21T7:2:37Z</time></trkpt>
<trkpt lat="46.12442" lon="7.021"><ele></ele><time>2017-6-21T7:2:40Z</time></trkpt>
<trkpt lat="46.12439" lon="7.02097"><ele></ele><time>2017-6-21T7:2:43Z</time></trkpt>
<trkpt lat="46.12437" lon="7.02094"><ele></ele><time>2017-6-21T7:2:46Z</time></trkpt>
<trkpt lat="46.12434" lon="7.02092"><ele></ele><time>2017-6-21T7:2:49Z</time></trkpt>
<trkpt lat="46.12432" lon="7.02089"><ele></ele><time>2017-6-21T7:2:52Z</time></trkpt>
<trkpt lat="46.12431" lon="7.02087"><ele></ele><time>2017-6-21T7:2:55Z</time></trkpt>
<trkpt lat="46.12429" lon="7.02086"><ele></ele><time>2017-6-21T7:2:58Z</time></trkpt>
<trkpt lat="46.12426" lon="7.02083"><ele></ele><time>2017-6-21T7:3:1Z</time></trkpt>
<trkpt lat="46.12424" lon="7.0208"><ele></ele><time>2017-6-21T7:3:4Z</time></trkpt>
<trkpt lat="46.12421" lon="7.02077"><ele></ele><time>2017-6-21T7:3:7Z</time></trkpt>
<trkpt lat="46.12418" lon="7.02074"><ele></ele><time>2017-6-21T7:3:10Z</time></trkpt>
<trkpt lat="46.12415" lon="7.0207"><ele></ele><time>2017-6-21T7:3:13Z</time></trkpt>
<trkpt lat="46.12412" lon="7.02067"><ele></ele><time>2017-6-21T7:3:16Z</time></trkpt>
<trkpt lat="46.1241" lon="7.02064"><ele></ele><time>2017-6-21T7:3:19Z</time></trkpt>
<trkpt lat="46.12407" lon="7.02061"><ele></ele><time>2017-6-21T7:3:22Z</time></trkpt>
<trkpt lat="46.12404" lon="7.02058"><ele></ele><time>2017-6-21T7:3:25Z</time></trkpt>
<trkpt lat="46.12401" lon="7.02055"><ele></ele><time>2017-6-21T7:3:28Z</time></trkpt>
<trkpt lat="46.12398" lon="7.02052"><ele></ele><time>2017-6-21T7:3:31Z</time></trkpt>
<trkpt lat="46.12395" lon="7.02049"><ele></ele><time>2017-6-21T7:3:34Z</time></trkpt>
<trkpt lat="46.12394" lon="7.02047"><ele></ele><time>2017-6-21T7:3:37Z</time></trkpt>
<trkpt lat="46.12393" lon="7.02045"><ele></ele><time>2017-6-21T7:3:40Z</time></trkpt>
<trkpt lat="46.1239" lon="7.02042"><ele></ele><time>2017-6-21T7:3:43Z</time></trkpt>
<trkpt lat="46.12389" lon="7.0204"><ele></ele><time>2017-6-21T7:3:46Z</time></trkpt>
<trkpt lat="46.12388" lon="7.02038"><ele></ele><time>2017-6-21T7:3:49Z</time></trkpt>
<trkpt lat="46.12386" lon="7.02035"><ele></ele><time>2017-6-21T7:3:52Z</time></trkpt>
<trkpt lat="46.12383" lon="7.02031"><ele></ele><time>2017-6-21T7:3:55Z</time></trkpt>
<trkpt lat="46.12381" lon="7.02028"><ele></ele><time>2017-6-21T7:3:58Z</time></trkpt>
<trkpt lat="46.12378" lon="7.02024"><ele></ele><time>2017-6-21T7:4:1Z</time></trkpt>
<trkpt lat="46.12376" lon="7.02021"><ele></ele><time>2017-6-21T7:4:4Z</time></trkpt>
<trkpt lat="46.12374" lon="7.02017"><ele></ele><time>2017-6-21T7:4:7Z</time></trkpt>
<trkpt lat="46.12371" lon="7.02014"><ele></ele><time>2017-6-21T7:4:10Z</time></trkpt>
<trkpt lat="46.12369" lon="7.0201"><ele></ele><time>2017-6-21T7:4:13Z</time></trkpt>
<trkpt lat="46.12366" lon="7.02006"><ele></ele><time>2017-6-21T7:4:16Z</time></trkpt>
<trkpt lat="46.12365" lon="7.02005"><ele></ele><time>2017-6-21T7:4:19Z</time></trkpt>
<trkpt lat="46.12364" lon="7.02003"><ele></ele><time>2017-6-21T7:4:22Z</time></trkpt>
<trkpt lat="46.12361" lon="7.01999"><ele></ele><time>2017-6-21T7:4:25Z</time></trkpt>
<trkpt lat="46.12359" lon="7.01995"><ele></ele><time>2017-6-21T7:4:28Z</time></trkpt>
<trkpt lat="46.12357" lon="7.01991"><ele></ele><time>2017-6-21T7:4:31Z</time></trkpt>
<trkpt lat="46.12355" lon="7.01987"><ele></ele><time>2017-6-21T7:4:34Z</time></trkpt>
<trkpt lat="46.12353" lon="7.01983"><ele></ele><time>2017-6-21T7:4:37Z</time></trkpt>
<trkpt lat="46.12351" lon="7.01979"><ele></ele><time>2017-6-21T7:4:40Z</time></trkpt>
<trkpt lat="46.12349" lon="7.01976"><ele></ele><time>2017-6-21T7:4:43Z</time></trkpt>
<trkpt lat="46.12347" lon="7.01972"><ele></ele><time>2017-6-21T7:4:46Z</time></trkpt>
<trkpt lat="46.12345" lon="7.01968"><ele></ele><time>2017-6-21T7:4:49Z</time></trkpt>
<trkpt lat="46.12343" lon="7.01964"><ele></ele><time>2017-6-21T7:4:52Z</time></trkpt>
<trkpt lat="46.12342" lon="7.01962"><ele></ele><time>2017-6-21T7:4:55Z</time></trkpt>
<trkpt lat="46.12341" lon="7.0196"><ele></ele><time>2017-6-21T7:4:58Z</time></trkpt>
<trkpt lat="46.12339" lon="7.01956"><ele></ele><time>2017-6-21T7:5:1Z</time></trkpt>
<trkpt lat="46.12337" lon="7.01952"><ele></ele><time>2017-6-21T7:5:4Z</time></trkpt>
<trkpt lat="46.12335" lon="7.01948"><ele></ele><time>2017-6-21T7:5:7Z</time></trkpt>
<trkpt lat="46.12334" lon="7.01946"><ele></ele><time>2017-6-21T7:5:10Z</time></trkpt>
<trkpt lat="46.12333" lon="7.01943"><ele></ele><time>2017-6-21T7:5:13Z</time></trkpt>
<trkpt lat="46.12331" lon="7.01939"><ele></ele><time>2017-6-21T7:5:16Z</time></trkpt>
<trkpt lat="46.12329" lon="7.01935"><ele></ele><time>2017-6-21T7:5:19Z</time></trkpt>
<trkpt lat="46.12327" lon="7.0193"><ele></ele><time>2017-6-21T7:5:22Z</time></trkpt>
<trkpt lat="46.12325" lon="7.01926"><ele></ele><time>2017-6-21T7:5:25Z</time></trkpt>
<trkpt lat="46.12323" lon="7.01921"><ele></ele><time>2017-6-21T7:5:28Z</time></trkpt>
<trkpt lat="46.12321" lon="7.01917"><ele></ele><time>2017-6-21T7:5:31Z</time></trkpt>
<trkpt lat="46.1232" lon="7.01915"><ele></ele><time>2017-6-21T7:5:34Z</time></trkpt>
<trkpt lat="46.12319" lon="7.01913"><ele></ele><time>2017-6-21T7:5:37Z</time></trkpt>
<trkpt lat="46.12317" lon="7.01908"><ele></ele><time>2017-6-21T7:5:40Z</time></trkpt>
<trkpt lat="46.12315" lon="7.01904"><ele></ele><time>2017-6-21T7:5:43Z</time></trkpt>
<trkpt lat="46.12313" lon="7.01899"><ele></ele><time>2017-6-21T7:5:46Z</time></trkpt>
<trkpt lat="46.12311" lon="7.01895"><ele></ele><time>2017-6-21T7:5:49Z</time></trkpt>
<trkpt lat="46.12309" lon="7.01891"><ele></ele><time>2017-6-21T7:5:52Z</time></trkpt>
<trkpt lat="46.12308" lon="7.01886"><ele></ele><time>2017-6-21T7:5:55Z</time></trkpt>
<trkpt lat="46.12306" lon="7.01881"><ele></ele><time>2017-6-21T7:5:58Z</time></trkpt>
<trkpt lat="46.12304" lon="7.01877"><ele></ele><time>2017-6-21T7:6:1Z</time></trkpt>
<trkpt lat="46.12303" lon="7.01872"><ele></ele><time>2017-6-21T7:6:4Z</time></trkpt>
<trkpt lat="46.12301" lon="7.01867"><ele></ele><time>2017-6-21T7:6:7Z</time></trkpt>
<trkpt lat="46.12299" lon="7.01863"><ele></ele><time>2017-6-21T7:6:10Z</time></trkpt>
<trkpt lat="46.12298" lon="7.01858"><ele></ele><time>2017-6-21T7:6:13Z</time></trkpt>
<trkpt lat="46.12296" lon="7.01853"><ele></ele><time>2017-6-21T7:6:16Z</time></trkpt>
<trkpt lat="46.12294" lon="7.01849"><ele></ele><time>2017-6-21T7:6:19Z</time></trkpt>
<trkpt lat="46.12293" lon="7.01844"><ele></ele><time>2017-6-21T7:6:22Z</time></trkpt>
<trkpt lat="46.12291" lon="7.01839"><ele></ele><time>2017-6-21T7:6:25Z</time></trkpt>
<trkpt lat="46.1229" lon="7.01837"><ele></ele><time>2017-6-21T7:6:28Z</time></trkpt>
<trkpt lat="46.1229" lon="7.01835"><ele></ele><time>2017-6-21T7:6:31Z</time></trkpt>
<trkpt lat="46.12289" lon="7.01832"><ele></ele><time>2017-6-21T7:6:34Z</time></trkpt>
<trkpt lat="46.12288" lon="7.0183"><ele></ele><time>2017-6-21T7:6:37Z</time></trkpt>
<trkpt lat="46.12287" lon="7.01826"><ele></ele><time>2017-6-21T7:6:40Z</time></trkpt>
<trkpt lat="46.12286" lon="7.01822"><ele></ele><time>2017-6-21T7:6:43Z</time></trkpt>
<trkpt lat="46.12285" lon="7.01817"><ele></ele><time>2017-6-21T7:6:46Z</time></trkpt>
<trkpt lat="46.12284" lon="7.01813"><ele></ele><time>2017-6-21T7:6:49Z</time></trkpt>
<trkpt lat="46.12283" lon="7.01809"><ele></ele><time>2017-6-21T7:6:52Z</time></trkpt>
<trkpt lat="46.12281" lon="7.01804"><ele></ele><time>2017-6-21T7:6:55Z</time></trkpt>
<trkpt lat="46.1228" lon="7.018"><ele></ele><time>2017-6-21T7:6:58Z</time></trkpt>
<trkpt lat="46.12279" lon="7.01796"><ele></ele><time>2017-6-21T7:7:1Z</time></trkpt>
<trkpt lat="46.12278" lon="7.01791"><ele></ele><time>2017-6-21T7:7:4Z</time></trkpt>
<trkpt lat="46.12277" lon="7.01789"><ele></ele><time>2017-6-21T7:7:7Z</time></trkpt>
<trkpt lat="46.12275" lon="7.01787"><ele></ele><time>2017-6-21T7:7:10Z</time></trkpt>
<trkpt lat="46.12271" lon="7.01784"><ele></ele><time>2017-6-21T7:7:13Z</time></trkpt>
<trkpt lat="46.12267" lon="7.0178"><ele></ele><time>2017-6-21T7:7:16Z</time></trkpt>
<trkpt lat="46.12264" lon="7.01776"><ele></ele><time>2017-6-21T7:7:19Z</time></trkpt>
<trkpt lat="46.1226" lon="7.01772"><ele></ele><time>2017-6-21T7:7:22Z</time></trkpt>
<trkpt lat="46.12256" lon="7.01768"><ele></ele><time>2017-6-21T7:7:25Z</time></trkpt>
<trkpt lat="46.12252" lon="7.01764"><ele></ele><time>2017-6-21T7:7:28Z</time></trkpt>
<trkpt lat="46.12248" lon="7.0176"><ele></ele><time>2017-6-21T7:7:31Z</time></trkpt>
<trkpt lat="46.12244" lon="7.01757"><ele></ele><time>2017-6-21T7:7:34Z</time></trkpt>
<trkpt lat="46.12241" lon="7.01753"><ele></ele><time>2017-6-21T7:7:37Z</time></trkpt>
<trkpt lat="46.12238" lon="7.01751"><ele></ele><time>2017-6-21T7:7:40Z</time></trkpt>
<trkpt lat="46.12235" lon="7.0175"><ele></ele><time>2017-6-21T7:7:43Z</time></trkpt>
<trkpt lat="46.12233" lon="7.01749"><ele></ele><time>2017-6-21T7:7:46Z</time></trkpt>
<trkpt lat="46.1223" lon="7.01747"><ele></ele><time>2017-6-21T7:7:49Z</time></trkpt>
<trkpt lat="46.12228" lon="7.01746"><ele></ele><time>2017-6-21T7:7:52Z</time></trkpt>
<trkpt lat="46.12225" lon="7.01745"><ele></ele><time>2017-6-21T7:7:55Z</time></trkpt>
<trkpt lat="46.12222" lon="7.01743"><ele></ele><time>2017-6-21T7:7:58Z</time></trkpt>
<trkpt lat="46.1222" lon="7.01742"><ele></ele><time>2017-6-21T7:8:1Z</time></trkpt>
<trkpt lat="46.12217" lon="7.0174"><ele></ele><time>2017-6-21T7:8:4Z</time></trkpt>
<trkpt lat="46.12215" lon="7.01739"><ele></ele><time>2017-6-21T7:8:7Z</time></trkpt>
<trkpt lat="46.12212" lon="7.01738"><ele></ele><time>2017-6-21T7:8:10Z</time></trkpt>
<trkpt lat="46.12209" lon="7.01736"><ele></ele><time>2017-6-21T7:8:13Z</time></trkpt>
<trkpt lat="46.12207" lon="7.01735"><ele></ele><time>2017-6-21T7:8:16Z</time></trkpt>
<trkpt lat="46.12204" lon="7.01734"><ele></ele><time>2017-6-21T7:8:19Z</time></trkpt>
<trkpt lat="46.12202" lon="7.01732"><ele></ele><time>2017-6-21T7:8:22Z</time></trkpt>
<trkpt lat="46.12199" lon="7.01731"><ele></ele><time>2017-6-21T7:8:25Z</time></trkpt>
<trkpt lat="46.12196" lon="7.01729"><ele></ele><time>2017-6-21T7:8:28Z</time></trkpt>
<trkpt lat="46.12189" lon="7.01723"><ele></ele><time>2017-6-21T7:8:31Z</time></trkpt>
<trkpt lat="46.12183" lon="7.01716"><ele></ele><time>2017-6-21T7:8:34Z</time></trkpt>
<trkpt lat="46.12177" lon="7.0171"><ele></ele><time>2017-6-21T7:8:37Z</time></trkpt>
<trkpt lat="46.1217" lon="7.01704"><ele></ele><time>2017-6-21T7:8:40Z</time></trkpt>
<trkpt lat="46.12164" lon="7.01698"><ele></ele><time>2017-6-21T7:8:43Z</time></trkpt>
<trkpt lat="46.12157" lon="7.01691"><ele></ele><time>2017-6-21T7:8:46Z</time></trkpt>
<trkpt lat="46.12149" lon="7.01683"><ele></ele><time>2017-6-21T7:8:49Z</time></trkpt>
<trkpt lat="46.12141" lon="7.01675"><ele></ele><time>2017-6-21T7:8:52Z</time></trkpt>
<trkpt lat="46.12133" lon="7.01667"><ele></ele><time>2017-6-21T7:8:55Z</time></trkpt>
<trkpt lat="46.12125" lon="7.01659"><ele></ele><time>2017-6-21T7:8:58Z</time></trkpt>
<trkpt lat="46.12116" lon="7.01651"><ele></ele><time>2017-6-21T7:9:1Z</time></trkpt>
<trkpt lat="46.12106" lon="7.01644"><ele></ele><time>2017-6-21T7:9:4Z</time></trkpt>
<trkpt lat="46.12095" lon="7.01637"><ele></ele><time>2017-6-21T7:9:7Z</time></trkpt>
<trkpt lat="46.12085" lon="7.0163"><ele></ele><time>2017-6-21T7:9:10Z</time></trkpt>
<trkpt lat="46.12075" lon="7.01623"><ele></ele><time>2017-6-21T7:9:13Z</time></trkpt>
<trkpt lat="46.1207" lon="7.01619"><ele></ele><time>2017-6-21T7:9:16Z</time></trkpt>
<trkpt lat="46.12064" lon="7.01614"><ele></ele><time>2017-6-21T7:9:19Z</time></trkpt>
<trkpt lat="46.12054" lon="7.01605"><ele></ele><time>2017-6-21T7:9:22Z</time></trkpt>
<trkpt lat="46.12044" lon="7.01597"><ele></ele><time>2017-6-21T7:9:25Z</time></trkpt>
<trkpt lat="46.12033" lon="7.01588"><ele></ele><time>2017-6-21T7:9:28Z</time></trkpt>
<trkpt lat="46.12028" lon="7.01584"><ele></ele><time>2017-6-21T7:9:31Z</time></trkpt>
<trkpt lat="46.12023" lon="7.01583"><ele></ele><time>2017-6-21T7:9:34Z</time></trkpt>
<trkpt lat="46.12014" lon="7.0158"><ele></ele><time>2017-6-21T7:9:37Z</time></trkpt>
<trkpt lat="46.12004" lon="7.01577"><ele></ele><time>2017-6-21T7:9:40Z</time></trkpt>
<trkpt lat="46.11994" lon="7.01575"><ele></ele><time>2017-6-21T7:9:43Z</time></trkpt>
<trkpt lat="46.11989" lon="7.01572"><ele></ele><time>2017-6-21T7:9:46Z</time></trkpt>
<trkpt lat="46.11984" lon="7.01569"><ele></ele><time>2017-6-21T7:9:49Z</time></trkpt>
<trkpt lat="46.1198" lon="7.01564"><ele></ele><time>2017-6-21T7:9:52Z</time></trkpt>
<trkpt lat="46.11975" lon="7.01557"><ele></ele><time>2017-6-21T7:9:55Z</time></trkpt>
<trkpt lat="46.11967" lon="7.01543"><ele></ele><time>2017-6-21T7:9:58Z</time></trkpt>
<trkpt lat="46.11958" lon="7.01529"><ele></ele><time>2017-6-21T7:10:1Z</time></trkpt>
<trkpt lat="46.11952" lon="7.01522"><ele></ele><time>2017-6-21T7:10:4Z</time></trkpt>
<trkpt lat="46.11943" lon="7.01515"><ele></ele><time>2017-6-21T7:10:7Z</time></trkpt>
<trkpt lat="46.11925" lon="7.01501"><ele></ele><time>2017-6-21T7:10:10Z</time></trkpt>
<trkpt lat="46.11907" lon="7.01487"><ele></ele><time>2017-6-21T7:10:13Z</time></trkpt>
<trkpt lat="46.11887" lon="7.01472"><ele></ele><time>2017-6-21T7:10:16Z</time></trkpt>
<trkpt lat="46.11877" lon="7.01465"><ele></ele><time>2017-6-21T7:10:19Z</time></trkpt>
<trkpt lat="46.11867" lon="7.01458"><ele></ele><time>2017-6-21T7:10:22Z</time></trkpt>
<trkpt lat="46.11857" lon="7.01451"><ele></ele><time>2017-6-21T7:10:25Z</time></trkpt>
<trkpt lat="46.11847" lon="7.01442"><ele></ele><time>2017-6-21T7:10:28Z</time></trkpt>
<trkpt lat="46.11827" lon="7.01425"><ele></ele><time>2017-6-21T7:10:31Z</time></trkpt>
<trkpt lat="46.11818" lon="7.01417"><ele></ele><time>2017-6-21T7:10:34Z</time></trkpt>
<trkpt lat="46.1181" lon="7.01407"><ele></ele><time>2017-6-21T7:10:37Z</time></trkpt>
<trkpt lat="46.11794" lon="7.01389"><ele></ele><time>2017-6-21T7:10:40Z</time></trkpt>
<trkpt lat="46.11779" lon="7.0137"><ele></ele><time>2017-6-21T7:10:43Z</time></trkpt>
<trkpt lat="46.11764" lon="7.0135"><ele></ele><time>2017-6-21T7:10:46Z</time></trkpt>
<trkpt lat="46.11749" lon="7.0133"><ele></ele><time>2017-6-21T7:10:49Z</time></trkpt>
<trkpt lat="46.11741" lon="7.01321"><ele></ele><time>2017-6-21T7:10:52Z</time></trkpt>
<trkpt lat="46.11732" lon="7.01312"><ele></ele><time>2017-6-21T7:10:55Z</time></trkpt>
<trkpt lat="46.11714" lon="7.01296"><ele></ele><time>2017-6-21T7:10:58Z</time></trkpt>
<trkpt lat="46.11697" lon="7.01284"><ele></ele><time>2017-6-21T7:11:1Z</time></trkpt>
<trkpt lat="46.11689" lon="7.01279"><ele></ele><time>2017-6-21T7:11:4Z</time></trkpt>
<trkpt lat="46.11681" lon="7.01273"><ele></ele><time>2017-6-21T7:11:7Z</time></trkpt>
<trkpt lat="46.11662" lon="7.01265"><ele></ele><time>2017-6-21T7:11:10Z</time></trkpt>
<trkpt lat="46.11642" lon="7.01257"><ele></ele><time>2017-6-21T7:11:13Z</time></trkpt>
<trkpt lat="46.11633" lon="7.01253"><ele></ele><time>2017-6-21T7:11:16Z</time></trkpt>
<trkpt lat="46.11624" lon="7.0125"><ele></ele><time>2017-6-21T7:11:19Z</time></trkpt>
<trkpt lat="46.11615" lon="7.01247"><ele></ele><time>2017-6-21T7:11:22Z</time></trkpt>
<trkpt lat="46.11606" lon="7.01245"><ele></ele><time>2017-6-21T7:11:25Z</time></trkpt>
<trkpt lat="46.11589" lon="7.01241"><ele></ele><time>2017-6-21T7:11:28Z</time></trkpt>
<trkpt lat="46.1158" lon="7.01239"><ele></ele><time>2017-6-21T7:11:31Z</time></trkpt>
<trkpt lat="46.11571" lon="7.01238"><ele></ele><time>2017-6-21T7:11:34Z</time></trkpt>
<trkpt lat="46.11549" lon="7.01242"><ele></ele><time>2017-6-21T7:11:37Z</time></trkpt>
<trkpt lat="46.11528" lon="7.01243"><ele></ele><time>2017-6-21T7:11:40Z</time></trkpt>
<trkpt lat="46.11518" lon="7.01239"><ele></ele><time>2017-6-21T7:11:43Z</time></trkpt>
<trkpt lat="46.11507" lon="7.01235"><ele></ele><time>2017-6-21T7:11:46Z</time></trkpt>
<trkpt lat="46.11486" lon="7.01227"><ele></ele><time>2017-6-21T7:11:49Z</time></trkpt>
<trkpt lat="46.11459" lon="7.01234"><ele></ele><time>2017-6-21T7:11:52Z</time></trkpt>
<trkpt lat="46.11445" lon="7.01238"><ele></ele><time>2017-6-21T7:11:55Z</time></trkpt>
<trkpt lat="46.11432" lon="7.01242"><ele></ele><time>2017-6-21T7:11:58Z</time></trkpt>
<trkpt lat="46.1141" lon="7.01246"><ele></ele><time>2017-6-21T7:12:1Z</time></trkpt>
<trkpt lat="46.1139" lon="7.01243"><ele></ele><time>2017-6-21T7:12:4Z</time></trkpt>
<trkpt lat="46.1138" lon="7.01241"><ele></ele><time>2017-6-21T7:12:7Z</time></trkpt>
<trkpt lat="46.1137" lon="7.01239"><ele></ele><time>2017-6-21T7:12:10Z</time></trkpt>
<trkpt lat="46.11361" lon="7.01237"><ele></ele><time>2017-6-21T7:12:13Z</time></trkpt>
<trkpt lat="46.11352" lon="7.01236"><ele></ele><time>2017-6-21T7:12:16Z</time></trkpt>
<trkpt lat="46.11334" lon="7.01232"><ele></ele><time>2017-6-21T7:12:19Z</time></trkpt>
<trkpt lat="46.11325" lon="7.0123"><ele></ele><time>2017-6-21T7:12:22Z</time></trkpt>
<trkpt lat="46.11317" lon="7.0123"><ele></ele><time>2017-6-21T7:12:25Z</time></trkpt>
<trkpt lat="46.11301" lon="7.01232"><ele></ele><time>2017-6-21T7:12:28Z</time></trkpt>
<trkpt lat="46.11293" lon="7.01234"><ele></ele><time>2017-6-21T7:12:31Z</time></trkpt>
<trkpt lat="46.11287" lon="7.01236"><ele></ele><time>2017-6-21T7:12:34Z</time></trkpt>
<trkpt lat="46.1128" lon="7.01238"><ele></ele><time>2017-6-21T7:12:37Z</time></trkpt>
<trkpt lat="46.11273" lon="7.01241"><ele></ele><time>2017-6-21T7:12:40Z</time></trkpt>
<trkpt lat="46.11268" lon="7.01242"><ele></ele><time>2017-6-21T7:12:43Z</time></trkpt>
<trkpt lat="46.11264" lon="7.01241"><ele></ele><time>2017-6-21T7:12:46Z</time></trkpt>
<trkpt lat="46.11258" lon="7.0124"><ele></ele><time>2017-6-21T7:12:49Z</time></trkpt>
<trkpt lat="46.11251" lon="7.01239"><ele></ele><time>2017-6-21T7:12:52Z</time></trkpt>
<trkpt lat="46.11245" lon="7.01238"><ele></ele><time>2017-6-21T7:12:55Z</time></trkpt>
<trkpt lat="46.11241" lon="7.01236"><ele></ele><time>2017-6-21T7:12:58Z</time></trkpt>
<trkpt lat="46.11238" lon="7.01233"><ele></ele><time>2017-6-21T7:13:1Z</time></trkpt>
<trkpt lat="46.11232" lon="7.01227"><ele></ele><time>2017-6-21T7:13:4Z</time></trkpt>
<trkpt lat="46.11226" lon="7.01221"><ele></ele><time>2017-6-21T7:13:7Z</time></trkpt>
<trkpt lat="46.11223" lon="7.01216"><ele></ele><time>2017-6-21T7:13:10Z</time></trkpt>
<trkpt lat="46.1122" lon="7.01209"><ele></ele><time>2017-6-21T7:13:13Z</time></trkpt>
<trkpt lat="46.11212" lon="7.01202"><ele></ele><time>2017-6-21T7:13:16Z</time></trkpt>
<trkpt lat="46.11205" lon="7.01196"><ele></ele><time>2017-6-21T7:13:19Z</time></trkpt>
<trkpt lat="46.11198" lon="7.01189"><ele></ele><time>2017-6-21T7:13:22Z</time></trkpt>
<trkpt lat="46.11189" lon="7.01184"><ele></ele><time>2017-6-21T7:13:25Z</time></trkpt>
<trkpt lat="46.11186" lon="7.01182"><ele></ele><time>2017-6-21T7:13:28Z</time></trkpt>
<trkpt lat="46.11184" lon="7.0118"><ele></ele><time>2017-6-21T7:13:31Z</time></trkpt>
<trkpt lat="46.11179" lon="7.01177"><ele></ele><time>2017-6-21T7:13:34Z</time></trkpt>
<trkpt lat="46.11175" lon="7.01173"><ele></ele><time>2017-6-21T7:13:37Z</time></trkpt>
<trkpt lat="46.11171" lon="7.0117"><ele></ele><time>2017-6-21T7:13:40Z</time></trkpt>
<trkpt lat="46.11167" lon="7.01167"><ele></ele><time>2017-6-21T7:13:43Z</time></trkpt>
<trkpt lat="46.11162" lon="7.01164"><ele></ele><time>2017-6-21T7:13:46Z</time></trkpt>
<trkpt lat="46.11158" lon="7.0116"><ele></ele><time>2017-6-21T7:13:49Z</time></trkpt>
<trkpt lat="46.11154" lon="7.01157"><ele></ele><time>2017-6-21T7:13:52Z</time></trkpt>
<trkpt lat="46.11149" lon="7.01154"><ele></ele><time>2017-6-21T7:13:55Z</time></trkpt>
<trkpt lat="46.11147" lon="7.01152"><ele></ele><time>2017-6-21T7:13:58Z</time></trkpt>
<trkpt lat="46.11146" lon="7.0115"><ele></ele><time>2017-6-21T7:14:1Z</time></trkpt>
<trkpt lat="46.11145" lon="7.01144"><ele></ele><time>2017-6-21T7:14:4Z</time></trkpt>
<trkpt lat="46.11144" lon="7.01139"><ele></ele><time>2017-6-21T7:14:7Z</time></trkpt>
<trkpt lat="46.11143" lon="7.01133"><ele></ele><time>2017-6-21T7:14:10Z</time></trkpt>
<trkpt lat="46.11142" lon="7.01127"><ele></ele><time>2017-6-21T7:14:13Z</time></trkpt>
<trkpt lat="46.11141" lon="7.01121"><ele></ele><time>2017-6-21T7:14:16Z</time></trkpt>
<trkpt lat="46.1114" lon="7.01116"><ele></ele><time>2017-6-21T7:14:19Z</time></trkpt>
<trkpt lat="46.11139" lon="7.0111"><ele></ele><time>2017-6-21T7:14:22Z</time></trkpt>
<trkpt lat="46.11138" lon="7.01107"><ele></ele><time>2017-6-21T7:14:25Z</time></trkpt>
<trkpt lat="46.11137" lon="7.01104"><ele></ele><time>2017-6-21T7:14:28Z</time></trkpt>
<trkpt lat="46.11136" lon="7.01099"><ele></ele><time>2017-6-21T7:14:31Z</time></trkpt>
<trkpt lat="46.11132" lon="7.01095"><ele></ele><time>2017-6-21T7:14:34Z</time></trkpt>
<trkpt lat="46.11127" lon="7.01091"><ele></ele><time>2017-6-21T7:14:37Z</time></trkpt>
<trkpt lat="46.11123" lon="7.01087"><ele></ele><time>2017-6-21T7:14:40Z</time></trkpt>
<trkpt lat="46.11118" lon="7.01083"><ele></ele><time>2017-6-21T7:14:43Z</time></trkpt>
<trkpt lat="46.11114" lon="7.01079"><ele></ele><time>2017-6-21T7:14:46Z</time></trkpt>
<trkpt lat="46.1111" lon="7.01075"><ele></ele><time>2017-6-21T7:14:49Z</time></trkpt>
<trkpt lat="46.11105" lon="7.01071"><ele></ele><time>2017-6-21T7:14:52Z</time></trkpt>
<trkpt lat="46.11101" lon="7.01067"><ele></ele><time>2017-6-21T7:14:55Z</time></trkpt>
<trkpt lat="46.11096" lon="7.01063"><ele></ele><time>2017-6-21T7:14:58Z</time></trkpt>
<trkpt lat="46.11092" lon="7.01059"><ele></ele><time>2017-6-21T7:15:1Z</time></trkpt>
<trkpt lat="46.11089" lon="7.01055"><ele></ele><time>2017-6-21T7:15:4Z</time></trkpt>
<trkpt lat="46.11085" lon="7.0105"><ele></ele><time>2017-6-21T7:15:7Z</time></trkpt>
<trkpt lat="46.11081" lon="7.01046"><ele></ele><time>2017-6-21T7:15:10Z</time></trkpt>
<trkpt lat="46.11077" lon="7.01042"><ele></ele><time>2017-6-21T7:15:13Z</time></trkpt>
<trkpt lat="46.11073" lon="7.01038"><ele></ele><time>2017-6-21T7:15:16Z</time></trkpt>
<trkpt lat="46.11069" lon="7.01033"><ele></ele><time>2017-6-21T7:15:19Z</time></trkpt>
<trkpt lat="46.11065" lon="7.01029"><ele></ele><time>2017-6-21T7:15:22Z</time></trkpt>
<trkpt lat="46.11061" lon="7.01025"><ele></ele><time>2017-6-21T7:15:25Z</time></trkpt>
<trkpt lat="46.11058" lon="7.01019"><ele></ele><time>2017-6-21T7:15:28Z</time></trkpt>
<trkpt lat="46.11054" lon="7.01014"><ele></ele><time>2017-6-21T7:15:31Z</time></trkpt>
<trkpt lat="46.11051" lon="7.01009"><ele></ele><time>2017-6-21T7:15:34Z</time></trkpt>
<trkpt lat="46.11048" lon="7.01003"><ele></ele><time>2017-6-21T7:15:37Z</time></trkpt>
<trkpt lat="46.11045" lon="7.00998"><ele></ele><time>2017-6-21T7:15:40Z</time></trkpt>
<trkpt lat="46.11041" lon="7.00993"><ele></ele><time>2017-6-21T7:15:43Z</time></trkpt>
<trkpt lat="46.11038" lon="7.00987"><ele></ele><time>2017-6-21T7:15:46Z</time></trkpt>
<trkpt lat="46.11035" lon="7.00982"><ele></ele><time>2017-6-21T7:15:49Z</time></trkpt>
<trkpt lat="46.11031" lon="7.00981"><ele></ele><time>2017-6-21T7:15:52Z</time></trkpt>
<trkpt lat="46.11028" lon="7.00981"><ele></ele><time>2017-6-21T7:15:55Z</time></trkpt>
<trkpt lat="46.11027" lon="7.0098"><ele></ele><time>2017-6-21T7:15:58Z</time></trkpt>
<trkpt lat="46.11025" lon="7.0098"><ele></ele><time>2017-6-21T7:16:1Z</time></trkpt>
<trkpt lat="46.11022" lon="7.00979"><ele></ele><time>2017-6-21T7:16:4Z</time></trkpt>
<trkpt lat="46.11019" lon="7.00978"><ele></ele><time>2017-6-21T7:16:7Z</time></trkpt>
<trkpt lat="46.11015" lon="7.00977"><ele></ele><time>2017-6-21T7:16:10Z</time></trkpt>
<trkpt lat="46.11012" lon="7.00976"><ele></ele><time>2017-6-21T7:16:13Z</time></trkpt>
<trkpt lat="46.11009" lon="7.00975"><ele></ele><time>2017-6-21T7:16:16Z</time></trkpt>
<trkpt lat="46.11006" lon="7.00974"><ele></ele><time>2017-6-21T7:16:19Z</time></trkpt>
<trkpt lat="46.11003" lon="7.00973"><ele></ele><time>2017-6-21T7:16:22Z</time></trkpt>
<trkpt lat="46.10999" lon="7.00972"><ele></ele><time>2017-6-21T7:16:25Z</time></trkpt>
<trkpt lat="46.10996" lon="7.00971"><ele></ele><time>2017-6-21T7:16:28Z</time></trkpt>
<trkpt lat="46.10993" lon="7.0097"><ele></ele><time>2017-6-21T7:16:31Z</time></trkpt>
<trkpt lat="46.10998" lon="7.00971"><ele></ele><time>2017-6-21T7:16:34Z</time></trkpt>
<trkpt lat="46.10998" lon="7.00971"><ele></ele><time>2017-6-21T7:16:37Z</time></trkpt>
<trkpt lat="46.11006" lon="7.00973"><ele></ele><time>2017-6-21T7:16:40Z</time></trkpt>
<trkpt lat="46.11008" lon="7.00975"><ele></ele><time>2017-6-21T7:16:43Z</time></trkpt>
<trkpt lat="46.11011" lon="7.00976"><ele></ele><time>2017-6-21T7:16:46Z</time></trkpt>
<trkpt lat="46.11013" lon="7.00978"><ele></ele><time>2017-6-21T7:16:49Z</time></trkpt>
<trkpt lat="46.11016" lon="7.00979"><ele></ele><time>2017-6-21T7:16:52Z</time></trkpt>
<trkpt lat="46.11018" lon="7.00981"><ele></ele><time>2017-6-21T7:16:55Z</time></trkpt>
<trkpt lat="46.1102" lon="7.00982"><ele></ele><time>2017-6-21T7:16:58Z</time></trkpt>
<trkpt lat="46.11021" lon="7.00983"><ele></ele><time>2017-6-21T7:17:1Z</time></trkpt>
<trkpt lat="46.11022" lon="7.00982"><ele></ele><time>2017-6-21T7:17:4Z</time></trkpt>
<trkpt lat="46.11023" lon="7.0098"><ele></ele><time>2017-6-21T7:17:7Z</time></trkpt>
<trkpt lat="46.11024" lon="7.00974"><ele></ele><time>2017-6-21T7:17:10Z</time></trkpt>
<trkpt lat="46.11019" lon="7.00969"><ele></ele><time>2017-6-21T7:17:13Z</time></trkpt>
<trkpt lat="46.11014" lon="7.00963"><ele></ele><time>2017-6-21T7:17:16Z</time></trkpt>
<trkpt lat="46.11009" lon="7.00958"><ele></ele><time>2017-6-21T7:17:19Z</time></trkpt>
<trkpt lat="46.11004" lon="7.00952"><ele></ele><time>2017-6-21T7:17:22Z</time></trkpt>
<trkpt lat="46.10998" lon="7.00946"><ele></ele><time>2017-6-21T7:17:25Z</time></trkpt>
<trkpt lat="46.10993" lon="7.00941"><ele></ele><time>2017-6-21T7:17:28Z</time></trkpt>
<trkpt lat="46.10988" lon="7.00935"><ele></ele><time>2017-6-21T7:17:31Z</time></trkpt>
<trkpt lat="46.10985" lon="7.00933"><ele></ele><time>2017-6-21T7:17:34Z</time></trkpt>
<trkpt lat="46.10982" lon="7.0093"><ele></ele><time>2017-6-21T7:17:37Z</time></trkpt>
<trkpt lat="46.10979" lon="7.00927"><ele></ele><time>2017-6-21T7:17:40Z</time></trkpt>
<trkpt lat="46.10976" lon="7.00924"><ele></ele><time>2017-6-21T7:17:43Z</time></trkpt>
<trkpt lat="46.1097" lon="7.00918"><ele></ele><time>2017-6-21T7:17:46Z</time></trkpt>
<trkpt lat="46.10963" lon="7.00912"><ele></ele><time>2017-6-21T7:17:49Z</time></trkpt>
<trkpt lat="46.10957" lon="7.00906"><ele></ele><time>2017-6-21T7:17:52Z</time></trkpt>
<trkpt lat="46.10951" lon="7.009"><ele></ele><time>2017-6-21T7:17:55Z</time></trkpt>
<trkpt lat="46.10948" lon="7.00897"><ele></ele><time>2017-6-21T7:17:58Z</time></trkpt>
<trkpt lat="46.10945" lon="7.00894"><ele></ele><time>2017-6-21T7:18:1Z</time></trkpt>
<trkpt lat="46.10942" lon="7.00891"><ele></ele><time>2017-6-21T7:18:4Z</time></trkpt>
<trkpt lat="46.10939" lon="7.00888"><ele></ele><time>2017-6-21T7:18:7Z</time></trkpt>
<trkpt lat="46.10933" lon="7.00882"><ele></ele><time>2017-6-21T7:18:10Z</time></trkpt>
<trkpt lat="46.10927" lon="7.00876"><ele></ele><time>2017-6-21T7:18:13Z</time></trkpt>
<trkpt lat="46.10921" lon="7.0087"><ele></ele><time>2017-6-21T7:18:16Z</time></trkpt>
<trkpt lat="46.10916" lon="7.00864"><ele></ele><time>2017-6-21T7:18:19Z</time></trkpt>
<trkpt lat="46.1091" lon="7.00858"><ele></ele><time>2017-6-21T7:18:22Z</time></trkpt>
<trkpt lat="46.10904" lon="7.00855"><ele></ele><time>2017-6-21T7:18:25Z</time></trkpt>
<trkpt lat="46.10898" lon="7.00852"><ele></ele><time>2017-6-21T7:18:28Z</time></trkpt>
<trkpt lat="46.10893" lon="7.00849"><ele></ele><time>2017-6-21T7:18:31Z</time></trkpt>
<trkpt lat="46.10887" lon="7.00846"><ele></ele><time>2017-6-21T7:18:34Z</time></trkpt>
<trkpt lat="46.10881" lon="7.00843"><ele></ele><time>2017-6-21T7:18:37Z</time></trkpt>
<trkpt lat="46.10875" lon="7.0084"><ele></ele><time>2017-6-21T7:18:40Z</time></trkpt>
<trkpt lat="46.1087" lon="7.00837"><ele></ele><time>2017-6-21T7:18:43Z</time></trkpt>
<trkpt lat="46.10867" lon="7.00835"><ele></ele><time>2017-6-21T7:18:46Z</time></trkpt>
<trkpt lat="46.10865" lon="7.00833"><ele></ele><time>2017-6-21T7:18:49Z</time></trkpt>
<trkpt lat="46.1086" lon="7.00829"><ele></ele><time>2017-6-21T7:18:52Z</time></trkpt>
<trkpt lat="46.10856" lon="7.00825"><ele></ele><time>2017-6-21T7:18:55Z</time></trkpt>
<trkpt lat="46.10852" lon="7.00821"><ele></ele><time>2017-6-21T7:18:58Z</time></trkpt>
<trkpt lat="46.1085" lon="7.00818"><ele></ele><time>2017-6-21T7:19:1Z</time></trkpt>
<trkpt lat="46.10847" lon="7.00816"><ele></ele><time>2017-6-21T7:19:4Z</time></trkpt>
<trkpt lat="46.10843" lon="7.00812"><ele></ele><time>2017-6-21T7:19:7Z</time></trkpt>
<trkpt lat="46.10834" lon="7.00786"><ele></ele><time>2017-6-21T7:19:10Z</time></trkpt>
<trkpt lat="46.10834" lon="7.00786"><ele></ele><time>2017-6-21T7:19:13Z</time></trkpt>
<trkpt lat="46.10827" lon="7.00768"><ele></ele><time>2017-6-21T7:19:16Z</time></trkpt>
<trkpt lat="46.1082" lon="7.00757"><ele></ele><time>2017-6-21T7:19:19Z</time></trkpt>
<trkpt lat="46.1081" lon="7.00742"><ele></ele><time>2017-6-21T7:19:22Z</time></trkpt>
<trkpt lat="46.10799" lon="7.00727"><ele></ele><time>2017-6-21T7:19:25Z</time></trkpt>
<trkpt lat="46.10794" lon="7.00719"><ele></ele><time>2017-6-21T7:19:28Z</time></trkpt>
<trkpt lat="46.10791" lon="7.00709"><ele></ele><time>2017-6-21T7:19:31Z</time></trkpt>
<trkpt lat="46.10785" lon="7.00688"><ele></ele><time>2017-6-21T7:19:34Z</time></trkpt>
<trkpt lat="46.10781" lon="7.00679"><ele></ele><time>2017-6-21T7:19:37Z</time></trkpt>
<trkpt lat="46.10776" lon="7.00672"><ele></ele><time>2017-6-21T7:19:40Z</time></trkpt>
<trkpt lat="46.10764" lon="7.00657"><ele></ele><time>2017-6-21T7:19:43Z</time></trkpt>
<trkpt lat="46.1075" lon="7.00643"><ele></ele><time>2017-6-21T7:19:46Z</time></trkpt>
<trkpt lat="46.10744" lon="7.00636"><ele></ele><time>2017-6-21T7:19:49Z</time></trkpt>
<trkpt lat="46.10738" lon="7.00627"><ele></ele><time>2017-6-21T7:19:52Z</time></trkpt>
<trkpt lat="46.10727" lon="7.00609"><ele></ele><time>2017-6-21T7:19:55Z</time></trkpt>
<trkpt lat="46.10716" lon="7.00592"><ele></ele><time>2017-6-21T7:19:58Z</time></trkpt>
<trkpt lat="46.10702" lon="7.00577"><ele></ele><time>2017-6-21T7:20:1Z</time></trkpt>
<trkpt lat="46.10688" lon="7.00563"><ele></ele><time>2017-6-21T7:20:4Z</time></trkpt>
<trkpt lat="46.10675" lon="7.00548"><ele></ele><time>2017-6-21T7:20:7Z</time></trkpt>
<trkpt lat="46.10665" lon="7.00529"><ele></ele><time>2017-6-21T7:20:10Z</time></trkpt>
<trkpt lat="46.10654" lon="7.0051"><ele></ele><time>2017-6-21T7:20:13Z</time></trkpt>
<trkpt lat="46.10645" lon="7.00491"><ele></ele><time>2017-6-21T7:20:16Z</time></trkpt>
<trkpt lat="46.10641" lon="7.00467"><ele></ele><time>2017-6-21T7:20:19Z</time></trkpt>
<trkpt lat="46.10637" lon="7.00443"><ele></ele><time>2017-6-21T7:20:22Z</time></trkpt>
<trkpt lat="46.10633" lon="7.0042"><ele></ele><time>2017-6-21T7:20:25Z</time></trkpt>
<trkpt lat="46.10629" lon="7.00397"><ele></ele><time>2017-6-21T7:20:28Z</time></trkpt>
<trkpt lat="46.10626" lon="7.00386"><ele></ele><time>2017-6-21T7:20:31Z</time></trkpt>
<trkpt lat="46.10621" lon="7.00376"><ele></ele><time>2017-6-21T7:20:34Z</time></trkpt>
<trkpt lat="46.10612" lon="7.00355"><ele></ele><time>2017-6-21T7:20:37Z</time></trkpt>
<trkpt lat="46.10599" lon="7.00336"><ele></ele><time>2017-6-21T7:20:40Z</time></trkpt>
<trkpt lat="46.10586" lon="7.00317"><ele></ele><time>2017-6-21T7:20:43Z</time></trkpt>
<trkpt lat="46.10579" lon="7.00308"><ele></ele><time>2017-6-21T7:20:46Z</time></trkpt>
<trkpt lat="46.10572" lon="7.00299"><ele></ele><time>2017-6-21T7:20:49Z</time></trkpt>
<trkpt lat="46.10558" lon="7.00281"><ele></ele><time>2017-6-21T7:20:52Z</time></trkpt>
<trkpt lat="46.1055" lon="7.00275"><ele></ele><time>2017-6-21T7:20:55Z</time></trkpt>
<trkpt lat="46.10541" lon="7.00268"><ele></ele><time>2017-6-21T7:20:58Z</time></trkpt>
<trkpt lat="46.10525" lon="7.00254"><ele></ele><time>2017-6-21T7:21:1Z</time></trkpt>
<trkpt lat="46.10517" lon="7.00248"><ele></ele><time>2017-6-21T7:21:4Z</time></trkpt>
<trkpt lat="46.10508" lon="7.00243"><ele></ele><time>2017-6-21T7:21:7Z</time></trkpt>
<trkpt lat="46.1049" lon="7.00232"><ele></ele><time>2017-6-21T7:21:10Z</time></trkpt>
<trkpt lat="46.10472" lon="7.00221"><ele></ele><time>2017-6-21T7:21:13Z</time></trkpt>
<trkpt lat="46.10463" lon="7.00217"><ele></ele><time>2017-6-21T7:21:16Z</time></trkpt>
<trkpt lat="46.10454" lon="7.00212"><ele></ele><time>2017-6-21T7:21:19Z</time></trkpt>
<trkpt lat="46.10445" lon="7.00207"><ele></ele><time>2017-6-21T7:21:22Z</time></trkpt>
<trkpt lat="46.10438" lon="7.002"><ele></ele><time>2017-6-21T7:21:25Z</time></trkpt>
<trkpt lat="46.10423" lon="7.00188"><ele></ele><time>2017-6-21T7:21:28Z</time></trkpt>
<trkpt lat="46.10409" lon="7.00175"><ele></ele><time>2017-6-21T7:21:31Z</time></trkpt>
<trkpt lat="46.10394" lon="7.00164"><ele></ele><time>2017-6-21T7:21:34Z</time></trkpt>
<trkpt lat="46.1038" lon="7.00152"><ele></ele><time>2017-6-21T7:21:37Z</time></trkpt>
<trkpt lat="46.10373" lon="7.00136"><ele></ele><time>2017-6-21T7:21:40Z</time></trkpt>
<trkpt lat="46.10368" lon="7.00119"><ele></ele><time>2017-6-21T7:21:43Z</time></trkpt>
<trkpt lat="46.10367" lon="7.001"><ele></ele><time>2017-6-21T7:21:46Z</time></trkpt>
<trkpt lat="46.10372" lon="7.00081"><ele></ele><time>2017-6-21T7:21:49Z</time></trkpt>
<trkpt lat="46.10378" lon="7.00061"><ele></ele><time>2017-6-21T7:21:52Z</time></trkpt>
<trkpt lat="46.10383" lon="7.00041"><ele></ele><time>2017-6-21T7:21:55Z</time></trkpt>
<trkpt lat="46.10386" lon="7.00031"><ele></ele><time>2017-6-21T7:21:58Z</time></trkpt>
<trkpt lat="46.10391" lon="7.00022"><ele></ele><time>2017-6-21T7:22:1Z</time></trkpt>
<trkpt lat="46.10397" lon="7.00014"><ele></ele><time>2017-6-21T7:22:4Z</time></trkpt>
<trkpt lat="46.10403" lon="7.00012"><ele></ele><time>2017-6-21T7:22:7Z</time></trkpt>
<trkpt lat="46.10412" lon="6.99996"><ele></ele><time>2017-6-21T7:22:10Z</time></trkpt>
<trkpt lat="46.10419" lon="6.99979"><ele></ele><time>2017-6-21T7:22:13Z</time></trkpt>
<trkpt lat="46.10421" lon="6.99967"><ele></ele><time>2017-6-21T7:22:16Z</time></trkpt>
<trkpt lat="46.10425" lon="6.99958"><ele></ele><time>2017-6-21T7:22:19Z</time></trkpt>
<trkpt lat="46.10424" lon="6.99949"><ele></ele><time>2017-6-21T7:22:22Z</time></trkpt>
<trkpt lat="46.10421" lon="6.99939"><ele></ele><time>2017-6-21T7:22:25Z</time></trkpt>
<trkpt lat="46.10412" lon="6.99916"><ele></ele><time>2017-6-21T7:22:28Z</time></trkpt>
<trkpt lat="46.10406" lon="6.99895"><ele></ele><time>2017-6-21T7:22:31Z</time></trkpt>
<trkpt lat="46.10395" lon="6.99875"><ele></ele><time>2017-6-21T7:22:34Z</time></trkpt>
<trkpt lat="46.1039" lon="6.9986"><ele></ele><time>2017-6-21T7:22:37Z</time></trkpt>
<trkpt lat="46.10387" lon="6.99853"><ele></ele><time>2017-6-21T7:22:40Z</time></trkpt>
<trkpt lat="46.10383" lon="6.99848"><ele></ele><time>2017-6-21T7:22:43Z</time></trkpt>
<trkpt lat="46.10379" lon="6.99844"><ele></ele><time>2017-6-21T7:22:46Z</time></trkpt>
<trkpt lat="46.10376" lon="6.99841"><ele></ele><time>2017-6-21T7:22:49Z</time></trkpt>
<trkpt lat="46.10372" lon="6.99841"><ele></ele><time>2017-6-21T7:22:52Z</time></trkpt>
<trkpt lat="46.10369" lon="6.99845"><ele></ele><time>2017-6-21T7:22:55Z</time></trkpt>
<trkpt lat="46.10361" lon="6.99851"><ele></ele><time>2017-6-21T7:22:58Z</time></trkpt>
<trkpt lat="46.10354" lon="6.99857"><ele></ele><time>2017-6-21T7:23:1Z</time></trkpt>
<trkpt lat="46.1035" lon="6.99861"><ele></ele><time>2017-6-21T7:23:4Z</time></trkpt>
<trkpt lat="46.10346" lon="6.99867"><ele></ele><time>2017-6-21T7:23:7Z</time></trkpt>
<trkpt lat="46.10338" lon="6.99879"><ele></ele><time>2017-6-21T7:23:10Z</time></trkpt>
<trkpt lat="46.10334" lon="6.99885"><ele></ele><time>2017-6-21T7:23:13Z</time></trkpt>
<trkpt lat="46.10329" lon="6.99888"><ele></ele><time>2017-6-21T7:23:16Z</time></trkpt>
<trkpt lat="46.10319" lon="6.99896"><ele></ele><time>2017-6-21T7:23:19Z</time></trkpt>
<trkpt lat="46.1031" lon="6.99904"><ele></ele><time>2017-6-21T7:23:22Z</time></trkpt>
<trkpt lat="46.10304" lon="6.99917"><ele></ele><time>2017-6-21T7:23:25Z</time></trkpt>
<trkpt lat="46.10299" lon="6.99929"><ele></ele><time>2017-6-21T7:23:28Z</time></trkpt>
<trkpt lat="46.10287" lon="6.99937"><ele></ele><time>2017-6-21T7:23:31Z</time></trkpt>
<trkpt lat="46.10275" lon="6.99938"><ele></ele><time>2017-6-21T7:23:34Z</time></trkpt>
<trkpt lat="46.10264" lon="6.99939"><ele></ele><time>2017-6-21T7:23:37Z</time></trkpt>
<trkpt lat="46.10258" lon="6.99937"><ele></ele><time>2017-6-21T7:23:40Z</time></trkpt>
<trkpt lat="46.10253" lon="6.99934"><ele></ele><time>2017-6-21T7:23:43Z</time></trkpt>
<trkpt lat="46.1024" lon="6.9993"><ele></ele><time>2017-6-21T7:23:46Z</time></trkpt>
<trkpt lat="46.10235" lon="6.99926"><ele></ele><time>2017-6-21T7:23:49Z</time></trkpt>
<trkpt lat="46.10231" lon="6.9992"><ele></ele><time>2017-6-21T7:23:52Z</time></trkpt>
<trkpt lat="46.10223" lon="6.99909"><ele></ele><time>2017-6-21T7:23:55Z</time></trkpt>
<trkpt lat="46.10214" lon="6.99897"><ele></ele><time>2017-6-21T7:23:58Z</time></trkpt>
<trkpt lat="46.10206" lon="6.99885"><ele></ele><time>2017-6-21T7:24:1Z</time></trkpt>
<trkpt lat="46.10203" lon="6.99879"><ele></ele><time>2017-6-21T7:24:4Z</time></trkpt>
<trkpt lat="46.10201" lon="6.99872"><ele></ele><time>2017-6-21T7:24:7Z</time></trkpt>
<trkpt lat="46.102" lon="6.99865"><ele></ele><time>2017-6-21T7:24:10Z</time></trkpt>
<trkpt lat="46.10201" lon="6.99857"><ele></ele><time>2017-6-21T7:24:13Z</time></trkpt>
<trkpt lat="46.10203" lon="6.99843"><ele></ele><time>2017-6-21T7:24:16Z</time></trkpt>
<trkpt lat="46.10203" lon="6.99836"><ele></ele><time>2017-6-21T7:24:19Z</time></trkpt>
<trkpt lat="46.102" lon="6.99831"><ele></ele><time>2017-6-21T7:24:22Z</time></trkpt>
<trkpt lat="46.10194" lon="6.99821"><ele></ele><time>2017-6-21T7:24:25Z</time></trkpt>
<trkpt lat="46.10188" lon="6.99812"><ele></ele><time>2017-6-21T7:24:28Z</time></trkpt>
<trkpt lat="46.1018" lon="6.99806"><ele></ele><time>2017-6-21T7:24:31Z</time></trkpt>
<trkpt lat="46.10173" lon="6.998"><ele></ele><time>2017-6-21T7:24:34Z</time></trkpt>
<trkpt lat="46.10165" lon="6.99794"><ele></ele><time>2017-6-21T7:24:37Z</time></trkpt>
<trkpt lat="46.10158" lon="6.99788"><ele></ele><time>2017-6-21T7:24:40Z</time></trkpt>
<trkpt lat="46.10151" lon="6.99782"><ele></ele><time>2017-6-21T7:24:43Z</time></trkpt>
<trkpt lat="46.10147" lon="6.99779"><ele></ele><time>2017-6-21T7:24:46Z</time></trkpt>
<trkpt lat="46.10145" lon="6.99777"><ele></ele><time>2017-6-21T7:24:49Z</time></trkpt>
<trkpt lat="46.1014" lon="6.99772"><ele></ele><time>2017-6-21T7:24:52Z</time></trkpt>
<trkpt lat="46.10135" lon="6.99768"><ele></ele><time>2017-6-21T7:24:55Z</time></trkpt>
<trkpt lat="46.1013" lon="6.99763"><ele></ele><time>2017-6-21T7:24:58Z</time></trkpt>
<trkpt lat="46.10125" lon="6.99759"><ele></ele><time>2017-6-21T7:25:1Z</time></trkpt>
<trkpt lat="46.1012" lon="6.99754"><ele></ele><time>2017-6-21T7:25:4Z</time></trkpt>
<trkpt lat="46.10115" lon="6.9975"><ele></ele><time>2017-6-21T7:25:7Z</time></trkpt>
<trkpt lat="46.1011" lon="6.99745"><ele></ele><time>2017-6-21T7:25:10Z</time></trkpt>
<trkpt lat="46.10107" lon="6.99743"><ele></ele><time>2017-6-21T7:25:13Z</time></trkpt>
<trkpt lat="46.10105" lon="6.9974"><ele></ele><time>2017-6-21T7:25:16Z</time></trkpt>
<trkpt lat="46.10101" lon="6.99734"><ele></ele><time>2017-6-21T7:25:19Z</time></trkpt>
<trkpt lat="46.10096" lon="6.99728"><ele></ele><time>2017-6-21T7:25:22Z</time></trkpt>
<trkpt lat="46.10092" lon="6.99722"><ele></ele><time>2017-6-21T7:25:25Z</time></trkpt>
<trkpt lat="46.10087" lon="6.99716"><ele></ele><time>2017-6-21T7:25:28Z</time></trkpt>
<trkpt lat="46.10083" lon="6.99711"><ele></ele><time>2017-6-21T7:25:31Z</time></trkpt>
<trkpt lat="46.10078" lon="6.99705"><ele></ele><time>2017-6-21T7:25:34Z</time></trkpt>
<trkpt lat="46.10074" lon="6.99699"><ele></ele><time>2017-6-21T7:25:37Z</time></trkpt>
<trkpt lat="46.10069" lon="6.99694"><ele></ele><time>2017-6-21T7:25:40Z</time></trkpt>
<trkpt lat="46.10065" lon="6.99689"><ele></ele><time>2017-6-21T7:25:43Z</time></trkpt>
<trkpt lat="46.10061" lon="6.99684"><ele></ele><time>2017-6-21T7:25:46Z</time></trkpt>
<trkpt lat="46.10057" lon="6.99679"><ele></ele><time>2017-6-21T7:25:49Z</time></trkpt>
<trkpt lat="46.10052" lon="6.99674"><ele></ele><time>2017-6-21T7:25:52Z</time></trkpt>
<trkpt lat="46.10048" lon="6.99669"><ele></ele><time>2017-6-21T7:25:55Z</time></trkpt>
<trkpt lat="46.10044" lon="6.99664"><ele></ele><time>2017-6-21T7:25:58Z</time></trkpt>
<trkpt lat="46.1004" lon="6.99659"><ele></ele><time>2017-6-21T7:26:1Z</time></trkpt>
<trkpt lat="46.10038" lon="6.99657"><ele></ele><time>2017-6-21T7:26:4Z</time></trkpt>
<trkpt lat="46.10035" lon="6.99654"><ele></ele><time>2017-6-21T7:26:7Z</time></trkpt>
<trkpt lat="46.10031" lon="6.99649"><ele></ele><time>2017-6-21T7:26:10Z</time></trkpt>
<trkpt lat="46.10027" lon="6.99643"><ele></ele><time>2017-6-21T7:26:13Z</time></trkpt>
<trkpt lat="46.10023" lon="6.99638"><ele></ele><time>2017-6-21T7:26:16Z</time></trkpt>
<trkpt lat="46.10018" lon="6.99633"><ele></ele><time>2017-6-21T7:26:19Z</time></trkpt>
<trkpt lat="46.10014" lon="6.99627"><ele></ele><time>2017-6-21T7:26:22Z</time></trkpt>
<trkpt lat="46.1001" lon="6.99622"><ele></ele><time>2017-6-21T7:26:25Z</time></trkpt>
<trkpt lat="46.10006" lon="6.99617"><ele></ele><time>2017-6-21T7:26:28Z</time></trkpt>
<trkpt lat="46.10003" lon="6.99615"><ele></ele><time>2017-6-21T7:26:31Z</time></trkpt>
<trkpt lat="46.1" lon="6.99614"><ele></ele><time>2017-6-21T7:26:34Z</time></trkpt>
<trkpt lat="46.09994" lon="6.99612"><ele></ele><time>2017-6-21T7:26:37Z</time></trkpt>
<trkpt lat="46.09989" lon="6.99611"><ele></ele><time>2017-6-21T7:26:40Z</time></trkpt>
<trkpt lat="46.09983" lon="6.99609"><ele></ele><time>2017-6-21T7:26:43Z</time></trkpt>
<trkpt lat="46.09977" lon="6.99607"><ele></ele><time>2017-6-21T7:26:46Z</time></trkpt>
<trkpt lat="46.09972" lon="6.99605"><ele></ele><time>2017-6-21T7:26:49Z</time></trkpt>
<trkpt lat="46.09968" lon="6.99599"><ele></ele><time>2017-6-21T7:26:52Z</time></trkpt>
<trkpt lat="46.09965" lon="6.99592"><ele></ele><time>2017-6-21T7:26:55Z</time></trkpt>
<trkpt lat="46.09962" lon="6.99586"><ele></ele><time>2017-6-21T7:26:58Z</time></trkpt>
<trkpt lat="46.09959" lon="6.9958"><ele></ele><time>2017-6-21T7:27:1Z</time></trkpt>
<trkpt lat="46.09956" lon="6.99574"><ele></ele><time>2017-6-21T7:27:4Z</time></trkpt>
<trkpt lat="46.09953" lon="6.99567"><ele></ele><time>2017-6-21T7:27:7Z</time></trkpt>
<trkpt lat="46.0995" lon="6.99561"><ele></ele><time>2017-6-21T7:27:10Z</time></trkpt>
<trkpt lat="46.09947" lon="6.99555"><ele></ele><time>2017-6-21T7:27:13Z</time></trkpt>
<trkpt lat="46.09945" lon="6.99552"><ele></ele><time>2017-6-21T7:27:16Z</time></trkpt>
<trkpt lat="46.09944" lon="6.9955"><ele></ele><time>2017-6-21T7:27:19Z</time></trkpt>
<trkpt lat="46.0994" lon="6.99546"><ele></ele><time>2017-6-21T7:27:22Z</time></trkpt>
<trkpt lat="46.09937" lon="6.99543"><ele></ele><time>2017-6-21T7:27:25Z</time></trkpt>
<trkpt lat="46.09933" lon="6.99539"><ele></ele><time>2017-6-21T7:27:28Z</time></trkpt>
<trkpt lat="46.0993" lon="6.99535"><ele></ele><time>2017-6-21T7:27:31Z</time></trkpt>
<trkpt lat="46.09926" lon="6.99532"><ele></ele><time>2017-6-21T7:27:34Z</time></trkpt>
<trkpt lat="46.09923" lon="6.99528"><ele></ele><time>2017-6-21T7:27:37Z</time></trkpt>
<trkpt lat="46.09919" lon="6.99524"><ele></ele><time>2017-6-21T7:27:40Z</time></trkpt>
<trkpt lat="46.09915" lon="6.99521"><ele></ele><time>2017-6-21T7:27:43Z</time></trkpt>
<trkpt lat="46.09912" lon="6.99517"><ele></ele><time>2017-6-21T7:27:46Z</time></trkpt>
<trkpt lat="46.09908" lon="6.99513"><ele></ele><time>2017-6-21T7:27:49Z</time></trkpt>
<trkpt lat="46.09905" lon="6.9951"><ele></ele><time>2017-6-21T7:27:52Z</time></trkpt>
<trkpt lat="46.09901" lon="6.99506"><ele></ele><time>2017-6-21T7:27:55Z</time></trkpt>
<trkpt lat="46.09897" lon="6.99502"><ele></ele><time>2017-6-21T7:27:58Z</time></trkpt>
<trkpt lat="46.09893" lon="6.99499"><ele></ele><time>2017-6-21T7:28:1Z</time></trkpt>
<trkpt lat="46.09889" lon="6.99495"><ele></ele><time>2017-6-21T7:28:4Z</time></trkpt>
<trkpt lat="46.09887" lon="6.99493"><ele></ele><time>2017-6-21T7:28:7Z</time></trkpt>
<trkpt lat="46.09885" lon="6.99491"><ele></ele><time>2017-6-21T7:28:10Z</time></trkpt>
<trkpt lat="46.09881" lon="6.99488"><ele></ele><time>2017-6-21T7:28:13Z</time></trkpt>
<trkpt lat="46.09878" lon="6.99484"><ele></ele><time>2017-6-21T7:28:16Z</time></trkpt>
<trkpt lat="46.09874" lon="6.9948"><ele></ele><time>2017-6-21T7:28:19Z</time></trkpt>
<trkpt lat="46.0987" lon="6.99477"><ele></ele><time>2017-6-21T7:28:22Z</time></trkpt>
<trkpt lat="46.09867" lon="6.99473"><ele></ele><time>2017-6-21T7:28:25Z</time></trkpt>
<trkpt lat="46.09864" lon="6.9947"><ele></ele><time>2017-6-21T7:28:28Z</time></trkpt>
<trkpt lat="46.0986" lon="6.99466"><ele></ele><time>2017-6-21T7:28:31Z</time></trkpt>
<trkpt lat="46.09857" lon="6.99463"><ele></ele><time>2017-6-21T7:28:34Z</time></trkpt>
<trkpt lat="46.09854" lon="6.99459"><ele></ele><time>2017-6-21T7:28:37Z</time></trkpt>
<trkpt lat="46.09851" lon="6.99456"><ele></ele><time>2017-6-21T7:28:40Z</time></trkpt>
<trkpt lat="46.09848" lon="6.99452"><ele></ele><time>2017-6-21T7:28:43Z</time></trkpt>
<trkpt lat="46.09845" lon="6.99449"><ele></ele><time>2017-6-21T7:28:46Z</time></trkpt>
<trkpt lat="46.09843" lon="6.99447"><ele></ele><time>2017-6-21T7:28:49Z</time></trkpt>
<trkpt lat="46.09841" lon="6.99445"><ele></ele><time>2017-6-21T7:28:52Z</time></trkpt>
<trkpt lat="46.09838" lon="6.99441"><ele></ele><time>2017-6-21T7:28:55Z</time></trkpt>
<trkpt lat="46.09835" lon="6.99438"><ele></ele><time>2017-6-21T7:28:58Z</time></trkpt>
<trkpt lat="46.09833" lon="6.99436"><ele></ele><time>2017-6-21T7:29:1Z</time></trkpt>
<trkpt lat="46.09832" lon="6.99435"><ele></ele><time>2017-6-21T7:29:4Z</time></trkpt>
<trkpt lat="46.09829" lon="6.99432"><ele></ele><time>2017-6-21T7:29:7Z</time></trkpt>
<trkpt lat="46.09826" lon="6.99428"><ele></ele><time>2017-6-21T7:29:10Z</time></trkpt>
<trkpt lat="46.09823" lon="6.99425"><ele></ele><time>2017-6-21T7:29:13Z</time></trkpt>
<trkpt lat="46.0982" lon="6.99422"><ele></ele><time>2017-6-21T7:29:16Z</time></trkpt>
<trkpt lat="46.09817" lon="6.99419"><ele></ele><time>2017-6-21T7:29:19Z</time></trkpt>
<trkpt lat="46.09814" lon="6.99416"><ele></ele><time>2017-6-21T7:29:22Z</time></trkpt>
<trkpt lat="46.09811" lon="6.99413"><ele></ele><time>2017-6-21T7:29:25Z</time></trkpt>
<trkpt lat="46.09808" lon="6.9941"><ele></ele><time>2017-6-21T7:29:28Z</time></trkpt>
<trkpt lat="46.09805" lon="6.99407"><ele></ele><time>2017-6-21T7:29:31Z</time></trkpt>
<trkpt lat="46.09802" lon="6.99404"><ele></ele><time>2017-6-21T7:29:34Z</time></trkpt>
<trkpt lat="46.09799" lon="6.99401"><ele></ele><time>2017-6-21T7:29:37Z</time></trkpt>
<trkpt lat="46.09796" lon="6.99397"><ele></ele><time>2017-6-21T7:29:40Z</time></trkpt>
<trkpt lat="46.09793" lon="6.99394"><ele></ele><time>2017-6-21T7:29:43Z</time></trkpt>
<trkpt lat="46.0979" lon="6.99391"><ele></ele><time>2017-6-21T7:29:46Z</time></trkpt>
<trkpt lat="46.09787" lon="6.99388"><ele></ele><time>2017-6-21T7:29:49Z</time></trkpt>
<trkpt lat="46.09784" lon="6.99385"><ele></ele><time>2017-6-21T7:29:52Z</time></trkpt>
<trkpt lat="46.09781" lon="6.99382"><ele></ele><time>2017-6-21T7:29:55Z</time></trkpt>
<trkpt lat="46.09778" lon="6.99379"><ele></ele><time>2017-6-21T7:29:58Z</time></trkpt>
<trkpt lat="46.09775" lon="6.99376"><ele></ele><time>2017-6-21T7:30:1Z</time></trkpt>
<trkpt lat="46.09772" lon="6.99373"><ele></ele><time>2017-6-21T7:30:4Z</time></trkpt>
<trkpt lat="46.09769" lon="6.9937"><ele></ele><time>2017-6-21T7:30:7Z</time></trkpt>
<trkpt lat="46.09766" lon="6.99367"><ele></ele><time>2017-6-21T7:30:10Z</time></trkpt>
<trkpt lat="46.09763" lon="6.99363"><ele></ele><time>2017-6-21T7:30:13Z</time></trkpt>
<trkpt lat="46.09759" lon="6.99361"><ele></ele><time>2017-6-21T7:30:16Z</time></trkpt>
<trkpt lat="46.09756" lon="6.99358"><ele></ele><time>2017-6-21T7:30:19Z</time></trkpt>
<trkpt lat="46.09753" lon="6.99356"><ele></ele><time>2017-6-21T7:30:22Z</time></trkpt>
<trkpt lat="46.09749" lon="6.99354"><ele></ele><time>2017-6-21T7:30:25Z</time></trkpt>
<trkpt lat="46.09746" lon="6.99352"><ele></ele><time>2017-6-21T7:30:28Z</time></trkpt>
<trkpt lat="46.09743" lon="6.9935"><ele></ele><time>2017-6-21T7:30:31Z</time></trkpt>
<trkpt lat="46.0974" lon="6.99348"><ele></ele><time>2017-6-21T7:30:34Z</time></trkpt>
<trkpt lat="46.09736" lon="6.99346"><ele></ele><time>2017-6-21T7:30:37Z</time></trkpt>
<trkpt lat="46.09733" lon="6.99343"><ele></ele><time>2017-6-21T7:30:40Z</time></trkpt>
<trkpt lat="46.0973" lon="6.99341"><ele></ele><time>2017-6-21T7:30:43Z</time></trkpt>
<trkpt lat="46.09726" lon="6.99339"><ele></ele><time>2017-6-21T7:30:46Z</time></trkpt>
<trkpt lat="46.09723" lon="6.99337"><ele></ele><time>2017-6-21T7:30:49Z</time></trkpt>
<trkpt lat="46.0972" lon="6.99335"><ele></ele><time>2017-6-21T7:30:52Z</time></trkpt>
<trkpt lat="46.09718" lon="6.99334"><ele></ele><time>2017-6-21T7:30:55Z</time></trkpt>
<trkpt lat="46.09716" lon="6.99333"><ele></ele><time>2017-6-21T7:30:58Z</time></trkpt>
<trkpt lat="46.09713" lon="6.9933"><ele></ele><time>2017-6-21T7:31:1Z</time></trkpt>
<trkpt lat="46.0971" lon="6.99328"><ele></ele><time>2017-6-21T7:31:4Z</time></trkpt>
<trkpt lat="46.09707" lon="6.99326"><ele></ele><time>2017-6-21T7:31:7Z</time></trkpt>
<trkpt lat="46.09704" lon="6.99324"><ele></ele><time>2017-6-21T7:31:10Z</time></trkpt>
<trkpt lat="46.09701" lon="6.99321"><ele></ele><time>2017-6-21T7:31:13Z</time></trkpt>
<trkpt lat="46.09698" lon="6.99319"><ele></ele><time>2017-6-21T7:31:16Z</time></trkpt>
<trkpt lat="46.09694" lon="6.99317"><ele></ele><time>2017-6-21T7:31:19Z</time></trkpt>
<trkpt lat="46.09691" lon="6.99315"><ele></ele><time>2017-6-21T7:31:22Z</time></trkpt>
<trkpt lat="46.09688" lon="6.99313"><ele></ele><time>2017-6-21T7:31:25Z</time></trkpt>
<trkpt lat="46.09685" lon="6.9931"><ele></ele><time>2017-6-21T7:31:28Z</time></trkpt>
<trkpt lat="46.09682" lon="6.99308"><ele></ele><time>2017-6-21T7:31:31Z</time></trkpt>
<trkpt lat="46.09679" lon="6.99306"><ele></ele><time>2017-6-21T7:31:34Z</time></trkpt>
<trkpt lat="46.09677" lon="6.99305"><ele></ele><time>2017-6-21T7:31:37Z</time></trkpt>
<trkpt lat="46.09676" lon="6.99304"><ele></ele><time>2017-6-21T7:31:40Z</time></trkpt>
<trkpt lat="46.09674" lon="6.99303"><ele></ele><time>2017-6-21T7:31:43Z</time></trkpt>
<trkpt lat="46.09671" lon="6.99302"><ele></ele><time>2017-6-21T7:31:46Z</time></trkpt>
<trkpt lat="46.09669" lon="6.99301"><ele></ele><time>2017-6-21T7:31:49Z</time></trkpt>
<trkpt lat="46.09666" lon="6.993"><ele></ele><time>2017-6-21T7:31:52Z</time></trkpt>
<trkpt lat="46.09664" lon="6.99299"><ele></ele><time>2017-6-21T7:31:55Z</time></trkpt>
<trkpt lat="46.09661" lon="6.99297"><ele></ele><time>2017-6-21T7:31:58Z</time></trkpt>
<trkpt lat="46.09658" lon="6.99296"><ele></ele><time>2017-6-21T7:32:1Z</time></trkpt>
<trkpt lat="46.09656" lon="6.99295"><ele></ele><time>2017-6-21T7:32:4Z</time></trkpt>
<trkpt lat="46.09653" lon="6.99294"><ele></ele><time>2017-6-21T7:32:7Z</time></trkpt>
<trkpt lat="46.09651" lon="6.99293"><ele></ele><time>2017-6-21T7:32:10Z</time></trkpt>
<trkpt lat="46.09648" lon="6.99292"><ele></ele><time>2017-6-21T7:32:13Z</time></trkpt>
<trkpt lat="46.09646" lon="6.99291"><ele></ele><time>2017-6-21T7:32:16Z</time></trkpt>
<trkpt lat="46.09643" lon="6.99289"><ele></ele><time>2017-6-21T7:32:19Z</time></trkpt>
<trkpt lat="46.09641" lon="6.99288"><ele></ele><time>2017-6-21T7:32:22Z</time></trkpt>
<trkpt lat="46.09638" lon="6.99287"><ele></ele><time>2017-6-21T7:32:25Z</time></trkpt>
<trkpt lat="46.09636" lon="6.99286"><ele></ele><time>2017-6-21T7:32:28Z</time></trkpt>
<trkpt lat="46.09633" lon="6.99285"><ele></ele><time>2017-6-21T7:32:31Z</time></trkpt>
<trkpt lat="46.09631" lon="6.99285"><ele></ele><time>2017-6-21T7:32:34Z</time></trkpt>
<trkpt lat="46.09629" lon="6.99284"><ele></ele><time>2017-6-21T7:32:37Z</time></trkpt>
<trkpt lat="46.09626" lon="6.99284"><ele></ele><time>2017-6-21T7:32:40Z</time></trkpt>
<trkpt lat="46.09624" lon="6.99283"><ele></ele><time>2017-6-21T7:32:43Z</time></trkpt>
<trkpt lat="46.09622" lon="6.99283"><ele></ele><time>2017-6-21T7:32:46Z</time></trkpt>
<trkpt lat="46.09621" lon="6.99283"><ele></ele><time>2017-6-21T7:32:49Z</time></trkpt>
<trkpt lat="46.0962" lon="6.99283"><ele></ele><time>2017-6-21T7:32:52Z</time></trkpt>
<trkpt lat="46.09617" lon="6.99282"><ele></ele><time>2017-6-21T7:32:55Z</time></trkpt>
<trkpt lat="46.09615" lon="6.99282"><ele></ele><time>2017-6-21T7:32:58Z</time></trkpt>
<trkpt lat="46.09613" lon="6.99281"><ele></ele><time>2017-6-21T7:33:1Z</time></trkpt>
<trkpt lat="46.09611" lon="6.99281"><ele></ele><time>2017-6-21T7:33:4Z</time></trkpt>
<trkpt lat="46.09608" lon="6.99281"><ele></ele><time>2017-6-21T7:33:7Z</time></trkpt>
<trkpt lat="46.09606" lon="6.9928"><ele></ele><time>2017-6-21T7:33:10Z</time></trkpt>
<trkpt lat="46.09604" lon="6.9928"><ele></ele><time>2017-6-21T7:33:13Z</time></trkpt>
<trkpt lat="46.09601" lon="6.99279"><ele></ele><time>2017-6-21T7:33:16Z</time></trkpt>
<trkpt lat="46.09599" lon="6.99279"><ele></ele><time>2017-6-21T7:33:19Z</time></trkpt>
<trkpt lat="46.09597" lon="6.99279"><ele></ele><time>2017-6-21T7:33:22Z</time></trkpt>
<trkpt lat="46.09596" lon="6.99278"><ele></ele><time>2017-6-21T7:33:25Z</time></trkpt>
<trkpt lat="46.09595" lon="6.99278"><ele></ele><time>2017-6-21T7:33:28Z</time></trkpt>
<trkpt lat="46.09592" lon="6.99278"><ele></ele><time>2017-6-21T7:33:31Z</time></trkpt>
<trkpt lat="46.0959" lon="6.99277"><ele></ele><time>2017-6-21T7:33:34Z</time></trkpt>
<trkpt lat="46.09588" lon="6.99277"><ele></ele><time>2017-6-21T7:33:37Z</time></trkpt>
<trkpt lat="46.09585" lon="6.99278"><ele></ele><time>2017-6-21T7:33:40Z</time></trkpt>
<trkpt lat="46.09582" lon="6.99278"><ele></ele><time>2017-6-21T7:33:43Z</time></trkpt>
<trkpt lat="46.09579" lon="6.99279"><ele></ele><time>2017-6-21T7:33:46Z</time></trkpt>
<trkpt lat="46.09576" lon="6.9928"><ele></ele><time>2017-6-21T7:33:49Z</time></trkpt>
<trkpt lat="46.09573" lon="6.9928"><ele></ele><time>2017-6-21T7:33:52Z</time></trkpt>
<trkpt lat="46.0957" lon="6.99281"><ele></ele><time>2017-6-21T7:33:55Z</time></trkpt>
<trkpt lat="46.09567" lon="6.99282"><ele></ele><time>2017-6-21T7:33:58Z</time></trkpt>
<trkpt lat="46.09565" lon="6.99282"><ele></ele><time>2017-6-21T7:34:1Z</time></trkpt>
<trkpt lat="46.09562" lon="6.99283"><ele></ele><time>2017-6-21T7:34:4Z</time></trkpt>
<trkpt lat="46.09559" lon="6.99283"><ele></ele><time>2017-6-21T7:34:7Z</time></trkpt>
<trkpt lat="46.09556" lon="6.99284"><ele></ele><time>2017-6-21T7:34:10Z</time></trkpt>
<trkpt lat="46.09553" lon="6.99285"><ele></ele><time>2017-6-21T7:34:13Z</time></trkpt>
<trkpt lat="46.0955" lon="6.99285"><ele></ele><time>2017-6-21T7:34:16Z</time></trkpt>
<trkpt lat="46.09547" lon="6.99286"><ele></ele><time>2017-6-21T7:34:19Z</time></trkpt>
<trkpt lat="46.09544" lon="6.99287"><ele></ele><time>2017-6-21T7:34:22Z</time></trkpt>
<trkpt lat="46.09542" lon="6.99287"><ele></ele><time>2017-6-21T7:34:25Z</time></trkpt>
<trkpt lat="46.09539" lon="6.99287"><ele></ele><time>2017-6-21T7:34:28Z</time></trkpt>
<trkpt lat="46.09537" lon="6.99287"><ele></ele><time>2017-6-21T7:34:31Z</time></trkpt>
<trkpt lat="46.09534" lon="6.99287"><ele></ele><time>2017-6-21T7:34:34Z</time></trkpt>
<trkpt lat="46.09532" lon="6.99287"><ele></ele><time>2017-6-21T7:34:37Z</time></trkpt>
<trkpt lat="46.09529" lon="6.99287"><ele></ele><time>2017-6-21T7:34:40Z</time></trkpt>
<trkpt lat="46.09527" lon="6.99287"><ele></ele><time>2017-6-21T7:34:43Z</time></trkpt>
<trkpt lat="46.09524" lon="6.99288"><ele></ele><time>2017-6-21T7:34:46Z</time></trkpt>
<trkpt lat="46.09522" lon="6.99288"><ele></ele><time>2017-6-21T7:34:49Z</time></trkpt>
<trkpt lat="46.09519" lon="6.99288"><ele></ele><time>2017-6-21T7:34:52Z</time></trkpt>
<trkpt lat="46.09517" lon="6.99288"><ele></ele><time>2017-6-21T7:34:55Z</time></trkpt>
<trkpt lat="46.09514" lon="6.99288"><ele></ele><time>2017-6-21T7:34:58Z</time></trkpt>
<trkpt lat="46.09512" lon="6.99288"><ele></ele><time>2017-6-21T7:35:1Z</time></trkpt>
<trkpt lat="46.09509" lon="6.99288"><ele></ele><time>2017-6-21T7:35:4Z</time></trkpt>
<trkpt lat="46.09507" lon="6.99288"><ele></ele><time>2017-6-21T7:35:7Z</time></trkpt>
<trkpt lat="46.09506" lon="6.99288"><ele></ele><time>2017-6-21T7:35:10Z</time></trkpt>
<trkpt lat="46.09505" lon="6.99288"><ele></ele><time>2017-6-21T7:35:13Z</time></trkpt>
<trkpt lat="46.09502" lon="6.99288"><ele></ele><time>2017-6-21T7:35:16Z</time></trkpt>
<trkpt lat="46.095" lon="6.99288"><ele></ele><time>2017-6-21T7:35:19Z</time></trkpt>
<trkpt lat="46.09497" lon="6.99288"><ele></ele><time>2017-6-21T7:35:22Z</time></trkpt>
<trkpt lat="46.09495" lon="6.99288"><ele></ele><time>2017-6-21T7:35:25Z</time></trkpt>
<trkpt lat="46.09492" lon="6.99287"><ele></ele><time>2017-6-21T7:35:28Z</time></trkpt>
<trkpt lat="46.09489" lon="6.99287"><ele></ele><time>2017-6-21T7:35:31Z</time></trkpt>
<trkpt lat="46.09486" lon="6.99286"><ele></ele><time>2017-6-21T7:35:34Z</time></trkpt>
<trkpt lat="46.09482" lon="6.99285"><ele></ele><time>2017-6-21T7:35:37Z</time></trkpt>
<trkpt lat="46.09479" lon="6.99285"><ele></ele><time>2017-6-21T7:35:40Z</time></trkpt>
<trkpt lat="46.09476" lon="6.99284"><ele></ele><time>2017-6-21T7:35:43Z</time></trkpt>
<trkpt lat="46.09475" lon="6.99284"><ele></ele><time>2017-6-21T7:35:46Z</time></trkpt>
<trkpt lat="46.09475" lon="6.99285"><ele></ele><time>2017-6-21T7:35:49Z</time></trkpt>
<trkpt lat="46.09474" lon="6.99286"><ele></ele><time>2017-6-21T7:35:52Z</time></trkpt>
<trkpt lat="46.09473" lon="6.99287"><ele></ele><time>2017-6-21T7:35:55Z</time></trkpt>
<trkpt lat="46.09449" lon="6.99294"><ele></ele><time>2017-6-21T7:35:58Z</time></trkpt>
<trkpt lat="46.09449" lon="6.99294"><ele></ele><time>2017-6-21T7:36:1Z</time></trkpt>
<trkpt lat="46.09426" lon="6.99301"><ele></ele><time>2017-6-21T7:36:4Z</time></trkpt>
<trkpt lat="46.09425" lon="6.99301"><ele></ele><time>2017-6-21T7:36:7Z</time></trkpt>
<trkpt lat="46.09425" lon="6.993"><ele></ele><time>2017-6-21T7:36:10Z</time></trkpt>
<trkpt lat="46.09424" lon="6.993"><ele></ele><time>2017-6-21T7:36:13Z</time></trkpt>
<trkpt lat="46.09424" lon="6.993"><ele></ele><time>2017-6-21T7:36:16Z</time></trkpt>
<trkpt lat="46.09423" lon="6.993"><ele></ele><time>2017-6-21T7:36:19Z</time></trkpt>
<trkpt lat="46.09423" lon="6.993"><ele></ele><time>2017-6-21T7:36:22Z</time></trkpt>
<trkpt lat="46.09423" lon="6.993"><ele></ele><time>2017-6-21T7:36:25Z</time></trkpt>
<trkpt lat="46.09422" lon="6.993"><ele></ele><time>2017-6-21T7:36:28Z</time></trkpt>
<trkpt lat="46.09422" lon="6.993"><ele></ele><time>2017-6-21T7:36:31Z</time></trkpt>
<trkpt lat="46.09421" lon="6.993"><ele></ele><time>2017-6-21T7:36:34Z</time></trkpt>
<trkpt lat="46.09421" lon="6.993"><ele></ele><time>2017-6-21T7:36:37Z</time></trkpt>
<trkpt lat="46.0942" lon="6.993"><ele></ele><time>2017-6-21T7:36:40Z</time></trkpt>
<trkpt lat="46.0942" lon="6.993"><ele></ele><time>2017-6-21T7:36:43Z</time></trkpt>
<trkpt lat="46.0942" lon="6.993"><ele></ele><time>2017-6-21T7:36:46Z</time></trkpt>
<trkpt lat="46.09419" lon="6.993"><ele></ele><time>2017-6-21T7:36:49Z</time></trkpt>
<trkpt lat="46.09419" lon="6.993"><ele></ele><time>2017-6-21T7:36:52Z</time></trkpt>
<trkpt lat="46.09418" lon="6.99301"><ele></ele><time>2017-6-21T7:36:55Z</time></trkpt>
<trkpt lat="46.09415" lon="6.99301"><ele></ele><time>2017-6-21T7:36:58Z</time></trkpt>
<trkpt lat="46.09413" lon="6.99302"><ele></ele><time>2017-6-21T7:37:1Z</time></trkpt>
<trkpt lat="46.09411" lon="6.99302"><ele></ele><time>2017-6-21T7:37:4Z</time></trkpt>
<trkpt lat="46.09409" lon="6.99302"><ele></ele><time>2017-6-21T7:37:7Z</time></trkpt>
<trkpt lat="46.09407" lon="6.99303"><ele></ele><time>2017-6-21T7:37:10Z</time></trkpt>
<trkpt lat="46.09405" lon="6.99303"><ele></ele><time>2017-6-21T7:37:13Z</time></trkpt>
<trkpt lat="46.09403" lon="6.99304"><ele></ele><time>2017-6-21T7:37:16Z</time></trkpt>
<trkpt lat="46.09401" lon="6.99304"><ele></ele><time>2017-6-21T7:37:19Z</time></trkpt>
<trkpt lat="46.09399" lon="6.99305"><ele></ele><time>2017-6-21T7:37:22Z</time></trkpt>
<trkpt lat="46.09397" lon="6.99305"><ele></ele><time>2017-6-21T7:37:25Z</time></trkpt>
<trkpt lat="46.09395" lon="6.99305"><ele></ele><time>2017-6-21T7:37:28Z</time></trkpt>
<trkpt lat="46.09393" lon="6.99306"><ele></ele><time>2017-6-21T7:37:31Z</time></trkpt>
<trkpt lat="46.0939" lon="6.99306"><ele></ele><time>2017-6-21T7:37:34Z</time></trkpt>
<trkpt lat="46.09388" lon="6.99307"><ele></ele><time>2017-6-21T7:37:37Z</time></trkpt>
<trkpt lat="46.09386" lon="6.99307"><ele></ele><time>2017-6-21T7:37:40Z</time></trkpt>
<trkpt lat="46.09384" lon="6.99308"><ele></ele><time>2017-6-21T7:37:43Z</time></trkpt>
<trkpt lat="46.09382" lon="6.99308"><ele></ele><time>2017-6-21T7:37:46Z</time></trkpt>
<trkpt lat="46.0938" lon="6.99309"><ele></ele><time>2017-6-21T7:37:49Z</time></trkpt>
<trkpt lat="46.09378" lon="6.99309"><ele></ele><time>2017-6-21T7:37:52Z</time></trkpt>
<trkpt lat="46.09377" lon="6.99309"><ele></ele><time>2017-6-21T7:37:55Z</time></trkpt>
<trkpt lat="46.09379" lon="6.99307"><ele></ele><time>2017-6-21T7:37:58Z</time></trkpt>
<trkpt lat="46.09381" lon="6.99305"><ele></ele><time>2017-6-21T7:38:1Z</time></trkpt>
<trkpt lat="46.09383" lon="6.99303"><ele></ele><time>2017-6-21T7:38:4Z</time></trkpt>
<trkpt lat="46.09386" lon="6.99301"><ele></ele><time>2017-6-21T7:38:7Z</time></trkpt>
<trkpt lat="46.09388" lon="6.99298"><ele></ele><time>2017-6-21T7:38:10Z</time></trkpt>
<trkpt lat="46.09389" lon="6.99297"><ele></ele><time>2017-6-21T7:38:13Z</time></trkpt>
<trkpt lat="46.0939" lon="6.99296"><ele></ele><time>2017-6-21T7:38:16Z</time></trkpt>
<trkpt lat="46.09392" lon="6.99294"><ele></ele><time>2017-6-21T7:38:19Z</time></trkpt>
<trkpt lat="46.09394" lon="6.99292"><ele></ele><time>2017-6-21T7:38:22Z</time></trkpt>
<trkpt lat="46.09397" lon="6.9929"><ele></ele><time>2017-6-21T7:38:25Z</time></trkpt>
<trkpt lat="46.09399" lon="6.99288"><ele></ele><time>2017-6-21T7:38:28Z</time></trkpt>
<trkpt lat="46.09401" lon="6.99286"><ele></ele><time>2017-6-21T7:38:31Z</time></trkpt>
<trkpt lat="46.09403" lon="6.99284"><ele></ele><time>2017-6-21T7:38:34Z</time></trkpt>
<trkpt lat="46.09406" lon="6.99282"><ele></ele><time>2017-6-21T7:38:37Z</time></trkpt>
<trkpt lat="46.09408" lon="6.9928"><ele></ele><time>2017-6-21T7:38:40Z</time></trkpt>
<trkpt lat="46.0941" lon="6.99279"><ele></ele><time>2017-6-21T7:38:43Z</time></trkpt>
<trkpt lat="46.09412" lon="6.99279"><ele></ele><time>2017-6-21T7:38:46Z</time></trkpt>
<trkpt lat="46.09413" lon="6.99278"><ele></ele><time>2017-6-21T7:38:49Z</time></trkpt>
<trkpt lat="46.09415" lon="6.99277"><ele></ele><time>2017-6-21T7:38:52Z</time></trkpt>
<trkpt lat="46.09417" lon="6.99277"><ele></ele><time>2017-6-21T7:38:55Z</time></trkpt>
<trkpt lat="46.09419" lon="6.99276"><ele></ele><time>2017-6-21T7:38:58Z</time></trkpt>
<trkpt lat="46.09421" lon="6.99276"><ele></ele><time>2017-6-21T7:39:1Z</time></trkpt>
<trkpt lat="46.09423" lon="6.99275"><ele></ele><time>2017-6-21T7:39:4Z</time></trkpt>
<trkpt lat="46.09425" lon="6.99275"><ele></ele><time>2017-6-21T7:39:7Z</time></trkpt>
<trkpt lat="46.09427" lon="6.99274"><ele></ele><time>2017-6-21T7:39:10Z</time></trkpt>
<trkpt lat="46.09429" lon="6.99273"><ele></ele><time>2017-6-21T7:39:13Z</time></trkpt>
<trkpt lat="46.0943" lon="6.99273"><ele></ele><time>2017-6-21T7:39:16Z</time></trkpt>
<trkpt lat="46.09432" lon="6.99272"><ele></ele><time>2017-6-21T7:39:19Z</time></trkpt>
<trkpt lat="46.09434" lon="6.99272"><ele></ele><time>2017-6-21T7:39:22Z</time></trkpt>
<trkpt lat="46.09436" lon="6.99271"><ele></ele><time>2017-6-21T7:39:25Z</time></trkpt>
<trkpt lat="46.09438" lon="6.99271"><ele></ele><time>2017-6-21T7:39:28Z</time></trkpt>
<trkpt lat="46.0944" lon="6.9927"><ele></ele><time>2017-6-21T7:39:31Z</time></trkpt>
<trkpt lat="46.09442" lon="6.9927"><ele></ele><time>2017-6-21T7:39:34Z</time></trkpt>
<trkpt lat="46.09444" lon="6.99269"><ele></ele><time>2017-6-21T7:39:37Z</time></trkpt>
<trkpt lat="46.09446" lon="6.99268"><ele></ele><time>2017-6-21T7:39:40Z</time></trkpt>
<trkpt lat="46.09447" lon="6.99268"><ele></ele><time>2017-6-21T7:39:43Z</time></trkpt>
<trkpt lat="46.09449" lon="6.99267"><ele></ele><time>2017-6-21T7:39:46Z</time></trkpt>
<trkpt lat="46.09451" lon="6.99267"><ele></ele><time>2017-6-21T7:39:49Z</time></trkpt>
<trkpt lat="46.09453" lon="6.99266"><ele></ele><time>2017-6-21T7:39:52Z</time></trkpt>
<trkpt lat="46.09454" lon="6.99263"><ele></ele><time>2017-6-21T7:39:55Z</time></trkpt>
<trkpt lat="46.09455" lon="6.9926"><ele></ele><time>2017-6-21T7:39:58Z</time></trkpt>
<trkpt lat="46.09456" lon="6.99258"><ele></ele><time>2017-6-21T7:40:1Z</time></trkpt>
<trkpt lat="46.09457" lon="6.99257"><ele></ele><time>2017-6-21T7:40:4Z</time></trkpt>
<trkpt lat="46.09456" lon="6.99257"><ele></ele><time>2017-6-21T7:40:7Z</time></trkpt>
<trkpt lat="46.09454" lon="6.99257"><ele></ele><time>2017-6-21T7:40:10Z</time></trkpt>
<trkpt lat="46.09452" lon="6.99257"><ele></ele><time>2017-6-21T7:40:13Z</time></trkpt>
<trkpt lat="46.09451" lon="6.99258"><ele></ele><time>2017-6-21T7:40:16Z</time></trkpt>
<trkpt lat="46.09449" lon="6.99258"><ele></ele><time>2017-6-21T7:40:19Z</time></trkpt>
<trkpt lat="46.09447" lon="6.99258"><ele></ele><time>2017-6-21T7:40:22Z</time></trkpt>
<trkpt lat="46.09445" lon="6.99259"><ele></ele><time>2017-6-21T7:40:25Z</time></trkpt>
<trkpt lat="46.09444" lon="6.99259"><ele></ele><time>2017-6-21T7:40:28Z</time></trkpt>
<trkpt lat="46.09442" lon="6.99259"><ele></ele><time>2017-6-21T7:40:31Z</time></trkpt>
<trkpt lat="46.0944" lon="6.99259"><ele></ele><time>2017-6-21T7:40:34Z</time></trkpt>
<trkpt lat="46.09439" lon="6.9926"><ele></ele><time>2017-6-21T7:40:37Z</time></trkpt>
<trkpt lat="46.09437" lon="6.9926"><ele></ele><time>2017-6-21T7:40:40Z</time></trkpt>
<trkpt lat="46.09435" lon="6.9926"><ele></ele><time>2017-6-21T7:40:43Z</time></trkpt>
<trkpt lat="46.09433" lon="6.99261"><ele></ele><time>2017-6-21T7:40:46Z</time></trkpt>
<trkpt lat="46.09433" lon="6.99261"><ele></ele><time>2017-6-21T7:40:49Z</time></trkpt>
<trkpt lat="46.09432" lon="6.99261"><ele></ele><time>2017-6-21T7:40:52Z</time></trkpt>
<trkpt lat="46.0943" lon="6.99261"><ele></ele><time>2017-6-21T7:40:55Z</time></trkpt>
<trkpt lat="46.09428" lon="6.99261"><ele></ele><time>2017-6-21T7:40:58Z</time></trkpt>
<trkpt lat="46.09426" lon="6.99262"><ele></ele><time>2017-6-21T7:41:1Z</time></trkpt>
<trkpt lat="46.09425" lon="6.99262"><ele></ele><time>2017-6-21T7:41:4Z</time></trkpt>
<trkpt lat="46.09423" lon="6.99262"><ele></ele><time>2017-6-21T7:41:7Z</time></trkpt>
<trkpt lat="46.09422" lon="6.99262"><ele></ele><time>2017-6-21T7:41:10Z</time></trkpt>
<trkpt lat="46.09421" lon="6.99263"><ele></ele><time>2017-6-21T7:41:13Z</time></trkpt>
<trkpt lat="46.0942" lon="6.99263"><ele></ele><time>2017-6-21T7:41:16Z</time></trkpt>
<trkpt lat="46.09418" lon="6.99263"><ele></ele><time>2017-6-21T7:41:19Z</time></trkpt>
<trkpt lat="46.09416" lon="6.99263"><ele></ele><time>2017-6-21T7:41:22Z</time></trkpt>
<trkpt lat="46.09414" lon="6.99264"><ele></ele><time>2017-6-21T7:41:25Z</time></trkpt>
<trkpt lat="46.09413" lon="6.99264"><ele></ele><time>2017-6-21T7:41:28Z</time></trkpt>
<trkpt lat="46.09412" lon="6.99264"><ele></ele><time>2017-6-21T7:41:31Z</time></trkpt>
<trkpt lat="46.09411" lon="6.99264"><ele></ele><time>2017-6-21T7:41:34Z</time></trkpt>
<trkpt lat="46.09409" lon="6.99265"><ele></ele><time>2017-6-21T7:41:37Z</time></trkpt>
<trkpt lat="46.09407" lon="6.99265"><ele></ele><time>2017-6-21T7:41:40Z</time></trkpt>
<trkpt lat="46.09405" lon="6.99266"><ele></ele><time>2017-6-21T7:41:43Z</time></trkpt>
<trkpt lat="46.09403" lon="6.99266"><ele></ele><time>2017-6-21T7:41:46Z</time></trkpt>
<trkpt lat="46.09401" lon="6.99267"><ele></ele><time>2017-6-21T7:41:49Z</time></trkpt>
<trkpt lat="46.09399" lon="6.99267"><ele></ele><time>2017-6-21T7:41:52Z</time></trkpt>
<trkpt lat="46.09397" lon="6.99268"><ele></ele><time>2017-6-21T7:41:55Z</time></trkpt>
<trkpt lat="46.09395" lon="6.99268"><ele></ele><time>2017-6-21T7:41:58Z</time></trkpt>
<trkpt lat="46.0937" lon="6.99275"><ele></ele><time>2017-6-21T7:42:1Z</time></trkpt>
<trkpt lat="46.0937" lon="6.99275"><ele></ele><time>2017-6-21T7:42:4Z</time></trkpt>
<trkpt lat="46.09346" lon="6.99281"><ele></ele><time>2017-6-21T7:42:7Z</time></trkpt>
<trkpt lat="46.09345" lon="6.99281"><ele></ele><time>2017-6-21T7:42:10Z</time></trkpt>
<trkpt lat="46.09345" lon="6.99282"><ele></ele><time>2017-6-21T7:42:13Z</time></trkpt>
<trkpt lat="46.09344" lon="6.99282"><ele></ele><time>2017-6-21T7:42:16Z</time></trkpt>
<trkpt lat="46.09343" lon="6.99282"><ele></ele><time>2017-6-21T7:42:19Z</time></trkpt>
<trkpt lat="46.09342" lon="6.99282"><ele></ele><time>2017-6-21T7:42:22Z</time></trkpt>
<trkpt lat="46.09342" lon="6.99282"><ele></ele><time>2017-6-21T7:42:25Z</time></trkpt>
<trkpt lat="46.09342" lon="6.99282"><ele></ele><time>2017-6-21T7:42:28Z</time></trkpt>
<trkpt lat="46.09341" lon="6.99283"><ele></ele><time>2017-6-21T7:42:31Z</time></trkpt>
<trkpt lat="46.0934" lon="6.99283"><ele></ele><time>2017-6-21T7:42:34Z</time></trkpt>
<trkpt lat="46.09339" lon="6.99283"><ele></ele><time>2017-6-21T7:42:37Z</time></trkpt>
<trkpt lat="46.09338" lon="6.99283"><ele></ele><time>2017-6-21T7:42:40Z</time></trkpt>
<trkpt lat="46.09338" lon="6.99283"><ele></ele><time>2017-6-21T7:42:43Z</time></trkpt>
<trkpt lat="46.09337" lon="6.99284"><ele></ele><time>2017-6-21T7:42:46Z</time></trkpt>
<trkpt lat="46.09336" lon="6.99284"><ele></ele><time>2017-6-21T7:42:49Z</time></trkpt>
<trkpt lat="46.09334" lon="6.99284"><ele></ele><time>2017-6-21T7:42:52Z</time></trkpt>
<trkpt lat="46.09332" lon="6.99285"><ele></ele><time>2017-6-21T7:42:55Z</time></trkpt>
<trkpt lat="46.0933" lon="6.99285"><ele></ele><time>2017-6-21T7:42:58Z</time></trkpt>
<trkpt lat="46.09328" lon="6.99285"><ele></ele><time>2017-6-21T7:43:1Z</time></trkpt>
<trkpt lat="46.09326" lon="6.99286"><ele></ele><time>2017-6-21T7:43:4Z</time></trkpt>
<trkpt lat="46.09324" lon="6.99286"><ele></ele><time>2017-6-21T7:43:7Z</time></trkpt>
<trkpt lat="46.09322" lon="6.99287"><ele></ele><time>2017-6-21T7:43:10Z</time></trkpt>
<trkpt lat="46.09319" lon="6.99287"><ele></ele><time>2017-6-21T7:43:13Z</time></trkpt>
<trkpt lat="46.09317" lon="6.99287"><ele></ele><time>2017-6-21T7:43:16Z</time></trkpt>
<trkpt lat="46.09316" lon="6.99288"><ele></ele><time>2017-6-21T7:43:19Z</time></trkpt>
<trkpt lat="46.09315" lon="6.99288"><ele></ele><time>2017-6-21T7:43:22Z</time></trkpt>
<trkpt lat="46.09313" lon="6.99288"><ele></ele><time>2017-6-21T7:43:25Z</time></trkpt>
<trkpt lat="46.09311" lon="6.99289"><ele></ele><time>2017-6-21T7:43:28Z</time></trkpt>
<trkpt lat="46.09309" lon="6.99289"><ele></ele><time>2017-6-21T7:43:31Z</time></trkpt>
<trkpt lat="46.09307" lon="6.99289"><ele></ele><time>2017-6-21T7:43:34Z</time></trkpt>
<trkpt lat="46.09305" lon="6.9929"><ele></ele><time>2017-6-21T7:43:37Z</time></trkpt>
<trkpt lat="46.09304" lon="6.9929"><ele></ele><time>2017-6-21T7:43:40Z</time></trkpt>
<trkpt lat="46.09305" lon="6.99288"><ele></ele><time>2017-6-21T7:43:43Z</time></trkpt>
<trkpt lat="46.09307" lon="6.99286"><ele></ele><time>2017-6-21T7:43:46Z</time></trkpt>
<trkpt lat="46.09308" lon="6.99285"><ele></ele><time>2017-6-21T7:43:49Z</time></trkpt>
<trkpt lat="46.0931" lon="6.99283"><ele></ele><time>2017-6-21T7:43:52Z</time></trkpt>
<trkpt lat="46.09311" lon="6.99281"><ele></ele><time>2017-6-21T7:43:55Z</time></trkpt>
<trkpt lat="46.09313" lon="6.9928"><ele></ele><time>2017-6-21T7:43:58Z</time></trkpt>
<trkpt lat="46.09314" lon="6.99278"><ele></ele><time>2017-6-21T7:44:1Z</time></trkpt>
<trkpt lat="46.09316" lon="6.99276"><ele></ele><time>2017-6-21T7:44:4Z</time></trkpt>
<trkpt lat="46.09317" lon="6.99275"><ele></ele><time>2017-6-21T7:44:7Z</time></trkpt>
<trkpt lat="46.09319" lon="6.99273"><ele></ele><time>2017-6-21T7:44:10Z</time></trkpt>
<trkpt lat="46.09321" lon="6.99271"><ele></ele><time>2017-6-21T7:44:13Z</time></trkpt>
<trkpt lat="46.09322" lon="6.99269"><ele></ele><time>2017-6-21T7:44:16Z</time></trkpt>
<trkpt lat="46.09324" lon="6.99268"><ele></ele><time>2017-6-21T7:44:19Z</time></trkpt>
<trkpt lat="46.09325" lon="6.99266"><ele></ele><time>2017-6-21T7:44:22Z</time></trkpt>
<trkpt lat="46.09327" lon="6.99264"><ele></ele><time>2017-6-21T7:44:25Z</time></trkpt>
<trkpt lat="46.09328" lon="6.99263"><ele></ele><time>2017-6-21T7:44:28Z</time></trkpt>
<trkpt lat="46.0933" lon="6.99261"><ele></ele><time>2017-6-21T7:44:31Z</time></trkpt>
<trkpt lat="46.09331" lon="6.99259"><ele></ele><time>2017-6-21T7:44:34Z</time></trkpt>
<trkpt lat="46.09333" lon="6.99258"><ele></ele><time>2017-6-21T7:44:37Z</time></trkpt>
<trkpt lat="46.09334" lon="6.99256"><ele></ele><time>2017-6-21T7:44:40Z</time></trkpt>
<trkpt lat="46.09336" lon="6.99254"><ele></ele><time>2017-6-21T7:44:43Z</time></trkpt>
<trkpt lat="46.09337" lon="6.99253"><ele></ele><time>2017-6-21T7:44:46Z</time></trkpt>
<trkpt lat="46.09339" lon="6.99251"><ele></ele><time>2017-6-21T7:44:49Z</time></trkpt>
<trkpt lat="46.0934" lon="6.9925"><ele></ele><time>2017-6-21T7:44:52Z</time></trkpt>
<trkpt lat="46.09341" lon="6.99249"><ele></ele><time>2017-6-21T7:44:55Z</time></trkpt>
<trkpt lat="46.09342" lon="6.99248"><ele></ele><time>2017-6-21T7:44:58Z</time></trkpt>
<trkpt lat="46.09344" lon="6.99247"><ele></ele><time>2017-6-21T7:45:1Z</time></trkpt>
<trkpt lat="46.09346" lon="6.99245"><ele></ele><time>2017-6-21T7:45:4Z</time></trkpt>
<trkpt lat="46.09347" lon="6.99244"><ele></ele><time>2017-6-21T7:45:7Z</time></trkpt>
<trkpt lat="46.09349" lon="6.99243"><ele></ele><time>2017-6-21T7:45:10Z</time></trkpt>
<trkpt lat="46.09351" lon="6.99241"><ele></ele><time>2017-6-21T7:45:13Z</time></trkpt>
<trkpt lat="46.09352" lon="6.9924"><ele></ele><time>2017-6-21T7:45:16Z</time></trkpt>
<trkpt lat="46.09354" lon="6.99238"><ele></ele><time>2017-6-21T7:45:19Z</time></trkpt>
<trkpt lat="46.09356" lon="6.99237"><ele></ele><time>2017-6-21T7:45:22Z</time></trkpt>
<trkpt lat="46.09357" lon="6.99236"><ele></ele><time>2017-6-21T7:45:25Z</time></trkpt>
<trkpt lat="46.09359" lon="6.99234"><ele></ele><time>2017-6-21T7:45:28Z</time></trkpt>
<trkpt lat="46.09361" lon="6.99233"><ele></ele><time>2017-6-21T7:45:31Z</time></trkpt>
<trkpt lat="46.09362" lon="6.99232"><ele></ele><time>2017-6-21T7:45:34Z</time></trkpt>
<trkpt lat="46.09364" lon="6.9923"><ele></ele><time>2017-6-21T7:45:37Z</time></trkpt>
<trkpt lat="46.09366" lon="6.99229"><ele></ele><time>2017-6-21T7:45:40Z</time></trkpt>
<trkpt lat="46.09367" lon="6.99227"><ele></ele><time>2017-6-21T7:45:43Z</time></trkpt>
<trkpt lat="46.09369" lon="6.99226"><ele></ele><time>2017-6-21T7:45:46Z</time></trkpt>
<trkpt lat="46.09371" lon="6.99225"><ele></ele><time>2017-6-21T7:45:49Z</time></trkpt>
<trkpt lat="46.09372" lon="6.99223"><ele></ele><time>2017-6-21T7:45:52Z</time></trkpt>
<trkpt lat="46.09374" lon="6.99222"><ele></ele><time>2017-6-21T7:45:55Z</time></trkpt>
<trkpt lat="46.09376" lon="6.99221"><ele></ele><time>2017-6-21T7:45:58Z</time></trkpt>
<trkpt lat="46.09377" lon="6.99219"><ele></ele><time>2017-6-21T7:46:1Z</time></trkpt>
<trkpt lat="46.09378" lon="6.99219"><ele></ele><time>2017-6-21T7:46:4Z</time></trkpt>
<trkpt lat="46.09377" lon="6.99219"><ele></ele><time>2017-6-21T7:46:7Z</time></trkpt>
<trkpt lat="46.09376" lon="6.99219"><ele></ele><time>2017-6-21T7:46:10Z</time></trkpt>
<trkpt lat="46.09375" lon="6.99219"><ele></ele><time>2017-6-21T7:46:13Z</time></trkpt>
<trkpt lat="46.09374" lon="6.9922"><ele></ele><time>2017-6-21T7:46:16Z</time></trkpt>
<trkpt lat="46.09373" lon="6.9922"><ele></ele><time>2017-6-21T7:46:19Z</time></trkpt>
<trkpt lat="46.09372" lon="6.9922"><ele></ele><time>2017-6-21T7:46:22Z</time></trkpt>
<trkpt lat="46.0937" lon="6.9922"><ele></ele><time>2017-6-21T7:46:25Z</time></trkpt>
<trkpt lat="46.09369" lon="6.9922"><ele></ele><time>2017-6-21T7:46:28Z</time></trkpt>
<trkpt lat="46.09368" lon="6.9922"><ele></ele><time>2017-6-21T7:46:31Z</time></trkpt>
<trkpt lat="46.09367" lon="6.99221"><ele></ele><time>2017-6-21T7:46:34Z</time></trkpt>
<trkpt lat="46.09366" lon="6.99221"><ele></ele><time>2017-6-21T7:46:37Z</time></trkpt>
<trkpt lat="46.09365" lon="6.99221"><ele></ele><time>2017-6-21T7:46:40Z</time></trkpt>
<trkpt lat="46.09365" lon="6.99221"><ele></ele><time>2017-6-21T7:46:43Z</time></trkpt>
<trkpt lat="46.09364" lon="6.99221"><ele></ele><time>2017-6-21T7:46:46Z</time></trkpt>
<trkpt lat="46.09363" lon="6.99221"><ele></ele><time>2017-6-21T7:46:49Z</time></trkpt>
<trkpt lat="46.09362" lon="6.99222"><ele></ele><time>2017-6-21T7:46:52Z</time></trkpt>
<trkpt lat="46.0936" lon="6.99222"><ele></ele><time>2017-6-21T7:46:55Z</time></trkpt>
<trkpt lat="46.09359" lon="6.99222"><ele></ele><time>2017-6-21T7:46:58Z</time></trkpt>
<trkpt lat="46.09358" lon="6.99222"><ele></ele><time>2017-6-21T7:47:1Z</time></trkpt>
<trkpt lat="46.09344" lon="6.99223"><ele></ele><time>2017-6-21T7:47:4Z</time></trkpt>
<trkpt lat="46.09344" lon="6.99223"><ele></ele><time>2017-6-21T7:47:7Z</time></trkpt>
<trkpt lat="46.0933" lon="6.99224"><ele></ele><time>2017-6-21T7:47:10Z</time></trkpt>
<trkpt lat="46.0933" lon="6.99223"><ele></ele><time>2017-6-21T7:47:13Z</time></trkpt>
<trkpt lat="46.0933" lon="6.99223"><ele></ele><time>2017-6-21T7:47:16Z</time></trkpt>
<trkpt lat="46.09329" lon="6.99222"><ele></ele><time>2017-6-21T7:47:19Z</time></trkpt>
<trkpt lat="46.09329" lon="6.99221"><ele></ele><time>2017-6-21T7:47:22Z</time></trkpt>
<trkpt lat="46.09329" lon="6.99221"><ele></ele><time>2017-6-21T7:47:25Z</time></trkpt>
<trkpt lat="46.09328" lon="6.9922"><ele></ele><time>2017-6-21T7:47:28Z</time></trkpt>
<trkpt lat="46.09328" lon="6.9922"><ele></ele><time>2017-6-21T7:47:31Z</time></trkpt>
<trkpt lat="46.09328" lon="6.9922"><ele></ele><time>2017-6-21T7:47:34Z</time></trkpt>
<trkpt lat="46.09328" lon="6.99219"><ele></ele><time>2017-6-21T7:47:37Z</time></trkpt>
<trkpt lat="46.09327" lon="6.99219"><ele></ele><time>2017-6-21T7:47:40Z</time></trkpt>
<trkpt lat="46.09327" lon="6.99218"><ele></ele><time>2017-6-21T7:47:43Z</time></trkpt>
<trkpt lat="46.09327" lon="6.99218"><ele></ele><time>2017-6-21T7:47:46Z</time></trkpt>
<trkpt lat="46.09326" lon="6.99217"><ele></ele><time>2017-6-21T7:47:49Z</time></trkpt>
<trkpt lat="46.09326" lon="6.99217"><ele></ele><time>2017-6-21T7:47:52Z</time></trkpt>
<trkpt lat="46.09326" lon="6.99216"><ele></ele><time>2017-6-21T7:47:55Z</time></trkpt>
<trkpt lat="46.09325" lon="6.99215"><ele></ele><time>2017-6-21T7:47:58Z</time></trkpt>
<trkpt lat="46.09325" lon="6.99215"><ele></ele><time>2017-6-21T7:48:1Z</time></trkpt>
<trkpt lat="46.09325" lon="6.99214"><ele></ele><time>2017-6-21T7:48:4Z</time></trkpt>
<trkpt lat="46.09324" lon="6.99214"><ele></ele><time>2017-6-21T7:48:7Z</time></trkpt>
<trkpt lat="46.09324" lon="6.99213"><ele></ele><time>2017-6-21T7:48:10Z</time></trkpt>
<trkpt lat="46.09324" lon="6.99212"><ele></ele><time>2017-6-21T7:48:13Z</time></trkpt>
<trkpt lat="46.09324" lon="6.99211"><ele></ele><time>2017-6-21T7:48:16Z</time></trkpt>
<trkpt lat="46.09324" lon="6.9921"><ele></ele><time>2017-6-21T7:48:19Z</time></trkpt>
<trkpt lat="46.09325" lon="6.99209"><ele></ele><time>2017-6-21T7:48:22Z</time></trkpt>
<trkpt lat="46.09325" lon="6.99208"><ele></ele><time>2017-6-21T7:48:25Z</time></trkpt>
<trkpt lat="46.09325" lon="6.99207"><ele></ele><time>2017-6-21T7:48:28Z</time></trkpt>
<trkpt lat="46.09325" lon="6.99206"><ele></ele><time>2017-6-21T7:48:31Z</time></trkpt>
<trkpt lat="46.09325" lon="6.99205"><ele></ele><time>2017-6-21T7:48:34Z</time></trkpt>
<trkpt lat="46.09325" lon="6.99204"><ele></ele><time>2017-6-21T7:48:37Z</time></trkpt>
<trkpt lat="46.09325" lon="6.99203"><ele></ele><time>2017-6-21T7:48:40Z</time></trkpt>
<trkpt lat="46.09325" lon="6.99202"><ele></ele><time>2017-6-21T7:48:43Z</time></trkpt>
<trkpt lat="46.09325" lon="6.99201"><ele></ele><time>2017-6-21T7:48:46Z</time></trkpt>
<trkpt lat="46.09325" lon="6.99201"><ele></ele><time>2017-6-21T7:48:49Z</time></trkpt>
<trkpt lat="46.09324" lon="6.99201"><ele></ele><time>2017-6-21T7:48:52Z</time></trkpt>
<trkpt lat="46.09322" lon="6.99201"><ele></ele><time>2017-6-21T7:48:55Z</time></trkpt>
<trkpt lat="46.0932" lon="6.99201"><ele></ele><time>2017-6-21T7:48:58Z</time></trkpt>
<trkpt lat="46.09319" lon="6.99201"><ele></ele><time>2017-6-21T7:49:1Z</time></trkpt>
<trkpt lat="46.09317" lon="6.99201"><ele></ele><time>2017-6-21T7:49:4Z</time></trkpt>
<trkpt lat="46.09315" lon="6.992"><ele></ele><time>2017-6-21T7:49:7Z</time></trkpt>
<trkpt lat="46.09313" lon="6.992"><ele></ele><time>2017-6-21T7:49:10Z</time></trkpt>
<trkpt lat="46.09311" lon="6.992"><ele></ele><time>2017-6-21T7:49:13Z</time></trkpt>
<trkpt lat="46.09309" lon="6.992"><ele></ele><time>2017-6-21T7:49:16Z</time></trkpt>
<trkpt lat="46.09308" lon="6.992"><ele></ele><time>2017-6-21T7:49:19Z</time></trkpt>
<trkpt lat="46.09306" lon="6.992"><ele></ele><time>2017-6-21T7:49:22Z</time></trkpt>
<trkpt lat="46.09304" lon="6.992"><ele></ele><time>2017-6-21T7:49:25Z</time></trkpt>
<trkpt lat="46.09302" lon="6.992"><ele></ele><time>2017-6-21T7:49:28Z</time></trkpt>
<trkpt lat="46.093" lon="6.992"><ele></ele><time>2017-6-21T7:49:31Z</time></trkpt>
<trkpt lat="46.09298" lon="6.992"><ele></ele><time>2017-6-21T7:49:34Z</time></trkpt>
<trkpt lat="46.09297" lon="6.992"><ele></ele><time>2017-6-21T7:49:37Z</time></trkpt>
<trkpt lat="46.09295" lon="6.99199"><ele></ele><time>2017-6-21T7:49:40Z</time></trkpt>
<trkpt lat="46.09293" lon="6.99199"><ele></ele><time>2017-6-21T7:49:43Z</time></trkpt>
<trkpt lat="46.09291" lon="6.99199"><ele></ele><time>2017-6-21T7:49:46Z</time></trkpt>
<trkpt lat="46.09289" lon="6.99199"><ele></ele><time>2017-6-21T7:49:49Z</time></trkpt>
<trkpt lat="46.09287" lon="6.99199"><ele></ele><time>2017-6-21T7:49:52Z</time></trkpt>
<trkpt lat="46.09286" lon="6.99199"><ele></ele><time>2017-6-21T7:49:55Z</time></trkpt>
<trkpt lat="46.09284" lon="6.99199"><ele></ele><time>2017-6-21T7:49:58Z</time></trkpt>
<trkpt lat="46.09282" lon="6.99199"><ele></ele><time>2017-6-21T7:50:1Z</time></trkpt>
<trkpt lat="46.0928" lon="6.99199"><ele></ele><time>2017-6-21T7:50:4Z</time></trkpt>
<trkpt lat="46.0928" lon="6.99199"><ele></ele><time>2017-6-21T7:50:7Z</time></trkpt>
<trkpt lat="46.0928" lon="6.99198"><ele></ele><time>2017-6-21T7:50:10Z</time></trkpt>
<trkpt lat="46.09279" lon="6.99198"><ele></ele><time>2017-6-21T7:50:13Z</time></trkpt>
<trkpt lat="46.09279" lon="6.99198"><ele></ele><time>2017-6-21T7:50:16Z</time></trkpt>
<trkpt lat="46.09279" lon="6.99198"><ele></ele><time>2017-6-21T7:50:19Z</time></trkpt>
<trkpt lat="46.09278" lon="6.99198"><ele></ele><time>2017-6-21T7:50:22Z</time></trkpt>
<trkpt lat="46.09278" lon="6.99198"><ele></ele><time>2017-6-21T7:50:25Z</time></trkpt>
<trkpt lat="46.09278" lon="6.99198"><ele></ele><time>2017-6-21T7:50:28Z</time></trkpt>
<trkpt lat="46.09277" lon="6.99198"><ele></ele><time>2017-6-21T7:50:31Z</time></trkpt>
<trkpt lat="46.09277" lon="6.99198"><ele></ele><time>2017-6-21T7:50:34Z</time></trkpt>
<trkpt lat="46.09277" lon="6.99197"><ele></ele><time>2017-6-21T7:50:37Z</time></trkpt>
<trkpt lat="46.09276" lon="6.99197"><ele></ele><time>2017-6-21T7:50:40Z</time></trkpt>
<trkpt lat="46.09276" lon="6.99197"><ele></ele><time>2017-6-21T7:50:43Z</time></trkpt>
<trkpt lat="46.09276" lon="6.99197"><ele></ele><time>2017-6-21T7:50:46Z</time></trkpt>
<trkpt lat="46.09275" lon="6.99197"><ele></ele><time>2017-6-21T7:50:49Z</time></trkpt>
<trkpt lat="46.09275" lon="6.99197"><ele></ele><time>2017-6-21T7:50:52Z</time></trkpt>
<trkpt lat="46.09275" lon="6.99197"><ele></ele><time>2017-6-21T7:50:55Z</time></trkpt>
<trkpt lat="46.09274" lon="6.99196"><ele></ele><time>2017-6-21T7:50:58Z</time></trkpt>
<trkpt lat="46.09274" lon="6.99196"><ele></ele><time>2017-6-21T7:51:1Z</time></trkpt>
<trkpt lat="46.09275" lon="6.99196"><ele></ele><time>2017-6-21T7:51:4Z</time></trkpt>
<trkpt lat="46.09275" lon="6.99195"><ele></ele><time>2017-6-21T7:51:7Z</time></trkpt>
<trkpt lat="46.09275" lon="6.99195"><ele></ele><time>2017-6-21T7:51:10Z</time></trkpt>
<trkpt lat="46.09275" lon="6.99194"><ele></ele><time>2017-6-21T7:51:13Z</time></trkpt>
<trkpt lat="46.09275" lon="6.99194"><ele></ele><time>2017-6-21T7:51:16Z</time></trkpt>
<trkpt lat="46.09275" lon="6.99193"><ele></ele><time>2017-6-21T7:51:19Z</time></trkpt>
<trkpt lat="46.09276" lon="6.99193"><ele></ele><time>2017-6-21T7:51:22Z</time></trkpt>
<trkpt lat="46.09276" lon="6.99193"><ele></ele><time>2017-6-21T7:51:25Z</time></trkpt>
<trkpt lat="46.09276" lon="6.99192"><ele></ele><time>2017-6-21T7:51:28Z</time></trkpt>
<trkpt lat="46.09276" lon="6.99192"><ele></ele><time>2017-6-21T7:51:31Z</time></trkpt>
<trkpt lat="46.09276" lon="6.99192"><ele></ele><time>2017-6-21T7:51:34Z</time></trkpt>
<trkpt lat="46.09276" lon="6.99191"><ele></ele><time>2017-6-21T7:51:37Z</time></trkpt>
<trkpt lat="46.09276" lon="6.99191"><ele></ele><time>2017-6-21T7:51:40Z</time></trkpt>
<trkpt lat="46.09277" lon="6.9919"><ele></ele><time>2017-6-21T7:51:43Z</time></trkpt>
<trkpt lat="46.09277" lon="6.9919"><ele></ele><time>2017-6-21T7:51:46Z</time></trkpt>
<trkpt lat="46.09277" lon="6.99189"><ele></ele><time>2017-6-21T7:51:49Z</time></trkpt>
<trkpt lat="46.09277" lon="6.99189"><ele></ele><time>2017-6-21T7:51:52Z</time></trkpt>
<trkpt lat="46.09277" lon="6.99189"><ele></ele><time>2017-6-21T7:51:55Z</time></trkpt>
<trkpt lat="46.09277" lon="6.99188"><ele></ele><time>2017-6-21T7:51:58Z</time></trkpt>
<trkpt lat="46.09277" lon="6.99188"><ele></ele><time>2017-6-21T7:52:1Z</time></trkpt>
<trkpt lat="46.09278" lon="6.99188"><ele></ele><time>2017-6-21T7:52:4Z</time></trkpt>
<trkpt lat="46.09278" lon="6.99187"><ele></ele><time>2017-6-21T7:52:7Z</time></trkpt>
<trkpt lat="46.09278" lon="6.99187"><ele></ele><time>2017-6-21T7:52:10Z</time></trkpt>
<trkpt lat="46.09278" lon="6.99186"><ele></ele><time>2017-6-21T7:52:13Z</time></trkpt>
<trkpt lat="46.09278" lon="6.99186"><ele></ele><time>2017-6-21T7:52:16Z</time></trkpt>
<trkpt lat="46.09267" lon="6.99188"><ele></ele><time>2017-6-21T7:52:19Z</time></trkpt>
<trkpt lat="46.09267" lon="6.99188"><ele></ele><time>2017-6-21T7:52:22Z</time></trkpt>
<trkpt lat="46.09255" lon="6.99191"><ele></ele><time>2017-6-21T7:52:25Z</time></trkpt>
<trkpt lat="46.09255" lon="6.99191"><ele></ele><time>2017-6-21T7:52:28Z</time></trkpt>
<trkpt lat="46.09254" lon="6.99192"><ele></ele><time>2017-6-21T7:52:31Z</time></trkpt>
<trkpt lat="46.09253" lon="6.99192"><ele></ele><time>2017-6-21T7:52:34Z</time></trkpt>
<trkpt lat="46.09252" lon="6.99192"><ele></ele><time>2017-6-21T7:52:37Z</time></trkpt>
<trkpt lat="46.09251" lon="6.99193"><ele></ele><time>2017-6-21T7:52:40Z</time></trkpt>
<trkpt lat="46.0925" lon="6.99193"><ele></ele><time>2017-6-21T7:52:43Z</time></trkpt>
<trkpt lat="46.0925" lon="6.99193"><ele></ele><time>2017-6-21T7:52:46Z</time></trkpt>
<trkpt lat="46.09249" lon="6.99193"><ele></ele><time>2017-6-21T7:52:49Z</time></trkpt>
<trkpt lat="46.09248" lon="6.99194"><ele></ele><time>2017-6-21T7:52:52Z</time></trkpt>
<trkpt lat="46.09247" lon="6.99194"><ele></ele><time>2017-6-21T7:52:55Z</time></trkpt>
<trkpt lat="46.09246" lon="6.99194"><ele></ele><time>2017-6-21T7:52:58Z</time></trkpt>
<trkpt lat="46.09245" lon="6.99195"><ele></ele><time>2017-6-21T7:53:1Z</time></trkpt>
<trkpt lat="46.09244" lon="6.99195"><ele></ele><time>2017-6-21T7:53:4Z</time></trkpt>
<trkpt lat="46.09243" lon="6.99195"><ele></ele><time>2017-6-21T7:53:7Z</time></trkpt>
<trkpt lat="46.09242" lon="6.99195"><ele></ele><time>2017-6-21T7:53:10Z</time></trkpt>
<trkpt lat="46.09241" lon="6.99196"><ele></ele><time>2017-6-21T7:53:13Z</time></trkpt>
<trkpt lat="46.0924" lon="6.99196"><ele></ele><time>2017-6-21T7:53:16Z</time></trkpt>
<trkpt lat="46.09239" lon="6.99196"><ele></ele><time>2017-6-21T7:53:19Z</time></trkpt>
<trkpt lat="46.09238" lon="6.99197"><ele></ele><time>2017-6-21T7:53:22Z</time></trkpt>
<trkpt lat="46.09237" lon="6.99197"><ele></ele><time>2017-6-21T7:53:25Z</time></trkpt>
<trkpt lat="46.09236" lon="6.99197"><ele></ele><time>2017-6-21T7:53:28Z</time></trkpt>
<trkpt lat="46.09235" lon="6.99198"><ele></ele><time>2017-6-21T7:53:31Z</time></trkpt>
<trkpt lat="46.09234" lon="6.99198"><ele></ele><time>2017-6-21T7:53:34Z</time></trkpt>
<trkpt lat="46.09232" lon="6.99198"><ele></ele><time>2017-6-21T7:53:37Z</time></trkpt>
<trkpt lat="46.0923" lon="6.99197"><ele></ele><time>2017-6-21T7:53:40Z</time></trkpt>
<trkpt lat="46.09227" lon="6.99197"><ele></ele><time>2017-6-21T7:53:43Z</time></trkpt>
<trkpt lat="46.09225" lon="6.99197"><ele></ele><time>2017-6-21T7:53:46Z</time></trkpt>
<trkpt lat="46.09223" lon="6.99197"><ele></ele><time>2017-6-21T7:53:49Z</time></trkpt>
<trkpt lat="46.09221" lon="6.99196"><ele></ele><time>2017-6-21T7:53:52Z</time></trkpt>
<trkpt lat="46.0922" lon="6.99196"><ele></ele><time>2017-6-21T7:53:55Z</time></trkpt>
<trkpt lat="46.09218" lon="6.99196"><ele></ele><time>2017-6-21T7:53:58Z</time></trkpt>
<trkpt lat="46.09216" lon="6.99196"><ele></ele><time>2017-6-21T7:54:1Z</time></trkpt>
<trkpt lat="46.09213" lon="6.99196"><ele></ele><time>2017-6-21T7:54:4Z</time></trkpt>
<trkpt lat="46.09211" lon="6.99195"><ele></ele><time>2017-6-21T7:54:7Z</time></trkpt>
<trkpt lat="46.09209" lon="6.99195"><ele></ele><time>2017-6-21T7:54:10Z</time></trkpt>
<trkpt lat="46.09206" lon="6.99195"><ele></ele><time>2017-6-21T7:54:13Z</time></trkpt>
<trkpt lat="46.09204" lon="6.99194"><ele></ele><time>2017-6-21T7:54:16Z</time></trkpt>
<trkpt lat="46.09202" lon="6.99194"><ele></ele><time>2017-6-21T7:54:19Z</time></trkpt>
<trkpt lat="46.09199" lon="6.99194"><ele></ele><time>2017-6-21T7:54:22Z</time></trkpt>
<trkpt lat="46.09197" lon="6.99194"><ele></ele><time>2017-6-21T7:54:25Z</time></trkpt>
<trkpt lat="46.09195" lon="6.99193"><ele></ele><time>2017-6-21T7:54:28Z</time></trkpt>
<trkpt lat="46.09192" lon="6.99193"><ele></ele><time>2017-6-21T7:54:31Z</time></trkpt>
<trkpt lat="46.0919" lon="6.99193"><ele></ele><time>2017-6-21T7:54:34Z</time></trkpt>
<trkpt lat="46.09189" lon="6.99193"><ele></ele><time>2017-6-21T7:54:37Z</time></trkpt>
<trkpt lat="46.09187" lon="6.99193"><ele></ele><time>2017-6-21T7:54:40Z</time></trkpt>
<trkpt lat="46.09185" lon="6.99193"><ele></ele><time>2017-6-21T7:54:43Z</time></trkpt>
<trkpt lat="46.09182" lon="6.99193"><ele></ele><time>2017-6-21T7:54:46Z</time></trkpt>
<trkpt lat="46.0918" lon="6.99193"><ele></ele><time>2017-6-21T7:54:49Z</time></trkpt>
<trkpt lat="46.09177" lon="6.99193"><ele></ele><time>2017-6-21T7:54:52Z</time></trkpt>
<trkpt lat="46.09175" lon="6.99194"><ele></ele><time>2017-6-21T7:54:55Z</time></trkpt>
<trkpt lat="46.09172" lon="6.99194"><ele></ele><time>2017-6-21T7:54:58Z</time></trkpt>
<trkpt lat="46.0917" lon="6.99194"><ele></ele><time>2017-6-21T7:55:1Z</time></trkpt>
<trkpt lat="46.09167" lon="6.99194"><ele></ele><time>2017-6-21T7:55:4Z</time></trkpt>
<trkpt lat="46.09165" lon="6.99194"><ele></ele><time>2017-6-21T7:55:7Z</time></trkpt>
<trkpt lat="46.09162" lon="6.99194"><ele></ele><time>2017-6-21T7:55:10Z</time></trkpt>
<trkpt lat="46.0916" lon="6.99194"><ele></ele><time>2017-6-21T7:55:13Z</time></trkpt>
<trkpt lat="46.09157" lon="6.99195"><ele></ele><time>2017-6-21T7:55:16Z</time></trkpt>
<trkpt lat="46.09154" lon="6.99195"><ele></ele><time>2017-6-21T7:55:19Z</time></trkpt>
<trkpt lat="46.09152" lon="6.99195"><ele></ele><time>2017-6-21T7:55:22Z</time></trkpt>
<trkpt lat="46.09149" lon="6.99195"><ele></ele><time>2017-6-21T7:55:25Z</time></trkpt>
<trkpt lat="46.09147" lon="6.99195"><ele></ele><time>2017-6-21T7:55:28Z</time></trkpt>
<trkpt lat="46.09144" lon="6.99195"><ele></ele><time>2017-6-21T7:55:31Z</time></trkpt>
<trkpt lat="46.09143" lon="6.99195"><ele></ele><time>2017-6-21T7:55:34Z</time></trkpt>
<trkpt lat="46.09142" lon="6.99195"><ele></ele><time>2017-6-21T7:55:37Z</time></trkpt>
<trkpt lat="46.09141" lon="6.99195"><ele></ele><time>2017-6-21T7:55:40Z</time></trkpt>
<trkpt lat="46.09139" lon="6.99195"><ele></ele><time>2017-6-21T7:55:43Z</time></trkpt>
<trkpt lat="46.09137" lon="6.99194"><ele></ele><time>2017-6-21T7:55:46Z</time></trkpt>
<trkpt lat="46.09134" lon="6.99194"><ele></ele><time>2017-6-21T7:55:49Z</time></trkpt>
<trkpt lat="46.09132" lon="6.99193"><ele></ele><time>2017-6-21T7:55:52Z</time></trkpt>
<trkpt lat="46.09129" lon="6.99193"><ele></ele><time>2017-6-21T7:55:55Z</time></trkpt>
<trkpt lat="46.09127" lon="6.99192"><ele></ele><time>2017-6-21T7:55:58Z</time></trkpt>
<trkpt lat="46.09124" lon="6.99192"><ele></ele><time>2017-6-21T7:56:1Z</time></trkpt>
<trkpt lat="46.09122" lon="6.99191"><ele></ele><time>2017-6-21T7:56:4Z</time></trkpt>
<trkpt lat="46.09119" lon="6.99191"><ele></ele><time>2017-6-21T7:56:7Z</time></trkpt>
<trkpt lat="46.09117" lon="6.9919"><ele></ele><time>2017-6-21T7:56:10Z</time></trkpt>
<trkpt lat="46.09114" lon="6.9919"><ele></ele><time>2017-6-21T7:56:13Z</time></trkpt>
<trkpt lat="46.09113" lon="6.99189"><ele></ele><time>2017-6-21T7:56:16Z</time></trkpt>
<trkpt lat="46.09111" lon="6.99189"><ele></ele><time>2017-6-21T7:56:19Z</time></trkpt>
<trkpt lat="46.09109" lon="6.99189"><ele></ele><time>2017-6-21T7:56:22Z</time></trkpt>
<trkpt lat="46.09106" lon="6.99188"><ele></ele><time>2017-6-21T7:56:25Z</time></trkpt>
<trkpt lat="46.09104" lon="6.99188"><ele></ele><time>2017-6-21T7:56:28Z</time></trkpt>
<trkpt lat="46.09101" lon="6.99187"><ele></ele><time>2017-6-21T7:56:31Z</time></trkpt>
<trkpt lat="46.09099" lon="6.99187"><ele></ele><time>2017-6-21T7:56:34Z</time></trkpt>
<trkpt lat="46.09098" lon="6.99186"><ele></ele><time>2017-6-21T7:56:37Z</time></trkpt>
<trkpt lat="46.09097" lon="6.99186"><ele></ele><time>2017-6-21T7:56:40Z</time></trkpt>
<trkpt lat="46.09096" lon="6.99184"><ele></ele><time>2017-6-21T7:56:43Z</time></trkpt>
<trkpt lat="46.09095" lon="6.99182"><ele></ele><time>2017-6-21T7:56:46Z</time></trkpt>
<trkpt lat="46.09094" lon="6.99181"><ele></ele><time>2017-6-21T7:56:49Z</time></trkpt>
<trkpt lat="46.09093" lon="6.99179"><ele></ele><time>2017-6-21T7:56:52Z</time></trkpt>
<trkpt lat="46.09092" lon="6.99178"><ele></ele><time>2017-6-21T7:56:55Z</time></trkpt>
<trkpt lat="46.09095" lon="6.99176"><ele></ele><time>2017-6-21T7:56:58Z</time></trkpt>
<trkpt lat="46.09098" lon="6.99175"><ele></ele><time>2017-6-21T7:57:1Z</time></trkpt>
<trkpt lat="46.09101" lon="6.99174"><ele></ele><time>2017-6-21T7:57:4Z</time></trkpt>
<trkpt lat="46.09103" lon="6.99173"><ele></ele><time>2017-6-21T7:57:7Z</time></trkpt>
<trkpt lat="46.09106" lon="6.99172"><ele></ele><time>2017-6-21T7:57:10Z</time></trkpt>
<trkpt lat="46.09109" lon="6.99171"><ele></ele><time>2017-6-21T7:57:13Z</time></trkpt>
<trkpt lat="46.09112" lon="6.9917"><ele></ele><time>2017-6-21T7:57:16Z</time></trkpt>
<trkpt lat="46.09114" lon="6.99169"><ele></ele><time>2017-6-21T7:57:19Z</time></trkpt>
<trkpt lat="46.09117" lon="6.99168"><ele></ele><time>2017-6-21T7:57:22Z</time></trkpt>
<trkpt lat="46.0912" lon="6.99166"><ele></ele><time>2017-6-21T7:57:25Z</time></trkpt>
<trkpt lat="46.09123" lon="6.99165"><ele></ele><time>2017-6-21T7:57:28Z</time></trkpt>
<trkpt lat="46.09125" lon="6.99164"><ele></ele><time>2017-6-21T7:57:31Z</time></trkpt>
<trkpt lat="46.09128" lon="6.99163"><ele></ele><time>2017-6-21T7:57:34Z</time></trkpt>
<trkpt lat="46.09131" lon="6.99162"><ele></ele><time>2017-6-21T7:57:37Z</time></trkpt>
<trkpt lat="46.09133" lon="6.99161"><ele></ele><time>2017-6-21T7:57:40Z</time></trkpt>
<trkpt lat="46.09135" lon="6.9916"><ele></ele><time>2017-6-21T7:57:43Z</time></trkpt>
<trkpt lat="46.09133" lon="6.9916"><ele></ele><time>2017-6-21T7:57:46Z</time></trkpt>
<trkpt lat="46.0913" lon="6.99159"><ele></ele><time>2017-6-21T7:57:49Z</time></trkpt>
<trkpt lat="46.09128" lon="6.99159"><ele></ele><time>2017-6-21T7:57:52Z</time></trkpt>
<trkpt lat="46.09126" lon="6.99159"><ele></ele><time>2017-6-21T7:57:55Z</time></trkpt>
<trkpt lat="46.09123" lon="6.99158"><ele></ele><time>2017-6-21T7:57:58Z</time></trkpt>
<trkpt lat="46.09121" lon="6.99158"><ele></ele><time>2017-6-21T7:58:1Z</time></trkpt>
<trkpt lat="46.09118" lon="6.99158"><ele></ele><time>2017-6-21T7:58:4Z</time></trkpt>
<trkpt lat="46.09116" lon="6.99158"><ele></ele><time>2017-6-21T7:58:7Z</time></trkpt>
<trkpt lat="46.09114" lon="6.99157"><ele></ele><time>2017-6-21T7:58:10Z</time></trkpt>
<trkpt lat="46.09113" lon="6.99157"><ele></ele><time>2017-6-21T7:58:13Z</time></trkpt>
<trkpt lat="46.09111" lon="6.99157"><ele></ele><time>2017-6-21T7:58:16Z</time></trkpt>
<trkpt lat="46.09108" lon="6.99157"><ele></ele><time>2017-6-21T7:58:19Z</time></trkpt>
<trkpt lat="46.09106" lon="6.99156"><ele></ele><time>2017-6-21T7:58:22Z</time></trkpt>
<trkpt lat="46.09103" lon="6.99156"><ele></ele><time>2017-6-21T7:58:25Z</time></trkpt>
<trkpt lat="46.09101" lon="6.99156"><ele></ele><time>2017-6-21T7:58:28Z</time></trkpt>
<trkpt lat="46.09098" lon="6.99155"><ele></ele><time>2017-6-21T7:58:31Z</time></trkpt>
<trkpt lat="46.09096" lon="6.99155"><ele></ele><time>2017-6-21T7:58:34Z</time></trkpt>
<trkpt lat="46.09094" lon="6.99155"><ele></ele><time>2017-6-21T7:58:37Z</time></trkpt>
<trkpt lat="46.09091" lon="6.99155"><ele></ele><time>2017-6-21T7:58:40Z</time></trkpt>
<trkpt lat="46.0909" lon="6.99154"><ele></ele><time>2017-6-21T7:58:43Z</time></trkpt>
<trkpt lat="46.09088" lon="6.99154"><ele></ele><time>2017-6-21T7:58:46Z</time></trkpt>
<trkpt lat="46.09085" lon="6.99154"><ele></ele><time>2017-6-21T7:58:49Z</time></trkpt>
<trkpt lat="46.09083" lon="6.99154"><ele></ele><time>2017-6-21T7:58:52Z</time></trkpt>
<trkpt lat="46.0908" lon="6.99154"><ele></ele><time>2017-6-21T7:58:55Z</time></trkpt>
<trkpt lat="46.09077" lon="6.99154"><ele></ele><time>2017-6-21T7:58:58Z</time></trkpt>
<trkpt lat="46.09074" lon="6.99153"><ele></ele><time>2017-6-21T7:59:1Z</time></trkpt>
<trkpt lat="46.09071" lon="6.99153"><ele></ele><time>2017-6-21T7:59:4Z</time></trkpt>
<trkpt lat="46.09068" lon="6.99153"><ele></ele><time>2017-6-21T7:59:7Z</time></trkpt>
<trkpt lat="46.09065" lon="6.99153"><ele></ele><time>2017-6-21T7:59:10Z</time></trkpt>
<trkpt lat="46.09062" lon="6.99153"><ele></ele><time>2017-6-21T7:59:13Z</time></trkpt>
<trkpt lat="46.09059" lon="6.99153"><ele></ele><time>2017-6-21T7:59:16Z</time></trkpt>
<trkpt lat="46.09056" lon="6.99152"><ele></ele><time>2017-6-21T7:59:19Z</time></trkpt>
<trkpt lat="46.09054" lon="6.99152"><ele></ele><time>2017-6-21T7:59:22Z</time></trkpt>
<trkpt lat="46.09052" lon="6.99152"><ele></ele><time>2017-6-21T7:59:25Z</time></trkpt>
<trkpt lat="46.09051" lon="6.99152"><ele></ele><time>2017-6-21T7:59:28Z</time></trkpt>
<trkpt lat="46.09048" lon="6.99152"><ele></ele><time>2017-6-21T7:59:31Z</time></trkpt>
<trkpt lat="46.09046" lon="6.99151"><ele></ele><time>2017-6-21T7:59:34Z</time></trkpt>
<trkpt lat="46.09048" lon="6.9915"><ele></ele><time>2017-6-21T7:59:37Z</time></trkpt>
<trkpt lat="46.09051" lon="6.99148"><ele></ele><time>2017-6-21T7:59:40Z</time></trkpt>
<trkpt lat="46.09054" lon="6.99147"><ele></ele><time>2017-6-21T7:59:43Z</time></trkpt>
<trkpt lat="46.09056" lon="6.99145"><ele></ele><time>2017-6-21T7:59:46Z</time></trkpt>
<trkpt lat="46.09059" lon="6.99143"><ele></ele><time>2017-6-21T7:59:49Z</time></trkpt>
<trkpt lat="46.09061" lon="6.99142"><ele></ele><time>2017-6-21T7:59:52Z</time></trkpt>
<trkpt lat="46.09064" lon="6.9914"><ele></ele><time>2017-6-21T7:59:55Z</time></trkpt>
<trkpt lat="46.09067" lon="6.99139"><ele></ele><time>2017-6-21T7:59:58Z</time></trkpt>
<trkpt lat="46.09069" lon="6.99137"><ele></ele><time>2017-6-21T8:0:1Z</time></trkpt>
<trkpt lat="46.09072" lon="6.99135"><ele></ele><time>2017-6-21T8:0:4Z</time></trkpt>
<trkpt lat="46.09074" lon="6.99134"><ele></ele><time>2017-6-21T8:0:7Z</time></trkpt>
<trkpt lat="46.09077" lon="6.99132"><ele></ele><time>2017-6-21T8:0:10Z</time></trkpt>
<trkpt lat="46.09079" lon="6.99131"><ele></ele><time>2017-6-21T8:0:13Z</time></trkpt>
<trkpt lat="46.09082" lon="6.99129"><ele></ele><time>2017-6-21T8:0:16Z</time></trkpt>
<trkpt lat="46.09085" lon="6.99127"><ele></ele><time>2017-6-21T8:0:19Z</time></trkpt>
<trkpt lat="46.09087" lon="6.99126"><ele></ele><time>2017-6-21T8:0:22Z</time></trkpt>
<trkpt lat="46.0909" lon="6.99126"><ele></ele><time>2017-6-21T8:0:25Z</time></trkpt>
<trkpt lat="46.09092" lon="6.99125"><ele></ele><time>2017-6-21T8:0:28Z</time></trkpt>
<trkpt lat="46.09094" lon="6.99125"><ele></ele><time>2017-6-21T8:0:31Z</time></trkpt>
<trkpt lat="46.09096" lon="6.99125"><ele></ele><time>2017-6-21T8:0:34Z</time></trkpt>
<trkpt lat="46.09099" lon="6.99124"><ele></ele><time>2017-6-21T8:0:37Z</time></trkpt>
<trkpt lat="46.09101" lon="6.99124"><ele></ele><time>2017-6-21T8:0:40Z</time></trkpt>
<trkpt lat="46.09103" lon="6.99124"><ele></ele><time>2017-6-21T8:0:43Z</time></trkpt>
<trkpt lat="46.09106" lon="6.99123"><ele></ele><time>2017-6-21T8:0:46Z</time></trkpt>
<trkpt lat="46.09108" lon="6.99123"><ele></ele><time>2017-6-21T8:0:49Z</time></trkpt>
<trkpt lat="46.0911" lon="6.99123"><ele></ele><time>2017-6-21T8:0:52Z</time></trkpt>
<trkpt lat="46.09112" lon="6.99122"><ele></ele><time>2017-6-21T8:0:55Z</time></trkpt>
<trkpt lat="46.09114" lon="6.99122"><ele></ele><time>2017-6-21T8:0:58Z</time></trkpt>
<trkpt lat="46.09115" lon="6.99122"><ele></ele><time>2017-6-21T8:1:1Z</time></trkpt>
<trkpt lat="46.09117" lon="6.99122"><ele></ele><time>2017-6-21T8:1:4Z</time></trkpt>
<trkpt lat="46.09119" lon="6.99122"><ele></ele><time>2017-6-21T8:1:7Z</time></trkpt>
<trkpt lat="46.09122" lon="6.99121"><ele></ele><time>2017-6-21T8:1:10Z</time></trkpt>
<trkpt lat="46.09124" lon="6.99121"><ele></ele><time>2017-6-21T8:1:13Z</time></trkpt>
<trkpt lat="46.09126" lon="6.99121"><ele></ele><time>2017-6-21T8:1:16Z</time></trkpt>
<trkpt lat="46.09129" lon="6.9912"><ele></ele><time>2017-6-21T8:1:19Z</time></trkpt>
<trkpt lat="46.09131" lon="6.9912"><ele></ele><time>2017-6-21T8:1:22Z</time></trkpt>
<trkpt lat="46.09132" lon="6.99119"><ele></ele><time>2017-6-21T8:1:25Z</time></trkpt>
<trkpt lat="46.0913" lon="6.99119"><ele></ele><time>2017-6-21T8:1:28Z</time></trkpt>
<trkpt lat="46.09128" lon="6.99118"><ele></ele><time>2017-6-21T8:1:31Z</time></trkpt>
<trkpt lat="46.09126" lon="6.99117"><ele></ele><time>2017-6-21T8:1:34Z</time></trkpt>
<trkpt lat="46.09124" lon="6.99116"><ele></ele><time>2017-6-21T8:1:37Z</time></trkpt>
<trkpt lat="46.09123" lon="6.99115"><ele></ele><time>2017-6-21T8:1:40Z</time></trkpt>
<trkpt lat="46.09122" lon="6.99115"><ele></ele><time>2017-6-21T8:1:43Z</time></trkpt>
<trkpt lat="46.0912" lon="6.99114"><ele></ele><time>2017-6-21T8:1:46Z</time></trkpt>
<trkpt lat="46.09118" lon="6.99113"><ele></ele><time>2017-6-21T8:1:49Z</time></trkpt>
<trkpt lat="46.09116" lon="6.99112"><ele></ele><time>2017-6-21T8:1:52Z</time></trkpt>
<trkpt lat="46.09114" lon="6.99111"><ele></ele><time>2017-6-21T8:1:55Z</time></trkpt>
<trkpt lat="46.09112" lon="6.9911"><ele></ele><time>2017-6-21T8:1:58Z</time></trkpt>
<trkpt lat="46.0911" lon="6.99109"><ele></ele><time>2017-6-21T8:2:1Z</time></trkpt>
<trkpt lat="46.09108" lon="6.99109"><ele></ele><time>2017-6-21T8:2:4Z</time></trkpt>
<trkpt lat="46.09106" lon="6.99108"><ele></ele><time>2017-6-21T8:2:7Z</time></trkpt>
<trkpt lat="46.09103" lon="6.99107"><ele></ele><time>2017-6-21T8:2:10Z</time></trkpt>
<trkpt lat="46.09101" lon="6.99106"><ele></ele><time>2017-6-21T8:2:13Z</time></trkpt>
<trkpt lat="46.09099" lon="6.99105"><ele></ele><time>2017-6-21T8:2:16Z</time></trkpt>
<trkpt lat="46.09097" lon="6.99104"><ele></ele><time>2017-6-21T8:2:19Z</time></trkpt>
<trkpt lat="46.09096" lon="6.99104"><ele></ele><time>2017-6-21T8:2:22Z</time></trkpt>
<trkpt lat="46.09095" lon="6.99103"><ele></ele><time>2017-6-21T8:2:25Z</time></trkpt>
<trkpt lat="46.09093" lon="6.99102"><ele></ele><time>2017-6-21T8:2:28Z</time></trkpt>
<trkpt lat="46.09091" lon="6.99101"><ele></ele><time>2017-6-21T8:2:31Z</time></trkpt>
<trkpt lat="46.09089" lon="6.99101"><ele></ele><time>2017-6-21T8:2:34Z</time></trkpt>
<trkpt lat="46.09088" lon="6.99101"><ele></ele><time>2017-6-21T8:2:37Z</time></trkpt>
<trkpt lat="46.09087" lon="6.99101"><ele></ele><time>2017-6-21T8:2:40Z</time></trkpt>
<trkpt lat="46.09086" lon="6.99101"><ele></ele><time>2017-6-21T8:2:43Z</time></trkpt>
<trkpt lat="46.09085" lon="6.99101"><ele></ele><time>2017-6-21T8:2:46Z</time></trkpt>
<trkpt lat="46.09084" lon="6.99101"><ele></ele><time>2017-6-21T8:2:49Z</time></trkpt>
<trkpt lat="46.09083" lon="6.99102"><ele></ele><time>2017-6-21T8:2:52Z</time></trkpt>
<trkpt lat="46.09082" lon="6.99102"><ele></ele><time>2017-6-21T8:2:55Z</time></trkpt>
<trkpt lat="46.09082" lon="6.99102"><ele></ele><time>2017-6-21T8:2:58Z</time></trkpt>
<trkpt lat="46.09061" lon="6.99105"><ele></ele><time>2017-6-21T8:3:1Z</time></trkpt>
<trkpt lat="46.09061" lon="6.99105"><ele></ele><time>2017-6-21T8:3:4Z</time></trkpt>
<trkpt lat="46.09041" lon="6.99107"><ele></ele><time>2017-6-21T8:3:7Z</time></trkpt>
<trkpt lat="46.09038" lon="6.99105"><ele></ele><time>2017-6-21T8:3:10Z</time></trkpt>
<trkpt lat="46.09034" lon="6.99104"><ele></ele><time>2017-6-21T8:3:13Z</time></trkpt>
<trkpt lat="46.09031" lon="6.99102"><ele></ele><time>2017-6-21T8:3:16Z</time></trkpt>
<trkpt lat="46.09029" lon="6.99101"><ele></ele><time>2017-6-21T8:3:19Z</time></trkpt>
<trkpt lat="46.09028" lon="6.991"><ele></ele><time>2017-6-21T8:3:22Z</time></trkpt>
<trkpt lat="46.09025" lon="6.99099"><ele></ele><time>2017-6-21T8:3:25Z</time></trkpt>
<trkpt lat="46.09024" lon="6.99098"><ele></ele><time>2017-6-21T8:3:28Z</time></trkpt>
<trkpt lat="46.09025" lon="6.99096"><ele></ele><time>2017-6-21T8:3:31Z</time></trkpt>
<trkpt lat="46.09028" lon="6.99092"><ele></ele><time>2017-6-21T8:3:34Z</time></trkpt>
<trkpt lat="46.0903" lon="6.99088"><ele></ele><time>2017-6-21T8:3:37Z</time></trkpt>
<trkpt lat="46.09033" lon="6.99084"><ele></ele><time>2017-6-21T8:3:40Z</time></trkpt>
<trkpt lat="46.09034" lon="6.99083"><ele></ele><time>2017-6-21T8:3:43Z</time></trkpt>
<trkpt lat="46.09036" lon="6.99083"><ele></ele><time>2017-6-21T8:3:46Z</time></trkpt>
<trkpt lat="46.09039" lon="6.99083"><ele></ele><time>2017-6-21T8:3:49Z</time></trkpt>
<trkpt lat="46.0904" lon="6.99083"><ele></ele><time>2017-6-21T8:3:52Z</time></trkpt>
<trkpt lat="46.09041" lon="6.99083"><ele></ele><time>2017-6-21T8:3:55Z</time></trkpt>
<trkpt lat="46.09044" lon="6.99083"><ele></ele><time>2017-6-21T8:3:58Z</time></trkpt>
<trkpt lat="46.09047" lon="6.99082"><ele></ele><time>2017-6-21T8:4:1Z</time></trkpt>
<trkpt lat="46.0905" lon="6.99082"><ele></ele><time>2017-6-21T8:4:4Z</time></trkpt>
<trkpt lat="46.09052" lon="6.99082"><ele></ele><time>2017-6-21T8:4:7Z</time></trkpt>
<trkpt lat="46.09055" lon="6.99082"><ele></ele><time>2017-6-21T8:4:10Z</time></trkpt>
<trkpt lat="46.09058" lon="6.99082"><ele></ele><time>2017-6-21T8:4:13Z</time></trkpt>
<trkpt lat="46.09061" lon="6.99082"><ele></ele><time>2017-6-21T8:4:16Z</time></trkpt>
<trkpt lat="46.09064" lon="6.99082"><ele></ele><time>2017-6-21T8:4:19Z</time></trkpt>
<trkpt lat="46.09066" lon="6.99082"><ele></ele><time>2017-6-21T8:4:22Z</time></trkpt>
<trkpt lat="46.09069" lon="6.99082"><ele></ele><time>2017-6-21T8:4:25Z</time></trkpt>
<trkpt lat="46.09072" lon="6.99082"><ele></ele><time>2017-6-21T8:4:28Z</time></trkpt>
<trkpt lat="46.09075" lon="6.99082"><ele></ele><time>2017-6-21T8:4:31Z</time></trkpt>
<trkpt lat="46.09075" lon="6.99082"><ele></ele><time>2017-6-21T8:4:34Z</time></trkpt>
<trkpt lat="46.09074" lon="6.99081"><ele></ele><time>2017-6-21T8:4:37Z</time></trkpt>
<trkpt lat="46.09072" lon="6.9908"><ele></ele><time>2017-6-21T8:4:40Z</time></trkpt>
<trkpt lat="46.0907" lon="6.99079"><ele></ele><time>2017-6-21T8:4:43Z</time></trkpt>
<trkpt lat="46.09067" lon="6.99077"><ele></ele><time>2017-6-21T8:4:46Z</time></trkpt>
<trkpt lat="46.09065" lon="6.99076"><ele></ele><time>2017-6-21T8:4:49Z</time></trkpt>
<trkpt lat="46.09063" lon="6.99074"><ele></ele><time>2017-6-21T8:4:52Z</time></trkpt>
<trkpt lat="46.09062" lon="6.99074"><ele></ele><time>2017-6-21T8:4:55Z</time></trkpt>
<trkpt lat="46.09061" lon="6.99073"><ele></ele><time>2017-6-21T8:4:58Z</time></trkpt>
<trkpt lat="46.09058" lon="6.99071"><ele></ele><time>2017-6-21T8:5:1Z</time></trkpt>
<trkpt lat="46.09056" lon="6.9907"><ele></ele><time>2017-6-21T8:5:4Z</time></trkpt>
<trkpt lat="46.09054" lon="6.99069"><ele></ele><time>2017-6-21T8:5:7Z</time></trkpt>
<trkpt lat="46.09052" lon="6.99067"><ele></ele><time>2017-6-21T8:5:10Z</time></trkpt>
<trkpt lat="46.09049" lon="6.99066"><ele></ele><time>2017-6-21T8:5:13Z</time></trkpt>
<trkpt lat="46.09047" lon="6.99064"><ele></ele><time>2017-6-21T8:5:16Z</time></trkpt>
<trkpt lat="46.09045" lon="6.99063"><ele></ele><time>2017-6-21T8:5:19Z</time></trkpt>
<trkpt lat="46.09043" lon="6.99061"><ele></ele><time>2017-6-21T8:5:22Z</time></trkpt>
<trkpt lat="46.09041" lon="6.9906"><ele></ele><time>2017-6-21T8:5:25Z</time></trkpt>
<trkpt lat="46.09038" lon="6.99058"><ele></ele><time>2017-6-21T8:5:28Z</time></trkpt>
<trkpt lat="46.09036" lon="6.99057"><ele></ele><time>2017-6-21T8:5:31Z</time></trkpt>
<trkpt lat="46.09034" lon="6.99056"><ele></ele><time>2017-6-21T8:5:34Z</time></trkpt>
<trkpt lat="46.09033" lon="6.99055"><ele></ele><time>2017-6-21T8:5:37Z</time></trkpt>
<trkpt lat="46.09031" lon="6.99055"><ele></ele><time>2017-6-21T8:5:40Z</time></trkpt>
<trkpt lat="46.09029" lon="6.99056"><ele></ele><time>2017-6-21T8:5:43Z</time></trkpt>
<trkpt lat="46.09026" lon="6.99056"><ele></ele><time>2017-6-21T8:5:46Z</time></trkpt>
<trkpt lat="46.09023" lon="6.99057"><ele></ele><time>2017-6-21T8:5:49Z</time></trkpt>
<trkpt lat="46.09021" lon="6.99057"><ele></ele><time>2017-6-21T8:5:52Z</time></trkpt>
<trkpt lat="46.09018" lon="6.99057"><ele></ele><time>2017-6-21T8:5:55Z</time></trkpt>
<trkpt lat="46.09015" lon="6.99058"><ele></ele><time>2017-6-21T8:5:58Z</time></trkpt>
<trkpt lat="46.09013" lon="6.99058"><ele></ele><time>2017-6-21T8:6:1Z</time></trkpt>
<trkpt lat="46.0901" lon="6.99059"><ele></ele><time>2017-6-21T8:6:4Z</time></trkpt>
<trkpt lat="46.09007" lon="6.99059"><ele></ele><time>2017-6-21T8:6:7Z</time></trkpt>
<trkpt lat="46.09005" lon="6.99059"><ele></ele><time>2017-6-21T8:6:10Z</time></trkpt>
<trkpt lat="46.09003" lon="6.9906"><ele></ele><time>2017-6-21T8:6:13Z</time></trkpt>
<trkpt lat="46.09002" lon="6.9906"><ele></ele><time>2017-6-21T8:6:16Z</time></trkpt>
<trkpt lat="46.08999" lon="6.9906"><ele></ele><time>2017-6-21T8:6:19Z</time></trkpt>
<trkpt lat="46.08997" lon="6.99061"><ele></ele><time>2017-6-21T8:6:22Z</time></trkpt>
<trkpt lat="46.08994" lon="6.99061"><ele></ele><time>2017-6-21T8:6:25Z</time></trkpt>
<trkpt lat="46.08991" lon="6.99061"><ele></ele><time>2017-6-21T8:6:28Z</time></trkpt>
<trkpt lat="46.08989" lon="6.99062"><ele></ele><time>2017-6-21T8:6:31Z</time></trkpt>
<trkpt lat="46.08987" lon="6.99062"><ele></ele><time>2017-6-21T8:6:34Z</time></trkpt>
<trkpt lat="46.08986" lon="6.99063"><ele></ele><time>2017-6-21T8:6:37Z</time></trkpt>
<trkpt lat="46.08983" lon="6.99065"><ele></ele><time>2017-6-21T8:6:40Z</time></trkpt>
<trkpt lat="46.0898" lon="6.99066"><ele></ele><time>2017-6-21T8:6:43Z</time></trkpt>
<trkpt lat="46.08977" lon="6.99068"><ele></ele><time>2017-6-21T8:6:46Z</time></trkpt>
<trkpt lat="46.08974" lon="6.99069"><ele></ele><time>2017-6-21T8:6:49Z</time></trkpt>
<trkpt lat="46.08973" lon="6.9907"><ele></ele><time>2017-6-21T8:6:52Z</time></trkpt>
<trkpt lat="46.08971" lon="6.99071"><ele></ele><time>2017-6-21T8:6:55Z</time></trkpt>
<trkpt lat="46.08969" lon="6.99072"><ele></ele><time>2017-6-21T8:6:58Z</time></trkpt>
<trkpt lat="46.08966" lon="6.99074"><ele></ele><time>2017-6-21T8:7:1Z</time></trkpt>
<trkpt lat="46.08963" lon="6.99075"><ele></ele><time>2017-6-21T8:7:4Z</time></trkpt>
<trkpt lat="46.0896" lon="6.99077"><ele></ele><time>2017-6-21T8:7:7Z</time></trkpt>
<trkpt lat="46.08957" lon="6.99078"><ele></ele><time>2017-6-21T8:7:10Z</time></trkpt>
<trkpt lat="46.08954" lon="6.9908"><ele></ele><time>2017-6-21T8:7:13Z</time></trkpt>
<trkpt lat="46.08951" lon="6.99081"><ele></ele><time>2017-6-21T8:7:16Z</time></trkpt>
<trkpt lat="46.08948" lon="6.99083"><ele></ele><time>2017-6-21T8:7:19Z</time></trkpt>
<trkpt lat="46.08946" lon="6.99084"><ele></ele><time>2017-6-21T8:7:22Z</time></trkpt>
<trkpt lat="46.08944" lon="6.99085"><ele></ele><time>2017-6-21T8:7:25Z</time></trkpt>
<trkpt lat="46.08942" lon="6.99084"><ele></ele><time>2017-6-21T8:7:28Z</time></trkpt>
<trkpt lat="46.08939" lon="6.99083"><ele></ele><time>2017-6-21T8:7:31Z</time></trkpt>
<trkpt lat="46.08935" lon="6.99081"><ele></ele><time>2017-6-21T8:7:34Z</time></trkpt>
<trkpt lat="46.08932" lon="6.9908"><ele></ele><time>2017-6-21T8:7:37Z</time></trkpt>
<trkpt lat="46.08928" lon="6.99079"><ele></ele><time>2017-6-21T8:7:40Z</time></trkpt>
<trkpt lat="46.08925" lon="6.99078"><ele></ele><time>2017-6-21T8:7:43Z</time></trkpt>
<trkpt lat="46.08922" lon="6.99076"><ele></ele><time>2017-6-21T8:7:46Z</time></trkpt>
<trkpt lat="46.08918" lon="6.99075"><ele></ele><time>2017-6-21T8:7:49Z</time></trkpt>
<trkpt lat="46.08915" lon="6.99074"><ele></ele><time>2017-6-21T8:7:52Z</time></trkpt>
<trkpt lat="46.08913" lon="6.99073"><ele></ele><time>2017-6-21T8:7:55Z</time></trkpt>
<trkpt lat="46.08911" lon="6.99072"><ele></ele><time>2017-6-21T8:7:58Z</time></trkpt>
<trkpt lat="46.08908" lon="6.99071"><ele></ele><time>2017-6-21T8:8:1Z</time></trkpt>
<trkpt lat="46.08904" lon="6.9907"><ele></ele><time>2017-6-21T8:8:4Z</time></trkpt>
<trkpt lat="46.08901" lon="6.99068"><ele></ele><time>2017-6-21T8:8:7Z</time></trkpt>
<trkpt lat="46.08899" lon="6.99068"><ele></ele><time>2017-6-21T8:8:10Z</time></trkpt>
<trkpt lat="46.08898" lon="6.99067"><ele></ele><time>2017-6-21T8:8:13Z</time></trkpt>
<trkpt lat="46.08894" lon="6.99065"><ele></ele><time>2017-6-21T8:8:16Z</time></trkpt>
<trkpt lat="46.08891" lon="6.99064"><ele></ele><time>2017-6-21T8:8:19Z</time></trkpt>
<trkpt lat="46.08888" lon="6.99062"><ele></ele><time>2017-6-21T8:8:22Z</time></trkpt>
<trkpt lat="46.08885" lon="6.9906"><ele></ele><time>2017-6-21T8:8:25Z</time></trkpt>
<trkpt lat="46.08882" lon="6.99059"><ele></ele><time>2017-6-21T8:8:28Z</time></trkpt>
<trkpt lat="46.08879" lon="6.99057"><ele></ele><time>2017-6-21T8:8:31Z</time></trkpt>
<trkpt lat="46.08875" lon="6.99056"><ele></ele><time>2017-6-21T8:8:34Z</time></trkpt>
<trkpt lat="46.08872" lon="6.99054"><ele></ele><time>2017-6-21T8:8:37Z</time></trkpt>
<trkpt lat="46.08869" lon="6.99052"><ele></ele><time>2017-6-21T8:8:40Z</time></trkpt>
<trkpt lat="46.08866" lon="6.99051"><ele></ele><time>2017-6-21T8:8:43Z</time></trkpt>
<trkpt lat="46.08863" lon="6.99049"><ele></ele><time>2017-6-21T8:8:46Z</time></trkpt>
<trkpt lat="46.08859" lon="6.99048"><ele></ele><time>2017-6-21T8:8:49Z</time></trkpt>
<trkpt lat="46.08856" lon="6.99046"><ele></ele><time>2017-6-21T8:8:52Z</time></trkpt>
<trkpt lat="46.08853" lon="6.99043"><ele></ele><time>2017-6-21T8:8:55Z</time></trkpt>
<trkpt lat="46.0885" lon="6.99041"><ele></ele><time>2017-6-21T8:8:58Z</time></trkpt>
<trkpt lat="46.08848" lon="6.99039"><ele></ele><time>2017-6-21T8:9:1Z</time></trkpt>
<trkpt lat="46.08846" lon="6.99038"><ele></ele><time>2017-6-21T8:9:4Z</time></trkpt>
<trkpt lat="46.08843" lon="6.99035"><ele></ele><time>2017-6-21T8:9:7Z</time></trkpt>
<trkpt lat="46.0884" lon="6.99033"><ele></ele><time>2017-6-21T8:9:10Z</time></trkpt>
<trkpt lat="46.08837" lon="6.9903"><ele></ele><time>2017-6-21T8:9:13Z</time></trkpt>
<trkpt lat="46.08833" lon="6.99028"><ele></ele><time>2017-6-21T8:9:16Z</time></trkpt>
<trkpt lat="46.0883" lon="6.99025"><ele></ele><time>2017-6-21T8:9:19Z</time></trkpt>
<trkpt lat="46.08827" lon="6.99022"><ele></ele><time>2017-6-21T8:9:22Z</time></trkpt>
<trkpt lat="46.08824" lon="6.9902"><ele></ele><time>2017-6-21T8:9:25Z</time></trkpt>
<trkpt lat="46.0882" lon="6.99018"><ele></ele><time>2017-6-21T8:9:28Z</time></trkpt>
<trkpt lat="46.08817" lon="6.99017"><ele></ele><time>2017-6-21T8:9:31Z</time></trkpt>
<trkpt lat="46.08813" lon="6.99017"><ele></ele><time>2017-6-21T8:9:34Z</time></trkpt>
<trkpt lat="46.08811" lon="6.99016"><ele></ele><time>2017-6-21T8:9:37Z</time></trkpt>
<trkpt lat="46.08809" lon="6.99016"><ele></ele><time>2017-6-21T8:9:40Z</time></trkpt>
<trkpt lat="46.08805" lon="6.99016"><ele></ele><time>2017-6-21T8:9:43Z</time></trkpt>
<trkpt lat="46.08801" lon="6.99015"><ele></ele><time>2017-6-21T8:9:46Z</time></trkpt>
<trkpt lat="46.08798" lon="6.99015"><ele></ele><time>2017-6-21T8:9:49Z</time></trkpt>
<trkpt lat="46.08794" lon="6.99014"><ele></ele><time>2017-6-21T8:9:52Z</time></trkpt>
<trkpt lat="46.0879" lon="6.99014"><ele></ele><time>2017-6-21T8:9:55Z</time></trkpt>
<trkpt lat="46.08786" lon="6.99013"><ele></ele><time>2017-6-21T8:9:58Z</time></trkpt>
<trkpt lat="46.08783" lon="6.99013"><ele></ele><time>2017-6-21T8:10:1Z</time></trkpt>
<trkpt lat="46.08779" lon="6.99012"><ele></ele><time>2017-6-21T8:10:4Z</time></trkpt>
<trkpt lat="46.08775" lon="6.99012"><ele></ele><time>2017-6-21T8:10:7Z</time></trkpt>
<trkpt lat="46.08771" lon="6.99011"><ele></ele><time>2017-6-21T8:10:10Z</time></trkpt>
<trkpt lat="46.08767" lon="6.9901"><ele></ele><time>2017-6-21T8:10:13Z</time></trkpt>
<trkpt lat="46.08764" lon="6.99009"><ele></ele><time>2017-6-21T8:10:16Z</time></trkpt>
<trkpt lat="46.0876" lon="6.99008"><ele></ele><time>2017-6-21T8:10:19Z</time></trkpt>
<trkpt lat="46.08756" lon="6.99007"><ele></ele><time>2017-6-21T8:10:22Z</time></trkpt>
<trkpt lat="46.08752" lon="6.99005"><ele></ele><time>2017-6-21T8:10:25Z</time></trkpt>
<trkpt lat="46.08749" lon="6.99004"><ele></ele><time>2017-6-21T8:10:28Z</time></trkpt>
<trkpt lat="46.08745" lon="6.99003"><ele></ele><time>2017-6-21T8:10:31Z</time></trkpt>
<trkpt lat="46.08741" lon="6.99002"><ele></ele><time>2017-6-21T8:10:34Z</time></trkpt>
<trkpt lat="46.08737" lon="6.99001"><ele></ele><time>2017-6-21T8:10:37Z</time></trkpt>
<trkpt lat="46.08734" lon="6.99"><ele></ele><time>2017-6-21T8:10:40Z</time></trkpt>
<trkpt lat="46.0873" lon="6.98999"><ele></ele><time>2017-6-21T8:10:43Z</time></trkpt>
<trkpt lat="46.08728" lon="6.98999"><ele></ele><time>2017-6-21T8:10:46Z</time></trkpt>
<trkpt lat="46.08727" lon="6.98998"><ele></ele><time>2017-6-21T8:10:49Z</time></trkpt>
<trkpt lat="46.08723" lon="6.98996"><ele></ele><time>2017-6-21T8:10:52Z</time></trkpt>
<trkpt lat="46.0872" lon="6.98995"><ele></ele><time>2017-6-21T8:10:55Z</time></trkpt>
<trkpt lat="46.08717" lon="6.98994"><ele></ele><time>2017-6-21T8:10:58Z</time></trkpt>
<trkpt lat="46.08713" lon="6.98992"><ele></ele><time>2017-6-21T8:11:1Z</time></trkpt>
<trkpt lat="46.0871" lon="6.98991"><ele></ele><time>2017-6-21T8:11:4Z</time></trkpt>
<trkpt lat="46.08707" lon="6.98989"><ele></ele><time>2017-6-21T8:11:7Z</time></trkpt>
<trkpt lat="46.08704" lon="6.98988"><ele></ele><time>2017-6-21T8:11:10Z</time></trkpt>
<trkpt lat="46.087" lon="6.98987"><ele></ele><time>2017-6-21T8:11:13Z</time></trkpt>
<trkpt lat="46.08699" lon="6.98985"><ele></ele><time>2017-6-21T8:11:16Z</time></trkpt>
<trkpt lat="46.08699" lon="6.98981"><ele></ele><time>2017-6-21T8:11:19Z</time></trkpt>
<trkpt lat="46.08698" lon="6.98974"><ele></ele><time>2017-6-21T8:11:22Z</time></trkpt>
<trkpt lat="46.08697" lon="6.98966"><ele></ele><time>2017-6-21T8:11:25Z</time></trkpt>
<trkpt lat="46.08697" lon="6.98959"><ele></ele><time>2017-6-21T8:11:28Z</time></trkpt>
<trkpt lat="46.08696" lon="6.98951"><ele></ele><time>2017-6-21T8:11:31Z</time></trkpt>
<trkpt lat="46.08695" lon="6.98944"><ele></ele><time>2017-6-21T8:11:34Z</time></trkpt>
<trkpt lat="46.08694" lon="6.98936"><ele></ele><time>2017-6-21T8:11:37Z</time></trkpt>
<trkpt lat="46.08694" lon="6.98929"><ele></ele><time>2017-6-21T8:11:40Z</time></trkpt>
<trkpt lat="46.08693" lon="6.98921"><ele></ele><time>2017-6-21T8:11:43Z</time></trkpt>
<trkpt lat="46.08692" lon="6.98918"><ele></ele><time>2017-6-21T8:11:46Z</time></trkpt>
<trkpt lat="46.0869" lon="6.98915"><ele></ele><time>2017-6-21T8:11:49Z</time></trkpt>
<trkpt lat="46.08685" lon="6.98909"><ele></ele><time>2017-6-21T8:11:52Z</time></trkpt>
<trkpt lat="46.08681" lon="6.98903"><ele></ele><time>2017-6-21T8:11:55Z</time></trkpt>
<trkpt lat="46.08676" lon="6.98897"><ele></ele><time>2017-6-21T8:11:58Z</time></trkpt>
<trkpt lat="46.08672" lon="6.98891"><ele></ele><time>2017-6-21T8:12:1Z</time></trkpt>
<trkpt lat="46.08667" lon="6.98885"><ele></ele><time>2017-6-21T8:12:4Z</time></trkpt>
<trkpt lat="46.08662" lon="6.98879"><ele></ele><time>2017-6-21T8:12:7Z</time></trkpt>
<trkpt lat="46.08657" lon="6.98874"><ele></ele><time>2017-6-21T8:12:10Z</time></trkpt>
<trkpt lat="46.08652" lon="6.98868"><ele></ele><time>2017-6-21T8:12:13Z</time></trkpt>
<trkpt lat="46.08647" lon="6.98863"><ele></ele><time>2017-6-21T8:12:16Z</time></trkpt>
<trkpt lat="46.08641" lon="6.98857"><ele></ele><time>2017-6-21T8:12:19Z</time></trkpt>
<trkpt lat="46.08636" lon="6.98851"><ele></ele><time>2017-6-21T8:12:22Z</time></trkpt>
<trkpt lat="46.08631" lon="6.98846"><ele></ele><time>2017-6-21T8:12:25Z</time></trkpt>
<trkpt lat="46.08629" lon="6.98838"><ele></ele><time>2017-6-21T8:12:28Z</time></trkpt>
<trkpt lat="46.08626" lon="6.98831"><ele></ele><time>2017-6-21T8:12:31Z</time></trkpt>
<trkpt lat="46.08623" lon="6.98823"><ele></ele><time>2017-6-21T8:12:34Z</time></trkpt>
<trkpt lat="46.08621" lon="6.98816"><ele></ele><time>2017-6-21T8:12:37Z</time></trkpt>
<trkpt lat="46.08618" lon="6.98808"><ele></ele><time>2017-6-21T8:12:40Z</time></trkpt>
<trkpt lat="46.08617" lon="6.988"><ele></ele><time>2017-6-21T8:12:43Z</time></trkpt>
<trkpt lat="46.0862" lon="6.9879"><ele></ele><time>2017-6-21T8:12:46Z</time></trkpt>
<trkpt lat="46.08623" lon="6.98779"><ele></ele><time>2017-6-21T8:12:49Z</time></trkpt>
<trkpt lat="46.08627" lon="6.98769"><ele></ele><time>2017-6-21T8:12:52Z</time></trkpt>
<trkpt lat="46.0863" lon="6.98758"><ele></ele><time>2017-6-21T8:12:55Z</time></trkpt>
<trkpt lat="46.08633" lon="6.98748"><ele></ele><time>2017-6-21T8:12:58Z</time></trkpt>
<trkpt lat="46.08637" lon="6.98736"><ele></ele><time>2017-6-21T8:13:1Z</time></trkpt>
<trkpt lat="46.0864" lon="6.98722"><ele></ele><time>2017-6-21T8:13:4Z</time></trkpt>
<trkpt lat="46.08643" lon="6.98707"><ele></ele><time>2017-6-21T8:13:7Z</time></trkpt>
<trkpt lat="46.08646" lon="6.98692"><ele></ele><time>2017-6-21T8:13:10Z</time></trkpt>
<trkpt lat="46.08648" lon="6.98677"><ele></ele><time>2017-6-21T8:13:13Z</time></trkpt>
<trkpt lat="46.08647" lon="6.98661"><ele></ele><time>2017-6-21T8:13:16Z</time></trkpt>
<trkpt lat="46.0864" lon="6.9865"><ele></ele><time>2017-6-21T8:13:19Z</time></trkpt>
<trkpt lat="46.08634" lon="6.98639"><ele></ele><time>2017-6-21T8:13:22Z</time></trkpt>
<trkpt lat="46.08627" lon="6.98629"><ele></ele><time>2017-6-21T8:13:25Z</time></trkpt>
<trkpt lat="46.08622" lon="6.98617"><ele></ele><time>2017-6-21T8:13:28Z</time></trkpt>
<trkpt lat="46.0862" lon="6.98604"><ele></ele><time>2017-6-21T8:13:31Z</time></trkpt>
<trkpt lat="46.08619" lon="6.98591"><ele></ele><time>2017-6-21T8:13:34Z</time></trkpt>
<trkpt lat="46.08618" lon="6.98578"><ele></ele><time>2017-6-21T8:13:37Z</time></trkpt>
<trkpt lat="46.08617" lon="6.98564"><ele></ele><time>2017-6-21T8:13:40Z</time></trkpt>
<trkpt lat="46.08616" lon="6.98558"><ele></ele><time>2017-6-21T8:13:43Z</time></trkpt>
<trkpt lat="46.08615" lon="6.98553"><ele></ele><time>2017-6-21T8:13:46Z</time></trkpt>
<trkpt lat="46.08612" lon="6.98543"><ele></ele><time>2017-6-21T8:13:49Z</time></trkpt>
<trkpt lat="46.08611" lon="6.98533"><ele></ele><time>2017-6-21T8:13:52Z</time></trkpt>
<trkpt lat="46.08613" lon="6.98522"><ele></ele><time>2017-6-21T8:13:55Z</time></trkpt>
<trkpt lat="46.08614" lon="6.98511"><ele></ele><time>2017-6-21T8:13:58Z</time></trkpt>
<trkpt lat="46.08616" lon="6.98499"><ele></ele><time>2017-6-21T8:14:1Z</time></trkpt>
<trkpt lat="46.08618" lon="6.98488"><ele></ele><time>2017-6-21T8:14:4Z</time></trkpt>
<trkpt lat="46.0862" lon="6.98477"><ele></ele><time>2017-6-21T8:14:7Z</time></trkpt>
<trkpt lat="46.08621" lon="6.98466"><ele></ele><time>2017-6-21T8:14:10Z</time></trkpt>
<trkpt lat="46.08625" lon="6.98454"><ele></ele><time>2017-6-21T8:14:13Z</time></trkpt>
<trkpt lat="46.08628" lon="6.98447"><ele></ele><time>2017-6-21T8:14:16Z</time></trkpt>
<trkpt lat="46.08627" lon="6.98442"><ele></ele><time>2017-6-21T8:14:19Z</time></trkpt>
<trkpt lat="46.08625" lon="6.98431"><ele></ele><time>2017-6-21T8:14:22Z</time></trkpt>
<trkpt lat="46.08623" lon="6.98419"><ele></ele><time>2017-6-21T8:14:25Z</time></trkpt>
<trkpt lat="46.08621" lon="6.98408"><ele></ele><time>2017-6-21T8:14:28Z</time></trkpt>
<trkpt lat="46.0862" lon="6.98397"><ele></ele><time>2017-6-21T8:14:31Z</time></trkpt>
<trkpt lat="46.08618" lon="6.98386"><ele></ele><time>2017-6-21T8:14:34Z</time></trkpt>
<trkpt lat="46.08617" lon="6.98381"><ele></ele><time>2017-6-21T8:14:37Z</time></trkpt>
<trkpt lat="46.08614" lon="6.98376"><ele></ele><time>2017-6-21T8:14:40Z</time></trkpt>
<trkpt lat="46.0861" lon="6.98367"><ele></ele><time>2017-6-21T8:14:43Z</time></trkpt>
<trkpt lat="46.08605" lon="6.98358"><ele></ele><time>2017-6-21T8:14:46Z</time></trkpt>
<trkpt lat="46.086" lon="6.98349"><ele></ele><time>2017-6-21T8:14:49Z</time></trkpt>
<trkpt lat="46.08595" lon="6.9834"><ele></ele><time>2017-6-21T8:14:52Z</time></trkpt>
<trkpt lat="46.08591" lon="6.98331"><ele></ele><time>2017-6-21T8:14:55Z</time></trkpt>
<trkpt lat="46.08589" lon="6.98326"><ele></ele><time>2017-6-21T8:14:58Z</time></trkpt>
<trkpt lat="46.08588" lon="6.98322"><ele></ele><time>2017-6-21T8:15:1Z</time></trkpt>
<trkpt lat="46.08585" lon="6.98314"><ele></ele><time>2017-6-21T8:15:4Z</time></trkpt>
<trkpt lat="46.08583" lon="6.98306"><ele></ele><time>2017-6-21T8:15:7Z</time></trkpt>
<trkpt lat="46.08581" lon="6.98298"><ele></ele><time>2017-6-21T8:15:10Z</time></trkpt>
<trkpt lat="46.08578" lon="6.98289"><ele></ele><time>2017-6-21T8:15:13Z</time></trkpt>
<trkpt lat="46.08576" lon="6.98281"><ele></ele><time>2017-6-21T8:15:16Z</time></trkpt>
<trkpt lat="46.08574" lon="6.98273"><ele></ele><time>2017-6-21T8:15:19Z</time></trkpt>
<trkpt lat="46.08572" lon="6.98265"><ele></ele><time>2017-6-21T8:15:22Z</time></trkpt>
<trkpt lat="46.0857" lon="6.98256"><ele></ele><time>2017-6-21T8:15:25Z</time></trkpt>
<trkpt lat="46.08568" lon="6.98248"><ele></ele><time>2017-6-21T8:15:28Z</time></trkpt>
<trkpt lat="46.08567" lon="6.9824"><ele></ele><time>2017-6-21T8:15:31Z</time></trkpt>
<trkpt lat="46.08565" lon="6.98231"><ele></ele><time>2017-6-21T8:15:34Z</time></trkpt>
<trkpt lat="46.08564" lon="6.98223"><ele></ele><time>2017-6-21T8:15:37Z</time></trkpt>
<trkpt lat="46.08562" lon="6.98215"><ele></ele><time>2017-6-21T8:15:40Z</time></trkpt>
<trkpt lat="46.0856" lon="6.98206"><ele></ele><time>2017-6-21T8:15:43Z</time></trkpt>
<trkpt lat="46.0856" lon="6.98203"><ele></ele><time>2017-6-21T8:15:46Z</time></trkpt>
<trkpt lat="46.0856" lon="6.982"><ele></ele><time>2017-6-21T8:15:49Z</time></trkpt>
<trkpt lat="46.0856" lon="6.98194"><ele></ele><time>2017-6-21T8:15:52Z</time></trkpt>
<trkpt lat="46.0856" lon="6.98189"><ele></ele><time>2017-6-21T8:15:55Z</time></trkpt>
<trkpt lat="46.0856" lon="6.98183"><ele></ele><time>2017-6-21T8:15:58Z</time></trkpt>
<trkpt lat="46.0856" lon="6.98177"><ele></ele><time>2017-6-21T8:16:1Z</time></trkpt>
<trkpt lat="46.0856" lon="6.98172"><ele></ele><time>2017-6-21T8:16:4Z</time></trkpt>
<trkpt lat="46.0856" lon="6.98166"><ele></ele><time>2017-6-21T8:16:7Z</time></trkpt>
<trkpt lat="46.0856" lon="6.98163"><ele></ele><time>2017-6-21T8:16:10Z</time></trkpt>
<trkpt lat="46.08555" lon="6.98123"><ele></ele><time>2017-6-21T8:16:13Z</time></trkpt>
<trkpt lat="46.08555" lon="6.98123"><ele></ele><time>2017-6-21T8:16:16Z</time></trkpt>
<trkpt lat="46.08549" lon="6.98086"><ele></ele><time>2017-6-21T8:16:19Z</time></trkpt>
<trkpt lat="46.08548" lon="6.98084"><ele></ele><time>2017-6-21T8:16:22Z</time></trkpt>
<trkpt lat="46.08548" lon="6.98083"><ele></ele><time>2017-6-21T8:16:25Z</time></trkpt>
<trkpt lat="46.08548" lon="6.98081"><ele></ele><time>2017-6-21T8:16:28Z</time></trkpt>
<trkpt lat="46.08547" lon="6.9808"><ele></ele><time>2017-6-21T8:16:31Z</time></trkpt>
<trkpt lat="46.08547" lon="6.98079"><ele></ele><time>2017-6-21T8:16:34Z</time></trkpt>
<trkpt lat="46.08547" lon="6.98077"><ele></ele><time>2017-6-21T8:16:37Z</time></trkpt>
<trkpt lat="46.08547" lon="6.98076"><ele></ele><time>2017-6-21T8:16:40Z</time></trkpt>
<trkpt lat="46.08546" lon="6.98075"><ele></ele><time>2017-6-21T8:16:43Z</time></trkpt>
<trkpt lat="46.08541" lon="6.98052"><ele></ele><time>2017-6-21T8:16:46Z</time></trkpt>
<trkpt lat="46.08541" lon="6.98052"><ele></ele><time>2017-6-21T8:16:49Z</time></trkpt>
<trkpt lat="46.08536" lon="6.98031"><ele></ele><time>2017-6-21T8:16:52Z</time></trkpt>
<trkpt lat="46.08536" lon="6.98024"><ele></ele><time>2017-6-21T8:16:55Z</time></trkpt>
<trkpt lat="46.08536" lon="6.98018"><ele></ele><time>2017-6-21T8:16:58Z</time></trkpt>
<trkpt lat="46.08536" lon="6.98012"><ele></ele><time>2017-6-21T8:17:1Z</time></trkpt>
<trkpt lat="46.08536" lon="6.98006"><ele></ele><time>2017-6-21T8:17:4Z</time></trkpt>
<trkpt lat="46.08536" lon="6.97999"><ele></ele><time>2017-6-21T8:17:7Z</time></trkpt>
<trkpt lat="46.08536" lon="6.97993"><ele></ele><time>2017-6-21T8:17:10Z</time></trkpt>
<trkpt lat="46.08536" lon="6.9799"><ele></ele><time>2017-6-21T8:17:13Z</time></trkpt>
<trkpt lat="46.08535" lon="6.97986"><ele></ele><time>2017-6-21T8:17:16Z</time></trkpt>
<trkpt lat="46.08534" lon="6.9798"><ele></ele><time>2017-6-21T8:17:19Z</time></trkpt>
<trkpt lat="46.08533" lon="6.97973"><ele></ele><time>2017-6-21T8:17:22Z</time></trkpt>
<trkpt lat="46.08532" lon="6.97966"><ele></ele><time>2017-6-21T8:17:25Z</time></trkpt>
<trkpt lat="46.08531" lon="6.9796"><ele></ele><time>2017-6-21T8:17:28Z</time></trkpt>
<trkpt lat="46.08531" lon="6.97953"><ele></ele><time>2017-6-21T8:17:31Z</time></trkpt>
<trkpt lat="46.0853" lon="6.97946"><ele></ele><time>2017-6-21T8:17:34Z</time></trkpt>
<trkpt lat="46.08529" lon="6.9794"><ele></ele><time>2017-6-21T8:17:37Z</time></trkpt>
<trkpt lat="46.08528" lon="6.97933"><ele></ele><time>2017-6-21T8:17:40Z</time></trkpt>
<trkpt lat="46.08527" lon="6.97926"><ele></ele><time>2017-6-21T8:17:43Z</time></trkpt>
<trkpt lat="46.08526" lon="6.97923"><ele></ele><time>2017-6-21T8:17:46Z</time></trkpt>
<trkpt lat="46.08525" lon="6.9792"><ele></ele><time>2017-6-21T8:17:49Z</time></trkpt>
<trkpt lat="46.08523" lon="6.97913"><ele></ele><time>2017-6-21T8:17:52Z</time></trkpt>
<trkpt lat="46.08521" lon="6.97907"><ele></ele><time>2017-6-21T8:17:55Z</time></trkpt>
<trkpt lat="46.08519" lon="6.979"><ele></ele><time>2017-6-21T8:17:58Z</time></trkpt>
<trkpt lat="46.08517" lon="6.97894"><ele></ele><time>2017-6-21T8:18:1Z</time></trkpt>
<trkpt lat="46.08515" lon="6.97887"><ele></ele><time>2017-6-21T8:18:4Z</time></trkpt>
<trkpt lat="46.08513" lon="6.9788"><ele></ele><time>2017-6-21T8:18:7Z</time></trkpt>
<trkpt lat="46.08511" lon="6.97874"><ele></ele><time>2017-6-21T8:18:10Z</time></trkpt>
<trkpt lat="46.08509" lon="6.97867"><ele></ele><time>2017-6-21T8:18:13Z</time></trkpt>
<trkpt lat="46.08508" lon="6.97864"><ele></ele><time>2017-6-21T8:18:16Z</time></trkpt>
<trkpt lat="46.08508" lon="6.97861"><ele></ele><time>2017-6-21T8:18:19Z</time></trkpt>
<trkpt lat="46.08507" lon="6.97854"><ele></ele><time>2017-6-21T8:18:22Z</time></trkpt>
<trkpt lat="46.08507" lon="6.97847"><ele></ele><time>2017-6-21T8:18:25Z</time></trkpt>
<trkpt lat="46.08506" lon="6.97841"><ele></ele><time>2017-6-21T8:18:28Z</time></trkpt>
<trkpt lat="46.08506" lon="6.97834"><ele></ele><time>2017-6-21T8:18:31Z</time></trkpt>
<trkpt lat="46.08505" lon="6.97827"><ele></ele><time>2017-6-21T8:18:34Z</time></trkpt>
<trkpt lat="46.08505" lon="6.9782"><ele></ele><time>2017-6-21T8:18:37Z</time></trkpt>
<trkpt lat="46.08504" lon="6.97814"><ele></ele><time>2017-6-21T8:18:40Z</time></trkpt>
<trkpt lat="46.08504" lon="6.97807"><ele></ele><time>2017-6-21T8:18:43Z</time></trkpt>
<trkpt lat="46.08503" lon="6.978"><ele></ele><time>2017-6-21T8:18:46Z</time></trkpt>
<trkpt lat="46.08504" lon="6.97797"><ele></ele><time>2017-6-21T8:18:49Z</time></trkpt>
<trkpt lat="46.08506" lon="6.97795"><ele></ele><time>2017-6-21T8:18:52Z</time></trkpt>
<trkpt lat="46.08509" lon="6.9779"><ele></ele><time>2017-6-21T8:18:55Z</time></trkpt>
<trkpt lat="46.08513" lon="6.97785"><ele></ele><time>2017-6-21T8:18:58Z</time></trkpt>
<trkpt lat="46.08516" lon="6.9778"><ele></ele><time>2017-6-21T8:19:1Z</time></trkpt>
<trkpt lat="46.08518" lon="6.97777"><ele></ele><time>2017-6-21T8:19:4Z</time></trkpt>
<trkpt lat="46.0852" lon="6.97775"><ele></ele><time>2017-6-21T8:19:7Z</time></trkpt>
<trkpt lat="46.08524" lon="6.9777"><ele></ele><time>2017-6-21T8:19:10Z</time></trkpt>
<trkpt lat="46.08527" lon="6.97765"><ele></ele><time>2017-6-21T8:19:13Z</time></trkpt>
<trkpt lat="46.08531" lon="6.9776"><ele></ele><time>2017-6-21T8:19:16Z</time></trkpt>
<trkpt lat="46.08535" lon="6.97755"><ele></ele><time>2017-6-21T8:19:19Z</time></trkpt>
<trkpt lat="46.08536" lon="6.97753"><ele></ele><time>2017-6-21T8:19:22Z</time></trkpt>
<trkpt lat="46.08538" lon="6.97751"><ele></ele><time>2017-6-21T8:19:25Z</time></trkpt>
<trkpt lat="46.08542" lon="6.97747"><ele></ele><time>2017-6-21T8:19:28Z</time></trkpt>
<trkpt lat="46.08545" lon="6.97743"><ele></ele><time>2017-6-21T8:19:31Z</time></trkpt>
<trkpt lat="46.08549" lon="6.97739"><ele></ele><time>2017-6-21T8:19:34Z</time></trkpt>
<trkpt lat="46.08552" lon="6.97735"><ele></ele><time>2017-6-21T8:19:37Z</time></trkpt>
<trkpt lat="46.08556" lon="6.97731"><ele></ele><time>2017-6-21T8:19:40Z</time></trkpt>
<trkpt lat="46.08559" lon="6.97728"><ele></ele><time>2017-6-21T8:19:43Z</time></trkpt>
<trkpt lat="46.08563" lon="6.97724"><ele></ele><time>2017-6-21T8:19:46Z</time></trkpt>
<trkpt lat="46.08566" lon="6.9772"><ele></ele><time>2017-6-21T8:19:49Z</time></trkpt>
<trkpt lat="46.08568" lon="6.97718"><ele></ele><time>2017-6-21T8:19:52Z</time></trkpt>
<trkpt lat="46.0857" lon="6.97716"><ele></ele><time>2017-6-21T8:19:55Z</time></trkpt>
<trkpt lat="46.08573" lon="6.97712"><ele></ele><time>2017-6-21T8:19:58Z</time></trkpt>
<trkpt lat="46.08574" lon="6.97707"><ele></ele><time>2017-6-21T8:20:1Z</time></trkpt>
<trkpt lat="46.08575" lon="6.97703"><ele></ele><time>2017-6-21T8:20:4Z</time></trkpt>
<trkpt lat="46.08576" lon="6.97698"><ele></ele><time>2017-6-21T8:20:7Z</time></trkpt>
<trkpt lat="46.08577" lon="6.97694"><ele></ele><time>2017-6-21T8:20:10Z</time></trkpt>
<trkpt lat="46.08578" lon="6.97689"><ele></ele><time>2017-6-21T8:20:13Z</time></trkpt>
<trkpt lat="46.08579" lon="6.97684"><ele></ele><time>2017-6-21T8:20:16Z</time></trkpt>
<trkpt lat="46.0858" lon="6.9768"><ele></ele><time>2017-6-21T8:20:19Z</time></trkpt>
<trkpt lat="46.08581" lon="6.97675"><ele></ele><time>2017-6-21T8:20:22Z</time></trkpt>
<trkpt lat="46.08583" lon="6.9767"><ele></ele><time>2017-6-21T8:20:25Z</time></trkpt>
<trkpt lat="46.08583" lon="6.97668"><ele></ele><time>2017-6-21T8:20:28Z</time></trkpt>
<trkpt lat="46.08584" lon="6.97666"><ele></ele><time>2017-6-21T8:20:31Z</time></trkpt>
<trkpt lat="46.08585" lon="6.97661"><ele></ele><time>2017-6-21T8:20:34Z</time></trkpt>
<trkpt lat="46.08586" lon="6.97656"><ele></ele><time>2017-6-21T8:20:37Z</time></trkpt>
<trkpt lat="46.08587" lon="6.97652"><ele></ele><time>2017-6-21T8:20:40Z</time></trkpt>
<trkpt lat="46.08587" lon="6.97649"><ele></ele><time>2017-6-21T8:20:43Z</time></trkpt>
<trkpt lat="46.08586" lon="6.97647"><ele></ele><time>2017-6-21T8:20:46Z</time></trkpt>
<trkpt lat="46.08585" lon="6.97643"><ele></ele><time>2017-6-21T8:20:49Z</time></trkpt>
<trkpt lat="46.08583" lon="6.97638"><ele></ele><time>2017-6-21T8:20:52Z</time></trkpt>
<trkpt lat="46.08582" lon="6.97634"><ele></ele><time>2017-6-21T8:20:55Z</time></trkpt>
<trkpt lat="46.0858" lon="6.9763"><ele></ele><time>2017-6-21T8:20:58Z</time></trkpt>
<trkpt lat="46.08579" lon="6.97625"><ele></ele><time>2017-6-21T8:21:1Z</time></trkpt>
<trkpt lat="46.08577" lon="6.97621"><ele></ele><time>2017-6-21T8:21:4Z</time></trkpt>
<trkpt lat="46.08576" lon="6.97619"><ele></ele><time>2017-6-21T8:21:7Z</time></trkpt>
<trkpt lat="46.08575" lon="6.97617"><ele></ele><time>2017-6-21T8:21:10Z</time></trkpt>
<trkpt lat="46.08574" lon="6.97612"><ele></ele><time>2017-6-21T8:21:13Z</time></trkpt>
<trkpt lat="46.08572" lon="6.97608"><ele></ele><time>2017-6-21T8:21:16Z</time></trkpt>
<trkpt lat="46.08571" lon="6.97604"><ele></ele><time>2017-6-21T8:21:19Z</time></trkpt>
<trkpt lat="46.08569" lon="6.97599"><ele></ele><time>2017-6-21T8:21:22Z</time></trkpt>
<trkpt lat="46.08568" lon="6.97595"><ele></ele><time>2017-6-21T8:21:25Z</time></trkpt>
<trkpt lat="46.08566" lon="6.97591"><ele></ele><time>2017-6-21T8:21:28Z</time></trkpt>
<trkpt lat="46.08564" lon="6.97588"><ele></ele><time>2017-6-21T8:21:31Z</time></trkpt>
<trkpt lat="46.08563" lon="6.97585"><ele></ele><time>2017-6-21T8:21:34Z</time></trkpt>
<trkpt lat="46.08561" lon="6.97581"><ele></ele><time>2017-6-21T8:21:37Z</time></trkpt>
<trkpt lat="46.08559" lon="6.97578"><ele></ele><time>2017-6-21T8:21:40Z</time></trkpt>
<trkpt lat="46.08557" lon="6.97575"><ele></ele><time>2017-6-21T8:21:43Z</time></trkpt>
<trkpt lat="46.08555" lon="6.97572"><ele></ele><time>2017-6-21T8:21:46Z</time></trkpt>
<trkpt lat="46.08554" lon="6.97569"><ele></ele><time>2017-6-21T8:21:49Z</time></trkpt>
<trkpt lat="46.08552" lon="6.97566"><ele></ele><time>2017-6-21T8:21:52Z</time></trkpt>
<trkpt lat="46.0855" lon="6.97563"><ele></ele><time>2017-6-21T8:21:55Z</time></trkpt>
<trkpt lat="46.08548" lon="6.9756"><ele></ele><time>2017-6-21T8:21:58Z</time></trkpt>
<trkpt lat="46.08547" lon="6.97557"><ele></ele><time>2017-6-21T8:22:1Z</time></trkpt>
<trkpt lat="46.08545" lon="6.97554"><ele></ele><time>2017-6-21T8:22:4Z</time></trkpt>
<trkpt lat="46.08543" lon="6.97551"><ele></ele><time>2017-6-21T8:22:7Z</time></trkpt>
<trkpt lat="46.08541" lon="6.97548"><ele></ele><time>2017-6-21T8:22:10Z</time></trkpt>
<trkpt lat="46.08539" lon="6.97545"><ele></ele><time>2017-6-21T8:22:13Z</time></trkpt>
<trkpt lat="46.08538" lon="6.97541"><ele></ele><time>2017-6-21T8:22:16Z</time></trkpt>
<trkpt lat="46.08537" lon="6.9754"><ele></ele><time>2017-6-21T8:22:19Z</time></trkpt>
<trkpt lat="46.08536" lon="6.97538"><ele></ele><time>2017-6-21T8:22:22Z</time></trkpt>
<trkpt lat="46.08534" lon="6.97535"><ele></ele><time>2017-6-21T8:22:25Z</time></trkpt>
<trkpt lat="46.08533" lon="6.97532"><ele></ele><time>2017-6-21T8:22:28Z</time></trkpt>
<trkpt lat="46.08531" lon="6.97528"><ele></ele><time>2017-6-21T8:22:31Z</time></trkpt>
<trkpt lat="46.08529" lon="6.97525"><ele></ele><time>2017-6-21T8:22:34Z</time></trkpt>
<trkpt lat="46.08528" lon="6.97522"><ele></ele><time>2017-6-21T8:22:37Z</time></trkpt>
<trkpt lat="46.08526" lon="6.97519"><ele></ele><time>2017-6-21T8:22:40Z</time></trkpt>
<trkpt lat="46.08524" lon="6.97515"><ele></ele><time>2017-6-21T8:22:43Z</time></trkpt>
<trkpt lat="46.08523" lon="6.97512"><ele></ele><time>2017-6-21T8:22:46Z</time></trkpt>
<trkpt lat="46.08521" lon="6.97509"><ele></ele><time>2017-6-21T8:22:49Z</time></trkpt>
<trkpt lat="46.08519" lon="6.97505"><ele></ele><time>2017-6-21T8:22:52Z</time></trkpt>
<trkpt lat="46.08519" lon="6.97504"><ele></ele><time>2017-6-21T8:22:55Z</time></trkpt>
<trkpt lat="46.08518" lon="6.97502"><ele></ele><time>2017-6-21T8:22:58Z</time></trkpt>
<trkpt lat="46.08516" lon="6.97499"><ele></ele><time>2017-6-21T8:23:1Z</time></trkpt>
<trkpt lat="46.08514" lon="6.97495"><ele></ele><time>2017-6-21T8:23:4Z</time></trkpt>
<trkpt lat="46.08513" lon="6.97492"><ele></ele><time>2017-6-21T8:23:7Z</time></trkpt>
<trkpt lat="46.08511" lon="6.97489"><ele></ele><time>2017-6-21T8:23:10Z</time></trkpt>
<trkpt lat="46.0851" lon="6.97487"><ele></ele><time>2017-6-21T8:23:13Z</time></trkpt>
<trkpt lat="46.08509" lon="6.97486"><ele></ele><time>2017-6-21T8:23:16Z</time></trkpt>
<trkpt lat="46.08507" lon="6.97482"><ele></ele><time>2017-6-21T8:23:19Z</time></trkpt>
<trkpt lat="46.08506" lon="6.97479"><ele></ele><time>2017-6-21T8:23:22Z</time></trkpt>
<trkpt lat="46.08504" lon="6.97476"><ele></ele><time>2017-6-21T8:23:25Z</time></trkpt>
<trkpt lat="46.08502" lon="6.97472"><ele></ele><time>2017-6-21T8:23:28Z</time></trkpt>
<trkpt lat="46.085" lon="6.97469"><ele></ele><time>2017-6-21T8:23:31Z</time></trkpt>
<trkpt lat="46.08499" lon="6.97465"><ele></ele><time>2017-6-21T8:23:34Z</time></trkpt>
<trkpt lat="46.08497" lon="6.97462"><ele></ele><time>2017-6-21T8:23:37Z</time></trkpt>
<trkpt lat="46.08495" lon="6.97459"><ele></ele><time>2017-6-21T8:23:40Z</time></trkpt>
<trkpt lat="46.08493" lon="6.97455"><ele></ele><time>2017-6-21T8:23:43Z</time></trkpt>
<trkpt lat="46.08491" lon="6.97452"><ele></ele><time>2017-6-21T8:23:46Z</time></trkpt>
<trkpt lat="46.0849" lon="6.97449"><ele></ele><time>2017-6-21T8:23:49Z</time></trkpt>
<trkpt lat="46.08488" lon="6.97445"><ele></ele><time>2017-6-21T8:23:52Z</time></trkpt>
<trkpt lat="46.08486" lon="6.97442"><ele></ele><time>2017-6-21T8:23:55Z</time></trkpt>
<trkpt lat="46.08484" lon="6.97439"><ele></ele><time>2017-6-21T8:23:58Z</time></trkpt>
<trkpt lat="46.08482" lon="6.97436"><ele></ele><time>2017-6-21T8:24:1Z</time></trkpt>
<trkpt lat="46.0848" lon="6.97433"><ele></ele><time>2017-6-21T8:24:4Z</time></trkpt>
<trkpt lat="46.08478" lon="6.9743"><ele></ele><time>2017-6-21T8:24:7Z</time></trkpt>
<trkpt lat="46.08476" lon="6.97428"><ele></ele><time>2017-6-21T8:24:10Z</time></trkpt>
<trkpt lat="46.08474" lon="6.97425"><ele></ele><time>2017-6-21T8:24:13Z</time></trkpt>
<trkpt lat="46.08471" lon="6.97423"><ele></ele><time>2017-6-21T8:24:16Z</time></trkpt>
<trkpt lat="46.08469" lon="6.9742"><ele></ele><time>2017-6-21T8:24:19Z</time></trkpt>
<trkpt lat="46.08467" lon="6.97417"><ele></ele><time>2017-6-21T8:24:22Z</time></trkpt>
<trkpt lat="46.08465" lon="6.97415"><ele></ele><time>2017-6-21T8:24:25Z</time></trkpt>
<trkpt lat="46.08463" lon="6.97412"><ele></ele><time>2017-6-21T8:24:28Z</time></trkpt>
<trkpt lat="46.0846" lon="6.9741"><ele></ele><time>2017-6-21T8:24:31Z</time></trkpt>
<trkpt lat="46.08458" lon="6.97407"><ele></ele><time>2017-6-21T8:24:34Z</time></trkpt>
<trkpt lat="46.08456" lon="6.97405"><ele></ele><time>2017-6-21T8:24:37Z</time></trkpt>
<trkpt lat="46.08454" lon="6.97402"><ele></ele><time>2017-6-21T8:24:40Z</time></trkpt>
<trkpt lat="46.08452" lon="6.97399"><ele></ele><time>2017-6-21T8:24:43Z</time></trkpt>
<trkpt lat="46.0845" lon="6.97397"><ele></ele><time>2017-6-21T8:24:46Z</time></trkpt>
<trkpt lat="46.08447" lon="6.97394"><ele></ele><time>2017-6-21T8:24:49Z</time></trkpt>
<trkpt lat="46.08446" lon="6.97391"><ele></ele><time>2017-6-21T8:24:52Z</time></trkpt>
<trkpt lat="46.08444" lon="6.97388"><ele></ele><time>2017-6-21T8:24:55Z</time></trkpt>
<trkpt lat="46.08442" lon="6.97385"><ele></ele><time>2017-6-21T8:24:58Z</time></trkpt>
<trkpt lat="46.0844" lon="6.97382"><ele></ele><time>2017-6-21T8:25:1Z</time></trkpt>
<trkpt lat="46.08439" lon="6.97379"><ele></ele><time>2017-6-21T8:25:4Z</time></trkpt>
<trkpt lat="46.08437" lon="6.97376"><ele></ele><time>2017-6-21T8:25:7Z</time></trkpt>
<trkpt lat="46.08435" lon="6.97373"><ele></ele><time>2017-6-21T8:25:10Z</time></trkpt>
<trkpt lat="46.08433" lon="6.9737"><ele></ele><time>2017-6-21T8:25:13Z</time></trkpt>
<trkpt lat="46.08432" lon="6.97369"><ele></ele><time>2017-6-21T8:25:16Z</time></trkpt>
<trkpt lat="46.08431" lon="6.97367"><ele></ele><time>2017-6-21T8:25:19Z</time></trkpt>
<trkpt lat="46.0843" lon="6.97364"><ele></ele><time>2017-6-21T8:25:22Z</time></trkpt>
<trkpt lat="46.08428" lon="6.97361"><ele></ele><time>2017-6-21T8:25:25Z</time></trkpt>
<trkpt lat="46.08426" lon="6.97358"><ele></ele><time>2017-6-21T8:25:28Z</time></trkpt>
<trkpt lat="46.08424" lon="6.97355"><ele></ele><time>2017-6-21T8:25:31Z</time></trkpt>
<trkpt lat="46.08423" lon="6.97352"><ele></ele><time>2017-6-21T8:25:34Z</time></trkpt>
<trkpt lat="46.08421" lon="6.97349"><ele></ele><time>2017-6-21T8:25:37Z</time></trkpt>
<trkpt lat="46.08419" lon="6.97346"><ele></ele><time>2017-6-21T8:25:40Z</time></trkpt>
<trkpt lat="46.08418" lon="6.97344"><ele></ele><time>2017-6-21T8:25:43Z</time></trkpt>
<trkpt lat="46.08418" lon="6.97343"><ele></ele><time>2017-6-21T8:25:46Z</time></trkpt>
<trkpt lat="46.08417" lon="6.97339"><ele></ele><time>2017-6-21T8:25:49Z</time></trkpt>
<trkpt lat="46.08416" lon="6.97335"><ele></ele><time>2017-6-21T8:25:52Z</time></trkpt>
<trkpt lat="46.08416" lon="6.97333"><ele></ele><time>2017-6-21T8:25:55Z</time></trkpt>
<trkpt lat="46.08415" lon="6.97331"><ele></ele><time>2017-6-21T8:25:58Z</time></trkpt>
<trkpt lat="46.08414" lon="6.97327"><ele></ele><time>2017-6-21T8:26:1Z</time></trkpt>
<trkpt lat="46.08413" lon="6.97323"><ele></ele><time>2017-6-21T8:26:4Z</time></trkpt>
<trkpt lat="46.08412" lon="6.97319"><ele></ele><time>2017-6-21T8:26:7Z</time></trkpt>
<trkpt lat="46.08412" lon="6.97316"><ele></ele><time>2017-6-21T8:26:10Z</time></trkpt>
<trkpt lat="46.08411" lon="6.97312"><ele></ele><time>2017-6-21T8:26:13Z</time></trkpt>
<trkpt lat="46.0841" lon="6.97308"><ele></ele><time>2017-6-21T8:26:16Z</time></trkpt>
<trkpt lat="46.08409" lon="6.97304"><ele></ele><time>2017-6-21T8:26:19Z</time></trkpt>
<trkpt lat="46.08408" lon="6.973"><ele></ele><time>2017-6-21T8:26:22Z</time></trkpt>
<trkpt lat="46.08407" lon="6.97296"><ele></ele><time>2017-6-21T8:26:25Z</time></trkpt>
<trkpt lat="46.08406" lon="6.97292"><ele></ele><time>2017-6-21T8:26:28Z</time></trkpt>
<trkpt lat="46.08405" lon="6.97288"><ele></ele><time>2017-6-21T8:26:31Z</time></trkpt>
<trkpt lat="46.08404" lon="6.97285"><ele></ele><time>2017-6-21T8:26:34Z</time></trkpt>
<trkpt lat="46.08404" lon="6.97283"><ele></ele><time>2017-6-21T8:26:37Z</time></trkpt>
<trkpt lat="46.08404" lon="6.97281"><ele></ele><time>2017-6-21T8:26:40Z</time></trkpt>
<trkpt lat="46.08404" lon="6.97276"><ele></ele><time>2017-6-21T8:26:43Z</time></trkpt>
<trkpt lat="46.08403" lon="6.97272"><ele></ele><time>2017-6-21T8:26:46Z</time></trkpt>
<trkpt lat="46.08403" lon="6.97268"><ele></ele><time>2017-6-21T8:26:49Z</time></trkpt>
<trkpt lat="46.08403" lon="6.97264"><ele></ele><time>2017-6-21T8:26:52Z</time></trkpt>
<trkpt lat="46.08403" lon="6.9726"><ele></ele><time>2017-6-21T8:26:55Z</time></trkpt>
<trkpt lat="46.08402" lon="6.97256"><ele></ele><time>2017-6-21T8:26:58Z</time></trkpt>
<trkpt lat="46.08402" lon="6.97252"><ele></ele><time>2017-6-21T8:27:1Z</time></trkpt>
<trkpt lat="46.08402" lon="6.97248"><ele></ele><time>2017-6-21T8:27:4Z</time></trkpt>
<trkpt lat="46.08402" lon="6.97244"><ele></ele><time>2017-6-21T8:27:7Z</time></trkpt>
<trkpt lat="46.08402" lon="6.97241"><ele></ele><time>2017-6-21T8:27:10Z</time></trkpt>
<trkpt lat="46.08401" lon="6.97239"><ele></ele><time>2017-6-21T8:27:13Z</time></trkpt>
<trkpt lat="46.08401" lon="6.97235"><ele></ele><time>2017-6-21T8:27:16Z</time></trkpt>
<trkpt lat="46.08401" lon="6.97231"><ele></ele><time>2017-6-21T8:27:19Z</time></trkpt>
<trkpt lat="46.08401" lon="6.97227"><ele></ele><time>2017-6-21T8:27:22Z</time></trkpt>
<trkpt lat="46.08401" lon="6.97223"><ele></ele><time>2017-6-21T8:27:25Z</time></trkpt>
<trkpt lat="46.084" lon="6.97219"><ele></ele><time>2017-6-21T8:27:28Z</time></trkpt>
<trkpt lat="46.084" lon="6.97217"><ele></ele><time>2017-6-21T8:27:31Z</time></trkpt>
<trkpt lat="46.084" lon="6.97215"><ele></ele><time>2017-6-21T8:27:34Z</time></trkpt>
<trkpt lat="46.08398" lon="6.97212"><ele></ele><time>2017-6-21T8:27:37Z</time></trkpt>
<trkpt lat="46.08397" lon="6.97208"><ele></ele><time>2017-6-21T8:27:40Z</time></trkpt>
<trkpt lat="46.08396" lon="6.97205"><ele></ele><time>2017-6-21T8:27:43Z</time></trkpt>
<trkpt lat="46.08395" lon="6.97202"><ele></ele><time>2017-6-21T8:27:46Z</time></trkpt>
<trkpt lat="46.08395" lon="6.972"><ele></ele><time>2017-6-21T8:27:49Z</time></trkpt>
<trkpt lat="46.08394" lon="6.97198"><ele></ele><time>2017-6-21T8:27:52Z</time></trkpt>
<trkpt lat="46.08393" lon="6.97195"><ele></ele><time>2017-6-21T8:27:55Z</time></trkpt>
<trkpt lat="46.08392" lon="6.97192"><ele></ele><time>2017-6-21T8:27:58Z</time></trkpt>
<trkpt lat="46.08391" lon="6.97188"><ele></ele><time>2017-6-21T8:28:1Z</time></trkpt>
<trkpt lat="46.0839" lon="6.97185"><ele></ele><time>2017-6-21T8:28:4Z</time></trkpt>
<trkpt lat="46.08389" lon="6.97181"><ele></ele><time>2017-6-21T8:28:7Z</time></trkpt>
<trkpt lat="46.08387" lon="6.97178"><ele></ele><time>2017-6-21T8:28:10Z</time></trkpt>
<trkpt lat="46.08386" lon="6.97175"><ele></ele><time>2017-6-21T8:28:13Z</time></trkpt>
<trkpt lat="46.08385" lon="6.97171"><ele></ele><time>2017-6-21T8:28:16Z</time></trkpt>
<trkpt lat="46.08384" lon="6.97168"><ele></ele><time>2017-6-21T8:28:19Z</time></trkpt>
<trkpt lat="46.08383" lon="6.97164"><ele></ele><time>2017-6-21T8:28:22Z</time></trkpt>
<trkpt lat="46.08382" lon="6.97163"><ele></ele><time>2017-6-21T8:28:25Z</time></trkpt>
<trkpt lat="46.08382" lon="6.97161"><ele></ele><time>2017-6-21T8:28:28Z</time></trkpt>
<trkpt lat="46.08381" lon="6.97158"><ele></ele><time>2017-6-21T8:28:31Z</time></trkpt>
<trkpt lat="46.0838" lon="6.97154"><ele></ele><time>2017-6-21T8:28:34Z</time></trkpt>
<trkpt lat="46.08379" lon="6.9715"><ele></ele><time>2017-6-21T8:28:37Z</time></trkpt>
<trkpt lat="46.08378" lon="6.97146"><ele></ele><time>2017-6-21T8:28:40Z</time></trkpt>
<trkpt lat="46.08377" lon="6.97142"><ele></ele><time>2017-6-21T8:28:43Z</time></trkpt>
<trkpt lat="46.08376" lon="6.97138"><ele></ele><time>2017-6-21T8:28:46Z</time></trkpt>
<trkpt lat="46.08375" lon="6.97134"><ele></ele><time>2017-6-21T8:28:49Z</time></trkpt>
<trkpt lat="46.08374" lon="6.9713"><ele></ele><time>2017-6-21T8:28:52Z</time></trkpt>
<trkpt lat="46.08373" lon="6.97127"><ele></ele><time>2017-6-21T8:28:55Z</time></trkpt>
<trkpt lat="46.08373" lon="6.97123"><ele></ele><time>2017-6-21T8:28:58Z</time></trkpt>
<trkpt lat="46.08372" lon="6.97121"><ele></ele><time>2017-6-21T8:29:1Z</time></trkpt>
<trkpt lat="46.08372" lon="6.97119"><ele></ele><time>2017-6-21T8:29:4Z</time></trkpt>
<trkpt lat="46.08371" lon="6.97115"><ele></ele><time>2017-6-21T8:29:7Z</time></trkpt>
<trkpt lat="46.0837" lon="6.97111"><ele></ele><time>2017-6-21T8:29:10Z</time></trkpt>
<trkpt lat="46.08369" lon="6.97107"><ele></ele><time>2017-6-21T8:29:13Z</time></trkpt>
<trkpt lat="46.08368" lon="6.97103"><ele></ele><time>2017-6-21T8:29:16Z</time></trkpt>
<trkpt lat="46.08367" lon="6.971"><ele></ele><time>2017-6-21T8:29:19Z</time></trkpt>
<trkpt lat="46.08366" lon="6.97096"><ele></ele><time>2017-6-21T8:29:22Z</time></trkpt>
<trkpt lat="46.08366" lon="6.97094"><ele></ele><time>2017-6-21T8:29:25Z</time></trkpt>
<trkpt lat="46.08366" lon="6.97093"><ele></ele><time>2017-6-21T8:29:28Z</time></trkpt>
<trkpt lat="46.08366" lon="6.97091"><ele></ele><time>2017-6-21T8:29:31Z</time></trkpt>
<trkpt lat="46.08366" lon="6.97089"><ele></ele><time>2017-6-21T8:29:34Z</time></trkpt>
<trkpt lat="46.08366" lon="6.97088"><ele></ele><time>2017-6-21T8:29:37Z</time></trkpt>
<trkpt lat="46.08366" lon="6.97087"><ele></ele><time>2017-6-21T8:29:40Z</time></trkpt>
<trkpt lat="46.08366" lon="6.97086"><ele></ele><time>2017-6-21T8:29:43Z</time></trkpt>
<trkpt lat="46.08366" lon="6.97084"><ele></ele><time>2017-6-21T8:29:46Z</time></trkpt>
<trkpt lat="46.08366" lon="6.97082"><ele></ele><time>2017-6-21T8:29:49Z</time></trkpt>
<trkpt lat="46.08362" lon="6.97052"><ele></ele><time>2017-6-21T8:29:52Z</time></trkpt>
<trkpt lat="46.08362" lon="6.97052"><ele></ele><time>2017-6-21T8:29:55Z</time></trkpt>
<trkpt lat="46.08359" lon="6.97024"><ele></ele><time>2017-6-21T8:29:58Z</time></trkpt>
<trkpt lat="46.08357" lon="6.9702"><ele></ele><time>2017-6-21T8:30:1Z</time></trkpt>
<trkpt lat="46.08355" lon="6.97017"><ele></ele><time>2017-6-21T8:30:4Z</time></trkpt>
<trkpt lat="46.08353" lon="6.97014"><ele></ele><time>2017-6-21T8:30:7Z</time></trkpt>
<trkpt lat="46.0835" lon="6.9701"><ele></ele><time>2017-6-21T8:30:10Z</time></trkpt>
<trkpt lat="46.08348" lon="6.97007"><ele></ele><time>2017-6-21T8:30:13Z</time></trkpt>
<trkpt lat="46.08346" lon="6.97004"><ele></ele><time>2017-6-21T8:30:16Z</time></trkpt>
<trkpt lat="46.08344" lon="6.97"><ele></ele><time>2017-6-21T8:30:19Z</time></trkpt>
<trkpt lat="46.08342" lon="6.96997"><ele></ele><time>2017-6-21T8:30:22Z</time></trkpt>
<trkpt lat="46.0834" lon="6.96993"><ele></ele><time>2017-6-21T8:30:25Z</time></trkpt>
<trkpt lat="46.08338" lon="6.9699"><ele></ele><time>2017-6-21T8:30:28Z</time></trkpt>
<trkpt lat="46.08336" lon="6.96987"><ele></ele><time>2017-6-21T8:30:31Z</time></trkpt>
<trkpt lat="46.08334" lon="6.96983"><ele></ele><time>2017-6-21T8:30:34Z</time></trkpt>
<trkpt lat="46.08333" lon="6.9698"><ele></ele><time>2017-6-21T8:30:37Z</time></trkpt>
<trkpt lat="46.08333" lon="6.96975"><ele></ele><time>2017-6-21T8:30:40Z</time></trkpt>
<trkpt lat="46.08333" lon="6.96973"><ele></ele><time>2017-6-21T8:30:43Z</time></trkpt>
<trkpt lat="46.08333" lon="6.96971"><ele></ele><time>2017-6-21T8:30:46Z</time></trkpt>
<trkpt lat="46.08334" lon="6.96966"><ele></ele><time>2017-6-21T8:30:49Z</time></trkpt>
<trkpt lat="46.08334" lon="6.96962"><ele></ele><time>2017-6-21T8:30:52Z</time></trkpt>
<trkpt lat="46.08334" lon="6.96957"><ele></ele><time>2017-6-21T8:30:55Z</time></trkpt>
<trkpt lat="46.08335" lon="6.96953"><ele></ele><time>2017-6-21T8:30:58Z</time></trkpt>
<trkpt lat="46.08335" lon="6.96949"><ele></ele><time>2017-6-21T8:31:1Z</time></trkpt>
<trkpt lat="46.08335" lon="6.96944"><ele></ele><time>2017-6-21T8:31:4Z</time></trkpt>
<trkpt lat="46.08336" lon="6.9694"><ele></ele><time>2017-6-21T8:31:7Z</time></trkpt>
<trkpt lat="46.08336" lon="6.96935"><ele></ele><time>2017-6-21T8:31:10Z</time></trkpt>
<trkpt lat="46.08336" lon="6.96931"><ele></ele><time>2017-6-21T8:31:13Z</time></trkpt>
<trkpt lat="46.08337" lon="6.96926"><ele></ele><time>2017-6-21T8:31:16Z</time></trkpt>
<trkpt lat="46.08337" lon="6.96922"><ele></ele><time>2017-6-21T8:31:19Z</time></trkpt>
<trkpt lat="46.08337" lon="6.9692"><ele></ele><time>2017-6-21T8:31:22Z</time></trkpt>
<trkpt lat="46.08337" lon="6.96917"><ele></ele><time>2017-6-21T8:31:25Z</time></trkpt>
<trkpt lat="46.08337" lon="6.96915"><ele></ele><time>2017-6-21T8:31:28Z</time></trkpt>
<trkpt lat="46.08337" lon="6.96913"><ele></ele><time>2017-6-21T8:31:31Z</time></trkpt>
<trkpt lat="46.08335" lon="6.96909"><ele></ele><time>2017-6-21T8:31:34Z</time></trkpt>
<trkpt lat="46.08334" lon="6.96905"><ele></ele><time>2017-6-21T8:31:37Z</time></trkpt>
<trkpt lat="46.08333" lon="6.96901"><ele></ele><time>2017-6-21T8:31:40Z</time></trkpt>
<trkpt lat="46.08332" lon="6.96897"><ele></ele><time>2017-6-21T8:31:43Z</time></trkpt>
<trkpt lat="46.08331" lon="6.96893"><ele></ele><time>2017-6-21T8:31:46Z</time></trkpt>
<trkpt lat="46.0833" lon="6.96889"><ele></ele><time>2017-6-21T8:31:49Z</time></trkpt>
<trkpt lat="46.08328" lon="6.96884"><ele></ele><time>2017-6-21T8:31:52Z</time></trkpt>
<trkpt lat="46.08327" lon="6.9688"><ele></ele><time>2017-6-21T8:31:55Z</time></trkpt>
<trkpt lat="46.08326" lon="6.96876"><ele></ele><time>2017-6-21T8:31:58Z</time></trkpt>
<trkpt lat="46.08325" lon="6.96872"><ele></ele><time>2017-6-21T8:32:1Z</time></trkpt>
<trkpt lat="46.08324" lon="6.96868"><ele></ele><time>2017-6-21T8:32:4Z</time></trkpt>
<trkpt lat="46.08323" lon="6.96864"><ele></ele><time>2017-6-21T8:32:7Z</time></trkpt>
<trkpt lat="46.08321" lon="6.9686"><ele></ele><time>2017-6-21T8:32:10Z</time></trkpt>
<trkpt lat="46.0832" lon="6.96856"><ele></ele><time>2017-6-21T8:32:13Z</time></trkpt>
<trkpt lat="46.08319" lon="6.96854"><ele></ele><time>2017-6-21T8:32:16Z</time></trkpt>
<trkpt lat="46.08318" lon="6.96852"><ele></ele><time>2017-6-21T8:32:19Z</time></trkpt>
<trkpt lat="46.08316" lon="6.96849"><ele></ele><time>2017-6-21T8:32:22Z</time></trkpt>
<trkpt lat="46.08314" lon="6.96845"><ele></ele><time>2017-6-21T8:32:25Z</time></trkpt>
<trkpt lat="46.08312" lon="6.96842"><ele></ele><time>2017-6-21T8:32:28Z</time></trkpt>
<trkpt lat="46.0831" lon="6.96839"><ele></ele><time>2017-6-21T8:32:31Z</time></trkpt>
<trkpt lat="46.08308" lon="6.96835"><ele></ele><time>2017-6-21T8:32:34Z</time></trkpt>
<trkpt lat="46.08306" lon="6.96832"><ele></ele><time>2017-6-21T8:32:37Z</time></trkpt>
<trkpt lat="46.08304" lon="6.96828"><ele></ele><time>2017-6-21T8:32:40Z</time></trkpt>
<trkpt lat="46.08302" lon="6.96825"><ele></ele><time>2017-6-21T8:32:43Z</time></trkpt>
<trkpt lat="46.083" lon="6.96822"><ele></ele><time>2017-6-21T8:32:46Z</time></trkpt>
<trkpt lat="46.08298" lon="6.96818"><ele></ele><time>2017-6-21T8:32:49Z</time></trkpt>
<trkpt lat="46.08296" lon="6.96815"><ele></ele><time>2017-6-21T8:32:52Z</time></trkpt>
<trkpt lat="46.08294" lon="6.96812"><ele></ele><time>2017-6-21T8:32:55Z</time></trkpt>
<trkpt lat="46.08292" lon="6.96808"><ele></ele><time>2017-6-21T8:32:58Z</time></trkpt>
<trkpt lat="46.0829" lon="6.96805"><ele></ele><time>2017-6-21T8:33:1Z</time></trkpt>
<trkpt lat="46.0829" lon="6.96803"><ele></ele><time>2017-6-21T8:33:4Z</time></trkpt>
<trkpt lat="46.08289" lon="6.96801"><ele></ele><time>2017-6-21T8:33:7Z</time></trkpt>
<trkpt lat="46.08288" lon="6.96798"><ele></ele><time>2017-6-21T8:33:10Z</time></trkpt>
<trkpt lat="46.08286" lon="6.96794"><ele></ele><time>2017-6-21T8:33:13Z</time></trkpt>
<trkpt lat="46.08286" lon="6.96792"><ele></ele><time>2017-6-21T8:33:16Z</time></trkpt>
<trkpt lat="46.08285" lon="6.9679"><ele></ele><time>2017-6-21T8:33:19Z</time></trkpt>
<trkpt lat="46.08284" lon="6.96786"><ele></ele><time>2017-6-21T8:33:22Z</time></trkpt>
<trkpt lat="46.08283" lon="6.96783"><ele></ele><time>2017-6-21T8:33:25Z</time></trkpt>
<trkpt lat="46.08282" lon="6.96779"><ele></ele><time>2017-6-21T8:33:28Z</time></trkpt>
<trkpt lat="46.0828" lon="6.96775"><ele></ele><time>2017-6-21T8:33:31Z</time></trkpt>
<trkpt lat="46.08279" lon="6.96772"><ele></ele><time>2017-6-21T8:33:34Z</time></trkpt>
<trkpt lat="46.08278" lon="6.96768"><ele></ele><time>2017-6-21T8:33:37Z</time></trkpt>
<trkpt lat="46.08277" lon="6.96764"><ele></ele><time>2017-6-21T8:33:40Z</time></trkpt>
<trkpt lat="46.08275" lon="6.96761"><ele></ele><time>2017-6-21T8:33:43Z</time></trkpt>
<trkpt lat="46.08274" lon="6.96757"><ele></ele><time>2017-6-21T8:33:46Z</time></trkpt>
<trkpt lat="46.08273" lon="6.96753"><ele></ele><time>2017-6-21T8:33:49Z</time></trkpt>
<trkpt lat="46.08272" lon="6.9675"><ele></ele><time>2017-6-21T8:33:52Z</time></trkpt>
<trkpt lat="46.08271" lon="6.96746"><ele></ele><time>2017-6-21T8:33:55Z</time></trkpt>
<trkpt lat="46.0827" lon="6.96744"><ele></ele><time>2017-6-21T8:33:58Z</time></trkpt>
<trkpt lat="46.08269" lon="6.96742"><ele></ele><time>2017-6-21T8:34:1Z</time></trkpt>
<trkpt lat="46.08269" lon="6.9674"><ele></ele><time>2017-6-21T8:34:4Z</time></trkpt>
<trkpt lat="46.08268" lon="6.96738"><ele></ele><time>2017-6-21T8:34:7Z</time></trkpt>
<trkpt lat="46.08267" lon="6.96734"><ele></ele><time>2017-6-21T8:34:10Z</time></trkpt>
<trkpt lat="46.08265" lon="6.9673"><ele></ele><time>2017-6-21T8:34:13Z</time></trkpt>
<trkpt lat="46.08264" lon="6.96725"><ele></ele><time>2017-6-21T8:34:16Z</time></trkpt>
<trkpt lat="46.08263" lon="6.96721"><ele></ele><time>2017-6-21T8:34:19Z</time></trkpt>
<trkpt lat="46.08261" lon="6.96717"><ele></ele><time>2017-6-21T8:34:22Z</time></trkpt>
<trkpt lat="46.0826" lon="6.96713"><ele></ele><time>2017-6-21T8:34:25Z</time></trkpt>
<trkpt lat="46.08259" lon="6.96709"><ele></ele><time>2017-6-21T8:34:28Z</time></trkpt>
<trkpt lat="46.08257" lon="6.96705"><ele></ele><time>2017-6-21T8:34:31Z</time></trkpt>
<trkpt lat="46.08256" lon="6.96701"><ele></ele><time>2017-6-21T8:34:34Z</time></trkpt>
<trkpt lat="46.08255" lon="6.96697"><ele></ele><time>2017-6-21T8:34:37Z</time></trkpt>
<trkpt lat="46.08253" lon="6.96693"><ele></ele><time>2017-6-21T8:34:40Z</time></trkpt>
<trkpt lat="46.08252" lon="6.96689"><ele></ele><time>2017-6-21T8:34:43Z</time></trkpt>
<trkpt lat="46.0825" lon="6.96685"><ele></ele><time>2017-6-21T8:34:46Z</time></trkpt>
<trkpt lat="46.08248" lon="6.96685"><ele></ele><time>2017-6-21T8:34:49Z</time></trkpt>
<trkpt lat="46.08245" lon="6.96685"><ele></ele><time>2017-6-21T8:34:52Z</time></trkpt>
<trkpt lat="46.08242" lon="6.96684"><ele></ele><time>2017-6-21T8:34:55Z</time></trkpt>
<trkpt lat="46.0824" lon="6.96684"><ele></ele><time>2017-6-21T8:34:58Z</time></trkpt>
<trkpt lat="46.08237" lon="6.96684"><ele></ele><time>2017-6-21T8:35:1Z</time></trkpt>
<trkpt lat="46.08234" lon="6.96684"><ele></ele><time>2017-6-21T8:35:4Z</time></trkpt>
<trkpt lat="46.08233" lon="6.96684"><ele></ele><time>2017-6-21T8:35:7Z</time></trkpt>
<trkpt lat="46.08231" lon="6.96684"><ele></ele><time>2017-6-21T8:35:10Z</time></trkpt>
<trkpt lat="46.08229" lon="6.96684"><ele></ele><time>2017-6-21T8:35:13Z</time></trkpt>
<trkpt lat="46.08226" lon="6.96683"><ele></ele><time>2017-6-21T8:35:16Z</time></trkpt>
<trkpt lat="46.08223" lon="6.96683"><ele></ele><time>2017-6-21T8:35:19Z</time></trkpt>
<trkpt lat="46.08221" lon="6.96683"><ele></ele><time>2017-6-21T8:35:22Z</time></trkpt>
<trkpt lat="46.08218" lon="6.96683"><ele></ele><time>2017-6-21T8:35:25Z</time></trkpt>
<trkpt lat="46.08215" lon="6.96683"><ele></ele><time>2017-6-21T8:35:28Z</time></trkpt>
<trkpt lat="46.08213" lon="6.96682"><ele></ele><time>2017-6-21T8:35:31Z</time></trkpt>
<trkpt lat="46.0821" lon="6.96682"><ele></ele><time>2017-6-21T8:35:34Z</time></trkpt>
<trkpt lat="46.08207" lon="6.96682"><ele></ele><time>2017-6-21T8:35:37Z</time></trkpt>
<trkpt lat="46.08205" lon="6.96681"><ele></ele><time>2017-6-21T8:35:40Z</time></trkpt>
<trkpt lat="46.08202" lon="6.96679"><ele></ele><time>2017-6-21T8:35:43Z</time></trkpt>
<trkpt lat="46.082" lon="6.96677"><ele></ele><time>2017-6-21T8:35:46Z</time></trkpt>
<trkpt lat="46.08198" lon="6.96675"><ele></ele><time>2017-6-21T8:35:49Z</time></trkpt>
<trkpt lat="46.08196" lon="6.96673"><ele></ele><time>2017-6-21T8:35:52Z</time></trkpt>
<trkpt lat="46.08194" lon="6.96671"><ele></ele><time>2017-6-21T8:35:55Z</time></trkpt>
<trkpt lat="46.08192" lon="6.96669"><ele></ele><time>2017-6-21T8:35:58Z</time></trkpt>
<trkpt lat="46.08189" lon="6.96667"><ele></ele><time>2017-6-21T8:36:1Z</time></trkpt>
<trkpt lat="46.08187" lon="6.96665"><ele></ele><time>2017-6-21T8:36:4Z</time></trkpt>
<trkpt lat="46.08185" lon="6.96663"><ele></ele><time>2017-6-21T8:36:7Z</time></trkpt>
<trkpt lat="46.08183" lon="6.96661"><ele></ele><time>2017-6-21T8:36:10Z</time></trkpt>
<trkpt lat="46.08181" lon="6.96659"><ele></ele><time>2017-6-21T8:36:13Z</time></trkpt>
<trkpt lat="46.08179" lon="6.96657"><ele></ele><time>2017-6-21T8:36:16Z</time></trkpt>
<trkpt lat="46.08176" lon="6.96655"><ele></ele><time>2017-6-21T8:36:19Z</time></trkpt>
<trkpt lat="46.08174" lon="6.96653"><ele></ele><time>2017-6-21T8:36:22Z</time></trkpt>
<trkpt lat="46.08172" lon="6.96651"><ele></ele><time>2017-6-21T8:36:25Z</time></trkpt>
<trkpt lat="46.0817" lon="6.96649"><ele></ele><time>2017-6-21T8:36:28Z</time></trkpt>
<trkpt lat="46.08168" lon="6.96647"><ele></ele><time>2017-6-21T8:36:31Z</time></trkpt>
<trkpt lat="46.08167" lon="6.96646"><ele></ele><time>2017-6-21T8:36:34Z</time></trkpt>
<trkpt lat="46.08166" lon="6.96644"><ele></ele><time>2017-6-21T8:36:37Z</time></trkpt>
<trkpt lat="46.08164" lon="6.96641"><ele></ele><time>2017-6-21T8:36:40Z</time></trkpt>
<trkpt lat="46.08163" lon="6.96639"><ele></ele><time>2017-6-21T8:36:43Z</time></trkpt>
<trkpt lat="46.08162" lon="6.96638"><ele></ele><time>2017-6-21T8:36:46Z</time></trkpt>
<trkpt lat="46.0816" lon="6.96635"><ele></ele><time>2017-6-21T8:36:49Z</time></trkpt>
<trkpt lat="46.08158" lon="6.96632"><ele></ele><time>2017-6-21T8:36:52Z</time></trkpt>
<trkpt lat="46.08157" lon="6.96628"><ele></ele><time>2017-6-21T8:36:55Z</time></trkpt>
<trkpt lat="46.08155" lon="6.96625"><ele></ele><time>2017-6-21T8:36:58Z</time></trkpt>
<trkpt lat="46.08153" lon="6.96622"><ele></ele><time>2017-6-21T8:37:1Z</time></trkpt>
<trkpt lat="46.08151" lon="6.96619"><ele></ele><time>2017-6-21T8:37:4Z</time></trkpt>
<trkpt lat="46.08149" lon="6.96616"><ele></ele><time>2017-6-21T8:37:7Z</time></trkpt>
<trkpt lat="46.08147" lon="6.96613"><ele></ele><time>2017-6-21T8:37:10Z</time></trkpt>
<trkpt lat="46.08145" lon="6.9661"><ele></ele><time>2017-6-21T8:37:13Z</time></trkpt>
<trkpt lat="46.08144" lon="6.96607"><ele></ele><time>2017-6-21T8:37:16Z</time></trkpt>
<trkpt lat="46.08143" lon="6.96605"><ele></ele><time>2017-6-21T8:37:19Z</time></trkpt>
<trkpt lat="46.08142" lon="6.96603"><ele></ele><time>2017-6-21T8:37:22Z</time></trkpt>
<trkpt lat="46.0814" lon="6.966"><ele></ele><time>2017-6-21T8:37:25Z</time></trkpt>
<trkpt lat="46.08138" lon="6.96597"><ele></ele><time>2017-6-21T8:37:28Z</time></trkpt>
<trkpt lat="46.08137" lon="6.96596"><ele></ele><time>2017-6-21T8:37:31Z</time></trkpt>
<trkpt lat="46.08136" lon="6.96594"><ele></ele><time>2017-6-21T8:37:34Z</time></trkpt>
<trkpt lat="46.08135" lon="6.9659"><ele></ele><time>2017-6-21T8:37:37Z</time></trkpt>
<trkpt lat="46.08134" lon="6.96586"><ele></ele><time>2017-6-21T8:37:40Z</time></trkpt>
<trkpt lat="46.08132" lon="6.96583"><ele></ele><time>2017-6-21T8:37:43Z</time></trkpt>
<trkpt lat="46.08131" lon="6.96579"><ele></ele><time>2017-6-21T8:37:46Z</time></trkpt>
<trkpt lat="46.08129" lon="6.96576"><ele></ele><time>2017-6-21T8:37:49Z</time></trkpt>
<trkpt lat="46.08128" lon="6.96572"><ele></ele><time>2017-6-21T8:37:52Z</time></trkpt>
<trkpt lat="46.08127" lon="6.96568"><ele></ele><time>2017-6-21T8:37:55Z</time></trkpt>
<trkpt lat="46.08126" lon="6.96566"><ele></ele><time>2017-6-21T8:37:58Z</time></trkpt>
<trkpt lat="46.08125" lon="6.96565"><ele></ele><time>2017-6-21T8:38:1Z</time></trkpt>
<trkpt lat="46.08124" lon="6.96561"><ele></ele><time>2017-6-21T8:38:4Z</time></trkpt>
<trkpt lat="46.08122" lon="6.96557"><ele></ele><time>2017-6-21T8:38:7Z</time></trkpt>
<trkpt lat="46.08122" lon="6.96556"><ele></ele><time>2017-6-21T8:38:10Z</time></trkpt>
<trkpt lat="46.08121" lon="6.96554"><ele></ele><time>2017-6-21T8:38:13Z</time></trkpt>
<trkpt lat="46.0812" lon="6.9655"><ele></ele><time>2017-6-21T8:38:16Z</time></trkpt>
<trkpt lat="46.08118" lon="6.96546"><ele></ele><time>2017-6-21T8:38:19Z</time></trkpt>
<trkpt lat="46.08117" lon="6.96543"><ele></ele><time>2017-6-21T8:38:22Z</time></trkpt>
<trkpt lat="46.08115" lon="6.96539"><ele></ele><time>2017-6-21T8:38:25Z</time></trkpt>
<trkpt lat="46.08115" lon="6.96538"><ele></ele><time>2017-6-21T8:38:28Z</time></trkpt>
<trkpt lat="46.08114" lon="6.96536"><ele></ele><time>2017-6-21T8:38:31Z</time></trkpt>
<trkpt lat="46.08111" lon="6.96533"><ele></ele><time>2017-6-21T8:38:34Z</time></trkpt>
<trkpt lat="46.08109" lon="6.9653"><ele></ele><time>2017-6-21T8:38:37Z</time></trkpt>
<trkpt lat="46.08107" lon="6.96527"><ele></ele><time>2017-6-21T8:38:40Z</time></trkpt>
<trkpt lat="46.08105" lon="6.96524"><ele></ele><time>2017-6-21T8:38:43Z</time></trkpt>
<trkpt lat="46.08103" lon="6.96521"><ele></ele><time>2017-6-21T8:38:46Z</time></trkpt>
<trkpt lat="46.08101" lon="6.96518"><ele></ele><time>2017-6-21T8:38:49Z</time></trkpt>
<trkpt lat="46.08099" lon="6.96516"><ele></ele><time>2017-6-21T8:38:52Z</time></trkpt>
<trkpt lat="46.08097" lon="6.96513"><ele></ele><time>2017-6-21T8:38:55Z</time></trkpt>
<trkpt lat="46.08095" lon="6.9651"><ele></ele><time>2017-6-21T8:38:58Z</time></trkpt>
<trkpt lat="46.08093" lon="6.96507"><ele></ele><time>2017-6-21T8:39:1Z</time></trkpt>
<trkpt lat="46.08091" lon="6.96504"><ele></ele><time>2017-6-21T8:39:4Z</time></trkpt>
<trkpt lat="46.08089" lon="6.96501"><ele></ele><time>2017-6-21T8:39:7Z</time></trkpt>
<trkpt lat="46.08087" lon="6.96498"><ele></ele><time>2017-6-21T8:39:10Z</time></trkpt>
<trkpt lat="46.08085" lon="6.96495"><ele></ele><time>2017-6-21T8:39:13Z</time></trkpt>
<trkpt lat="46.08083" lon="6.96492"><ele></ele><time>2017-6-21T8:39:16Z</time></trkpt>
<trkpt lat="46.08082" lon="6.96491"><ele></ele><time>2017-6-21T8:39:19Z</time></trkpt>
<trkpt lat="46.0808" lon="6.96491"><ele></ele><time>2017-6-21T8:39:22Z</time></trkpt>
<trkpt lat="46.08077" lon="6.9649"><ele></ele><time>2017-6-21T8:39:25Z</time></trkpt>
<trkpt lat="46.08074" lon="6.9649"><ele></ele><time>2017-6-21T8:39:28Z</time></trkpt>
<trkpt lat="46.08072" lon="6.96489"><ele></ele><time>2017-6-21T8:39:31Z</time></trkpt>
<trkpt lat="46.08069" lon="6.96489"><ele></ele><time>2017-6-21T8:39:34Z</time></trkpt>
<trkpt lat="46.08066" lon="6.96488"><ele></ele><time>2017-6-21T8:39:37Z</time></trkpt>
<trkpt lat="46.08063" lon="6.96488"><ele></ele><time>2017-6-21T8:39:40Z</time></trkpt>
<trkpt lat="46.0806" lon="6.96487"><ele></ele><time>2017-6-21T8:39:43Z</time></trkpt>
<trkpt lat="46.08057" lon="6.96487"><ele></ele><time>2017-6-21T8:39:46Z</time></trkpt>
<trkpt lat="46.08054" lon="6.96486"><ele></ele><time>2017-6-21T8:39:49Z</time></trkpt>
<trkpt lat="46.08051" lon="6.96486"><ele></ele><time>2017-6-21T8:39:52Z</time></trkpt>
<trkpt lat="46.08048" lon="6.96485"><ele></ele><time>2017-6-21T8:39:55Z</time></trkpt>
<trkpt lat="46.08045" lon="6.96485"><ele></ele><time>2017-6-21T8:39:58Z</time></trkpt>
<trkpt lat="46.08042" lon="6.96484"><ele></ele><time>2017-6-21T8:40:1Z</time></trkpt>
<trkpt lat="46.0804" lon="6.96484"><ele></ele><time>2017-6-21T8:40:4Z</time></trkpt>
<trkpt lat="46.08037" lon="6.96483"><ele></ele><time>2017-6-21T8:40:7Z</time></trkpt>
<trkpt lat="46.08036" lon="6.96483"><ele></ele><time>2017-6-21T8:40:10Z</time></trkpt>
<trkpt lat="46.08016" lon="6.96473"><ele></ele><time>2017-6-21T8:40:13Z</time></trkpt>
<trkpt lat="46.08016" lon="6.96473"><ele></ele><time>2017-6-21T8:40:16Z</time></trkpt>
<trkpt lat="46.07998" lon="6.96464"><ele></ele><time>2017-6-21T8:40:19Z</time></trkpt>
<trkpt lat="46.07997" lon="6.96464"><ele></ele><time>2017-6-21T8:40:22Z</time></trkpt>
<trkpt lat="46.07996" lon="6.96463"><ele></ele><time>2017-6-21T8:40:25Z</time></trkpt>
<trkpt lat="46.07995" lon="6.96463"><ele></ele><time>2017-6-21T8:40:28Z</time></trkpt>
<trkpt lat="46.07994" lon="6.96462"><ele></ele><time>2017-6-21T8:40:31Z</time></trkpt>
<trkpt lat="46.07993" lon="6.96462"><ele></ele><time>2017-6-21T8:40:34Z</time></trkpt>
<trkpt lat="46.07992" lon="6.96461"><ele></ele><time>2017-6-21T8:40:37Z</time></trkpt>
<trkpt lat="46.07989" lon="6.96459"><ele></ele><time>2017-6-21T8:40:40Z</time></trkpt>
<trkpt lat="46.07986" lon="6.96457"><ele></ele><time>2017-6-21T8:40:43Z</time></trkpt>
<trkpt lat="46.07984" lon="6.96455"><ele></ele><time>2017-6-21T8:40:46Z</time></trkpt>
<trkpt lat="46.07981" lon="6.96454"><ele></ele><time>2017-6-21T8:40:49Z</time></trkpt>
<trkpt lat="46.07978" lon="6.96452"><ele></ele><time>2017-6-21T8:40:52Z</time></trkpt>
<trkpt lat="46.07975" lon="6.9645"><ele></ele><time>2017-6-21T8:40:55Z</time></trkpt>
<trkpt lat="46.07972" lon="6.96448"><ele></ele><time>2017-6-21T8:40:58Z</time></trkpt>
<trkpt lat="46.0797" lon="6.96446"><ele></ele><time>2017-6-21T8:41:1Z</time></trkpt>
<trkpt lat="46.07967" lon="6.96444"><ele></ele><time>2017-6-21T8:41:4Z</time></trkpt>
<trkpt lat="46.07964" lon="6.96442"><ele></ele><time>2017-6-21T8:41:7Z</time></trkpt>
<trkpt lat="46.07961" lon="6.9644"><ele></ele><time>2017-6-21T8:41:10Z</time></trkpt>
<trkpt lat="46.07958" lon="6.96439"><ele></ele><time>2017-6-21T8:41:13Z</time></trkpt>
<trkpt lat="46.07955" lon="6.96437"><ele></ele><time>2017-6-21T8:41:16Z</time></trkpt>
<trkpt lat="46.07953" lon="6.96435"><ele></ele><time>2017-6-21T8:41:19Z</time></trkpt>
<trkpt lat="46.0795" lon="6.96433"><ele></ele><time>2017-6-21T8:41:22Z</time></trkpt>
<trkpt lat="46.07948" lon="6.96431"><ele></ele><time>2017-6-21T8:41:25Z</time></trkpt>
<trkpt lat="46.07945" lon="6.96428"><ele></ele><time>2017-6-21T8:41:28Z</time></trkpt>
<trkpt lat="46.07943" lon="6.96426"><ele></ele><time>2017-6-21T8:41:31Z</time></trkpt>
<trkpt lat="46.0794" lon="6.96424"><ele></ele><time>2017-6-21T8:41:34Z</time></trkpt>
<trkpt lat="46.07938" lon="6.96422"><ele></ele><time>2017-6-21T8:41:37Z</time></trkpt>
<trkpt lat="46.07935" lon="6.9642"><ele></ele><time>2017-6-21T8:41:40Z</time></trkpt>
<trkpt lat="46.07933" lon="6.96418"><ele></ele><time>2017-6-21T8:41:43Z</time></trkpt>
<trkpt lat="46.0793" lon="6.96415"><ele></ele><time>2017-6-21T8:41:46Z</time></trkpt>
<trkpt lat="46.07928" lon="6.96413"><ele></ele><time>2017-6-21T8:41:49Z</time></trkpt>
<trkpt lat="46.07925" lon="6.96411"><ele></ele><time>2017-6-21T8:41:52Z</time></trkpt>
<trkpt lat="46.07922" lon="6.96409"><ele></ele><time>2017-6-21T8:41:55Z</time></trkpt>
<trkpt lat="46.0792" lon="6.96407"><ele></ele><time>2017-6-21T8:41:58Z</time></trkpt>
<trkpt lat="46.07917" lon="6.96405"><ele></ele><time>2017-6-21T8:42:1Z</time></trkpt>
<trkpt lat="46.07915" lon="6.96402"><ele></ele><time>2017-6-21T8:42:4Z</time></trkpt>
<trkpt lat="46.07912" lon="6.964"><ele></ele><time>2017-6-21T8:42:7Z</time></trkpt>
<trkpt lat="46.0791" lon="6.96398"><ele></ele><time>2017-6-21T8:42:10Z</time></trkpt>
<trkpt lat="46.07908" lon="6.96395"><ele></ele><time>2017-6-21T8:42:13Z</time></trkpt>
<trkpt lat="46.07906" lon="6.96393"><ele></ele><time>2017-6-21T8:42:16Z</time></trkpt>
<trkpt lat="46.07904" lon="6.9639"><ele></ele><time>2017-6-21T8:42:19Z</time></trkpt>
<trkpt lat="46.07902" lon="6.96388"><ele></ele><time>2017-6-21T8:42:22Z</time></trkpt>
<trkpt lat="46.079" lon="6.96387"><ele></ele><time>2017-6-21T8:42:25Z</time></trkpt>
<trkpt lat="46.07899" lon="6.96385"><ele></ele><time>2017-6-21T8:42:28Z</time></trkpt>
<trkpt lat="46.07897" lon="6.96383"><ele></ele><time>2017-6-21T8:42:31Z</time></trkpt>
<trkpt lat="46.07895" lon="6.9638"><ele></ele><time>2017-6-21T8:42:34Z</time></trkpt>
<trkpt lat="46.07893" lon="6.96378"><ele></ele><time>2017-6-21T8:42:37Z</time></trkpt>
<trkpt lat="46.07891" lon="6.96375"><ele></ele><time>2017-6-21T8:42:40Z</time></trkpt>
<trkpt lat="46.07888" lon="6.96373"><ele></ele><time>2017-6-21T8:42:43Z</time></trkpt>
<trkpt lat="46.07886" lon="6.96371"><ele></ele><time>2017-6-21T8:42:46Z</time></trkpt>
<trkpt lat="46.07884" lon="6.96368"><ele></ele><time>2017-6-21T8:42:49Z</time></trkpt>
<trkpt lat="46.07882" lon="6.96366"><ele></ele><time>2017-6-21T8:42:52Z</time></trkpt>
<trkpt lat="46.0788" lon="6.96363"><ele></ele><time>2017-6-21T8:42:55Z</time></trkpt>
<trkpt lat="46.07878" lon="6.96361"><ele></ele><time>2017-6-21T8:42:58Z</time></trkpt>
<trkpt lat="46.07877" lon="6.96359"><ele></ele><time>2017-6-21T8:43:1Z</time></trkpt>
<trkpt lat="46.07876" lon="6.96358"><ele></ele><time>2017-6-21T8:43:4Z</time></trkpt>
<trkpt lat="46.07874" lon="6.96356"><ele></ele><time>2017-6-21T8:43:7Z</time></trkpt>
<trkpt lat="46.07872" lon="6.96353"><ele></ele><time>2017-6-21T8:43:10Z</time></trkpt>
<trkpt lat="46.07871" lon="6.96351"><ele></ele><time>2017-6-21T8:43:13Z</time></trkpt>
<trkpt lat="46.07869" lon="6.96348"><ele></ele><time>2017-6-21T8:43:16Z</time></trkpt>
<trkpt lat="46.07867" lon="6.96346"><ele></ele><time>2017-6-21T8:43:19Z</time></trkpt>
<trkpt lat="46.07866" lon="6.96343"><ele></ele><time>2017-6-21T8:43:22Z</time></trkpt>
<trkpt lat="46.07864" lon="6.96341"><ele></ele><time>2017-6-21T8:43:25Z</time></trkpt>
<trkpt lat="46.07862" lon="6.96338"><ele></ele><time>2017-6-21T8:43:28Z</time></trkpt>
<trkpt lat="46.07861" lon="6.96336"><ele></ele><time>2017-6-21T8:43:31Z</time></trkpt>
<trkpt lat="46.07859" lon="6.96334"><ele></ele><time>2017-6-21T8:43:34Z</time></trkpt>
<trkpt lat="46.07857" lon="6.96331"><ele></ele><time>2017-6-21T8:43:37Z</time></trkpt>
<trkpt lat="46.07856" lon="6.96329"><ele></ele><time>2017-6-21T8:43:40Z</time></trkpt>
<trkpt lat="46.07854" lon="6.96326"><ele></ele><time>2017-6-21T8:43:43Z</time></trkpt>
<trkpt lat="46.07853" lon="6.96325"><ele></ele><time>2017-6-21T8:43:46Z</time></trkpt>
<trkpt lat="46.07852" lon="6.96324"><ele></ele><time>2017-6-21T8:43:49Z</time></trkpt>
<trkpt lat="46.07851" lon="6.96321"><ele></ele><time>2017-6-21T8:43:52Z</time></trkpt>
<trkpt lat="46.07849" lon="6.96319"><ele></ele><time>2017-6-21T8:43:55Z</time></trkpt>
<trkpt lat="46.07848" lon="6.96318"><ele></ele><time>2017-6-21T8:43:58Z</time></trkpt>
<trkpt lat="46.07847" lon="6.96316"><ele></ele><time>2017-6-21T8:44:1Z</time></trkpt>
<trkpt lat="46.07846" lon="6.96314"><ele></ele><time>2017-6-21T8:44:4Z</time></trkpt>
<trkpt lat="46.07845" lon="6.96313"><ele></ele><time>2017-6-21T8:44:7Z</time></trkpt>
<trkpt lat="46.07844" lon="6.96311"><ele></ele><time>2017-6-21T8:44:10Z</time></trkpt>
<trkpt lat="46.07843" lon="6.9631"><ele></ele><time>2017-6-21T8:44:13Z</time></trkpt>
<trkpt lat="46.07842" lon="6.96308"><ele></ele><time>2017-6-21T8:44:16Z</time></trkpt>
<trkpt lat="46.0784" lon="6.96305"><ele></ele><time>2017-6-21T8:44:19Z</time></trkpt>
<trkpt lat="46.07838" lon="6.96302"><ele></ele><time>2017-6-21T8:44:22Z</time></trkpt>
<trkpt lat="46.07836" lon="6.96299"><ele></ele><time>2017-6-21T8:44:25Z</time></trkpt>
<trkpt lat="46.07834" lon="6.96296"><ele></ele><time>2017-6-21T8:44:28Z</time></trkpt>
<trkpt lat="46.07832" lon="6.96293"><ele></ele><time>2017-6-21T8:44:31Z</time></trkpt>
<trkpt lat="46.0783" lon="6.9629"><ele></ele><time>2017-6-21T8:44:34Z</time></trkpt>
<trkpt lat="46.07829" lon="6.96287"><ele></ele><time>2017-6-21T8:44:37Z</time></trkpt>
<trkpt lat="46.07827" lon="6.96284"><ele></ele><time>2017-6-21T8:44:40Z</time></trkpt>
<trkpt lat="46.07825" lon="6.96281"><ele></ele><time>2017-6-21T8:44:43Z</time></trkpt>
<trkpt lat="46.07823" lon="6.96278"><ele></ele><time>2017-6-21T8:44:46Z</time></trkpt>
<trkpt lat="46.07821" lon="6.96275"><ele></ele><time>2017-6-21T8:44:49Z</time></trkpt>
<trkpt lat="46.07819" lon="6.96272"><ele></ele><time>2017-6-21T8:44:52Z</time></trkpt>
<trkpt lat="46.07817" lon="6.96269"><ele></ele><time>2017-6-21T8:44:55Z</time></trkpt>
<trkpt lat="46.07815" lon="6.96266"><ele></ele><time>2017-6-21T8:44:58Z</time></trkpt>
<trkpt lat="46.07814" lon="6.96265"><ele></ele><time>2017-6-21T8:45:1Z</time></trkpt>
<trkpt lat="46.07813" lon="6.96264"><ele></ele><time>2017-6-21T8:45:4Z</time></trkpt>
<trkpt lat="46.07811" lon="6.96261"><ele></ele><time>2017-6-21T8:45:7Z</time></trkpt>
<trkpt lat="46.07809" lon="6.96258"><ele></ele><time>2017-6-21T8:45:10Z</time></trkpt>
<trkpt lat="46.07808" lon="6.96256"><ele></ele><time>2017-6-21T8:45:13Z</time></trkpt>
<trkpt lat="46.07806" lon="6.96253"><ele></ele><time>2017-6-21T8:45:16Z</time></trkpt>
<trkpt lat="46.07804" lon="6.9625"><ele></ele><time>2017-6-21T8:45:19Z</time></trkpt>
<trkpt lat="46.07802" lon="6.96248"><ele></ele><time>2017-6-21T8:45:22Z</time></trkpt>
<trkpt lat="46.078" lon="6.96245"><ele></ele><time>2017-6-21T8:45:25Z</time></trkpt>
<trkpt lat="46.07798" lon="6.96242"><ele></ele><time>2017-6-21T8:45:28Z</time></trkpt>
<trkpt lat="46.07796" lon="6.9624"><ele></ele><time>2017-6-21T8:45:31Z</time></trkpt>
<trkpt lat="46.07795" lon="6.96237"><ele></ele><time>2017-6-21T8:45:34Z</time></trkpt>
<trkpt lat="46.07793" lon="6.96234"><ele></ele><time>2017-6-21T8:45:37Z</time></trkpt>
<trkpt lat="46.07792" lon="6.96233"><ele></ele><time>2017-6-21T8:45:40Z</time></trkpt>
<trkpt lat="46.07791" lon="6.96232"><ele></ele><time>2017-6-21T8:45:43Z</time></trkpt>
<trkpt lat="46.07789" lon="6.96229"><ele></ele><time>2017-6-21T8:45:46Z</time></trkpt>
<trkpt lat="46.07787" lon="6.96226"><ele></ele><time>2017-6-21T8:45:49Z</time></trkpt>
<trkpt lat="46.07785" lon="6.96224"><ele></ele><time>2017-6-21T8:45:52Z</time></trkpt>
<trkpt lat="46.07783" lon="6.96221"><ele></ele><time>2017-6-21T8:45:55Z</time></trkpt>
<trkpt lat="46.07781" lon="6.96219"><ele></ele><time>2017-6-21T8:45:58Z</time></trkpt>
<trkpt lat="46.07779" lon="6.96216"><ele></ele><time>2017-6-21T8:46:1Z</time></trkpt>
<trkpt lat="46.07777" lon="6.96214"><ele></ele><time>2017-6-21T8:46:4Z</time></trkpt>
<trkpt lat="46.07775" lon="6.96211"><ele></ele><time>2017-6-21T8:46:7Z</time></trkpt>
<trkpt lat="46.07773" lon="6.96209"><ele></ele><time>2017-6-21T8:46:10Z</time></trkpt>
<trkpt lat="46.07771" lon="6.96206"><ele></ele><time>2017-6-21T8:46:13Z</time></trkpt>
<trkpt lat="46.07769" lon="6.96204"><ele></ele><time>2017-6-21T8:46:16Z</time></trkpt>
<trkpt lat="46.07767" lon="6.96201"><ele></ele><time>2017-6-21T8:46:19Z</time></trkpt>
<trkpt lat="46.07765" lon="6.96199"><ele></ele><time>2017-6-21T8:46:22Z</time></trkpt>
<trkpt lat="46.07763" lon="6.96196"><ele></ele><time>2017-6-21T8:46:25Z</time></trkpt>
<trkpt lat="46.07761" lon="6.96194"><ele></ele><time>2017-6-21T8:46:28Z</time></trkpt>
<trkpt lat="46.07759" lon="6.96191"><ele></ele><time>2017-6-21T8:46:31Z</time></trkpt>
<trkpt lat="46.07756" lon="6.96189"><ele></ele><time>2017-6-21T8:46:34Z</time></trkpt>
<trkpt lat="46.07754" lon="6.96186"><ele></ele><time>2017-6-21T8:46:37Z</time></trkpt>
<trkpt lat="46.07753" lon="6.96185"><ele></ele><time>2017-6-21T8:46:40Z</time></trkpt>
<trkpt lat="46.07752" lon="6.96184"><ele></ele><time>2017-6-21T8:46:43Z</time></trkpt>
<trkpt lat="46.0775" lon="6.96181"><ele></ele><time>2017-6-21T8:46:46Z</time></trkpt>
<trkpt lat="46.07748" lon="6.96179"><ele></ele><time>2017-6-21T8:46:49Z</time></trkpt>
<trkpt lat="46.07746" lon="6.96176"><ele></ele><time>2017-6-21T8:46:52Z</time></trkpt>
<trkpt lat="46.07744" lon="6.96173"><ele></ele><time>2017-6-21T8:46:55Z</time></trkpt>
<trkpt lat="46.07743" lon="6.96171"><ele></ele><time>2017-6-21T8:46:58Z</time></trkpt>
<trkpt lat="46.07741" lon="6.96168"><ele></ele><time>2017-6-21T8:47:1Z</time></trkpt>
<trkpt lat="46.07739" lon="6.96165"><ele></ele><time>2017-6-21T8:47:4Z</time></trkpt>
<trkpt lat="46.07737" lon="6.96163"><ele></ele><time>2017-6-21T8:47:7Z</time></trkpt>
<trkpt lat="46.07736" lon="6.9616"><ele></ele><time>2017-6-21T8:47:10Z</time></trkpt>
<trkpt lat="46.07734" lon="6.96157"><ele></ele><time>2017-6-21T8:47:13Z</time></trkpt>
<trkpt lat="46.07732" lon="6.96155"><ele></ele><time>2017-6-21T8:47:16Z</time></trkpt>
<trkpt lat="46.0773" lon="6.96152"><ele></ele><time>2017-6-21T8:47:19Z</time></trkpt>
<trkpt lat="46.07729" lon="6.9615"><ele></ele><time>2017-6-21T8:47:22Z</time></trkpt>
<trkpt lat="46.07727" lon="6.96147"><ele></ele><time>2017-6-21T8:47:25Z</time></trkpt>
<trkpt lat="46.07725" lon="6.96144"><ele></ele><time>2017-6-21T8:47:28Z</time></trkpt>
<trkpt lat="46.07723" lon="6.96142"><ele></ele><time>2017-6-21T8:47:31Z</time></trkpt>
<trkpt lat="46.07722" lon="6.96139"><ele></ele><time>2017-6-21T8:47:34Z</time></trkpt>
<trkpt lat="46.0772" lon="6.96136"><ele></ele><time>2017-6-21T8:47:37Z</time></trkpt>
<trkpt lat="46.07718" lon="6.96134"><ele></ele><time>2017-6-21T8:47:40Z</time></trkpt>
<trkpt lat="46.07716" lon="6.96131"><ele></ele><time>2017-6-21T8:47:43Z</time></trkpt>
<trkpt lat="46.07715" lon="6.96128"><ele></ele><time>2017-6-21T8:47:46Z</time></trkpt>
<trkpt lat="46.07712" lon="6.96127"><ele></ele><time>2017-6-21T8:47:49Z</time></trkpt>
<trkpt lat="46.07711" lon="6.96127"><ele></ele><time>2017-6-21T8:47:52Z</time></trkpt>
<trkpt lat="46.0771" lon="6.96126"><ele></ele><time>2017-6-21T8:47:55Z</time></trkpt>
<trkpt lat="46.07708" lon="6.96125"><ele></ele><time>2017-6-21T8:47:58Z</time></trkpt>
<trkpt lat="46.07705" lon="6.96124"><ele></ele><time>2017-6-21T8:48:1Z</time></trkpt>
<trkpt lat="46.07703" lon="6.96123"><ele></ele><time>2017-6-21T8:48:4Z</time></trkpt>
<trkpt lat="46.077" lon="6.96122"><ele></ele><time>2017-6-21T8:48:7Z</time></trkpt>
<trkpt lat="46.07698" lon="6.96121"><ele></ele><time>2017-6-21T8:48:10Z</time></trkpt>
<trkpt lat="46.07696" lon="6.9612"><ele></ele><time>2017-6-21T8:48:13Z</time></trkpt>
<trkpt lat="46.07693" lon="6.96119"><ele></ele><time>2017-6-21T8:48:16Z</time></trkpt>
<trkpt lat="46.07691" lon="6.96118"><ele></ele><time>2017-6-21T8:48:19Z</time></trkpt>
<trkpt lat="46.07688" lon="6.96117"><ele></ele><time>2017-6-21T8:48:22Z</time></trkpt>
<trkpt lat="46.07686" lon="6.96115"><ele></ele><time>2017-6-21T8:48:25Z</time></trkpt>
<trkpt lat="46.07684" lon="6.96114"><ele></ele><time>2017-6-21T8:48:28Z</time></trkpt>
<trkpt lat="46.07681" lon="6.96113"><ele></ele><time>2017-6-21T8:48:31Z</time></trkpt>
<trkpt lat="46.07679" lon="6.96112"><ele></ele><time>2017-6-21T8:48:34Z</time></trkpt>
<trkpt lat="46.07663" lon="6.96098"><ele></ele><time>2017-6-21T8:48:37Z</time></trkpt>
<trkpt lat="46.07663" lon="6.96098"><ele></ele><time>2017-6-21T8:48:40Z</time></trkpt>
<trkpt lat="46.07649" lon="6.96084"><ele></ele><time>2017-6-21T8:48:43Z</time></trkpt>
<trkpt lat="46.07647" lon="6.96082"><ele></ele><time>2017-6-21T8:48:46Z</time></trkpt>
<trkpt lat="46.07646" lon="6.9608"><ele></ele><time>2017-6-21T8:48:49Z</time></trkpt>
<trkpt lat="46.07645" lon="6.96079"><ele></ele><time>2017-6-21T8:48:52Z</time></trkpt>
<trkpt lat="46.07644" lon="6.96077"><ele></ele><time>2017-6-21T8:48:55Z</time></trkpt>
<trkpt lat="46.07643" lon="6.96075"><ele></ele><time>2017-6-21T8:48:58Z</time></trkpt>
<trkpt lat="46.07642" lon="6.96073"><ele></ele><time>2017-6-21T8:49:1Z</time></trkpt>
<trkpt lat="46.0764" lon="6.96071"><ele></ele><time>2017-6-21T8:49:4Z</time></trkpt>
<trkpt lat="46.07639" lon="6.9607"><ele></ele><time>2017-6-21T8:49:7Z</time></trkpt>
<trkpt lat="46.07639" lon="6.96069"><ele></ele><time>2017-6-21T8:49:10Z</time></trkpt>
<trkpt lat="46.07638" lon="6.96068"><ele></ele><time>2017-6-21T8:49:13Z</time></trkpt>
<trkpt lat="46.07637" lon="6.96066"><ele></ele><time>2017-6-21T8:49:16Z</time></trkpt>
<trkpt lat="46.07636" lon="6.96064"><ele></ele><time>2017-6-21T8:49:19Z</time></trkpt>
<trkpt lat="46.07634" lon="6.96062"><ele></ele><time>2017-6-21T8:49:22Z</time></trkpt>
<trkpt lat="46.07632" lon="6.96059"><ele></ele><time>2017-6-21T8:49:25Z</time></trkpt>
<trkpt lat="46.07631" lon="6.96057"><ele></ele><time>2017-6-21T8:49:28Z</time></trkpt>
<trkpt lat="46.07629" lon="6.96054"><ele></ele><time>2017-6-21T8:49:31Z</time></trkpt>
<trkpt lat="46.07627" lon="6.96051"><ele></ele><time>2017-6-21T8:49:34Z</time></trkpt>
<trkpt lat="46.07625" lon="6.96048"><ele></ele><time>2017-6-21T8:49:37Z</time></trkpt>
<trkpt lat="46.07623" lon="6.96045"><ele></ele><time>2017-6-21T8:49:40Z</time></trkpt>
<trkpt lat="46.07621" lon="6.96043"><ele></ele><time>2017-6-21T8:49:43Z</time></trkpt>
<trkpt lat="46.07619" lon="6.9604"><ele></ele><time>2017-6-21T8:49:46Z</time></trkpt>
<trkpt lat="46.07617" lon="6.96037"><ele></ele><time>2017-6-21T8:49:49Z</time></trkpt>
<trkpt lat="46.07615" lon="6.96034"><ele></ele><time>2017-6-21T8:49:52Z</time></trkpt>
<trkpt lat="46.07614" lon="6.96033"><ele></ele><time>2017-6-21T8:49:55Z</time></trkpt>
<trkpt lat="46.07613" lon="6.96031"><ele></ele><time>2017-6-21T8:49:58Z</time></trkpt>
<trkpt lat="46.07611" lon="6.96029"><ele></ele><time>2017-6-21T8:50:1Z</time></trkpt>
<trkpt lat="46.07609" lon="6.96026"><ele></ele><time>2017-6-21T8:50:4Z</time></trkpt>
<trkpt lat="46.07607" lon="6.96023"><ele></ele><time>2017-6-21T8:50:7Z</time></trkpt>
<trkpt lat="46.07605" lon="6.9602"><ele></ele><time>2017-6-21T8:50:10Z</time></trkpt>
<trkpt lat="46.07603" lon="6.96017"><ele></ele><time>2017-6-21T8:50:13Z</time></trkpt>
<trkpt lat="46.07602" lon="6.96016"><ele></ele><time>2017-6-21T8:50:16Z</time></trkpt>
<trkpt lat="46.07601" lon="6.96015"><ele></ele><time>2017-6-21T8:50:19Z</time></trkpt>
<trkpt lat="46.07599" lon="6.96012"><ele></ele><time>2017-6-21T8:50:22Z</time></trkpt>
<trkpt lat="46.07597" lon="6.9601"><ele></ele><time>2017-6-21T8:50:25Z</time></trkpt>
<trkpt lat="46.07596" lon="6.96009"><ele></ele><time>2017-6-21T8:50:28Z</time></trkpt>
<trkpt lat="46.07595" lon="6.96008"><ele></ele><time>2017-6-21T8:50:31Z</time></trkpt>
<trkpt lat="46.07593" lon="6.96005"><ele></ele><time>2017-6-21T8:50:34Z</time></trkpt>
<trkpt lat="46.07592" lon="6.96003"><ele></ele><time>2017-6-21T8:50:37Z</time></trkpt>
<trkpt lat="46.07591" lon="6.96002"><ele></ele><time>2017-6-21T8:50:40Z</time></trkpt>
<trkpt lat="46.0759" lon="6.96"><ele></ele><time>2017-6-21T8:50:43Z</time></trkpt>
<trkpt lat="46.07588" lon="6.95998"><ele></ele><time>2017-6-21T8:50:46Z</time></trkpt>
<trkpt lat="46.07586" lon="6.95995"><ele></ele><time>2017-6-21T8:50:49Z</time></trkpt>
<trkpt lat="46.07584" lon="6.95993"><ele></ele><time>2017-6-21T8:50:52Z</time></trkpt>
<trkpt lat="46.07582" lon="6.95991"><ele></ele><time>2017-6-21T8:50:55Z</time></trkpt>
<trkpt lat="46.0758" lon="6.95988"><ele></ele><time>2017-6-21T8:50:58Z</time></trkpt>
<trkpt lat="46.07578" lon="6.95986"><ele></ele><time>2017-6-21T8:51:1Z</time></trkpt>
<trkpt lat="46.07576" lon="6.95983"><ele></ele><time>2017-6-21T8:51:4Z</time></trkpt>
<trkpt lat="46.07574" lon="6.95981"><ele></ele><time>2017-6-21T8:51:7Z</time></trkpt>
<trkpt lat="46.07572" lon="6.95978"><ele></ele><time>2017-6-21T8:51:10Z</time></trkpt>
<trkpt lat="46.0757" lon="6.95976"><ele></ele><time>2017-6-21T8:51:13Z</time></trkpt>
<trkpt lat="46.07568" lon="6.95974"><ele></ele><time>2017-6-21T8:51:16Z</time></trkpt>
<trkpt lat="46.07567" lon="6.95971"><ele></ele><time>2017-6-21T8:51:19Z</time></trkpt>
<trkpt lat="46.07565" lon="6.95968"><ele></ele><time>2017-6-21T8:51:22Z</time></trkpt>
<trkpt lat="46.07563" lon="6.95965"><ele></ele><time>2017-6-21T8:51:25Z</time></trkpt>
<trkpt lat="46.07561" lon="6.95962"><ele></ele><time>2017-6-21T8:51:28Z</time></trkpt>
<trkpt lat="46.07559" lon="6.95959"><ele></ele><time>2017-6-21T8:51:31Z</time></trkpt>
<trkpt lat="46.07558" lon="6.95956"><ele></ele><time>2017-6-21T8:51:34Z</time></trkpt>
<trkpt lat="46.07556" lon="6.95954"><ele></ele><time>2017-6-21T8:51:37Z</time></trkpt>
<trkpt lat="46.07554" lon="6.95951"><ele></ele><time>2017-6-21T8:51:40Z</time></trkpt>
<trkpt lat="46.07552" lon="6.95948"><ele></ele><time>2017-6-21T8:51:43Z</time></trkpt>
<trkpt lat="46.0755" lon="6.95945"><ele></ele><time>2017-6-21T8:51:46Z</time></trkpt>
<trkpt lat="46.07549" lon="6.95942"><ele></ele><time>2017-6-21T8:51:49Z</time></trkpt>
<trkpt lat="46.07547" lon="6.95939"><ele></ele><time>2017-6-21T8:51:52Z</time></trkpt>
<trkpt lat="46.07545" lon="6.95937"><ele></ele><time>2017-6-21T8:51:55Z</time></trkpt>
<trkpt lat="46.07543" lon="6.95934"><ele></ele><time>2017-6-21T8:51:58Z</time></trkpt>
<trkpt lat="46.07541" lon="6.95931"><ele></ele><time>2017-6-21T8:52:1Z</time></trkpt>
<trkpt lat="46.0754" lon="6.95928"><ele></ele><time>2017-6-21T8:52:4Z</time></trkpt>
<trkpt lat="46.07538" lon="6.95925"><ele></ele><time>2017-6-21T8:52:7Z</time></trkpt>
<trkpt lat="46.07536" lon="6.95923"><ele></ele><time>2017-6-21T8:52:10Z</time></trkpt>
<trkpt lat="46.07534" lon="6.9592"><ele></ele><time>2017-6-21T8:52:13Z</time></trkpt>
<trkpt lat="46.07532" lon="6.95917"><ele></ele><time>2017-6-21T8:52:16Z</time></trkpt>
<trkpt lat="46.0753" lon="6.95914"><ele></ele><time>2017-6-21T8:52:19Z</time></trkpt>
<trkpt lat="46.07529" lon="6.95912"><ele></ele><time>2017-6-21T8:52:22Z</time></trkpt>
<trkpt lat="46.07527" lon="6.95909"><ele></ele><time>2017-6-21T8:52:25Z</time></trkpt>
<trkpt lat="46.07525" lon="6.95906"><ele></ele><time>2017-6-21T8:52:28Z</time></trkpt>
<trkpt lat="46.07523" lon="6.95903"><ele></ele><time>2017-6-21T8:52:31Z</time></trkpt>
<trkpt lat="46.07521" lon="6.95901"><ele></ele><time>2017-6-21T8:52:34Z</time></trkpt>
<trkpt lat="46.07519" lon="6.95898"><ele></ele><time>2017-6-21T8:52:37Z</time></trkpt>
<trkpt lat="46.07519" lon="6.95896"><ele></ele><time>2017-6-21T8:52:40Z</time></trkpt>
<trkpt lat="46.07518" lon="6.95895"><ele></ele><time>2017-6-21T8:52:43Z</time></trkpt>
<trkpt lat="46.07516" lon="6.95892"><ele></ele><time>2017-6-21T8:52:46Z</time></trkpt>
<trkpt lat="46.07514" lon="6.9589"><ele></ele><time>2017-6-21T8:52:49Z</time></trkpt>
<trkpt lat="46.07512" lon="6.95887"><ele></ele><time>2017-6-21T8:52:52Z</time></trkpt>
<trkpt lat="46.0751" lon="6.95884"><ele></ele><time>2017-6-21T8:52:55Z</time></trkpt>
<trkpt lat="46.07508" lon="6.95881"><ele></ele><time>2017-6-21T8:52:58Z</time></trkpt>
<trkpt lat="46.07507" lon="6.95879"><ele></ele><time>2017-6-21T8:53:1Z</time></trkpt>
<trkpt lat="46.07505" lon="6.95876"><ele></ele><time>2017-6-21T8:53:4Z</time></trkpt>
<trkpt lat="46.07503" lon="6.95873"><ele></ele><time>2017-6-21T8:53:7Z</time></trkpt>
<trkpt lat="46.07502" lon="6.9587"><ele></ele><time>2017-6-21T8:53:10Z</time></trkpt>
<trkpt lat="46.075" lon="6.95867"><ele></ele><time>2017-6-21T8:53:13Z</time></trkpt>
<trkpt lat="46.07498" lon="6.95865"><ele></ele><time>2017-6-21T8:53:16Z</time></trkpt>
<trkpt lat="46.07497" lon="6.95862"><ele></ele><time>2017-6-21T8:53:19Z</time></trkpt>
<trkpt lat="46.07495" lon="6.95859"><ele></ele><time>2017-6-21T8:53:22Z</time></trkpt>
<trkpt lat="46.07494" lon="6.95856"><ele></ele><time>2017-6-21T8:53:25Z</time></trkpt>
<trkpt lat="46.07492" lon="6.95853"><ele></ele><time>2017-6-21T8:53:28Z</time></trkpt>
<trkpt lat="46.0749" lon="6.9585"><ele></ele><time>2017-6-21T8:53:31Z</time></trkpt>
<trkpt lat="46.07489" lon="6.95848"><ele></ele><time>2017-6-21T8:53:34Z</time></trkpt>
<trkpt lat="46.07487" lon="6.95845"><ele></ele><time>2017-6-21T8:53:37Z</time></trkpt>
<trkpt lat="46.07485" lon="6.95842"><ele></ele><time>2017-6-21T8:53:40Z</time></trkpt>
<trkpt lat="46.07484" lon="6.95839"><ele></ele><time>2017-6-21T8:53:43Z</time></trkpt>
<trkpt lat="46.07482" lon="6.95836"><ele></ele><time>2017-6-21T8:53:46Z</time></trkpt>
<trkpt lat="46.07481" lon="6.95834"><ele></ele><time>2017-6-21T8:53:49Z</time></trkpt>
<trkpt lat="46.07479" lon="6.95831"><ele></ele><time>2017-6-21T8:53:52Z</time></trkpt>
<trkpt lat="46.07477" lon="6.95828"><ele></ele><time>2017-6-21T8:53:55Z</time></trkpt>
<trkpt lat="46.07475" lon="6.95826"><ele></ele><time>2017-6-21T8:53:58Z</time></trkpt>
<trkpt lat="46.07473" lon="6.95823"><ele></ele><time>2017-6-21T8:54:1Z</time></trkpt>
<trkpt lat="46.07471" lon="6.95821"><ele></ele><time>2017-6-21T8:54:4Z</time></trkpt>
<trkpt lat="46.07469" lon="6.95819"><ele></ele><time>2017-6-21T8:54:7Z</time></trkpt>
<trkpt lat="46.07467" lon="6.95816"><ele></ele><time>2017-6-21T8:54:10Z</time></trkpt>
<trkpt lat="46.07464" lon="6.95814"><ele></ele><time>2017-6-21T8:54:13Z</time></trkpt>
<trkpt lat="46.07462" lon="6.95812"><ele></ele><time>2017-6-21T8:54:16Z</time></trkpt>
<trkpt lat="46.0746" lon="6.95809"><ele></ele><time>2017-6-21T8:54:19Z</time></trkpt>
<trkpt lat="46.07458" lon="6.95807"><ele></ele><time>2017-6-21T8:54:22Z</time></trkpt>
<trkpt lat="46.07456" lon="6.95805"><ele></ele><time>2017-6-21T8:54:25Z</time></trkpt>
<trkpt lat="46.07454" lon="6.95802"><ele></ele><time>2017-6-21T8:54:28Z</time></trkpt>
<trkpt lat="46.07452" lon="6.958"><ele></ele><time>2017-6-21T8:54:31Z</time></trkpt>
<trkpt lat="46.07449" lon="6.95798"><ele></ele><time>2017-6-21T8:54:34Z</time></trkpt>
<trkpt lat="46.07447" lon="6.95795"><ele></ele><time>2017-6-21T8:54:37Z</time></trkpt>
<trkpt lat="46.07445" lon="6.95793"><ele></ele><time>2017-6-21T8:54:40Z</time></trkpt>
<trkpt lat="46.07443" lon="6.95791"><ele></ele><time>2017-6-21T8:54:43Z</time></trkpt>
<trkpt lat="46.07441" lon="6.95788"><ele></ele><time>2017-6-21T8:54:46Z</time></trkpt>
<trkpt lat="46.07438" lon="6.95786"><ele></ele><time>2017-6-21T8:54:49Z</time></trkpt>
<trkpt lat="46.07435" lon="6.95784"><ele></ele><time>2017-6-21T8:54:52Z</time></trkpt>
<trkpt lat="46.07433" lon="6.95782"><ele></ele><time>2017-6-21T8:54:55Z</time></trkpt>
<trkpt lat="46.0743" lon="6.95779"><ele></ele><time>2017-6-21T8:54:58Z</time></trkpt>
<trkpt lat="46.07428" lon="6.95777"><ele></ele><time>2017-6-21T8:55:1Z</time></trkpt>
<trkpt lat="46.07425" lon="6.95775"><ele></ele><time>2017-6-21T8:55:4Z</time></trkpt>
<trkpt lat="46.07422" lon="6.95773"><ele></ele><time>2017-6-21T8:55:7Z</time></trkpt>
<trkpt lat="46.0742" lon="6.95771"><ele></ele><time>2017-6-21T8:55:10Z</time></trkpt>
<trkpt lat="46.07417" lon="6.95768"><ele></ele><time>2017-6-21T8:55:13Z</time></trkpt>
<trkpt lat="46.07414" lon="6.95766"><ele></ele><time>2017-6-21T8:55:16Z</time></trkpt>
<trkpt lat="46.07412" lon="6.95764"><ele></ele><time>2017-6-21T8:55:19Z</time></trkpt>
<trkpt lat="46.07409" lon="6.95762"><ele></ele><time>2017-6-21T8:55:22Z</time></trkpt>
<trkpt lat="46.07406" lon="6.95759"><ele></ele><time>2017-6-21T8:55:25Z</time></trkpt>
<trkpt lat="46.07404" lon="6.95757"><ele></ele><time>2017-6-21T8:55:28Z</time></trkpt>
<trkpt lat="46.07401" lon="6.95755"><ele></ele><time>2017-6-21T8:55:31Z</time></trkpt>
<trkpt lat="46.07399" lon="6.95752"><ele></ele><time>2017-6-21T8:55:34Z</time></trkpt>
<trkpt lat="46.07396" lon="6.9575"><ele></ele><time>2017-6-21T8:55:37Z</time></trkpt>
<trkpt lat="46.07394" lon="6.95747"><ele></ele><time>2017-6-21T8:55:40Z</time></trkpt>
<trkpt lat="46.07392" lon="6.95745"><ele></ele><time>2017-6-21T8:55:43Z</time></trkpt>
<trkpt lat="46.0739" lon="6.95742"><ele></ele><time>2017-6-21T8:55:46Z</time></trkpt>
<trkpt lat="46.07387" lon="6.9574"><ele></ele><time>2017-6-21T8:55:49Z</time></trkpt>
<trkpt lat="46.07385" lon="6.95737"><ele></ele><time>2017-6-21T8:55:52Z</time></trkpt>
<trkpt lat="46.07383" lon="6.95735"><ele></ele><time>2017-6-21T8:55:55Z</time></trkpt>
<trkpt lat="46.07381" lon="6.95732"><ele></ele><time>2017-6-21T8:55:58Z</time></trkpt>
<trkpt lat="46.07378" lon="6.9573"><ele></ele><time>2017-6-21T8:56:1Z</time></trkpt>
<trkpt lat="46.07376" lon="6.95727"><ele></ele><time>2017-6-21T8:56:4Z</time></trkpt>
<trkpt lat="46.07375" lon="6.95726"><ele></ele><time>2017-6-21T8:56:7Z</time></trkpt>
<trkpt lat="46.07374" lon="6.95725"><ele></ele><time>2017-6-21T8:56:10Z</time></trkpt>
<trkpt lat="46.07372" lon="6.95722"><ele></ele><time>2017-6-21T8:56:13Z</time></trkpt>
<trkpt lat="46.07369" lon="6.9572"><ele></ele><time>2017-6-21T8:56:16Z</time></trkpt>
<trkpt lat="46.07367" lon="6.95717"><ele></ele><time>2017-6-21T8:56:19Z</time></trkpt>
<trkpt lat="46.07365" lon="6.95715"><ele></ele><time>2017-6-21T8:56:22Z</time></trkpt>
<trkpt lat="46.07362" lon="6.95713"><ele></ele><time>2017-6-21T8:56:25Z</time></trkpt>
<trkpt lat="46.0736" lon="6.95712"><ele></ele><time>2017-6-21T8:56:28Z</time></trkpt>
<trkpt lat="46.07357" lon="6.9571"><ele></ele><time>2017-6-21T8:56:31Z</time></trkpt>
<trkpt lat="46.07354" lon="6.95708"><ele></ele><time>2017-6-21T8:56:34Z</time></trkpt>
<trkpt lat="46.07352" lon="6.95706"><ele></ele><time>2017-6-21T8:56:37Z</time></trkpt>
<trkpt lat="46.07349" lon="6.95705"><ele></ele><time>2017-6-21T8:56:40Z</time></trkpt>
<trkpt lat="46.07346" lon="6.95703"><ele></ele><time>2017-6-21T8:56:43Z</time></trkpt>
<trkpt lat="46.07344" lon="6.95701"><ele></ele><time>2017-6-21T8:56:46Z</time></trkpt>
<trkpt lat="46.07341" lon="6.957"><ele></ele><time>2017-6-21T8:56:49Z</time></trkpt>
<trkpt lat="46.07339" lon="6.95698"><ele></ele><time>2017-6-21T8:56:52Z</time></trkpt>
<trkpt lat="46.07336" lon="6.95696"><ele></ele><time>2017-6-21T8:56:55Z</time></trkpt>
<trkpt lat="46.07333" lon="6.95695"><ele></ele><time>2017-6-21T8:56:58Z</time></trkpt>
<trkpt lat="46.07331" lon="6.95693"><ele></ele><time>2017-6-21T8:57:1Z</time></trkpt>
<trkpt lat="46.07328" lon="6.95691"><ele></ele><time>2017-6-21T8:57:4Z</time></trkpt>
<trkpt lat="46.07327" lon="6.9569"><ele></ele><time>2017-6-21T8:57:7Z</time></trkpt>
<trkpt lat="46.07325" lon="6.95689"><ele></ele><time>2017-6-21T8:57:10Z</time></trkpt>
<trkpt lat="46.07323" lon="6.95688"><ele></ele><time>2017-6-21T8:57:13Z</time></trkpt>
<trkpt lat="46.07321" lon="6.95685"><ele></ele><time>2017-6-21T8:57:16Z</time></trkpt>
<trkpt lat="46.0732" lon="6.95684"><ele></ele><time>2017-6-21T8:57:19Z</time></trkpt>
<trkpt lat="46.07319" lon="6.95683"><ele></ele><time>2017-6-21T8:57:22Z</time></trkpt>
<trkpt lat="46.07316" lon="6.95681"><ele></ele><time>2017-6-21T8:57:25Z</time></trkpt>
<trkpt lat="46.07314" lon="6.95678"><ele></ele><time>2017-6-21T8:57:28Z</time></trkpt>
<trkpt lat="46.07312" lon="6.95676"><ele></ele><time>2017-6-21T8:57:31Z</time></trkpt>
<trkpt lat="46.0731" lon="6.95674"><ele></ele><time>2017-6-21T8:57:34Z</time></trkpt>
<trkpt lat="46.07308" lon="6.95671"><ele></ele><time>2017-6-21T8:57:37Z</time></trkpt>
<trkpt lat="46.07306" lon="6.95669"><ele></ele><time>2017-6-21T8:57:40Z</time></trkpt>
<trkpt lat="46.07303" lon="6.95667"><ele></ele><time>2017-6-21T8:57:43Z</time></trkpt>
<trkpt lat="46.07301" lon="6.95664"><ele></ele><time>2017-6-21T8:57:46Z</time></trkpt>
<trkpt lat="46.07299" lon="6.95662"><ele></ele><time>2017-6-21T8:57:49Z</time></trkpt>
<trkpt lat="46.07297" lon="6.9566"><ele></ele><time>2017-6-21T8:57:52Z</time></trkpt>
<trkpt lat="46.07296" lon="6.95658"><ele></ele><time>2017-6-21T8:57:55Z</time></trkpt>
<trkpt lat="46.07295" lon="6.95657"><ele></ele><time>2017-6-21T8:57:58Z</time></trkpt>
<trkpt lat="46.07293" lon="6.95655"><ele></ele><time>2017-6-21T8:58:1Z</time></trkpt>
<trkpt lat="46.07291" lon="6.95653"><ele></ele><time>2017-6-21T8:58:4Z</time></trkpt>
<trkpt lat="46.07288" lon="6.9565"><ele></ele><time>2017-6-21T8:58:7Z</time></trkpt>
<trkpt lat="46.07286" lon="6.95648"><ele></ele><time>2017-6-21T8:58:10Z</time></trkpt>
<trkpt lat="46.07284" lon="6.95645"><ele></ele><time>2017-6-21T8:58:13Z</time></trkpt>
<trkpt lat="46.07282" lon="6.95642"><ele></ele><time>2017-6-21T8:58:16Z</time></trkpt>
<trkpt lat="46.0728" lon="6.9564"><ele></ele><time>2017-6-21T8:58:19Z</time></trkpt>
<trkpt lat="46.07278" lon="6.95637"><ele></ele><time>2017-6-21T8:58:22Z</time></trkpt>
<trkpt lat="46.07276" lon="6.95635"><ele></ele><time>2017-6-21T8:58:25Z</time></trkpt>
<trkpt lat="46.07273" lon="6.95632"><ele></ele><time>2017-6-21T8:58:28Z</time></trkpt>
<trkpt lat="46.07271" lon="6.95629"><ele></ele><time>2017-6-21T8:58:31Z</time></trkpt>
<trkpt lat="46.07269" lon="6.95627"><ele></ele><time>2017-6-21T8:58:34Z</time></trkpt>
<trkpt lat="46.07267" lon="6.95624"><ele></ele><time>2017-6-21T8:58:37Z</time></trkpt>
<trkpt lat="46.07265" lon="6.95621"><ele></ele><time>2017-6-21T8:58:40Z</time></trkpt>
<trkpt lat="46.07263" lon="6.95619"><ele></ele><time>2017-6-21T8:58:43Z</time></trkpt>
<trkpt lat="46.07261" lon="6.95616"><ele></ele><time>2017-6-21T8:58:46Z</time></trkpt>
<trkpt lat="46.07259" lon="6.95613"><ele></ele><time>2017-6-21T8:58:49Z</time></trkpt>
<trkpt lat="46.07256" lon="6.95611"><ele></ele><time>2017-6-21T8:58:52Z</time></trkpt>
<trkpt lat="46.07254" lon="6.95608"><ele></ele><time>2017-6-21T8:58:55Z</time></trkpt>
<trkpt lat="46.07252" lon="6.95605"><ele></ele><time>2017-6-21T8:58:58Z</time></trkpt>
<trkpt lat="46.0725" lon="6.95604"><ele></ele><time>2017-6-21T8:59:1Z</time></trkpt>
<trkpt lat="46.07247" lon="6.95602"><ele></ele><time>2017-6-21T8:59:4Z</time></trkpt>
<trkpt lat="46.07245" lon="6.956"><ele></ele><time>2017-6-21T8:59:7Z</time></trkpt>
<trkpt lat="46.07243" lon="6.95598"><ele></ele><time>2017-6-21T8:59:10Z</time></trkpt>
<trkpt lat="46.0724" lon="6.95597"><ele></ele><time>2017-6-21T8:59:13Z</time></trkpt>
<trkpt lat="46.07238" lon="6.95595"><ele></ele><time>2017-6-21T8:59:16Z</time></trkpt>
<trkpt lat="46.07235" lon="6.95593"><ele></ele><time>2017-6-21T8:59:19Z</time></trkpt>
<trkpt lat="46.07233" lon="6.95592"><ele></ele><time>2017-6-21T8:59:22Z</time></trkpt>
<trkpt lat="46.0723" lon="6.9559"><ele></ele><time>2017-6-21T8:59:25Z</time></trkpt>
<trkpt lat="46.07228" lon="6.95588"><ele></ele><time>2017-6-21T8:59:28Z</time></trkpt>
<trkpt lat="46.07226" lon="6.95586"><ele></ele><time>2017-6-21T8:59:31Z</time></trkpt>
<trkpt lat="46.07223" lon="6.95585"><ele></ele><time>2017-6-21T8:59:34Z</time></trkpt>
<trkpt lat="46.07221" lon="6.95583"><ele></ele><time>2017-6-21T8:59:37Z</time></trkpt>
<trkpt lat="46.07218" lon="6.95581"><ele></ele><time>2017-6-21T8:59:40Z</time></trkpt>
<trkpt lat="46.07216" lon="6.95579"><ele></ele><time>2017-6-21T8:59:43Z</time></trkpt>
<trkpt lat="46.07214" lon="6.95578"><ele></ele><time>2017-6-21T8:59:46Z</time></trkpt>
<trkpt lat="46.07211" lon="6.95576"><ele></ele><time>2017-6-21T8:59:49Z</time></trkpt>
<trkpt lat="46.07209" lon="6.95575"><ele></ele><time>2017-6-21T8:59:52Z</time></trkpt>
<trkpt lat="46.07206" lon="6.95573"><ele></ele><time>2017-6-21T8:59:55Z</time></trkpt>
<trkpt lat="46.07204" lon="6.95572"><ele></ele><time>2017-6-21T8:59:58Z</time></trkpt>
<trkpt lat="46.07201" lon="6.95571"><ele></ele><time>2017-6-21T9:0:1Z</time></trkpt>
<trkpt lat="46.07199" lon="6.95569"><ele></ele><time>2017-6-21T9:0:4Z</time></trkpt>
<trkpt lat="46.07196" lon="6.95568"><ele></ele><time>2017-6-21T9:0:7Z</time></trkpt>
<trkpt lat="46.07194" lon="6.95567"><ele></ele><time>2017-6-21T9:0:10Z</time></trkpt>
<trkpt lat="46.07191" lon="6.95566"><ele></ele><time>2017-6-21T9:0:13Z</time></trkpt>
<trkpt lat="46.07189" lon="6.95564"><ele></ele><time>2017-6-21T9:0:16Z</time></trkpt>
<trkpt lat="46.07186" lon="6.95563"><ele></ele><time>2017-6-21T9:0:19Z</time></trkpt>
<trkpt lat="46.07184" lon="6.95562"><ele></ele><time>2017-6-21T9:0:22Z</time></trkpt>
<trkpt lat="46.07181" lon="6.9556"><ele></ele><time>2017-6-21T9:0:25Z</time></trkpt>
<trkpt lat="46.07179" lon="6.95559"><ele></ele><time>2017-6-21T9:0:28Z</time></trkpt>
<trkpt lat="46.07176" lon="6.95558"><ele></ele><time>2017-6-21T9:0:31Z</time></trkpt>
<trkpt lat="46.07174" lon="6.95556"><ele></ele><time>2017-6-21T9:0:34Z</time></trkpt>
<trkpt lat="46.07171" lon="6.95555"><ele></ele><time>2017-6-21T9:0:37Z</time></trkpt>
<trkpt lat="46.07169" lon="6.95554"><ele></ele><time>2017-6-21T9:0:40Z</time></trkpt>
<trkpt lat="46.07167" lon="6.95551"><ele></ele><time>2017-6-21T9:0:43Z</time></trkpt>
<trkpt lat="46.07165" lon="6.9555"><ele></ele><time>2017-6-21T9:0:46Z</time></trkpt>
<trkpt lat="46.07164" lon="6.95549"><ele></ele><time>2017-6-21T9:0:49Z</time></trkpt>
<trkpt lat="46.07162" lon="6.95547"><ele></ele><time>2017-6-21T9:0:52Z</time></trkpt>
<trkpt lat="46.0716" lon="6.95545"><ele></ele><time>2017-6-21T9:0:55Z</time></trkpt>
<trkpt lat="46.07158" lon="6.95543"><ele></ele><time>2017-6-21T9:0:58Z</time></trkpt>
<trkpt lat="46.07155" lon="6.95541"><ele></ele><time>2017-6-21T9:1:1Z</time></trkpt>
<trkpt lat="46.07153" lon="6.95539"><ele></ele><time>2017-6-21T9:1:4Z</time></trkpt>
<trkpt lat="46.07151" lon="6.95537"><ele></ele><time>2017-6-21T9:1:7Z</time></trkpt>
<trkpt lat="46.07148" lon="6.95535"><ele></ele><time>2017-6-21T9:1:10Z</time></trkpt>
<trkpt lat="46.07146" lon="6.95533"><ele></ele><time>2017-6-21T9:1:13Z</time></trkpt>
<trkpt lat="46.07144" lon="6.95531"><ele></ele><time>2017-6-21T9:1:16Z</time></trkpt>
<trkpt lat="46.07142" lon="6.95529"><ele></ele><time>2017-6-21T9:1:19Z</time></trkpt>
<trkpt lat="46.07139" lon="6.95527"><ele></ele><time>2017-6-21T9:1:22Z</time></trkpt>
<trkpt lat="46.07138" lon="6.95526"><ele></ele><time>2017-6-21T9:1:25Z</time></trkpt>
<trkpt lat="46.07137" lon="6.95525"><ele></ele><time>2017-6-21T9:1:28Z</time></trkpt>
<trkpt lat="46.07135" lon="6.95522"><ele></ele><time>2017-6-21T9:1:31Z</time></trkpt>
<trkpt lat="46.07133" lon="6.9552"><ele></ele><time>2017-6-21T9:1:34Z</time></trkpt>
<trkpt lat="46.0713" lon="6.95518"><ele></ele><time>2017-6-21T9:1:37Z</time></trkpt>
<trkpt lat="46.07128" lon="6.95516"><ele></ele><time>2017-6-21T9:1:40Z</time></trkpt>
<trkpt lat="46.07126" lon="6.95513"><ele></ele><time>2017-6-21T9:1:43Z</time></trkpt>
<trkpt lat="46.07124" lon="6.95511"><ele></ele><time>2017-6-21T9:1:46Z</time></trkpt>
<trkpt lat="46.07122" lon="6.95508"><ele></ele><time>2017-6-21T9:1:49Z</time></trkpt>
<trkpt lat="46.0712" lon="6.95506"><ele></ele><time>2017-6-21T9:1:52Z</time></trkpt>
<trkpt lat="46.07118" lon="6.95504"><ele></ele><time>2017-6-21T9:1:55Z</time></trkpt>
<trkpt lat="46.07116" lon="6.95501"><ele></ele><time>2017-6-21T9:1:58Z</time></trkpt>
<trkpt lat="46.07115" lon="6.955"><ele></ele><time>2017-6-21T9:2:1Z</time></trkpt>
<trkpt lat="46.07114" lon="6.95499"><ele></ele><time>2017-6-21T9:2:4Z</time></trkpt>
<trkpt lat="46.07112" lon="6.95496"><ele></ele><time>2017-6-21T9:2:7Z</time></trkpt>
<trkpt lat="46.0711" lon="6.95494"><ele></ele><time>2017-6-21T9:2:10Z</time></trkpt>
<trkpt lat="46.07108" lon="6.95491"><ele></ele><time>2017-6-21T9:2:13Z</time></trkpt>
<trkpt lat="46.07106" lon="6.95489"><ele></ele><time>2017-6-21T9:2:16Z</time></trkpt>
<trkpt lat="46.07104" lon="6.95486"><ele></ele><time>2017-6-21T9:2:19Z</time></trkpt>
<trkpt lat="46.07103" lon="6.95485"><ele></ele><time>2017-6-21T9:2:22Z</time></trkpt>
<trkpt lat="46.07102" lon="6.95484"><ele></ele><time>2017-6-21T9:2:25Z</time></trkpt>
<trkpt lat="46.071" lon="6.95482"><ele></ele><time>2017-6-21T9:2:28Z</time></trkpt>
<trkpt lat="46.07098" lon="6.95479"><ele></ele><time>2017-6-21T9:2:31Z</time></trkpt>
<trkpt lat="46.07096" lon="6.95477"><ele></ele><time>2017-6-21T9:2:34Z</time></trkpt>
<trkpt lat="46.07095" lon="6.95476"><ele></ele><time>2017-6-21T9:2:37Z</time></trkpt>
<trkpt lat="46.07094" lon="6.95474"><ele></ele><time>2017-6-21T9:2:40Z</time></trkpt>
<trkpt lat="46.07092" lon="6.95472"><ele></ele><time>2017-6-21T9:2:43Z</time></trkpt>
<trkpt lat="46.07091" lon="6.9547"><ele></ele><time>2017-6-21T9:2:46Z</time></trkpt>
<trkpt lat="46.07089" lon="6.95467"><ele></ele><time>2017-6-21T9:2:49Z</time></trkpt>
<trkpt lat="46.07087" lon="6.95465"><ele></ele><time>2017-6-21T9:2:52Z</time></trkpt>
<trkpt lat="46.07085" lon="6.95463"><ele></ele><time>2017-6-21T9:2:55Z</time></trkpt>
<trkpt lat="46.07083" lon="6.9546"><ele></ele><time>2017-6-21T9:2:58Z</time></trkpt>
<trkpt lat="46.07082" lon="6.95458"><ele></ele><time>2017-6-21T9:3:1Z</time></trkpt>
<trkpt lat="46.0708" lon="6.95456"><ele></ele><time>2017-6-21T9:3:4Z</time></trkpt>
<trkpt lat="46.07078" lon="6.95453"><ele></ele><time>2017-6-21T9:3:7Z</time></trkpt>
<trkpt lat="46.07076" lon="6.95451"><ele></ele><time>2017-6-21T9:3:10Z</time></trkpt>
<trkpt lat="46.07074" lon="6.95449"><ele></ele><time>2017-6-21T9:3:13Z</time></trkpt>
<trkpt lat="46.07073" lon="6.95447"><ele></ele><time>2017-6-21T9:3:16Z</time></trkpt>
<trkpt lat="46.07071" lon="6.95444"><ele></ele><time>2017-6-21T9:3:19Z</time></trkpt>
<trkpt lat="46.07069" lon="6.95442"><ele></ele><time>2017-6-21T9:3:22Z</time></trkpt>
<trkpt lat="46.07068" lon="6.95441"><ele></ele><time>2017-6-21T9:3:25Z</time></trkpt>
<trkpt lat="46.07067" lon="6.9544"><ele></ele><time>2017-6-21T9:3:28Z</time></trkpt>
<trkpt lat="46.07065" lon="6.95437"><ele></ele><time>2017-6-21T9:3:31Z</time></trkpt>
<trkpt lat="46.07064" lon="6.95435"><ele></ele><time>2017-6-21T9:3:34Z</time></trkpt>
<trkpt lat="46.07062" lon="6.95433"><ele></ele><time>2017-6-21T9:3:37Z</time></trkpt>
<trkpt lat="46.07061" lon="6.95431"><ele></ele><time>2017-6-21T9:3:40Z</time></trkpt>
<trkpt lat="46.0706" lon="6.9543"><ele></ele><time>2017-6-21T9:3:43Z</time></trkpt>
<trkpt lat="46.07059" lon="6.95429"><ele></ele><time>2017-6-21T9:3:46Z</time></trkpt>
<trkpt lat="46.07058" lon="6.95427"><ele></ele><time>2017-6-21T9:3:49Z</time></trkpt>
<trkpt lat="46.07055" lon="6.95425"><ele></ele><time>2017-6-21T9:3:52Z</time></trkpt>
<trkpt lat="46.07053" lon="6.95422"><ele></ele><time>2017-6-21T9:3:55Z</time></trkpt>
<trkpt lat="46.07052" lon="6.95421"><ele></ele><time>2017-6-21T9:3:58Z</time></trkpt>
<trkpt lat="46.07051" lon="6.95419"><ele></ele><time>2017-6-21T9:4:1Z</time></trkpt>
<trkpt lat="46.07049" lon="6.95417"><ele></ele><time>2017-6-21T9:4:4Z</time></trkpt>
<trkpt lat="46.07047" lon="6.95414"><ele></ele><time>2017-6-21T9:4:7Z</time></trkpt>
<trkpt lat="46.07046" lon="6.95413"><ele></ele><time>2017-6-21T9:4:10Z</time></trkpt>
<trkpt lat="46.07045" lon="6.95411"><ele></ele><time>2017-6-21T9:4:13Z</time></trkpt>
<trkpt lat="46.07043" lon="6.95409"><ele></ele><time>2017-6-21T9:4:16Z</time></trkpt>
<trkpt lat="46.0704" lon="6.95406"><ele></ele><time>2017-6-21T9:4:19Z</time></trkpt>
<trkpt lat="46.07038" lon="6.95403"><ele></ele><time>2017-6-21T9:4:22Z</time></trkpt>
<trkpt lat="46.07036" lon="6.95401"><ele></ele><time>2017-6-21T9:4:25Z</time></trkpt>
<trkpt lat="46.07034" lon="6.95398"><ele></ele><time>2017-6-21T9:4:28Z</time></trkpt>
<trkpt lat="46.07032" lon="6.95395"><ele></ele><time>2017-6-21T9:4:31Z</time></trkpt>
<trkpt lat="46.0703" lon="6.95393"><ele></ele><time>2017-6-21T9:4:34Z</time></trkpt>
<trkpt lat="46.07027" lon="6.9539"><ele></ele><time>2017-6-21T9:4:37Z</time></trkpt>
<trkpt lat="46.07026" lon="6.95389"><ele></ele><time>2017-6-21T9:4:40Z</time></trkpt>
<trkpt lat="46.07025" lon="6.95387"><ele></ele><time>2017-6-21T9:4:43Z</time></trkpt>
<trkpt lat="46.07022" lon="6.95385"><ele></ele><time>2017-6-21T9:4:46Z</time></trkpt>
<trkpt lat="46.07019" lon="6.95382"><ele></ele><time>2017-6-21T9:4:49Z</time></trkpt>
<trkpt lat="46.07016" lon="6.95379"><ele></ele><time>2017-6-21T9:4:52Z</time></trkpt>
<trkpt lat="46.07013" lon="6.95376"><ele></ele><time>2017-6-21T9:4:55Z</time></trkpt>
<trkpt lat="46.0701" lon="6.95374"><ele></ele><time>2017-6-21T9:4:58Z</time></trkpt>
<trkpt lat="46.07007" lon="6.95371"><ele></ele><time>2017-6-21T9:5:1Z</time></trkpt>
<trkpt lat="46.07005" lon="6.95368"><ele></ele><time>2017-6-21T9:5:4Z</time></trkpt>
<trkpt lat="46.07002" lon="6.95365"><ele></ele><time>2017-6-21T9:5:7Z</time></trkpt>
<trkpt lat="46.06999" lon="6.95363"><ele></ele><time>2017-6-21T9:5:10Z</time></trkpt>
<trkpt lat="46.06996" lon="6.9536"><ele></ele><time>2017-6-21T9:5:13Z</time></trkpt>
<trkpt lat="46.06993" lon="6.95357"><ele></ele><time>2017-6-21T9:5:16Z</time></trkpt>
<trkpt lat="46.0699" lon="6.95355"><ele></ele><time>2017-6-21T9:5:19Z</time></trkpt>
<trkpt lat="46.06989" lon="6.95353"><ele></ele><time>2017-6-21T9:5:22Z</time></trkpt>
<trkpt lat="46.06989" lon="6.9534"><ele></ele><time>2017-6-21T9:5:25Z</time></trkpt>
<trkpt lat="46.06989" lon="6.9534"><ele></ele><time>2017-6-21T9:5:28Z</time></trkpt>
<trkpt lat="46.06989" lon="6.95329"><ele></ele><time>2017-6-21T9:5:31Z</time></trkpt>
<trkpt lat="46.06991" lon="6.9533"><ele></ele><time>2017-6-21T9:5:34Z</time></trkpt>
<trkpt lat="46.06994" lon="6.95333"><ele></ele><time>2017-6-21T9:5:37Z</time></trkpt>
<trkpt lat="46.06997" lon="6.95337"><ele></ele><time>2017-6-21T9:5:40Z</time></trkpt>
<trkpt lat="46.06999" lon="6.9534"><ele></ele><time>2017-6-21T9:5:43Z</time></trkpt>
<trkpt lat="46.07002" lon="6.95343"><ele></ele><time>2017-6-21T9:5:46Z</time></trkpt>
<trkpt lat="46.07005" lon="6.95347"><ele></ele><time>2017-6-21T9:5:49Z</time></trkpt>
<trkpt lat="46.07008" lon="6.9535"><ele></ele><time>2017-6-21T9:5:52Z</time></trkpt>
<trkpt lat="46.07011" lon="6.95353"><ele></ele><time>2017-6-21T9:5:55Z</time></trkpt>
<trkpt lat="46.07014" lon="6.95356"><ele></ele><time>2017-6-21T9:5:58Z</time></trkpt>
<trkpt lat="46.07016" lon="6.9536"><ele></ele><time>2017-6-21T9:6:1Z</time></trkpt>
<trkpt lat="46.07019" lon="6.95363"><ele></ele><time>2017-6-21T9:6:4Z</time></trkpt>
<trkpt lat="46.07022" lon="6.95366"><ele></ele><time>2017-6-21T9:6:7Z</time></trkpt>
<trkpt lat="46.07025" lon="6.95369"><ele></ele><time>2017-6-21T9:6:10Z</time></trkpt>
<trkpt lat="46.07028" lon="6.95372"><ele></ele><time>2017-6-21T9:6:13Z</time></trkpt>
<trkpt lat="46.07031" lon="6.95374"><ele></ele><time>2017-6-21T9:6:16Z</time></trkpt>
<trkpt lat="46.07034" lon="6.95376"><ele></ele><time>2017-6-21T9:6:19Z</time></trkpt>
<trkpt lat="46.07037" lon="6.95378"><ele></ele><time>2017-6-21T9:6:22Z</time></trkpt>
<trkpt lat="46.0704" lon="6.9538"><ele></ele><time>2017-6-21T9:6:25Z</time></trkpt>
<trkpt lat="46.07043" lon="6.95382"><ele></ele><time>2017-6-21T9:6:28Z</time></trkpt>
<trkpt lat="46.07046" lon="6.95385"><ele></ele><time>2017-6-21T9:6:31Z</time></trkpt>
<trkpt lat="46.07048" lon="6.95387"><ele></ele><time>2017-6-21T9:6:34Z</time></trkpt>
<trkpt lat="46.07051" lon="6.95389"><ele></ele><time>2017-6-21T9:6:37Z</time></trkpt>
<trkpt lat="46.07054" lon="6.95391"><ele></ele><time>2017-6-21T9:6:40Z</time></trkpt>
<trkpt lat="46.07057" lon="6.95393"><ele></ele><time>2017-6-21T9:6:43Z</time></trkpt>
<trkpt lat="46.0706" lon="6.95395"><ele></ele><time>2017-6-21T9:6:46Z</time></trkpt>
<trkpt lat="46.07063" lon="6.95398"><ele></ele><time>2017-6-21T9:6:49Z</time></trkpt>
<trkpt lat="46.07066" lon="6.95399"><ele></ele><time>2017-6-21T9:6:52Z</time></trkpt>
<trkpt lat="46.07069" lon="6.954"><ele></ele><time>2017-6-21T9:6:55Z</time></trkpt>
<trkpt lat="46.07072" lon="6.954"><ele></ele><time>2017-6-21T9:6:58Z</time></trkpt>
<trkpt lat="46.07074" lon="6.954"><ele></ele><time>2017-6-21T9:7:1Z</time></trkpt>
<trkpt lat="46.07077" lon="6.95401"><ele></ele><time>2017-6-21T9:7:4Z</time></trkpt>
<trkpt lat="46.0708" lon="6.95401"><ele></ele><time>2017-6-21T9:7:7Z</time></trkpt>
<trkpt lat="46.07083" lon="6.95402"><ele></ele><time>2017-6-21T9:7:10Z</time></trkpt>
<trkpt lat="46.07086" lon="6.95402"><ele></ele><time>2017-6-21T9:7:13Z</time></trkpt>
<trkpt lat="46.07088" lon="6.95402"><ele></ele><time>2017-6-21T9:7:16Z</time></trkpt>
<trkpt lat="46.07091" lon="6.95403"><ele></ele><time>2017-6-21T9:7:19Z</time></trkpt>
<trkpt lat="46.07094" lon="6.95403"><ele></ele><time>2017-6-21T9:7:22Z</time></trkpt>
<trkpt lat="46.07097" lon="6.95403"><ele></ele><time>2017-6-21T9:7:25Z</time></trkpt>
<trkpt lat="46.071" lon="6.95404"><ele></ele><time>2017-6-21T9:7:28Z</time></trkpt>
<trkpt lat="46.07102" lon="6.95404"><ele></ele><time>2017-6-21T9:7:31Z</time></trkpt>
<trkpt lat="46.07105" lon="6.95405"><ele></ele><time>2017-6-21T9:7:34Z</time></trkpt>
<trkpt lat="46.07108" lon="6.95405"><ele></ele><time>2017-6-21T9:7:37Z</time></trkpt>
<trkpt lat="46.07111" lon="6.95405"><ele></ele><time>2017-6-21T9:7:40Z</time></trkpt>
<trkpt lat="46.07112" lon="6.95406"><ele></ele><time>2017-6-21T9:7:43Z</time></trkpt>
<trkpt lat="46.07114" lon="6.95406"><ele></ele><time>2017-6-21T9:7:46Z</time></trkpt>
<trkpt lat="46.07117" lon="6.95408"><ele></ele><time>2017-6-21T9:7:49Z</time></trkpt>
<trkpt lat="46.07119" lon="6.95409"><ele></ele><time>2017-6-21T9:7:52Z</time></trkpt>
<trkpt lat="46.07122" lon="6.95411"><ele></ele><time>2017-6-21T9:7:55Z</time></trkpt>
<trkpt lat="46.07125" lon="6.95412"><ele></ele><time>2017-6-21T9:7:58Z</time></trkpt>
<trkpt lat="46.07128" lon="6.95414"><ele></ele><time>2017-6-21T9:8:1Z</time></trkpt>
<trkpt lat="46.07131" lon="6.95415"><ele></ele><time>2017-6-21T9:8:4Z</time></trkpt>
<trkpt lat="46.07134" lon="6.95417"><ele></ele><time>2017-6-21T9:8:7Z</time></trkpt>
<trkpt lat="46.07137" lon="6.95418"><ele></ele><time>2017-6-21T9:8:10Z</time></trkpt>
<trkpt lat="46.07139" lon="6.9542"><ele></ele><time>2017-6-21T9:8:13Z</time></trkpt>
<trkpt lat="46.07142" lon="6.95421"><ele></ele><time>2017-6-21T9:8:16Z</time></trkpt>
<trkpt lat="46.07145" lon="6.95423"><ele></ele><time>2017-6-21T9:8:19Z</time></trkpt>
<trkpt lat="46.07148" lon="6.95424"><ele></ele><time>2017-6-21T9:8:22Z</time></trkpt>
<trkpt lat="46.07151" lon="6.95426"><ele></ele><time>2017-6-21T9:8:25Z</time></trkpt>
<trkpt lat="46.07154" lon="6.95427"><ele></ele><time>2017-6-21T9:8:28Z</time></trkpt>
<trkpt lat="46.07155" lon="6.95428"><ele></ele><time>2017-6-21T9:8:31Z</time></trkpt>
<trkpt lat="46.07156" lon="6.95429"><ele></ele><time>2017-6-21T9:8:34Z</time></trkpt>
<trkpt lat="46.07158" lon="6.95432"><ele></ele><time>2017-6-21T9:8:37Z</time></trkpt>
<trkpt lat="46.0716" lon="6.95435"><ele></ele><time>2017-6-21T9:8:40Z</time></trkpt>
<trkpt lat="46.07162" lon="6.95438"><ele></ele><time>2017-6-21T9:8:43Z</time></trkpt>
<trkpt lat="46.07164" lon="6.95441"><ele></ele><time>2017-6-21T9:8:46Z</time></trkpt>
<trkpt lat="46.07165" lon="6.95442"><ele></ele><time>2017-6-21T9:8:49Z</time></trkpt>
<trkpt lat="46.07166" lon="6.95444"><ele></ele><time>2017-6-21T9:8:52Z</time></trkpt>
<trkpt lat="46.07168" lon="6.95446"><ele></ele><time>2017-6-21T9:8:55Z</time></trkpt>
<trkpt lat="46.07171" lon="6.95449"><ele></ele><time>2017-6-21T9:8:58Z</time></trkpt>
<trkpt lat="46.07173" lon="6.95452"><ele></ele><time>2017-6-21T9:9:1Z</time></trkpt>
<trkpt lat="46.07175" lon="6.95455"><ele></ele><time>2017-6-21T9:9:4Z</time></trkpt>
<trkpt lat="46.07177" lon="6.95458"><ele></ele><time>2017-6-21T9:9:7Z</time></trkpt>
<trkpt lat="46.07179" lon="6.95461"><ele></ele><time>2017-6-21T9:9:10Z</time></trkpt>
<trkpt lat="46.07181" lon="6.95463"><ele></ele><time>2017-6-21T9:9:13Z</time></trkpt>
<trkpt lat="46.07183" lon="6.95466"><ele></ele><time>2017-6-21T9:9:16Z</time></trkpt>
<trkpt lat="46.07185" lon="6.95469"><ele></ele><time>2017-6-21T9:9:19Z</time></trkpt>
<trkpt lat="46.07187" lon="6.95472"><ele></ele><time>2017-6-21T9:9:22Z</time></trkpt>
<trkpt lat="46.07188" lon="6.95473"><ele></ele><time>2017-6-21T9:9:25Z</time></trkpt>
<trkpt lat="46.07189" lon="6.95473"><ele></ele><time>2017-6-21T9:9:28Z</time></trkpt>
<trkpt lat="46.07191" lon="6.95474"><ele></ele><time>2017-6-21T9:9:31Z</time></trkpt>
<trkpt lat="46.07192" lon="6.95474"><ele></ele><time>2017-6-21T9:9:34Z</time></trkpt>
<trkpt lat="46.07195" lon="6.95475"><ele></ele><time>2017-6-21T9:9:37Z</time></trkpt>
<trkpt lat="46.07197" lon="6.95476"><ele></ele><time>2017-6-21T9:9:40Z</time></trkpt>
<trkpt lat="46.072" lon="6.95476"><ele></ele><time>2017-6-21T9:9:43Z</time></trkpt>
<trkpt lat="46.07202" lon="6.95477"><ele></ele><time>2017-6-21T9:9:46Z</time></trkpt>
<trkpt lat="46.07205" lon="6.95478"><ele></ele><time>2017-6-21T9:9:49Z</time></trkpt>
<trkpt lat="46.07207" lon="6.95479"><ele></ele><time>2017-6-21T9:9:52Z</time></trkpt>
<trkpt lat="46.0721" lon="6.95479"><ele></ele><time>2017-6-21T9:9:55Z</time></trkpt>
<trkpt lat="46.07212" lon="6.9548"><ele></ele><time>2017-6-21T9:9:58Z</time></trkpt>
<trkpt lat="46.07215" lon="6.95481"><ele></ele><time>2017-6-21T9:10:1Z</time></trkpt>
<trkpt lat="46.07217" lon="6.95482"><ele></ele><time>2017-6-21T9:10:4Z</time></trkpt>
<trkpt lat="46.0722" lon="6.95482"><ele></ele><time>2017-6-21T9:10:7Z</time></trkpt>
<trkpt lat="46.07223" lon="6.95483"><ele></ele><time>2017-6-21T9:10:10Z</time></trkpt>
<trkpt lat="46.07225" lon="6.95484"><ele></ele><time>2017-6-21T9:10:13Z</time></trkpt>
<trkpt lat="46.07228" lon="6.95485"><ele></ele><time>2017-6-21T9:10:16Z</time></trkpt>
<trkpt lat="46.0723" lon="6.95486"><ele></ele><time>2017-6-21T9:10:19Z</time></trkpt>
<trkpt lat="46.07233" lon="6.95486"><ele></ele><time>2017-6-21T9:10:22Z</time></trkpt>
<trkpt lat="46.07236" lon="6.95487"><ele></ele><time>2017-6-21T9:10:25Z</time></trkpt>
<trkpt lat="46.07238" lon="6.95487"><ele></ele><time>2017-6-21T9:10:28Z</time></trkpt>
<trkpt lat="46.07241" lon="6.95487"><ele></ele><time>2017-6-21T9:10:31Z</time></trkpt>
<trkpt lat="46.07244" lon="6.95488"><ele></ele><time>2017-6-21T9:10:34Z</time></trkpt>
<trkpt lat="46.07246" lon="6.95488"><ele></ele><time>2017-6-21T9:10:37Z</time></trkpt>
<trkpt lat="46.07249" lon="6.95489"><ele></ele><time>2017-6-21T9:10:40Z</time></trkpt>
<trkpt lat="46.07252" lon="6.95489"><ele></ele><time>2017-6-21T9:10:43Z</time></trkpt>
<trkpt lat="46.07255" lon="6.95489"><ele></ele><time>2017-6-21T9:10:46Z</time></trkpt>
<trkpt lat="46.07256" lon="6.9549"><ele></ele><time>2017-6-21T9:10:49Z</time></trkpt>
<trkpt lat="46.07257" lon="6.9549"><ele></ele><time>2017-6-21T9:10:52Z</time></trkpt>
<trkpt lat="46.0726" lon="6.9549"><ele></ele><time>2017-6-21T9:10:55Z</time></trkpt>
<trkpt lat="46.07263" lon="6.95491"><ele></ele><time>2017-6-21T9:10:58Z</time></trkpt>
<trkpt lat="46.07266" lon="6.95491"><ele></ele><time>2017-6-21T9:11:1Z</time></trkpt>
<trkpt lat="46.07268" lon="6.95491"><ele></ele><time>2017-6-21T9:11:4Z</time></trkpt>
<trkpt lat="46.07271" lon="6.95492"><ele></ele><time>2017-6-21T9:11:7Z</time></trkpt>
<trkpt lat="46.07274" lon="6.95492"><ele></ele><time>2017-6-21T9:11:10Z</time></trkpt>
<trkpt lat="46.07277" lon="6.95493"><ele></ele><time>2017-6-21T9:11:13Z</time></trkpt>
<trkpt lat="46.07278" lon="6.95493"><ele></ele><time>2017-6-21T9:11:16Z</time></trkpt>
<trkpt lat="46.07279" lon="6.95494"><ele></ele><time>2017-6-21T9:11:19Z</time></trkpt>
<trkpt lat="46.07282" lon="6.95495"><ele></ele><time>2017-6-21T9:11:22Z</time></trkpt>
<trkpt lat="46.07284" lon="6.95497"><ele></ele><time>2017-6-21T9:11:25Z</time></trkpt>
<trkpt lat="46.07287" lon="6.95498"><ele></ele><time>2017-6-21T9:11:28Z</time></trkpt>
<trkpt lat="46.0729" lon="6.955"><ele></ele><time>2017-6-21T9:11:31Z</time></trkpt>
<trkpt lat="46.07292" lon="6.95502"><ele></ele><time>2017-6-21T9:11:34Z</time></trkpt>
<trkpt lat="46.07295" lon="6.95503"><ele></ele><time>2017-6-21T9:11:37Z</time></trkpt>
<trkpt lat="46.07297" lon="6.95505"><ele></ele><time>2017-6-21T9:11:40Z</time></trkpt>
<trkpt lat="46.073" lon="6.95506"><ele></ele><time>2017-6-21T9:11:43Z</time></trkpt>
<trkpt lat="46.07302" lon="6.95508"><ele></ele><time>2017-6-21T9:11:46Z</time></trkpt>
<trkpt lat="46.07305" lon="6.9551"><ele></ele><time>2017-6-21T9:11:49Z</time></trkpt>
<trkpt lat="46.07306" lon="6.9551"><ele></ele><time>2017-6-21T9:11:52Z</time></trkpt>
<trkpt lat="46.07308" lon="6.95511"><ele></ele><time>2017-6-21T9:11:55Z</time></trkpt>
<trkpt lat="46.0731" lon="6.95513"><ele></ele><time>2017-6-21T9:11:58Z</time></trkpt>
<trkpt lat="46.07313" lon="6.95514"><ele></ele><time>2017-6-21T9:12:1Z</time></trkpt>
<trkpt lat="46.07315" lon="6.95516"><ele></ele><time>2017-6-21T9:12:4Z</time></trkpt>
<trkpt lat="46.07318" lon="6.95517"><ele></ele><time>2017-6-21T9:12:7Z</time></trkpt>
<trkpt lat="46.0732" lon="6.95519"><ele></ele><time>2017-6-21T9:12:10Z</time></trkpt>
<trkpt lat="46.07323" lon="6.95518"><ele></ele><time>2017-6-21T9:12:13Z</time></trkpt>
<trkpt lat="46.07326" lon="6.95518"><ele></ele><time>2017-6-21T9:12:16Z</time></trkpt>
<trkpt lat="46.07329" lon="6.95517"><ele></ele><time>2017-6-21T9:12:19Z</time></trkpt>
<trkpt lat="46.07332" lon="6.95517"><ele></ele><time>2017-6-21T9:12:22Z</time></trkpt>
<trkpt lat="46.07334" lon="6.95517"><ele></ele><time>2017-6-21T9:12:25Z</time></trkpt>
<trkpt lat="46.07337" lon="6.95516"><ele></ele><time>2017-6-21T9:12:28Z</time></trkpt>
<trkpt lat="46.0734" lon="6.95516"><ele></ele><time>2017-6-21T9:12:31Z</time></trkpt>
<trkpt lat="46.07343" lon="6.95515"><ele></ele><time>2017-6-21T9:12:34Z</time></trkpt>
<trkpt lat="46.07346" lon="6.95515"><ele></ele><time>2017-6-21T9:12:37Z</time></trkpt>
<trkpt lat="46.07348" lon="6.95514"><ele></ele><time>2017-6-21T9:12:40Z</time></trkpt>
<trkpt lat="46.07351" lon="6.95514"><ele></ele><time>2017-6-21T9:12:43Z</time></trkpt>
<trkpt lat="46.07354" lon="6.95514"><ele></ele><time>2017-6-21T9:12:46Z</time></trkpt>
<trkpt lat="46.07357" lon="6.95513"><ele></ele><time>2017-6-21T9:12:49Z</time></trkpt>
<trkpt lat="46.0736" lon="6.95513"><ele></ele><time>2017-6-21T9:12:52Z</time></trkpt>
<trkpt lat="46.07363" lon="6.95512"><ele></ele><time>2017-6-21T9:12:55Z</time></trkpt>
<trkpt lat="46.07365" lon="6.95512"><ele></ele><time>2017-6-21T9:12:58Z</time></trkpt>
<trkpt lat="46.07368" lon="6.95513"><ele></ele><time>2017-6-21T9:13:1Z</time></trkpt>
<trkpt lat="46.07371" lon="6.95514"><ele></ele><time>2017-6-21T9:13:4Z</time></trkpt>
<trkpt lat="46.07374" lon="6.95515"><ele></ele><time>2017-6-21T9:13:7Z</time></trkpt>
<trkpt lat="46.07376" lon="6.95516"><ele></ele><time>2017-6-21T9:13:10Z</time></trkpt>
<trkpt lat="46.07379" lon="6.95517"><ele></ele><time>2017-6-21T9:13:13Z</time></trkpt>
<trkpt lat="46.07382" lon="6.95518"><ele></ele><time>2017-6-21T9:13:16Z</time></trkpt>
<trkpt lat="46.07385" lon="6.9552"><ele></ele><time>2017-6-21T9:13:19Z</time></trkpt>
<trkpt lat="46.07387" lon="6.95521"><ele></ele><time>2017-6-21T9:13:22Z</time></trkpt>
<trkpt lat="46.0739" lon="6.95522"><ele></ele><time>2017-6-21T9:13:25Z</time></trkpt>
<trkpt lat="46.07393" lon="6.95523"><ele></ele><time>2017-6-21T9:13:28Z</time></trkpt>
<trkpt lat="46.07396" lon="6.95524"><ele></ele><time>2017-6-21T9:13:31Z</time></trkpt>
<trkpt lat="46.07398" lon="6.95525"><ele></ele><time>2017-6-21T9:13:34Z</time></trkpt>
<trkpt lat="46.07401" lon="6.95526"><ele></ele><time>2017-6-21T9:13:37Z</time></trkpt>
<trkpt lat="46.07404" lon="6.95527"><ele></ele><time>2017-6-21T9:13:40Z</time></trkpt>
<trkpt lat="46.07407" lon="6.95528"><ele></ele><time>2017-6-21T9:13:43Z</time></trkpt>
<trkpt lat="46.07409" lon="6.95529"><ele></ele><time>2017-6-21T9:13:46Z</time></trkpt>
<trkpt lat="46.07412" lon="6.95531"><ele></ele><time>2017-6-21T9:13:49Z</time></trkpt>
<trkpt lat="46.07414" lon="6.95532"><ele></ele><time>2017-6-21T9:13:52Z</time></trkpt>
<trkpt lat="46.07416" lon="6.95534"><ele></ele><time>2017-6-21T9:13:55Z</time></trkpt>
<trkpt lat="46.07419" lon="6.95536"><ele></ele><time>2017-6-21T9:13:58Z</time></trkpt>
<trkpt lat="46.07421" lon="6.95537"><ele></ele><time>2017-6-21T9:14:1Z</time></trkpt>
<trkpt lat="46.07423" lon="6.95539"><ele></ele><time>2017-6-21T9:14:4Z</time></trkpt>
<trkpt lat="46.07425" lon="6.95541"><ele></ele><time>2017-6-21T9:14:7Z</time></trkpt>
<trkpt lat="46.07428" lon="6.95542"><ele></ele><time>2017-6-21T9:14:10Z</time></trkpt>
<trkpt lat="46.0743" lon="6.95544"><ele></ele><time>2017-6-21T9:14:13Z</time></trkpt>
<trkpt lat="46.07432" lon="6.95546"><ele></ele><time>2017-6-21T9:14:16Z</time></trkpt>
<trkpt lat="46.07434" lon="6.95547"><ele></ele><time>2017-6-21T9:14:19Z</time></trkpt>
<trkpt lat="46.07437" lon="6.95549"><ele></ele><time>2017-6-21T9:14:22Z</time></trkpt>
<trkpt lat="46.07439" lon="6.95551"><ele></ele><time>2017-6-21T9:14:25Z</time></trkpt>
<trkpt lat="46.07441" lon="6.95552"><ele></ele><time>2017-6-21T9:14:28Z</time></trkpt>
<trkpt lat="46.07444" lon="6.95554"><ele></ele><time>2017-6-21T9:14:31Z</time></trkpt>
<trkpt lat="46.07446" lon="6.95556"><ele></ele><time>2017-6-21T9:14:34Z</time></trkpt>
<trkpt lat="46.07448" lon="6.95557"><ele></ele><time>2017-6-21T9:14:37Z</time></trkpt>
<trkpt lat="46.0745" lon="6.95559"><ele></ele><time>2017-6-21T9:14:40Z</time></trkpt>
<trkpt lat="46.07453" lon="6.95559"><ele></ele><time>2017-6-21T9:14:43Z</time></trkpt>
<trkpt lat="46.07456" lon="6.9556"><ele></ele><time>2017-6-21T9:14:46Z</time></trkpt>
<trkpt lat="46.07458" lon="6.95561"><ele></ele><time>2017-6-21T9:14:49Z</time></trkpt>
<trkpt lat="46.07461" lon="6.95562"><ele></ele><time>2017-6-21T9:14:52Z</time></trkpt>
<trkpt lat="46.07463" lon="6.95563"><ele></ele><time>2017-6-21T9:14:55Z</time></trkpt>
<trkpt lat="46.07466" lon="6.95563"><ele></ele><time>2017-6-21T9:14:58Z</time></trkpt>
<trkpt lat="46.07469" lon="6.95564"><ele></ele><time>2017-6-21T9:15:1Z</time></trkpt>
<trkpt lat="46.0747" lon="6.95564"><ele></ele><time>2017-6-21T9:15:4Z</time></trkpt>
<trkpt lat="46.07471" lon="6.95565"><ele></ele><time>2017-6-21T9:15:7Z</time></trkpt>
<trkpt lat="46.07474" lon="6.95566"><ele></ele><time>2017-6-21T9:15:10Z</time></trkpt>
<trkpt lat="46.07476" lon="6.95566"><ele></ele><time>2017-6-21T9:15:13Z</time></trkpt>
<trkpt lat="46.07478" lon="6.95567"><ele></ele><time>2017-6-21T9:15:16Z</time></trkpt>
<trkpt lat="46.07479" lon="6.95567"><ele></ele><time>2017-6-21T9:15:19Z</time></trkpt>
<trkpt lat="46.07482" lon="6.95568"><ele></ele><time>2017-6-21T9:15:22Z</time></trkpt>
<trkpt lat="46.07484" lon="6.95569"><ele></ele><time>2017-6-21T9:15:25Z</time></trkpt>
<trkpt lat="46.07487" lon="6.9557"><ele></ele><time>2017-6-21T9:15:28Z</time></trkpt>
<trkpt lat="46.07489" lon="6.9557"><ele></ele><time>2017-6-21T9:15:31Z</time></trkpt>
<trkpt lat="46.07492" lon="6.95571"><ele></ele><time>2017-6-21T9:15:34Z</time></trkpt>
<trkpt lat="46.07494" lon="6.95572"><ele></ele><time>2017-6-21T9:15:37Z</time></trkpt>
<trkpt lat="46.07497" lon="6.95575"><ele></ele><time>2017-6-21T9:15:40Z</time></trkpt>
<trkpt lat="46.07499" lon="6.95578"><ele></ele><time>2017-6-21T9:15:43Z</time></trkpt>
<trkpt lat="46.07501" lon="6.95581"><ele></ele><time>2017-6-21T9:15:46Z</time></trkpt>
<trkpt lat="46.07504" lon="6.95584"><ele></ele><time>2017-6-21T9:15:49Z</time></trkpt>
<trkpt lat="46.07506" lon="6.95587"><ele></ele><time>2017-6-21T9:15:52Z</time></trkpt>
<trkpt lat="46.07508" lon="6.9559"><ele></ele><time>2017-6-21T9:15:55Z</time></trkpt>
<trkpt lat="46.07509" lon="6.95591"><ele></ele><time>2017-6-21T9:15:58Z</time></trkpt>
<trkpt lat="46.0751" lon="6.95592"><ele></ele><time>2017-6-21T9:16:1Z</time></trkpt>
<trkpt lat="46.07513" lon="6.95595"><ele></ele><time>2017-6-21T9:16:4Z</time></trkpt>
<trkpt lat="46.07515" lon="6.95598"><ele></ele><time>2017-6-21T9:16:7Z</time></trkpt>
<trkpt lat="46.07517" lon="6.95601"><ele></ele><time>2017-6-21T9:16:10Z</time></trkpt>
<trkpt lat="46.0752" lon="6.95604"><ele></ele><time>2017-6-21T9:16:13Z</time></trkpt>
<trkpt lat="46.07522" lon="6.95607"><ele></ele><time>2017-6-21T9:16:16Z</time></trkpt>
<trkpt lat="46.07524" lon="6.9561"><ele></ele><time>2017-6-21T9:16:19Z</time></trkpt>
<trkpt lat="46.07526" lon="6.95613"><ele></ele><time>2017-6-21T9:16:22Z</time></trkpt>
<trkpt lat="46.07529" lon="6.95615"><ele></ele><time>2017-6-21T9:16:25Z</time></trkpt>
<trkpt lat="46.07533" lon="6.95615"><ele></ele><time>2017-6-21T9:16:28Z</time></trkpt>
<trkpt lat="46.07537" lon="6.95615"><ele></ele><time>2017-6-21T9:16:31Z</time></trkpt>
<trkpt lat="46.0754" lon="6.95614"><ele></ele><time>2017-6-21T9:16:34Z</time></trkpt>
<trkpt lat="46.07544" lon="6.95614"><ele></ele><time>2017-6-21T9:16:37Z</time></trkpt>
<trkpt lat="46.07548" lon="6.95614"><ele></ele><time>2017-6-21T9:16:40Z</time></trkpt>
<trkpt lat="46.07549" lon="6.95613"><ele></ele><time>2017-6-21T9:16:43Z</time></trkpt>
<trkpt lat="46.07549" lon="6.9561"><ele></ele><time>2017-6-21T9:16:46Z</time></trkpt>
<trkpt lat="46.07549" lon="6.95605"><ele></ele><time>2017-6-21T9:16:49Z</time></trkpt>
<trkpt lat="46.0755" lon="6.95601"><ele></ele><time>2017-6-21T9:16:52Z</time></trkpt>
<trkpt lat="46.0755" lon="6.95596"><ele></ele><time>2017-6-21T9:16:55Z</time></trkpt>
<trkpt lat="46.07549" lon="6.95593"><ele></ele><time>2017-6-21T9:16:58Z</time></trkpt>
<trkpt lat="46.07547" lon="6.95592"><ele></ele><time>2017-6-21T9:17:1Z</time></trkpt>
<trkpt lat="46.07544" lon="6.95589"><ele></ele><time>2017-6-21T9:17:4Z</time></trkpt>
<trkpt lat="46.07541" lon="6.95587"><ele></ele><time>2017-6-21T9:17:7Z</time></trkpt>
<trkpt lat="46.07538" lon="6.95584"><ele></ele><time>2017-6-21T9:17:10Z</time></trkpt>
<trkpt lat="46.07535" lon="6.95581"><ele></ele><time>2017-6-21T9:17:13Z</time></trkpt>
<trkpt lat="46.07533" lon="6.9558"><ele></ele><time>2017-6-21T9:17:16Z</time></trkpt>
<trkpt lat="46.07531" lon="6.95579"><ele></ele><time>2017-6-21T9:17:19Z</time></trkpt>
<trkpt lat="46.07528" lon="6.95576"><ele></ele><time>2017-6-21T9:17:22Z</time></trkpt>
<trkpt lat="46.07525" lon="6.95573"><ele></ele><time>2017-6-21T9:17:25Z</time></trkpt>
<trkpt lat="46.07522" lon="6.95571"><ele></ele><time>2017-6-21T9:17:28Z</time></trkpt>
<trkpt lat="46.07519" lon="6.95568"><ele></ele><time>2017-6-21T9:17:31Z</time></trkpt>
<trkpt lat="46.07516" lon="6.95565"><ele></ele><time>2017-6-21T9:17:34Z</time></trkpt>
<trkpt lat="46.07512" lon="6.95563"><ele></ele><time>2017-6-21T9:17:37Z</time></trkpt>
<trkpt lat="46.07509" lon="6.9556"><ele></ele><time>2017-6-21T9:17:40Z</time></trkpt>
<trkpt lat="46.07506" lon="6.95559"><ele></ele><time>2017-6-21T9:17:43Z</time></trkpt>
<trkpt lat="46.07504" lon="6.95557"><ele></ele><time>2017-6-21T9:17:46Z</time></trkpt>
<trkpt lat="46.07501" lon="6.95556"><ele></ele><time>2017-6-21T9:17:49Z</time></trkpt>
<trkpt lat="46.07498" lon="6.95555"><ele></ele><time>2017-6-21T9:17:52Z</time></trkpt>
<trkpt lat="46.07496" lon="6.95554"><ele></ele><time>2017-6-21T9:17:55Z</time></trkpt>
<trkpt lat="46.07493" lon="6.95552"><ele></ele><time>2017-6-21T9:17:58Z</time></trkpt>
<trkpt lat="46.0749" lon="6.95551"><ele></ele><time>2017-6-21T9:18:1Z</time></trkpt>
<trkpt lat="46.07487" lon="6.9555"><ele></ele><time>2017-6-21T9:18:4Z</time></trkpt>
<trkpt lat="46.07485" lon="6.95548"><ele></ele><time>2017-6-21T9:18:7Z</time></trkpt>
<trkpt lat="46.07482" lon="6.95547"><ele></ele><time>2017-6-21T9:18:10Z</time></trkpt>
<trkpt lat="46.07479" lon="6.95546"><ele></ele><time>2017-6-21T9:18:13Z</time></trkpt>
<trkpt lat="46.07476" lon="6.95544"><ele></ele><time>2017-6-21T9:18:16Z</time></trkpt>
<trkpt lat="46.07475" lon="6.95544"><ele></ele><time>2017-6-21T9:18:19Z</time></trkpt>
<trkpt lat="46.07474" lon="6.95543"><ele></ele><time>2017-6-21T9:18:22Z</time></trkpt>
<trkpt lat="46.07471" lon="6.95542"><ele></ele><time>2017-6-21T9:18:25Z</time></trkpt>
<trkpt lat="46.07468" lon="6.9554"><ele></ele><time>2017-6-21T9:18:28Z</time></trkpt>
<trkpt lat="46.07466" lon="6.95539"><ele></ele><time>2017-6-21T9:18:31Z</time></trkpt>
<trkpt lat="46.07464" lon="6.95536"><ele></ele><time>2017-6-21T9:18:34Z</time></trkpt>
<trkpt lat="46.07461" lon="6.95533"><ele></ele><time>2017-6-21T9:18:37Z</time></trkpt>
<trkpt lat="46.07459" lon="6.95531"><ele></ele><time>2017-6-21T9:18:40Z</time></trkpt>
<trkpt lat="46.07457" lon="6.95528"><ele></ele><time>2017-6-21T9:18:43Z</time></trkpt>
<trkpt lat="46.07455" lon="6.95525"><ele></ele><time>2017-6-21T9:18:46Z</time></trkpt>
<trkpt lat="46.07453" lon="6.95523"><ele></ele><time>2017-6-21T9:18:49Z</time></trkpt>
<trkpt lat="46.07451" lon="6.9552"><ele></ele><time>2017-6-21T9:18:52Z</time></trkpt>
<trkpt lat="46.07449" lon="6.95517"><ele></ele><time>2017-6-21T9:18:55Z</time></trkpt>
<trkpt lat="46.07447" lon="6.95515"><ele></ele><time>2017-6-21T9:18:58Z</time></trkpt>
<trkpt lat="46.07445" lon="6.95512"><ele></ele><time>2017-6-21T9:19:1Z</time></trkpt>
<trkpt lat="46.07443" lon="6.95509"><ele></ele><time>2017-6-21T9:19:4Z</time></trkpt>
<trkpt lat="46.07441" lon="6.95507"><ele></ele><time>2017-6-21T9:19:7Z</time></trkpt>
<trkpt lat="46.07439" lon="6.95504"><ele></ele><time>2017-6-21T9:19:10Z</time></trkpt>
<trkpt lat="46.07437" lon="6.95501"><ele></ele><time>2017-6-21T9:19:13Z</time></trkpt>
<trkpt lat="46.07435" lon="6.95499"><ele></ele><time>2017-6-21T9:19:16Z</time></trkpt>
<trkpt lat="46.07433" lon="6.95496"><ele></ele><time>2017-6-21T9:19:19Z</time></trkpt>
<trkpt lat="46.07432" lon="6.95494"><ele></ele><time>2017-6-21T9:19:22Z</time></trkpt>
<trkpt lat="46.07431" lon="6.95493"><ele></ele><time>2017-6-21T9:19:25Z</time></trkpt>
<trkpt lat="46.07429" lon="6.9549"><ele></ele><time>2017-6-21T9:19:28Z</time></trkpt>
<trkpt lat="46.07427" lon="6.95486"><ele></ele><time>2017-6-21T9:19:31Z</time></trkpt>
<trkpt lat="46.07425" lon="6.95483"><ele></ele><time>2017-6-21T9:19:34Z</time></trkpt>
<trkpt lat="46.07423" lon="6.9548"><ele></ele><time>2017-6-21T9:19:37Z</time></trkpt>
<trkpt lat="46.07421" lon="6.95477"><ele></ele><time>2017-6-21T9:19:40Z</time></trkpt>
<trkpt lat="46.07419" lon="6.95474"><ele></ele><time>2017-6-21T9:19:43Z</time></trkpt>
<trkpt lat="46.07417" lon="6.9547"><ele></ele><time>2017-6-21T9:19:46Z</time></trkpt>
<trkpt lat="46.07416" lon="6.95469"><ele></ele><time>2017-6-21T9:19:49Z</time></trkpt>
<trkpt lat="46.07415" lon="6.95467"><ele></ele><time>2017-6-21T9:19:52Z</time></trkpt>
<trkpt lat="46.07413" lon="6.95464"><ele></ele><time>2017-6-21T9:19:55Z</time></trkpt>
<trkpt lat="46.07411" lon="6.95461"><ele></ele><time>2017-6-21T9:19:58Z</time></trkpt>
<trkpt lat="46.07409" lon="6.95458"><ele></ele><time>2017-6-21T9:20:1Z</time></trkpt>
<trkpt lat="46.07408" lon="6.95454"><ele></ele><time>2017-6-21T9:20:4Z</time></trkpt>
<trkpt lat="46.07406" lon="6.95451"><ele></ele><time>2017-6-21T9:20:7Z</time></trkpt>
<trkpt lat="46.07404" lon="6.95448"><ele></ele><time>2017-6-21T9:20:10Z</time></trkpt>
<trkpt lat="46.07402" lon="6.95445"><ele></ele><time>2017-6-21T9:20:13Z</time></trkpt>
<trkpt lat="46.07399" lon="6.95443"><ele></ele><time>2017-6-21T9:20:16Z</time></trkpt>
<trkpt lat="46.07396" lon="6.95441"><ele></ele><time>2017-6-21T9:20:19Z</time></trkpt>
<trkpt lat="46.07394" lon="6.95439"><ele></ele><time>2017-6-21T9:20:22Z</time></trkpt>
<trkpt lat="46.07391" lon="6.95437"><ele></ele><time>2017-6-21T9:20:25Z</time></trkpt>
<trkpt lat="46.07388" lon="6.95435"><ele></ele><time>2017-6-21T9:20:28Z</time></trkpt>
<trkpt lat="46.07386" lon="6.95432"><ele></ele><time>2017-6-21T9:20:31Z</time></trkpt>
<trkpt lat="46.07383" lon="6.9543"><ele></ele><time>2017-6-21T9:20:34Z</time></trkpt>
<trkpt lat="46.07381" lon="6.95428"><ele></ele><time>2017-6-21T9:20:37Z</time></trkpt>
<trkpt lat="46.07378" lon="6.95426"><ele></ele><time>2017-6-21T9:20:40Z</time></trkpt>
<trkpt lat="46.07375" lon="6.95424"><ele></ele><time>2017-6-21T9:20:43Z</time></trkpt>
<trkpt lat="46.07373" lon="6.95422"><ele></ele><time>2017-6-21T9:20:46Z</time></trkpt>
<trkpt lat="46.0737" lon="6.9542"><ele></ele><time>2017-6-21T9:20:49Z</time></trkpt>
<trkpt lat="46.07367" lon="6.95418"><ele></ele><time>2017-6-21T9:20:52Z</time></trkpt>
<trkpt lat="46.07365" lon="6.95416"><ele></ele><time>2017-6-21T9:20:55Z</time></trkpt>
<trkpt lat="46.07362" lon="6.95414"><ele></ele><time>2017-6-21T9:20:58Z</time></trkpt>
<trkpt lat="46.07361" lon="6.9541"><ele></ele><time>2017-6-21T9:21:1Z</time></trkpt>
<trkpt lat="46.0736" lon="6.95407"><ele></ele><time>2017-6-21T9:21:4Z</time></trkpt>
<trkpt lat="46.07359" lon="6.95403"><ele></ele><time>2017-6-21T9:21:7Z</time></trkpt>
<trkpt lat="46.07357" lon="6.954"><ele></ele><time>2017-6-21T9:21:10Z</time></trkpt>
<trkpt lat="46.07356" lon="6.95396"><ele></ele><time>2017-6-21T9:21:13Z</time></trkpt>
<trkpt lat="46.07355" lon="6.95393"><ele></ele><time>2017-6-21T9:21:16Z</time></trkpt>
<trkpt lat="46.07354" lon="6.9539"><ele></ele><time>2017-6-21T9:21:19Z</time></trkpt>
<trkpt lat="46.07353" lon="6.95386"><ele></ele><time>2017-6-21T9:21:22Z</time></trkpt>
<trkpt lat="46.07351" lon="6.95383"><ele></ele><time>2017-6-21T9:21:25Z</time></trkpt>
<trkpt lat="46.0735" lon="6.95379"><ele></ele><time>2017-6-21T9:21:28Z</time></trkpt>
<trkpt lat="46.07349" lon="6.95376"><ele></ele><time>2017-6-21T9:21:31Z</time></trkpt>
<trkpt lat="46.07348" lon="6.95373"><ele></ele><time>2017-6-21T9:21:34Z</time></trkpt>
<trkpt lat="46.07347" lon="6.95369"><ele></ele><time>2017-6-21T9:21:37Z</time></trkpt>
<trkpt lat="46.07345" lon="6.95366"><ele></ele><time>2017-6-21T9:21:40Z</time></trkpt>
<trkpt lat="46.07344" lon="6.95362"><ele></ele><time>2017-6-21T9:21:43Z</time></trkpt>
<trkpt lat="46.07343" lon="6.95359"><ele></ele><time>2017-6-21T9:21:46Z</time></trkpt>
<trkpt lat="46.07342" lon="6.95355"><ele></ele><time>2017-6-21T9:21:49Z</time></trkpt>
<trkpt lat="46.0734" lon="6.95353"><ele></ele><time>2017-6-21T9:21:52Z</time></trkpt>
<trkpt lat="46.07338" lon="6.9535"><ele></ele><time>2017-6-21T9:21:55Z</time></trkpt>
<trkpt lat="46.07336" lon="6.95347"><ele></ele><time>2017-6-21T9:21:58Z</time></trkpt>
<trkpt lat="46.07333" lon="6.95344"><ele></ele><time>2017-6-21T9:22:1Z</time></trkpt>
<trkpt lat="46.07331" lon="6.95341"><ele></ele><time>2017-6-21T9:22:4Z</time></trkpt>
<trkpt lat="46.07329" lon="6.95338"><ele></ele><time>2017-6-21T9:22:7Z</time></trkpt>
<trkpt lat="46.07327" lon="6.95335"><ele></ele><time>2017-6-21T9:22:10Z</time></trkpt>
<trkpt lat="46.07325" lon="6.95332"><ele></ele><time>2017-6-21T9:22:13Z</time></trkpt>
<trkpt lat="46.07323" lon="6.95329"><ele></ele><time>2017-6-21T9:22:16Z</time></trkpt>
<trkpt lat="46.07322" lon="6.95327"><ele></ele><time>2017-6-21T9:22:19Z</time></trkpt>
<trkpt lat="46.07321" lon="6.95326"><ele></ele><time>2017-6-21T9:22:22Z</time></trkpt>
<trkpt lat="46.07319" lon="6.95323"><ele></ele><time>2017-6-21T9:22:25Z</time></trkpt>
<trkpt lat="46.07317" lon="6.9532"><ele></ele><time>2017-6-21T9:22:28Z</time></trkpt>
<trkpt lat="46.07315" lon="6.95317"><ele></ele><time>2017-6-21T9:22:31Z</time></trkpt>
<trkpt lat="46.07313" lon="6.95314"><ele></ele><time>2017-6-21T9:22:34Z</time></trkpt>
<trkpt lat="46.07311" lon="6.95311"><ele></ele><time>2017-6-21T9:22:37Z</time></trkpt>
<trkpt lat="46.07309" lon="6.95309"><ele></ele><time>2017-6-21T9:22:40Z</time></trkpt>
<trkpt lat="46.07306" lon="6.95308"><ele></ele><time>2017-6-21T9:22:43Z</time></trkpt>
<trkpt lat="46.07304" lon="6.95307"><ele></ele><time>2017-6-21T9:22:46Z</time></trkpt>
<trkpt lat="46.07301" lon="6.95306"><ele></ele><time>2017-6-21T9:22:49Z</time></trkpt>
<trkpt lat="46.07298" lon="6.95305"><ele></ele><time>2017-6-21T9:22:52Z</time></trkpt>
<trkpt lat="46.07296" lon="6.95304"><ele></ele><time>2017-6-21T9:22:55Z</time></trkpt>
<trkpt lat="46.07293" lon="6.95303"><ele></ele><time>2017-6-21T9:22:58Z</time></trkpt>
<trkpt lat="46.07291" lon="6.95302"><ele></ele><time>2017-6-21T9:23:1Z</time></trkpt>
<trkpt lat="46.07288" lon="6.95301"><ele></ele><time>2017-6-21T9:23:4Z</time></trkpt>
<trkpt lat="46.07285" lon="6.953"><ele></ele><time>2017-6-21T9:23:7Z</time></trkpt>
<trkpt lat="46.07283" lon="6.95299"><ele></ele><time>2017-6-21T9:23:10Z</time></trkpt>
<trkpt lat="46.0728" lon="6.95298"><ele></ele><time>2017-6-21T9:23:13Z</time></trkpt>
<trkpt lat="46.07277" lon="6.95297"><ele></ele><time>2017-6-21T9:23:16Z</time></trkpt>
<trkpt lat="46.07275" lon="6.95296"><ele></ele><time>2017-6-21T9:23:19Z</time></trkpt>
<trkpt lat="46.07272" lon="6.95295"><ele></ele><time>2017-6-21T9:23:22Z</time></trkpt>
<trkpt lat="46.07269" lon="6.95294"><ele></ele><time>2017-6-21T9:23:25Z</time></trkpt>
<trkpt lat="46.07267" lon="6.95294"><ele></ele><time>2017-6-21T9:23:28Z</time></trkpt>
<trkpt lat="46.07265" lon="6.95293"><ele></ele><time>2017-6-21T9:23:31Z</time></trkpt>
<trkpt lat="46.07264" lon="6.95292"><ele></ele><time>2017-6-21T9:23:34Z</time></trkpt>
<trkpt lat="46.07262" lon="6.9529"><ele></ele><time>2017-6-21T9:23:37Z</time></trkpt>
<trkpt lat="46.0726" lon="6.95289"><ele></ele><time>2017-6-21T9:23:40Z</time></trkpt>
<trkpt lat="46.07258" lon="6.95287"><ele></ele><time>2017-6-21T9:23:43Z</time></trkpt>
<trkpt lat="46.07256" lon="6.95285"><ele></ele><time>2017-6-21T9:23:46Z</time></trkpt>
<trkpt lat="46.07254" lon="6.95283"><ele></ele><time>2017-6-21T9:23:49Z</time></trkpt>
<trkpt lat="46.07252" lon="6.95282"><ele></ele><time>2017-6-21T9:23:52Z</time></trkpt>
<trkpt lat="46.0725" lon="6.9528"><ele></ele><time>2017-6-21T9:23:55Z</time></trkpt>
<trkpt lat="46.07248" lon="6.95278"><ele></ele><time>2017-6-21T9:23:58Z</time></trkpt>
<trkpt lat="46.07246" lon="6.95277"><ele></ele><time>2017-6-21T9:24:1Z</time></trkpt>
<trkpt lat="46.07244" lon="6.95275"><ele></ele><time>2017-6-21T9:24:4Z</time></trkpt>
<trkpt lat="46.07242" lon="6.95273"><ele></ele><time>2017-6-21T9:24:7Z</time></trkpt>
<trkpt lat="46.07239" lon="6.95271"><ele></ele><time>2017-6-21T9:24:10Z</time></trkpt>
<trkpt lat="46.07237" lon="6.9527"><ele></ele><time>2017-6-21T9:24:13Z</time></trkpt>
<trkpt lat="46.07235" lon="6.95268"><ele></ele><time>2017-6-21T9:24:16Z</time></trkpt>
<trkpt lat="46.07233" lon="6.95266"><ele></ele><time>2017-6-21T9:24:19Z</time></trkpt>
<trkpt lat="46.07231" lon="6.95265"><ele></ele><time>2017-6-21T9:24:22Z</time></trkpt>
<trkpt lat="46.07229" lon="6.95263"><ele></ele><time>2017-6-21T9:24:25Z</time></trkpt>
<trkpt lat="46.07227" lon="6.95261"><ele></ele><time>2017-6-21T9:24:28Z</time></trkpt>
<trkpt lat="46.07226" lon="6.9526"><ele></ele><time>2017-6-21T9:24:31Z</time></trkpt>
<trkpt lat="46.07225" lon="6.95259"><ele></ele><time>2017-6-21T9:24:34Z</time></trkpt>
<trkpt lat="46.07223" lon="6.95256"><ele></ele><time>2017-6-21T9:24:37Z</time></trkpt>
<trkpt lat="46.07222" lon="6.95253"><ele></ele><time>2017-6-21T9:24:40Z</time></trkpt>
<trkpt lat="46.0722" lon="6.9525"><ele></ele><time>2017-6-21T9:24:43Z</time></trkpt>
<trkpt lat="46.07218" lon="6.95248"><ele></ele><time>2017-6-21T9:24:46Z</time></trkpt>
<trkpt lat="46.07216" lon="6.95245"><ele></ele><time>2017-6-21T9:24:49Z</time></trkpt>
<trkpt lat="46.07215" lon="6.95242"><ele></ele><time>2017-6-21T9:24:52Z</time></trkpt>
<trkpt lat="46.07213" lon="6.95239"><ele></ele><time>2017-6-21T9:24:55Z</time></trkpt>
<trkpt lat="46.07211" lon="6.95237"><ele></ele><time>2017-6-21T9:24:58Z</time></trkpt>
<trkpt lat="46.07209" lon="6.95234"><ele></ele><time>2017-6-21T9:25:1Z</time></trkpt>
<trkpt lat="46.07208" lon="6.95231"><ele></ele><time>2017-6-21T9:25:4Z</time></trkpt>
<trkpt lat="46.07206" lon="6.95228"><ele></ele><time>2017-6-21T9:25:7Z</time></trkpt>
<trkpt lat="46.07204" lon="6.95226"><ele></ele><time>2017-6-21T9:25:10Z</time></trkpt>
<trkpt lat="46.07203" lon="6.95223"><ele></ele><time>2017-6-21T9:25:13Z</time></trkpt>
<trkpt lat="46.07201" lon="6.9522"><ele></ele><time>2017-6-21T9:25:16Z</time></trkpt>
<trkpt lat="46.07199" lon="6.95217"><ele></ele><time>2017-6-21T9:25:19Z</time></trkpt>
<trkpt lat="46.07197" lon="6.95215"><ele></ele><time>2017-6-21T9:25:22Z</time></trkpt>
<trkpt lat="46.07195" lon="6.95212"><ele></ele><time>2017-6-21T9:25:25Z</time></trkpt>
<trkpt lat="46.07193" lon="6.95209"><ele></ele><time>2017-6-21T9:25:28Z</time></trkpt>
<trkpt lat="46.07191" lon="6.95207"><ele></ele><time>2017-6-21T9:25:31Z</time></trkpt>
<trkpt lat="46.07189" lon="6.95204"><ele></ele><time>2017-6-21T9:25:34Z</time></trkpt>
<trkpt lat="46.07187" lon="6.95201"><ele></ele><time>2017-6-21T9:25:37Z</time></trkpt>
<trkpt lat="46.07185" lon="6.95199"><ele></ele><time>2017-6-21T9:25:40Z</time></trkpt>
<trkpt lat="46.07183" lon="6.95196"><ele></ele><time>2017-6-21T9:25:43Z</time></trkpt>
<trkpt lat="46.07181" lon="6.95194"><ele></ele><time>2017-6-21T9:25:46Z</time></trkpt>
<trkpt lat="46.07178" lon="6.95191"><ele></ele><time>2017-6-21T9:25:49Z</time></trkpt>
<trkpt lat="46.07176" lon="6.95189"><ele></ele><time>2017-6-21T9:25:52Z</time></trkpt>
<trkpt lat="46.07174" lon="6.95186"><ele></ele><time>2017-6-21T9:25:55Z</time></trkpt>
<trkpt lat="46.07172" lon="6.95183"><ele></ele><time>2017-6-21T9:25:58Z</time></trkpt>
<trkpt lat="46.07171" lon="6.95182"><ele></ele><time>2017-6-21T9:26:1Z</time></trkpt>
<trkpt lat="46.0717" lon="6.95181"><ele></ele><time>2017-6-21T9:26:4Z</time></trkpt>
<trkpt lat="46.07168" lon="6.95178"><ele></ele><time>2017-6-21T9:26:7Z</time></trkpt>
<trkpt lat="46.07166" lon="6.95176"><ele></ele><time>2017-6-21T9:26:10Z</time></trkpt>
<trkpt lat="46.07164" lon="6.95173"><ele></ele><time>2017-6-21T9:26:13Z</time></trkpt>
<trkpt lat="46.07161" lon="6.9517"><ele></ele><time>2017-6-21T9:26:16Z</time></trkpt>
<trkpt lat="46.0716" lon="6.95169"><ele></ele><time>2017-6-21T9:26:19Z</time></trkpt>
<trkpt lat="46.07159" lon="6.95168"><ele></ele><time>2017-6-21T9:26:22Z</time></trkpt>
<trkpt lat="46.07157" lon="6.95165"><ele></ele><time>2017-6-21T9:26:25Z</time></trkpt>
<trkpt lat="46.07155" lon="6.95162"><ele></ele><time>2017-6-21T9:26:28Z</time></trkpt>
<trkpt lat="46.07153" lon="6.95159"><ele></ele><time>2017-6-21T9:26:31Z</time></trkpt>
<trkpt lat="46.07151" lon="6.95156"><ele></ele><time>2017-6-21T9:26:34Z</time></trkpt>
<trkpt lat="46.0715" lon="6.95153"><ele></ele><time>2017-6-21T9:26:37Z</time></trkpt>
<trkpt lat="46.07148" lon="6.9515"><ele></ele><time>2017-6-21T9:26:40Z</time></trkpt>
<trkpt lat="46.07146" lon="6.95147"><ele></ele><time>2017-6-21T9:26:43Z</time></trkpt>
<trkpt lat="46.07144" lon="6.95144"><ele></ele><time>2017-6-21T9:26:46Z</time></trkpt>
<trkpt lat="46.07142" lon="6.95141"><ele></ele><time>2017-6-21T9:26:49Z</time></trkpt>
<trkpt lat="46.0714" lon="6.95138"><ele></ele><time>2017-6-21T9:26:52Z</time></trkpt>
<trkpt lat="46.07138" lon="6.95135"><ele></ele><time>2017-6-21T9:26:55Z</time></trkpt>
<trkpt lat="46.07136" lon="6.95132"><ele></ele><time>2017-6-21T9:26:58Z</time></trkpt>
<trkpt lat="46.07134" lon="6.95129"><ele></ele><time>2017-6-21T9:27:1Z</time></trkpt>
<trkpt lat="46.07132" lon="6.95126"><ele></ele><time>2017-6-21T9:27:4Z</time></trkpt>
<trkpt lat="46.0713" lon="6.95123"><ele></ele><time>2017-6-21T9:27:7Z</time></trkpt>
<trkpt lat="46.07129" lon="6.95122"><ele></ele><time>2017-6-21T9:27:10Z</time></trkpt>
<trkpt lat="46.07128" lon="6.9512"><ele></ele><time>2017-6-21T9:27:13Z</time></trkpt>
<trkpt lat="46.07126" lon="6.95117"><ele></ele><time>2017-6-21T9:27:16Z</time></trkpt>
<trkpt lat="46.07125" lon="6.95115"><ele></ele><time>2017-6-21T9:27:19Z</time></trkpt>
<trkpt lat="46.07124" lon="6.95114"><ele></ele><time>2017-6-21T9:27:22Z</time></trkpt>
<trkpt lat="46.07122" lon="6.9511"><ele></ele><time>2017-6-21T9:27:25Z</time></trkpt>
<trkpt lat="46.0712" lon="6.95107"><ele></ele><time>2017-6-21T9:27:28Z</time></trkpt>
<trkpt lat="46.07118" lon="6.95104"><ele></ele><time>2017-6-21T9:27:31Z</time></trkpt>
<trkpt lat="46.07116" lon="6.951"><ele></ele><time>2017-6-21T9:27:34Z</time></trkpt>
<trkpt lat="46.07114" lon="6.95097"><ele></ele><time>2017-6-21T9:27:37Z</time></trkpt>
<trkpt lat="46.07112" lon="6.95094"><ele></ele><time>2017-6-21T9:27:40Z</time></trkpt>
<trkpt lat="46.07111" lon="6.9509"><ele></ele><time>2017-6-21T9:27:43Z</time></trkpt>
<trkpt lat="46.07109" lon="6.95087"><ele></ele><time>2017-6-21T9:27:46Z</time></trkpt>
<trkpt lat="46.07107" lon="6.95084"><ele></ele><time>2017-6-21T9:27:49Z</time></trkpt>
<trkpt lat="46.07105" lon="6.9508"><ele></ele><time>2017-6-21T9:27:52Z</time></trkpt>
<trkpt lat="46.07103" lon="6.95077"><ele></ele><time>2017-6-21T9:27:55Z</time></trkpt>
<trkpt lat="46.07101" lon="6.95074"><ele></ele><time>2017-6-21T9:27:58Z</time></trkpt>
<trkpt lat="46.071" lon="6.95073"><ele></ele><time>2017-6-21T9:28:1Z</time></trkpt>
<trkpt lat="46.071" lon="6.95073"><ele></ele><time>2017-6-21T9:28:4Z</time></trkpt>
<trkpt lat="46.071" lon="6.95073"><ele></ele><time>2017-6-21T9:28:7Z</time></trkpt>
<trkpt lat="46.071" lon="6.95072"><ele></ele><time>2017-6-21T9:28:10Z</time></trkpt>
<trkpt lat="46.071" lon="6.95072"><ele></ele><time>2017-6-21T9:28:13Z</time></trkpt>
<trkpt lat="46.071" lon="6.95072"><ele></ele><time>2017-6-21T9:28:16Z</time></trkpt>
<trkpt lat="46.07101" lon="6.95068"><ele></ele><time>2017-6-21T9:28:19Z</time></trkpt>
<trkpt lat="46.07101" lon="6.95068"><ele></ele><time>2017-6-21T9:28:22Z</time></trkpt>
<trkpt lat="46.07102" lon="6.95064"><ele></ele><time>2017-6-21T9:28:25Z</time></trkpt>
<trkpt lat="46.07102" lon="6.95064"><ele></ele><time>2017-6-21T9:28:28Z</time></trkpt>
<trkpt lat="46.07102" lon="6.95064"><ele></ele><time>2017-6-21T9:28:31Z</time></trkpt>
<trkpt lat="46.07103" lon="6.95065"><ele></ele><time>2017-6-21T9:28:34Z</time></trkpt>
<trkpt lat="46.07104" lon="6.95066"><ele></ele><time>2017-6-21T9:28:37Z</time></trkpt>
<trkpt lat="46.07106" lon="6.95069"><ele></ele><time>2017-6-21T9:28:40Z</time></trkpt>
<trkpt lat="46.07108" lon="6.95072"><ele></ele><time>2017-6-21T9:28:43Z</time></trkpt>
<trkpt lat="46.0711" lon="6.95074"><ele></ele><time>2017-6-21T9:28:46Z</time></trkpt>
<trkpt lat="46.07113" lon="6.95077"><ele></ele><time>2017-6-21T9:28:49Z</time></trkpt>
<trkpt lat="46.07115" lon="6.9508"><ele></ele><time>2017-6-21T9:28:52Z</time></trkpt>
<trkpt lat="46.07117" lon="6.95083"><ele></ele><time>2017-6-21T9:28:55Z</time></trkpt>
<trkpt lat="46.0712" lon="6.95086"><ele></ele><time>2017-6-21T9:28:58Z</time></trkpt>
<trkpt lat="46.07122" lon="6.95089"><ele></ele><time>2017-6-21T9:29:1Z</time></trkpt>
<trkpt lat="46.07124" lon="6.95091"><ele></ele><time>2017-6-21T9:29:4Z</time></trkpt>
<trkpt lat="46.07126" lon="6.95094"><ele></ele><time>2017-6-21T9:29:7Z</time></trkpt>
<trkpt lat="46.07129" lon="6.95097"><ele></ele><time>2017-6-21T9:29:10Z</time></trkpt>
<trkpt lat="46.07131" lon="6.951"><ele></ele><time>2017-6-21T9:29:13Z</time></trkpt>
<trkpt lat="46.07133" lon="6.95103"><ele></ele><time>2017-6-21T9:29:16Z</time></trkpt>
<trkpt lat="46.07135" lon="6.95106"><ele></ele><time>2017-6-21T9:29:19Z</time></trkpt>
<trkpt lat="46.07137" lon="6.95107"><ele></ele><time>2017-6-21T9:29:22Z</time></trkpt>
<trkpt lat="46.07138" lon="6.95108"><ele></ele><time>2017-6-21T9:29:25Z</time></trkpt>
<trkpt lat="46.07141" lon="6.9511"><ele></ele><time>2017-6-21T9:29:28Z</time></trkpt>
<trkpt lat="46.07143" lon="6.95111"><ele></ele><time>2017-6-21T9:29:31Z</time></trkpt>
<trkpt lat="46.07146" lon="6.95113"><ele></ele><time>2017-6-21T9:29:34Z</time></trkpt>
<trkpt lat="46.07149" lon="6.95115"><ele></ele><time>2017-6-21T9:29:37Z</time></trkpt>
<trkpt lat="46.07151" lon="6.95117"><ele></ele><time>2017-6-21T9:29:40Z</time></trkpt>
<trkpt lat="46.07154" lon="6.95119"><ele></ele><time>2017-6-21T9:29:43Z</time></trkpt>
<trkpt lat="46.07157" lon="6.95121"><ele></ele><time>2017-6-21T9:29:46Z</time></trkpt>
<trkpt lat="46.07158" lon="6.95122"><ele></ele><time>2017-6-21T9:29:49Z</time></trkpt>
<trkpt lat="46.0716" lon="6.95123"><ele></ele><time>2017-6-21T9:29:52Z</time></trkpt>
<trkpt lat="46.07162" lon="6.95124"><ele></ele><time>2017-6-21T9:29:55Z</time></trkpt>
<trkpt lat="46.07165" lon="6.95126"><ele></ele><time>2017-6-21T9:29:58Z</time></trkpt>
<trkpt lat="46.07168" lon="6.95128"><ele></ele><time>2017-6-21T9:30:1Z</time></trkpt>
<trkpt lat="46.0717" lon="6.9513"><ele></ele><time>2017-6-21T9:30:4Z</time></trkpt>
<trkpt lat="46.07173" lon="6.95132"><ele></ele><time>2017-6-21T9:30:7Z</time></trkpt>
<trkpt lat="46.07174" lon="6.95133"><ele></ele><time>2017-6-21T9:30:10Z</time></trkpt>
<trkpt lat="46.07176" lon="6.95134"><ele></ele><time>2017-6-21T9:30:13Z</time></trkpt>
<trkpt lat="46.07178" lon="6.95136"><ele></ele><time>2017-6-21T9:30:16Z</time></trkpt>
<trkpt lat="46.07181" lon="6.95138"><ele></ele><time>2017-6-21T9:30:19Z</time></trkpt>
<trkpt lat="46.07184" lon="6.9514"><ele></ele><time>2017-6-21T9:30:22Z</time></trkpt>
<trkpt lat="46.07187" lon="6.95142"><ele></ele><time>2017-6-21T9:30:25Z</time></trkpt>
<trkpt lat="46.0719" lon="6.95144"><ele></ele><time>2017-6-21T9:30:28Z</time></trkpt>
<trkpt lat="46.07193" lon="6.95146"><ele></ele><time>2017-6-21T9:30:31Z</time></trkpt>
<trkpt lat="46.07195" lon="6.95148"><ele></ele><time>2017-6-21T9:30:34Z</time></trkpt>
<trkpt lat="46.07198" lon="6.9515"><ele></ele><time>2017-6-21T9:30:37Z</time></trkpt>
<trkpt lat="46.07201" lon="6.95152"><ele></ele><time>2017-6-21T9:30:40Z</time></trkpt>
<trkpt lat="46.07204" lon="6.95154"><ele></ele><time>2017-6-21T9:30:43Z</time></trkpt>
<trkpt lat="46.07207" lon="6.95156"><ele></ele><time>2017-6-21T9:30:46Z</time></trkpt>
<trkpt lat="46.0721" lon="6.95159"><ele></ele><time>2017-6-21T9:30:49Z</time></trkpt>
<trkpt lat="46.07212" lon="6.95161"><ele></ele><time>2017-6-21T9:30:52Z</time></trkpt>
<trkpt lat="46.07215" lon="6.95163"><ele></ele><time>2017-6-21T9:30:55Z</time></trkpt>
<trkpt lat="46.07218" lon="6.95165"><ele></ele><time>2017-6-21T9:30:58Z</time></trkpt>
<trkpt lat="46.0722" lon="6.95166"><ele></ele><time>2017-6-21T9:31:1Z</time></trkpt>
<trkpt lat="46.07221" lon="6.95166"><ele></ele><time>2017-6-21T9:31:4Z</time></trkpt>
<trkpt lat="46.07224" lon="6.95166"><ele></ele><time>2017-6-21T9:31:7Z</time></trkpt>
<trkpt lat="46.07227" lon="6.95167"><ele></ele><time>2017-6-21T9:31:10Z</time></trkpt>
<trkpt lat="46.0723" lon="6.95167"><ele></ele><time>2017-6-21T9:31:13Z</time></trkpt>
<trkpt lat="46.07233" lon="6.95168"><ele></ele><time>2017-6-21T9:31:16Z</time></trkpt>
<trkpt lat="46.07236" lon="6.95169"><ele></ele><time>2017-6-21T9:31:19Z</time></trkpt>
<trkpt lat="46.07239" lon="6.95169"><ele></ele><time>2017-6-21T9:31:22Z</time></trkpt>
<trkpt lat="46.07242" lon="6.9517"><ele></ele><time>2017-6-21T9:31:25Z</time></trkpt>
<trkpt lat="46.07245" lon="6.9517"><ele></ele><time>2017-6-21T9:31:28Z</time></trkpt>
<trkpt lat="46.07248" lon="6.95171"><ele></ele><time>2017-6-21T9:31:31Z</time></trkpt>
<trkpt lat="46.0725" lon="6.95171"><ele></ele><time>2017-6-21T9:31:34Z</time></trkpt>
<trkpt lat="46.07253" lon="6.95172"><ele></ele><time>2017-6-21T9:31:37Z</time></trkpt>
<trkpt lat="46.07256" lon="6.95172"><ele></ele><time>2017-6-21T9:31:40Z</time></trkpt>
<trkpt lat="46.07259" lon="6.95173"><ele></ele><time>2017-6-21T9:31:43Z</time></trkpt>
<trkpt lat="46.07262" lon="6.95174"><ele></ele><time>2017-6-21T9:31:46Z</time></trkpt>
<trkpt lat="46.07265" lon="6.95174"><ele></ele><time>2017-6-21T9:31:49Z</time></trkpt>
<trkpt lat="46.07268" lon="6.95174"><ele></ele><time>2017-6-21T9:31:52Z</time></trkpt>
<trkpt lat="46.0727" lon="6.95174"><ele></ele><time>2017-6-21T9:31:55Z</time></trkpt>
<trkpt lat="46.07273" lon="6.95175"><ele></ele><time>2017-6-21T9:31:58Z</time></trkpt>
<trkpt lat="46.07275" lon="6.95175"><ele></ele><time>2017-6-21T9:32:1Z</time></trkpt>
<trkpt lat="46.07278" lon="6.95175"><ele></ele><time>2017-6-21T9:32:4Z</time></trkpt>
<trkpt lat="46.07281" lon="6.95175"><ele></ele><time>2017-6-21T9:32:7Z</time></trkpt>
<trkpt lat="46.07283" lon="6.95176"><ele></ele><time>2017-6-21T9:32:10Z</time></trkpt>
<trkpt lat="46.07286" lon="6.95176"><ele></ele><time>2017-6-21T9:32:13Z</time></trkpt>
<trkpt lat="46.07288" lon="6.95176"><ele></ele><time>2017-6-21T9:32:16Z</time></trkpt>
<trkpt lat="46.07291" lon="6.95176"><ele></ele><time>2017-6-21T9:32:19Z</time></trkpt>
<trkpt lat="46.07294" lon="6.95176"><ele></ele><time>2017-6-21T9:32:22Z</time></trkpt>
<trkpt lat="46.07296" lon="6.95177"><ele></ele><time>2017-6-21T9:32:25Z</time></trkpt>
<trkpt lat="46.07299" lon="6.95177"><ele></ele><time>2017-6-21T9:32:28Z</time></trkpt>
<trkpt lat="46.07301" lon="6.95177"><ele></ele><time>2017-6-21T9:32:31Z</time></trkpt>
<trkpt lat="46.07304" lon="6.95177"><ele></ele><time>2017-6-21T9:32:34Z</time></trkpt>
<trkpt lat="46.07305" lon="6.95177"><ele></ele><time>2017-6-21T9:32:37Z</time></trkpt>
<trkpt lat="46.07307" lon="6.95178"><ele></ele><time>2017-6-21T9:32:40Z</time></trkpt>
<trkpt lat="46.07309" lon="6.95178"><ele></ele><time>2017-6-21T9:32:43Z</time></trkpt>
<trkpt lat="46.07311" lon="6.95178"><ele></ele><time>2017-6-21T9:32:46Z</time></trkpt>
<trkpt lat="46.07312" lon="6.95178"><ele></ele><time>2017-6-21T9:32:49Z</time></trkpt>
<trkpt lat="46.07315" lon="6.95177"><ele></ele><time>2017-6-21T9:32:52Z</time></trkpt>
<trkpt lat="46.07317" lon="6.95177"><ele></ele><time>2017-6-21T9:32:55Z</time></trkpt>
<trkpt lat="46.0732" lon="6.95176"><ele></ele><time>2017-6-21T9:32:58Z</time></trkpt>
<trkpt lat="46.07323" lon="6.95176"><ele></ele><time>2017-6-21T9:33:1Z</time></trkpt>
<trkpt lat="46.07326" lon="6.95175"><ele></ele><time>2017-6-21T9:33:4Z</time></trkpt>
<trkpt lat="46.07328" lon="6.95175"><ele></ele><time>2017-6-21T9:33:7Z</time></trkpt>
<trkpt lat="46.07331" lon="6.95174"><ele></ele><time>2017-6-21T9:33:10Z</time></trkpt>
<trkpt lat="46.07334" lon="6.95174"><ele></ele><time>2017-6-21T9:33:13Z</time></trkpt>
<trkpt lat="46.07335" lon="6.95174"><ele></ele><time>2017-6-21T9:33:16Z</time></trkpt>
<trkpt lat="46.07336" lon="6.95173"><ele></ele><time>2017-6-21T9:33:19Z</time></trkpt>
<trkpt lat="46.07339" lon="6.95173"><ele></ele><time>2017-6-21T9:33:22Z</time></trkpt>
<trkpt lat="46.07342" lon="6.95172"><ele></ele><time>2017-6-21T9:33:25Z</time></trkpt>
<trkpt lat="46.07343" lon="6.95172"><ele></ele><time>2017-6-21T9:33:28Z</time></trkpt>
<trkpt lat="46.07345" lon="6.95172"><ele></ele><time>2017-6-21T9:33:31Z</time></trkpt>
<trkpt lat="46.07347" lon="6.95172"><ele></ele><time>2017-6-21T9:33:34Z</time></trkpt>
<trkpt lat="46.0735" lon="6.95171"><ele></ele><time>2017-6-21T9:33:37Z</time></trkpt>
<trkpt lat="46.07353" lon="6.95171"><ele></ele><time>2017-6-21T9:33:40Z</time></trkpt>
<trkpt lat="46.07355" lon="6.9517"><ele></ele><time>2017-6-21T9:33:43Z</time></trkpt>
<trkpt lat="46.07357" lon="6.95173"><ele></ele><time>2017-6-21T9:33:46Z</time></trkpt>
<trkpt lat="46.07359" lon="6.95175"><ele></ele><time>2017-6-21T9:33:49Z</time></trkpt>
<trkpt lat="46.07361" lon="6.95178"><ele></ele><time>2017-6-21T9:33:52Z</time></trkpt>
<trkpt lat="46.07363" lon="6.9518"><ele></ele><time>2017-6-21T9:33:55Z</time></trkpt>
<trkpt lat="46.07365" lon="6.95182"><ele></ele><time>2017-6-21T9:33:58Z</time></trkpt>
<trkpt lat="46.07367" lon="6.95185"><ele></ele><time>2017-6-21T9:34:1Z</time></trkpt>
<trkpt lat="46.07368" lon="6.95186"><ele></ele><time>2017-6-21T9:34:4Z</time></trkpt>
<trkpt lat="46.07369" lon="6.95187"><ele></ele><time>2017-6-21T9:34:7Z</time></trkpt>
<trkpt lat="46.07371" lon="6.95189"><ele></ele><time>2017-6-21T9:34:10Z</time></trkpt>
<trkpt lat="46.07373" lon="6.95192"><ele></ele><time>2017-6-21T9:34:13Z</time></trkpt>
<trkpt lat="46.07375" lon="6.95194"><ele></ele><time>2017-6-21T9:34:16Z</time></trkpt>
<trkpt lat="46.07376" lon="6.95197"><ele></ele><time>2017-6-21T9:34:19Z</time></trkpt>
<trkpt lat="46.07378" lon="6.95199"><ele></ele><time>2017-6-21T9:34:22Z</time></trkpt>
<trkpt lat="46.0738" lon="6.95201"><ele></ele><time>2017-6-21T9:34:25Z</time></trkpt>
<trkpt lat="46.07382" lon="6.95204"><ele></ele><time>2017-6-21T9:34:28Z</time></trkpt>
<trkpt lat="46.07384" lon="6.95206"><ele></ele><time>2017-6-21T9:34:31Z</time></trkpt>
<trkpt lat="46.07386" lon="6.95209"><ele></ele><time>2017-6-21T9:34:34Z</time></trkpt>
<trkpt lat="46.07388" lon="6.95211"><ele></ele><time>2017-6-21T9:34:37Z</time></trkpt>
<trkpt lat="46.07389" lon="6.95212"><ele></ele><time>2017-6-21T9:34:40Z</time></trkpt>
<trkpt lat="46.0739" lon="6.95213"><ele></ele><time>2017-6-21T9:34:43Z</time></trkpt>
<trkpt lat="46.07392" lon="6.95216"><ele></ele><time>2017-6-21T9:34:46Z</time></trkpt>
<trkpt lat="46.07394" lon="6.95218"><ele></ele><time>2017-6-21T9:34:49Z</time></trkpt>
<trkpt lat="46.07396" lon="6.95221"><ele></ele><time>2017-6-21T9:34:52Z</time></trkpt>
<trkpt lat="46.07398" lon="6.95224"><ele></ele><time>2017-6-21T9:34:55Z</time></trkpt>
<trkpt lat="46.074" lon="6.95226"><ele></ele><time>2017-6-21T9:34:58Z</time></trkpt>
<trkpt lat="46.07402" lon="6.95229"><ele></ele><time>2017-6-21T9:35:1Z</time></trkpt>
<trkpt lat="46.07404" lon="6.95231"><ele></ele><time>2017-6-21T9:35:4Z</time></trkpt>
<trkpt lat="46.07406" lon="6.95234"><ele></ele><time>2017-6-21T9:35:7Z</time></trkpt>
<trkpt lat="46.07408" lon="6.95237"><ele></ele><time>2017-6-21T9:35:10Z</time></trkpt>
<trkpt lat="46.0741" lon="6.95239"><ele></ele><time>2017-6-21T9:35:13Z</time></trkpt>
<trkpt lat="46.07412" lon="6.95242"><ele></ele><time>2017-6-21T9:35:16Z</time></trkpt>
<trkpt lat="46.07414" lon="6.95244"><ele></ele><time>2017-6-21T9:35:19Z</time></trkpt>
<trkpt lat="46.07416" lon="6.95247"><ele></ele><time>2017-6-21T9:35:22Z</time></trkpt>
<trkpt lat="46.07418" lon="6.95249"><ele></ele><time>2017-6-21T9:35:25Z</time></trkpt>
<trkpt lat="46.0742" lon="6.95252"><ele></ele><time>2017-6-21T9:35:28Z</time></trkpt>
<trkpt lat="46.07422" lon="6.95255"><ele></ele><time>2017-6-21T9:35:31Z</time></trkpt>
<trkpt lat="46.07424" lon="6.95257"><ele></ele><time>2017-6-21T9:35:34Z</time></trkpt>
<trkpt lat="46.07427" lon="6.95257"><ele></ele><time>2017-6-21T9:35:37Z</time></trkpt>
<trkpt lat="46.0743" lon="6.95258"><ele></ele><time>2017-6-21T9:35:40Z</time></trkpt>
<trkpt lat="46.07433" lon="6.95258"><ele></ele><time>2017-6-21T9:35:43Z</time></trkpt>
<trkpt lat="46.07434" lon="6.95258"><ele></ele><time>2017-6-21T9:35:46Z</time></trkpt>
<trkpt lat="46.07436" lon="6.95258"><ele></ele><time>2017-6-21T9:35:49Z</time></trkpt>
<trkpt lat="46.07439" lon="6.95259"><ele></ele><time>2017-6-21T9:35:52Z</time></trkpt>
<trkpt lat="46.07442" lon="6.95259"><ele></ele><time>2017-6-21T9:35:55Z</time></trkpt>
<trkpt lat="46.07445" lon="6.9526"><ele></ele><time>2017-6-21T9:35:58Z</time></trkpt>
<trkpt lat="46.07447" lon="6.9526"><ele></ele><time>2017-6-21T9:36:1Z</time></trkpt>
<trkpt lat="46.0745" lon="6.95261"><ele></ele><time>2017-6-21T9:36:4Z</time></trkpt>
<trkpt lat="46.07453" lon="6.95261"><ele></ele><time>2017-6-21T9:36:7Z</time></trkpt>
<trkpt lat="46.07456" lon="6.95261"><ele></ele><time>2017-6-21T9:36:10Z</time></trkpt>
<trkpt lat="46.07459" lon="6.95262"><ele></ele><time>2017-6-21T9:36:13Z</time></trkpt>
<trkpt lat="46.07462" lon="6.95262"><ele></ele><time>2017-6-21T9:36:16Z</time></trkpt>
<trkpt lat="46.07465" lon="6.95263"><ele></ele><time>2017-6-21T9:36:19Z</time></trkpt>
<trkpt lat="46.07466" lon="6.95263"><ele></ele><time>2017-6-21T9:36:22Z</time></trkpt>
<trkpt lat="46.07468" lon="6.95263"><ele></ele><time>2017-6-21T9:36:25Z</time></trkpt>
<trkpt lat="46.07469" lon="6.95263"><ele></ele><time>2017-6-21T9:36:28Z</time></trkpt>
<trkpt lat="46.07471" lon="6.95264"><ele></ele><time>2017-6-21T9:36:31Z</time></trkpt>
<trkpt lat="46.07473" lon="6.95264"><ele></ele><time>2017-6-21T9:36:34Z</time></trkpt>
<trkpt lat="46.07476" lon="6.95265"><ele></ele><time>2017-6-21T9:36:37Z</time></trkpt>
<trkpt lat="46.07479" lon="6.95266"><ele></ele><time>2017-6-21T9:36:40Z</time></trkpt>
<trkpt lat="46.07481" lon="6.95266"><ele></ele><time>2017-6-21T9:36:43Z</time></trkpt>
<trkpt lat="46.07484" lon="6.95267"><ele></ele><time>2017-6-21T9:36:46Z</time></trkpt>
<trkpt lat="46.07487" lon="6.95268"><ele></ele><time>2017-6-21T9:36:49Z</time></trkpt>
<trkpt lat="46.07489" lon="6.95268"><ele></ele><time>2017-6-21T9:36:52Z</time></trkpt>
<trkpt lat="46.07492" lon="6.95269"><ele></ele><time>2017-6-21T9:36:55Z</time></trkpt>
<trkpt lat="46.07495" lon="6.9527"><ele></ele><time>2017-6-21T9:36:58Z</time></trkpt>
<trkpt lat="46.07496" lon="6.9527"><ele></ele><time>2017-6-21T9:37:1Z</time></trkpt>
<trkpt lat="46.07497" lon="6.9527"><ele></ele><time>2017-6-21T9:37:4Z</time></trkpt>
<trkpt lat="46.075" lon="6.95271"><ele></ele><time>2017-6-21T9:37:7Z</time></trkpt>
<trkpt lat="46.07503" lon="6.95272"><ele></ele><time>2017-6-21T9:37:10Z</time></trkpt>
<trkpt lat="46.07505" lon="6.95272"><ele></ele><time>2017-6-21T9:37:13Z</time></trkpt>
<trkpt lat="46.07508" lon="6.95273"><ele></ele><time>2017-6-21T9:37:16Z</time></trkpt>
<trkpt lat="46.0751" lon="6.95274"><ele></ele><time>2017-6-21T9:37:19Z</time></trkpt>
<trkpt lat="46.07513" lon="6.95274"><ele></ele><time>2017-6-21T9:37:22Z</time></trkpt>
<trkpt lat="46.07514" lon="6.95275"><ele></ele><time>2017-6-21T9:37:25Z</time></trkpt>
<trkpt lat="46.07516" lon="6.95275"><ele></ele><time>2017-6-21T9:37:28Z</time></trkpt>
<trkpt lat="46.07518" lon="6.95276"><ele></ele><time>2017-6-21T9:37:31Z</time></trkpt>
<trkpt lat="46.0752" lon="6.95277"><ele></ele><time>2017-6-21T9:37:34Z</time></trkpt>
<trkpt lat="46.07522" lon="6.95278"><ele></ele><time>2017-6-21T9:37:37Z</time></trkpt>
<trkpt lat="46.07524" lon="6.95278"><ele></ele><time>2017-6-21T9:37:40Z</time></trkpt>
<trkpt lat="46.07525" lon="6.95279"><ele></ele><time>2017-6-21T9:37:43Z</time></trkpt>
<trkpt lat="46.07527" lon="6.9528"><ele></ele><time>2017-6-21T9:37:46Z</time></trkpt>
<trkpt lat="46.07529" lon="6.95281"><ele></ele><time>2017-6-21T9:37:49Z</time></trkpt>
<trkpt lat="46.07532" lon="6.95282"><ele></ele><time>2017-6-21T9:37:52Z</time></trkpt>
<trkpt lat="46.07534" lon="6.95283"><ele></ele><time>2017-6-21T9:37:55Z</time></trkpt>
<trkpt lat="46.07536" lon="6.95284"><ele></ele><time>2017-6-21T9:37:58Z</time></trkpt>
<trkpt lat="46.07539" lon="6.95284"><ele></ele><time>2017-6-21T9:38:1Z</time></trkpt>
<trkpt lat="46.07541" lon="6.95285"><ele></ele><time>2017-6-21T9:38:4Z</time></trkpt>
<trkpt lat="46.07543" lon="6.95286"><ele></ele><time>2017-6-21T9:38:7Z</time></trkpt>
<trkpt lat="46.07545" lon="6.95287"><ele></ele><time>2017-6-21T9:38:10Z</time></trkpt>
<trkpt lat="46.07548" lon="6.95288"><ele></ele><time>2017-6-21T9:38:13Z</time></trkpt>
<trkpt lat="46.0755" lon="6.95289"><ele></ele><time>2017-6-21T9:38:16Z</time></trkpt>
<trkpt lat="46.07552" lon="6.9529"><ele></ele><time>2017-6-21T9:38:19Z</time></trkpt>
<trkpt lat="46.07555" lon="6.95291"><ele></ele><time>2017-6-21T9:38:22Z</time></trkpt>
<trkpt lat="46.07557" lon="6.95292"><ele></ele><time>2017-6-21T9:38:25Z</time></trkpt>
<trkpt lat="46.07558" lon="6.95293"><ele></ele><time>2017-6-21T9:38:28Z</time></trkpt>
<trkpt lat="46.07559" lon="6.95293"><ele></ele><time>2017-6-21T9:38:31Z</time></trkpt>
<trkpt lat="46.07562" lon="6.95295"><ele></ele><time>2017-6-21T9:38:34Z</time></trkpt>
<trkpt lat="46.07564" lon="6.95296"><ele></ele><time>2017-6-21T9:38:37Z</time></trkpt>
<trkpt lat="46.07567" lon="6.95298"><ele></ele><time>2017-6-21T9:38:40Z</time></trkpt>
<trkpt lat="46.07569" lon="6.95299"><ele></ele><time>2017-6-21T9:38:43Z</time></trkpt>
<trkpt lat="46.07572" lon="6.95301"><ele></ele><time>2017-6-21T9:38:46Z</time></trkpt>
<trkpt lat="46.07574" lon="6.95302"><ele></ele><time>2017-6-21T9:38:49Z</time></trkpt>
<trkpt lat="46.07576" lon="6.95303"><ele></ele><time>2017-6-21T9:38:52Z</time></trkpt>
<trkpt lat="46.07577" lon="6.95304"><ele></ele><time>2017-6-21T9:38:55Z</time></trkpt>
<trkpt lat="46.07579" lon="6.95305"><ele></ele><time>2017-6-21T9:38:58Z</time></trkpt>
<trkpt lat="46.07582" lon="6.95307"><ele></ele><time>2017-6-21T9:39:1Z</time></trkpt>
<trkpt lat="46.07585" lon="6.95308"><ele></ele><time>2017-6-21T9:39:4Z</time></trkpt>
<trkpt lat="46.07587" lon="6.95309"><ele></ele><time>2017-6-21T9:39:7Z</time></trkpt>
<trkpt lat="46.0759" lon="6.95311"><ele></ele><time>2017-6-21T9:39:10Z</time></trkpt>
<trkpt lat="46.07592" lon="6.95312"><ele></ele><time>2017-6-21T9:39:13Z</time></trkpt>
<trkpt lat="46.07595" lon="6.95314"><ele></ele><time>2017-6-21T9:39:16Z</time></trkpt>
<trkpt lat="46.07596" lon="6.95315"><ele></ele><time>2017-6-21T9:39:19Z</time></trkpt>
<trkpt lat="46.0762" lon="6.95329"><ele></ele><time>2017-6-21T9:39:22Z</time></trkpt>
<trkpt lat="46.0762" lon="6.95329"><ele></ele><time>2017-6-21T9:39:25Z</time></trkpt>
<trkpt lat="46.07643" lon="6.95342"><ele></ele><time>2017-6-21T9:39:28Z</time></trkpt>
<trkpt lat="46.07644" lon="6.95342"><ele></ele><time>2017-6-21T9:39:31Z</time></trkpt>
<trkpt lat="46.07644" lon="6.95342"><ele></ele><time>2017-6-21T9:39:34Z</time></trkpt>
<trkpt lat="46.07645" lon="6.95343"><ele></ele><time>2017-6-21T9:39:37Z</time></trkpt>
<trkpt lat="46.07646" lon="6.95343"><ele></ele><time>2017-6-21T9:39:40Z</time></trkpt>
<trkpt lat="46.07646" lon="6.95343"><ele></ele><time>2017-6-21T9:39:43Z</time></trkpt>
<trkpt lat="46.07647" lon="6.95344"><ele></ele><time>2017-6-21T9:39:46Z</time></trkpt>
<trkpt lat="46.07648" lon="6.95344"><ele></ele><time>2017-6-21T9:39:49Z</time></trkpt>
<trkpt lat="46.07648" lon="6.95344"><ele></ele><time>2017-6-21T9:39:52Z</time></trkpt>
<trkpt lat="46.07649" lon="6.95345"><ele></ele><time>2017-6-21T9:39:55Z</time></trkpt>
<trkpt lat="46.0765" lon="6.95345"><ele></ele><time>2017-6-21T9:39:58Z</time></trkpt>
<trkpt lat="46.0765" lon="6.95345"><ele></ele><time>2017-6-21T9:40:1Z</time></trkpt>
<trkpt lat="46.07651" lon="6.95346"><ele></ele><time>2017-6-21T9:40:4Z</time></trkpt>
<trkpt lat="46.07653" lon="6.95349"><ele></ele><time>2017-6-21T9:40:7Z</time></trkpt>
<trkpt lat="46.07655" lon="6.95352"><ele></ele><time>2017-6-21T9:40:10Z</time></trkpt>
<trkpt lat="46.07658" lon="6.95356"><ele></ele><time>2017-6-21T9:40:13Z</time></trkpt>
<trkpt lat="46.0766" lon="6.95359"><ele></ele><time>2017-6-21T9:40:16Z</time></trkpt>
<trkpt lat="46.07662" lon="6.95362"><ele></ele><time>2017-6-21T9:40:19Z</time></trkpt>
<trkpt lat="46.07664" lon="6.95365"><ele></ele><time>2017-6-21T9:40:22Z</time></trkpt>
<trkpt lat="46.07666" lon="6.95368"><ele></ele><time>2017-6-21T9:40:25Z</time></trkpt>
<trkpt lat="46.07668" lon="6.95371"><ele></ele><time>2017-6-21T9:40:28Z</time></trkpt>
<trkpt lat="46.0767" lon="6.95374"><ele></ele><time>2017-6-21T9:40:31Z</time></trkpt>
<trkpt lat="46.07672" lon="6.95377"><ele></ele><time>2017-6-21T9:40:34Z</time></trkpt>
<trkpt lat="46.07674" lon="6.9538"><ele></ele><time>2017-6-21T9:40:37Z</time></trkpt>
<trkpt lat="46.07676" lon="6.95383"><ele></ele><time>2017-6-21T9:40:40Z</time></trkpt>
<trkpt lat="46.07678" lon="6.95386"><ele></ele><time>2017-6-21T9:40:43Z</time></trkpt>
<trkpt lat="46.0768" lon="6.95389"><ele></ele><time>2017-6-21T9:40:46Z</time></trkpt>
<trkpt lat="46.07682" lon="6.95393"><ele></ele><time>2017-6-21T9:40:49Z</time></trkpt>
<trkpt lat="46.07683" lon="6.95394"><ele></ele><time>2017-6-21T9:40:52Z</time></trkpt>
<trkpt lat="46.07684" lon="6.95396"><ele></ele><time>2017-6-21T9:40:55Z</time></trkpt>
<trkpt lat="46.07687" lon="6.95399"><ele></ele><time>2017-6-21T9:40:58Z</time></trkpt>
<trkpt lat="46.07689" lon="6.95402"><ele></ele><time>2017-6-21T9:41:1Z</time></trkpt>
<trkpt lat="46.07691" lon="6.95405"><ele></ele><time>2017-6-21T9:41:4Z</time></trkpt>
<trkpt lat="46.07693" lon="6.95408"><ele></ele><time>2017-6-21T9:41:7Z</time></trkpt>
<trkpt lat="46.07696" lon="6.95411"><ele></ele><time>2017-6-21T9:41:10Z</time></trkpt>
<trkpt lat="46.07698" lon="6.95414"><ele></ele><time>2017-6-21T9:41:13Z</time></trkpt>
<trkpt lat="46.07699" lon="6.95415"><ele></ele><time>2017-6-21T9:41:16Z</time></trkpt>
<trkpt lat="46.077" lon="6.95417"><ele></ele><time>2017-6-21T9:41:19Z</time></trkpt>
<trkpt lat="46.07702" lon="6.95419"><ele></ele><time>2017-6-21T9:41:22Z</time></trkpt>
<trkpt lat="46.07705" lon="6.95422"><ele></ele><time>2017-6-21T9:41:25Z</time></trkpt>
<trkpt lat="46.07707" lon="6.95425"><ele></ele><time>2017-6-21T9:41:28Z</time></trkpt>
<trkpt lat="46.07709" lon="6.95428"><ele></ele><time>2017-6-21T9:41:31Z</time></trkpt>
<trkpt lat="46.07711" lon="6.95431"><ele></ele><time>2017-6-21T9:41:34Z</time></trkpt>
<trkpt lat="46.07714" lon="6.95434"><ele></ele><time>2017-6-21T9:41:37Z</time></trkpt>
<trkpt lat="46.07716" lon="6.95437"><ele></ele><time>2017-6-21T9:41:40Z</time></trkpt>
<trkpt lat="46.07717" lon="6.95439"><ele></ele><time>2017-6-21T9:41:43Z</time></trkpt>
<trkpt lat="46.07718" lon="6.9544"><ele></ele><time>2017-6-21T9:41:46Z</time></trkpt>
<trkpt lat="46.07721" lon="6.95441"><ele></ele><time>2017-6-21T9:41:49Z</time></trkpt>
<trkpt lat="46.07724" lon="6.95443"><ele></ele><time>2017-6-21T9:41:52Z</time></trkpt>
<trkpt lat="46.07727" lon="6.95445"><ele></ele><time>2017-6-21T9:41:55Z</time></trkpt>
<trkpt lat="46.0773" lon="6.95446"><ele></ele><time>2017-6-21T9:41:58Z</time></trkpt>
<trkpt lat="46.07733" lon="6.95448"><ele></ele><time>2017-6-21T9:42:1Z</time></trkpt>
<trkpt lat="46.07735" lon="6.9545"><ele></ele><time>2017-6-21T9:42:4Z</time></trkpt>
<trkpt lat="46.07738" lon="6.95451"><ele></ele><time>2017-6-21T9:42:7Z</time></trkpt>
<trkpt lat="46.07741" lon="6.95453"><ele></ele><time>2017-6-21T9:42:10Z</time></trkpt>
<trkpt lat="46.07742" lon="6.95454"><ele></ele><time>2017-6-21T9:42:13Z</time></trkpt>
<trkpt lat="46.07744" lon="6.95455"><ele></ele><time>2017-6-21T9:42:16Z</time></trkpt>
<trkpt lat="46.07747" lon="6.95456"><ele></ele><time>2017-6-21T9:42:19Z</time></trkpt>
<trkpt lat="46.07749" lon="6.95458"><ele></ele><time>2017-6-21T9:42:22Z</time></trkpt>
<trkpt lat="46.07752" lon="6.9546"><ele></ele><time>2017-6-21T9:42:25Z</time></trkpt>
<trkpt lat="46.07755" lon="6.95461"><ele></ele><time>2017-6-21T9:42:28Z</time></trkpt>
<trkpt lat="46.07756" lon="6.95461"><ele></ele><time>2017-6-21T9:42:31Z</time></trkpt>
<trkpt lat="46.07756" lon="6.95459"><ele></ele><time>2017-6-21T9:42:34Z</time></trkpt>
<trkpt lat="46.07756" lon="6.95455"><ele></ele><time>2017-6-21T9:42:37Z</time></trkpt>
<trkpt lat="46.07756" lon="6.9545"><ele></ele><time>2017-6-21T9:42:40Z</time></trkpt>
<trkpt lat="46.07756" lon="6.95446"><ele></ele><time>2017-6-21T9:42:43Z</time></trkpt>
<trkpt lat="46.07756" lon="6.95441"><ele></ele><time>2017-6-21T9:42:46Z</time></trkpt>
<trkpt lat="46.07755" lon="6.95437"><ele></ele><time>2017-6-21T9:42:49Z</time></trkpt>
<trkpt lat="46.07752" lon="6.95434"><ele></ele><time>2017-6-21T9:42:52Z</time></trkpt>
<trkpt lat="46.07749" lon="6.95431"><ele></ele><time>2017-6-21T9:42:55Z</time></trkpt>
<trkpt lat="46.07746" lon="6.95428"><ele></ele><time>2017-6-21T9:42:58Z</time></trkpt>
<trkpt lat="46.07743" lon="6.95425"><ele></ele><time>2017-6-21T9:43:1Z</time></trkpt>
<trkpt lat="46.0774" lon="6.95422"><ele></ele><time>2017-6-21T9:43:4Z</time></trkpt>
<trkpt lat="46.07737" lon="6.95419"><ele></ele><time>2017-6-21T9:43:7Z</time></trkpt>
<trkpt lat="46.07734" lon="6.95416"><ele></ele><time>2017-6-21T9:43:10Z</time></trkpt>
<trkpt lat="46.07731" lon="6.95414"><ele></ele><time>2017-6-21T9:43:13Z</time></trkpt>
<trkpt lat="46.07728" lon="6.95411"><ele></ele><time>2017-6-21T9:43:16Z</time></trkpt>
<trkpt lat="46.07725" lon="6.95408"><ele></ele><time>2017-6-21T9:43:19Z</time></trkpt>
<trkpt lat="46.07722" lon="6.95405"><ele></ele><time>2017-6-21T9:43:22Z</time></trkpt>
<trkpt lat="46.07719" lon="6.95402"><ele></ele><time>2017-6-21T9:43:25Z</time></trkpt>
<trkpt lat="46.07718" lon="6.954"><ele></ele><time>2017-6-21T9:43:28Z</time></trkpt>
<trkpt lat="46.07717" lon="6.95398"><ele></ele><time>2017-6-21T9:43:31Z</time></trkpt>
<trkpt lat="46.07716" lon="6.95395"><ele></ele><time>2017-6-21T9:43:34Z</time></trkpt>
<trkpt lat="46.07714" lon="6.95391"><ele></ele><time>2017-6-21T9:43:37Z</time></trkpt>
<trkpt lat="46.07713" lon="6.95388"><ele></ele><time>2017-6-21T9:43:40Z</time></trkpt>
<trkpt lat="46.07711" lon="6.95384"><ele></ele><time>2017-6-21T9:43:43Z</time></trkpt>
<trkpt lat="46.0771" lon="6.95381"><ele></ele><time>2017-6-21T9:43:46Z</time></trkpt>
<trkpt lat="46.07708" lon="6.95377"><ele></ele><time>2017-6-21T9:43:49Z</time></trkpt>
<trkpt lat="46.07707" lon="6.95374"><ele></ele><time>2017-6-21T9:43:52Z</time></trkpt>
<trkpt lat="46.07705" lon="6.9537"><ele></ele><time>2017-6-21T9:43:55Z</time></trkpt>
<trkpt lat="46.07703" lon="6.95366"><ele></ele><time>2017-6-21T9:43:58Z</time></trkpt>
<trkpt lat="46.07702" lon="6.95363"><ele></ele><time>2017-6-21T9:44:1Z</time></trkpt>
<trkpt lat="46.077" lon="6.95359"><ele></ele><time>2017-6-21T9:44:4Z</time></trkpt>
<trkpt lat="46.07699" lon="6.95356"><ele></ele><time>2017-6-21T9:44:7Z</time></trkpt>
<trkpt lat="46.07697" lon="6.95352"><ele></ele><time>2017-6-21T9:44:10Z</time></trkpt>
<trkpt lat="46.07696" lon="6.95349"><ele></ele><time>2017-6-21T9:44:13Z</time></trkpt>
<trkpt lat="46.07694" lon="6.95345"><ele></ele><time>2017-6-21T9:44:16Z</time></trkpt>
<trkpt lat="46.07694" lon="6.95343"><ele></ele><time>2017-6-21T9:44:19Z</time></trkpt>
<trkpt lat="46.07693" lon="6.95341"><ele></ele><time>2017-6-21T9:44:22Z</time></trkpt>
<trkpt lat="46.07692" lon="6.95338"><ele></ele><time>2017-6-21T9:44:25Z</time></trkpt>
<trkpt lat="46.07691" lon="6.95336"><ele></ele><time>2017-6-21T9:44:28Z</time></trkpt>
<trkpt lat="46.07691" lon="6.95334"><ele></ele><time>2017-6-21T9:44:31Z</time></trkpt>
<trkpt lat="46.0769" lon="6.9533"><ele></ele><time>2017-6-21T9:44:34Z</time></trkpt>
<trkpt lat="46.07688" lon="6.95326"><ele></ele><time>2017-6-21T9:44:37Z</time></trkpt>
<trkpt lat="46.07687" lon="6.95322"><ele></ele><time>2017-6-21T9:44:40Z</time></trkpt>
<trkpt lat="46.07686" lon="6.95318"><ele></ele><time>2017-6-21T9:44:43Z</time></trkpt>
<trkpt lat="46.07685" lon="6.95314"><ele></ele><time>2017-6-21T9:44:46Z</time></trkpt>
<trkpt lat="46.07684" lon="6.95311"><ele></ele><time>2017-6-21T9:44:49Z</time></trkpt>
<trkpt lat="46.07682" lon="6.95307"><ele></ele><time>2017-6-21T9:44:52Z</time></trkpt>
<trkpt lat="46.07681" lon="6.95303"><ele></ele><time>2017-6-21T9:44:55Z</time></trkpt>
<trkpt lat="46.0768" lon="6.95299"><ele></ele><time>2017-6-21T9:44:58Z</time></trkpt>
<trkpt lat="46.07679" lon="6.95295"><ele></ele><time>2017-6-21T9:45:1Z</time></trkpt>
<trkpt lat="46.07678" lon="6.95293"><ele></ele><time>2017-6-21T9:45:4Z</time></trkpt>
<trkpt lat="46.07678" lon="6.95291"><ele></ele><time>2017-6-21T9:45:7Z</time></trkpt>
<trkpt lat="46.07677" lon="6.95287"><ele></ele><time>2017-6-21T9:45:10Z</time></trkpt>
<trkpt lat="46.07675" lon="6.95284"><ele></ele><time>2017-6-21T9:45:13Z</time></trkpt>
<trkpt lat="46.07673" lon="6.95281"><ele></ele><time>2017-6-21T9:45:16Z</time></trkpt>
<trkpt lat="46.07671" lon="6.95278"><ele></ele><time>2017-6-21T9:45:19Z</time></trkpt>
<trkpt lat="46.07669" lon="6.95275"><ele></ele><time>2017-6-21T9:45:22Z</time></trkpt>
<trkpt lat="46.07667" lon="6.95273"><ele></ele><time>2017-6-21T9:45:25Z</time></trkpt>
<trkpt lat="46.07664" lon="6.9527"><ele></ele><time>2017-6-21T9:45:28Z</time></trkpt>
<trkpt lat="46.07662" lon="6.95267"><ele></ele><time>2017-6-21T9:45:31Z</time></trkpt>
<trkpt lat="46.0766" lon="6.95265"><ele></ele><time>2017-6-21T9:45:34Z</time></trkpt>
<trkpt lat="46.07658" lon="6.95262"><ele></ele><time>2017-6-21T9:45:37Z</time></trkpt>
<trkpt lat="46.07656" lon="6.95259"><ele></ele><time>2017-6-21T9:45:40Z</time></trkpt>
<trkpt lat="46.07653" lon="6.95256"><ele></ele><time>2017-6-21T9:45:43Z</time></trkpt>
<trkpt lat="46.07651" lon="6.95254"><ele></ele><time>2017-6-21T9:45:46Z</time></trkpt>
<trkpt lat="46.07649" lon="6.95251"><ele></ele><time>2017-6-21T9:45:49Z</time></trkpt>
<trkpt lat="46.07647" lon="6.95248"><ele></ele><time>2017-6-21T9:45:52Z</time></trkpt>
<trkpt lat="46.07645" lon="6.95245"><ele></ele><time>2017-6-21T9:45:55Z</time></trkpt>
<trkpt lat="46.07642" lon="6.95243"><ele></ele><time>2017-6-21T9:45:58Z</time></trkpt>
<trkpt lat="46.0764" lon="6.9524"><ele></ele><time>2017-6-21T9:46:1Z</time></trkpt>
<trkpt lat="46.07638" lon="6.95238"><ele></ele><time>2017-6-21T9:46:4Z</time></trkpt>
<trkpt lat="46.07636" lon="6.95235"><ele></ele><time>2017-6-21T9:46:7Z</time></trkpt>
<trkpt lat="46.07634" lon="6.95233"><ele></ele><time>2017-6-21T9:46:10Z</time></trkpt>
<trkpt lat="46.07633" lon="6.95231"><ele></ele><time>2017-6-21T9:46:13Z</time></trkpt>
<trkpt lat="46.07632" lon="6.9523"><ele></ele><time>2017-6-21T9:46:16Z</time></trkpt>
<trkpt lat="46.0763" lon="6.95228"><ele></ele><time>2017-6-21T9:46:19Z</time></trkpt>
<trkpt lat="46.07628" lon="6.95225"><ele></ele><time>2017-6-21T9:46:22Z</time></trkpt>
<trkpt lat="46.07626" lon="6.95223"><ele></ele><time>2017-6-21T9:46:25Z</time></trkpt>
<trkpt lat="46.07624" lon="6.9522"><ele></ele><time>2017-6-21T9:46:28Z</time></trkpt>
<trkpt lat="46.07622" lon="6.95218"><ele></ele><time>2017-6-21T9:46:31Z</time></trkpt>
<trkpt lat="46.0762" lon="6.95215"><ele></ele><time>2017-6-21T9:46:34Z</time></trkpt>
<trkpt lat="46.07618" lon="6.95213"><ele></ele><time>2017-6-21T9:46:37Z</time></trkpt>
<trkpt lat="46.07616" lon="6.9521"><ele></ele><time>2017-6-21T9:46:40Z</time></trkpt>
<trkpt lat="46.07614" lon="6.95208"><ele></ele><time>2017-6-21T9:46:43Z</time></trkpt>
<trkpt lat="46.07612" lon="6.95205"><ele></ele><time>2017-6-21T9:46:46Z</time></trkpt>
<trkpt lat="46.07611" lon="6.95204"><ele></ele><time>2017-6-21T9:46:49Z</time></trkpt>
<trkpt lat="46.0761" lon="6.95203"><ele></ele><time>2017-6-21T9:46:52Z</time></trkpt>
<trkpt lat="46.07608" lon="6.952"><ele></ele><time>2017-6-21T9:46:55Z</time></trkpt>
<trkpt lat="46.07606" lon="6.95198"><ele></ele><time>2017-6-21T9:46:58Z</time></trkpt>
<trkpt lat="46.07603" lon="6.95196"><ele></ele><time>2017-6-21T9:47:1Z</time></trkpt>
<trkpt lat="46.07601" lon="6.95193"><ele></ele><time>2017-6-21T9:47:4Z</time></trkpt>
<trkpt lat="46.07599" lon="6.95191"><ele></ele><time>2017-6-21T9:47:7Z</time></trkpt>
<trkpt lat="46.07597" lon="6.95188"><ele></ele><time>2017-6-21T9:47:10Z</time></trkpt>
<trkpt lat="46.07595" lon="6.95186"><ele></ele><time>2017-6-21T9:47:13Z</time></trkpt>
<trkpt lat="46.07593" lon="6.95184"><ele></ele><time>2017-6-21T9:47:16Z</time></trkpt>
<trkpt lat="46.07591" lon="6.95181"><ele></ele><time>2017-6-21T9:47:19Z</time></trkpt>
<trkpt lat="46.07589" lon="6.95179"><ele></ele><time>2017-6-21T9:47:22Z</time></trkpt>
<trkpt lat="46.07588" lon="6.95178"><ele></ele><time>2017-6-21T9:47:25Z</time></trkpt>
<trkpt lat="46.07587" lon="6.95176"><ele></ele><time>2017-6-21T9:47:28Z</time></trkpt>
<trkpt lat="46.07585" lon="6.95174"><ele></ele><time>2017-6-21T9:47:31Z</time></trkpt>
<trkpt lat="46.07583" lon="6.95172"><ele></ele><time>2017-6-21T9:47:34Z</time></trkpt>
<trkpt lat="46.07581" lon="6.95169"><ele></ele><time>2017-6-21T9:47:37Z</time></trkpt>
<trkpt lat="46.07579" lon="6.95167"><ele></ele><time>2017-6-21T9:47:40Z</time></trkpt>
<trkpt lat="46.07577" lon="6.95164"><ele></ele><time>2017-6-21T9:47:43Z</time></trkpt>
<trkpt lat="46.07575" lon="6.95162"><ele></ele><time>2017-6-21T9:47:46Z</time></trkpt>
<trkpt lat="46.07573" lon="6.9516"><ele></ele><time>2017-6-21T9:47:49Z</time></trkpt>
<trkpt lat="46.07571" lon="6.95157"><ele></ele><time>2017-6-21T9:47:52Z</time></trkpt>
<trkpt lat="46.0757" lon="6.95156"><ele></ele><time>2017-6-21T9:47:55Z</time></trkpt>
<trkpt lat="46.07569" lon="6.95155"><ele></ele><time>2017-6-21T9:47:58Z</time></trkpt>
<trkpt lat="46.07566" lon="6.95154"><ele></ele><time>2017-6-21T9:48:1Z</time></trkpt>
<trkpt lat="46.07565" lon="6.95153"><ele></ele><time>2017-6-21T9:48:4Z</time></trkpt>
<trkpt lat="46.07564" lon="6.95152"><ele></ele><time>2017-6-21T9:48:7Z</time></trkpt>
<trkpt lat="46.07561" lon="6.9515"><ele></ele><time>2017-6-21T9:48:10Z</time></trkpt>
<trkpt lat="46.07559" lon="6.95149"><ele></ele><time>2017-6-21T9:48:13Z</time></trkpt>
<trkpt lat="46.07556" lon="6.95147"><ele></ele><time>2017-6-21T9:48:16Z</time></trkpt>
<trkpt lat="46.07554" lon="6.95146"><ele></ele><time>2017-6-21T9:48:19Z</time></trkpt>
<trkpt lat="46.07551" lon="6.95144"><ele></ele><time>2017-6-21T9:48:22Z</time></trkpt>
<trkpt lat="46.07549" lon="6.95142"><ele></ele><time>2017-6-21T9:48:25Z</time></trkpt>
<trkpt lat="46.07546" lon="6.95141"><ele></ele><time>2017-6-21T9:48:28Z</time></trkpt>
<trkpt lat="46.07544" lon="6.95139"><ele></ele><time>2017-6-21T9:48:31Z</time></trkpt>
<trkpt lat="46.07541" lon="6.95137"><ele></ele><time>2017-6-21T9:48:34Z</time></trkpt>
<trkpt lat="46.07539" lon="6.95136"><ele></ele><time>2017-6-21T9:48:37Z</time></trkpt>
<trkpt lat="46.07538" lon="6.95135"><ele></ele><time>2017-6-21T9:48:40Z</time></trkpt>
<trkpt lat="46.07536" lon="6.95134"><ele></ele><time>2017-6-21T9:48:43Z</time></trkpt>
<trkpt lat="46.07534" lon="6.95132"><ele></ele><time>2017-6-21T9:48:46Z</time></trkpt>
<trkpt lat="46.07531" lon="6.95131"><ele></ele><time>2017-6-21T9:48:49Z</time></trkpt>
<trkpt lat="46.07529" lon="6.95129"><ele></ele><time>2017-6-21T9:48:52Z</time></trkpt>
<trkpt lat="46.07527" lon="6.95126"><ele></ele><time>2017-6-21T9:48:55Z</time></trkpt>
<trkpt lat="46.07525" lon="6.95124"><ele></ele><time>2017-6-21T9:48:58Z</time></trkpt>
<trkpt lat="46.07523" lon="6.95121"><ele></ele><time>2017-6-21T9:49:1Z</time></trkpt>
<trkpt lat="46.07521" lon="6.95118"><ele></ele><time>2017-6-21T9:49:4Z</time></trkpt>
<trkpt lat="46.0752" lon="6.95117"><ele></ele><time>2017-6-21T9:49:7Z</time></trkpt>
<trkpt lat="46.07519" lon="6.95116"><ele></ele><time>2017-6-21T9:49:10Z</time></trkpt>
<trkpt lat="46.07517" lon="6.95113"><ele></ele><time>2017-6-21T9:49:13Z</time></trkpt>
<trkpt lat="46.07515" lon="6.9511"><ele></ele><time>2017-6-21T9:49:16Z</time></trkpt>
<trkpt lat="46.07513" lon="6.95107"><ele></ele><time>2017-6-21T9:49:19Z</time></trkpt>
<trkpt lat="46.07511" lon="6.95105"><ele></ele><time>2017-6-21T9:49:22Z</time></trkpt>
<trkpt lat="46.07509" lon="6.95102"><ele></ele><time>2017-6-21T9:49:25Z</time></trkpt>
<trkpt lat="46.07508" lon="6.95099"><ele></ele><time>2017-6-21T9:49:28Z</time></trkpt>
<trkpt lat="46.07506" lon="6.95097"><ele></ele><time>2017-6-21T9:49:31Z</time></trkpt>
<trkpt lat="46.07504" lon="6.95094"><ele></ele><time>2017-6-21T9:49:34Z</time></trkpt>
<trkpt lat="46.07502" lon="6.95091"><ele></ele><time>2017-6-21T9:49:37Z</time></trkpt>
<trkpt lat="46.075" lon="6.95089"><ele></ele><time>2017-6-21T9:49:40Z</time></trkpt>
<trkpt lat="46.07498" lon="6.95086"><ele></ele><time>2017-6-21T9:49:43Z</time></trkpt>
<trkpt lat="46.07496" lon="6.95083"><ele></ele><time>2017-6-21T9:49:46Z</time></trkpt>
<trkpt lat="46.07494" lon="6.9508"><ele></ele><time>2017-6-21T9:49:49Z</time></trkpt>
<trkpt lat="46.07492" lon="6.95078"><ele></ele><time>2017-6-21T9:49:52Z</time></trkpt>
<trkpt lat="46.07491" lon="6.95075"><ele></ele><time>2017-6-21T9:49:55Z</time></trkpt>
<trkpt lat="46.07489" lon="6.95072"><ele></ele><time>2017-6-21T9:49:58Z</time></trkpt>
<trkpt lat="46.07487" lon="6.95069"><ele></ele><time>2017-6-21T9:50:1Z</time></trkpt>
<trkpt lat="46.07486" lon="6.95066"><ele></ele><time>2017-6-21T9:50:4Z</time></trkpt>
<trkpt lat="46.07484" lon="6.95063"><ele></ele><time>2017-6-21T9:50:7Z</time></trkpt>
<trkpt lat="46.07482" lon="6.9506"><ele></ele><time>2017-6-21T9:50:10Z</time></trkpt>
<trkpt lat="46.0748" lon="6.95058"><ele></ele><time>2017-6-21T9:50:13Z</time></trkpt>
<trkpt lat="46.07479" lon="6.95055"><ele></ele><time>2017-6-21T9:50:16Z</time></trkpt>
<trkpt lat="46.07477" lon="6.95052"><ele></ele><time>2017-6-21T9:50:19Z</time></trkpt>
<trkpt lat="46.07475" lon="6.95049"><ele></ele><time>2017-6-21T9:50:22Z</time></trkpt>
<trkpt lat="46.07473" lon="6.95046"><ele></ele><time>2017-6-21T9:50:25Z</time></trkpt>
<trkpt lat="46.07472" lon="6.95043"><ele></ele><time>2017-6-21T9:50:28Z</time></trkpt>
<trkpt lat="46.0747" lon="6.95041"><ele></ele><time>2017-6-21T9:50:31Z</time></trkpt>
<trkpt lat="46.07468" lon="6.95038"><ele></ele><time>2017-6-21T9:50:34Z</time></trkpt>
<trkpt lat="46.07466" lon="6.95035"><ele></ele><time>2017-6-21T9:50:37Z</time></trkpt>
<trkpt lat="46.07466" lon="6.95033"><ele></ele><time>2017-6-21T9:50:40Z</time></trkpt>
<trkpt lat="46.07465" lon="6.95032"><ele></ele><time>2017-6-21T9:50:43Z</time></trkpt>
<trkpt lat="46.07464" lon="6.95028"><ele></ele><time>2017-6-21T9:50:46Z</time></trkpt>
<trkpt lat="46.07463" lon="6.95024"><ele></ele><time>2017-6-21T9:50:49Z</time></trkpt>
<trkpt lat="46.07462" lon="6.95021"><ele></ele><time>2017-6-21T9:50:52Z</time></trkpt>
<trkpt lat="46.07461" lon="6.95017"><ele></ele><time>2017-6-21T9:50:55Z</time></trkpt>
<trkpt lat="46.0746" lon="6.95014"><ele></ele><time>2017-6-21T9:50:58Z</time></trkpt>
<trkpt lat="46.07459" lon="6.9501"><ele></ele><time>2017-6-21T9:51:1Z</time></trkpt>
<trkpt lat="46.07458" lon="6.95007"><ele></ele><time>2017-6-21T9:51:4Z</time></trkpt>
<trkpt lat="46.07457" lon="6.95003"><ele></ele><time>2017-6-21T9:51:7Z</time></trkpt>
<trkpt lat="46.07456" lon="6.95001"><ele></ele><time>2017-6-21T9:51:10Z</time></trkpt>
<trkpt lat="46.07456" lon="6.94999"><ele></ele><time>2017-6-21T9:51:13Z</time></trkpt>
<trkpt lat="46.07455" lon="6.94996"><ele></ele><time>2017-6-21T9:51:16Z</time></trkpt>
<trkpt lat="46.07454" lon="6.94992"><ele></ele><time>2017-6-21T9:51:19Z</time></trkpt>
<trkpt lat="46.07453" lon="6.94989"><ele></ele><time>2017-6-21T9:51:22Z</time></trkpt>
<trkpt lat="46.07451" lon="6.94985"><ele></ele><time>2017-6-21T9:51:25Z</time></trkpt>
<trkpt lat="46.0745" lon="6.94982"><ele></ele><time>2017-6-21T9:51:28Z</time></trkpt>
<trkpt lat="46.07449" lon="6.94978"><ele></ele><time>2017-6-21T9:51:31Z</time></trkpt>
<trkpt lat="46.07448" lon="6.94974"><ele></ele><time>2017-6-21T9:51:34Z</time></trkpt>
<trkpt lat="46.07448" lon="6.94973"><ele></ele><time>2017-6-21T9:51:37Z</time></trkpt>
<trkpt lat="46.07447" lon="6.94971"><ele></ele><time>2017-6-21T9:51:40Z</time></trkpt>
<trkpt lat="46.07445" lon="6.94968"><ele></ele><time>2017-6-21T9:51:43Z</time></trkpt>
<trkpt lat="46.07443" lon="6.94965"><ele></ele><time>2017-6-21T9:51:46Z</time></trkpt>
<trkpt lat="46.07442" lon="6.94962"><ele></ele><time>2017-6-21T9:51:49Z</time></trkpt>
<trkpt lat="46.0744" lon="6.94959"><ele></ele><time>2017-6-21T9:51:52Z</time></trkpt>
<trkpt lat="46.07438" lon="6.94956"><ele></ele><time>2017-6-21T9:51:55Z</time></trkpt>
<trkpt lat="46.07436" lon="6.94953"><ele></ele><time>2017-6-21T9:51:58Z</time></trkpt>
<trkpt lat="46.07435" lon="6.9495"><ele></ele><time>2017-6-21T9:52:1Z</time></trkpt>
<trkpt lat="46.07433" lon="6.94947"><ele></ele><time>2017-6-21T9:52:4Z</time></trkpt>
<trkpt lat="46.07431" lon="6.94944"><ele></ele><time>2017-6-21T9:52:7Z</time></trkpt>
<trkpt lat="46.07429" lon="6.94941"><ele></ele><time>2017-6-21T9:52:10Z</time></trkpt>
<trkpt lat="46.07428" lon="6.94938"><ele></ele><time>2017-6-21T9:52:13Z</time></trkpt>
<trkpt lat="46.07426" lon="6.94935"><ele></ele><time>2017-6-21T9:52:16Z</time></trkpt>
<trkpt lat="46.07424" lon="6.94932"><ele></ele><time>2017-6-21T9:52:19Z</time></trkpt>
<trkpt lat="46.07422" lon="6.94929"><ele></ele><time>2017-6-21T9:52:22Z</time></trkpt>
<trkpt lat="46.07421" lon="6.94926"><ele></ele><time>2017-6-21T9:52:25Z</time></trkpt>
<trkpt lat="46.07419" lon="6.94923"><ele></ele><time>2017-6-21T9:52:28Z</time></trkpt>
<trkpt lat="46.07416" lon="6.94923"><ele></ele><time>2017-6-21T9:52:31Z</time></trkpt>
<trkpt lat="46.07414" lon="6.94922"><ele></ele><time>2017-6-21T9:52:34Z</time></trkpt>
<trkpt lat="46.07412" lon="6.94921"><ele></ele><time>2017-6-21T9:52:37Z</time></trkpt>
<trkpt lat="46.07411" lon="6.9492"><ele></ele><time>2017-6-21T9:52:40Z</time></trkpt>
<trkpt lat="46.0741" lon="6.9492"><ele></ele><time>2017-6-21T9:52:43Z</time></trkpt>
<trkpt lat="46.07408" lon="6.94919"><ele></ele><time>2017-6-21T9:52:46Z</time></trkpt>
<trkpt lat="46.07405" lon="6.94918"><ele></ele><time>2017-6-21T9:52:49Z</time></trkpt>
<trkpt lat="46.07403" lon="6.94918"><ele></ele><time>2017-6-21T9:52:52Z</time></trkpt>
<trkpt lat="46.07382" lon="6.94889"><ele></ele><time>2017-6-21T9:52:55Z</time></trkpt>
<trkpt lat="46.07382" lon="6.94889"><ele></ele><time>2017-6-21T9:52:58Z</time></trkpt>
<trkpt lat="46.07363" lon="6.94861"><ele></ele><time>2017-6-21T9:53:1Z</time></trkpt>
<trkpt lat="46.07362" lon="6.94861"><ele></ele><time>2017-6-21T9:53:4Z</time></trkpt>
<trkpt lat="46.07362" lon="6.9486"><ele></ele><time>2017-6-21T9:53:7Z</time></trkpt>
<trkpt lat="46.07362" lon="6.9486"><ele></ele><time>2017-6-21T9:53:10Z</time></trkpt>
<trkpt lat="46.07362" lon="6.9486"><ele></ele><time>2017-6-21T9:53:13Z</time></trkpt>
<trkpt lat="46.07362" lon="6.94859"><ele></ele><time>2017-6-21T9:53:16Z</time></trkpt>
<trkpt lat="46.07362" lon="6.94859"><ele></ele><time>2017-6-21T9:53:19Z</time></trkpt>
<trkpt lat="46.07361" lon="6.94859"><ele></ele><time>2017-6-21T9:53:22Z</time></trkpt>
<trkpt lat="46.07361" lon="6.94858"><ele></ele><time>2017-6-21T9:53:25Z</time></trkpt>
<trkpt lat="46.07361" lon="6.94858"><ele></ele><time>2017-6-21T9:53:28Z</time></trkpt>
<trkpt lat="46.07361" lon="6.94858"><ele></ele><time>2017-6-21T9:53:31Z</time></trkpt>
<trkpt lat="46.07361" lon="6.94858"><ele></ele><time>2017-6-21T9:53:34Z</time></trkpt>
<trkpt lat="46.07361" lon="6.94857"><ele></ele><time>2017-6-21T9:53:37Z</time></trkpt>
<trkpt lat="46.07361" lon="6.94857"><ele></ele><time>2017-6-21T9:53:40Z</time></trkpt>
<trkpt lat="46.0736" lon="6.94856"><ele></ele><time>2017-6-21T9:53:43Z</time></trkpt>
<trkpt lat="46.07359" lon="6.94855"><ele></ele><time>2017-6-21T9:53:46Z</time></trkpt>
<trkpt lat="46.07358" lon="6.94852"><ele></ele><time>2017-6-21T9:53:49Z</time></trkpt>
<trkpt lat="46.07356" lon="6.94849"><ele></ele><time>2017-6-21T9:53:52Z</time></trkpt>
<trkpt lat="46.07354" lon="6.94846"><ele></ele><time>2017-6-21T9:53:55Z</time></trkpt>
<trkpt lat="46.07353" lon="6.94842"><ele></ele><time>2017-6-21T9:53:58Z</time></trkpt>
<trkpt lat="46.07351" lon="6.94839"><ele></ele><time>2017-6-21T9:54:1Z</time></trkpt>
<trkpt lat="46.07349" lon="6.94836"><ele></ele><time>2017-6-21T9:54:4Z</time></trkpt>
<trkpt lat="46.07347" lon="6.94833"><ele></ele><time>2017-6-21T9:54:7Z</time></trkpt>
<trkpt lat="46.07346" lon="6.9483"><ele></ele><time>2017-6-21T9:54:10Z</time></trkpt>
<trkpt lat="46.07344" lon="6.94827"><ele></ele><time>2017-6-21T9:54:13Z</time></trkpt>
<trkpt lat="46.07342" lon="6.94824"><ele></ele><time>2017-6-21T9:54:16Z</time></trkpt>
<trkpt lat="46.07341" lon="6.9482"><ele></ele><time>2017-6-21T9:54:19Z</time></trkpt>
<trkpt lat="46.07339" lon="6.94817"><ele></ele><time>2017-6-21T9:54:22Z</time></trkpt>
<trkpt lat="46.07337" lon="6.94814"><ele></ele><time>2017-6-21T9:54:25Z</time></trkpt>
<trkpt lat="46.07336" lon="6.94813"><ele></ele><time>2017-6-21T9:54:28Z</time></trkpt>
<trkpt lat="46.07334" lon="6.94808"><ele></ele><time>2017-6-21T9:54:31Z</time></trkpt>
<trkpt lat="46.07332" lon="6.94805"><ele></ele><time>2017-6-21T9:54:34Z</time></trkpt>
<trkpt lat="46.07331" lon="6.94801"><ele></ele><time>2017-6-21T9:54:37Z</time></trkpt>
<trkpt lat="46.0733" lon="6.94798"><ele></ele><time>2017-6-21T9:54:40Z</time></trkpt>
<trkpt lat="46.07329" lon="6.94796"><ele></ele><time>2017-6-21T9:54:43Z</time></trkpt>
<trkpt lat="46.07329" lon="6.94794"><ele></ele><time>2017-6-21T9:54:46Z</time></trkpt>
<trkpt lat="46.07327" lon="6.94791"><ele></ele><time>2017-6-21T9:54:49Z</time></trkpt>
<trkpt lat="46.07326" lon="6.94787"><ele></ele><time>2017-6-21T9:54:52Z</time></trkpt>
<trkpt lat="46.07326" lon="6.94785"><ele></ele><time>2017-6-21T9:54:55Z</time></trkpt>
<trkpt lat="46.07324" lon="6.9478"><ele></ele><time>2017-6-21T9:54:58Z</time></trkpt>
<trkpt lat="46.07323" lon="6.94776"><ele></ele><time>2017-6-21T9:55:1Z</time></trkpt>
<trkpt lat="46.07322" lon="6.94773"><ele></ele><time>2017-6-21T9:55:4Z</time></trkpt>
<trkpt lat="46.07321" lon="6.94771"><ele></ele><time>2017-6-21T9:55:7Z</time></trkpt>
<trkpt lat="46.07319" lon="6.94766"><ele></ele><time>2017-6-21T9:55:10Z</time></trkpt>
<trkpt lat="46.07318" lon="6.94762"><ele></ele><time>2017-6-21T9:55:13Z</time></trkpt>
<trkpt lat="46.07317" lon="6.94759"><ele></ele><time>2017-6-21T9:55:16Z</time></trkpt>
<trkpt lat="46.07317" lon="6.94757"><ele></ele><time>2017-6-21T9:55:19Z</time></trkpt>
<trkpt lat="46.07316" lon="6.94755"><ele></ele><time>2017-6-21T9:55:22Z</time></trkpt>
<trkpt lat="46.07315" lon="6.94752"><ele></ele><time>2017-6-21T9:55:25Z</time></trkpt>
<trkpt lat="46.07314" lon="6.94748"><ele></ele><time>2017-6-21T9:55:28Z</time></trkpt>
<trkpt lat="46.07313" lon="6.94745"><ele></ele><time>2017-6-21T9:55:31Z</time></trkpt>
<trkpt lat="46.07311" lon="6.94741"><ele></ele><time>2017-6-21T9:55:34Z</time></trkpt>
<trkpt lat="46.0731" lon="6.94738"><ele></ele><time>2017-6-21T9:55:37Z</time></trkpt>
<trkpt lat="46.07309" lon="6.94734"><ele></ele><time>2017-6-21T9:55:40Z</time></trkpt>
<trkpt lat="46.07308" lon="6.94731"><ele></ele><time>2017-6-21T9:55:43Z</time></trkpt>
<trkpt lat="46.07307" lon="6.94729"><ele></ele><time>2017-6-21T9:55:46Z</time></trkpt>
<trkpt lat="46.07306" lon="6.94723"><ele></ele><time>2017-6-21T9:55:49Z</time></trkpt>
<trkpt lat="46.07304" lon="6.9472"><ele></ele><time>2017-6-21T9:55:52Z</time></trkpt>
<trkpt lat="46.07304" lon="6.94718"><ele></ele><time>2017-6-21T9:55:55Z</time></trkpt>
<trkpt lat="46.07303" lon="6.94716"><ele></ele><time>2017-6-21T9:55:58Z</time></trkpt>
<trkpt lat="46.07303" lon="6.94715"><ele></ele><time>2017-6-21T9:56:1Z</time></trkpt>
<trkpt lat="46.07301" lon="6.94709"><ele></ele><time>2017-6-21T9:56:4Z</time></trkpt>
<trkpt lat="46.073" lon="6.94706"><ele></ele><time>2017-6-21T9:56:7Z</time></trkpt>
<trkpt lat="46.07299" lon="6.94702"><ele></ele><time>2017-6-21T9:56:10Z</time></trkpt>
<trkpt lat="46.07297" lon="6.94699"><ele></ele><time>2017-6-21T9:56:13Z</time></trkpt>
<trkpt lat="46.07296" lon="6.94695"><ele></ele><time>2017-6-21T9:56:16Z</time></trkpt>
<trkpt lat="46.07295" lon="6.94692"><ele></ele><time>2017-6-21T9:56:19Z</time></trkpt>
<trkpt lat="46.07294" lon="6.94688"><ele></ele><time>2017-6-21T9:56:22Z</time></trkpt>
<trkpt lat="46.07293" lon="6.94686"><ele></ele><time>2017-6-21T9:56:25Z</time></trkpt>
<trkpt lat="46.07293" lon="6.94685"><ele></ele><time>2017-6-21T9:56:28Z</time></trkpt>
<trkpt lat="46.07291" lon="6.94682"><ele></ele><time>2017-6-21T9:56:31Z</time></trkpt>
<trkpt lat="46.0729" lon="6.94679"><ele></ele><time>2017-6-21T9:56:34Z</time></trkpt>
<trkpt lat="46.07288" lon="6.94676"><ele></ele><time>2017-6-21T9:56:37Z</time></trkpt>
<trkpt lat="46.07287" lon="6.94673"><ele></ele><time>2017-6-21T9:56:40Z</time></trkpt>
<trkpt lat="46.07285" lon="6.9467"><ele></ele><time>2017-6-21T9:56:43Z</time></trkpt>
<trkpt lat="46.07283" lon="6.94667"><ele></ele><time>2017-6-21T9:56:46Z</time></trkpt>
<trkpt lat="46.07282" lon="6.94664"><ele></ele><time>2017-6-21T9:56:49Z</time></trkpt>
<trkpt lat="46.0728" lon="6.94661"><ele></ele><time>2017-6-21T9:56:52Z</time></trkpt>
<trkpt lat="46.07279" lon="6.94658"><ele></ele><time>2017-6-21T9:56:55Z</time></trkpt>
<trkpt lat="46.07277" lon="6.94655"><ele></ele><time>2017-6-21T9:56:58Z</time></trkpt>
<trkpt lat="46.07276" lon="6.94652"><ele></ele><time>2017-6-21T9:57:1Z</time></trkpt>
<trkpt lat="46.07274" lon="6.94649"><ele></ele><time>2017-6-21T9:57:4Z</time></trkpt>
<trkpt lat="46.07273" lon="6.94646"><ele></ele><time>2017-6-21T9:57:7Z</time></trkpt>
<trkpt lat="46.07272" lon="6.94645"><ele></ele><time>2017-6-21T9:57:10Z</time></trkpt>
<trkpt lat="46.07271" lon="6.94643"><ele></ele><time>2017-6-21T9:57:13Z</time></trkpt>
<trkpt lat="46.07269" lon="6.9464"><ele></ele><time>2017-6-21T9:57:16Z</time></trkpt>
<trkpt lat="46.07268" lon="6.94637"><ele></ele><time>2017-6-21T9:57:19Z</time></trkpt>
<trkpt lat="46.07266" lon="6.94634"><ele></ele><time>2017-6-21T9:57:22Z</time></trkpt>
<trkpt lat="46.07265" lon="6.94633"><ele></ele><time>2017-6-21T9:57:25Z</time></trkpt>
<trkpt lat="46.07264" lon="6.94632"><ele></ele><time>2017-6-21T9:57:28Z</time></trkpt>
<trkpt lat="46.07262" lon="6.94629"><ele></ele><time>2017-6-21T9:57:31Z</time></trkpt>
<trkpt lat="46.0726" lon="6.94627"><ele></ele><time>2017-6-21T9:57:34Z</time></trkpt>
<trkpt lat="46.07258" lon="6.94624"><ele></ele><time>2017-6-21T9:57:37Z</time></trkpt>
<trkpt lat="46.07255" lon="6.94622"><ele></ele><time>2017-6-21T9:57:40Z</time></trkpt>
<trkpt lat="46.07253" lon="6.94619"><ele></ele><time>2017-6-21T9:57:43Z</time></trkpt>
<trkpt lat="46.07251" lon="6.94617"><ele></ele><time>2017-6-21T9:57:46Z</time></trkpt>
<trkpt lat="46.07249" lon="6.94615"><ele></ele><time>2017-6-21T9:57:49Z</time></trkpt>
<trkpt lat="46.07246" lon="6.94612"><ele></ele><time>2017-6-21T9:57:52Z</time></trkpt>
<trkpt lat="46.07244" lon="6.9461"><ele></ele><time>2017-6-21T9:57:55Z</time></trkpt>
<trkpt lat="46.07242" lon="6.94607"><ele></ele><time>2017-6-21T9:57:58Z</time></trkpt>
<trkpt lat="46.0724" lon="6.94605"><ele></ele><time>2017-6-21T9:58:1Z</time></trkpt>
<trkpt lat="46.07237" lon="6.94602"><ele></ele><time>2017-6-21T9:58:4Z</time></trkpt>
<trkpt lat="46.07235" lon="6.946"><ele></ele><time>2017-6-21T9:58:7Z</time></trkpt>
<trkpt lat="46.07233" lon="6.94597"><ele></ele><time>2017-6-21T9:58:10Z</time></trkpt>
<trkpt lat="46.07231" lon="6.94595"><ele></ele><time>2017-6-21T9:58:13Z</time></trkpt>
<trkpt lat="46.0723" lon="6.94594"><ele></ele><time>2017-6-21T9:58:16Z</time></trkpt>
<trkpt lat="46.07228" lon="6.94593"><ele></ele><time>2017-6-21T9:58:19Z</time></trkpt>
<trkpt lat="46.07226" lon="6.9459"><ele></ele><time>2017-6-21T9:58:22Z</time></trkpt>
<trkpt lat="46.07224" lon="6.94588"><ele></ele><time>2017-6-21T9:58:25Z</time></trkpt>
<trkpt lat="46.07222" lon="6.94586"><ele></ele><time>2017-6-21T9:58:28Z</time></trkpt>
<trkpt lat="46.07219" lon="6.94584"><ele></ele><time>2017-6-21T9:58:31Z</time></trkpt>
<trkpt lat="46.07217" lon="6.94582"><ele></ele><time>2017-6-21T9:58:34Z</time></trkpt>
<trkpt lat="46.07215" lon="6.9458"><ele></ele><time>2017-6-21T9:58:37Z</time></trkpt>
<trkpt lat="46.07212" lon="6.94578"><ele></ele><time>2017-6-21T9:58:40Z</time></trkpt>
<trkpt lat="46.07211" lon="6.94577"><ele></ele><time>2017-6-21T9:58:43Z</time></trkpt>
<trkpt lat="46.07208" lon="6.94573"><ele></ele><time>2017-6-21T9:58:46Z</time></trkpt>
<trkpt lat="46.07206" lon="6.94571"><ele></ele><time>2017-6-21T9:58:49Z</time></trkpt>
<trkpt lat="46.07203" lon="6.94569"><ele></ele><time>2017-6-21T9:58:52Z</time></trkpt>
<trkpt lat="46.07201" lon="6.94567"><ele></ele><time>2017-6-21T9:58:55Z</time></trkpt>
<trkpt lat="46.072" lon="6.94566"><ele></ele><time>2017-6-21T9:58:58Z</time></trkpt>
<trkpt lat="46.07199" lon="6.94565"><ele></ele><time>2017-6-21T9:59:1Z</time></trkpt>
<trkpt lat="46.07196" lon="6.94563"><ele></ele><time>2017-6-21T9:59:4Z</time></trkpt>
<trkpt lat="46.07195" lon="6.94561"><ele></ele><time>2017-6-21T9:59:7Z</time></trkpt>
<trkpt lat="46.07192" lon="6.94558"><ele></ele><time>2017-6-21T9:59:10Z</time></trkpt>
<trkpt lat="46.0719" lon="6.94555"><ele></ele><time>2017-6-21T9:59:13Z</time></trkpt>
<trkpt lat="46.07189" lon="6.94552"><ele></ele><time>2017-6-21T9:59:16Z</time></trkpt>
<trkpt lat="46.07187" lon="6.94548"><ele></ele><time>2017-6-21T9:59:19Z</time></trkpt>
<trkpt lat="46.07186" lon="6.94545"><ele></ele><time>2017-6-21T9:59:22Z</time></trkpt>
<trkpt lat="46.07184" lon="6.94542"><ele></ele><time>2017-6-21T9:59:25Z</time></trkpt>
<trkpt lat="46.07182" lon="6.94539"><ele></ele><time>2017-6-21T9:59:28Z</time></trkpt>
<trkpt lat="46.07181" lon="6.94535"><ele></ele><time>2017-6-21T9:59:31Z</time></trkpt>
<trkpt lat="46.0718" lon="6.94534"><ele></ele><time>2017-6-21T9:59:34Z</time></trkpt>
<trkpt lat="46.07177" lon="6.94529"><ele></ele><time>2017-6-21T9:59:37Z</time></trkpt>
<trkpt lat="46.07176" lon="6.94526"><ele></ele><time>2017-6-21T9:59:40Z</time></trkpt>
<trkpt lat="46.07174" lon="6.94523"><ele></ele><time>2017-6-21T9:59:43Z</time></trkpt>
<trkpt lat="46.07173" lon="6.94519"><ele></ele><time>2017-6-21T9:59:46Z</time></trkpt>
<trkpt lat="46.07171" lon="6.94516"><ele></ele><time>2017-6-21T9:59:49Z</time></trkpt>
<trkpt lat="46.07169" lon="6.94513"><ele></ele><time>2017-6-21T9:59:52Z</time></trkpt>
<trkpt lat="46.07168" lon="6.9451"><ele></ele><time>2017-6-21T9:59:55Z</time></trkpt>
<trkpt lat="46.07167" lon="6.94508"><ele></ele><time>2017-6-21T9:59:58Z</time></trkpt>
<trkpt lat="46.07166" lon="6.94506"><ele></ele><time>2017-6-21T10:0:1Z</time></trkpt>
<trkpt lat="46.07166" lon="6.94505"><ele></ele><time>2017-6-21T10:0:4Z</time></trkpt>
<trkpt lat="46.07165" lon="6.94503"><ele></ele><time>2017-6-21T10:0:7Z</time></trkpt>
<trkpt lat="46.07164" lon="6.945"><ele></ele><time>2017-6-21T10:0:10Z</time></trkpt>
<trkpt lat="46.07163" lon="6.94496"><ele></ele><time>2017-6-21T10:0:13Z</time></trkpt>
<trkpt lat="46.07162" lon="6.94495"><ele></ele><time>2017-6-21T10:0:16Z</time></trkpt>
<trkpt lat="46.07161" lon="6.94489"><ele></ele><time>2017-6-21T10:0:19Z</time></trkpt>
<trkpt lat="46.0716" lon="6.94486"><ele></ele><time>2017-6-21T10:0:22Z</time></trkpt>
<trkpt lat="46.07159" lon="6.94483"><ele></ele><time>2017-6-21T10:0:25Z</time></trkpt>
<trkpt lat="46.07158" lon="6.94481"><ele></ele><time>2017-6-21T10:0:28Z</time></trkpt>
<trkpt lat="46.07157" lon="6.94476"><ele></ele><time>2017-6-21T10:0:31Z</time></trkpt>
<trkpt lat="46.07156" lon="6.94472"><ele></ele><time>2017-6-21T10:0:34Z</time></trkpt>
<trkpt lat="46.07155" lon="6.94469"><ele></ele><time>2017-6-21T10:0:37Z</time></trkpt>
<trkpt lat="46.07154" lon="6.94466"><ele></ele><time>2017-6-21T10:0:40Z</time></trkpt>
<trkpt lat="46.07153" lon="6.94462"><ele></ele><time>2017-6-21T10:0:43Z</time></trkpt>
<trkpt lat="46.07152" lon="6.94461"><ele></ele><time>2017-6-21T10:0:46Z</time></trkpt>
<trkpt lat="46.07152" lon="6.94459"><ele></ele><time>2017-6-21T10:0:49Z</time></trkpt>
<trkpt lat="46.07151" lon="6.94455"><ele></ele><time>2017-6-21T10:0:52Z</time></trkpt>
<trkpt lat="46.0715" lon="6.94452"><ele></ele><time>2017-6-21T10:0:55Z</time></trkpt>
<trkpt lat="46.07149" lon="6.94449"><ele></ele><time>2017-6-21T10:0:58Z</time></trkpt>
<trkpt lat="46.07148" lon="6.94445"><ele></ele><time>2017-6-21T10:1:1Z</time></trkpt>
<trkpt lat="46.07146" lon="6.94442"><ele></ele><time>2017-6-21T10:1:4Z</time></trkpt>
<trkpt lat="46.07145" lon="6.94441"><ele></ele><time>2017-6-21T10:1:7Z</time></trkpt>
<trkpt lat="46.07144" lon="6.94439"><ele></ele><time>2017-6-21T10:1:10Z</time></trkpt>
<trkpt lat="46.07143" lon="6.94436"><ele></ele><time>2017-6-21T10:1:13Z</time></trkpt>
<trkpt lat="46.07141" lon="6.94433"><ele></ele><time>2017-6-21T10:1:16Z</time></trkpt>
<trkpt lat="46.07139" lon="6.9443"><ele></ele><time>2017-6-21T10:1:19Z</time></trkpt>
<trkpt lat="46.07138" lon="6.94426"><ele></ele><time>2017-6-21T10:1:22Z</time></trkpt>
<trkpt lat="46.07136" lon="6.94423"><ele></ele><time>2017-6-21T10:1:25Z</time></trkpt>
<trkpt lat="46.07134" lon="6.9442"><ele></ele><time>2017-6-21T10:1:28Z</time></trkpt>
<trkpt lat="46.07133" lon="6.94417"><ele></ele><time>2017-6-21T10:1:31Z</time></trkpt>
<trkpt lat="46.07132" lon="6.94415"><ele></ele><time>2017-6-21T10:1:34Z</time></trkpt>
<trkpt lat="46.07129" lon="6.94411"><ele></ele><time>2017-6-21T10:1:37Z</time></trkpt>
<trkpt lat="46.07128" lon="6.94407"><ele></ele><time>2017-6-21T10:1:40Z</time></trkpt>
<trkpt lat="46.07126" lon="6.94404"><ele></ele><time>2017-6-21T10:1:43Z</time></trkpt>
<trkpt lat="46.07125" lon="6.94403"><ele></ele><time>2017-6-21T10:1:46Z</time></trkpt>
<trkpt lat="46.07123" lon="6.94398"><ele></ele><time>2017-6-21T10:1:49Z</time></trkpt>
<trkpt lat="46.07121" lon="6.94395"><ele></ele><time>2017-6-21T10:1:52Z</time></trkpt>
<trkpt lat="46.0712" lon="6.94393"><ele></ele><time>2017-6-21T10:1:55Z</time></trkpt>
<trkpt lat="46.0712" lon="6.94391"><ele></ele><time>2017-6-21T10:1:58Z</time></trkpt>
<trkpt lat="46.07118" lon="6.94388"><ele></ele><time>2017-6-21T10:2:1Z</time></trkpt>
<trkpt lat="46.07117" lon="6.94386"><ele></ele><time>2017-6-21T10:2:4Z</time></trkpt>
<trkpt lat="46.07117" lon="6.94385"><ele></ele><time>2017-6-21T10:2:7Z</time></trkpt>
<trkpt lat="46.07115" lon="6.94381"><ele></ele><time>2017-6-21T10:2:10Z</time></trkpt>
<trkpt lat="46.07114" lon="6.94378"><ele></ele><time>2017-6-21T10:2:13Z</time></trkpt>
<trkpt lat="46.07113" lon="6.94375"><ele></ele><time>2017-6-21T10:2:16Z</time></trkpt>
<trkpt lat="46.07111" lon="6.94371"><ele></ele><time>2017-6-21T10:2:19Z</time></trkpt>
<trkpt lat="46.0711" lon="6.94368"><ele></ele><time>2017-6-21T10:2:22Z</time></trkpt>
<trkpt lat="46.07108" lon="6.94365"><ele></ele><time>2017-6-21T10:2:25Z</time></trkpt>
<trkpt lat="46.07107" lon="6.94361"><ele></ele><time>2017-6-21T10:2:28Z</time></trkpt>
<trkpt lat="46.07106" lon="6.94358"><ele></ele><time>2017-6-21T10:2:31Z</time></trkpt>
<trkpt lat="46.07104" lon="6.94355"><ele></ele><time>2017-6-21T10:2:34Z</time></trkpt>
<trkpt lat="46.07103" lon="6.94351"><ele></ele><time>2017-6-21T10:2:37Z</time></trkpt>
<trkpt lat="46.07102" lon="6.9435"><ele></ele><time>2017-6-21T10:2:40Z</time></trkpt>
<trkpt lat="46.07101" lon="6.94348"><ele></ele><time>2017-6-21T10:2:43Z</time></trkpt>
<trkpt lat="46.071" lon="6.94345"><ele></ele><time>2017-6-21T10:2:46Z</time></trkpt>
<trkpt lat="46.07099" lon="6.94341"><ele></ele><time>2017-6-21T10:2:49Z</time></trkpt>
<trkpt lat="46.07097" lon="6.94338"><ele></ele><time>2017-6-21T10:2:52Z</time></trkpt>
<trkpt lat="46.07097" lon="6.94336"><ele></ele><time>2017-6-21T10:2:55Z</time></trkpt>
<trkpt lat="46.07096" lon="6.94335"><ele></ele><time>2017-6-21T10:2:58Z</time></trkpt>
<trkpt lat="46.07094" lon="6.94333"><ele></ele><time>2017-6-21T10:3:1Z</time></trkpt>
<trkpt lat="46.07092" lon="6.9433"><ele></ele><time>2017-6-21T10:3:4Z</time></trkpt>
<trkpt lat="46.0709" lon="6.94328"><ele></ele><time>2017-6-21T10:3:7Z</time></trkpt>
<trkpt lat="46.07088" lon="6.94325"><ele></ele><time>2017-6-21T10:3:10Z</time></trkpt>
<trkpt lat="46.07086" lon="6.94323"><ele></ele><time>2017-6-21T10:3:13Z</time></trkpt>
<trkpt lat="46.07084" lon="6.9432"><ele></ele><time>2017-6-21T10:3:16Z</time></trkpt>
<trkpt lat="46.07082" lon="6.94318"><ele></ele><time>2017-6-21T10:3:19Z</time></trkpt>
<trkpt lat="46.0708" lon="6.94315"><ele></ele><time>2017-6-21T10:3:22Z</time></trkpt>
<trkpt lat="46.07078" lon="6.94313"><ele></ele><time>2017-6-21T10:3:25Z</time></trkpt>
<trkpt lat="46.07076" lon="6.9431"><ele></ele><time>2017-6-21T10:3:28Z</time></trkpt>
<trkpt lat="46.07074" lon="6.94308"><ele></ele><time>2017-6-21T10:3:31Z</time></trkpt>
<trkpt lat="46.07073" lon="6.94305"><ele></ele><time>2017-6-21T10:3:34Z</time></trkpt>
<trkpt lat="46.07071" lon="6.94303"><ele></ele><time>2017-6-21T10:3:37Z</time></trkpt>
<trkpt lat="46.07069" lon="6.943"><ele></ele><time>2017-6-21T10:3:40Z</time></trkpt>
<trkpt lat="46.07067" lon="6.94298"><ele></ele><time>2017-6-21T10:3:43Z</time></trkpt>
<trkpt lat="46.07065" lon="6.94295"><ele></ele><time>2017-6-21T10:3:46Z</time></trkpt>
<trkpt lat="46.07064" lon="6.94294"><ele></ele><time>2017-6-21T10:3:49Z</time></trkpt>
<trkpt lat="46.07063" lon="6.94292"><ele></ele><time>2017-6-21T10:3:52Z</time></trkpt>
<trkpt lat="46.07062" lon="6.94289"><ele></ele><time>2017-6-21T10:3:55Z</time></trkpt>
<trkpt lat="46.0706" lon="6.94287"><ele></ele><time>2017-6-21T10:3:58Z</time></trkpt>
<trkpt lat="46.07059" lon="6.94284"><ele></ele><time>2017-6-21T10:4:1Z</time></trkpt>
<trkpt lat="46.07057" lon="6.94281"><ele></ele><time>2017-6-21T10:4:4Z</time></trkpt>
<trkpt lat="46.07056" lon="6.94278"><ele></ele><time>2017-6-21T10:4:7Z</time></trkpt>
<trkpt lat="46.07055" lon="6.94275"><ele></ele><time>2017-6-21T10:4:10Z</time></trkpt>
<trkpt lat="46.07053" lon="6.94272"><ele></ele><time>2017-6-21T10:4:13Z</time></trkpt>
<trkpt lat="46.07052" lon="6.94269"><ele></ele><time>2017-6-21T10:4:16Z</time></trkpt>
<trkpt lat="46.07051" lon="6.94266"><ele></ele><time>2017-6-21T10:4:19Z</time></trkpt>
<trkpt lat="46.07049" lon="6.94263"><ele></ele><time>2017-6-21T10:4:22Z</time></trkpt>
<trkpt lat="46.07048" lon="6.9426"><ele></ele><time>2017-6-21T10:4:25Z</time></trkpt>
<trkpt lat="46.07047" lon="6.94259"><ele></ele><time>2017-6-21T10:4:28Z</time></trkpt>
<trkpt lat="46.07045" lon="6.94254"><ele></ele><time>2017-6-21T10:4:31Z</time></trkpt>
<trkpt lat="46.07044" lon="6.94251"><ele></ele><time>2017-6-21T10:4:34Z</time></trkpt>
<trkpt lat="46.07042" lon="6.94248"><ele></ele><time>2017-6-21T10:4:37Z</time></trkpt>
<trkpt lat="46.07041" lon="6.94245"><ele></ele><time>2017-6-21T10:4:40Z</time></trkpt>
<trkpt lat="46.07039" lon="6.94242"><ele></ele><time>2017-6-21T10:4:43Z</time></trkpt>
<trkpt lat="46.07038" lon="6.94239"><ele></ele><time>2017-6-21T10:4:46Z</time></trkpt>
<trkpt lat="46.07037" lon="6.94238"><ele></ele><time>2017-6-21T10:4:49Z</time></trkpt>
<trkpt lat="46.07037" lon="6.94236"><ele></ele><time>2017-6-21T10:4:52Z</time></trkpt>
<trkpt lat="46.07035" lon="6.94233"><ele></ele><time>2017-6-21T10:4:55Z</time></trkpt>
<trkpt lat="46.07034" lon="6.9423"><ele></ele><time>2017-6-21T10:4:58Z</time></trkpt>
<trkpt lat="46.07032" lon="6.94227"><ele></ele><time>2017-6-21T10:5:1Z</time></trkpt>
<trkpt lat="46.07031" lon="6.94223"><ele></ele><time>2017-6-21T10:5:4Z</time></trkpt>
<trkpt lat="46.07029" lon="6.9422"><ele></ele><time>2017-6-21T10:5:7Z</time></trkpt>
<trkpt lat="46.07028" lon="6.94217"><ele></ele><time>2017-6-21T10:5:10Z</time></trkpt>
<trkpt lat="46.07026" lon="6.94214"><ele></ele><time>2017-6-21T10:5:13Z</time></trkpt>
<trkpt lat="46.07025" lon="6.94212"><ele></ele><time>2017-6-21T10:5:16Z</time></trkpt>
<trkpt lat="46.07025" lon="6.94211"><ele></ele><time>2017-6-21T10:5:19Z</time></trkpt>
<trkpt lat="46.07023" lon="6.94207"><ele></ele><time>2017-6-21T10:5:22Z</time></trkpt>
<trkpt lat="46.07022" lon="6.94204"><ele></ele><time>2017-6-21T10:5:25Z</time></trkpt>
<trkpt lat="46.0702" lon="6.94201"><ele></ele><time>2017-6-21T10:5:28Z</time></trkpt>
<trkpt lat="46.07019" lon="6.94199"><ele></ele><time>2017-6-21T10:5:31Z</time></trkpt>
<trkpt lat="46.07017" lon="6.94195"><ele></ele><time>2017-6-21T10:5:34Z</time></trkpt>
<trkpt lat="46.07016" lon="6.94191"><ele></ele><time>2017-6-21T10:5:37Z</time></trkpt>
<trkpt lat="46.07014" lon="6.94188"><ele></ele><time>2017-6-21T10:5:40Z</time></trkpt>
<trkpt lat="46.07013" lon="6.94185"><ele></ele><time>2017-6-21T10:5:43Z</time></trkpt>
<trkpt lat="46.07012" lon="6.94183"><ele></ele><time>2017-6-21T10:5:46Z</time></trkpt>
<trkpt lat="46.07011" lon="6.94182"><ele></ele><time>2017-6-21T10:5:49Z</time></trkpt>
<trkpt lat="46.0701" lon="6.94179"><ele></ele><time>2017-6-21T10:5:52Z</time></trkpt>
<trkpt lat="46.0701" lon="6.94177"><ele></ele><time>2017-6-21T10:5:55Z</time></trkpt>
<trkpt lat="46.07009" lon="6.94175"><ele></ele><time>2017-6-21T10:5:58Z</time></trkpt>
<trkpt lat="46.07008" lon="6.94172"><ele></ele><time>2017-6-21T10:6:1Z</time></trkpt>
<trkpt lat="46.07007" lon="6.94169"><ele></ele><time>2017-6-21T10:6:4Z</time></trkpt>
<trkpt lat="46.07006" lon="6.94166"><ele></ele><time>2017-6-21T10:6:7Z</time></trkpt>
<trkpt lat="46.07005" lon="6.94162"><ele></ele><time>2017-6-21T10:6:10Z</time></trkpt>
<trkpt lat="46.07004" lon="6.94159"><ele></ele><time>2017-6-21T10:6:13Z</time></trkpt>
<trkpt lat="46.07002" lon="6.94156"><ele></ele><time>2017-6-21T10:6:16Z</time></trkpt>
<trkpt lat="46.07001" lon="6.94153"><ele></ele><time>2017-6-21T10:6:19Z</time></trkpt>
<trkpt lat="46.07001" lon="6.94151"><ele></ele><time>2017-6-21T10:6:22Z</time></trkpt>
<trkpt lat="46.07" lon="6.94148"><ele></ele><time>2017-6-21T10:6:25Z</time></trkpt>
<trkpt lat="46.06998" lon="6.94143"><ele></ele><time>2017-6-21T10:6:28Z</time></trkpt>
<trkpt lat="46.06997" lon="6.9414"><ele></ele><time>2017-6-21T10:6:31Z</time></trkpt>
<trkpt lat="46.06996" lon="6.94137"><ele></ele><time>2017-6-21T10:6:34Z</time></trkpt>
<trkpt lat="46.06995" lon="6.94134"><ele></ele><time>2017-6-21T10:6:37Z</time></trkpt>
<trkpt lat="46.06994" lon="6.9413"><ele></ele><time>2017-6-21T10:6:40Z</time></trkpt>
<trkpt lat="46.06992" lon="6.94127"><ele></ele><time>2017-6-21T10:6:43Z</time></trkpt>
<trkpt lat="46.06991" lon="6.94124"><ele></ele><time>2017-6-21T10:6:46Z</time></trkpt>
<trkpt lat="46.0699" lon="6.94121"><ele></ele><time>2017-6-21T10:6:49Z</time></trkpt>
<trkpt lat="46.06988" lon="6.94118"><ele></ele><time>2017-6-21T10:6:52Z</time></trkpt>
<trkpt lat="46.06987" lon="6.94114"><ele></ele><time>2017-6-21T10:6:55Z</time></trkpt>
<trkpt lat="46.06986" lon="6.94113"><ele></ele><time>2017-6-21T10:6:58Z</time></trkpt>
<trkpt lat="46.06984" lon="6.94108"><ele></ele><time>2017-6-21T10:7:1Z</time></trkpt>
<trkpt lat="46.06982" lon="6.94105"><ele></ele><time>2017-6-21T10:7:4Z</time></trkpt>
<trkpt lat="46.06981" lon="6.94102"><ele></ele><time>2017-6-21T10:7:7Z</time></trkpt>
<trkpt lat="46.06979" lon="6.94098"><ele></ele><time>2017-6-21T10:7:10Z</time></trkpt>
<trkpt lat="46.06979" lon="6.94097"><ele></ele><time>2017-6-21T10:7:13Z</time></trkpt>
<trkpt lat="46.06978" lon="6.94095"><ele></ele><time>2017-6-21T10:7:16Z</time></trkpt>
<trkpt lat="46.06976" lon="6.94092"><ele></ele><time>2017-6-21T10:7:19Z</time></trkpt>
<trkpt lat="46.06975" lon="6.94089"><ele></ele><time>2017-6-21T10:7:22Z</time></trkpt>
<trkpt lat="46.06974" lon="6.94087"><ele></ele><time>2017-6-21T10:7:25Z</time></trkpt>
<trkpt lat="46.06974" lon="6.94086"><ele></ele><time>2017-6-21T10:7:28Z</time></trkpt>
<trkpt lat="46.06972" lon="6.94083"><ele></ele><time>2017-6-21T10:7:31Z</time></trkpt>
<trkpt lat="46.06971" lon="6.94079"><ele></ele><time>2017-6-21T10:7:34Z</time></trkpt>
<trkpt lat="46.06969" lon="6.94076"><ele></ele><time>2017-6-21T10:7:37Z</time></trkpt>
<trkpt lat="46.06968" lon="6.94075"><ele></ele><time>2017-6-21T10:7:40Z</time></trkpt>
<trkpt lat="46.06966" lon="6.9407"><ele></ele><time>2017-6-21T10:7:43Z</time></trkpt>
<trkpt lat="46.06966" lon="6.94068"><ele></ele><time>2017-6-21T10:7:46Z</time></trkpt>
<trkpt lat="46.06964" lon="6.94063"><ele></ele><time>2017-6-21T10:7:49Z</time></trkpt>
<trkpt lat="46.06963" lon="6.94062"><ele></ele><time>2017-6-21T10:7:52Z</time></trkpt>
<trkpt lat="46.06963" lon="6.9406"><ele></ele><time>2017-6-21T10:7:55Z</time></trkpt>
<trkpt lat="46.06962" lon="6.94057"><ele></ele><time>2017-6-21T10:7:58Z</time></trkpt>
<trkpt lat="46.06961" lon="6.94053"><ele></ele><time>2017-6-21T10:8:1Z</time></trkpt>
<trkpt lat="46.0696" lon="6.9405"><ele></ele><time>2017-6-21T10:8:4Z</time></trkpt>
<trkpt lat="46.06958" lon="6.94047"><ele></ele><time>2017-6-21T10:8:7Z</time></trkpt>
<trkpt lat="46.06957" lon="6.94043"><ele></ele><time>2017-6-21T10:8:10Z</time></trkpt>
<trkpt lat="46.06957" lon="6.94042"><ele></ele><time>2017-6-21T10:8:13Z</time></trkpt>
<trkpt lat="46.06956" lon="6.9404"><ele></ele><time>2017-6-21T10:8:16Z</time></trkpt>
<trkpt lat="46.06955" lon="6.94037"><ele></ele><time>2017-6-21T10:8:19Z</time></trkpt>
<trkpt lat="46.06954" lon="6.94033"><ele></ele><time>2017-6-21T10:8:22Z</time></trkpt>
<trkpt lat="46.06953" lon="6.9403"><ele></ele><time>2017-6-21T10:8:25Z</time></trkpt>
<trkpt lat="46.06952" lon="6.94027"><ele></ele><time>2017-6-21T10:8:28Z</time></trkpt>
<trkpt lat="46.06951" lon="6.94023"><ele></ele><time>2017-6-21T10:8:31Z</time></trkpt>
<trkpt lat="46.0695" lon="6.94022"><ele></ele><time>2017-6-21T10:8:34Z</time></trkpt>
<trkpt lat="46.06948" lon="6.94017"><ele></ele><time>2017-6-21T10:8:37Z</time></trkpt>
<trkpt lat="46.06948" lon="6.94015"><ele></ele><time>2017-6-21T10:8:40Z</time></trkpt>
<trkpt lat="46.06947" lon="6.94013"><ele></ele><time>2017-6-21T10:8:43Z</time></trkpt>
<trkpt lat="46.06946" lon="6.9401"><ele></ele><time>2017-6-21T10:8:46Z</time></trkpt>
<trkpt lat="46.06946" lon="6.94006"><ele></ele><time>2017-6-21T10:8:49Z</time></trkpt>
<trkpt lat="46.06945" lon="6.94003"><ele></ele><time>2017-6-21T10:8:52Z</time></trkpt>
<trkpt lat="46.06945" lon="6.94001"><ele></ele><time>2017-6-21T10:8:55Z</time></trkpt>
<trkpt lat="46.06943" lon="6.93996"><ele></ele><time>2017-6-21T10:8:58Z</time></trkpt>
<trkpt lat="46.06943" lon="6.93992"><ele></ele><time>2017-6-21T10:9:1Z</time></trkpt>
<trkpt lat="46.06942" lon="6.93989"><ele></ele><time>2017-6-21T10:9:4Z</time></trkpt>
<trkpt lat="46.06941" lon="6.93985"><ele></ele><time>2017-6-21T10:9:7Z</time></trkpt>
<trkpt lat="46.0694" lon="6.93982"><ele></ele><time>2017-6-21T10:9:10Z</time></trkpt>
<trkpt lat="46.0694" lon="6.9398"><ele></ele><time>2017-6-21T10:9:13Z</time></trkpt>
<trkpt lat="46.06939" lon="6.93975"><ele></ele><time>2017-6-21T10:9:16Z</time></trkpt>
<trkpt lat="46.06938" lon="6.93971"><ele></ele><time>2017-6-21T10:9:19Z</time></trkpt>
<trkpt lat="46.06937" lon="6.93968"><ele></ele><time>2017-6-21T10:9:22Z</time></trkpt>
<trkpt lat="46.06937" lon="6.93964"><ele></ele><time>2017-6-21T10:9:25Z</time></trkpt>
<trkpt lat="46.06936" lon="6.93961"><ele></ele><time>2017-6-21T10:9:28Z</time></trkpt>
<trkpt lat="46.06935" lon="6.93957"><ele></ele><time>2017-6-21T10:9:31Z</time></trkpt>
<trkpt lat="46.06935" lon="6.93954"><ele></ele><time>2017-6-21T10:9:34Z</time></trkpt>
<trkpt lat="46.06934" lon="6.9395"><ele></ele><time>2017-6-21T10:9:37Z</time></trkpt>
<trkpt lat="46.06933" lon="6.93947"><ele></ele><time>2017-6-21T10:9:40Z</time></trkpt>
<trkpt lat="46.06932" lon="6.93943"><ele></ele><time>2017-6-21T10:9:43Z</time></trkpt>
<trkpt lat="46.06931" lon="6.93939"><ele></ele><time>2017-6-21T10:9:46Z</time></trkpt>
<trkpt lat="46.0693" lon="6.93936"><ele></ele><time>2017-6-21T10:9:49Z</time></trkpt>
<trkpt lat="46.06929" lon="6.93932"><ele></ele><time>2017-6-21T10:9:52Z</time></trkpt>
<trkpt lat="46.06928" lon="6.93929"><ele></ele><time>2017-6-21T10:9:55Z</time></trkpt>
<trkpt lat="46.06927" lon="6.93925"><ele></ele><time>2017-6-21T10:9:58Z</time></trkpt>
<trkpt lat="46.06926" lon="6.93921"><ele></ele><time>2017-6-21T10:10:1Z</time></trkpt>
<trkpt lat="46.06925" lon="6.93918"><ele></ele><time>2017-6-21T10:10:4Z</time></trkpt>
<trkpt lat="46.06924" lon="6.93914"><ele></ele><time>2017-6-21T10:10:7Z</time></trkpt>
<trkpt lat="46.06923" lon="6.93911"><ele></ele><time>2017-6-21T10:10:10Z</time></trkpt>
<trkpt lat="46.06922" lon="6.93907"><ele></ele><time>2017-6-21T10:10:13Z</time></trkpt>
<trkpt lat="46.06921" lon="6.93903"><ele></ele><time>2017-6-21T10:10:16Z</time></trkpt>
<trkpt lat="46.0692" lon="6.939"><ele></ele><time>2017-6-21T10:10:19Z</time></trkpt>
<trkpt lat="46.06919" lon="6.93896"><ele></ele><time>2017-6-21T10:10:22Z</time></trkpt>
<trkpt lat="46.06918" lon="6.93893"><ele></ele><time>2017-6-21T10:10:25Z</time></trkpt>
<trkpt lat="46.06917" lon="6.93889"><ele></ele><time>2017-6-21T10:10:28Z</time></trkpt>
<trkpt lat="46.06916" lon="6.93885"><ele></ele><time>2017-6-21T10:10:31Z</time></trkpt>
<trkpt lat="46.06916" lon="6.93882"><ele></ele><time>2017-6-21T10:10:34Z</time></trkpt>
<trkpt lat="46.06915" lon="6.93878"><ele></ele><time>2017-6-21T10:10:37Z</time></trkpt>
<trkpt lat="46.06915" lon="6.93877"><ele></ele><time>2017-6-21T10:10:40Z</time></trkpt>
<trkpt lat="46.06915" lon="6.93875"><ele></ele><time>2017-6-21T10:10:43Z</time></trkpt>
<trkpt lat="46.06915" lon="6.93871"><ele></ele><time>2017-6-21T10:10:46Z</time></trkpt>
<trkpt lat="46.06914" lon="6.93869"><ele></ele><time>2017-6-21T10:10:49Z</time></trkpt>
<trkpt lat="46.06914" lon="6.93866"><ele></ele><time>2017-6-21T10:10:52Z</time></trkpt>
<trkpt lat="46.06914" lon="6.93864"><ele></ele><time>2017-6-21T10:10:55Z</time></trkpt>
<trkpt lat="46.06913" lon="6.9386"><ele></ele><time>2017-6-21T10:10:58Z</time></trkpt>
<trkpt lat="46.06913" lon="6.93857"><ele></ele><time>2017-6-21T10:11:1Z</time></trkpt>
<trkpt lat="46.06912" lon="6.93855"><ele></ele><time>2017-6-21T10:11:4Z</time></trkpt>
<trkpt lat="46.06912" lon="6.93853"><ele></ele><time>2017-6-21T10:11:7Z</time></trkpt>
<trkpt lat="46.06912" lon="6.9385"><ele></ele><time>2017-6-21T10:11:10Z</time></trkpt>
<trkpt lat="46.06912" lon="6.93848"><ele></ele><time>2017-6-21T10:11:13Z</time></trkpt>
<trkpt lat="46.06911" lon="6.93844"><ele></ele><time>2017-6-21T10:11:16Z</time></trkpt>
<trkpt lat="46.0691" lon="6.93839"><ele></ele><time>2017-6-21T10:11:19Z</time></trkpt>
<trkpt lat="46.0691" lon="6.93836"><ele></ele><time>2017-6-21T10:11:22Z</time></trkpt>
<trkpt lat="46.06909" lon="6.93832"><ele></ele><time>2017-6-21T10:11:25Z</time></trkpt>
<trkpt lat="46.06909" lon="6.93828"><ele></ele><time>2017-6-21T10:11:28Z</time></trkpt>
<trkpt lat="46.06909" lon="6.93825"><ele></ele><time>2017-6-21T10:11:31Z</time></trkpt>
<trkpt lat="46.06908" lon="6.93823"><ele></ele><time>2017-6-21T10:11:34Z</time></trkpt>
<trkpt lat="46.06908" lon="6.93821"><ele></ele><time>2017-6-21T10:11:37Z</time></trkpt>
<trkpt lat="46.06906" lon="6.93819"><ele></ele><time>2017-6-21T10:11:40Z</time></trkpt>
<trkpt lat="46.06906" lon="6.93817"><ele></ele><time>2017-6-21T10:11:43Z</time></trkpt>
<trkpt lat="46.06903" lon="6.93813"><ele></ele><time>2017-6-21T10:11:46Z</time></trkpt>
<trkpt lat="46.06902" lon="6.93811"><ele></ele><time>2017-6-21T10:11:49Z</time></trkpt>
<trkpt lat="46.06901" lon="6.93808"><ele></ele><time>2017-6-21T10:11:52Z</time></trkpt>
<trkpt lat="46.06899" lon="6.93805"><ele></ele><time>2017-6-21T10:11:55Z</time></trkpt>
<trkpt lat="46.06898" lon="6.93804"><ele></ele><time>2017-6-21T10:11:58Z</time></trkpt>
<trkpt lat="46.06898" lon="6.93803"><ele></ele><time>2017-6-21T10:12:1Z</time></trkpt>
<trkpt lat="46.06896" lon="6.938"><ele></ele><time>2017-6-21T10:12:4Z</time></trkpt>
<trkpt lat="46.06895" lon="6.93799"><ele></ele><time>2017-6-21T10:12:7Z</time></trkpt>
<trkpt lat="46.06893" lon="6.93795"><ele></ele><time>2017-6-21T10:12:10Z</time></trkpt>
<trkpt lat="46.06892" lon="6.93792"><ele></ele><time>2017-6-21T10:12:13Z</time></trkpt>
<trkpt lat="46.0689" lon="6.93789"><ele></ele><time>2017-6-21T10:12:16Z</time></trkpt>
<trkpt lat="46.06889" lon="6.93787"><ele></ele><time>2017-6-21T10:12:19Z</time></trkpt>
<trkpt lat="46.06887" lon="6.93784"><ele></ele><time>2017-6-21T10:12:22Z</time></trkpt>
<trkpt lat="46.06886" lon="6.93781"><ele></ele><time>2017-6-21T10:12:25Z</time></trkpt>
<trkpt lat="46.06885" lon="6.9378"><ele></ele><time>2017-6-21T10:12:28Z</time></trkpt>
<trkpt lat="46.06885" lon="6.93778"><ele></ele><time>2017-6-21T10:12:31Z</time></trkpt>
<trkpt lat="46.06883" lon="6.93776"><ele></ele><time>2017-6-21T10:12:34Z</time></trkpt>
<trkpt lat="46.06882" lon="6.93773"><ele></ele><time>2017-6-21T10:12:37Z</time></trkpt>
<trkpt lat="46.0688" lon="6.93771"><ele></ele><time>2017-6-21T10:12:40Z</time></trkpt>
<trkpt lat="46.06879" lon="6.93768"><ele></ele><time>2017-6-21T10:12:43Z</time></trkpt>
<trkpt lat="46.06878" lon="6.93767"><ele></ele><time>2017-6-21T10:12:46Z</time></trkpt>
<trkpt lat="46.06876" lon="6.93764"><ele></ele><time>2017-6-21T10:12:49Z</time></trkpt>
<trkpt lat="46.06875" lon="6.93761"><ele></ele><time>2017-6-21T10:12:52Z</time></trkpt>
<trkpt lat="46.06874" lon="6.93759"><ele></ele><time>2017-6-21T10:12:55Z</time></trkpt>
<trkpt lat="46.06873" lon="6.93757"><ele></ele><time>2017-6-21T10:12:58Z</time></trkpt>
<trkpt lat="46.06872" lon="6.93756"><ele></ele><time>2017-6-21T10:13:1Z</time></trkpt>
<trkpt lat="46.06871" lon="6.93753"><ele></ele><time>2017-6-21T10:13:4Z</time></trkpt>
<trkpt lat="46.0687" lon="6.93752"><ele></ele><time>2017-6-21T10:13:7Z</time></trkpt>
<trkpt lat="46.06869" lon="6.9375"><ele></ele><time>2017-6-21T10:13:10Z</time></trkpt>
<trkpt lat="46.06868" lon="6.93748"><ele></ele><time>2017-6-21T10:13:13Z</time></trkpt>
<trkpt lat="46.06866" lon="6.93745"><ele></ele><time>2017-6-21T10:13:16Z</time></trkpt>
<trkpt lat="46.06865" lon="6.93743"><ele></ele><time>2017-6-21T10:13:19Z</time></trkpt>
<trkpt lat="46.06864" lon="6.93741"><ele></ele><time>2017-6-21T10:13:22Z</time></trkpt>
<trkpt lat="46.06863" lon="6.93738"><ele></ele><time>2017-6-21T10:13:25Z</time></trkpt>
<trkpt lat="46.06861" lon="6.93736"><ele></ele><time>2017-6-21T10:13:28Z</time></trkpt>
<trkpt lat="46.0686" lon="6.93734"><ele></ele><time>2017-6-21T10:13:31Z</time></trkpt>
<trkpt lat="46.06859" lon="6.93732"><ele></ele><time>2017-6-21T10:13:34Z</time></trkpt>
<trkpt lat="46.06858" lon="6.93729"><ele></ele><time>2017-6-21T10:13:37Z</time></trkpt>
<trkpt lat="46.06856" lon="6.93727"><ele></ele><time>2017-6-21T10:13:40Z</time></trkpt>
<trkpt lat="46.06856" lon="6.93726"><ele></ele><time>2017-6-21T10:13:43Z</time></trkpt>
<trkpt lat="46.06855" lon="6.93725"><ele></ele><time>2017-6-21T10:13:46Z</time></trkpt>
<trkpt lat="46.06854" lon="6.93722"><ele></ele><time>2017-6-21T10:13:49Z</time></trkpt>
<trkpt lat="46.06852" lon="6.9372"><ele></ele><time>2017-6-21T10:13:52Z</time></trkpt>
<trkpt lat="46.06852" lon="6.93719"><ele></ele><time>2017-6-21T10:13:55Z</time></trkpt>
<trkpt lat="46.06849" lon="6.93715"><ele></ele><time>2017-6-21T10:13:58Z</time></trkpt>
<trkpt lat="46.06848" lon="6.93712"><ele></ele><time>2017-6-21T10:14:1Z</time></trkpt>
<trkpt lat="46.06847" lon="6.93711"><ele></ele><time>2017-6-21T10:14:4Z</time></trkpt>
<trkpt lat="46.06845" lon="6.93707"><ele></ele><time>2017-6-21T10:14:7Z</time></trkpt>
<trkpt lat="46.06844" lon="6.93705"><ele></ele><time>2017-6-21T10:14:10Z</time></trkpt>
<trkpt lat="46.06843" lon="6.93704"><ele></ele><time>2017-6-21T10:14:13Z</time></trkpt>
<trkpt lat="46.06842" lon="6.93701"><ele></ele><time>2017-6-21T10:14:16Z</time></trkpt>
<trkpt lat="46.06841" lon="6.937"><ele></ele><time>2017-6-21T10:14:19Z</time></trkpt>
<trkpt lat="46.06839" lon="6.93697"><ele></ele><time>2017-6-21T10:14:22Z</time></trkpt>
<trkpt lat="46.06838" lon="6.93696"><ele></ele><time>2017-6-21T10:14:25Z</time></trkpt>
<trkpt lat="46.06837" lon="6.93693"><ele></ele><time>2017-6-21T10:14:28Z</time></trkpt>
<trkpt lat="46.06835" lon="6.9369"><ele></ele><time>2017-6-21T10:14:31Z</time></trkpt>
<trkpt lat="46.06834" lon="6.93689"><ele></ele><time>2017-6-21T10:14:34Z</time></trkpt>
<trkpt lat="46.06832" lon="6.93685"><ele></ele><time>2017-6-21T10:14:37Z</time></trkpt>
<trkpt lat="46.06831" lon="6.93682"><ele></ele><time>2017-6-21T10:14:40Z</time></trkpt>
<trkpt lat="46.06829" lon="6.93679"><ele></ele><time>2017-6-21T10:14:43Z</time></trkpt>
<trkpt lat="46.06828" lon="6.93678"><ele></ele><time>2017-6-21T10:14:46Z</time></trkpt>
<trkpt lat="46.06827" lon="6.93675"><ele></ele><time>2017-6-21T10:14:49Z</time></trkpt>
<trkpt lat="46.06826" lon="6.93674"><ele></ele><time>2017-6-21T10:14:52Z</time></trkpt>
<trkpt lat="46.06824" lon="6.93671"><ele></ele><time>2017-6-21T10:14:55Z</time></trkpt>
<trkpt lat="46.06822" lon="6.93669"><ele></ele><time>2017-6-21T10:14:58Z</time></trkpt>
<trkpt lat="46.0682" lon="6.93667"><ele></ele><time>2017-6-21T10:15:1Z</time></trkpt>
<trkpt lat="46.06817" lon="6.93665"><ele></ele><time>2017-6-21T10:15:4Z</time></trkpt>
<trkpt lat="46.06815" lon="6.93664"><ele></ele><time>2017-6-21T10:15:7Z</time></trkpt>
<trkpt lat="46.06814" lon="6.93663"><ele></ele><time>2017-6-21T10:15:10Z</time></trkpt>
<trkpt lat="46.06811" lon="6.93661"><ele></ele><time>2017-6-21T10:15:13Z</time></trkpt>
<trkpt lat="46.06808" lon="6.93659"><ele></ele><time>2017-6-21T10:15:16Z</time></trkpt>
<trkpt lat="46.06807" lon="6.93658"><ele></ele><time>2017-6-21T10:15:19Z</time></trkpt>
<trkpt lat="46.06806" lon="6.93657"><ele></ele><time>2017-6-21T10:15:22Z</time></trkpt>
<trkpt lat="46.06803" lon="6.93656"><ele></ele><time>2017-6-21T10:15:25Z</time></trkpt>
<trkpt lat="46.068" lon="6.93654"><ele></ele><time>2017-6-21T10:15:28Z</time></trkpt>
<trkpt lat="46.06797" lon="6.93652"><ele></ele><time>2017-6-21T10:15:31Z</time></trkpt>
<trkpt lat="46.06795" lon="6.9365"><ele></ele><time>2017-6-21T10:15:34Z</time></trkpt>
<trkpt lat="46.06792" lon="6.93648"><ele></ele><time>2017-6-21T10:15:37Z</time></trkpt>
<trkpt lat="46.0679" lon="6.93647"><ele></ele><time>2017-6-21T10:15:40Z</time></trkpt>
<trkpt lat="46.06789" lon="6.93646"><ele></ele><time>2017-6-21T10:15:43Z</time></trkpt>
<trkpt lat="46.06786" lon="6.93645"><ele></ele><time>2017-6-21T10:15:46Z</time></trkpt>
<trkpt lat="46.06784" lon="6.93643"><ele></ele><time>2017-6-21T10:15:49Z</time></trkpt>
<trkpt lat="46.06786" lon="6.93647"><ele></ele><time>2017-6-21T10:15:52Z</time></trkpt>
<trkpt lat="46.06788" lon="6.9365"><ele></ele><time>2017-6-21T10:15:55Z</time></trkpt>
<trkpt lat="46.0679" lon="6.93645"><ele></ele><time>2017-6-21T10:15:58Z</time></trkpt>
<trkpt lat="46.0679" lon="6.93643"><ele></ele><time>2017-6-21T10:16:1Z</time></trkpt>
<trkpt lat="46.06793" lon="6.93635"><ele></ele><time>2017-6-21T10:16:4Z</time></trkpt>
<trkpt lat="46.06794" lon="6.93631"><ele></ele><time>2017-6-21T10:16:7Z</time></trkpt>
<trkpt lat="46.06795" lon="6.93628"><ele></ele><time>2017-6-21T10:16:10Z</time></trkpt>
<trkpt lat="46.06796" lon="6.93623"><ele></ele><time>2017-6-21T10:16:13Z</time></trkpt>
<trkpt lat="46.06799" lon="6.93616"><ele></ele><time>2017-6-21T10:16:16Z</time></trkpt>
<trkpt lat="46.068" lon="6.93611"><ele></ele><time>2017-6-21T10:16:19Z</time></trkpt>
<trkpt lat="46.06801" lon="6.93609"><ele></ele><time>2017-6-21T10:16:22Z</time></trkpt>
<trkpt lat="46.06803" lon="6.93601"><ele></ele><time>2017-6-21T10:16:25Z</time></trkpt>
<trkpt lat="46.06805" lon="6.93597"><ele></ele><time>2017-6-21T10:16:28Z</time></trkpt>
<trkpt lat="46.06806" lon="6.93592"><ele></ele><time>2017-6-21T10:16:31Z</time></trkpt>
<trkpt lat="46.06806" lon="6.9359"><ele></ele><time>2017-6-21T10:16:34Z</time></trkpt>
<trkpt lat="46.06806" lon="6.9359"><ele></ele><time>2017-6-21T10:16:37Z</time></trkpt>
<trkpt lat="46.06806" lon="6.93589"><ele></ele><time>2017-6-21T10:16:40Z</time></trkpt>
<trkpt lat="46.06806" lon="6.93589"><ele></ele><time>2017-6-21T10:16:43Z</time></trkpt>
<trkpt lat="46.06805" lon="6.93588"><ele></ele><time>2017-6-21T10:16:46Z</time></trkpt>
<trkpt lat="46.06805" lon="6.93588"><ele></ele><time>2017-6-21T10:16:49Z</time></trkpt>
<trkpt lat="46.06805" lon="6.93587"><ele></ele><time>2017-6-21T10:16:52Z</time></trkpt>
<trkpt lat="46.06804" lon="6.93587"><ele></ele><time>2017-6-21T10:16:55Z</time></trkpt>
<trkpt lat="46.06804" lon="6.93587"><ele></ele><time>2017-6-21T10:16:58Z</time></trkpt>
<trkpt lat="46.06794" lon="6.9357"><ele></ele><time>2017-6-21T10:17:1Z</time></trkpt>
<trkpt lat="46.06794" lon="6.9357"><ele></ele><time>2017-6-21T10:17:4Z</time></trkpt>
<trkpt lat="46.06783" lon="6.93554"><ele></ele><time>2017-6-21T10:17:7Z</time></trkpt>
<trkpt lat="46.06785" lon="6.93553"><ele></ele><time>2017-6-21T10:17:10Z</time></trkpt>
<trkpt lat="46.06786" lon="6.93553"><ele></ele><time>2017-6-21T10:17:13Z</time></trkpt>
<trkpt lat="46.06788" lon="6.93552"><ele></ele><time>2017-6-21T10:17:16Z</time></trkpt>
<trkpt lat="46.0679" lon="6.93552"><ele></ele><time>2017-6-21T10:17:19Z</time></trkpt>
<trkpt lat="46.06792" lon="6.93551"><ele></ele><time>2017-6-21T10:17:22Z</time></trkpt>
<trkpt lat="46.06792" lon="6.93551"><ele></ele><time>2017-6-21T10:17:25Z</time></trkpt>
<trkpt lat="46.06793" lon="6.93551"><ele></ele><time>2017-6-21T10:17:28Z</time></trkpt>
<trkpt lat="46.06795" lon="6.9355"><ele></ele><time>2017-6-21T10:17:31Z</time></trkpt>
<trkpt lat="46.06797" lon="6.9355"><ele></ele><time>2017-6-21T10:17:34Z</time></trkpt>
<trkpt lat="46.06797" lon="6.93549"><ele></ele><time>2017-6-21T10:17:37Z</time></trkpt>
<trkpt lat="46.06798" lon="6.93549"><ele></ele><time>2017-6-21T10:17:40Z</time></trkpt>
<trkpt lat="46.068" lon="6.93549"><ele></ele><time>2017-6-21T10:17:43Z</time></trkpt>
<trkpt lat="46.06801" lon="6.93548"><ele></ele><time>2017-6-21T10:17:46Z</time></trkpt>
<trkpt lat="46.06798" lon="6.93544"><ele></ele><time>2017-6-21T10:17:49Z</time></trkpt>
<trkpt lat="46.06794" lon="6.93541"><ele></ele><time>2017-6-21T10:17:52Z</time></trkpt>
<trkpt lat="46.06793" lon="6.93539"><ele></ele><time>2017-6-21T10:17:55Z</time></trkpt>
<trkpt lat="46.06791" lon="6.93538"><ele></ele><time>2017-6-21T10:17:58Z</time></trkpt>
<trkpt lat="46.06788" lon="6.93534"><ele></ele><time>2017-6-21T10:18:1Z</time></trkpt>
<trkpt lat="46.06784" lon="6.93531"><ele></ele><time>2017-6-21T10:18:4Z</time></trkpt>
<trkpt lat="46.06783" lon="6.9353"><ele></ele><time>2017-6-21T10:18:7Z</time></trkpt>
<trkpt lat="46.06781" lon="6.93528"><ele></ele><time>2017-6-21T10:18:10Z</time></trkpt>
<trkpt lat="46.06778" lon="6.93525"><ele></ele><time>2017-6-21T10:18:13Z</time></trkpt>
<trkpt lat="46.06776" lon="6.93523"><ele></ele><time>2017-6-21T10:18:16Z</time></trkpt>
<trkpt lat="46.06771" lon="6.93518"><ele></ele><time>2017-6-21T10:18:19Z</time></trkpt>
<trkpt lat="46.06768" lon="6.93515"><ele></ele><time>2017-6-21T10:18:22Z</time></trkpt>
<trkpt lat="46.06767" lon="6.93515"><ele></ele><time>2017-6-21T10:18:25Z</time></trkpt>
<trkpt lat="46.06766" lon="6.93524"><ele></ele><time>2017-6-21T10:18:28Z</time></trkpt>
<trkpt lat="46.06766" lon="6.9353"><ele></ele><time>2017-6-21T10:18:31Z</time></trkpt>
<trkpt lat="46.06766" lon="6.93533"><ele></ele><time>2017-6-21T10:18:34Z</time></trkpt>
<trkpt lat="46.06765" lon="6.93536"><ele></ele><time>2017-6-21T10:18:37Z</time></trkpt>
<trkpt lat="46.06765" lon="6.93543"><ele></ele><time>2017-6-21T10:18:40Z</time></trkpt>
<trkpt lat="46.06763" lon="6.93546"><ele></ele><time>2017-6-21T10:18:43Z</time></trkpt>
<trkpt lat="46.06759" lon="6.93552"><ele></ele><time>2017-6-21T10:18:46Z</time></trkpt>
<trkpt lat="46.06754" lon="6.93557"><ele></ele><time>2017-6-21T10:18:49Z</time></trkpt>
<trkpt lat="46.0675" lon="6.93562"><ele></ele><time>2017-6-21T10:18:52Z</time></trkpt>
<trkpt lat="46.06742" lon="6.93573"><ele></ele><time>2017-6-21T10:18:55Z</time></trkpt>
<trkpt lat="46.0674" lon="6.93579"><ele></ele><time>2017-6-21T10:18:58Z</time></trkpt>
<trkpt lat="46.06738" lon="6.93584"><ele></ele><time>2017-6-21T10:19:1Z</time></trkpt>
<trkpt lat="46.06734" lon="6.93595"><ele></ele><time>2017-6-21T10:19:4Z</time></trkpt>
<trkpt lat="46.06732" lon="6.93598"><ele></ele><time>2017-6-21T10:19:7Z</time></trkpt>
<trkpt lat="46.06733" lon="6.93593"><ele></ele><time>2017-6-21T10:19:10Z</time></trkpt>
<trkpt lat="46.06735" lon="6.93584"><ele></ele><time>2017-6-21T10:19:13Z</time></trkpt>
<trkpt lat="46.06736" lon="6.93579"><ele></ele><time>2017-6-21T10:19:16Z</time></trkpt>
<trkpt lat="46.06739" lon="6.93564"><ele></ele><time>2017-6-21T10:19:19Z</time></trkpt>
<trkpt lat="46.0675" lon="6.93536"><ele></ele><time>2017-6-21T10:19:22Z</time></trkpt>
<trkpt lat="46.06748" lon="6.93515"><ele></ele><time>2017-6-21T10:19:25Z</time></trkpt>
<trkpt lat="46.06748" lon="6.93505"><ele></ele><time>2017-6-21T10:19:28Z</time></trkpt>
<trkpt lat="46.06756" lon="6.9349"><ele></ele><time>2017-6-21T10:19:31Z</time></trkpt>
<trkpt lat="46.06762" lon="6.93485"><ele></ele><time>2017-6-21T10:19:34Z</time></trkpt>
<trkpt lat="46.06769" lon="6.9348"><ele></ele><time>2017-6-21T10:19:37Z</time></trkpt>
<trkpt lat="46.06774" lon="6.93473"><ele></ele><time>2017-6-21T10:19:40Z</time></trkpt>
<trkpt lat="46.06777" lon="6.93463"><ele></ele><time>2017-6-21T10:19:43Z</time></trkpt>
<trkpt lat="46.06777" lon="6.93454"><ele></ele><time>2017-6-21T10:19:46Z</time></trkpt>
<trkpt lat="46.06778" lon="6.93444"><ele></ele><time>2017-6-21T10:19:49Z</time></trkpt>
<trkpt lat="46.06779" lon="6.93435"><ele></ele><time>2017-6-21T10:19:52Z</time></trkpt>
<trkpt lat="46.0678" lon="6.93416"><ele></ele><time>2017-6-21T10:19:55Z</time></trkpt>
<trkpt lat="46.06782" lon="6.93398"><ele></ele><time>2017-6-21T10:19:58Z</time></trkpt>
<trkpt lat="46.06782" lon="6.93392"><ele></ele><time>2017-6-21T10:20:1Z</time></trkpt>
<trkpt lat="46.06782" lon="6.93386"><ele></ele><time>2017-6-21T10:20:4Z</time></trkpt>
<trkpt lat="46.06782" lon="6.9338"><ele></ele><time>2017-6-21T10:20:7Z</time></trkpt>
<trkpt lat="46.06782" lon="6.93374"><ele></ele><time>2017-6-21T10:20:10Z</time></trkpt>
<trkpt lat="46.06782" lon="6.93371"><ele></ele><time>2017-6-21T10:20:13Z</time></trkpt>
<trkpt lat="46.06783" lon="6.93362"><ele></ele><time>2017-6-21T10:20:16Z</time></trkpt>
<trkpt lat="46.06783" lon="6.93359"><ele></ele><time>2017-6-21T10:20:19Z</time></trkpt>
<trkpt lat="46.06783" lon="6.93356"><ele></ele><time>2017-6-21T10:20:22Z</time></trkpt>
<trkpt lat="46.06783" lon="6.9335"><ele></ele><time>2017-6-21T10:20:25Z</time></trkpt>
<trkpt lat="46.06783" lon="6.93347"><ele></ele><time>2017-6-21T10:20:28Z</time></trkpt>
<trkpt lat="46.06783" lon="6.93341"><ele></ele><time>2017-6-21T10:20:31Z</time></trkpt>
<trkpt lat="46.06783" lon="6.93338"><ele></ele><time>2017-6-21T10:20:34Z</time></trkpt>
<trkpt lat="46.06783" lon="6.93331"><ele></ele><time>2017-6-21T10:20:37Z</time></trkpt>
<trkpt lat="46.06782" lon="6.93323"><ele></ele><time>2017-6-21T10:20:40Z</time></trkpt>
<trkpt lat="46.06782" lon="6.93315"><ele></ele><time>2017-6-21T10:20:43Z</time></trkpt>
<trkpt lat="46.06781" lon="6.93311"><ele></ele><time>2017-6-21T10:20:46Z</time></trkpt>
<trkpt lat="46.0678" lon="6.93298"><ele></ele><time>2017-6-21T10:20:49Z</time></trkpt>
<trkpt lat="46.06779" lon="6.9329"><ele></ele><time>2017-6-21T10:20:52Z</time></trkpt>
<trkpt lat="46.06779" lon="6.93282"><ele></ele><time>2017-6-21T10:20:55Z</time></trkpt>
<trkpt lat="46.06778" lon="6.93277"><ele></ele><time>2017-6-21T10:20:58Z</time></trkpt>
<trkpt lat="46.06776" lon="6.93265"><ele></ele><time>2017-6-21T10:21:1Z</time></trkpt>
<trkpt lat="46.06773" lon="6.93256"><ele></ele><time>2017-6-21T10:21:4Z</time></trkpt>
<trkpt lat="46.06769" lon="6.93247"><ele></ele><time>2017-6-21T10:21:7Z</time></trkpt>
<trkpt lat="46.06765" lon="6.93238"><ele></ele><time>2017-6-21T10:21:10Z</time></trkpt>
<trkpt lat="46.06761" lon="6.93228"><ele></ele><time>2017-6-21T10:21:13Z</time></trkpt>
<trkpt lat="46.06759" lon="6.93224"><ele></ele><time>2017-6-21T10:21:16Z</time></trkpt>
<trkpt lat="46.06753" lon="6.9321"><ele></ele><time>2017-6-21T10:21:19Z</time></trkpt>
<trkpt lat="46.06751" lon="6.93206"><ele></ele><time>2017-6-21T10:21:22Z</time></trkpt>
<trkpt lat="46.06749" lon="6.93202"><ele></ele><time>2017-6-21T10:21:25Z</time></trkpt>
<trkpt lat="46.06745" lon="6.93194"><ele></ele><time>2017-6-21T10:21:28Z</time></trkpt>
<trkpt lat="46.06741" lon="6.93186"><ele></ele><time>2017-6-21T10:21:31Z</time></trkpt>
<trkpt lat="46.06737" lon="6.93179"><ele></ele><time>2017-6-21T10:21:34Z</time></trkpt>
<trkpt lat="46.06733" lon="6.93171"><ele></ele><time>2017-6-21T10:21:37Z</time></trkpt>
<trkpt lat="46.06731" lon="6.93167"><ele></ele><time>2017-6-21T10:21:40Z</time></trkpt>
<trkpt lat="46.06725" lon="6.93155"><ele></ele><time>2017-6-21T10:21:43Z</time></trkpt>
<trkpt lat="46.06723" lon="6.93153"><ele></ele><time>2017-6-21T10:21:46Z</time></trkpt>
<trkpt lat="46.06721" lon="6.9315"><ele></ele><time>2017-6-21T10:21:49Z</time></trkpt>
<trkpt lat="46.0672" lon="6.93149"><ele></ele><time>2017-6-21T10:21:52Z</time></trkpt>
<trkpt lat="46.06719" lon="6.93148"><ele></ele><time>2017-6-21T10:21:55Z</time></trkpt>
<trkpt lat="46.06702" lon="6.93129"><ele></ele><time>2017-6-21T10:21:58Z</time></trkpt>
<trkpt lat="46.06702" lon="6.93129"><ele></ele><time>2017-6-21T10:22:1Z</time></trkpt>
<trkpt lat="46.06686" lon="6.93111"><ele></ele><time>2017-6-21T10:22:4Z</time></trkpt>
<trkpt lat="46.06685" lon="6.9311"><ele></ele><time>2017-6-21T10:22:7Z</time></trkpt>
<trkpt lat="46.06684" lon="6.9311"><ele></ele><time>2017-6-21T10:22:10Z</time></trkpt>
<trkpt lat="46.06656" lon="6.93092"><ele></ele><time>2017-6-21T10:22:13Z</time></trkpt>
<trkpt lat="46.06656" lon="6.93092"><ele></ele><time>2017-6-21T10:22:16Z</time></trkpt>
<trkpt lat="46.06629" lon="6.93075"><ele></ele><time>2017-6-21T10:22:19Z</time></trkpt>
<trkpt lat="46.06621" lon="6.93071"><ele></ele><time>2017-6-21T10:22:22Z</time></trkpt>
<trkpt lat="46.06615" lon="6.93068"><ele></ele><time>2017-6-21T10:22:25Z</time></trkpt>
<trkpt lat="46.06613" lon="6.93065"><ele></ele><time>2017-6-21T10:22:28Z</time></trkpt>
<trkpt lat="46.06612" lon="6.93061"><ele></ele><time>2017-6-21T10:22:31Z</time></trkpt>
<trkpt lat="46.0661" lon="6.93051"><ele></ele><time>2017-6-21T10:22:34Z</time></trkpt>
<trkpt lat="46.06608" lon="6.93042"><ele></ele><time>2017-6-21T10:22:37Z</time></trkpt>
<trkpt lat="46.06606" lon="6.93032"><ele></ele><time>2017-6-21T10:22:40Z</time></trkpt>
<trkpt lat="46.06605" lon="6.93027"><ele></ele><time>2017-6-21T10:22:43Z</time></trkpt>
<trkpt lat="46.06603" lon="6.93018"><ele></ele><time>2017-6-21T10:22:46Z</time></trkpt>
<trkpt lat="46.066" lon="6.93004"><ele></ele><time>2017-6-21T10:22:49Z</time></trkpt>
<trkpt lat="46.06597" lon="6.93001"><ele></ele><time>2017-6-21T10:22:52Z</time></trkpt>
<trkpt lat="46.06593" lon="6.92994"><ele></ele><time>2017-6-21T10:22:55Z</time></trkpt>
<trkpt lat="46.06586" lon="6.92984"><ele></ele><time>2017-6-21T10:22:58Z</time></trkpt>
<trkpt lat="46.06582" lon="6.92977"><ele></ele><time>2017-6-21T10:23:1Z</time></trkpt>
<trkpt lat="46.06577" lon="6.9297"><ele></ele><time>2017-6-21T10:23:4Z</time></trkpt>
<trkpt lat="46.06573" lon="6.92964"><ele></ele><time>2017-6-21T10:23:7Z</time></trkpt>
<trkpt lat="46.0657" lon="6.9296"><ele></ele><time>2017-6-21T10:23:10Z</time></trkpt>
<trkpt lat="46.06568" lon="6.92957"><ele></ele><time>2017-6-21T10:23:13Z</time></trkpt>
<trkpt lat="46.06566" lon="6.92953"><ele></ele><time>2017-6-21T10:23:16Z</time></trkpt>
<trkpt lat="46.06558" lon="6.92942"><ele></ele><time>2017-6-21T10:23:19Z</time></trkpt>
<trkpt lat="46.06553" lon="6.92935"><ele></ele><time>2017-6-21T10:23:22Z</time></trkpt>
<trkpt lat="46.06548" lon="6.92928"><ele></ele><time>2017-6-21T10:23:25Z</time></trkpt>
<trkpt lat="46.06546" lon="6.92923"><ele></ele><time>2017-6-21T10:23:28Z</time></trkpt>
<trkpt lat="46.06546" lon="6.92916"><ele></ele><time>2017-6-21T10:23:31Z</time></trkpt>
<trkpt lat="46.06546" lon="6.92908"><ele></ele><time>2017-6-21T10:23:34Z</time></trkpt>
<trkpt lat="46.06546" lon="6.92894"><ele></ele><time>2017-6-21T10:23:37Z</time></trkpt>
<trkpt lat="46.06545" lon="6.92879"><ele></ele><time>2017-6-21T10:23:40Z</time></trkpt>
<trkpt lat="46.06545" lon="6.92857"><ele></ele><time>2017-6-21T10:23:43Z</time></trkpt>
<trkpt lat="46.06543" lon="6.92843"><ele></ele><time>2017-6-21T10:23:46Z</time></trkpt>
<trkpt lat="46.06541" lon="6.92829"><ele></ele><time>2017-6-21T10:23:49Z</time></trkpt>
<trkpt lat="46.06538" lon="6.92816"><ele></ele><time>2017-6-21T10:23:52Z</time></trkpt>
<trkpt lat="46.0653" lon="6.9281"><ele></ele><time>2017-6-21T10:23:55Z</time></trkpt>
<trkpt lat="46.06526" lon="6.92807"><ele></ele><time>2017-6-21T10:23:58Z</time></trkpt>
<trkpt lat="46.06515" lon="6.92797"><ele></ele><time>2017-6-21T10:24:1Z</time></trkpt>
<trkpt lat="46.06507" lon="6.92791"><ele></ele><time>2017-6-21T10:24:4Z</time></trkpt>
<trkpt lat="46.06504" lon="6.92787"><ele></ele><time>2017-6-21T10:24:7Z</time></trkpt>
<trkpt lat="46.06503" lon="6.92782"><ele></ele><time>2017-6-21T10:24:10Z</time></trkpt>
<trkpt lat="46.06501" lon="6.92771"><ele></ele><time>2017-6-21T10:24:13Z</time></trkpt>
<trkpt lat="46.06499" lon="6.9276"><ele></ele><time>2017-6-21T10:24:16Z</time></trkpt>
<trkpt lat="46.06497" lon="6.92749"><ele></ele><time>2017-6-21T10:24:19Z</time></trkpt>
<trkpt lat="46.06495" lon="6.92738"><ele></ele><time>2017-6-21T10:24:22Z</time></trkpt>
<trkpt lat="46.06493" lon="6.92728"><ele></ele><time>2017-6-21T10:24:25Z</time></trkpt>
<trkpt lat="46.06492" lon="6.92722"><ele></ele><time>2017-6-21T10:24:28Z</time></trkpt>
<trkpt lat="46.06493" lon="6.92717"><ele></ele><time>2017-6-21T10:24:31Z</time></trkpt>
<trkpt lat="46.06494" lon="6.92713"><ele></ele><time>2017-6-21T10:24:34Z</time></trkpt>
<trkpt lat="46.06495" lon="6.92703"><ele></ele><time>2017-6-21T10:24:37Z</time></trkpt>
<trkpt lat="46.06496" lon="6.92698"><ele></ele><time>2017-6-21T10:24:40Z</time></trkpt>
<trkpt lat="46.06498" lon="6.92688"><ele></ele><time>2017-6-21T10:24:43Z</time></trkpt>
<trkpt lat="46.065" lon="6.92678"><ele></ele><time>2017-6-21T10:24:46Z</time></trkpt>
<trkpt lat="46.06501" lon="6.92668"><ele></ele><time>2017-6-21T10:24:49Z</time></trkpt>
<trkpt lat="46.06503" lon="6.92658"><ele></ele><time>2017-6-21T10:24:52Z</time></trkpt>
<trkpt lat="46.06506" lon="6.92648"><ele></ele><time>2017-6-21T10:24:55Z</time></trkpt>
<trkpt lat="46.06509" lon="6.92639"><ele></ele><time>2017-6-21T10:24:58Z</time></trkpt>
<trkpt lat="46.06512" lon="6.92629"><ele></ele><time>2017-6-21T10:25:1Z</time></trkpt>
<trkpt lat="46.06515" lon="6.92619"><ele></ele><time>2017-6-21T10:25:4Z</time></trkpt>
<trkpt lat="46.06516" lon="6.92614"><ele></ele><time>2017-6-21T10:25:7Z</time></trkpt>
<trkpt lat="46.06518" lon="6.9261"><ele></ele><time>2017-6-21T10:25:10Z</time></trkpt>
<trkpt lat="46.06521" lon="6.926"><ele></ele><time>2017-6-21T10:25:13Z</time></trkpt>
<trkpt lat="46.06522" lon="6.92595"><ele></ele><time>2017-6-21T10:25:16Z</time></trkpt>
<trkpt lat="46.06523" lon="6.92592"><ele></ele><time>2017-6-21T10:25:19Z</time></trkpt>
<trkpt lat="46.06525" lon="6.92584"><ele></ele><time>2017-6-21T10:25:22Z</time></trkpt>
<trkpt lat="46.06526" lon="6.92577"><ele></ele><time>2017-6-21T10:25:25Z</time></trkpt>
<trkpt lat="46.06528" lon="6.9257"><ele></ele><time>2017-6-21T10:25:28Z</time></trkpt>
<trkpt lat="46.0653" lon="6.92563"><ele></ele><time>2017-6-21T10:25:31Z</time></trkpt>
<trkpt lat="46.06535" lon="6.92553"><ele></ele><time>2017-6-21T10:25:34Z</time></trkpt>
<trkpt lat="46.0654" lon="6.92543"><ele></ele><time>2017-6-21T10:25:37Z</time></trkpt>
<trkpt lat="46.06545" lon="6.92533"><ele></ele><time>2017-6-21T10:25:40Z</time></trkpt>
<trkpt lat="46.0655" lon="6.92523"><ele></ele><time>2017-6-21T10:25:43Z</time></trkpt>
<trkpt lat="46.06552" lon="6.92518"><ele></ele><time>2017-6-21T10:25:46Z</time></trkpt>
<trkpt lat="46.06555" lon="6.92513"><ele></ele><time>2017-6-21T10:25:49Z</time></trkpt>
<trkpt lat="46.06556" lon="6.92508"><ele></ele><time>2017-6-21T10:25:52Z</time></trkpt>
<trkpt lat="46.06553" lon="6.92497"><ele></ele><time>2017-6-21T10:25:55Z</time></trkpt>
<trkpt lat="46.06551" lon="6.92487"><ele></ele><time>2017-6-21T10:25:58Z</time></trkpt>
<trkpt lat="46.0655" lon="6.92482"><ele></ele><time>2017-6-21T10:26:1Z</time></trkpt>
<trkpt lat="46.06548" lon="6.92477"><ele></ele><time>2017-6-21T10:26:4Z</time></trkpt>
<trkpt lat="46.06546" lon="6.92466"><ele></ele><time>2017-6-21T10:26:7Z</time></trkpt>
<trkpt lat="46.06542" lon="6.92451"><ele></ele><time>2017-6-21T10:26:10Z</time></trkpt>
<trkpt lat="46.0654" lon="6.92445"><ele></ele><time>2017-6-21T10:26:13Z</time></trkpt>
<trkpt lat="46.06538" lon="6.92439"><ele></ele><time>2017-6-21T10:26:16Z</time></trkpt>
<trkpt lat="46.06534" lon="6.92426"><ele></ele><time>2017-6-21T10:26:19Z</time></trkpt>
<trkpt lat="46.0653" lon="6.92413"><ele></ele><time>2017-6-21T10:26:22Z</time></trkpt>
<trkpt lat="46.06526" lon="6.92401"><ele></ele><time>2017-6-21T10:26:25Z</time></trkpt>
<trkpt lat="46.06524" lon="6.92394"><ele></ele><time>2017-6-21T10:26:28Z</time></trkpt>
<trkpt lat="46.06521" lon="6.92381"><ele></ele><time>2017-6-21T10:26:31Z</time></trkpt>
<trkpt lat="46.0652" lon="6.92373"><ele></ele><time>2017-6-21T10:26:34Z</time></trkpt>
<trkpt lat="46.0652" lon="6.92358"><ele></ele><time>2017-6-21T10:26:37Z</time></trkpt>
<trkpt lat="46.06519" lon="6.92342"><ele></ele><time>2017-6-21T10:26:40Z</time></trkpt>
<trkpt lat="46.0652" lon="6.92335"><ele></ele><time>2017-6-21T10:26:43Z</time></trkpt>
<trkpt lat="46.06522" lon="6.92327"><ele></ele><time>2017-6-21T10:26:46Z</time></trkpt>
<trkpt lat="46.06527" lon="6.92313"><ele></ele><time>2017-6-21T10:26:49Z</time></trkpt>
<trkpt lat="46.06532" lon="6.92299"><ele></ele><time>2017-6-21T10:26:52Z</time></trkpt>
<trkpt lat="46.06537" lon="6.92285"><ele></ele><time>2017-6-21T10:26:55Z</time></trkpt>
<trkpt lat="46.06541" lon="6.92278"><ele></ele><time>2017-6-21T10:26:58Z</time></trkpt>
<trkpt lat="46.0655" lon="6.92259"><ele></ele><time>2017-6-21T10:27:1Z</time></trkpt>
<trkpt lat="46.06552" lon="6.92246"><ele></ele><time>2017-6-21T10:27:4Z</time></trkpt>
<trkpt lat="46.06554" lon="6.9224"><ele></ele><time>2017-6-21T10:27:7Z</time></trkpt>
<trkpt lat="46.06558" lon="6.92235"><ele></ele><time>2017-6-21T10:27:10Z</time></trkpt>
<trkpt lat="46.06562" lon="6.92231"><ele></ele><time>2017-6-21T10:27:13Z</time></trkpt>
<trkpt lat="46.06568" lon="6.92231"><ele></ele><time>2017-6-21T10:27:16Z</time></trkpt>
<trkpt lat="46.06578" lon="6.92237"><ele></ele><time>2017-6-21T10:27:19Z</time></trkpt>
<trkpt lat="46.06584" lon="6.9224"><ele></ele><time>2017-6-21T10:27:22Z</time></trkpt>
<trkpt lat="46.066" lon="6.92249"><ele></ele><time>2017-6-21T10:27:25Z</time></trkpt>
<trkpt lat="46.06605" lon="6.92252"><ele></ele><time>2017-6-21T10:27:28Z</time></trkpt>
<trkpt lat="46.06611" lon="6.92255"><ele></ele><time>2017-6-21T10:27:31Z</time></trkpt>
<trkpt lat="46.06625" lon="6.92257"><ele></ele><time>2017-6-21T10:27:34Z</time></trkpt>
<trkpt lat="46.06639" lon="6.92259"><ele></ele><time>2017-6-21T10:27:37Z</time></trkpt>
<trkpt lat="46.06652" lon="6.9226"><ele></ele><time>2017-6-21T10:27:40Z</time></trkpt>
<trkpt lat="46.06659" lon="6.92261"><ele></ele><time>2017-6-21T10:27:43Z</time></trkpt>
<trkpt lat="46.06665" lon="6.92261"><ele></ele><time>2017-6-21T10:27:46Z</time></trkpt>
<trkpt lat="46.06678" lon="6.9226"><ele></ele><time>2017-6-21T10:27:49Z</time></trkpt>
<trkpt lat="46.06683" lon="6.92257"><ele></ele><time>2017-6-21T10:27:52Z</time></trkpt>
<trkpt lat="46.06692" lon="6.92248"><ele></ele><time>2017-6-21T10:27:55Z</time></trkpt>
<trkpt lat="46.06694" lon="6.92241"><ele></ele><time>2017-6-21T10:27:58Z</time></trkpt>
<trkpt lat="46.06697" lon="6.92234"><ele></ele><time>2017-6-21T10:28:1Z</time></trkpt>
<trkpt lat="46.06704" lon="6.92213"><ele></ele><time>2017-6-21T10:28:4Z</time></trkpt>
<trkpt lat="46.06708" lon="6.92199"><ele></ele><time>2017-6-21T10:28:7Z</time></trkpt>
<trkpt lat="46.06713" lon="6.92186"><ele></ele><time>2017-6-21T10:28:10Z</time></trkpt>
<trkpt lat="46.06714" lon="6.92173"><ele></ele><time>2017-6-21T10:28:13Z</time></trkpt>
<trkpt lat="46.06715" lon="6.92161"><ele></ele><time>2017-6-21T10:28:16Z</time></trkpt>
<trkpt lat="46.06716" lon="6.92148"><ele></ele><time>2017-6-21T10:28:19Z</time></trkpt>
<trkpt lat="46.06717" lon="6.92136"><ele></ele><time>2017-6-21T10:28:22Z</time></trkpt>
<trkpt lat="46.06717" lon="6.9213"><ele></ele><time>2017-6-21T10:28:25Z</time></trkpt>
<trkpt lat="46.06715" lon="6.92124"><ele></ele><time>2017-6-21T10:28:28Z</time></trkpt>
<trkpt lat="46.06712" lon="6.92111"><ele></ele><time>2017-6-21T10:28:31Z</time></trkpt>
<trkpt lat="46.06709" lon="6.92098"><ele></ele><time>2017-6-21T10:28:34Z</time></trkpt>
<trkpt lat="46.06705" lon="6.92085"><ele></ele><time>2017-6-21T10:28:37Z</time></trkpt>
<trkpt lat="46.06703" lon="6.92079"><ele></ele><time>2017-6-21T10:28:40Z</time></trkpt>
<trkpt lat="46.067" lon="6.92066"><ele></ele><time>2017-6-21T10:28:43Z</time></trkpt>
<trkpt lat="46.06698" lon="6.92053"><ele></ele><time>2017-6-21T10:28:46Z</time></trkpt>
<trkpt lat="46.06696" lon="6.9204"><ele></ele><time>2017-6-21T10:28:49Z</time></trkpt>
<trkpt lat="46.06692" lon="6.9202"><ele></ele><time>2017-6-21T10:28:52Z</time></trkpt>
<trkpt lat="46.06691" lon="6.92013"><ele></ele><time>2017-6-21T10:28:55Z</time></trkpt>
<trkpt lat="46.06691" lon="6.92008"><ele></ele><time>2017-6-21T10:28:58Z</time></trkpt>
<trkpt lat="46.06691" lon="6.91996"><ele></ele><time>2017-6-21T10:29:1Z</time></trkpt>
<trkpt lat="46.06691" lon="6.9199"><ele></ele><time>2017-6-21T10:29:4Z</time></trkpt>
<trkpt lat="46.0669" lon="6.91978"><ele></ele><time>2017-6-21T10:29:7Z</time></trkpt>
<trkpt lat="46.06685" lon="6.91969"><ele></ele><time>2017-6-21T10:29:10Z</time></trkpt>
<trkpt lat="46.06679" lon="6.91956"><ele></ele><time>2017-6-21T10:29:13Z</time></trkpt>
<trkpt lat="46.06677" lon="6.91951"><ele></ele><time>2017-6-21T10:29:16Z</time></trkpt>
<trkpt lat="46.0667" lon="6.91938"><ele></ele><time>2017-6-21T10:29:19Z</time></trkpt>
<trkpt lat="46.06666" lon="6.91929"><ele></ele><time>2017-6-21T10:29:22Z</time></trkpt>
<trkpt lat="46.06664" lon="6.91925"><ele></ele><time>2017-6-21T10:29:25Z</time></trkpt>
<trkpt lat="46.06662" lon="6.91916"><ele></ele><time>2017-6-21T10:29:28Z</time></trkpt>
<trkpt lat="46.06658" lon="6.91904"><ele></ele><time>2017-6-21T10:29:31Z</time></trkpt>
<trkpt lat="46.06656" lon="6.919"><ele></ele><time>2017-6-21T10:29:34Z</time></trkpt>
<trkpt lat="46.06652" lon="6.91888"><ele></ele><time>2017-6-21T10:29:37Z</time></trkpt>
<trkpt lat="46.06651" lon="6.91884"><ele></ele><time>2017-6-21T10:29:40Z</time></trkpt>
<trkpt lat="46.06634" lon="6.9185"><ele></ele><time>2017-6-21T10:29:43Z</time></trkpt>
<trkpt lat="46.06634" lon="6.9185"><ele></ele><time>2017-6-21T10:29:46Z</time></trkpt>
<trkpt lat="46.06619" lon="6.91824"><ele></ele><time>2017-6-21T10:29:49Z</time></trkpt>
<trkpt lat="46.06618" lon="6.91822"><ele></ele><time>2017-6-21T10:29:52Z</time></trkpt>
<trkpt lat="46.06617" lon="6.9182"><ele></ele><time>2017-6-21T10:29:55Z</time></trkpt>
<trkpt lat="46.06616" lon="6.91818"><ele></ele><time>2017-6-21T10:29:58Z</time></trkpt>
<trkpt lat="46.06614" lon="6.91816"><ele></ele><time>2017-6-21T10:30:1Z</time></trkpt>
<trkpt lat="46.06613" lon="6.91814"><ele></ele><time>2017-6-21T10:30:4Z</time></trkpt>
<trkpt lat="46.06611" lon="6.91807"><ele></ele><time>2017-6-21T10:30:7Z</time></trkpt>
<trkpt lat="46.06608" lon="6.91801"><ele></ele><time>2017-6-21T10:30:10Z</time></trkpt>
<trkpt lat="46.06606" lon="6.91794"><ele></ele><time>2017-6-21T10:30:13Z</time></trkpt>
<trkpt lat="46.06603" lon="6.91788"><ele></ele><time>2017-6-21T10:30:16Z</time></trkpt>
<trkpt lat="46.066" lon="6.91781"><ele></ele><time>2017-6-21T10:30:19Z</time></trkpt>
<trkpt lat="46.06598" lon="6.91774"><ele></ele><time>2017-6-21T10:30:22Z</time></trkpt>
<trkpt lat="46.06595" lon="6.91768"><ele></ele><time>2017-6-21T10:30:25Z</time></trkpt>
<trkpt lat="46.06593" lon="6.91761"><ele></ele><time>2017-6-21T10:30:28Z</time></trkpt>
<trkpt lat="46.0659" lon="6.91755"><ele></ele><time>2017-6-21T10:30:31Z</time></trkpt>
<trkpt lat="46.06587" lon="6.91749"><ele></ele><time>2017-6-21T10:30:34Z</time></trkpt>
<trkpt lat="46.06583" lon="6.91744"><ele></ele><time>2017-6-21T10:30:37Z</time></trkpt>
<trkpt lat="46.06579" lon="6.91738"><ele></ele><time>2017-6-21T10:30:40Z</time></trkpt>
<trkpt lat="46.06575" lon="6.91733"><ele></ele><time>2017-6-21T10:30:43Z</time></trkpt>
<trkpt lat="46.06571" lon="6.91727"><ele></ele><time>2017-6-21T10:30:46Z</time></trkpt>
<trkpt lat="46.06567" lon="6.91722"><ele></ele><time>2017-6-21T10:30:49Z</time></trkpt>
<trkpt lat="46.06564" lon="6.91716"><ele></ele><time>2017-6-21T10:30:52Z</time></trkpt>
<trkpt lat="46.0656" lon="6.91711"><ele></ele><time>2017-6-21T10:30:55Z</time></trkpt>
<trkpt lat="46.06556" lon="6.91705"><ele></ele><time>2017-6-21T10:30:58Z</time></trkpt>
<trkpt lat="46.06555" lon="6.91696"><ele></ele><time>2017-6-21T10:31:1Z</time></trkpt>
<trkpt lat="46.06553" lon="6.91688"><ele></ele><time>2017-6-21T10:31:4Z</time></trkpt>
<trkpt lat="46.06552" lon="6.91679"><ele></ele><time>2017-6-21T10:31:7Z</time></trkpt>
<trkpt lat="46.0655" lon="6.91671"><ele></ele><time>2017-6-21T10:31:10Z</time></trkpt>
<trkpt lat="46.06548" lon="6.91662"><ele></ele><time>2017-6-21T10:31:13Z</time></trkpt>
<trkpt lat="46.06547" lon="6.91654"><ele></ele><time>2017-6-21T10:31:16Z</time></trkpt>
<trkpt lat="46.06545" lon="6.91645"><ele></ele><time>2017-6-21T10:31:19Z</time></trkpt>
<trkpt lat="46.06544" lon="6.91641"><ele></ele><time>2017-6-21T10:31:22Z</time></trkpt>
<trkpt lat="46.06544" lon="6.91638"><ele></ele><time>2017-6-21T10:31:25Z</time></trkpt>
<trkpt lat="46.06544" lon="6.9163"><ele></ele><time>2017-6-21T10:31:28Z</time></trkpt>
<trkpt lat="46.06543" lon="6.91622"><ele></ele><time>2017-6-21T10:31:31Z</time></trkpt>
<trkpt lat="46.06543" lon="6.91615"><ele></ele><time>2017-6-21T10:31:34Z</time></trkpt>
<trkpt lat="46.06542" lon="6.91607"><ele></ele><time>2017-6-21T10:31:37Z</time></trkpt>
<trkpt lat="46.06541" lon="6.916"><ele></ele><time>2017-6-21T10:31:40Z</time></trkpt>
<trkpt lat="46.06541" lon="6.91592"><ele></ele><time>2017-6-21T10:31:43Z</time></trkpt>
<trkpt lat="46.0654" lon="6.91585"><ele></ele><time>2017-6-21T10:31:46Z</time></trkpt>
<trkpt lat="46.0654" lon="6.91577"><ele></ele><time>2017-6-21T10:31:49Z</time></trkpt>
<trkpt lat="46.06539" lon="6.91573"><ele></ele><time>2017-6-21T10:31:52Z</time></trkpt>
<trkpt lat="46.06539" lon="6.9157"><ele></ele><time>2017-6-21T10:31:55Z</time></trkpt>
<trkpt lat="46.06539" lon="6.91566"><ele></ele><time>2017-6-21T10:31:58Z</time></trkpt>
<trkpt lat="46.06539" lon="6.91556"><ele></ele><time>2017-6-21T10:32:1Z</time></trkpt>
<trkpt lat="46.06539" lon="6.91552"><ele></ele><time>2017-6-21T10:32:4Z</time></trkpt>
<trkpt lat="46.06539" lon="6.91542"><ele></ele><time>2017-6-21T10:32:7Z</time></trkpt>
<trkpt lat="46.06538" lon="6.91538"><ele></ele><time>2017-6-21T10:32:10Z</time></trkpt>
<trkpt lat="46.06538" lon="6.91528"><ele></ele><time>2017-6-21T10:32:13Z</time></trkpt>
<trkpt lat="46.06538" lon="6.9152"><ele></ele><time>2017-6-21T10:32:16Z</time></trkpt>
<trkpt lat="46.06538" lon="6.91513"><ele></ele><time>2017-6-21T10:32:19Z</time></trkpt>
<trkpt lat="46.06538" lon="6.9151"><ele></ele><time>2017-6-21T10:32:22Z</time></trkpt>
<trkpt lat="46.06537" lon="6.91507"><ele></ele><time>2017-6-21T10:32:25Z</time></trkpt>
<trkpt lat="46.06537" lon="6.915"><ele></ele><time>2017-6-21T10:32:28Z</time></trkpt>
<trkpt lat="46.06536" lon="6.91494"><ele></ele><time>2017-6-21T10:32:31Z</time></trkpt>
<trkpt lat="46.06536" lon="6.91488"><ele></ele><time>2017-6-21T10:32:34Z</time></trkpt>
<trkpt lat="46.06535" lon="6.91481"><ele></ele><time>2017-6-21T10:32:37Z</time></trkpt>
<trkpt lat="46.06535" lon="6.91475"><ele></ele><time>2017-6-21T10:32:40Z</time></trkpt>
<trkpt lat="46.06534" lon="6.91469"><ele></ele><time>2017-6-21T10:32:43Z</time></trkpt>
<trkpt lat="46.06533" lon="6.91462"><ele></ele><time>2017-6-21T10:32:46Z</time></trkpt>
<trkpt lat="46.06533" lon="6.91459"><ele></ele><time>2017-6-21T10:32:49Z</time></trkpt>
<trkpt lat="46.06532" lon="6.9145"><ele></ele><time>2017-6-21T10:32:52Z</time></trkpt>
<trkpt lat="46.06532" lon="6.91443"><ele></ele><time>2017-6-21T10:32:55Z</time></trkpt>
<trkpt lat="46.06531" lon="6.9144"><ele></ele><time>2017-6-21T10:32:58Z</time></trkpt>
<trkpt lat="46.06529" lon="6.91431"><ele></ele><time>2017-6-21T10:33:1Z</time></trkpt>
<trkpt lat="46.06529" lon="6.91428"><ele></ele><time>2017-6-21T10:33:4Z</time></trkpt>
<trkpt lat="46.06527" lon="6.91419"><ele></ele><time>2017-6-21T10:33:7Z</time></trkpt>
<trkpt lat="46.06526" lon="6.91416"><ele></ele><time>2017-6-21T10:33:10Z</time></trkpt>
<trkpt lat="46.06524" lon="6.91408"><ele></ele><time>2017-6-21T10:33:13Z</time></trkpt>
<trkpt lat="46.06523" lon="6.91405"><ele></ele><time>2017-6-21T10:33:16Z</time></trkpt>
<trkpt lat="46.06522" lon="6.91402"><ele></ele><time>2017-6-21T10:33:19Z</time></trkpt>
<trkpt lat="46.06519" lon="6.91397"><ele></ele><time>2017-6-21T10:33:22Z</time></trkpt>
<trkpt lat="46.06517" lon="6.91395"><ele></ele><time>2017-6-21T10:33:25Z</time></trkpt>
<trkpt lat="46.06512" lon="6.91389"><ele></ele><time>2017-6-21T10:33:28Z</time></trkpt>
<trkpt lat="46.06508" lon="6.91384"><ele></ele><time>2017-6-21T10:33:31Z</time></trkpt>
<trkpt lat="46.06505" lon="6.9138"><ele></ele><time>2017-6-21T10:33:34Z</time></trkpt>
<trkpt lat="46.06503" lon="6.91378"><ele></ele><time>2017-6-21T10:33:37Z</time></trkpt>
<trkpt lat="46.06497" lon="6.91371"><ele></ele><time>2017-6-21T10:33:40Z</time></trkpt>
<trkpt lat="46.06494" lon="6.91367"><ele></ele><time>2017-6-21T10:33:43Z</time></trkpt>
<trkpt lat="46.0649" lon="6.91362"><ele></ele><time>2017-6-21T10:33:46Z</time></trkpt>
<trkpt lat="46.06487" lon="6.91358"><ele></ele><time>2017-6-21T10:33:49Z</time></trkpt>
<trkpt lat="46.06483" lon="6.91353"><ele></ele><time>2017-6-21T10:33:52Z</time></trkpt>
<trkpt lat="46.0648" lon="6.91348"><ele></ele><time>2017-6-21T10:33:55Z</time></trkpt>
<trkpt lat="46.06476" lon="6.91343"><ele></ele><time>2017-6-21T10:33:58Z</time></trkpt>
<trkpt lat="46.06472" lon="6.91338"><ele></ele><time>2017-6-21T10:34:1Z</time></trkpt>
<trkpt lat="46.06471" lon="6.91335"><ele></ele><time>2017-6-21T10:34:4Z</time></trkpt>
<trkpt lat="46.06465" lon="6.91327"><ele></ele><time>2017-6-21T10:34:7Z</time></trkpt>
<trkpt lat="46.06462" lon="6.91322"><ele></ele><time>2017-6-21T10:34:10Z</time></trkpt>
<trkpt lat="46.06458" lon="6.91317"><ele></ele><time>2017-6-21T10:34:13Z</time></trkpt>
<trkpt lat="46.06455" lon="6.91312"><ele></ele><time>2017-6-21T10:34:16Z</time></trkpt>
<trkpt lat="46.06452" lon="6.91307"><ele></ele><time>2017-6-21T10:34:19Z</time></trkpt>
<trkpt lat="46.06449" lon="6.91302"><ele></ele><time>2017-6-21T10:34:22Z</time></trkpt>
<trkpt lat="46.06448" lon="6.91298"><ele></ele><time>2017-6-21T10:34:25Z</time></trkpt>
<trkpt lat="46.06448" lon="6.91298"><ele></ele><time>2017-6-21T10:34:28Z</time></trkpt>
<trkpt lat="46.06448" lon="6.91297"><ele></ele><time>2017-6-21T10:34:31Z</time></trkpt>
<trkpt lat="46.06454" lon="6.91304"><ele></ele><time>2017-6-21T10:34:34Z</time></trkpt>
<trkpt lat="46.0647" lon="6.91319"><ele></ele><time>2017-6-21T10:34:37Z</time></trkpt>
<trkpt lat="46.06475" lon="6.91324"><ele></ele><time>2017-6-21T10:34:40Z</time></trkpt>
<trkpt lat="46.06485" lon="6.91335"><ele></ele><time>2017-6-21T10:34:43Z</time></trkpt>
<trkpt lat="46.0649" lon="6.91349"><ele></ele><time>2017-6-21T10:34:46Z</time></trkpt>
<trkpt lat="46.06495" lon="6.91362"><ele></ele><time>2017-6-21T10:34:49Z</time></trkpt>
<trkpt lat="46.06507" lon="6.91378"><ele></ele><time>2017-6-21T10:34:52Z</time></trkpt>
<trkpt lat="46.06515" lon="6.91389"><ele></ele><time>2017-6-21T10:34:55Z</time></trkpt>
<trkpt lat="46.06521" lon="6.91396"><ele></ele><time>2017-6-21T10:34:58Z</time></trkpt>
<trkpt lat="46.06532" lon="6.91409"><ele></ele><time>2017-6-21T10:35:1Z</time></trkpt>
<trkpt lat="46.06538" lon="6.91427"><ele></ele><time>2017-6-21T10:35:4Z</time></trkpt>
<trkpt lat="46.06539" lon="6.91438"><ele></ele><time>2017-6-21T10:35:7Z</time></trkpt>
<trkpt lat="46.0654" lon="6.91459"><ele></ele><time>2017-6-21T10:35:10Z</time></trkpt>
<trkpt lat="46.0654" lon="6.9147"><ele></ele><time>2017-6-21T10:35:13Z</time></trkpt>
<trkpt lat="46.06541" lon="6.9148"><ele></ele><time>2017-6-21T10:35:16Z</time></trkpt>
<trkpt lat="46.06541" lon="6.91491"><ele></ele><time>2017-6-21T10:35:19Z</time></trkpt>
<trkpt lat="46.06542" lon="6.91501"><ele></ele><time>2017-6-21T10:35:22Z</time></trkpt>
<trkpt lat="46.06542" lon="6.91512"><ele></ele><time>2017-6-21T10:35:25Z</time></trkpt>
<trkpt lat="46.06543" lon="6.91545"><ele></ele><time>2017-6-21T10:35:28Z</time></trkpt>
<trkpt lat="46.06543" lon="6.91556"><ele></ele><time>2017-6-21T10:35:31Z</time></trkpt>
<trkpt lat="46.06544" lon="6.91567"><ele></ele><time>2017-6-21T10:35:34Z</time></trkpt>
<trkpt lat="46.06544" lon="6.91578"><ele></ele><time>2017-6-21T10:35:37Z</time></trkpt>
<trkpt lat="46.06547" lon="6.91609"><ele></ele><time>2017-6-21T10:35:40Z</time></trkpt>
<trkpt lat="46.06547" lon="6.9162"><ele></ele><time>2017-6-21T10:35:43Z</time></trkpt>
<trkpt lat="46.06549" lon="6.91641"><ele></ele><time>2017-6-21T10:35:46Z</time></trkpt>
<trkpt lat="46.0655" lon="6.9165"><ele></ele><time>2017-6-21T10:35:49Z</time></trkpt>
<trkpt lat="46.06553" lon="6.9167"><ele></ele><time>2017-6-21T10:35:52Z</time></trkpt>
<trkpt lat="46.06554" lon="6.9168"><ele></ele><time>2017-6-21T10:35:55Z</time></trkpt>
<trkpt lat="46.06556" lon="6.91689"><ele></ele><time>2017-6-21T10:35:58Z</time></trkpt>
<trkpt lat="46.0656" lon="6.91697"><ele></ele><time>2017-6-21T10:36:1Z</time></trkpt>
<trkpt lat="46.06568" lon="6.91714"><ele></ele><time>2017-6-21T10:36:4Z</time></trkpt>
<trkpt lat="46.06572" lon="6.91721"><ele></ele><time>2017-6-21T10:36:7Z</time></trkpt>
<trkpt lat="46.06581" lon="6.91734"><ele></ele><time>2017-6-21T10:36:10Z</time></trkpt>
<trkpt lat="46.0659" lon="6.91748"><ele></ele><time>2017-6-21T10:36:13Z</time></trkpt>
<trkpt lat="46.06594" lon="6.91755"><ele></ele><time>2017-6-21T10:36:16Z</time></trkpt>
<trkpt lat="46.06597" lon="6.91763"><ele></ele><time>2017-6-21T10:36:19Z</time></trkpt>
<trkpt lat="46.06599" lon="6.91771"><ele></ele><time>2017-6-21T10:36:22Z</time></trkpt>
<trkpt lat="46.06608" lon="6.91794"><ele></ele><time>2017-6-21T10:36:25Z</time></trkpt>
<trkpt lat="46.06611" lon="6.91802"><ele></ele><time>2017-6-21T10:36:28Z</time></trkpt>
<trkpt lat="46.06617" lon="6.91817"><ele></ele><time>2017-6-21T10:36:31Z</time></trkpt>
<trkpt lat="46.0663" lon="6.91839"><ele></ele><time>2017-6-21T10:36:34Z</time></trkpt>
<trkpt lat="46.06639" lon="6.91853"><ele></ele><time>2017-6-21T10:36:37Z</time></trkpt>
<trkpt lat="46.06643" lon="6.9186"><ele></ele><time>2017-6-21T10:36:40Z</time></trkpt>
<trkpt lat="46.06647" lon="6.91868"><ele></ele><time>2017-6-21T10:36:43Z</time></trkpt>
<trkpt lat="46.0665" lon="6.91876"><ele></ele><time>2017-6-21T10:36:46Z</time></trkpt>
<trkpt lat="46.06656" lon="6.91893"><ele></ele><time>2017-6-21T10:36:49Z</time></trkpt>
<trkpt lat="46.06658" lon="6.91902"><ele></ele><time>2017-6-21T10:36:52Z</time></trkpt>
<trkpt lat="46.0666" lon="6.9191"><ele></ele><time>2017-6-21T10:36:55Z</time></trkpt>
<trkpt lat="46.06664" lon="6.91917"><ele></ele><time>2017-6-21T10:36:58Z</time></trkpt>
<trkpt lat="46.06668" lon="6.91925"><ele></ele><time>2017-6-21T10:37:1Z</time></trkpt>
<trkpt lat="46.0668" lon="6.91947"><ele></ele><time>2017-6-21T10:37:4Z</time></trkpt>
<trkpt lat="46.06684" lon="6.91955"><ele></ele><time>2017-6-21T10:37:7Z</time></trkpt>
<trkpt lat="46.06687" lon="6.91963"><ele></ele><time>2017-6-21T10:37:10Z</time></trkpt>
<trkpt lat="46.06694" lon="6.91975"><ele></ele><time>2017-6-21T10:37:13Z</time></trkpt>
<trkpt lat="46.06693" lon="6.91993"><ele></ele><time>2017-6-21T10:37:16Z</time></trkpt>
<trkpt lat="46.06693" lon="6.92011"><ele></ele><time>2017-6-21T10:37:19Z</time></trkpt>
<trkpt lat="46.06695" lon="6.92027"><ele></ele><time>2017-6-21T10:37:22Z</time></trkpt>
<trkpt lat="46.06698" lon="6.92044"><ele></ele><time>2017-6-21T10:37:25Z</time></trkpt>
<trkpt lat="46.067" lon="6.9206"><ele></ele><time>2017-6-21T10:37:28Z</time></trkpt>
<trkpt lat="46.06703" lon="6.92077"><ele></ele><time>2017-6-21T10:37:31Z</time></trkpt>
<trkpt lat="46.06708" lon="6.92094"><ele></ele><time>2017-6-21T10:37:34Z</time></trkpt>
<trkpt lat="46.06713" lon="6.92111"><ele></ele><time>2017-6-21T10:37:37Z</time></trkpt>
<trkpt lat="46.06714" lon="6.9212"><ele></ele><time>2017-6-21T10:37:40Z</time></trkpt>
<trkpt lat="46.06717" lon="6.92148"><ele></ele><time>2017-6-21T10:37:43Z</time></trkpt>
<trkpt lat="46.06713" lon="6.92166"><ele></ele><time>2017-6-21T10:37:46Z</time></trkpt>
<trkpt lat="46.06709" lon="6.92184"><ele></ele><time>2017-6-21T10:37:49Z</time></trkpt>
<trkpt lat="46.06707" lon="6.92193"><ele></ele><time>2017-6-21T10:37:52Z</time></trkpt>
<trkpt lat="46.06702" lon="6.9221"><ele></ele><time>2017-6-21T10:37:55Z</time></trkpt>
<trkpt lat="46.067" lon="6.92218"><ele></ele><time>2017-6-21T10:37:58Z</time></trkpt>
<trkpt lat="46.06697" lon="6.92226"><ele></ele><time>2017-6-21T10:38:1Z</time></trkpt>
<trkpt lat="46.06692" lon="6.92239"><ele></ele><time>2017-6-21T10:38:4Z</time></trkpt>
<trkpt lat="46.06682" lon="6.92247"><ele></ele><time>2017-6-21T10:38:7Z</time></trkpt>
<trkpt lat="46.06669" lon="6.92259"><ele></ele><time>2017-6-21T10:38:10Z</time></trkpt>
<trkpt lat="46.0666" lon="6.92259"><ele></ele><time>2017-6-21T10:38:13Z</time></trkpt>
<trkpt lat="46.06651" lon="6.92259"><ele></ele><time>2017-6-21T10:38:16Z</time></trkpt>
<trkpt lat="46.06646" lon="6.9226"><ele></ele><time>2017-6-21T10:38:19Z</time></trkpt>
<trkpt lat="46.06633" lon="6.9226"><ele></ele><time>2017-6-21T10:38:22Z</time></trkpt>
<trkpt lat="46.06629" lon="6.9226"><ele></ele><time>2017-6-21T10:38:25Z</time></trkpt>
<trkpt lat="46.0662" lon="6.9226"><ele></ele><time>2017-6-21T10:38:28Z</time></trkpt>
<trkpt lat="46.06606" lon="6.92252"><ele></ele><time>2017-6-21T10:38:31Z</time></trkpt>
<trkpt lat="46.06597" lon="6.92247"><ele></ele><time>2017-6-21T10:38:34Z</time></trkpt>
<trkpt lat="46.06588" lon="6.92242"><ele></ele><time>2017-6-21T10:38:37Z</time></trkpt>
<trkpt lat="46.06579" lon="6.92237"><ele></ele><time>2017-6-21T10:38:40Z</time></trkpt>
<trkpt lat="46.0657" lon="6.92234"><ele></ele><time>2017-6-21T10:38:43Z</time></trkpt>
<trkpt lat="46.06565" lon="6.92232"><ele></ele><time>2017-6-21T10:38:46Z</time></trkpt>
<trkpt lat="46.06561" lon="6.92232"><ele></ele><time>2017-6-21T10:38:49Z</time></trkpt>
<trkpt lat="46.06553" lon="6.92238"><ele></ele><time>2017-6-21T10:38:52Z</time></trkpt>
<trkpt lat="46.06549" lon="6.92242"><ele></ele><time>2017-6-21T10:38:55Z</time></trkpt>
<trkpt lat="46.06545" lon="6.92256"><ele></ele><time>2017-6-21T10:38:58Z</time></trkpt>
<trkpt lat="46.06541" lon="6.92269"><ele></ele><time>2017-6-21T10:39:1Z</time></trkpt>
<trkpt lat="46.06535" lon="6.92289"><ele></ele><time>2017-6-21T10:39:4Z</time></trkpt>
<trkpt lat="46.06531" lon="6.92303"><ele></ele><time>2017-6-21T10:39:7Z</time></trkpt>
<trkpt lat="46.06528" lon="6.92315"><ele></ele><time>2017-6-21T10:39:10Z</time></trkpt>
<trkpt lat="46.06525" lon="6.92328"><ele></ele><time>2017-6-21T10:39:13Z</time></trkpt>
<trkpt lat="46.06523" lon="6.92334"><ele></ele><time>2017-6-21T10:39:16Z</time></trkpt>
<trkpt lat="46.0652" lon="6.92347"><ele></ele><time>2017-6-21T10:39:19Z</time></trkpt>
<trkpt lat="46.0652" lon="6.92361"><ele></ele><time>2017-6-21T10:39:22Z</time></trkpt>
<trkpt lat="46.0652" lon="6.92375"><ele></ele><time>2017-6-21T10:39:25Z</time></trkpt>
<trkpt lat="46.06523" lon="6.92388"><ele></ele><time>2017-6-21T10:39:28Z</time></trkpt>
<trkpt lat="46.06522" lon="6.92394"><ele></ele><time>2017-6-21T10:39:31Z</time></trkpt>
<trkpt lat="46.06523" lon="6.92406"><ele></ele><time>2017-6-21T10:39:34Z</time></trkpt>
<trkpt lat="46.06529" lon="6.92419"><ele></ele><time>2017-6-21T10:39:37Z</time></trkpt>
<trkpt lat="46.06535" lon="6.92433"><ele></ele><time>2017-6-21T10:39:40Z</time></trkpt>
<trkpt lat="46.06538" lon="6.9244"><ele></ele><time>2017-6-21T10:39:43Z</time></trkpt>
<trkpt lat="46.06547" lon="6.9246"><ele></ele><time>2017-6-21T10:39:46Z</time></trkpt>
<trkpt lat="46.06551" lon="6.92476"><ele></ele><time>2017-6-21T10:39:49Z</time></trkpt>
<trkpt lat="46.06555" lon="6.92492"><ele></ele><time>2017-6-21T10:39:52Z</time></trkpt>
<trkpt lat="46.06558" lon="6.92499"><ele></ele><time>2017-6-21T10:39:55Z</time></trkpt>
<trkpt lat="46.06558" lon="6.92506"><ele></ele><time>2017-6-21T10:39:58Z</time></trkpt>
<trkpt lat="46.06557" lon="6.92519"><ele></ele><time>2017-6-21T10:40:1Z</time></trkpt>
<trkpt lat="46.0655" lon="6.92531"><ele></ele><time>2017-6-21T10:40:4Z</time></trkpt>
<trkpt lat="46.06544" lon="6.92542"><ele></ele><time>2017-6-21T10:40:7Z</time></trkpt>
<trkpt lat="46.06541" lon="6.92548"><ele></ele><time>2017-6-21T10:40:10Z</time></trkpt>
<trkpt lat="46.06532" lon="6.92566"><ele></ele><time>2017-6-21T10:40:13Z</time></trkpt>
<trkpt lat="46.06529" lon="6.92572"><ele></ele><time>2017-6-21T10:40:16Z</time></trkpt>
<trkpt lat="46.06523" lon="6.92595"><ele></ele><time>2017-6-21T10:40:19Z</time></trkpt>
<trkpt lat="46.06521" lon="6.92603"><ele></ele><time>2017-6-21T10:40:22Z</time></trkpt>
<trkpt lat="46.06515" lon="6.92626"><ele></ele><time>2017-6-21T10:40:25Z</time></trkpt>
<trkpt lat="46.06513" lon="6.92633"><ele></ele><time>2017-6-21T10:40:28Z</time></trkpt>
<trkpt lat="46.06511" lon="6.92641"><ele></ele><time>2017-6-21T10:40:31Z</time></trkpt>
<trkpt lat="46.06505" lon="6.92656"><ele></ele><time>2017-6-21T10:40:34Z</time></trkpt>
<trkpt lat="46.06503" lon="6.92664"><ele></ele><time>2017-6-21T10:40:37Z</time></trkpt>
<trkpt lat="46.06497" lon="6.9269"><ele></ele><time>2017-6-21T10:40:40Z</time></trkpt>
<trkpt lat="46.06493" lon="6.92707"><ele></ele><time>2017-6-21T10:40:43Z</time></trkpt>
<trkpt lat="46.06492" lon="6.92717"><ele></ele><time>2017-6-21T10:40:46Z</time></trkpt>
<trkpt lat="46.06493" lon="6.92738"><ele></ele><time>2017-6-21T10:40:49Z</time></trkpt>
<trkpt lat="46.06495" lon="6.92748"><ele></ele><time>2017-6-21T10:40:52Z</time></trkpt>
<trkpt lat="46.06497" lon="6.92758"><ele></ele><time>2017-6-21T10:40:55Z</time></trkpt>
<trkpt lat="46.065" lon="6.92768"><ele></ele><time>2017-6-21T10:40:58Z</time></trkpt>
<trkpt lat="46.06507" lon="6.92786"><ele></ele><time>2017-6-21T10:41:1Z</time></trkpt>
<trkpt lat="46.06519" lon="6.92799"><ele></ele><time>2017-6-21T10:41:4Z</time></trkpt>
<trkpt lat="46.06525" lon="6.92805"><ele></ele><time>2017-6-21T10:41:7Z</time></trkpt>
<trkpt lat="46.06536" lon="6.92819"><ele></ele><time>2017-6-21T10:41:10Z</time></trkpt>
<trkpt lat="46.0654" lon="6.92828"><ele></ele><time>2017-6-21T10:41:13Z</time></trkpt>
<trkpt lat="46.06543" lon="6.92837"><ele></ele><time>2017-6-21T10:41:16Z</time></trkpt>
<trkpt lat="46.06543" lon="6.92846"><ele></ele><time>2017-6-21T10:41:19Z</time></trkpt>
<trkpt lat="46.06544" lon="6.92856"><ele></ele><time>2017-6-21T10:41:22Z</time></trkpt>
<trkpt lat="46.06549" lon="6.92887"><ele></ele><time>2017-6-21T10:41:25Z</time></trkpt>
<trkpt lat="46.06548" lon="6.92895"><ele></ele><time>2017-6-21T10:41:28Z</time></trkpt>
<trkpt lat="46.06548" lon="6.92921"><ele></ele><time>2017-6-21T10:41:31Z</time></trkpt>
<trkpt lat="46.06556" lon="6.92932"><ele></ele><time>2017-6-21T10:41:34Z</time></trkpt>
<trkpt lat="46.0656" lon="6.92937"><ele></ele><time>2017-6-21T10:41:37Z</time></trkpt>
<trkpt lat="46.06572" lon="6.92954"><ele></ele><time>2017-6-21T10:41:40Z</time></trkpt>
<trkpt lat="46.0658" lon="6.92964"><ele></ele><time>2017-6-21T10:41:43Z</time></trkpt>
<trkpt lat="46.06583" lon="6.9297"><ele></ele><time>2017-6-21T10:41:46Z</time></trkpt>
<trkpt lat="46.06587" lon="6.92978"><ele></ele><time>2017-6-21T10:41:49Z</time></trkpt>
<trkpt lat="46.0659" lon="6.92985"><ele></ele><time>2017-6-21T10:41:52Z</time></trkpt>
<trkpt lat="46.06597" lon="6.92999"><ele></ele><time>2017-6-21T10:41:55Z</time></trkpt>
<trkpt lat="46.06607" lon="6.93021"><ele></ele><time>2017-6-21T10:41:58Z</time></trkpt>
<trkpt lat="46.06609" lon="6.93029"><ele></ele><time>2017-6-21T10:42:1Z</time></trkpt>
<trkpt lat="46.0661" lon="6.93038"><ele></ele><time>2017-6-21T10:42:4Z</time></trkpt>
<trkpt lat="46.0661" lon="6.93048"><ele></ele><time>2017-6-21T10:42:7Z</time></trkpt>
<trkpt lat="46.06612" lon="6.93055"><ele></ele><time>2017-6-21T10:42:10Z</time></trkpt>
<trkpt lat="46.06616" lon="6.93061"><ele></ele><time>2017-6-21T10:42:13Z</time></trkpt>
<trkpt lat="46.0662" lon="6.93066"><ele></ele><time>2017-6-21T10:42:16Z</time></trkpt>
<trkpt lat="46.0663" lon="6.93071"><ele></ele><time>2017-6-21T10:42:19Z</time></trkpt>
<trkpt lat="46.06641" lon="6.93076"><ele></ele><time>2017-6-21T10:42:22Z</time></trkpt>
<trkpt lat="46.06646" lon="6.93079"><ele></ele><time>2017-6-21T10:42:25Z</time></trkpt>
<trkpt lat="46.06662" lon="6.93087"><ele></ele><time>2017-6-21T10:42:28Z</time></trkpt>
<trkpt lat="46.06667" lon="6.93089"><ele></ele><time>2017-6-21T10:42:31Z</time></trkpt>
<trkpt lat="46.0667" lon="6.93092"><ele></ele><time>2017-6-21T10:42:34Z</time></trkpt>
<trkpt lat="46.06676" lon="6.93097"><ele></ele><time>2017-6-21T10:42:37Z</time></trkpt>
<trkpt lat="46.06682" lon="6.93102"><ele></ele><time>2017-6-21T10:42:40Z</time></trkpt>
<trkpt lat="46.06685" lon="6.93104"><ele></ele><time>2017-6-21T10:42:43Z</time></trkpt>
<trkpt lat="46.0669" lon="6.93109"><ele></ele><time>2017-6-21T10:42:46Z</time></trkpt>
<trkpt lat="46.06699" lon="6.93116"><ele></ele><time>2017-6-21T10:42:49Z</time></trkpt>
<trkpt lat="46.06718" lon="6.93145"><ele></ele><time>2017-6-21T10:42:52Z</time></trkpt>
<trkpt lat="46.06718" lon="6.93145"><ele></ele><time>2017-6-21T10:42:55Z</time></trkpt>
<trkpt lat="46.06731" lon="6.93168"><ele></ele><time>2017-6-21T10:42:58Z</time></trkpt>
<trkpt lat="46.06741" lon="6.93184"><ele></ele><time>2017-6-21T10:43:1Z</time></trkpt>
<trkpt lat="46.06744" lon="6.93188"><ele></ele><time>2017-6-21T10:43:4Z</time></trkpt>
<trkpt lat="46.06751" lon="6.93205"><ele></ele><time>2017-6-21T10:43:7Z</time></trkpt>
<trkpt lat="46.06762" lon="6.93231"><ele></ele><time>2017-6-21T10:43:10Z</time></trkpt>
<trkpt lat="46.06768" lon="6.93248"><ele></ele><time>2017-6-21T10:43:13Z</time></trkpt>
<trkpt lat="46.0677" lon="6.93258"><ele></ele><time>2017-6-21T10:43:16Z</time></trkpt>
<trkpt lat="46.06775" lon="6.93286"><ele></ele><time>2017-6-21T10:43:19Z</time></trkpt>
<trkpt lat="46.06776" lon="6.93295"><ele></ele><time>2017-6-21T10:43:22Z</time></trkpt>
<trkpt lat="46.06779" lon="6.93314"><ele></ele><time>2017-6-21T10:43:25Z</time></trkpt>
<trkpt lat="46.0678" lon="6.93323"><ele></ele><time>2017-6-21T10:43:28Z</time></trkpt>
<trkpt lat="46.06781" lon="6.93341"><ele></ele><time>2017-6-21T10:43:31Z</time></trkpt>
<trkpt lat="46.06782" lon="6.93359"><ele></ele><time>2017-6-21T10:43:34Z</time></trkpt>
<trkpt lat="46.06783" lon="6.93377"><ele></ele><time>2017-6-21T10:43:37Z</time></trkpt>
<trkpt lat="46.06783" lon="6.93386"><ele></ele><time>2017-6-21T10:43:40Z</time></trkpt>
<trkpt lat="46.06782" lon="6.934"><ele></ele><time>2017-6-21T10:43:43Z</time></trkpt>
<trkpt lat="46.0678" lon="6.93414"><ele></ele><time>2017-6-21T10:43:46Z</time></trkpt>
<trkpt lat="46.06779" lon="6.93436"><ele></ele><time>2017-6-21T10:43:49Z</time></trkpt>
<trkpt lat="46.06778" lon="6.9345"><ele></ele><time>2017-6-21T10:43:52Z</time></trkpt>
<trkpt lat="46.06776" lon="6.93457"><ele></ele><time>2017-6-21T10:43:55Z</time></trkpt>
<trkpt lat="46.0677" lon="6.93477"><ele></ele><time>2017-6-21T10:43:58Z</time></trkpt>
<trkpt lat="46.06765" lon="6.9348"><ele></ele><time>2017-6-21T10:44:1Z</time></trkpt>
<trkpt lat="46.06761" lon="6.93484"><ele></ele><time>2017-6-21T10:44:4Z</time></trkpt>
<trkpt lat="46.06756" lon="6.93487"><ele></ele><time>2017-6-21T10:44:7Z</time></trkpt>
<trkpt lat="46.06752" lon="6.93491"><ele></ele><time>2017-6-21T10:44:10Z</time></trkpt>
<trkpt lat="46.06749" lon="6.93492"><ele></ele><time>2017-6-21T10:44:13Z</time></trkpt>
<trkpt lat="46.06745" lon="6.93496"><ele></ele><time>2017-6-21T10:44:16Z</time></trkpt>
<trkpt lat="46.06743" lon="6.93498"><ele></ele><time>2017-6-21T10:44:19Z</time></trkpt>
<trkpt lat="46.06744" lon="6.935"><ele></ele><time>2017-6-21T10:44:22Z</time></trkpt>
<trkpt lat="46.06744" lon="6.93505"><ele></ele><time>2017-6-21T10:44:25Z</time></trkpt>
<trkpt lat="46.06745" lon="6.93513"><ele></ele><time>2017-6-21T10:44:28Z</time></trkpt>
<trkpt lat="46.06746" lon="6.93518"><ele></ele><time>2017-6-21T10:44:31Z</time></trkpt>
<trkpt lat="46.06746" lon="6.93523"><ele></ele><time>2017-6-21T10:44:34Z</time></trkpt>
<trkpt lat="46.06747" lon="6.93528"><ele></ele><time>2017-6-21T10:44:37Z</time></trkpt>
<trkpt lat="46.06747" lon="6.93533"><ele></ele><time>2017-6-21T10:44:40Z</time></trkpt>
<trkpt lat="46.06748" lon="6.93538"><ele></ele><time>2017-6-21T10:44:43Z</time></trkpt>
<trkpt lat="46.06748" lon="6.93543"><ele></ele><time>2017-6-21T10:44:46Z</time></trkpt>
<trkpt lat="46.06748" lon="6.93546"><ele></ele><time>2017-6-21T10:44:49Z</time></trkpt>
<trkpt lat="46.06748" lon="6.93548"><ele></ele><time>2017-6-21T10:44:52Z</time></trkpt>
<trkpt lat="46.06747" lon="6.93553"><ele></ele><time>2017-6-21T10:44:55Z</time></trkpt>
<trkpt lat="46.06746" lon="6.93557"><ele></ele><time>2017-6-21T10:44:58Z</time></trkpt>
<trkpt lat="46.06745" lon="6.93559"><ele></ele><time>2017-6-21T10:45:1Z</time></trkpt>
<trkpt lat="46.06745" lon="6.93562"><ele></ele><time>2017-6-21T10:45:4Z</time></trkpt>
<trkpt lat="46.06744" lon="6.93566"><ele></ele><time>2017-6-21T10:45:7Z</time></trkpt>
<trkpt lat="46.06743" lon="6.93571"><ele></ele><time>2017-6-21T10:45:10Z</time></trkpt>
<trkpt lat="46.06742" lon="6.93576"><ele></ele><time>2017-6-21T10:45:13Z</time></trkpt>
<trkpt lat="46.0674" lon="6.9358"><ele></ele><time>2017-6-21T10:45:16Z</time></trkpt>
<trkpt lat="46.0674" lon="6.93582"><ele></ele><time>2017-6-21T10:45:19Z</time></trkpt>
<trkpt lat="46.06739" lon="6.93587"><ele></ele><time>2017-6-21T10:45:22Z</time></trkpt>
<trkpt lat="46.06737" lon="6.93594"><ele></ele><time>2017-6-21T10:45:25Z</time></trkpt>
<trkpt lat="46.06736" lon="6.93599"><ele></ele><time>2017-6-21T10:45:28Z</time></trkpt>
<trkpt lat="46.06736" lon="6.93601"><ele></ele><time>2017-6-21T10:45:31Z</time></trkpt>
<trkpt lat="46.06736" lon="6.93603"><ele></ele><time>2017-6-21T10:45:34Z</time></trkpt>
<trkpt lat="46.06737" lon="6.93607"><ele></ele><time>2017-6-21T10:45:37Z</time></trkpt>
<trkpt lat="46.06737" lon="6.93611"><ele></ele><time>2017-6-21T10:45:40Z</time></trkpt>
<trkpt lat="46.06737" lon="6.93614"><ele></ele><time>2017-6-21T10:45:43Z</time></trkpt>
<trkpt lat="46.06738" lon="6.93618"><ele></ele><time>2017-6-21T10:45:46Z</time></trkpt>
<trkpt lat="46.06738" lon="6.9362"><ele></ele><time>2017-6-21T10:45:49Z</time></trkpt>
<trkpt lat="46.06738" lon="6.93624"><ele></ele><time>2017-6-21T10:45:52Z</time></trkpt>
<trkpt lat="46.06738" lon="6.93628"><ele></ele><time>2017-6-21T10:45:55Z</time></trkpt>
<trkpt lat="46.06739" lon="6.93634"><ele></ele><time>2017-6-21T10:45:58Z</time></trkpt>
<trkpt lat="46.06739" lon="6.93638"><ele></ele><time>2017-6-21T10:46:1Z</time></trkpt>
<trkpt lat="46.0674" lon="6.93642"><ele></ele><time>2017-6-21T10:46:4Z</time></trkpt>
<trkpt lat="46.0674" lon="6.93644"><ele></ele><time>2017-6-21T10:46:7Z</time></trkpt>
<trkpt lat="46.0674" lon="6.9365"><ele></ele><time>2017-6-21T10:46:10Z</time></trkpt>
<trkpt lat="46.0674" lon="6.93651"><ele></ele><time>2017-6-21T10:46:13Z</time></trkpt>
<trkpt lat="46.06741" lon="6.93657"><ele></ele><time>2017-6-21T10:46:16Z</time></trkpt>
<trkpt lat="46.06741" lon="6.93659"><ele></ele><time>2017-6-21T10:46:19Z</time></trkpt>
<trkpt lat="46.06741" lon="6.93665"><ele></ele><time>2017-6-21T10:46:22Z</time></trkpt>
<trkpt lat="46.06741" lon="6.93667"><ele></ele><time>2017-6-21T10:46:25Z</time></trkpt>
<trkpt lat="46.06739" lon="6.93673"><ele></ele><time>2017-6-21T10:46:28Z</time></trkpt>
<trkpt lat="46.06739" lon="6.93675"><ele></ele><time>2017-6-21T10:46:31Z</time></trkpt>
<trkpt lat="46.06738" lon="6.9368"><ele></ele><time>2017-6-21T10:46:34Z</time></trkpt>
<trkpt lat="46.06737" lon="6.93684"><ele></ele><time>2017-6-21T10:46:37Z</time></trkpt>
<trkpt lat="46.06736" lon="6.93688"><ele></ele><time>2017-6-21T10:46:40Z</time></trkpt>
<trkpt lat="46.06735" lon="6.9369"><ele></ele><time>2017-6-21T10:46:43Z</time></trkpt>
<trkpt lat="46.06735" lon="6.93692"><ele></ele><time>2017-6-21T10:46:46Z</time></trkpt>
<trkpt lat="46.06734" lon="6.93696"><ele></ele><time>2017-6-21T10:46:49Z</time></trkpt>
<trkpt lat="46.06733" lon="6.937"><ele></ele><time>2017-6-21T10:46:52Z</time></trkpt>
<trkpt lat="46.06731" lon="6.93704"><ele></ele><time>2017-6-21T10:46:55Z</time></trkpt>
<trkpt lat="46.0673" lon="6.93708"><ele></ele><time>2017-6-21T10:46:58Z</time></trkpt>
<trkpt lat="46.06729" lon="6.93712"><ele></ele><time>2017-6-21T10:47:1Z</time></trkpt>
<trkpt lat="46.06728" lon="6.93719"><ele></ele><time>2017-6-21T10:47:4Z</time></trkpt>
<trkpt lat="46.06727" lon="6.93723"><ele></ele><time>2017-6-21T10:47:7Z</time></trkpt>
<trkpt lat="46.06726" lon="6.93727"><ele></ele><time>2017-6-21T10:47:10Z</time></trkpt>
<trkpt lat="46.06724" lon="6.9373"><ele></ele><time>2017-6-21T10:47:13Z</time></trkpt>
<trkpt lat="46.06723" lon="6.93733"><ele></ele><time>2017-6-21T10:47:16Z</time></trkpt>
<trkpt lat="46.06722" lon="6.93736"><ele></ele><time>2017-6-21T10:47:19Z</time></trkpt>
<trkpt lat="46.0672" lon="6.93739"><ele></ele><time>2017-6-21T10:47:22Z</time></trkpt>
<trkpt lat="46.06719" lon="6.93742"><ele></ele><time>2017-6-21T10:47:25Z</time></trkpt>
<trkpt lat="46.06718" lon="6.93745"><ele></ele><time>2017-6-21T10:47:28Z</time></trkpt>
<trkpt lat="46.06717" lon="6.93747"><ele></ele><time>2017-6-21T10:47:31Z</time></trkpt>
<trkpt lat="46.06716" lon="6.93748"><ele></ele><time>2017-6-21T10:47:34Z</time></trkpt>
<trkpt lat="46.06715" lon="6.93751"><ele></ele><time>2017-6-21T10:47:37Z</time></trkpt>
<trkpt lat="46.06714" lon="6.93754"><ele></ele><time>2017-6-21T10:47:40Z</time></trkpt>
<trkpt lat="46.0671" lon="6.93762"><ele></ele><time>2017-6-21T10:47:43Z</time></trkpt>
<trkpt lat="46.06709" lon="6.93765"><ele></ele><time>2017-6-21T10:47:46Z</time></trkpt>
<trkpt lat="46.06708" lon="6.93767"><ele></ele><time>2017-6-21T10:47:49Z</time></trkpt>
<trkpt lat="46.06713" lon="6.93764"><ele></ele><time>2017-6-21T10:47:52Z</time></trkpt>
<trkpt lat="46.06716" lon="6.93762"><ele></ele><time>2017-6-21T10:47:55Z</time></trkpt>
<trkpt lat="46.06719" lon="6.9376"><ele></ele><time>2017-6-21T10:47:58Z</time></trkpt>
<trkpt lat="46.06722" lon="6.93758"><ele></ele><time>2017-6-21T10:48:1Z</time></trkpt>
<trkpt lat="46.06725" lon="6.93756"><ele></ele><time>2017-6-21T10:48:4Z</time></trkpt>
<trkpt lat="46.06727" lon="6.93755"><ele></ele><time>2017-6-21T10:48:7Z</time></trkpt>
<trkpt lat="46.06731" lon="6.93752"><ele></ele><time>2017-6-21T10:48:10Z</time></trkpt>
<trkpt lat="46.06734" lon="6.9375"><ele></ele><time>2017-6-21T10:48:13Z</time></trkpt>
<trkpt lat="46.06736" lon="6.9375"><ele></ele><time>2017-6-21T10:48:16Z</time></trkpt>
<trkpt lat="46.0674" lon="6.93747"><ele></ele><time>2017-6-21T10:48:19Z</time></trkpt>
<trkpt lat="46.06743" lon="6.93745"><ele></ele><time>2017-6-21T10:48:22Z</time></trkpt>
<trkpt lat="46.06747" lon="6.93743"><ele></ele><time>2017-6-21T10:48:25Z</time></trkpt>
<trkpt lat="46.0675" lon="6.93741"><ele></ele><time>2017-6-21T10:48:28Z</time></trkpt>
<trkpt lat="46.06751" lon="6.93739"><ele></ele><time>2017-6-21T10:48:31Z</time></trkpt>
<trkpt lat="46.06753" lon="6.93736"><ele></ele><time>2017-6-21T10:48:34Z</time></trkpt>
<trkpt lat="46.06754" lon="6.93732"><ele></ele><time>2017-6-21T10:48:37Z</time></trkpt>
<trkpt lat="46.06756" lon="6.93728"><ele></ele><time>2017-6-21T10:48:40Z</time></trkpt>
<trkpt lat="46.06759" lon="6.93723"><ele></ele><time>2017-6-21T10:48:43Z</time></trkpt>
<trkpt lat="46.06761" lon="6.93719"><ele></ele><time>2017-6-21T10:48:46Z</time></trkpt>
<trkpt lat="46.06763" lon="6.93715"><ele></ele><time>2017-6-21T10:48:49Z</time></trkpt>
<trkpt lat="46.06764" lon="6.93711"><ele></ele><time>2017-6-21T10:48:52Z</time></trkpt>
<trkpt lat="46.06766" lon="6.93708"><ele></ele><time>2017-6-21T10:48:55Z</time></trkpt>
<trkpt lat="46.06768" lon="6.93704"><ele></ele><time>2017-6-21T10:48:58Z</time></trkpt>
<trkpt lat="46.06769" lon="6.93702"><ele></ele><time>2017-6-21T10:49:1Z</time></trkpt>
<trkpt lat="46.06772" lon="6.93696"><ele></ele><time>2017-6-21T10:49:4Z</time></trkpt>
<trkpt lat="46.06773" lon="6.93693"><ele></ele><time>2017-6-21T10:49:7Z</time></trkpt>
<trkpt lat="46.06775" lon="6.93689"><ele></ele><time>2017-6-21T10:49:10Z</time></trkpt>
<trkpt lat="46.06777" lon="6.93686"><ele></ele><time>2017-6-21T10:49:13Z</time></trkpt>
<trkpt lat="46.06779" lon="6.93683"><ele></ele><time>2017-6-21T10:49:16Z</time></trkpt>
<trkpt lat="46.06781" lon="6.93682"><ele></ele><time>2017-6-21T10:49:19Z</time></trkpt>
<trkpt lat="46.06783" lon="6.93679"><ele></ele><time>2017-6-21T10:49:22Z</time></trkpt>
<trkpt lat="46.06787" lon="6.93676"><ele></ele><time>2017-6-21T10:49:25Z</time></trkpt>
<trkpt lat="46.06789" lon="6.93673"><ele></ele><time>2017-6-21T10:49:28Z</time></trkpt>
<trkpt lat="46.06791" lon="6.93671"><ele></ele><time>2017-6-21T10:49:31Z</time></trkpt>
<trkpt lat="46.06794" lon="6.93669"><ele></ele><time>2017-6-21T10:49:34Z</time></trkpt>
<trkpt lat="46.06796" lon="6.93666"><ele></ele><time>2017-6-21T10:49:37Z</time></trkpt>
<trkpt lat="46.06798" lon="6.93664"><ele></ele><time>2017-6-21T10:49:40Z</time></trkpt>
<trkpt lat="46.06801" lon="6.93661"><ele></ele><time>2017-6-21T10:49:43Z</time></trkpt>
<trkpt lat="46.06803" lon="6.93659"><ele></ele><time>2017-6-21T10:49:46Z</time></trkpt>
<trkpt lat="46.06806" lon="6.93657"><ele></ele><time>2017-6-21T10:49:49Z</time></trkpt>
<trkpt lat="46.06808" lon="6.93654"><ele></ele><time>2017-6-21T10:49:52Z</time></trkpt>
<trkpt lat="46.0681" lon="6.93652"><ele></ele><time>2017-6-21T10:49:55Z</time></trkpt>
<trkpt lat="46.06812" lon="6.9365"><ele></ele><time>2017-6-21T10:49:58Z</time></trkpt>
<trkpt lat="46.06812" lon="6.9365"><ele></ele><time>2017-6-21T10:50:1Z</time></trkpt>
<trkpt lat="46.06811" lon="6.9365"><ele></ele><time>2017-6-21T10:50:4Z</time></trkpt>
<trkpt lat="46.0681" lon="6.93647"><ele></ele><time>2017-6-21T10:50:7Z</time></trkpt>
<trkpt lat="46.06808" lon="6.93644"><ele></ele><time>2017-6-21T10:50:10Z</time></trkpt>
<trkpt lat="46.06807" lon="6.93641"><ele></ele><time>2017-6-21T10:50:13Z</time></trkpt>
<trkpt lat="46.06806" lon="6.93638"><ele></ele><time>2017-6-21T10:50:16Z</time></trkpt>
<trkpt lat="46.06805" lon="6.93636"><ele></ele><time>2017-6-21T10:50:19Z</time></trkpt>
<trkpt lat="46.06803" lon="6.93632"><ele></ele><time>2017-6-21T10:50:22Z</time></trkpt>
<trkpt lat="46.06802" lon="6.93629"><ele></ele><time>2017-6-21T10:50:25Z</time></trkpt>
<trkpt lat="46.06801" lon="6.93625"><ele></ele><time>2017-6-21T10:50:28Z</time></trkpt>
<trkpt lat="46.06799" lon="6.93622"><ele></ele><time>2017-6-21T10:50:31Z</time></trkpt>
<trkpt lat="46.06798" lon="6.93619"><ele></ele><time>2017-6-21T10:50:34Z</time></trkpt>
<trkpt lat="46.06798" lon="6.93609"><ele></ele><time>2017-6-21T10:50:37Z</time></trkpt>
<trkpt lat="46.06798" lon="6.93609"><ele></ele><time>2017-6-21T10:50:40Z</time></trkpt>
<trkpt lat="46.06798" lon="6.93602"><ele></ele><time>2017-6-21T10:50:43Z</time></trkpt>
<trkpt lat="46.06799" lon="6.93604"><ele></ele><time>2017-6-21T10:50:46Z</time></trkpt>
<trkpt lat="46.068" lon="6.93609"><ele></ele><time>2017-6-21T10:50:49Z</time></trkpt>
<trkpt lat="46.068" lon="6.93613"><ele></ele><time>2017-6-21T10:50:52Z</time></trkpt>
<trkpt lat="46.068" lon="6.93615"><ele></ele><time>2017-6-21T10:50:55Z</time></trkpt>
<trkpt lat="46.06797" lon="6.93616"><ele></ele><time>2017-6-21T10:50:58Z</time></trkpt>
<trkpt lat="46.06796" lon="6.93616"><ele></ele><time>2017-6-21T10:51:1Z</time></trkpt>
<trkpt lat="46.06794" lon="6.93609"><ele></ele><time>2017-6-21T10:51:4Z</time></trkpt>
<trkpt lat="46.06796" lon="6.93607"><ele></ele><time>2017-6-21T10:51:7Z</time></trkpt>
<trkpt lat="46.06798" lon="6.93607"><ele></ele><time>2017-6-21T10:51:10Z</time></trkpt>
<trkpt lat="46.068" lon="6.9361"><ele></ele><time>2017-6-21T10:51:13Z</time></trkpt>
<trkpt lat="46.06802" lon="6.93614"><ele></ele><time>2017-6-21T10:51:16Z</time></trkpt>
<trkpt lat="46.06803" lon="6.9362"><ele></ele><time>2017-6-21T10:51:19Z</time></trkpt>
<trkpt lat="46.06805" lon="6.93631"><ele></ele><time>2017-6-21T10:51:22Z</time></trkpt>
<trkpt lat="46.06806" lon="6.93642"><ele></ele><time>2017-6-21T10:51:25Z</time></trkpt>
<trkpt lat="46.06808" lon="6.93653"><ele></ele><time>2017-6-21T10:51:28Z</time></trkpt>
<trkpt lat="46.0681" lon="6.93659"><ele></ele><time>2017-6-21T10:51:31Z</time></trkpt>
<trkpt lat="46.06819" lon="6.9367"><ele></ele><time>2017-6-21T10:51:34Z</time></trkpt>
<trkpt lat="46.06828" lon="6.93682"><ele></ele><time>2017-6-21T10:51:37Z</time></trkpt>
<trkpt lat="46.06837" lon="6.93693"><ele></ele><time>2017-6-21T10:51:40Z</time></trkpt>
<trkpt lat="46.06851" lon="6.93713"><ele></ele><time>2017-6-21T10:51:43Z</time></trkpt>
<trkpt lat="46.06858" lon="6.93724"><ele></ele><time>2017-6-21T10:51:46Z</time></trkpt>
<trkpt lat="46.06865" lon="6.93736"><ele></ele><time>2017-6-21T10:51:49Z</time></trkpt>
<trkpt lat="46.06872" lon="6.93747"><ele></ele><time>2017-6-21T10:51:52Z</time></trkpt>
<trkpt lat="46.06878" lon="6.93761"><ele></ele><time>2017-6-21T10:51:55Z</time></trkpt>
<trkpt lat="46.06886" lon="6.938"><ele></ele><time>2017-6-21T10:51:58Z</time></trkpt>
<trkpt lat="46.0689" lon="6.9382"><ele></ele><time>2017-6-21T10:52:1Z</time></trkpt>
<trkpt lat="46.06894" lon="6.9384"><ele></ele><time>2017-6-21T10:52:4Z</time></trkpt>
<trkpt lat="46.06902" lon="6.93878"><ele></ele><time>2017-6-21T10:52:7Z</time></trkpt>
<trkpt lat="46.06914" lon="6.93906"><ele></ele><time>2017-6-21T10:52:10Z</time></trkpt>
<trkpt lat="46.06926" lon="6.93933"><ele></ele><time>2017-6-21T10:52:13Z</time></trkpt>
<trkpt lat="46.06942" lon="6.94012"><ele></ele><time>2017-6-21T10:52:16Z</time></trkpt>
<trkpt lat="46.06955" lon="6.94058"><ele></ele><time>2017-6-21T10:52:19Z</time></trkpt>
<trkpt lat="46.06962" lon="6.94081"><ele></ele><time>2017-6-21T10:52:22Z</time></trkpt>
<trkpt lat="46.0697" lon="6.94103"><ele></ele><time>2017-6-21T10:52:25Z</time></trkpt>
<trkpt lat="46.06987" lon="6.94147"><ele></ele><time>2017-6-21T10:52:28Z</time></trkpt>
<trkpt lat="46.06998" lon="6.94166"><ele></ele><time>2017-6-21T10:52:31Z</time></trkpt>
<trkpt lat="46.07006" lon="6.94184"><ele></ele><time>2017-6-21T10:52:34Z</time></trkpt>
<trkpt lat="46.07022" lon="6.9422"><ele></ele><time>2017-6-21T10:52:37Z</time></trkpt>
<trkpt lat="46.0703" lon="6.94237"><ele></ele><time>2017-6-21T10:52:40Z</time></trkpt>
<trkpt lat="46.07035" lon="6.94255"><ele></ele><time>2017-6-21T10:52:43Z</time></trkpt>
<trkpt lat="46.07041" lon="6.94273"><ele></ele><time>2017-6-21T10:52:46Z</time></trkpt>
<trkpt lat="46.07047" lon="6.94291"><ele></ele><time>2017-6-21T10:52:49Z</time></trkpt>
<trkpt lat="46.07055" lon="6.94306"><ele></ele><time>2017-6-21T10:52:52Z</time></trkpt>
<trkpt lat="46.07066" lon="6.94318"><ele></ele><time>2017-6-21T10:52:55Z</time></trkpt>
<trkpt lat="46.07086" lon="6.94344"><ele></ele><time>2017-6-21T10:52:58Z</time></trkpt>
<trkpt lat="46.07094" lon="6.94361"><ele></ele><time>2017-6-21T10:53:1Z</time></trkpt>
<trkpt lat="46.07102" lon="6.94378"><ele></ele><time>2017-6-21T10:53:4Z</time></trkpt>
<trkpt lat="46.07118" lon="6.94412"><ele></ele><time>2017-6-21T10:53:7Z</time></trkpt>
<trkpt lat="46.07136" lon="6.94445"><ele></ele><time>2017-6-21T10:53:10Z</time></trkpt>
<trkpt lat="46.07144" lon="6.94463"><ele></ele><time>2017-6-21T10:53:13Z</time></trkpt>
<trkpt lat="46.07151" lon="6.94484"><ele></ele><time>2017-6-21T10:53:16Z</time></trkpt>
<trkpt lat="46.07166" lon="6.94524"><ele></ele><time>2017-6-21T10:53:19Z</time></trkpt>
<trkpt lat="46.07182" lon="6.9456"><ele></ele><time>2017-6-21T10:53:22Z</time></trkpt>
<trkpt lat="46.07191" lon="6.94575"><ele></ele><time>2017-6-21T10:53:25Z</time></trkpt>
<trkpt lat="46.07202" lon="6.94589"><ele></ele><time>2017-6-21T10:53:28Z</time></trkpt>
<trkpt lat="46.07231" lon="6.94611"><ele></ele><time>2017-6-21T10:53:31Z</time></trkpt>
<trkpt lat="46.07256" lon="6.94642"><ele></ele><time>2017-6-21T10:53:34Z</time></trkpt>
<trkpt lat="46.07268" lon="6.94659"><ele></ele><time>2017-6-21T10:53:37Z</time></trkpt>
<trkpt lat="46.07279" lon="6.94678"><ele></ele><time>2017-6-21T10:53:40Z</time></trkpt>
<trkpt lat="46.07289" lon="6.94698"><ele></ele><time>2017-6-21T10:53:43Z</time></trkpt>
<trkpt lat="46.07298" lon="6.94721"><ele></ele><time>2017-6-21T10:53:46Z</time></trkpt>
<trkpt lat="46.07305" lon="6.94744"><ele></ele><time>2017-6-21T10:53:49Z</time></trkpt>
<trkpt lat="46.07311" lon="6.94767"><ele></ele><time>2017-6-21T10:53:52Z</time></trkpt>
<trkpt lat="46.07317" lon="6.94789"><ele></ele><time>2017-6-21T10:53:55Z</time></trkpt>
<trkpt lat="46.07334" lon="6.9483"><ele></ele><time>2017-6-21T10:53:58Z</time></trkpt>
<trkpt lat="46.07343" lon="6.9485"><ele></ele><time>2017-6-21T10:54:1Z</time></trkpt>
<trkpt lat="46.07353" lon="6.9487"><ele></ele><time>2017-6-21T10:54:4Z</time></trkpt>
<trkpt lat="46.07364" lon="6.94889"><ele></ele><time>2017-6-21T10:54:7Z</time></trkpt>
<trkpt lat="46.07377" lon="6.94904"><ele></ele><time>2017-6-21T10:54:10Z</time></trkpt>
<trkpt lat="46.0739" lon="6.94919"><ele></ele><time>2017-6-21T10:54:13Z</time></trkpt>
<trkpt lat="46.07418" lon="6.94947"><ele></ele><time>2017-6-21T10:54:16Z</time></trkpt>
<trkpt lat="46.0743" lon="6.94962"><ele></ele><time>2017-6-21T10:54:19Z</time></trkpt>
<trkpt lat="46.0744" lon="6.94981"><ele></ele><time>2017-6-21T10:54:22Z</time></trkpt>
<trkpt lat="46.07449" lon="6.94999"><ele></ele><time>2017-6-21T10:54:25Z</time></trkpt>
<trkpt lat="46.07469" lon="6.95056"><ele></ele><time>2017-6-21T10:54:28Z</time></trkpt>
<trkpt lat="46.07479" lon="6.95073"><ele></ele><time>2017-6-21T10:54:31Z</time></trkpt>
<trkpt lat="46.07499" lon="6.95105"><ele></ele><time>2017-6-21T10:54:34Z</time></trkpt>
<trkpt lat="46.07532" lon="6.95149"><ele></ele><time>2017-6-21T10:54:37Z</time></trkpt>
<trkpt lat="46.07553" lon="6.95164"><ele></ele><time>2017-6-21T10:54:40Z</time></trkpt>
<trkpt lat="46.07574" lon="6.9518"><ele></ele><time>2017-6-21T10:54:43Z</time></trkpt>
<trkpt lat="46.07581" lon="6.95189"><ele></ele><time>2017-6-21T10:54:46Z</time></trkpt>
<trkpt lat="46.07605" lon="6.95216"><ele></ele><time>2017-6-21T10:54:49Z</time></trkpt>
<trkpt lat="46.07612" lon="6.95224"><ele></ele><time>2017-6-21T10:54:52Z</time></trkpt>
<trkpt lat="46.07618" lon="6.95231"><ele></ele><time>2017-6-21T10:54:55Z</time></trkpt>
<trkpt lat="46.07624" lon="6.95237"><ele></ele><time>2017-6-21T10:54:58Z</time></trkpt>
<trkpt lat="46.0763" lon="6.95244"><ele></ele><time>2017-6-21T10:55:1Z</time></trkpt>
<trkpt lat="46.07654" lon="6.95267"><ele></ele><time>2017-6-21T10:55:4Z</time></trkpt>
<trkpt lat="46.07675" lon="6.95291"><ele></ele><time>2017-6-21T10:55:7Z</time></trkpt>
<trkpt lat="46.07681" lon="6.9531"><ele></ele><time>2017-6-21T10:55:10Z</time></trkpt>
<trkpt lat="46.07687" lon="6.9533"><ele></ele><time>2017-6-21T10:55:13Z</time></trkpt>
<trkpt lat="46.07693" lon="6.95349"><ele></ele><time>2017-6-21T10:55:16Z</time></trkpt>
<trkpt lat="46.07697" lon="6.95369"><ele></ele><time>2017-6-21T10:55:19Z</time></trkpt>
<trkpt lat="46.07703" lon="6.95387"><ele></ele><time>2017-6-21T10:55:22Z</time></trkpt>
<trkpt lat="46.07711" lon="6.95402"><ele></ele><time>2017-6-21T10:55:25Z</time></trkpt>
<trkpt lat="46.07721" lon="6.95414"><ele></ele><time>2017-6-21T10:55:28Z</time></trkpt>
<trkpt lat="46.07731" lon="6.95425"><ele></ele><time>2017-6-21T10:55:31Z</time></trkpt>
<trkpt lat="46.07741" lon="6.95437"><ele></ele><time>2017-6-21T10:55:34Z</time></trkpt>
<trkpt lat="46.07749" lon="6.95447"><ele></ele><time>2017-6-21T10:55:37Z</time></trkpt>
<trkpt lat="46.07751" lon="6.95454"><ele></ele><time>2017-6-21T10:55:40Z</time></trkpt>
<trkpt lat="46.07749" lon="6.9546"><ele></ele><time>2017-6-21T10:55:43Z</time></trkpt>
<trkpt lat="46.07745" lon="6.95461"><ele></ele><time>2017-6-21T10:55:46Z</time></trkpt>
<trkpt lat="46.07738" lon="6.95455"><ele></ele><time>2017-6-21T10:55:49Z</time></trkpt>
<trkpt lat="46.07719" lon="6.9544"><ele></ele><time>2017-6-21T10:55:52Z</time></trkpt>
<trkpt lat="46.07706" lon="6.95427"><ele></ele><time>2017-6-21T10:55:55Z</time></trkpt>
<trkpt lat="46.07691" lon="6.95405"><ele></ele><time>2017-6-21T10:55:58Z</time></trkpt>
<trkpt lat="46.07676" lon="6.95382"><ele></ele><time>2017-6-21T10:56:1Z</time></trkpt>
<trkpt lat="46.07668" lon="6.9537"><ele></ele><time>2017-6-21T10:56:4Z</time></trkpt>
<trkpt lat="46.07652" lon="6.95342"><ele></ele><time>2017-6-21T10:56:7Z</time></trkpt>
<trkpt lat="46.07641" lon="6.95332"><ele></ele><time>2017-6-21T10:56:10Z</time></trkpt>
<trkpt lat="46.07614" lon="6.95318"><ele></ele><time>2017-6-21T10:56:13Z</time></trkpt>
<trkpt lat="46.076" lon="6.95311"><ele></ele><time>2017-6-21T10:56:16Z</time></trkpt>
<trkpt lat="46.07586" lon="6.95304"><ele></ele><time>2017-6-21T10:56:19Z</time></trkpt>
<trkpt lat="46.07558" lon="6.95292"><ele></ele><time>2017-6-21T10:56:22Z</time></trkpt>
<trkpt lat="46.07529" lon="6.9528"><ele></ele><time>2017-6-21T10:56:25Z</time></trkpt>
<trkpt lat="46.07499" lon="6.95269"><ele></ele><time>2017-6-21T10:56:28Z</time></trkpt>
<trkpt lat="46.07484" lon="6.95265"><ele></ele><time>2017-6-21T10:56:31Z</time></trkpt>
<trkpt lat="46.07468" lon="6.95263"><ele></ele><time>2017-6-21T10:56:34Z</time></trkpt>
<trkpt lat="46.07453" lon="6.9526"><ele></ele><time>2017-6-21T10:56:37Z</time></trkpt>
<trkpt lat="46.07439" lon="6.95258"><ele></ele><time>2017-6-21T10:56:40Z</time></trkpt>
<trkpt lat="46.07415" lon="6.95248"><ele></ele><time>2017-6-21T10:56:43Z</time></trkpt>
<trkpt lat="46.07397" lon="6.95226"><ele></ele><time>2017-6-21T10:56:46Z</time></trkpt>
<trkpt lat="46.07389" lon="6.95212"><ele></ele><time>2017-6-21T10:56:49Z</time></trkpt>
<trkpt lat="46.07381" lon="6.95198"><ele></ele><time>2017-6-21T10:56:52Z</time></trkpt>
<trkpt lat="46.07371" lon="6.95185"><ele></ele><time>2017-6-21T10:56:55Z</time></trkpt>
<trkpt lat="46.07359" lon="6.95176"><ele></ele><time>2017-6-21T10:56:58Z</time></trkpt>
<trkpt lat="46.07345" lon="6.95173"><ele></ele><time>2017-6-21T10:57:1Z</time></trkpt>
<trkpt lat="46.07331" lon="6.95174"><ele></ele><time>2017-6-21T10:57:4Z</time></trkpt>
<trkpt lat="46.07316" lon="6.95175"><ele></ele><time>2017-6-21T10:57:7Z</time></trkpt>
<trkpt lat="46.07302" lon="6.95177"><ele></ele><time>2017-6-21T10:57:10Z</time></trkpt>
<trkpt lat="46.07289" lon="6.95177"><ele></ele><time>2017-6-21T10:57:13Z</time></trkpt>
<trkpt lat="46.07279" lon="6.95176"><ele></ele><time>2017-6-21T10:57:16Z</time></trkpt>
<trkpt lat="46.07259" lon="6.95173"><ele></ele><time>2017-6-21T10:57:19Z</time></trkpt>
<trkpt lat="46.07249" lon="6.95172"><ele></ele><time>2017-6-21T10:57:22Z</time></trkpt>
<trkpt lat="46.07171" lon="6.95139"><ele></ele><time>2017-6-21T10:57:25Z</time></trkpt>
<trkpt lat="46.07156" lon="6.95127"><ele></ele><time>2017-6-21T10:57:28Z</time></trkpt>
<trkpt lat="46.07128" lon="6.95104"><ele></ele><time>2017-6-21T10:57:31Z</time></trkpt>
<trkpt lat="46.0711" lon="6.95078"><ele></ele><time>2017-6-21T10:57:34Z</time></trkpt>
<trkpt lat="46.07103" lon="6.95067"><ele></ele><time>2017-6-21T10:57:37Z</time></trkpt>
<trkpt lat="46.07098" lon="6.95058"><ele></ele><time>2017-6-21T10:57:40Z</time></trkpt>
<trkpt lat="46.07093" lon="6.95053"><ele></ele><time>2017-6-21T10:57:43Z</time></trkpt>
<trkpt lat="46.07089" lon="6.95053"><ele></ele><time>2017-6-21T10:57:46Z</time></trkpt>
<trkpt lat="46.07088" lon="6.95058"><ele></ele><time>2017-6-21T10:57:49Z</time></trkpt>
<trkpt lat="46.07093" lon="6.95075"><ele></ele><time>2017-6-21T10:57:52Z</time></trkpt>
<trkpt lat="46.07097" lon="6.95084"><ele></ele><time>2017-6-21T10:57:55Z</time></trkpt>
<trkpt lat="46.07104" lon="6.95093"><ele></ele><time>2017-6-21T10:57:58Z</time></trkpt>
<trkpt lat="46.07123" lon="6.95122"><ele></ele><time>2017-6-21T10:58:1Z</time></trkpt>
<trkpt lat="46.0713" lon="6.95132"><ele></ele><time>2017-6-21T10:58:4Z</time></trkpt>
<trkpt lat="46.07146" lon="6.95157"><ele></ele><time>2017-6-21T10:58:7Z</time></trkpt>
<trkpt lat="46.07163" lon="6.95182"><ele></ele><time>2017-6-21T10:58:10Z</time></trkpt>
<trkpt lat="46.07172" lon="6.95195"><ele></ele><time>2017-6-21T10:58:13Z</time></trkpt>
<trkpt lat="46.07191" lon="6.95221"><ele></ele><time>2017-6-21T10:58:16Z</time></trkpt>
<trkpt lat="46.07201" lon="6.95235"><ele></ele><time>2017-6-21T10:58:19Z</time></trkpt>
<trkpt lat="46.07211" lon="6.95249"><ele></ele><time>2017-6-21T10:58:22Z</time></trkpt>
<trkpt lat="46.07221" lon="6.95264"><ele></ele><time>2017-6-21T10:58:25Z</time></trkpt>
<trkpt lat="46.07242" lon="6.95291"><ele></ele><time>2017-6-21T10:58:28Z</time></trkpt>
<trkpt lat="46.07254" lon="6.95301"><ele></ele><time>2017-6-21T10:58:31Z</time></trkpt>
<trkpt lat="46.07266" lon="6.95309"><ele></ele><time>2017-6-21T10:58:34Z</time></trkpt>
<trkpt lat="46.0728" lon="6.95314"><ele></ele><time>2017-6-21T10:58:37Z</time></trkpt>
<trkpt lat="46.07307" lon="6.95323"><ele></ele><time>2017-6-21T10:58:40Z</time></trkpt>
<trkpt lat="46.07323" lon="6.95339"><ele></ele><time>2017-6-21T10:58:43Z</time></trkpt>
<trkpt lat="46.07333" lon="6.95355"><ele></ele><time>2017-6-21T10:58:46Z</time></trkpt>
<trkpt lat="46.07339" lon="6.95371"><ele></ele><time>2017-6-21T10:58:49Z</time></trkpt>
<trkpt lat="46.07359" lon="6.9542"><ele></ele><time>2017-6-21T10:58:52Z</time></trkpt>
<trkpt lat="46.07369" lon="6.95431"><ele></ele><time>2017-6-21T10:58:55Z</time></trkpt>
<trkpt lat="46.0738" lon="6.9544"><ele></ele><time>2017-6-21T10:58:58Z</time></trkpt>
<trkpt lat="46.07401" lon="6.95461"><ele></ele><time>2017-6-21T10:59:1Z</time></trkpt>
<trkpt lat="46.0742" lon="6.95492"><ele></ele><time>2017-6-21T10:59:4Z</time></trkpt>
<trkpt lat="46.0743" lon="6.95507"><ele></ele><time>2017-6-21T10:59:7Z</time></trkpt>
<trkpt lat="46.0744" lon="6.95521"><ele></ele><time>2017-6-21T10:59:10Z</time></trkpt>
<trkpt lat="46.07451" lon="6.95534"><ele></ele><time>2017-6-21T10:59:13Z</time></trkpt>
<trkpt lat="46.07462" lon="6.95545"><ele></ele><time>2017-6-21T10:59:16Z</time></trkpt>
<trkpt lat="46.07488" lon="6.95561"><ele></ele><time>2017-6-21T10:59:19Z</time></trkpt>
<trkpt lat="46.07501" lon="6.95567"><ele></ele><time>2017-6-21T10:59:22Z</time></trkpt>
<trkpt lat="46.07531" lon="6.95595"><ele></ele><time>2017-6-21T10:59:25Z</time></trkpt>
<trkpt lat="46.07539" lon="6.95604"><ele></ele><time>2017-6-21T10:59:28Z</time></trkpt>
<trkpt lat="46.07541" lon="6.95611"><ele></ele><time>2017-6-21T10:59:31Z</time></trkpt>
<trkpt lat="46.0754" lon="6.95616"><ele></ele><time>2017-6-21T10:59:34Z</time></trkpt>
<trkpt lat="46.07536" lon="6.95617"><ele></ele><time>2017-6-21T10:59:37Z</time></trkpt>
<trkpt lat="46.07531" lon="6.95613"><ele></ele><time>2017-6-21T10:59:40Z</time></trkpt>
<trkpt lat="46.07516" lon="6.95599"><ele></ele><time>2017-6-21T10:59:43Z</time></trkpt>
<trkpt lat="46.07512" lon="6.95591"><ele></ele><time>2017-6-21T10:59:46Z</time></trkpt>
<trkpt lat="46.07506" lon="6.95584"><ele></ele><time>2017-6-21T10:59:49Z</time></trkpt>
<trkpt lat="46.07499" lon="6.95579"><ele></ele><time>2017-6-21T10:59:52Z</time></trkpt>
<trkpt lat="46.07483" lon="6.9557"><ele></ele><time>2017-6-21T10:59:55Z</time></trkpt>
<trkpt lat="46.07474" lon="6.95567"><ele></ele><time>2017-6-21T10:59:58Z</time></trkpt>
<trkpt lat="46.07465" lon="6.95564"><ele></ele><time>2017-6-21T11:0:1Z</time></trkpt>
<trkpt lat="46.07446" lon="6.95559"><ele></ele><time>2017-6-21T11:0:4Z</time></trkpt>
<trkpt lat="46.07436" lon="6.95557"><ele></ele><time>2017-6-21T11:0:7Z</time></trkpt>
<trkpt lat="46.07425" lon="6.95548"><ele></ele><time>2017-6-21T11:0:10Z</time></trkpt>
<trkpt lat="46.07402" lon="6.9553"><ele></ele><time>2017-6-21T11:0:13Z</time></trkpt>
<trkpt lat="46.0739" lon="6.95523"><ele></ele><time>2017-6-21T11:0:16Z</time></trkpt>
<trkpt lat="46.07377" lon="6.95519"><ele></ele><time>2017-6-21T11:0:19Z</time></trkpt>
<trkpt lat="46.07365" lon="6.95516"><ele></ele><time>2017-6-21T11:0:22Z</time></trkpt>
<trkpt lat="46.07351" lon="6.95516"><ele></ele><time>2017-6-21T11:0:25Z</time></trkpt>
<trkpt lat="46.07324" lon="6.95515"><ele></ele><time>2017-6-21T11:0:28Z</time></trkpt>
<trkpt lat="46.07284" lon="6.95497"><ele></ele><time>2017-6-21T11:0:31Z</time></trkpt>
<trkpt lat="46.07269" lon="6.95494"><ele></ele><time>2017-6-21T11:0:34Z</time></trkpt>
<trkpt lat="46.07239" lon="6.95489"><ele></ele><time>2017-6-21T11:0:37Z</time></trkpt>
<trkpt lat="46.07211" lon="6.95484"><ele></ele><time>2017-6-21T11:0:40Z</time></trkpt>
<trkpt lat="46.07198" lon="6.9548"><ele></ele><time>2017-6-21T11:0:43Z</time></trkpt>
<trkpt lat="46.07188" lon="6.95471"><ele></ele><time>2017-6-21T11:0:46Z</time></trkpt>
<trkpt lat="46.07178" lon="6.95462"><ele></ele><time>2017-6-21T11:0:49Z</time></trkpt>
<trkpt lat="46.07155" lon="6.95433"><ele></ele><time>2017-6-21T11:0:52Z</time></trkpt>
<trkpt lat="46.07144" lon="6.95419"><ele></ele><time>2017-6-21T11:0:55Z</time></trkpt>
<trkpt lat="46.07131" lon="6.95409"><ele></ele><time>2017-6-21T11:0:58Z</time></trkpt>
<trkpt lat="46.07114" lon="6.95408"><ele></ele><time>2017-6-21T11:1:1Z</time></trkpt>
<trkpt lat="46.07084" lon="6.95403"><ele></ele><time>2017-6-21T11:1:4Z</time></trkpt>
<trkpt lat="46.07069" lon="6.95399"><ele></ele><time>2017-6-21T11:1:7Z</time></trkpt>
<trkpt lat="46.07039" lon="6.95386"><ele></ele><time>2017-6-21T11:1:10Z</time></trkpt>
<trkpt lat="46.07026" lon="6.95378"><ele></ele><time>2017-6-21T11:1:13Z</time></trkpt>
<trkpt lat="46.07007" lon="6.95356"><ele></ele><time>2017-6-21T11:1:16Z</time></trkpt>
<trkpt lat="46.0699" lon="6.95337"><ele></ele><time>2017-6-21T11:1:19Z</time></trkpt>
<trkpt lat="46.06983" lon="6.95333"><ele></ele><time>2017-6-21T11:1:22Z</time></trkpt>
<trkpt lat="46.06978" lon="6.95335"><ele></ele><time>2017-6-21T11:1:25Z</time></trkpt>
<trkpt lat="46.06976" lon="6.95344"><ele></ele><time>2017-6-21T11:1:28Z</time></trkpt>
<trkpt lat="46.06976" lon="6.95351"><ele></ele><time>2017-6-21T11:1:31Z</time></trkpt>
<trkpt lat="46.06981" lon="6.95356"><ele></ele><time>2017-6-21T11:1:34Z</time></trkpt>
<trkpt lat="46.06989" lon="6.95362"><ele></ele><time>2017-6-21T11:1:37Z</time></trkpt>
<trkpt lat="46.06997" lon="6.95367"><ele></ele><time>2017-6-21T11:1:40Z</time></trkpt>
<trkpt lat="46.07005" lon="6.95373"><ele></ele><time>2017-6-21T11:1:43Z</time></trkpt>
<trkpt lat="46.07021" lon="6.95386"><ele></ele><time>2017-6-21T11:1:46Z</time></trkpt>
<trkpt lat="46.07036" lon="6.95406"><ele></ele><time>2017-6-21T11:1:49Z</time></trkpt>
<trkpt lat="46.07059" lon="6.95436"><ele></ele><time>2017-6-21T11:1:52Z</time></trkpt>
<trkpt lat="46.07068" lon="6.95447"><ele></ele><time>2017-6-21T11:1:55Z</time></trkpt>
<trkpt lat="46.07088" lon="6.95469"><ele></ele><time>2017-6-21T11:1:58Z</time></trkpt>
<trkpt lat="46.07098" lon="6.95481"><ele></ele><time>2017-6-21T11:2:1Z</time></trkpt>
<trkpt lat="46.07108" lon="6.95494"><ele></ele><time>2017-6-21T11:2:4Z</time></trkpt>
<trkpt lat="46.07138" lon="6.95534"><ele></ele><time>2017-6-21T11:2:7Z</time></trkpt>
<trkpt lat="46.0715" lon="6.95548"><ele></ele><time>2017-6-21T11:2:10Z</time></trkpt>
<trkpt lat="46.07162" lon="6.95559"><ele></ele><time>2017-6-21T11:2:13Z</time></trkpt>
<trkpt lat="46.07176" lon="6.95568"><ele></ele><time>2017-6-21T11:2:16Z</time></trkpt>
<trkpt lat="46.07191" lon="6.95574"><ele></ele><time>2017-6-21T11:2:19Z</time></trkpt>
<trkpt lat="46.07206" lon="6.95585"><ele></ele><time>2017-6-21T11:2:22Z</time></trkpt>
<trkpt lat="46.0722" lon="6.95592"><ele></ele><time>2017-6-21T11:2:25Z</time></trkpt>
<trkpt lat="46.07233" lon="6.95595"><ele></ele><time>2017-6-21T11:2:28Z</time></trkpt>
<trkpt lat="46.07247" lon="6.95607"><ele></ele><time>2017-6-21T11:2:31Z</time></trkpt>
<trkpt lat="46.0726" lon="6.9562"><ele></ele><time>2017-6-21T11:2:34Z</time></trkpt>
<trkpt lat="46.07283" lon="6.95649"><ele></ele><time>2017-6-21T11:2:37Z</time></trkpt>
<trkpt lat="46.07302" lon="6.95678"><ele></ele><time>2017-6-21T11:2:40Z</time></trkpt>
<trkpt lat="46.07314" lon="6.95689"><ele></ele><time>2017-6-21T11:2:43Z</time></trkpt>
<trkpt lat="46.07339" lon="6.95705"><ele></ele><time>2017-6-21T11:2:46Z</time></trkpt>
<trkpt lat="46.07352" lon="6.95713"><ele></ele><time>2017-6-21T11:2:49Z</time></trkpt>
<trkpt lat="46.07364" lon="6.95722"><ele></ele><time>2017-6-21T11:2:52Z</time></trkpt>
<trkpt lat="46.07377" lon="6.95735"><ele></ele><time>2017-6-21T11:2:55Z</time></trkpt>
<trkpt lat="46.07402" lon="6.95761"><ele></ele><time>2017-6-21T11:2:58Z</time></trkpt>
<trkpt lat="46.07439" lon="6.95798"><ele></ele><time>2017-6-21T11:3:1Z</time></trkpt>
<trkpt lat="46.07453" lon="6.9581"><ele></ele><time>2017-6-21T11:3:4Z</time></trkpt>
<trkpt lat="46.07466" lon="6.95824"><ele></ele><time>2017-6-21T11:3:7Z</time></trkpt>
<trkpt lat="46.07476" lon="6.95839"><ele></ele><time>2017-6-21T11:3:10Z</time></trkpt>
<trkpt lat="46.07497" lon="6.9587"><ele></ele><time>2017-6-21T11:3:13Z</time></trkpt>
<trkpt lat="46.07509" lon="6.95885"><ele></ele><time>2017-6-21T11:3:16Z</time></trkpt>
<trkpt lat="46.07523" lon="6.95898"><ele></ele><time>2017-6-21T11:3:19Z</time></trkpt>
<trkpt lat="46.07534" lon="6.95913"><ele></ele><time>2017-6-21T11:3:22Z</time></trkpt>
<trkpt lat="46.07546" lon="6.95928"><ele></ele><time>2017-6-21T11:3:25Z</time></trkpt>
<trkpt lat="46.07557" lon="6.95945"><ele></ele><time>2017-6-21T11:3:28Z</time></trkpt>
<trkpt lat="46.07575" lon="6.95986"><ele></ele><time>2017-6-21T11:3:31Z</time></trkpt>
<trkpt lat="46.07586" lon="6.96004"><ele></ele><time>2017-6-21T11:3:34Z</time></trkpt>
<trkpt lat="46.07597" lon="6.96021"><ele></ele><time>2017-6-21T11:3:37Z</time></trkpt>
<trkpt lat="46.07608" lon="6.96038"><ele></ele><time>2017-6-21T11:3:40Z</time></trkpt>
<trkpt lat="46.07618" lon="6.96054"><ele></ele><time>2017-6-21T11:3:43Z</time></trkpt>
<trkpt lat="46.07639" lon="6.96084"><ele></ele><time>2017-6-21T11:3:46Z</time></trkpt>
<trkpt lat="46.0765" lon="6.961"><ele></ele><time>2017-6-21T11:3:49Z</time></trkpt>
<trkpt lat="46.07663" lon="6.96113"><ele></ele><time>2017-6-21T11:3:52Z</time></trkpt>
<trkpt lat="46.07691" lon="6.96127"><ele></ele><time>2017-6-21T11:3:55Z</time></trkpt>
<trkpt lat="46.07705" lon="6.96136"><ele></ele><time>2017-6-21T11:3:58Z</time></trkpt>
<trkpt lat="46.07719" lon="6.96148"><ele></ele><time>2017-6-21T11:4:1Z</time></trkpt>
<trkpt lat="46.07746" lon="6.96171"><ele></ele><time>2017-6-21T11:4:4Z</time></trkpt>
<trkpt lat="46.07758" lon="6.96185"><ele></ele><time>2017-6-21T11:4:7Z</time></trkpt>
<trkpt lat="46.07769" lon="6.96202"><ele></ele><time>2017-6-21T11:4:10Z</time></trkpt>
<trkpt lat="46.0778" lon="6.96218"><ele></ele><time>2017-6-21T11:4:13Z</time></trkpt>
<trkpt lat="46.07793" lon="6.96233"><ele></ele><time>2017-6-21T11:4:16Z</time></trkpt>
<trkpt lat="46.07806" lon="6.96247"><ele></ele><time>2017-6-21T11:4:19Z</time></trkpt>
<trkpt lat="46.0782" lon="6.9626"><ele></ele><time>2017-6-21T11:4:22Z</time></trkpt>
<trkpt lat="46.07831" lon="6.96277"><ele></ele><time>2017-6-21T11:4:25Z</time></trkpt>
<trkpt lat="46.0784" lon="6.963"><ele></ele><time>2017-6-21T11:4:28Z</time></trkpt>
<trkpt lat="46.07851" lon="6.9632"><ele></ele><time>2017-6-21T11:4:31Z</time></trkpt>
<trkpt lat="46.07859" lon="6.96341"><ele></ele><time>2017-6-21T11:4:34Z</time></trkpt>
<trkpt lat="46.07869" lon="6.96361"><ele></ele><time>2017-6-21T11:4:37Z</time></trkpt>
<trkpt lat="46.07881" lon="6.96379"><ele></ele><time>2017-6-21T11:4:40Z</time></trkpt>
<trkpt lat="46.07907" lon="6.96411"><ele></ele><time>2017-6-21T11:4:43Z</time></trkpt>
<trkpt lat="46.07922" lon="6.96419"><ele></ele><time>2017-6-21T11:4:46Z</time></trkpt>
<trkpt lat="46.07936" lon="6.96433"><ele></ele><time>2017-6-21T11:4:49Z</time></trkpt>
<trkpt lat="46.07965" lon="6.96459"><ele></ele><time>2017-6-21T11:4:52Z</time></trkpt>
<trkpt lat="46.0798" lon="6.9647"><ele></ele><time>2017-6-21T11:4:55Z</time></trkpt>
<trkpt lat="46.07995" lon="6.9648"><ele></ele><time>2017-6-21T11:4:58Z</time></trkpt>
<trkpt lat="46.08026" lon="6.96495"><ele></ele><time>2017-6-21T11:5:1Z</time></trkpt>
<trkpt lat="46.08055" lon="6.96501"><ele></ele><time>2017-6-21T11:5:4Z</time></trkpt>
<trkpt lat="46.0807" lon="6.96504"><ele></ele><time>2017-6-21T11:5:7Z</time></trkpt>
<trkpt lat="46.08085" lon="6.96507"><ele></ele><time>2017-6-21T11:5:10Z</time></trkpt>
<trkpt lat="46.08098" lon="6.96513"><ele></ele><time>2017-6-21T11:5:13Z</time></trkpt>
<trkpt lat="46.08108" lon="6.96525"><ele></ele><time>2017-6-21T11:5:16Z</time></trkpt>
<trkpt lat="46.08118" lon="6.96539"><ele></ele><time>2017-6-21T11:5:19Z</time></trkpt>
<trkpt lat="46.08124" lon="6.96556"><ele></ele><time>2017-6-21T11:5:22Z</time></trkpt>
<trkpt lat="46.08133" lon="6.96591"><ele></ele><time>2017-6-21T11:5:25Z</time></trkpt>
<trkpt lat="46.08153" lon="6.96632"><ele></ele><time>2017-6-21T11:5:28Z</time></trkpt>
<trkpt lat="46.08162" lon="6.9665"><ele></ele><time>2017-6-21T11:5:31Z</time></trkpt>
<trkpt lat="46.08186" lon="6.96693"><ele></ele><time>2017-6-21T11:5:34Z</time></trkpt>
<trkpt lat="46.08205" lon="6.96702"><ele></ele><time>2017-6-21T11:5:37Z</time></trkpt>
<trkpt lat="46.08217" lon="6.96702"><ele></ele><time>2017-6-21T11:5:40Z</time></trkpt>
<trkpt lat="46.08229" lon="6.96702"><ele></ele><time>2017-6-21T11:5:43Z</time></trkpt>
<trkpt lat="46.08253" lon="6.96703"><ele></ele><time>2017-6-21T11:5:46Z</time></trkpt>
<trkpt lat="46.08275" lon="6.96713"><ele></ele><time>2017-6-21T11:5:49Z</time></trkpt>
<trkpt lat="46.08281" lon="6.96722"><ele></ele><time>2017-6-21T11:5:52Z</time></trkpt>
<trkpt lat="46.08285" lon="6.96737"><ele></ele><time>2017-6-21T11:5:55Z</time></trkpt>
<trkpt lat="46.08282" lon="6.96759"><ele></ele><time>2017-6-21T11:5:58Z</time></trkpt>
<trkpt lat="46.08286" lon="6.96773"><ele></ele><time>2017-6-21T11:6:1Z</time></trkpt>
<trkpt lat="46.08294" lon="6.96801"><ele></ele><time>2017-6-21T11:6:4Z</time></trkpt>
<trkpt lat="46.08305" lon="6.96844"><ele></ele><time>2017-6-21T11:6:7Z</time></trkpt>
<trkpt lat="46.08321" lon="6.96876"><ele></ele><time>2017-6-21T11:6:10Z</time></trkpt>
<trkpt lat="46.08328" lon="6.96893"><ele></ele><time>2017-6-21T11:6:13Z</time></trkpt>
<trkpt lat="46.08331" lon="6.96912"><ele></ele><time>2017-6-21T11:6:16Z</time></trkpt>
<trkpt lat="46.08333" lon="6.9693"><ele></ele><time>2017-6-21T11:6:19Z</time></trkpt>
<trkpt lat="46.08333" lon="6.96968"><ele></ele><time>2017-6-21T11:6:22Z</time></trkpt>
<trkpt lat="46.08334" lon="6.96986"><ele></ele><time>2017-6-21T11:6:25Z</time></trkpt>
<trkpt lat="46.08338" lon="6.97002"><ele></ele><time>2017-6-21T11:6:28Z</time></trkpt>
<trkpt lat="46.08351" lon="6.97027"><ele></ele><time>2017-6-21T11:6:31Z</time></trkpt>
<trkpt lat="46.08357" lon="6.97042"><ele></ele><time>2017-6-21T11:6:34Z</time></trkpt>
<trkpt lat="46.08364" lon="6.97077"><ele></ele><time>2017-6-21T11:6:37Z</time></trkpt>
<trkpt lat="46.08367" lon="6.97096"><ele></ele><time>2017-6-21T11:6:40Z</time></trkpt>
<trkpt lat="46.0837" lon="6.97114"><ele></ele><time>2017-6-21T11:6:43Z</time></trkpt>
<trkpt lat="46.08374" lon="6.97128"><ele></ele><time>2017-6-21T11:6:46Z</time></trkpt>
<trkpt lat="46.08379" lon="6.97144"><ele></ele><time>2017-6-21T11:6:49Z</time></trkpt>
<trkpt lat="46.08385" lon="6.97168"><ele></ele><time>2017-6-21T11:6:52Z</time></trkpt>
<trkpt lat="46.0839" lon="6.97187"><ele></ele><time>2017-6-21T11:6:55Z</time></trkpt>
<trkpt lat="46.08394" lon="6.9723"><ele></ele><time>2017-6-21T11:6:58Z</time></trkpt>
<trkpt lat="46.08395" lon="6.97251"><ele></ele><time>2017-6-21T11:7:1Z</time></trkpt>
<trkpt lat="46.08396" lon="6.97292"><ele></ele><time>2017-6-21T11:7:4Z</time></trkpt>
<trkpt lat="46.08399" lon="6.97311"><ele></ele><time>2017-6-21T11:7:7Z</time></trkpt>
<trkpt lat="46.08407" lon="6.97329"><ele></ele><time>2017-6-21T11:7:10Z</time></trkpt>
<trkpt lat="46.08414" lon="6.97348"><ele></ele><time>2017-6-21T11:7:13Z</time></trkpt>
<trkpt lat="46.08431" lon="6.97382"><ele></ele><time>2017-6-21T11:7:16Z</time></trkpt>
<trkpt lat="46.08441" lon="6.97398"><ele></ele><time>2017-6-21T11:7:19Z</time></trkpt>
<trkpt lat="46.08452" lon="6.97414"><ele></ele><time>2017-6-21T11:7:22Z</time></trkpt>
<trkpt lat="46.08463" lon="6.9743"><ele></ele><time>2017-6-21T11:7:25Z</time></trkpt>
<trkpt lat="46.08484" lon="6.97463"><ele></ele><time>2017-6-21T11:7:28Z</time></trkpt>
<trkpt lat="46.08494" lon="6.97479"><ele></ele><time>2017-6-21T11:7:31Z</time></trkpt>
<trkpt lat="46.08505" lon="6.97495"><ele></ele><time>2017-6-21T11:7:34Z</time></trkpt>
<trkpt lat="46.08515" lon="6.97511"><ele></ele><time>2017-6-21T11:7:37Z</time></trkpt>
<trkpt lat="46.0853" lon="6.97534"><ele></ele><time>2017-6-21T11:7:40Z</time></trkpt>
<trkpt lat="46.08554" lon="6.97563"><ele></ele><time>2017-6-21T11:7:43Z</time></trkpt>
<trkpt lat="46.08565" lon="6.97575"><ele></ele><time>2017-6-21T11:7:46Z</time></trkpt>
<trkpt lat="46.08573" lon="6.97591"><ele></ele><time>2017-6-21T11:7:49Z</time></trkpt>
<trkpt lat="46.08583" lon="6.97626"><ele></ele><time>2017-6-21T11:7:52Z</time></trkpt>
<trkpt lat="46.08587" lon="6.97665"><ele></ele><time>2017-6-21T11:7:55Z</time></trkpt>
<trkpt lat="46.08583" lon="6.97683"><ele></ele><time>2017-6-21T11:7:58Z</time></trkpt>
<trkpt lat="46.0858" lon="6.97702"><ele></ele><time>2017-6-21T11:8:1Z</time></trkpt>
<trkpt lat="46.08574" lon="6.97717"><ele></ele><time>2017-6-21T11:8:4Z</time></trkpt>
<trkpt lat="46.08552" lon="6.97737"><ele></ele><time>2017-6-21T11:8:7Z</time></trkpt>
<trkpt lat="46.08531" lon="6.97759"><ele></ele><time>2017-6-21T11:8:10Z</time></trkpt>
<trkpt lat="46.0852" lon="6.9777"><ele></ele><time>2017-6-21T11:8:13Z</time></trkpt>
<trkpt lat="46.08512" lon="6.97781"><ele></ele><time>2017-6-21T11:8:16Z</time></trkpt>
<trkpt lat="46.08507" lon="6.97792"><ele></ele><time>2017-6-21T11:8:19Z</time></trkpt>
<trkpt lat="46.08502" lon="6.97802"><ele></ele><time>2017-6-21T11:8:22Z</time></trkpt>
<trkpt lat="46.08499" lon="6.97827"><ele></ele><time>2017-6-21T11:8:25Z</time></trkpt>
<trkpt lat="46.085" lon="6.97844"><ele></ele><time>2017-6-21T11:8:28Z</time></trkpt>
<trkpt lat="46.08503" lon="6.9786"><ele></ele><time>2017-6-21T11:8:31Z</time></trkpt>
<trkpt lat="46.08512" lon="6.97892"><ele></ele><time>2017-6-21T11:8:34Z</time></trkpt>
<trkpt lat="46.08521" lon="6.97923"><ele></ele><time>2017-6-21T11:8:37Z</time></trkpt>
<trkpt lat="46.08525" lon="6.97938"><ele></ele><time>2017-6-21T11:8:40Z</time></trkpt>
<trkpt lat="46.08529" lon="6.97953"><ele></ele><time>2017-6-21T11:8:43Z</time></trkpt>
<trkpt lat="46.08532" lon="6.97968"><ele></ele><time>2017-6-21T11:8:46Z</time></trkpt>
<trkpt lat="46.08536" lon="6.98"><ele></ele><time>2017-6-21T11:8:49Z</time></trkpt>
<trkpt lat="46.08538" lon="6.98016"><ele></ele><time>2017-6-21T11:8:52Z</time></trkpt>
<trkpt lat="46.0854" lon="6.98032"><ele></ele><time>2017-6-21T11:8:55Z</time></trkpt>
<trkpt lat="46.08544" lon="6.98063"><ele></ele><time>2017-6-21T11:8:58Z</time></trkpt>
<trkpt lat="46.08548" lon="6.98094"><ele></ele><time>2017-6-21T11:9:1Z</time></trkpt>
<trkpt lat="46.0855" lon="6.98109"><ele></ele><time>2017-6-21T11:9:4Z</time></trkpt>
<trkpt lat="46.08554" lon="6.9817"><ele></ele><time>2017-6-21T11:9:7Z</time></trkpt>
<trkpt lat="46.08555" lon="6.98183"><ele></ele><time>2017-6-21T11:9:10Z</time></trkpt>
<trkpt lat="46.08556" lon="6.98194"><ele></ele><time>2017-6-21T11:9:13Z</time></trkpt>
<trkpt lat="46.08558" lon="6.98205"><ele></ele><time>2017-6-21T11:9:16Z</time></trkpt>
<trkpt lat="46.08561" lon="6.98216"><ele></ele><time>2017-6-21T11:9:19Z</time></trkpt>
<trkpt lat="46.08571" lon="6.9825"><ele></ele><time>2017-6-21T11:9:22Z</time></trkpt>
<trkpt lat="46.08573" lon="6.98261"><ele></ele><time>2017-6-21T11:9:25Z</time></trkpt>
<trkpt lat="46.08579" lon="6.98295"><ele></ele><time>2017-6-21T11:9:28Z</time></trkpt>
<trkpt lat="46.08581" lon="6.98306"><ele></ele><time>2017-6-21T11:9:31Z</time></trkpt>
<trkpt lat="46.08584" lon="6.98317"><ele></ele><time>2017-6-21T11:9:34Z</time></trkpt>
<trkpt lat="46.08591" lon="6.98337"><ele></ele><time>2017-6-21T11:9:37Z</time></trkpt>
<trkpt lat="46.08595" lon="6.98347"><ele></ele><time>2017-6-21T11:9:40Z</time></trkpt>
<trkpt lat="46.08603" lon="6.98366"><ele></ele><time>2017-6-21T11:9:43Z</time></trkpt>
<trkpt lat="46.08607" lon="6.98374"><ele></ele><time>2017-6-21T11:9:46Z</time></trkpt>
<trkpt lat="46.08611" lon="6.98382"><ele></ele><time>2017-6-21T11:9:49Z</time></trkpt>
<trkpt lat="46.08619" lon="6.98398"><ele></ele><time>2017-6-21T11:9:52Z</time></trkpt>
<trkpt lat="46.08625" lon="6.98423"><ele></ele><time>2017-6-21T11:9:55Z</time></trkpt>
<trkpt lat="46.08628" lon="6.98439"><ele></ele><time>2017-6-21T11:9:58Z</time></trkpt>
<trkpt lat="46.08624" lon="6.98454"><ele></ele><time>2017-6-21T11:10:1Z</time></trkpt>
<trkpt lat="46.08622" lon="6.98462"><ele></ele><time>2017-6-21T11:10:4Z</time></trkpt>
<trkpt lat="46.08619" lon="6.98476"><ele></ele><time>2017-6-21T11:10:7Z</time></trkpt>
<trkpt lat="46.0862" lon="6.98482"><ele></ele><time>2017-6-21T11:10:10Z</time></trkpt>
<trkpt lat="46.08621" lon="6.98495"><ele></ele><time>2017-6-21T11:10:13Z</time></trkpt>
<trkpt lat="46.08621" lon="6.98501"><ele></ele><time>2017-6-21T11:10:16Z</time></trkpt>
<trkpt lat="46.08616" lon="6.98522"><ele></ele><time>2017-6-21T11:10:19Z</time></trkpt>
<trkpt lat="46.08613" lon="6.98532"><ele></ele><time>2017-6-21T11:10:22Z</time></trkpt>
<trkpt lat="46.08611" lon="6.98542"><ele></ele><time>2017-6-21T11:10:25Z</time></trkpt>
<trkpt lat="46.08612" lon="6.98546"><ele></ele><time>2017-6-21T11:10:28Z</time></trkpt>
<trkpt lat="46.08613" lon="6.98553"><ele></ele><time>2017-6-21T11:10:31Z</time></trkpt>
<trkpt lat="46.08615" lon="6.9856"><ele></ele><time>2017-6-21T11:10:34Z</time></trkpt>
<trkpt lat="46.08616" lon="6.98568"><ele></ele><time>2017-6-21T11:10:37Z</time></trkpt>
<trkpt lat="46.08617" lon="6.98575"><ele></ele><time>2017-6-21T11:10:40Z</time></trkpt>
<trkpt lat="46.08619" lon="6.98582"><ele></ele><time>2017-6-21T11:10:43Z</time></trkpt>
<trkpt lat="46.0862" lon="6.98589"><ele></ele><time>2017-6-21T11:10:46Z</time></trkpt>
<trkpt lat="46.08624" lon="6.98608"><ele></ele><time>2017-6-21T11:10:49Z</time></trkpt>
<trkpt lat="46.08625" lon="6.98612"><ele></ele><time>2017-6-21T11:10:52Z</time></trkpt>
<trkpt lat="46.08628" lon="6.9862"><ele></ele><time>2017-6-21T11:10:55Z</time></trkpt>
<trkpt lat="46.0863" lon="6.98629"><ele></ele><time>2017-6-21T11:10:58Z</time></trkpt>
<trkpt lat="46.08633" lon="6.98637"><ele></ele><time>2017-6-21T11:11:1Z</time></trkpt>
<trkpt lat="46.08636" lon="6.98645"><ele></ele><time>2017-6-21T11:11:4Z</time></trkpt>
<trkpt lat="46.08639" lon="6.98654"><ele></ele><time>2017-6-21T11:11:7Z</time></trkpt>
<trkpt lat="46.08641" lon="6.98662"><ele></ele><time>2017-6-21T11:11:10Z</time></trkpt>
<trkpt lat="46.08644" lon="6.9867"><ele></ele><time>2017-6-21T11:11:13Z</time></trkpt>
<trkpt lat="46.08644" lon="6.98673"><ele></ele><time>2017-6-21T11:11:16Z</time></trkpt>
<trkpt lat="46.08642" lon="6.98679"><ele></ele><time>2017-6-21T11:11:19Z</time></trkpt>
<trkpt lat="46.08642" lon="6.98684"><ele></ele><time>2017-6-21T11:11:22Z</time></trkpt>
<trkpt lat="46.08641" lon="6.98688"><ele></ele><time>2017-6-21T11:11:25Z</time></trkpt>
<trkpt lat="46.0864" lon="6.98691"><ele></ele><time>2017-6-21T11:11:28Z</time></trkpt>
<trkpt lat="46.08639" lon="6.98697"><ele></ele><time>2017-6-21T11:11:31Z</time></trkpt>
<trkpt lat="46.08638" lon="6.98702"><ele></ele><time>2017-6-21T11:11:34Z</time></trkpt>
<trkpt lat="46.08638" lon="6.98707"><ele></ele><time>2017-6-21T11:11:37Z</time></trkpt>
<trkpt lat="46.08637" lon="6.98711"><ele></ele><time>2017-6-21T11:11:40Z</time></trkpt>
<trkpt lat="46.08636" lon="6.98716"><ele></ele><time>2017-6-21T11:11:43Z</time></trkpt>
<trkpt lat="46.08635" lon="6.9872"><ele></ele><time>2017-6-21T11:11:46Z</time></trkpt>
<trkpt lat="46.08634" lon="6.98725"><ele></ele><time>2017-6-21T11:11:49Z</time></trkpt>
<trkpt lat="46.08633" lon="6.98729"><ele></ele><time>2017-6-21T11:11:52Z</time></trkpt>
<trkpt lat="46.08633" lon="6.98734"><ele></ele><time>2017-6-21T11:11:55Z</time></trkpt>
<trkpt lat="46.08632" lon="6.98737"><ele></ele><time>2017-6-21T11:11:58Z</time></trkpt>
<trkpt lat="46.08631" lon="6.98741"><ele></ele><time>2017-6-21T11:12:1Z</time></trkpt>
<trkpt lat="46.0863" lon="6.98746"><ele></ele><time>2017-6-21T11:12:4Z</time></trkpt>
<trkpt lat="46.08628" lon="6.98754"><ele></ele><time>2017-6-21T11:12:7Z</time></trkpt>
<trkpt lat="46.08625" lon="6.98763"><ele></ele><time>2017-6-21T11:12:10Z</time></trkpt>
<trkpt lat="46.08623" lon="6.98772"><ele></ele><time>2017-6-21T11:12:13Z</time></trkpt>
<trkpt lat="46.08621" lon="6.9878"><ele></ele><time>2017-6-21T11:12:16Z</time></trkpt>
<trkpt lat="46.08619" lon="6.98789"><ele></ele><time>2017-6-21T11:12:19Z</time></trkpt>
<trkpt lat="46.08616" lon="6.98798"><ele></ele><time>2017-6-21T11:12:22Z</time></trkpt>
<trkpt lat="46.08616" lon="6.98802"><ele></ele><time>2017-6-21T11:12:25Z</time></trkpt>
<trkpt lat="46.08616" lon="6.98807"><ele></ele><time>2017-6-21T11:12:28Z</time></trkpt>
<trkpt lat="46.08617" lon="6.98817"><ele></ele><time>2017-6-21T11:12:31Z</time></trkpt>
<trkpt lat="46.08618" lon="6.98821"><ele></ele><time>2017-6-21T11:12:34Z</time></trkpt>
<trkpt lat="46.08621" lon="6.98825"><ele></ele><time>2017-6-21T11:12:37Z</time></trkpt>
<trkpt lat="46.0863" lon="6.98837"><ele></ele><time>2017-6-21T11:12:40Z</time></trkpt>
<trkpt lat="46.08635" lon="6.98845"><ele></ele><time>2017-6-21T11:12:43Z</time></trkpt>
<trkpt lat="46.08641" lon="6.98853"><ele></ele><time>2017-6-21T11:12:46Z</time></trkpt>
<trkpt lat="46.08647" lon="6.98861"><ele></ele><time>2017-6-21T11:12:49Z</time></trkpt>
<trkpt lat="46.08652" lon="6.98868"><ele></ele><time>2017-6-21T11:12:52Z</time></trkpt>
<trkpt lat="46.08656" lon="6.98872"><ele></ele><time>2017-6-21T11:12:55Z</time></trkpt>
<trkpt lat="46.08664" lon="6.9888"><ele></ele><time>2017-6-21T11:12:58Z</time></trkpt>
<trkpt lat="46.08675" lon="6.98892"><ele></ele><time>2017-6-21T11:13:1Z</time></trkpt>
<trkpt lat="46.08682" lon="6.989"><ele></ele><time>2017-6-21T11:13:4Z</time></trkpt>
<trkpt lat="46.08689" lon="6.98908"><ele></ele><time>2017-6-21T11:13:7Z</time></trkpt>
<trkpt lat="46.08694" lon="6.98916"><ele></ele><time>2017-6-21T11:13:10Z</time></trkpt>
<trkpt lat="46.08698" lon="6.98924"><ele></ele><time>2017-6-21T11:13:13Z</time></trkpt>
<trkpt lat="46.087" lon="6.98929"><ele></ele><time>2017-6-21T11:13:16Z</time></trkpt>
<trkpt lat="46.087" lon="6.98935"><ele></ele><time>2017-6-21T11:13:19Z</time></trkpt>
<trkpt lat="46.087" lon="6.9894"><ele></ele><time>2017-6-21T11:13:22Z</time></trkpt>
<trkpt lat="46.087" lon="6.98952"><ele></ele><time>2017-6-21T11:13:25Z</time></trkpt>
<trkpt lat="46.087" lon="6.98963"><ele></ele><time>2017-6-21T11:13:28Z</time></trkpt>
<trkpt lat="46.087" lon="6.98974"><ele></ele><time>2017-6-21T11:13:31Z</time></trkpt>
<trkpt lat="46.08701" lon="6.98991"><ele></ele><time>2017-6-21T11:13:34Z</time></trkpt>
<trkpt lat="46.08707" lon="6.98999"><ele></ele><time>2017-6-21T11:13:37Z</time></trkpt>
<trkpt lat="46.08713" lon="6.99005"><ele></ele><time>2017-6-21T11:13:40Z</time></trkpt>
<trkpt lat="46.08719" lon="6.99004"><ele></ele><time>2017-6-21T11:13:43Z</time></trkpt>
<trkpt lat="46.0873" lon="6.99002"><ele></ele><time>2017-6-21T11:13:46Z</time></trkpt>
<trkpt lat="46.08737" lon="6.99001"><ele></ele><time>2017-6-21T11:13:49Z</time></trkpt>
<trkpt lat="46.08744" lon="6.99003"><ele></ele><time>2017-6-21T11:13:52Z</time></trkpt>
<trkpt lat="46.08767" lon="6.99008"><ele></ele><time>2017-6-21T11:13:55Z</time></trkpt>
<trkpt lat="46.08775" lon="6.9901"><ele></ele><time>2017-6-21T11:13:58Z</time></trkpt>
<trkpt lat="46.08782" lon="6.99011"><ele></ele><time>2017-6-21T11:14:1Z</time></trkpt>
<trkpt lat="46.0879" lon="6.99013"><ele></ele><time>2017-6-21T11:14:4Z</time></trkpt>
<trkpt lat="46.08804" lon="6.99017"><ele></ele><time>2017-6-21T11:14:7Z</time></trkpt>
<trkpt lat="46.08826" lon="6.99022"><ele></ele><time>2017-6-21T11:14:10Z</time></trkpt>
<trkpt lat="46.08833" lon="6.99024"><ele></ele><time>2017-6-21T11:14:13Z</time></trkpt>
<trkpt lat="46.0884" lon="6.99027"><ele></ele><time>2017-6-21T11:14:16Z</time></trkpt>
<trkpt lat="46.08854" lon="6.99033"><ele></ele><time>2017-6-21T11:14:19Z</time></trkpt>
<trkpt lat="46.0886" lon="6.99038"><ele></ele><time>2017-6-21T11:14:22Z</time></trkpt>
<trkpt lat="46.08869" lon="6.9905"><ele></ele><time>2017-6-21T11:14:25Z</time></trkpt>
<trkpt lat="46.08876" lon="6.99055"><ele></ele><time>2017-6-21T11:14:28Z</time></trkpt>
<trkpt lat="46.08882" lon="6.9906"><ele></ele><time>2017-6-21T11:14:31Z</time></trkpt>
<trkpt lat="46.08896" lon="6.99069"><ele></ele><time>2017-6-21T11:14:34Z</time></trkpt>
<trkpt lat="46.08903" lon="6.99071"><ele></ele><time>2017-6-21T11:14:37Z</time></trkpt>
<trkpt lat="46.08911" lon="6.99074"><ele></ele><time>2017-6-21T11:14:40Z</time></trkpt>
<trkpt lat="46.08918" lon="6.99076"><ele></ele><time>2017-6-21T11:14:43Z</time></trkpt>
<trkpt lat="46.08935" lon="6.99082"><ele></ele><time>2017-6-21T11:14:46Z</time></trkpt>
<trkpt lat="46.08943" lon="6.99085"><ele></ele><time>2017-6-21T11:14:49Z</time></trkpt>
<trkpt lat="46.08959" lon="6.9909"><ele></ele><time>2017-6-21T11:14:52Z</time></trkpt>
<trkpt lat="46.08966" lon="6.99089"><ele></ele><time>2017-6-21T11:14:55Z</time></trkpt>
<trkpt lat="46.0898" lon="6.99084"><ele></ele><time>2017-6-21T11:14:58Z</time></trkpt>
<trkpt lat="46.08986" lon="6.99078"><ele></ele><time>2017-6-21T11:15:1Z</time></trkpt>
<trkpt lat="46.0899" lon="6.99071"><ele></ele><time>2017-6-21T11:15:4Z</time></trkpt>
<trkpt lat="46.0899" lon="6.99065"><ele></ele><time>2017-6-21T11:15:7Z</time></trkpt>
<trkpt lat="46.08994" lon="6.99062"><ele></ele><time>2017-6-21T11:15:10Z</time></trkpt>
<trkpt lat="46.09" lon="6.9906"><ele></ele><time>2017-6-21T11:15:13Z</time></trkpt>
<trkpt lat="46.09034" lon="6.99056"><ele></ele><time>2017-6-21T11:15:16Z</time></trkpt>
<trkpt lat="46.09046" lon="6.99062"><ele></ele><time>2017-6-21T11:15:19Z</time></trkpt>
<trkpt lat="46.0906" lon="6.99077"><ele></ele><time>2017-6-21T11:15:22Z</time></trkpt>
<trkpt lat="46.09064" lon="6.99078"><ele></ele><time>2017-6-21T11:15:25Z</time></trkpt>
<trkpt lat="46.09072" lon="6.99082"><ele></ele><time>2017-6-21T11:15:28Z</time></trkpt>
<trkpt lat="46.09076" lon="6.99084"><ele></ele><time>2017-6-21T11:15:31Z</time></trkpt>
<trkpt lat="46.0907" lon="6.99085"><ele></ele><time>2017-6-21T11:15:34Z</time></trkpt>
<trkpt lat="46.09063" lon="6.99085"><ele></ele><time>2017-6-21T11:15:37Z</time></trkpt>
<trkpt lat="46.09044" lon="6.99086"><ele></ele><time>2017-6-21T11:15:40Z</time></trkpt>
<trkpt lat="46.09032" lon="6.99088"><ele></ele><time>2017-6-21T11:15:43Z</time></trkpt>
<trkpt lat="46.09023" lon="6.99096"><ele></ele><time>2017-6-21T11:15:46Z</time></trkpt>
<trkpt lat="46.09027" lon="6.99107"><ele></ele><time>2017-6-21T11:15:49Z</time></trkpt>
<trkpt lat="46.0903" lon="6.99109"><ele></ele><time>2017-6-21T11:15:52Z</time></trkpt>
<trkpt lat="46.09038" lon="6.99109"><ele></ele><time>2017-6-21T11:15:55Z</time></trkpt>
<trkpt lat="46.09044" lon="6.99104"><ele></ele><time>2017-6-21T11:15:58Z</time></trkpt>
<trkpt lat="46.09052" lon="6.99103"><ele></ele><time>2017-6-21T11:16:1Z</time></trkpt>
<trkpt lat="46.09067" lon="6.99101"><ele></ele><time>2017-6-21T11:16:4Z</time></trkpt>
<trkpt lat="46.09092" lon="6.991"><ele></ele><time>2017-6-21T11:16:7Z</time></trkpt>
<trkpt lat="46.09113" lon="6.99108"><ele></ele><time>2017-6-21T11:16:10Z</time></trkpt>
<trkpt lat="46.09121" lon="6.99114"><ele></ele><time>2017-6-21T11:16:13Z</time></trkpt>
<trkpt lat="46.09126" lon="6.9912"><ele></ele><time>2017-6-21T11:16:16Z</time></trkpt>
<trkpt lat="46.09133" lon="6.99124"><ele></ele><time>2017-6-21T11:16:19Z</time></trkpt>
<trkpt lat="46.09138" lon="6.99128"><ele></ele><time>2017-6-21T11:16:22Z</time></trkpt>
<trkpt lat="46.09138" lon="6.99132"><ele></ele><time>2017-6-21T11:16:25Z</time></trkpt>
<trkpt lat="46.09133" lon="6.99133"><ele></ele><time>2017-6-21T11:16:28Z</time></trkpt>
<trkpt lat="46.09128" lon="6.99133"><ele></ele><time>2017-6-21T11:16:31Z</time></trkpt>
<trkpt lat="46.09124" lon="6.9913"><ele></ele><time>2017-6-21T11:16:34Z</time></trkpt>
<trkpt lat="46.0912" lon="6.99127"><ele></ele><time>2017-6-21T11:16:37Z</time></trkpt>
<trkpt lat="46.09115" lon="6.99126"><ele></ele><time>2017-6-21T11:16:40Z</time></trkpt>
<trkpt lat="46.0911" lon="6.99123"><ele></ele><time>2017-6-21T11:16:43Z</time></trkpt>
<trkpt lat="46.09103" lon="6.9912"><ele></ele><time>2017-6-21T11:16:46Z</time></trkpt>
<trkpt lat="46.09095" lon="6.99122"><ele></ele><time>2017-6-21T11:16:49Z</time></trkpt>
<trkpt lat="46.09082" lon="6.99134"><ele></ele><time>2017-6-21T11:16:52Z</time></trkpt>
<trkpt lat="46.09075" lon="6.99138"><ele></ele><time>2017-6-21T11:16:55Z</time></trkpt>
<trkpt lat="46.09068" lon="6.99142"><ele></ele><time>2017-6-21T11:16:58Z</time></trkpt>
<trkpt lat="46.09056" lon="6.9915"><ele></ele><time>2017-6-21T11:17:1Z</time></trkpt>
<trkpt lat="46.09053" lon="6.99154"><ele></ele><time>2017-6-21T11:17:4Z</time></trkpt>
<trkpt lat="46.09052" lon="6.99158"><ele></ele><time>2017-6-21T11:17:7Z</time></trkpt>
<trkpt lat="46.09058" lon="6.99159"><ele></ele><time>2017-6-21T11:17:10Z</time></trkpt>
<trkpt lat="46.0907" lon="6.99152"><ele></ele><time>2017-6-21T11:17:13Z</time></trkpt>
<trkpt lat="46.09085" lon="6.99152"><ele></ele><time>2017-6-21T11:17:16Z</time></trkpt>
<trkpt lat="46.09099" lon="6.99152"><ele></ele><time>2017-6-21T11:17:19Z</time></trkpt>
<trkpt lat="46.09114" lon="6.99153"><ele></ele><time>2017-6-21T11:17:22Z</time></trkpt>
<trkpt lat="46.09126" lon="6.99157"><ele></ele><time>2017-6-21T11:17:25Z</time></trkpt>
<trkpt lat="46.09135" lon="6.99161"><ele></ele><time>2017-6-21T11:17:28Z</time></trkpt>
<trkpt lat="46.09131" lon="6.99163"><ele></ele><time>2017-6-21T11:17:31Z</time></trkpt>
<trkpt lat="46.09128" lon="6.99164"><ele></ele><time>2017-6-21T11:17:34Z</time></trkpt>
<trkpt lat="46.09118" lon="6.99169"><ele></ele><time>2017-6-21T11:17:37Z</time></trkpt>
<trkpt lat="46.09114" lon="6.99171"><ele></ele><time>2017-6-21T11:17:40Z</time></trkpt>
<trkpt lat="46.09108" lon="6.99174"><ele></ele><time>2017-6-21T11:17:43Z</time></trkpt>
<trkpt lat="46.09104" lon="6.99176"><ele></ele><time>2017-6-21T11:17:46Z</time></trkpt>
<trkpt lat="46.09099" lon="6.99176"><ele></ele><time>2017-6-21T11:17:49Z</time></trkpt>
<trkpt lat="46.0909" lon="6.99177"><ele></ele><time>2017-6-21T11:17:52Z</time></trkpt>
<trkpt lat="46.09088" lon="6.99181"><ele></ele><time>2017-6-21T11:17:55Z</time></trkpt>
<trkpt lat="46.0909" lon="6.99184"><ele></ele><time>2017-6-21T11:17:58Z</time></trkpt>
<trkpt lat="46.09099" lon="6.99187"><ele></ele><time>2017-6-21T11:18:1Z</time></trkpt>
<trkpt lat="46.09111" lon="6.99183"><ele></ele><time>2017-6-21T11:18:4Z</time></trkpt>
<trkpt lat="46.09118" lon="6.99185"><ele></ele><time>2017-6-21T11:18:7Z</time></trkpt>
<trkpt lat="46.09131" lon="6.99189"><ele></ele><time>2017-6-21T11:18:10Z</time></trkpt>
<trkpt lat="46.09145" lon="6.99193"><ele></ele><time>2017-6-21T11:18:13Z</time></trkpt>
<trkpt lat="46.09152" lon="6.99194"><ele></ele><time>2017-6-21T11:18:16Z</time></trkpt>
<trkpt lat="46.09161" lon="6.99192"><ele></ele><time>2017-6-21T11:18:19Z</time></trkpt>
<trkpt lat="46.09187" lon="6.99188"><ele></ele><time>2017-6-21T11:18:22Z</time></trkpt>
<trkpt lat="46.09196" lon="6.99188"><ele></ele><time>2017-6-21T11:18:25Z</time></trkpt>
<trkpt lat="46.09204" lon="6.9919"><ele></ele><time>2017-6-21T11:18:28Z</time></trkpt>
<trkpt lat="46.09212" lon="6.99192"><ele></ele><time>2017-6-21T11:18:31Z</time></trkpt>
<trkpt lat="46.09221" lon="6.99195"><ele></ele><time>2017-6-21T11:18:34Z</time></trkpt>
<trkpt lat="46.09231" lon="6.99195"><ele></ele><time>2017-6-21T11:18:37Z</time></trkpt>
<trkpt lat="46.09239" lon="6.99196"><ele></ele><time>2017-6-21T11:18:40Z</time></trkpt>
<trkpt lat="46.09248" lon="6.99194"><ele></ele><time>2017-6-21T11:18:43Z</time></trkpt>
<trkpt lat="46.09258" lon="6.99192"><ele></ele><time>2017-6-21T11:18:46Z</time></trkpt>
<trkpt lat="46.09293" lon="6.99183"><ele></ele><time>2017-6-21T11:18:49Z</time></trkpt>
<trkpt lat="46.09301" lon="6.99181"><ele></ele><time>2017-6-21T11:18:52Z</time></trkpt>
<trkpt lat="46.09312" lon="6.99179"><ele></ele><time>2017-6-21T11:18:55Z</time></trkpt>
<trkpt lat="46.0931" lon="6.99182"><ele></ele><time>2017-6-21T11:18:58Z</time></trkpt>
<trkpt lat="46.09305" lon="6.99181"><ele></ele><time>2017-6-21T11:19:1Z</time></trkpt>
<trkpt lat="46.09302" lon="6.99183"><ele></ele><time>2017-6-21T11:19:4Z</time></trkpt>
<trkpt lat="46.09286" lon="6.99199"><ele></ele><time>2017-6-21T11:19:7Z</time></trkpt>
<trkpt lat="46.09282" lon="6.99202"><ele></ele><time>2017-6-21T11:19:10Z</time></trkpt>
<trkpt lat="46.0928" lon="6.99208"><ele></ele><time>2017-6-21T11:19:13Z</time></trkpt>
<trkpt lat="46.09279" lon="6.99212"><ele></ele><time>2017-6-21T11:19:16Z</time></trkpt>
<trkpt lat="46.09278" lon="6.99214"><ele></ele><time>2017-6-21T11:19:19Z</time></trkpt>
<trkpt lat="46.0928" lon="6.99214"><ele></ele><time>2017-6-21T11:19:22Z</time></trkpt>
<trkpt lat="46.0929" lon="6.99207"><ele></ele><time>2017-6-21T11:19:25Z</time></trkpt>
<trkpt lat="46.09297" lon="6.99206"><ele></ele><time>2017-6-21T11:19:28Z</time></trkpt>
<trkpt lat="46.09306" lon="6.99208"><ele></ele><time>2017-6-21T11:19:31Z</time></trkpt>
<trkpt lat="46.09316" lon="6.99208"><ele></ele><time>2017-6-21T11:19:34Z</time></trkpt>
<trkpt lat="46.09325" lon="6.99207"><ele></ele><time>2017-6-21T11:19:37Z</time></trkpt>
<trkpt lat="46.09341" lon="6.99212"><ele></ele><time>2017-6-21T11:19:40Z</time></trkpt>
<trkpt lat="46.09346" lon="6.99214"><ele></ele><time>2017-6-21T11:19:43Z</time></trkpt>
<trkpt lat="46.09346" lon="6.99216"><ele></ele><time>2017-6-21T11:19:46Z</time></trkpt>
<trkpt lat="46.09331" lon="6.99221"><ele></ele><time>2017-6-21T11:19:49Z</time></trkpt>
<trkpt lat="46.09324" lon="6.99219"><ele></ele><time>2017-6-21T11:19:52Z</time></trkpt>
<trkpt lat="46.09318" lon="6.99222"><ele></ele><time>2017-6-21T11:19:55Z</time></trkpt>
<trkpt lat="46.09313" lon="6.99225"><ele></ele><time>2017-6-21T11:19:58Z</time></trkpt>
<trkpt lat="46.09309" lon="6.99228"><ele></ele><time>2017-6-21T11:20:1Z</time></trkpt>
<trkpt lat="46.09308" lon="6.99231"><ele></ele><time>2017-6-21T11:20:4Z</time></trkpt>
<trkpt lat="46.09309" lon="6.99232"><ele></ele><time>2017-6-21T11:20:7Z</time></trkpt>
<trkpt lat="46.09315" lon="6.99232"><ele></ele><time>2017-6-21T11:20:10Z</time></trkpt>
<trkpt lat="46.09316" lon="6.99231"><ele></ele><time>2017-6-21T11:20:13Z</time></trkpt>
<trkpt lat="46.09319" lon="6.99229"><ele></ele><time>2017-6-21T11:20:16Z</time></trkpt>
<trkpt lat="46.09334" lon="6.99232"><ele></ele><time>2017-6-21T11:20:19Z</time></trkpt>
<trkpt lat="46.09341" lon="6.99234"><ele></ele><time>2017-6-21T11:20:22Z</time></trkpt>
<trkpt lat="46.09348" lon="6.99234"><ele></ele><time>2017-6-21T11:20:25Z</time></trkpt>
<trkpt lat="46.09354" lon="6.99232"><ele></ele><time>2017-6-21T11:20:28Z</time></trkpt>
<trkpt lat="46.09367" lon="6.99228"><ele></ele><time>2017-6-21T11:20:31Z</time></trkpt>
<trkpt lat="46.09379" lon="6.99225"><ele></ele><time>2017-6-21T11:20:34Z</time></trkpt>
<trkpt lat="46.0938" lon="6.99227"><ele></ele><time>2017-6-21T11:20:37Z</time></trkpt>
<trkpt lat="46.09376" lon="6.99231"><ele></ele><time>2017-6-21T11:20:40Z</time></trkpt>
<trkpt lat="46.09369" lon="6.9924"><ele></ele><time>2017-6-21T11:20:43Z</time></trkpt>
<trkpt lat="46.09361" lon="6.99248"><ele></ele><time>2017-6-21T11:20:46Z</time></trkpt>
<trkpt lat="46.09357" lon="6.99252"><ele></ele><time>2017-6-21T11:20:49Z</time></trkpt>
<trkpt lat="46.09349" lon="6.99261"><ele></ele><time>2017-6-21T11:20:52Z</time></trkpt>
<trkpt lat="46.09335" lon="6.99272"><ele></ele><time>2017-6-21T11:20:55Z</time></trkpt>
<trkpt lat="46.09329" lon="6.99278"><ele></ele><time>2017-6-21T11:20:58Z</time></trkpt>
<trkpt lat="46.09322" lon="6.99283"><ele></ele><time>2017-6-21T11:21:1Z</time></trkpt>
<trkpt lat="46.09315" lon="6.99289"><ele></ele><time>2017-6-21T11:21:4Z</time></trkpt>
<trkpt lat="46.0931" lon="6.99294"><ele></ele><time>2017-6-21T11:21:7Z</time></trkpt>
<trkpt lat="46.09305" lon="6.99299"><ele></ele><time>2017-6-21T11:21:10Z</time></trkpt>
<trkpt lat="46.09302" lon="6.99302"><ele></ele><time>2017-6-21T11:21:13Z</time></trkpt>
<trkpt lat="46.09303" lon="6.99302"><ele></ele><time>2017-6-21T11:21:16Z</time></trkpt>
<trkpt lat="46.09304" lon="6.99302"><ele></ele><time>2017-6-21T11:21:19Z</time></trkpt>
<trkpt lat="46.09309" lon="6.993"><ele></ele><time>2017-6-21T11:21:22Z</time></trkpt>
<trkpt lat="46.09326" lon="6.99291"><ele></ele><time>2017-6-21T11:21:25Z</time></trkpt>
<trkpt lat="46.09342" lon="6.99287"><ele></ele><time>2017-6-21T11:21:28Z</time></trkpt>
<trkpt lat="46.09358" lon="6.99283"><ele></ele><time>2017-6-21T11:21:31Z</time></trkpt>
<trkpt lat="46.09366" lon="6.99281"><ele></ele><time>2017-6-21T11:21:34Z</time></trkpt>
<trkpt lat="46.09375" lon="6.99278"><ele></ele><time>2017-6-21T11:21:37Z</time></trkpt>
<trkpt lat="46.09385" lon="6.99273"><ele></ele><time>2017-6-21T11:21:40Z</time></trkpt>
<trkpt lat="46.09395" lon="6.9927"><ele></ele><time>2017-6-21T11:21:43Z</time></trkpt>
<trkpt lat="46.09405" lon="6.9927"><ele></ele><time>2017-6-21T11:21:46Z</time></trkpt>
<trkpt lat="46.09426" lon="6.99269"><ele></ele><time>2017-6-21T11:21:49Z</time></trkpt>
<trkpt lat="46.09436" lon="6.99267"><ele></ele><time>2017-6-21T11:21:52Z</time></trkpt>
<trkpt lat="46.09455" lon="6.99261"><ele></ele><time>2017-6-21T11:21:55Z</time></trkpt>
<trkpt lat="46.09463" lon="6.99258"><ele></ele><time>2017-6-21T11:21:58Z</time></trkpt>
<trkpt lat="46.0947" lon="6.99255"><ele></ele><time>2017-6-21T11:22:1Z</time></trkpt>
<trkpt lat="46.09467" lon="6.99263"><ele></ele><time>2017-6-21T11:22:4Z</time></trkpt>
<trkpt lat="46.09459" lon="6.99272"><ele></ele><time>2017-6-21T11:22:7Z</time></trkpt>
<trkpt lat="46.09444" lon="6.99278"><ele></ele><time>2017-6-21T11:22:10Z</time></trkpt>
<trkpt lat="46.09414" lon="6.99289"><ele></ele><time>2017-6-21T11:22:13Z</time></trkpt>
<trkpt lat="46.09407" lon="6.99293"><ele></ele><time>2017-6-21T11:22:16Z</time></trkpt>
<trkpt lat="46.094" lon="6.99299"><ele></ele><time>2017-6-21T11:22:19Z</time></trkpt>
<trkpt lat="46.09387" lon="6.99309"><ele></ele><time>2017-6-21T11:22:22Z</time></trkpt>
<trkpt lat="46.09386" lon="6.99309"><ele></ele><time>2017-6-21T11:22:25Z</time></trkpt>
<trkpt lat="46.09394" lon="6.99313"><ele></ele><time>2017-6-21T11:22:28Z</time></trkpt>
<trkpt lat="46.09402" lon="6.99309"><ele></ele><time>2017-6-21T11:22:31Z</time></trkpt>
<trkpt lat="46.09408" lon="6.99307"><ele></ele><time>2017-6-21T11:22:34Z</time></trkpt>
<trkpt lat="46.09429" lon="6.99308"><ele></ele><time>2017-6-21T11:22:37Z</time></trkpt>
<trkpt lat="46.09439" lon="6.99308"><ele></ele><time>2017-6-21T11:22:40Z</time></trkpt>
<trkpt lat="46.09449" lon="6.99308"><ele></ele><time>2017-6-21T11:22:43Z</time></trkpt>
<trkpt lat="46.09459" lon="6.99308"><ele></ele><time>2017-6-21T11:22:46Z</time></trkpt>
<trkpt lat="46.09468" lon="6.99309"><ele></ele><time>2017-6-21T11:22:49Z</time></trkpt>
<trkpt lat="46.09478" lon="6.99307"><ele></ele><time>2017-6-21T11:22:52Z</time></trkpt>
<trkpt lat="46.09487" lon="6.99301"><ele></ele><time>2017-6-21T11:22:55Z</time></trkpt>
<trkpt lat="46.09506" lon="6.99291"><ele></ele><time>2017-6-21T11:22:58Z</time></trkpt>
<trkpt lat="46.09543" lon="6.99291"><ele></ele><time>2017-6-21T11:23:1Z</time></trkpt>
<trkpt lat="46.09554" lon="6.99291"><ele></ele><time>2017-6-21T11:23:4Z</time></trkpt>
<trkpt lat="46.09595" lon="6.99289"><ele></ele><time>2017-6-21T11:23:7Z</time></trkpt>
<trkpt lat="46.09605" lon="6.99287"><ele></ele><time>2017-6-21T11:23:10Z</time></trkpt>
<trkpt lat="46.09614" lon="6.99288"><ele></ele><time>2017-6-21T11:23:13Z</time></trkpt>
<trkpt lat="46.0962" lon="6.99291"><ele></ele><time>2017-6-21T11:23:16Z</time></trkpt>
<trkpt lat="46.09637" lon="6.99294"><ele></ele><time>2017-6-21T11:23:19Z</time></trkpt>
<trkpt lat="46.09666" lon="6.99311"><ele></ele><time>2017-6-21T11:23:22Z</time></trkpt>
<trkpt lat="46.09674" lon="6.99312"><ele></ele><time>2017-6-21T11:23:25Z</time></trkpt>
<trkpt lat="46.09683" lon="6.99313"><ele></ele><time>2017-6-21T11:23:28Z</time></trkpt>
<trkpt lat="46.09692" lon="6.99317"><ele></ele><time>2017-6-21T11:23:31Z</time></trkpt>
<trkpt lat="46.0971" lon="6.99327"><ele></ele><time>2017-6-21T11:23:34Z</time></trkpt>
<trkpt lat="46.09719" lon="6.99337"><ele></ele><time>2017-6-21T11:23:37Z</time></trkpt>
<trkpt lat="46.09728" lon="6.99345"><ele></ele><time>2017-6-21T11:23:40Z</time></trkpt>
<trkpt lat="46.09747" lon="6.9936"><ele></ele><time>2017-6-21T11:23:43Z</time></trkpt>
<trkpt lat="46.09765" lon="6.99374"><ele></ele><time>2017-6-21T11:23:46Z</time></trkpt>
<trkpt lat="46.09773" lon="6.99379"><ele></ele><time>2017-6-21T11:23:49Z</time></trkpt>
<trkpt lat="46.09788" lon="6.9939"><ele></ele><time>2017-6-21T11:23:52Z</time></trkpt>
<trkpt lat="46.09796" lon="6.99398"><ele></ele><time>2017-6-21T11:23:55Z</time></trkpt>
<trkpt lat="46.09812" lon="6.99418"><ele></ele><time>2017-6-21T11:23:58Z</time></trkpt>
<trkpt lat="46.0983" lon="6.99436"><ele></ele><time>2017-6-21T11:24:1Z</time></trkpt>
<trkpt lat="46.0984" lon="6.99442"><ele></ele><time>2017-6-21T11:24:4Z</time></trkpt>
<trkpt lat="46.09849" lon="6.99451"><ele></ele><time>2017-6-21T11:24:7Z</time></trkpt>
<trkpt lat="46.09858" lon="6.9946"><ele></ele><time>2017-6-21T11:24:10Z</time></trkpt>
<trkpt lat="46.09867" lon="6.99469"><ele></ele><time>2017-6-21T11:24:13Z</time></trkpt>
<trkpt lat="46.09885" lon="6.99487"><ele></ele><time>2017-6-21T11:24:16Z</time></trkpt>
<trkpt lat="46.09903" lon="6.99504"><ele></ele><time>2017-6-21T11:24:19Z</time></trkpt>
<trkpt lat="46.09913" lon="6.9951"><ele></ele><time>2017-6-21T11:24:22Z</time></trkpt>
<trkpt lat="46.09921" lon="6.99518"><ele></ele><time>2017-6-21T11:24:25Z</time></trkpt>
<trkpt lat="46.0993" lon="6.99535"><ele></ele><time>2017-6-21T11:24:28Z</time></trkpt>
<trkpt lat="46.0994" lon="6.99552"><ele></ele><time>2017-6-21T11:24:31Z</time></trkpt>
<trkpt lat="46.09945" lon="6.9956"><ele></ele><time>2017-6-21T11:24:34Z</time></trkpt>
<trkpt lat="46.0995" lon="6.99568"><ele></ele><time>2017-6-21T11:24:37Z</time></trkpt>
<trkpt lat="46.09953" lon="6.99574"><ele></ele><time>2017-6-21T11:24:40Z</time></trkpt>
<trkpt lat="46.09961" lon="6.99587"><ele></ele><time>2017-6-21T11:24:43Z</time></trkpt>
<trkpt lat="46.09964" lon="6.99593"><ele></ele><time>2017-6-21T11:24:46Z</time></trkpt>
<trkpt lat="46.09968" lon="6.996"><ele></ele><time>2017-6-21T11:24:49Z</time></trkpt>
<trkpt lat="46.09972" lon="6.99606"><ele></ele><time>2017-6-21T11:24:52Z</time></trkpt>
<trkpt lat="46.09976" lon="6.99612"><ele></ele><time>2017-6-21T11:24:55Z</time></trkpt>
<trkpt lat="46.09982" lon="6.99615"><ele></ele><time>2017-6-21T11:24:58Z</time></trkpt>
<trkpt lat="46.09995" lon="6.99617"><ele></ele><time>2017-6-21T11:25:1Z</time></trkpt>
<trkpt lat="46.10002" lon="6.99619"><ele></ele><time>2017-6-21T11:25:4Z</time></trkpt>
<trkpt lat="46.10014" lon="6.9963"><ele></ele><time>2017-6-21T11:25:7Z</time></trkpt>
<trkpt lat="46.10019" lon="6.99635"><ele></ele><time>2017-6-21T11:25:10Z</time></trkpt>
<trkpt lat="46.10032" lon="6.99655"><ele></ele><time>2017-6-21T11:25:13Z</time></trkpt>
<trkpt lat="46.10037" lon="6.99662"><ele></ele><time>2017-6-21T11:25:16Z</time></trkpt>
<trkpt lat="46.10049" lon="6.99673"><ele></ele><time>2017-6-21T11:25:19Z</time></trkpt>
<trkpt lat="46.10062" lon="6.99685"><ele></ele><time>2017-6-21T11:25:22Z</time></trkpt>
<trkpt lat="46.10068" lon="6.99693"><ele></ele><time>2017-6-21T11:25:25Z</time></trkpt>
<trkpt lat="46.10074" lon="6.99702"><ele></ele><time>2017-6-21T11:25:28Z</time></trkpt>
<trkpt lat="46.1008" lon="6.99711"><ele></ele><time>2017-6-21T11:25:31Z</time></trkpt>
<trkpt lat="46.10092" lon="6.99728"><ele></ele><time>2017-6-21T11:25:34Z</time></trkpt>
<trkpt lat="46.10099" lon="6.99736"><ele></ele><time>2017-6-21T11:25:37Z</time></trkpt>
<trkpt lat="46.10113" lon="6.99753"><ele></ele><time>2017-6-21T11:25:40Z</time></trkpt>
<trkpt lat="46.10135" lon="6.99778"><ele></ele><time>2017-6-21T11:25:43Z</time></trkpt>
<trkpt lat="46.10153" lon="6.9979"><ele></ele><time>2017-6-21T11:25:46Z</time></trkpt>
<trkpt lat="46.1017" lon="6.99801"><ele></ele><time>2017-6-21T11:25:49Z</time></trkpt>
<trkpt lat="46.10179" lon="6.99807"><ele></ele><time>2017-6-21T11:25:52Z</time></trkpt>
<trkpt lat="46.10202" lon="6.99829"><ele></ele><time>2017-6-21T11:25:55Z</time></trkpt>
<trkpt lat="46.10206" lon="6.99836"><ele></ele><time>2017-6-21T11:25:58Z</time></trkpt>
<trkpt lat="46.10217" lon="6.99857"><ele></ele><time>2017-6-21T11:26:1Z</time></trkpt>
<trkpt lat="46.10214" lon="6.99866"><ele></ele><time>2017-6-21T11:26:4Z</time></trkpt>
<trkpt lat="46.10212" lon="6.99875"><ele></ele><time>2017-6-21T11:26:7Z</time></trkpt>
<trkpt lat="46.10218" lon="6.99891"><ele></ele><time>2017-6-21T11:26:10Z</time></trkpt>
<trkpt lat="46.10221" lon="6.99899"><ele></ele><time>2017-6-21T11:26:13Z</time></trkpt>
<trkpt lat="46.10227" lon="6.99914"><ele></ele><time>2017-6-21T11:26:16Z</time></trkpt>
<trkpt lat="46.10237" lon="6.99923"><ele></ele><time>2017-6-21T11:26:19Z</time></trkpt>
<trkpt lat="46.10247" lon="6.99931"><ele></ele><time>2017-6-21T11:26:22Z</time></trkpt>
<trkpt lat="46.10252" lon="6.99932"><ele></ele><time>2017-6-21T11:26:25Z</time></trkpt>
<trkpt lat="46.10258" lon="6.99933"><ele></ele><time>2017-6-21T11:26:28Z</time></trkpt>
<trkpt lat="46.10264" lon="6.99935"><ele></ele><time>2017-6-21T11:26:31Z</time></trkpt>
<trkpt lat="46.10269" lon="6.99936"><ele></ele><time>2017-6-21T11:26:34Z</time></trkpt>
<trkpt lat="46.10286" lon="6.99938"><ele></ele><time>2017-6-21T11:26:37Z</time></trkpt>
<trkpt lat="46.10298" lon="6.99933"><ele></ele><time>2017-6-21T11:26:40Z</time></trkpt>
<trkpt lat="46.10303" lon="6.9993"><ele></ele><time>2017-6-21T11:26:43Z</time></trkpt>
<trkpt lat="46.10307" lon="6.99924"><ele></ele><time>2017-6-21T11:26:46Z</time></trkpt>
<trkpt lat="46.10314" lon="6.99913"><ele></ele><time>2017-6-21T11:26:49Z</time></trkpt>
<trkpt lat="46.10317" lon="6.99907"><ele></ele><time>2017-6-21T11:26:52Z</time></trkpt>
<trkpt lat="46.10348" lon="6.99879"><ele></ele><time>2017-6-21T11:26:55Z</time></trkpt>
<trkpt lat="46.10374" lon="6.99842"><ele></ele><time>2017-6-21T11:26:58Z</time></trkpt>
<trkpt lat="46.1038" lon="6.99843"><ele></ele><time>2017-6-21T11:27:1Z</time></trkpt>
<trkpt lat="46.10386" lon="6.99845"><ele></ele><time>2017-6-21T11:27:4Z</time></trkpt>
<trkpt lat="46.10391" lon="6.9985"><ele></ele><time>2017-6-21T11:27:7Z</time></trkpt>
<trkpt lat="46.10394" lon="6.99856"><ele></ele><time>2017-6-21T11:27:10Z</time></trkpt>
<trkpt lat="46.10394" lon="6.99862"><ele></ele><time>2017-6-21T11:27:13Z</time></trkpt>
<trkpt lat="46.10395" lon="6.99875"><ele></ele><time>2017-6-21T11:27:16Z</time></trkpt>
<trkpt lat="46.10396" lon="6.99894"><ele></ele><time>2017-6-21T11:27:19Z</time></trkpt>
<trkpt lat="46.10396" lon="6.99902"><ele></ele><time>2017-6-21T11:27:22Z</time></trkpt>
<trkpt lat="46.10393" lon="6.99912"><ele></ele><time>2017-6-21T11:27:25Z</time></trkpt>
<trkpt lat="46.10391" lon="6.99922"><ele></ele><time>2017-6-21T11:27:28Z</time></trkpt>
<trkpt lat="46.10386" lon="6.99942"><ele></ele><time>2017-6-21T11:27:31Z</time></trkpt>
<trkpt lat="46.1038" lon="6.99962"><ele></ele><time>2017-6-21T11:27:34Z</time></trkpt>
<trkpt lat="46.10376" lon="6.99972"><ele></ele><time>2017-6-21T11:27:37Z</time></trkpt>
<trkpt lat="46.1037" lon="6.9998"><ele></ele><time>2017-6-21T11:27:40Z</time></trkpt>
<trkpt lat="46.10366" lon="6.99988"><ele></ele><time>2017-6-21T11:27:43Z</time></trkpt>
<trkpt lat="46.1037" lon="6.9999"><ele></ele><time>2017-6-21T11:27:46Z</time></trkpt>
<trkpt lat="46.10375" lon="6.99995"><ele></ele><time>2017-6-21T11:27:49Z</time></trkpt>
<trkpt lat="46.10374" lon="6.99999"><ele></ele><time>2017-6-21T11:27:52Z</time></trkpt>
<trkpt lat="46.10375" lon="7.00003"><ele></ele><time>2017-6-21T11:27:55Z</time></trkpt>
<trkpt lat="46.10378" lon="7.00011"><ele></ele><time>2017-6-21T11:27:58Z</time></trkpt>
<trkpt lat="46.10381" lon="7.00013"><ele></ele><time>2017-6-21T11:28:1Z</time></trkpt>
<trkpt lat="46.10383" lon="7.00029"><ele></ele><time>2017-6-21T11:28:4Z</time></trkpt>
<trkpt lat="46.10383" lon="7.0004"><ele></ele><time>2017-6-21T11:28:7Z</time></trkpt>
<trkpt lat="46.10379" lon="7.00059"><ele></ele><time>2017-6-21T11:28:10Z</time></trkpt>
<trkpt lat="46.10375" lon="7.00077"><ele></ele><time>2017-6-21T11:28:13Z</time></trkpt>
<trkpt lat="46.10372" lon="7.0009"><ele></ele><time>2017-6-21T11:28:16Z</time></trkpt>
<trkpt lat="46.10372" lon="7.00094"><ele></ele><time>2017-6-21T11:28:19Z</time></trkpt>
<trkpt lat="46.10372" lon="7.00102"><ele></ele><time>2017-6-21T11:28:22Z</time></trkpt>
<trkpt lat="46.10371" lon="7.0011"><ele></ele><time>2017-6-21T11:28:25Z</time></trkpt>
<trkpt lat="46.10372" lon="7.00118"><ele></ele><time>2017-6-21T11:28:28Z</time></trkpt>
<trkpt lat="46.10376" lon="7.00125"><ele></ele><time>2017-6-21T11:28:31Z</time></trkpt>
<trkpt lat="46.1038" lon="7.00133"><ele></ele><time>2017-6-21T11:28:34Z</time></trkpt>
<trkpt lat="46.10387" lon="7.00144"><ele></ele><time>2017-6-21T11:28:37Z</time></trkpt>
<trkpt lat="46.10389" lon="7.00148"><ele></ele><time>2017-6-21T11:28:40Z</time></trkpt>
<trkpt lat="46.10391" lon="7.00152"><ele></ele><time>2017-6-21T11:28:43Z</time></trkpt>
<trkpt lat="46.10396" lon="7.00159"><ele></ele><time>2017-6-21T11:28:46Z</time></trkpt>
<trkpt lat="46.10398" lon="7.00161"><ele></ele><time>2017-6-21T11:28:49Z</time></trkpt>
<trkpt lat="46.10404" lon="7.00164"><ele></ele><time>2017-6-21T11:28:52Z</time></trkpt>
<trkpt lat="46.1041" lon="7.00167"><ele></ele><time>2017-6-21T11:28:55Z</time></trkpt>
<trkpt lat="46.10415" lon="7.00171"><ele></ele><time>2017-6-21T11:28:58Z</time></trkpt>
<trkpt lat="46.10421" lon="7.00174"><ele></ele><time>2017-6-21T11:29:1Z</time></trkpt>
<trkpt lat="46.1043" lon="7.00179"><ele></ele><time>2017-6-21T11:29:4Z</time></trkpt>
<trkpt lat="46.10432" lon="7.00181"><ele></ele><time>2017-6-21T11:29:7Z</time></trkpt>
<trkpt lat="46.10438" lon="7.00185"><ele></ele><time>2017-6-21T11:29:10Z</time></trkpt>
<trkpt lat="46.10442" lon="7.0019"><ele></ele><time>2017-6-21T11:29:13Z</time></trkpt>
<trkpt lat="46.10449" lon="7.00197"><ele></ele><time>2017-6-21T11:29:16Z</time></trkpt>
<trkpt lat="46.10451" lon="7.00199"><ele></ele><time>2017-6-21T11:29:19Z</time></trkpt>
<trkpt lat="46.10456" lon="7.00204"><ele></ele><time>2017-6-21T11:29:22Z</time></trkpt>
<trkpt lat="46.1046" lon="7.00209"><ele></ele><time>2017-6-21T11:29:25Z</time></trkpt>
<trkpt lat="46.10462" lon="7.00212"><ele></ele><time>2017-6-21T11:29:28Z</time></trkpt>
<trkpt lat="46.10465" lon="7.00214"><ele></ele><time>2017-6-21T11:29:31Z</time></trkpt>
<trkpt lat="46.10469" lon="7.00219"><ele></ele><time>2017-6-21T11:29:34Z</time></trkpt>
<trkpt lat="46.10474" lon="7.00224"><ele></ele><time>2017-6-21T11:29:37Z</time></trkpt>
<trkpt lat="46.10476" lon="7.00226"><ele></ele><time>2017-6-21T11:29:40Z</time></trkpt>
<trkpt lat="46.10482" lon="7.0023"><ele></ele><time>2017-6-21T11:29:43Z</time></trkpt>
<trkpt lat="46.10485" lon="7.00232"><ele></ele><time>2017-6-21T11:29:46Z</time></trkpt>
<trkpt lat="46.10492" lon="7.00235"><ele></ele><time>2017-6-21T11:29:49Z</time></trkpt>
<trkpt lat="46.10501" lon="7.0024"><ele></ele><time>2017-6-21T11:29:52Z</time></trkpt>
<trkpt lat="46.10504" lon="7.00242"><ele></ele><time>2017-6-21T11:29:55Z</time></trkpt>
<trkpt lat="46.1051" lon="7.00245"><ele></ele><time>2017-6-21T11:29:58Z</time></trkpt>
<trkpt lat="46.10516" lon="7.00249"><ele></ele><time>2017-6-21T11:30:1Z</time></trkpt>
<trkpt lat="46.10519" lon="7.00251"><ele></ele><time>2017-6-21T11:30:4Z</time></trkpt>
<trkpt lat="46.10522" lon="7.00253"><ele></ele><time>2017-6-21T11:30:7Z</time></trkpt>
<trkpt lat="46.10525" lon="7.00256"><ele></ele><time>2017-6-21T11:30:10Z</time></trkpt>
<trkpt lat="46.1053" lon="7.00261"><ele></ele><time>2017-6-21T11:30:13Z</time></trkpt>
<trkpt lat="46.10533" lon="7.00263"><ele></ele><time>2017-6-21T11:30:16Z</time></trkpt>
<trkpt lat="46.10538" lon="7.00268"><ele></ele><time>2017-6-21T11:30:19Z</time></trkpt>
<trkpt lat="46.10544" lon="7.00273"><ele></ele><time>2017-6-21T11:30:22Z</time></trkpt>
<trkpt lat="46.10549" lon="7.00278"><ele></ele><time>2017-6-21T11:30:25Z</time></trkpt>
<trkpt lat="46.10555" lon="7.00283"><ele></ele><time>2017-6-21T11:30:28Z</time></trkpt>
<trkpt lat="46.10557" lon="7.00286"><ele></ele><time>2017-6-21T11:30:31Z</time></trkpt>
<trkpt lat="46.1056" lon="7.00288"><ele></ele><time>2017-6-21T11:30:34Z</time></trkpt>
<trkpt lat="46.10564" lon="7.00294"><ele></ele><time>2017-6-21T11:30:37Z</time></trkpt>
<trkpt lat="46.10569" lon="7.00299"><ele></ele><time>2017-6-21T11:30:40Z</time></trkpt>
<trkpt lat="46.10576" lon="7.00307"><ele></ele><time>2017-6-21T11:30:43Z</time></trkpt>
<trkpt lat="46.10579" lon="7.0031"><ele></ele><time>2017-6-21T11:30:46Z</time></trkpt>
<trkpt lat="46.10586" lon="7.00318"><ele></ele><time>2017-6-21T11:30:49Z</time></trkpt>
<trkpt lat="46.10588" lon="7.00321"><ele></ele><time>2017-6-21T11:30:52Z</time></trkpt>
<trkpt lat="46.10593" lon="7.00326"><ele></ele><time>2017-6-21T11:30:55Z</time></trkpt>
<trkpt lat="46.10595" lon="7.00329"><ele></ele><time>2017-6-21T11:30:58Z</time></trkpt>
<trkpt lat="46.10597" lon="7.00332"><ele></ele><time>2017-6-21T11:31:1Z</time></trkpt>
<trkpt lat="46.10603" lon="7.00343"><ele></ele><time>2017-6-21T11:31:4Z</time></trkpt>
<trkpt lat="46.10605" lon="7.00346"><ele></ele><time>2017-6-21T11:31:7Z</time></trkpt>
<trkpt lat="46.10609" lon="7.00353"><ele></ele><time>2017-6-21T11:31:10Z</time></trkpt>
<trkpt lat="46.10615" lon="7.00363"><ele></ele><time>2017-6-21T11:31:13Z</time></trkpt>
<trkpt lat="46.10617" lon="7.00366"><ele></ele><time>2017-6-21T11:31:16Z</time></trkpt>
<trkpt lat="46.10621" lon="7.00373"><ele></ele><time>2017-6-21T11:31:19Z</time></trkpt>
<trkpt lat="46.10625" lon="7.0038"><ele></ele><time>2017-6-21T11:31:22Z</time></trkpt>
<trkpt lat="46.10625" lon="7.00385"><ele></ele><time>2017-6-21T11:31:25Z</time></trkpt>
<trkpt lat="46.10626" lon="7.0039"><ele></ele><time>2017-6-21T11:31:28Z</time></trkpt>
<trkpt lat="46.10629" lon="7.00404"><ele></ele><time>2017-6-21T11:31:31Z</time></trkpt>
<trkpt lat="46.1063" lon="7.00409"><ele></ele><time>2017-6-21T11:31:34Z</time></trkpt>
<trkpt lat="46.10632" lon="7.00423"><ele></ele><time>2017-6-21T11:31:37Z</time></trkpt>
<trkpt lat="46.10633" lon="7.00428"><ele></ele><time>2017-6-21T11:31:40Z</time></trkpt>
<trkpt lat="46.10635" lon="7.00438"><ele></ele><time>2017-6-21T11:31:43Z</time></trkpt>
<trkpt lat="46.10636" lon="7.00443"><ele></ele><time>2017-6-21T11:31:46Z</time></trkpt>
<trkpt lat="46.10637" lon="7.00447"><ele></ele><time>2017-6-21T11:31:49Z</time></trkpt>
<trkpt lat="46.10639" lon="7.00455"><ele></ele><time>2017-6-21T11:31:52Z</time></trkpt>
<trkpt lat="46.10641" lon="7.00464"><ele></ele><time>2017-6-21T11:31:55Z</time></trkpt>
<trkpt lat="46.10642" lon="7.00468"><ele></ele><time>2017-6-21T11:31:58Z</time></trkpt>
<trkpt lat="46.10643" lon="7.00473"><ele></ele><time>2017-6-21T11:32:1Z</time></trkpt>
<trkpt lat="46.10645" lon="7.00481"><ele></ele><time>2017-6-21T11:32:4Z</time></trkpt>
<trkpt lat="46.10647" lon="7.0049"><ele></ele><time>2017-6-21T11:32:7Z</time></trkpt>
<trkpt lat="46.10649" lon="7.00498"><ele></ele><time>2017-6-21T11:32:10Z</time></trkpt>
<trkpt lat="46.10651" lon="7.00507"><ele></ele><time>2017-6-21T11:32:13Z</time></trkpt>
<trkpt lat="46.10655" lon="7.00514"><ele></ele><time>2017-6-21T11:32:16Z</time></trkpt>
<trkpt lat="46.10661" lon="7.00526"><ele></ele><time>2017-6-21T11:32:19Z</time></trkpt>
<trkpt lat="46.10663" lon="7.00529"><ele></ele><time>2017-6-21T11:32:22Z</time></trkpt>
<trkpt lat="46.10667" lon="7.00537"><ele></ele><time>2017-6-21T11:32:25Z</time></trkpt>
<trkpt lat="46.10671" lon="7.00544"><ele></ele><time>2017-6-21T11:32:28Z</time></trkpt>
<trkpt lat="46.10675" lon="7.00552"><ele></ele><time>2017-6-21T11:32:31Z</time></trkpt>
<trkpt lat="46.1068" lon="7.00559"><ele></ele><time>2017-6-21T11:32:34Z</time></trkpt>
<trkpt lat="46.10685" lon="7.00566"><ele></ele><time>2017-6-21T11:32:37Z</time></trkpt>
<trkpt lat="46.10689" lon="7.00572"><ele></ele><time>2017-6-21T11:32:40Z</time></trkpt>
<trkpt lat="46.10694" lon="7.00579"><ele></ele><time>2017-6-21T11:32:43Z</time></trkpt>
<trkpt lat="46.10699" lon="7.00585"><ele></ele><time>2017-6-21T11:32:46Z</time></trkpt>
<trkpt lat="46.10704" lon="7.00592"><ele></ele><time>2017-6-21T11:32:49Z</time></trkpt>
<trkpt lat="46.10707" lon="7.00595"><ele></ele><time>2017-6-21T11:32:52Z</time></trkpt>
<trkpt lat="46.10709" lon="7.00598"><ele></ele><time>2017-6-21T11:32:55Z</time></trkpt>
<trkpt lat="46.10714" lon="7.00605"><ele></ele><time>2017-6-21T11:32:58Z</time></trkpt>
<trkpt lat="46.10723" lon="7.00618"><ele></ele><time>2017-6-21T11:33:1Z</time></trkpt>
<trkpt lat="46.10726" lon="7.00622"><ele></ele><time>2017-6-21T11:33:4Z</time></trkpt>
<trkpt lat="46.1073" lon="7.00628"><ele></ele><time>2017-6-21T11:33:7Z</time></trkpt>
<trkpt lat="46.10735" lon="7.00635"><ele></ele><time>2017-6-21T11:33:10Z</time></trkpt>
<trkpt lat="46.10737" lon="7.00638"><ele></ele><time>2017-6-21T11:33:13Z</time></trkpt>
<trkpt lat="46.10744" lon="7.00648"><ele></ele><time>2017-6-21T11:33:16Z</time></trkpt>
<trkpt lat="46.10747" lon="7.00652"><ele></ele><time>2017-6-21T11:33:19Z</time></trkpt>
<trkpt lat="46.10755" lon="7.00661"><ele></ele><time>2017-6-21T11:33:22Z</time></trkpt>
<trkpt lat="46.1076" lon="7.00668"><ele></ele><time>2017-6-21T11:33:25Z</time></trkpt>
<trkpt lat="46.10763" lon="7.00671"><ele></ele><time>2017-6-21T11:33:28Z</time></trkpt>
<trkpt lat="46.10768" lon="7.00677"><ele></ele><time>2017-6-21T11:33:31Z</time></trkpt>
<trkpt lat="46.10773" lon="7.00684"><ele></ele><time>2017-6-21T11:33:34Z</time></trkpt>
<trkpt lat="46.10779" lon="7.0069"><ele></ele><time>2017-6-21T11:33:37Z</time></trkpt>
<trkpt lat="46.10781" lon="7.00694"><ele></ele><time>2017-6-21T11:33:40Z</time></trkpt>
<trkpt lat="46.10783" lon="7.00698"><ele></ele><time>2017-6-21T11:33:43Z</time></trkpt>
<trkpt lat="46.10787" lon="7.00707"><ele></ele><time>2017-6-21T11:33:46Z</time></trkpt>
<trkpt lat="46.10789" lon="7.00711"><ele></ele><time>2017-6-21T11:33:49Z</time></trkpt>
<trkpt lat="46.10791" lon="7.00715"><ele></ele><time>2017-6-21T11:33:52Z</time></trkpt>
<trkpt lat="46.10795" lon="7.00724"><ele></ele><time>2017-6-21T11:33:55Z</time></trkpt>
<trkpt lat="46.10801" lon="7.00737"><ele></ele><time>2017-6-21T11:33:58Z</time></trkpt>
<trkpt lat="46.10803" lon="7.00741"><ele></ele><time>2017-6-21T11:34:1Z</time></trkpt>
<trkpt lat="46.10807" lon="7.00749"><ele></ele><time>2017-6-21T11:34:4Z</time></trkpt>
<trkpt lat="46.10809" lon="7.00753"><ele></ele><time>2017-6-21T11:34:7Z</time></trkpt>
<trkpt lat="46.10811" lon="7.00756"><ele></ele><time>2017-6-21T11:34:10Z</time></trkpt>
<trkpt lat="46.10818" lon="7.00766"><ele></ele><time>2017-6-21T11:34:13Z</time></trkpt>
<trkpt lat="46.10822" lon="7.00773"><ele></ele><time>2017-6-21T11:34:16Z</time></trkpt>
<trkpt lat="46.10824" lon="7.00777"><ele></ele><time>2017-6-21T11:34:19Z</time></trkpt>
<trkpt lat="46.1083" lon="7.00787"><ele></ele><time>2017-6-21T11:34:22Z</time></trkpt>
<trkpt lat="46.10834" lon="7.00794"><ele></ele><time>2017-6-21T11:34:25Z</time></trkpt>
<trkpt lat="46.10836" lon="7.00797"><ele></ele><time>2017-6-21T11:34:28Z</time></trkpt>
<trkpt lat="46.10838" lon="7.00801"><ele></ele><time>2017-6-21T11:34:31Z</time></trkpt>
<trkpt lat="46.10839" lon="7.00805"><ele></ele><time>2017-6-21T11:34:34Z</time></trkpt>
<trkpt lat="46.10842" lon="7.00813"><ele></ele><time>2017-6-21T11:34:37Z</time></trkpt>
<trkpt lat="46.10843" lon="7.00816"><ele></ele><time>2017-6-21T11:34:40Z</time></trkpt>
<trkpt lat="46.10846" lon="7.00818"><ele></ele><time>2017-6-21T11:34:43Z</time></trkpt>
<trkpt lat="46.10851" lon="7.00821"><ele></ele><time>2017-6-21T11:34:46Z</time></trkpt>
<trkpt lat="46.10859" lon="7.00827"><ele></ele><time>2017-6-21T11:34:49Z</time></trkpt>
<trkpt lat="46.10861" lon="7.00828"><ele></ele><time>2017-6-21T11:34:52Z</time></trkpt>
<trkpt lat="46.10866" lon="7.00832"><ele></ele><time>2017-6-21T11:34:55Z</time></trkpt>
<trkpt lat="46.10869" lon="7.00834"><ele></ele><time>2017-6-21T11:34:58Z</time></trkpt>
<trkpt lat="46.10871" lon="7.00835"><ele></ele><time>2017-6-21T11:35:1Z</time></trkpt>
<trkpt lat="46.10876" lon="7.00839"><ele></ele><time>2017-6-21T11:35:4Z</time></trkpt>
<trkpt lat="46.10881" lon="7.00842"><ele></ele><time>2017-6-21T11:35:7Z</time></trkpt>
<trkpt lat="46.10884" lon="7.00845"><ele></ele><time>2017-6-21T11:35:10Z</time></trkpt>
<trkpt lat="46.10888" lon="7.00848"><ele></ele><time>2017-6-21T11:35:13Z</time></trkpt>
<trkpt lat="46.10897" lon="7.00854"><ele></ele><time>2017-6-21T11:35:16Z</time></trkpt>
<trkpt lat="46.10909" lon="7.00863"><ele></ele><time>2017-6-21T11:35:19Z</time></trkpt>
<trkpt lat="46.10913" lon="7.00866"><ele></ele><time>2017-6-21T11:35:22Z</time></trkpt>
<trkpt lat="46.10921" lon="7.00873"><ele></ele><time>2017-6-21T11:35:25Z</time></trkpt>
<trkpt lat="46.10926" lon="7.00877"><ele></ele><time>2017-6-21T11:35:28Z</time></trkpt>
<trkpt lat="46.10931" lon="7.00883"><ele></ele><time>2017-6-21T11:35:31Z</time></trkpt>
<trkpt lat="46.10943" lon="7.00896"><ele></ele><time>2017-6-21T11:35:34Z</time></trkpt>
<trkpt lat="46.10955" lon="7.00908"><ele></ele><time>2017-6-21T11:35:37Z</time></trkpt>
<trkpt lat="46.1096" lon="7.00915"><ele></ele><time>2017-6-21T11:35:40Z</time></trkpt>
<trkpt lat="46.10967" lon="7.00921"><ele></ele><time>2017-6-21T11:35:43Z</time></trkpt>
<trkpt lat="46.10981" lon="7.00935"><ele></ele><time>2017-6-21T11:35:46Z</time></trkpt>
<trkpt lat="46.10995" lon="7.00948"><ele></ele><time>2017-6-21T11:35:49Z</time></trkpt>
<trkpt lat="46.11009" lon="7.00962"><ele></ele><time>2017-6-21T11:35:52Z</time></trkpt>
<trkpt lat="46.11021" lon="7.00974"><ele></ele><time>2017-6-21T11:35:55Z</time></trkpt>
<trkpt lat="46.11032" lon="7.00987"><ele></ele><time>2017-6-21T11:35:58Z</time></trkpt>
<trkpt lat="46.11038" lon="7.00994"><ele></ele><time>2017-6-21T11:36:1Z</time></trkpt>
<trkpt lat="46.11043" lon="7.01001"><ele></ele><time>2017-6-21T11:36:4Z</time></trkpt>
<trkpt lat="46.11058" lon="7.01022"><ele></ele><time>2017-6-21T11:36:7Z</time></trkpt>
<trkpt lat="46.11064" lon="7.0103"><ele></ele><time>2017-6-21T11:36:10Z</time></trkpt>
<trkpt lat="46.11079" lon="7.01045"><ele></ele><time>2017-6-21T11:36:13Z</time></trkpt>
<trkpt lat="46.11094" lon="7.0106"><ele></ele><time>2017-6-21T11:36:16Z</time></trkpt>
<trkpt lat="46.11101" lon="7.01069"><ele></ele><time>2017-6-21T11:36:19Z</time></trkpt>
<trkpt lat="46.11109" lon="7.01078"><ele></ele><time>2017-6-21T11:36:22Z</time></trkpt>
<trkpt lat="46.11124" lon="7.01096"><ele></ele><time>2017-6-21T11:36:25Z</time></trkpt>
<trkpt lat="46.1113" lon="7.01106"><ele></ele><time>2017-6-21T11:36:28Z</time></trkpt>
<trkpt lat="46.11135" lon="7.01119"><ele></ele><time>2017-6-21T11:36:31Z</time></trkpt>
<trkpt lat="46.1114" lon="7.01132"><ele></ele><time>2017-6-21T11:36:34Z</time></trkpt>
<trkpt lat="46.11145" lon="7.01145"><ele></ele><time>2017-6-21T11:36:37Z</time></trkpt>
<trkpt lat="46.11155" lon="7.01171"><ele></ele><time>2017-6-21T11:36:40Z</time></trkpt>
<trkpt lat="46.11164" lon="7.01181"><ele></ele><time>2017-6-21T11:36:43Z</time></trkpt>
<trkpt lat="46.11179" lon="7.01186"><ele></ele><time>2017-6-21T11:36:46Z</time></trkpt>
<trkpt lat="46.11201" lon="7.01201"><ele></ele><time>2017-6-21T11:36:49Z</time></trkpt>
<trkpt lat="46.11222" lon="7.01217"><ele></ele><time>2017-6-21T11:36:52Z</time></trkpt>
<trkpt lat="46.11239" lon="7.01234"><ele></ele><time>2017-6-21T11:36:55Z</time></trkpt>
<trkpt lat="46.11257" lon="7.01248"><ele></ele><time>2017-6-21T11:36:58Z</time></trkpt>
<trkpt lat="46.11278" lon="7.01248"><ele></ele><time>2017-6-21T11:37:1Z</time></trkpt>
<trkpt lat="46.113" lon="7.01247"><ele></ele><time>2017-6-21T11:37:4Z</time></trkpt>
<trkpt lat="46.1131" lon="7.01247"><ele></ele><time>2017-6-21T11:37:7Z</time></trkpt>
<trkpt lat="46.11322" lon="7.01248"><ele></ele><time>2017-6-21T11:37:10Z</time></trkpt>
<trkpt lat="46.11344" lon="7.01249"><ele></ele><time>2017-6-21T11:37:13Z</time></trkpt>
<trkpt lat="46.11355" lon="7.0125"><ele></ele><time>2017-6-21T11:37:16Z</time></trkpt>
<trkpt lat="46.11366" lon="7.01256"><ele></ele><time>2017-6-21T11:37:19Z</time></trkpt>
<trkpt lat="46.11387" lon="7.01268"><ele></ele><time>2017-6-21T11:37:22Z</time></trkpt>
<trkpt lat="46.11408" lon="7.01281"><ele></ele><time>2017-6-21T11:37:25Z</time></trkpt>
<trkpt lat="46.1144" lon="7.01306"><ele></ele><time>2017-6-21T11:37:28Z</time></trkpt>
<trkpt lat="46.11452" lon="7.01314"><ele></ele><time>2017-6-21T11:37:31Z</time></trkpt>
<trkpt lat="46.11478" lon="7.01331"><ele></ele><time>2017-6-21T11:37:34Z</time></trkpt>
<trkpt lat="46.11505" lon="7.01348"><ele></ele><time>2017-6-21T11:37:37Z</time></trkpt>
<trkpt lat="46.11531" lon="7.01366"><ele></ele><time>2017-6-21T11:37:40Z</time></trkpt>
<trkpt lat="46.11557" lon="7.01384"><ele></ele><time>2017-6-21T11:37:43Z</time></trkpt>
<trkpt lat="46.11581" lon="7.01406"><ele></ele><time>2017-6-21T11:37:46Z</time></trkpt>
<trkpt lat="46.11601" lon="7.01428"><ele></ele><time>2017-6-21T11:37:49Z</time></trkpt>
<trkpt lat="46.11628" lon="7.01452"><ele></ele><time>2017-6-21T11:37:52Z</time></trkpt>
<trkpt lat="46.1163" lon="7.01461"><ele></ele><time>2017-6-21T11:37:55Z</time></trkpt>
<trkpt lat="46.11632" lon="7.01468"><ele></ele><time>2017-6-21T11:37:58Z</time></trkpt>
<trkpt lat="46.11627" lon="7.01478"><ele></ele><time>2017-6-21T11:38:1Z</time></trkpt>
<trkpt lat="46.11622" lon="7.01477"><ele></ele><time>2017-6-21T11:38:4Z</time></trkpt>
<trkpt lat="46.11613" lon="7.01468"><ele></ele><time>2017-6-21T11:38:7Z</time></trkpt>
<trkpt lat="46.11608" lon="7.0146"><ele></ele><time>2017-6-21T11:38:10Z</time></trkpt>
<trkpt lat="46.11603" lon="7.01453"><ele></ele><time>2017-6-21T11:38:13Z</time></trkpt>
<trkpt lat="46.11591" lon="7.0144"><ele></ele><time>2017-6-21T11:38:16Z</time></trkpt>
<trkpt lat="46.11583" lon="7.01436"><ele></ele><time>2017-6-21T11:38:19Z</time></trkpt>
<trkpt lat="46.11574" lon="7.01435"><ele></ele><time>2017-6-21T11:38:22Z</time></trkpt>
<trkpt lat="46.11567" lon="7.01439"><ele></ele><time>2017-6-21T11:38:25Z</time></trkpt>
<trkpt lat="46.11564" lon="7.01446"><ele></ele><time>2017-6-21T11:38:28Z</time></trkpt>
<trkpt lat="46.11565" lon="7.01455"><ele></ele><time>2017-6-21T11:38:31Z</time></trkpt>
<trkpt lat="46.11568" lon="7.01462"><ele></ele><time>2017-6-21T11:38:34Z</time></trkpt>
<trkpt lat="46.11583" lon="7.01471"><ele></ele><time>2017-6-21T11:38:37Z</time></trkpt>
<trkpt lat="46.11599" lon="7.01483"><ele></ele><time>2017-6-21T11:38:40Z</time></trkpt>
<trkpt lat="46.11614" lon="7.01505"><ele></ele><time>2017-6-21T11:38:43Z</time></trkpt>
<trkpt lat="46.11631" lon="7.01527"><ele></ele><time>2017-6-21T11:38:46Z</time></trkpt>
<trkpt lat="46.11655" lon="7.01544"><ele></ele><time>2017-6-21T11:38:49Z</time></trkpt>
<trkpt lat="46.11668" lon="7.0155"><ele></ele><time>2017-6-21T11:38:52Z</time></trkpt>
<trkpt lat="46.11681" lon="7.01556"><ele></ele><time>2017-6-21T11:38:55Z</time></trkpt>
<trkpt lat="46.11694" lon="7.01563"><ele></ele><time>2017-6-21T11:38:58Z</time></trkpt>
<trkpt lat="46.11706" lon="7.01574"><ele></ele><time>2017-6-21T11:39:1Z</time></trkpt>
<trkpt lat="46.11728" lon="7.01595"><ele></ele><time>2017-6-21T11:39:4Z</time></trkpt>
<trkpt lat="46.11735" lon="7.01606"><ele></ele><time>2017-6-21T11:39:7Z</time></trkpt>
<trkpt lat="46.11743" lon="7.01618"><ele></ele><time>2017-6-21T11:39:10Z</time></trkpt>
<trkpt lat="46.11765" lon="7.01652"><ele></ele><time>2017-6-21T11:39:13Z</time></trkpt>
<trkpt lat="46.11771" lon="7.01663"><ele></ele><time>2017-6-21T11:39:16Z</time></trkpt>
<trkpt lat="46.11778" lon="7.01673"><ele></ele><time>2017-6-21T11:39:19Z</time></trkpt>
<trkpt lat="46.11784" lon="7.01684"><ele></ele><time>2017-6-21T11:39:22Z</time></trkpt>
<trkpt lat="46.11798" lon="7.01704"><ele></ele><time>2017-6-21T11:39:25Z</time></trkpt>
<trkpt lat="46.11814" lon="7.01721"><ele></ele><time>2017-6-21T11:39:28Z</time></trkpt>
<trkpt lat="46.11822" lon="7.01729"><ele></ele><time>2017-6-21T11:39:31Z</time></trkpt>
<trkpt lat="46.11838" lon="7.01746"><ele></ele><time>2017-6-21T11:39:34Z</time></trkpt>
<trkpt lat="46.11854" lon="7.01762"><ele></ele><time>2017-6-21T11:39:37Z</time></trkpt>
<trkpt lat="46.1187" lon="7.01778"><ele></ele><time>2017-6-21T11:39:40Z</time></trkpt>
<trkpt lat="46.11877" lon="7.01788"><ele></ele><time>2017-6-21T11:39:43Z</time></trkpt>
<trkpt lat="46.11884" lon="7.018"><ele></ele><time>2017-6-21T11:39:46Z</time></trkpt>
<trkpt lat="46.11891" lon="7.01812"><ele></ele><time>2017-6-21T11:39:49Z</time></trkpt>
<trkpt lat="46.11906" lon="7.01836"><ele></ele><time>2017-6-21T11:39:52Z</time></trkpt>
<trkpt lat="46.11932" lon="7.0187"><ele></ele><time>2017-6-21T11:39:55Z</time></trkpt>
<trkpt lat="46.1194" lon="7.0188"><ele></ele><time>2017-6-21T11:39:58Z</time></trkpt>
<trkpt lat="46.11947" lon="7.01889"><ele></ele><time>2017-6-21T11:40:1Z</time></trkpt>
<trkpt lat="46.11953" lon="7.01898"><ele></ele><time>2017-6-21T11:40:4Z</time></trkpt>
<trkpt lat="46.11967" lon="7.01915"><ele></ele><time>2017-6-21T11:40:7Z</time></trkpt>
<trkpt lat="46.1198" lon="7.01934"><ele></ele><time>2017-6-21T11:40:10Z</time></trkpt>
<trkpt lat="46.11998" lon="7.01974"><ele></ele><time>2017-6-21T11:40:13Z</time></trkpt>
<trkpt lat="46.12004" lon="7.01988"><ele></ele><time>2017-6-21T11:40:16Z</time></trkpt>
<trkpt lat="46.12008" lon="7.02"><ele></ele><time>2017-6-21T11:40:19Z</time></trkpt>
<trkpt lat="46.12008" lon="7.0201"><ele></ele><time>2017-6-21T11:40:22Z</time></trkpt>
<trkpt lat="46.12009" lon="7.02028"><ele></ele><time>2017-6-21T11:40:25Z</time></trkpt>
<trkpt lat="46.12015" lon="7.02036"><ele></ele><time>2017-6-21T11:40:28Z</time></trkpt>
<trkpt lat="46.12018" lon="7.02039"><ele></ele><time>2017-6-21T11:40:31Z</time></trkpt>
<trkpt lat="46.12021" lon="7.02043"><ele></ele><time>2017-6-21T11:40:34Z</time></trkpt>
<trkpt lat="46.12024" lon="7.02046"><ele></ele><time>2017-6-21T11:40:37Z</time></trkpt>
<trkpt lat="46.12034" lon="7.0205"><ele></ele><time>2017-6-21T11:40:40Z</time></trkpt>
<trkpt lat="46.12039" lon="7.02052"><ele></ele><time>2017-6-21T11:40:43Z</time></trkpt>
<trkpt lat="46.12049" lon="7.02056"><ele></ele><time>2017-6-21T11:40:46Z</time></trkpt>
<trkpt lat="46.12053" lon="7.02058"><ele></ele><time>2017-6-21T11:40:49Z</time></trkpt>
<trkpt lat="46.12056" lon="7.02062"><ele></ele><time>2017-6-21T11:40:52Z</time></trkpt>
<trkpt lat="46.12062" lon="7.02069"><ele></ele><time>2017-6-21T11:40:55Z</time></trkpt>
<trkpt lat="46.12069" lon="7.02075"><ele></ele><time>2017-6-21T11:40:58Z</time></trkpt>
<trkpt lat="46.12077" lon="7.02082"><ele></ele><time>2017-6-21T11:41:1Z</time></trkpt>
<trkpt lat="46.12081" lon="7.02085"><ele></ele><time>2017-6-21T11:41:4Z</time></trkpt>
<trkpt lat="46.12085" lon="7.02088"><ele></ele><time>2017-6-21T11:41:7Z</time></trkpt>
<trkpt lat="46.12093" lon="7.02094"><ele></ele><time>2017-6-21T11:41:10Z</time></trkpt>
<trkpt lat="46.12103" lon="7.02104"><ele></ele><time>2017-6-21T11:41:13Z</time></trkpt>
<trkpt lat="46.12105" lon="7.02109"><ele></ele><time>2017-6-21T11:41:16Z</time></trkpt>
<trkpt lat="46.12117" lon="7.02118"><ele></ele><time>2017-6-21T11:41:19Z</time></trkpt>
<trkpt lat="46.12125" lon="7.02124"><ele></ele><time>2017-6-21T11:41:22Z</time></trkpt>
<trkpt lat="46.12129" lon="7.02127"><ele></ele><time>2017-6-21T11:41:25Z</time></trkpt>
<trkpt lat="46.12137" lon="7.02133"><ele></ele><time>2017-6-21T11:41:28Z</time></trkpt>
<trkpt lat="46.12145" lon="7.0214"><ele></ele><time>2017-6-21T11:41:31Z</time></trkpt>
<trkpt lat="46.12153" lon="7.02148"><ele></ele><time>2017-6-21T11:41:34Z</time></trkpt>
<trkpt lat="46.12161" lon="7.02157"><ele></ele><time>2017-6-21T11:41:37Z</time></trkpt>
<trkpt lat="46.12168" lon="7.02165"><ele></ele><time>2017-6-21T11:41:40Z</time></trkpt>
<trkpt lat="46.12176" lon="7.02174"><ele></ele><time>2017-6-21T11:41:43Z</time></trkpt>
<trkpt lat="46.12184" lon="7.02182"><ele></ele><time>2017-6-21T11:41:46Z</time></trkpt>
<trkpt lat="46.12191" lon="7.02191"><ele></ele><time>2017-6-21T11:41:49Z</time></trkpt>
<trkpt lat="46.12198" lon="7.022"><ele></ele><time>2017-6-21T11:41:52Z</time></trkpt>
<trkpt lat="46.12205" lon="7.02208"><ele></ele><time>2017-6-21T11:41:55Z</time></trkpt>
<trkpt lat="46.12212" lon="7.02217"><ele></ele><time>2017-6-21T11:41:58Z</time></trkpt>
<trkpt lat="46.12215" lon="7.02221"><ele></ele><time>2017-6-21T11:42:1Z</time></trkpt>
<trkpt lat="46.12219" lon="7.02224"><ele></ele><time>2017-6-21T11:42:4Z</time></trkpt>
<trkpt lat="46.12227" lon="7.02231"><ele></ele><time>2017-6-21T11:42:7Z</time></trkpt>
<trkpt lat="46.12239" lon="7.02241"><ele></ele><time>2017-6-21T11:42:10Z</time></trkpt>
<trkpt lat="46.12243" lon="7.02244"><ele></ele><time>2017-6-21T11:42:13Z</time></trkpt>
<trkpt lat="46.1225" lon="7.02251"><ele></ele><time>2017-6-21T11:42:16Z</time></trkpt>
<trkpt lat="46.12254" lon="7.02255"><ele></ele><time>2017-6-21T11:42:19Z</time></trkpt>
<trkpt lat="46.12257" lon="7.0226"><ele></ele><time>2017-6-21T11:42:22Z</time></trkpt>
<trkpt lat="46.12264" lon="7.02271"><ele></ele><time>2017-6-21T11:42:25Z</time></trkpt>
<trkpt lat="46.12268" lon="7.02276"><ele></ele><time>2017-6-21T11:42:28Z</time></trkpt>
<trkpt lat="46.12273" lon="7.02281"><ele></ele><time>2017-6-21T11:42:31Z</time></trkpt>
<trkpt lat="46.12286" lon="7.02296"><ele></ele><time>2017-6-21T11:42:34Z</time></trkpt>
<trkpt lat="46.12291" lon="7.02301"><ele></ele><time>2017-6-21T11:42:37Z</time></trkpt>
<trkpt lat="46.12295" lon="7.02307"><ele></ele><time>2017-6-21T11:42:40Z</time></trkpt>
<trkpt lat="46.12298" lon="7.02313"><ele></ele><time>2017-6-21T11:42:43Z</time></trkpt>
<trkpt lat="46.12307" lon="7.02321"><ele></ele><time>2017-6-21T11:42:46Z</time></trkpt>
<trkpt lat="46.12312" lon="7.02326"><ele></ele><time>2017-6-21T11:42:49Z</time></trkpt>
<trkpt lat="46.12317" lon="7.0233"><ele></ele><time>2017-6-21T11:42:52Z</time></trkpt>
<trkpt lat="46.12326" lon="7.02339"><ele></ele><time>2017-6-21T11:42:55Z</time></trkpt>
<trkpt lat="46.12336" lon="7.02347"><ele></ele><time>2017-6-21T11:42:58Z</time></trkpt>
<trkpt lat="46.12341" lon="7.02352"><ele></ele><time>2017-6-21T11:43:1Z</time></trkpt>
<trkpt lat="46.12348" lon="7.02359"><ele></ele><time>2017-6-21T11:43:4Z</time></trkpt>
<trkpt lat="46.12359" lon="7.02385"><ele></ele><time>2017-6-21T11:43:7Z</time></trkpt>
<trkpt lat="46.1237" lon="7.0241"><ele></ele><time>2017-6-21T11:43:10Z</time></trkpt>
<trkpt lat="46.12375" lon="7.02422"><ele></ele><time>2017-6-21T11:43:13Z</time></trkpt>
<trkpt lat="46.12381" lon="7.02431"><ele></ele><time>2017-6-21T11:43:16Z</time></trkpt>
<trkpt lat="46.12393" lon="7.02451"><ele></ele><time>2017-6-21T11:43:19Z</time></trkpt>
<trkpt lat="46.124" lon="7.0246"><ele></ele><time>2017-6-21T11:43:22Z</time></trkpt>
<trkpt lat="46.1241" lon="7.02467"><ele></ele><time>2017-6-21T11:43:25Z</time></trkpt>
<trkpt lat="46.12428" lon="7.02482"><ele></ele><time>2017-6-21T11:43:28Z</time></trkpt>
<trkpt lat="46.12447" lon="7.02497"><ele></ele><time>2017-6-21T11:43:31Z</time></trkpt>
<trkpt lat="46.12465" lon="7.02515"><ele></ele><time>2017-6-21T11:43:34Z</time></trkpt>
<trkpt lat="46.12485" lon="7.02532"><ele></ele><time>2017-6-21T11:43:37Z</time></trkpt>
<trkpt lat="46.12509" lon="7.02546"><ele></ele><time>2017-6-21T11:43:40Z</time></trkpt>
<trkpt lat="46.12517" lon="7.02555"><ele></ele><time>2017-6-21T11:43:43Z</time></trkpt>
<trkpt lat="46.12525" lon="7.02564"><ele></ele><time>2017-6-21T11:43:46Z</time></trkpt>
<trkpt lat="46.1254" lon="7.02583"><ele></ele><time>2017-6-21T11:43:49Z</time></trkpt>
<trkpt lat="46.12548" lon="7.0259"><ele></ele><time>2017-6-21T11:43:52Z</time></trkpt>
<trkpt lat="46.12554" lon="7.02593"><ele></ele><time>2017-6-21T11:43:55Z</time></trkpt>
<trkpt lat="46.1256" lon="7.02596"><ele></ele><time>2017-6-21T11:43:58Z</time></trkpt>
<trkpt lat="46.12566" lon="7.02599"><ele></ele><time>2017-6-21T11:44:1Z</time></trkpt>
<trkpt lat="46.12579" lon="7.02605"><ele></ele><time>2017-6-21T11:44:4Z</time></trkpt>
<trkpt lat="46.12584" lon="7.02609"><ele></ele><time>2017-6-21T11:44:7Z</time></trkpt>
<trkpt lat="46.12593" lon="7.02619"><ele></ele><time>2017-6-21T11:44:10Z</time></trkpt>
<trkpt lat="46.12597" lon="7.02624"><ele></ele><time>2017-6-21T11:44:13Z</time></trkpt>
<trkpt lat="46.12614" lon="7.02643"><ele></ele><time>2017-6-21T11:44:16Z</time></trkpt>
<trkpt lat="46.12625" lon="7.02653"><ele></ele><time>2017-6-21T11:44:19Z</time></trkpt>
<trkpt lat="46.12633" lon="7.02657"><ele></ele><time>2017-6-21T11:44:22Z</time></trkpt>
<trkpt lat="46.12639" lon="7.02664"><ele></ele><time>2017-6-21T11:44:25Z</time></trkpt>
<trkpt lat="46.12645" lon="7.02668"><ele></ele><time>2017-6-21T11:44:28Z</time></trkpt>
<trkpt lat="46.12652" lon="7.02672"><ele></ele><time>2017-6-21T11:44:31Z</time></trkpt>
<trkpt lat="46.12659" lon="7.02679"><ele></ele><time>2017-6-21T11:44:34Z</time></trkpt>
<trkpt lat="46.12666" lon="7.02686"><ele></ele><time>2017-6-21T11:44:37Z</time></trkpt>
<trkpt lat="46.12673" lon="7.02693"><ele></ele><time>2017-6-21T11:44:40Z</time></trkpt>
<trkpt lat="46.12681" lon="7.02697"><ele></ele><time>2017-6-21T11:44:43Z</time></trkpt>
<trkpt lat="46.12696" lon="7.02706"><ele></ele><time>2017-6-21T11:44:46Z</time></trkpt>
<trkpt lat="46.12703" lon="7.02709"><ele></ele><time>2017-6-21T11:44:49Z</time></trkpt>
<trkpt lat="46.12708" lon="7.0271"><ele></ele><time>2017-6-21T11:44:52Z</time></trkpt>
<trkpt lat="46.12713" lon="7.02714"><ele></ele><time>2017-6-21T11:44:55Z</time></trkpt>
<trkpt lat="46.1272" lon="7.0272"><ele></ele><time>2017-6-21T11:44:58Z</time></trkpt>
<trkpt lat="46.12734" lon="7.0273"><ele></ele><time>2017-6-21T11:45:1Z</time></trkpt>
<trkpt lat="46.12741" lon="7.02738"><ele></ele><time>2017-6-21T11:45:4Z</time></trkpt>
<trkpt lat="46.1275" lon="7.02746"><ele></ele><time>2017-6-21T11:45:7Z</time></trkpt>
<trkpt lat="46.12771" lon="7.02766"><ele></ele><time>2017-6-21T11:45:10Z</time></trkpt>
<trkpt lat="46.12778" lon="7.02784"><ele></ele><time>2017-6-21T11:45:13Z</time></trkpt>
<trkpt lat="46.12786" lon="7.02793"><ele></ele><time>2017-6-21T11:45:16Z</time></trkpt>
<trkpt lat="46.12794" lon="7.02798"><ele></ele><time>2017-6-21T11:45:19Z</time></trkpt>
<trkpt lat="46.12803" lon="7.02812"><ele></ele><time>2017-6-21T11:45:22Z</time></trkpt>
<trkpt lat="46.12809" lon="7.02817"><ele></ele><time>2017-6-21T11:45:25Z</time></trkpt>
<trkpt lat="46.12816" lon="7.02823"><ele></ele><time>2017-6-21T11:45:28Z</time></trkpt>
<trkpt lat="46.12837" lon="7.02843"><ele></ele><time>2017-6-21T11:45:31Z</time></trkpt>
<trkpt lat="46.12842" lon="7.02855"><ele></ele><time>2017-6-21T11:45:34Z</time></trkpt>
<trkpt lat="46.12846" lon="7.02867"><ele></ele><time>2017-6-21T11:45:37Z</time></trkpt>
<trkpt lat="46.12852" lon="7.02876"><ele></ele><time>2017-6-21T11:45:40Z</time></trkpt>
<trkpt lat="46.12863" lon="7.02893"><ele></ele><time>2017-6-21T11:45:43Z</time></trkpt>
<trkpt lat="46.12875" lon="7.0291"><ele></ele><time>2017-6-21T11:45:46Z</time></trkpt>
<trkpt lat="46.1288" lon="7.02918"><ele></ele><time>2017-6-21T11:45:49Z</time></trkpt>
<trkpt lat="46.12886" lon="7.02926"><ele></ele><time>2017-6-21T11:45:52Z</time></trkpt>
<trkpt lat="46.12897" lon="7.02941"><ele></ele><time>2017-6-21T11:45:55Z</time></trkpt>
<trkpt lat="46.12908" lon="7.02947"><ele></ele><time>2017-6-21T11:45:58Z</time></trkpt>
<trkpt lat="46.12914" lon="7.0295"><ele></ele><time>2017-6-21T11:46:1Z</time></trkpt>
<trkpt lat="46.12925" lon="7.02955"><ele></ele><time>2017-6-21T11:46:4Z</time></trkpt>
<trkpt lat="46.1293" lon="7.02954"><ele></ele><time>2017-6-21T11:46:7Z</time></trkpt>
<trkpt lat="46.12931" lon="7.02954"><ele></ele><time>2017-6-21T11:46:10Z</time></trkpt>
<trkpt lat="46.12924" lon="7.02954"><ele></ele><time>2017-6-21T11:46:13Z</time></trkpt>
<trkpt lat="46.1291" lon="7.02954"><ele></ele><time>2017-6-21T11:46:16Z</time></trkpt>
<trkpt lat="46.12903" lon="7.02952"><ele></ele><time>2017-6-21T11:46:19Z</time></trkpt>
<trkpt lat="46.12899" lon="7.02948"><ele></ele><time>2017-6-21T11:46:22Z</time></trkpt>
<trkpt lat="46.12888" lon="7.0294"><ele></ele><time>2017-6-21T11:46:25Z</time></trkpt>
<trkpt lat="46.12881" lon="7.0294"><ele></ele><time>2017-6-21T11:46:28Z</time></trkpt>
<trkpt lat="46.12873" lon="7.0294"><ele></ele><time>2017-6-21T11:46:31Z</time></trkpt>
<trkpt lat="46.12869" lon="7.02941"><ele></ele><time>2017-6-21T11:46:34Z</time></trkpt>
<trkpt lat="46.12871" lon="7.02949"><ele></ele><time>2017-6-21T11:46:37Z</time></trkpt>
<trkpt lat="46.12876" lon="7.02955"><ele></ele><time>2017-6-21T11:46:40Z</time></trkpt>
<trkpt lat="46.12885" lon="7.02955"><ele></ele><time>2017-6-21T11:46:43Z</time></trkpt>
<trkpt lat="46.12904" lon="7.02971"><ele></ele><time>2017-6-21T11:46:46Z</time></trkpt>
<trkpt lat="46.1291" lon="7.02976"><ele></ele><time>2017-6-21T11:46:49Z</time></trkpt>
<trkpt lat="46.12917" lon="7.02981"><ele></ele><time>2017-6-21T11:46:52Z</time></trkpt>
<trkpt lat="46.12927" lon="7.02984"><ele></ele><time>2017-6-21T11:46:55Z</time></trkpt>
<trkpt lat="46.12946" lon="7.0299"><ele></ele><time>2017-6-21T11:46:58Z</time></trkpt>
<trkpt lat="46.12952" lon="7.02993"><ele></ele><time>2017-6-21T11:47:1Z</time></trkpt>
<trkpt lat="46.12951" lon="7.02994"><ele></ele><time>2017-6-21T11:47:4Z</time></trkpt>
<trkpt lat="46.12949" lon="7.02996"><ele></ele><time>2017-6-21T11:47:7Z</time></trkpt>
<trkpt lat="46.12946" lon="7.02997"><ele></ele><time>2017-6-21T11:47:10Z</time></trkpt>
<trkpt lat="46.12943" lon="7.02996"><ele></ele><time>2017-6-21T11:47:13Z</time></trkpt>
<trkpt lat="46.12941" lon="7.02993"><ele></ele><time>2017-6-21T11:47:16Z</time></trkpt>
<trkpt lat="46.12938" lon="7.0299"><ele></ele><time>2017-6-21T11:47:19Z</time></trkpt>
<trkpt lat="46.12935" lon="7.02991"><ele></ele><time>2017-6-21T11:47:22Z</time></trkpt>
<trkpt lat="46.12937" lon="7.02998"><ele></ele><time>2017-6-21T11:47:25Z</time></trkpt>
<trkpt lat="46.1294" lon="7.03002"><ele></ele><time>2017-6-21T11:47:28Z</time></trkpt>
<trkpt lat="46.12945" lon="7.02995"><ele></ele><time>2017-6-21T11:47:31Z</time></trkpt>
<trkpt lat="46.12947" lon="7.02991"><ele></ele><time>2017-6-21T11:47:34Z</time></trkpt>
<trkpt lat="46.12951" lon="7.02989"><ele></ele><time>2017-6-21T11:47:37Z</time></trkpt>
<trkpt lat="46.12966" lon="7.02994"><ele></ele><time>2017-6-21T11:47:40Z</time></trkpt>
<trkpt lat="46.12981" lon="7.02999"><ele></ele><time>2017-6-21T11:47:43Z</time></trkpt>
<trkpt lat="46.12989" lon="7.03001"><ele></ele><time>2017-6-21T11:47:46Z</time></trkpt>
<trkpt lat="46.12994" lon="7.03004"><ele></ele><time>2017-6-21T11:47:49Z</time></trkpt>
<trkpt lat="46.12998" lon="7.0301"><ele></ele><time>2017-6-21T11:47:52Z</time></trkpt>
<trkpt lat="46.12998" lon="7.03013"><ele></ele><time>2017-6-21T11:47:55Z</time></trkpt>
<trkpt lat="46.1299" lon="7.03016"><ele></ele><time>2017-6-21T11:47:58Z</time></trkpt>
<trkpt lat="46.12984" lon="7.03014"><ele></ele><time>2017-6-21T11:48:1Z</time></trkpt>
<trkpt lat="46.12973" lon="7.03011"><ele></ele><time>2017-6-21T11:48:4Z</time></trkpt>
<trkpt lat="46.1297" lon="7.03014"><ele></ele><time>2017-6-21T11:48:7Z</time></trkpt>
<trkpt lat="46.12968" lon="7.03021"><ele></ele><time>2017-6-21T11:48:10Z</time></trkpt>
<trkpt lat="46.12967" lon="7.03027"><ele></ele><time>2017-6-21T11:48:13Z</time></trkpt>
<trkpt lat="46.12968" lon="7.03031"><ele></ele><time>2017-6-21T11:48:16Z</time></trkpt>
<trkpt lat="46.1297" lon="7.03032"><ele></ele><time>2017-6-21T11:48:19Z</time></trkpt>
<trkpt lat="46.12973" lon="7.03027"><ele></ele><time>2017-6-21T11:48:22Z</time></trkpt>
<trkpt lat="46.12982" lon="7.03021"><ele></ele><time>2017-6-21T11:48:25Z</time></trkpt>
<trkpt lat="46.12988" lon="7.03025"><ele></ele><time>2017-6-21T11:48:28Z</time></trkpt>
<trkpt lat="46.12994" lon="7.03029"><ele></ele><time>2017-6-21T11:48:31Z</time></trkpt>
<trkpt lat="46.13005" lon="7.03036"><ele></ele><time>2017-6-21T11:48:34Z</time></trkpt>
<trkpt lat="46.13009" lon="7.03039"><ele></ele><time>2017-6-21T11:48:37Z</time></trkpt>
<trkpt lat="46.13009" lon="7.03039"><ele></ele><time>2017-6-21T11:48:40Z</time></trkpt>
<trkpt lat="46.13005" lon="7.03039"><ele></ele><time>2017-6-21T11:48:43Z</time></trkpt>
<trkpt lat="46.12996" lon="7.03045"><ele></ele><time>2017-6-21T11:48:46Z</time></trkpt>
<trkpt lat="46.12989" lon="7.03051"><ele></ele><time>2017-6-21T11:48:49Z</time></trkpt>
<trkpt lat="46.1299" lon="7.03055"><ele></ele><time>2017-6-21T11:48:52Z</time></trkpt>
<trkpt lat="46.12992" lon="7.03057"><ele></ele><time>2017-6-21T11:48:55Z</time></trkpt>
<trkpt lat="46.12998" lon="7.0306"><ele></ele><time>2017-6-21T11:48:58Z</time></trkpt>
<trkpt lat="46.1301" lon="7.03064"><ele></ele><time>2017-6-21T11:49:1Z</time></trkpt>
<trkpt lat="46.13016" lon="7.03067"><ele></ele><time>2017-6-21T11:49:4Z</time></trkpt>
<trkpt lat="46.13021" lon="7.03071"><ele></ele><time>2017-6-21T11:49:7Z</time></trkpt>
<trkpt lat="46.13022" lon="7.03074"><ele></ele><time>2017-6-21T11:49:10Z</time></trkpt>
<trkpt lat="46.13018" lon="7.03074"><ele></ele><time>2017-6-21T11:49:13Z</time></trkpt>
<trkpt lat="46.13014" lon="7.03074"><ele></ele><time>2017-6-21T11:49:16Z</time></trkpt>
<trkpt lat="46.1301" lon="7.03074"><ele></ele><time>2017-6-21T11:49:19Z</time></trkpt>
<trkpt lat="46.13005" lon="7.03076"><ele></ele><time>2017-6-21T11:49:22Z</time></trkpt>
<trkpt lat="46.13008" lon="7.03081"><ele></ele><time>2017-6-21T11:49:25Z</time></trkpt>
<trkpt lat="46.13014" lon="7.03084"><ele></ele><time>2017-6-21T11:49:28Z</time></trkpt>
<trkpt lat="46.1302" lon="7.03087"><ele></ele><time>2017-6-21T11:49:31Z</time></trkpt>
<trkpt lat="46.13026" lon="7.03091"><ele></ele><time>2017-6-21T11:49:34Z</time></trkpt>
<trkpt lat="46.13039" lon="7.03106"><ele></ele><time>2017-6-21T11:49:37Z</time></trkpt>
<trkpt lat="46.13052" lon="7.03119"><ele></ele><time>2017-6-21T11:49:40Z</time></trkpt>
<trkpt lat="46.13058" lon="7.03122"><ele></ele><time>2017-6-21T11:49:43Z</time></trkpt>
<trkpt lat="46.13062" lon="7.03127"><ele></ele><time>2017-6-21T11:49:46Z</time></trkpt>
<trkpt lat="46.13067" lon="7.03134"><ele></ele><time>2017-6-21T11:49:49Z</time></trkpt>
<trkpt lat="46.13063" lon="7.03133"><ele></ele><time>2017-6-21T11:49:52Z</time></trkpt>
<trkpt lat="46.13062" lon="7.0313"><ele></ele><time>2017-6-21T11:49:55Z</time></trkpt>
<trkpt lat="46.13055" lon="7.03125"><ele></ele><time>2017-6-21T11:49:58Z</time></trkpt>
<trkpt lat="46.13051" lon="7.03123"><ele></ele><time>2017-6-21T11:50:1Z</time></trkpt>
<trkpt lat="46.13047" lon="7.03124"><ele></ele><time>2017-6-21T11:50:4Z</time></trkpt>
<trkpt lat="46.13042" lon="7.03126"><ele></ele><time>2017-6-21T11:50:7Z</time></trkpt>
<trkpt lat="46.13039" lon="7.03129"><ele></ele><time>2017-6-21T11:50:10Z</time></trkpt>
<trkpt lat="46.13039" lon="7.03142"><ele></ele><time>2017-6-21T11:50:13Z</time></trkpt>
<trkpt lat="46.1304" lon="7.03153"><ele></ele><time>2017-6-21T11:50:16Z</time></trkpt>
<trkpt lat="46.13046" lon="7.03153"><ele></ele><time>2017-6-21T11:50:19Z</time></trkpt>
<trkpt lat="46.13048" lon="7.03148"><ele></ele><time>2017-6-21T11:50:22Z</time></trkpt>
<trkpt lat="46.1305" lon="7.03146"><ele></ele><time>2017-6-21T11:50:25Z</time></trkpt>
<trkpt lat="46.13053" lon="7.03147"><ele></ele><time>2017-6-21T11:50:28Z</time></trkpt>
<trkpt lat="46.13057" lon="7.03151"><ele></ele><time>2017-6-21T11:50:31Z</time></trkpt>
<trkpt lat="46.13072" lon="7.03153"><ele></ele><time>2017-6-21T11:50:34Z</time></trkpt>
<trkpt lat="46.13085" lon="7.0315"><ele></ele><time>2017-6-21T11:50:37Z</time></trkpt>
<trkpt lat="46.13098" lon="7.03152"><ele></ele><time>2017-6-21T11:50:40Z</time></trkpt>
<trkpt lat="46.13108" lon="7.03155"><ele></ele><time>2017-6-21T11:50:43Z</time></trkpt>
<trkpt lat="46.13104" lon="7.03158"><ele></ele><time>2017-6-21T11:50:46Z</time></trkpt>
<trkpt lat="46.13101" lon="7.03158"><ele></ele><time>2017-6-21T11:50:49Z</time></trkpt>
<trkpt lat="46.13098" lon="7.03154"><ele></ele><time>2017-6-21T11:50:52Z</time></trkpt>
<trkpt lat="46.13092" lon="7.03156"><ele></ele><time>2017-6-21T11:50:55Z</time></trkpt>
<trkpt lat="46.13085" lon="7.03162"><ele></ele><time>2017-6-21T11:50:58Z</time></trkpt>
<trkpt lat="46.13073" lon="7.03175"><ele></ele><time>2017-6-21T11:51:1Z</time></trkpt>
<trkpt lat="46.13066" lon="7.0319"><ele></ele><time>2017-6-21T11:51:4Z</time></trkpt>
<trkpt lat="46.13063" lon="7.03194"><ele></ele><time>2017-6-21T11:51:7Z</time></trkpt>
<trkpt lat="46.13062" lon="7.03189"><ele></ele><time>2017-6-21T11:51:10Z</time></trkpt>
<trkpt lat="46.13065" lon="7.03182"><ele></ele><time>2017-6-21T11:51:13Z</time></trkpt>
<trkpt lat="46.13074" lon="7.03177"><ele></ele><time>2017-6-21T11:51:16Z</time></trkpt>
<trkpt lat="46.13091" lon="7.03168"><ele></ele><time>2017-6-21T11:51:19Z</time></trkpt>
<trkpt lat="46.13108" lon="7.0316"><ele></ele><time>2017-6-21T11:51:22Z</time></trkpt>
<trkpt lat="46.13117" lon="7.03161"><ele></ele><time>2017-6-21T11:51:25Z</time></trkpt>
<trkpt lat="46.13128" lon="7.03164"><ele></ele><time>2017-6-21T11:51:28Z</time></trkpt>
<trkpt lat="46.13148" lon="7.03169"><ele></ele><time>2017-6-21T11:51:31Z</time></trkpt>
<trkpt lat="46.13157" lon="7.0317"><ele></ele><time>2017-6-21T11:51:34Z</time></trkpt>
<trkpt lat="46.13164" lon="7.03174"><ele></ele><time>2017-6-21T11:51:37Z</time></trkpt>
<trkpt lat="46.13166" lon="7.03176"><ele></ele><time>2017-6-21T11:51:40Z</time></trkpt>
<trkpt lat="46.13158" lon="7.03177"><ele></ele><time>2017-6-21T11:51:43Z</time></trkpt>
<trkpt lat="46.13152" lon="7.03179"><ele></ele><time>2017-6-21T11:51:46Z</time></trkpt>
<trkpt lat="46.13149" lon="7.03183"><ele></ele><time>2017-6-21T11:51:49Z</time></trkpt>
<trkpt lat="46.13145" lon="7.03187"><ele></ele><time>2017-6-21T11:51:52Z</time></trkpt>
<trkpt lat="46.13139" lon="7.0319"><ele></ele><time>2017-6-21T11:51:55Z</time></trkpt>
<trkpt lat="46.13134" lon="7.03194"><ele></ele><time>2017-6-21T11:51:58Z</time></trkpt>
<trkpt lat="46.13131" lon="7.032"><ele></ele><time>2017-6-21T11:52:1Z</time></trkpt>
<trkpt lat="46.13129" lon="7.03215"><ele></ele><time>2017-6-21T11:52:4Z</time></trkpt>
<trkpt lat="46.13128" lon="7.0323"><ele></ele><time>2017-6-21T11:52:7Z</time></trkpt>
<trkpt lat="46.13129" lon="7.03238"><ele></ele><time>2017-6-21T11:52:10Z</time></trkpt>
<trkpt lat="46.13129" lon="7.03249"><ele></ele><time>2017-6-21T11:52:13Z</time></trkpt>
<trkpt lat="46.1313" lon="7.03258"><ele></ele><time>2017-6-21T11:52:16Z</time></trkpt>
<trkpt lat="46.13131" lon="7.03266"><ele></ele><time>2017-6-21T11:52:19Z</time></trkpt>
<trkpt lat="46.13132" lon="7.03275"><ele></ele><time>2017-6-21T11:52:22Z</time></trkpt>
<trkpt lat="46.13136" lon="7.03285"><ele></ele><time>2017-6-21T11:52:25Z</time></trkpt>
<trkpt lat="46.13143" lon="7.033"><ele></ele><time>2017-6-21T11:52:28Z</time></trkpt>
<trkpt lat="46.13147" lon="7.03296"><ele></ele><time>2017-6-21T11:52:31Z</time></trkpt>
<trkpt lat="46.13148" lon="7.03294"><ele></ele><time>2017-6-21T11:52:34Z</time></trkpt>
<trkpt lat="46.13147" lon="7.0329"><ele></ele><time>2017-6-21T11:52:37Z</time></trkpt>
<trkpt lat="46.13146" lon="7.03281"><ele></ele><time>2017-6-21T11:52:40Z</time></trkpt>
<trkpt lat="46.13146" lon="7.03272"><ele></ele><time>2017-6-21T11:52:43Z</time></trkpt>
<trkpt lat="46.13146" lon="7.03263"><ele></ele><time>2017-6-21T11:52:46Z</time></trkpt>
<trkpt lat="46.13145" lon="7.03254"><ele></ele><time>2017-6-21T11:52:49Z</time></trkpt>
<trkpt lat="46.13144" lon="7.03245"><ele></ele><time>2017-6-21T11:52:52Z</time></trkpt>
<trkpt lat="46.13143" lon="7.03228"><ele></ele><time>2017-6-21T11:52:55Z</time></trkpt>
<trkpt lat="46.13149" lon="7.03214"><ele></ele><time>2017-6-21T11:52:58Z</time></trkpt>
<trkpt lat="46.13158" lon="7.0321"><ele></ele><time>2017-6-21T11:53:1Z</time></trkpt>
<trkpt lat="46.13166" lon="7.03205"><ele></ele><time>2017-6-21T11:53:4Z</time></trkpt>
<trkpt lat="46.1317" lon="7.03203"><ele></ele><time>2017-6-21T11:53:7Z</time></trkpt>
<trkpt lat="46.13174" lon="7.03201"><ele></ele><time>2017-6-21T11:53:10Z</time></trkpt>
<trkpt lat="46.13177" lon="7.032"><ele></ele><time>2017-6-21T11:53:13Z</time></trkpt>
<trkpt lat="46.13177" lon="7.03204"><ele></ele><time>2017-6-21T11:53:16Z</time></trkpt>
<trkpt lat="46.13167" lon="7.03215"><ele></ele><time>2017-6-21T11:53:19Z</time></trkpt>
<trkpt lat="46.13162" lon="7.03221"><ele></ele><time>2017-6-21T11:53:22Z</time></trkpt>
<trkpt lat="46.13158" lon="7.03228"><ele></ele><time>2017-6-21T11:53:25Z</time></trkpt>
<trkpt lat="46.13152" lon="7.03242"><ele></ele><time>2017-6-21T11:53:28Z</time></trkpt>
<trkpt lat="46.13151" lon="7.03254"><ele></ele><time>2017-6-21T11:53:31Z</time></trkpt>
<trkpt lat="46.13152" lon="7.03256"><ele></ele><time>2017-6-21T11:53:34Z</time></trkpt>
<trkpt lat="46.13158" lon="7.03252"><ele></ele><time>2017-6-21T11:53:37Z</time></trkpt>
<trkpt lat="46.13163" lon="7.03247"><ele></ele><time>2017-6-21T11:53:40Z</time></trkpt>
<trkpt lat="46.13167" lon="7.03238"><ele></ele><time>2017-6-21T11:53:43Z</time></trkpt>
<trkpt lat="46.13175" lon="7.03219"><ele></ele><time>2017-6-21T11:53:46Z</time></trkpt>
<trkpt lat="46.13179" lon="7.03213"><ele></ele><time>2017-6-21T11:53:49Z</time></trkpt>
<trkpt lat="46.13184" lon="7.03212"><ele></ele><time>2017-6-21T11:53:52Z</time></trkpt>
<trkpt lat="46.13192" lon="7.0321"><ele></ele><time>2017-6-21T11:53:55Z</time></trkpt>
<trkpt lat="46.13194" lon="7.03211"><ele></ele><time>2017-6-21T11:53:58Z</time></trkpt>
<trkpt lat="46.13194" lon="7.03214"><ele></ele><time>2017-6-21T11:54:1Z</time></trkpt>
<trkpt lat="46.13197" lon="7.03221"><ele></ele><time>2017-6-21T11:54:4Z</time></trkpt>
<trkpt lat="46.13194" lon="7.03229"><ele></ele><time>2017-6-21T11:54:7Z</time></trkpt>
<trkpt lat="46.1319" lon="7.03237"><ele></ele><time>2017-6-21T11:54:10Z</time></trkpt>
<trkpt lat="46.13183" lon="7.03254"><ele></ele><time>2017-6-21T11:54:13Z</time></trkpt>
<trkpt lat="46.13174" lon="7.03276"><ele></ele><time>2017-6-21T11:54:16Z</time></trkpt>
<trkpt lat="46.13177" lon="7.03276"><ele></ele><time>2017-6-21T11:54:19Z</time></trkpt>
<trkpt lat="46.13179" lon="7.03274"><ele></ele><time>2017-6-21T11:54:22Z</time></trkpt>
<trkpt lat="46.13181" lon="7.03267"><ele></ele><time>2017-6-21T11:54:25Z</time></trkpt>
<trkpt lat="46.13185" lon="7.03253"><ele></ele><time>2017-6-21T11:54:28Z</time></trkpt>
<trkpt lat="46.13186" lon="7.03246"><ele></ele><time>2017-6-21T11:54:31Z</time></trkpt>
<trkpt lat="46.1319" lon="7.03243"><ele></ele><time>2017-6-21T11:54:34Z</time></trkpt>
<trkpt lat="46.13199" lon="7.03235"><ele></ele><time>2017-6-21T11:54:37Z</time></trkpt>
<trkpt lat="46.13201" lon="7.03234"><ele></ele><time>2017-6-21T11:54:40Z</time></trkpt>
<trkpt lat="46.132" lon="7.03238"><ele></ele><time>2017-6-21T11:54:43Z</time></trkpt>
<trkpt lat="46.13197" lon="7.03246"><ele></ele><time>2017-6-21T11:54:46Z</time></trkpt>
<trkpt lat="46.13194" lon="7.03253"><ele></ele><time>2017-6-21T11:54:49Z</time></trkpt>
<trkpt lat="46.13192" lon="7.03259"><ele></ele><time>2017-6-21T11:54:52Z</time></trkpt>
<trkpt lat="46.1319" lon="7.03269"><ele></ele><time>2017-6-21T11:54:55Z</time></trkpt>
<trkpt lat="46.13186" lon="7.0329"><ele></ele><time>2017-6-21T11:54:58Z</time></trkpt>
<trkpt lat="46.13181" lon="7.0331"><ele></ele><time>2017-6-21T11:55:1Z</time></trkpt>
<trkpt lat="46.13179" lon="7.03319"><ele></ele><time>2017-6-21T11:55:4Z</time></trkpt>
<trkpt lat="46.13178" lon="7.03316"><ele></ele><time>2017-6-21T11:55:7Z</time></trkpt>
<trkpt lat="46.13182" lon="7.0331"><ele></ele><time>2017-6-21T11:55:10Z</time></trkpt>
<trkpt lat="46.13191" lon="7.03302"><ele></ele><time>2017-6-21T11:55:13Z</time></trkpt>
<trkpt lat="46.13199" lon="7.03283"><ele></ele><time>2017-6-21T11:55:16Z</time></trkpt>
<trkpt lat="46.13208" lon="7.03264"><ele></ele><time>2017-6-21T11:55:19Z</time></trkpt>
<trkpt lat="46.13224" lon="7.03249"><ele></ele><time>2017-6-21T11:55:22Z</time></trkpt>
<trkpt lat="46.13238" lon="7.03237"><ele></ele><time>2017-6-21T11:55:25Z</time></trkpt>
<trkpt lat="46.13241" lon="7.0324"><ele></ele><time>2017-6-21T11:55:28Z</time></trkpt>
<trkpt lat="46.13226" lon="7.03258"><ele></ele><time>2017-6-21T11:55:31Z</time></trkpt>
<trkpt lat="46.1322" lon="7.03266"><ele></ele><time>2017-6-21T11:55:34Z</time></trkpt>
<trkpt lat="46.13217" lon="7.03276"><ele></ele><time>2017-6-21T11:55:37Z</time></trkpt>
<trkpt lat="46.1321" lon="7.03295"><ele></ele><time>2017-6-21T11:55:40Z</time></trkpt>
<trkpt lat="46.13207" lon="7.03305"><ele></ele><time>2017-6-21T11:55:43Z</time></trkpt>
<trkpt lat="46.13208" lon="7.03316"><ele></ele><time>2017-6-21T11:55:46Z</time></trkpt>
<trkpt lat="46.13209" lon="7.03337"><ele></ele><time>2017-6-21T11:55:49Z</time></trkpt>
<trkpt lat="46.1321" lon="7.03346"><ele></ele><time>2017-6-21T11:55:52Z</time></trkpt>
<trkpt lat="46.13213" lon="7.0335"><ele></ele><time>2017-6-21T11:55:55Z</time></trkpt>
<trkpt lat="46.13218" lon="7.03347"><ele></ele><time>2017-6-21T11:55:58Z</time></trkpt>
<trkpt lat="46.1322" lon="7.03337"><ele></ele><time>2017-6-21T11:56:1Z</time></trkpt>
<trkpt lat="46.13221" lon="7.03311"><ele></ele><time>2017-6-21T11:56:4Z</time></trkpt>
<trkpt lat="46.13222" lon="7.033"><ele></ele><time>2017-6-21T11:56:7Z</time></trkpt>
<trkpt lat="46.13225" lon="7.03292"><ele></ele><time>2017-6-21T11:56:10Z</time></trkpt>
<trkpt lat="46.1323" lon="7.03285"><ele></ele><time>2017-6-21T11:56:13Z</time></trkpt>
<trkpt lat="46.13234" lon="7.03277"><ele></ele><time>2017-6-21T11:56:16Z</time></trkpt>
<trkpt lat="46.13234" lon="7.03269"><ele></ele><time>2017-6-21T11:56:19Z</time></trkpt>
<trkpt lat="46.13237" lon="7.03262"><ele></ele><time>2017-6-21T11:56:22Z</time></trkpt>
<trkpt lat="46.13241" lon="7.03256"><ele></ele><time>2017-6-21T11:56:25Z</time></trkpt>
<trkpt lat="46.13246" lon="7.03252"><ele></ele><time>2017-6-21T11:56:28Z</time></trkpt>
<trkpt lat="46.1325" lon="7.03253"><ele></ele><time>2017-6-21T11:56:31Z</time></trkpt>
<trkpt lat="46.1325" lon="7.03263"><ele></ele><time>2017-6-21T11:56:34Z</time></trkpt>
<trkpt lat="46.13243" lon="7.03281"><ele></ele><time>2017-6-21T11:56:37Z</time></trkpt>
<trkpt lat="46.1324" lon="7.0329"><ele></ele><time>2017-6-21T11:56:40Z</time></trkpt>
<trkpt lat="46.13237" lon="7.03298"><ele></ele><time>2017-6-21T11:56:43Z</time></trkpt>
<trkpt lat="46.1323" lon="7.03316"><ele></ele><time>2017-6-21T11:56:46Z</time></trkpt>
<trkpt lat="46.13228" lon="7.03325"><ele></ele><time>2017-6-21T11:56:49Z</time></trkpt>
<trkpt lat="46.13226" lon="7.03332"><ele></ele><time>2017-6-21T11:56:52Z</time></trkpt>
<trkpt lat="46.13224" lon="7.0334"><ele></ele><time>2017-6-21T11:56:55Z</time></trkpt>
<trkpt lat="46.13227" lon="7.0333"><ele></ele><time>2017-6-21T11:56:58Z</time></trkpt>
<trkpt lat="46.13229" lon="7.03322"><ele></ele><time>2017-6-21T11:57:1Z</time></trkpt>
<trkpt lat="46.13234" lon="7.03314"><ele></ele><time>2017-6-21T11:57:4Z</time></trkpt>
<trkpt lat="46.13236" lon="7.03306"><ele></ele><time>2017-6-21T11:57:7Z</time></trkpt>
<trkpt lat="46.1324" lon="7.03299"><ele></ele><time>2017-6-21T11:57:10Z</time></trkpt>
<trkpt lat="46.13245" lon="7.03292"><ele></ele><time>2017-6-21T11:57:13Z</time></trkpt>
<trkpt lat="46.13251" lon="7.03282"><ele></ele><time>2017-6-21T11:57:16Z</time></trkpt>
<trkpt lat="46.13255" lon="7.03282"><ele></ele><time>2017-6-21T11:57:19Z</time></trkpt>
<trkpt lat="46.13257" lon="7.03282"><ele></ele><time>2017-6-21T11:57:22Z</time></trkpt>
<trkpt lat="46.13258" lon="7.03286"><ele></ele><time>2017-6-21T11:57:25Z</time></trkpt>
<trkpt lat="46.13249" lon="7.03305"><ele></ele><time>2017-6-21T11:57:28Z</time></trkpt>
<trkpt lat="46.13241" lon="7.03325"><ele></ele><time>2017-6-21T11:57:31Z</time></trkpt>
<trkpt lat="46.13237" lon="7.03335"><ele></ele><time>2017-6-21T11:57:34Z</time></trkpt>
<trkpt lat="46.13237" lon="7.03342"><ele></ele><time>2017-6-21T11:57:37Z</time></trkpt>
<trkpt lat="46.13238" lon="7.03345"><ele></ele><time>2017-6-21T11:57:40Z</time></trkpt>
<trkpt lat="46.1324" lon="7.03348"><ele></ele><time>2017-6-21T11:57:43Z</time></trkpt>
<trkpt lat="46.13242" lon="7.03351"><ele></ele><time>2017-6-21T11:57:46Z</time></trkpt>
<trkpt lat="46.13244" lon="7.0335"><ele></ele><time>2017-6-21T11:57:49Z</time></trkpt>
<trkpt lat="46.13247" lon="7.03349"><ele></ele><time>2017-6-21T11:57:52Z</time></trkpt>
<trkpt lat="46.1325" lon="7.03348"><ele></ele><time>2017-6-21T11:57:55Z</time></trkpt>
<trkpt lat="46.1325" lon="7.03348"><ele></ele><time>2017-6-21T11:57:58Z</time></trkpt>
<trkpt lat="46.1325" lon="7.03348"><ele></ele><time>2017-6-21T11:58:1Z</time></trkpt>
<trkpt lat="46.1325" lon="7.03347"><ele></ele><time>2017-6-21T11:58:4Z</time></trkpt>
<trkpt lat="46.1325" lon="7.03347"><ele></ele><time>2017-6-21T11:58:7Z</time></trkpt>
<trkpt lat="46.13249" lon="7.03347"><ele></ele><time>2017-6-21T11:58:10Z</time></trkpt>
<trkpt lat="46.13249" lon="7.03347"><ele></ele><time>2017-6-21T11:58:13Z</time></trkpt>
<trkpt lat="46.13249" lon="7.03347"><ele></ele><time>2017-6-21T11:58:16Z</time></trkpt>
<trkpt lat="46.13249" lon="7.03346"><ele></ele><time>2017-6-21T11:58:19Z</time></trkpt>
<trkpt lat="46.13261" lon="7.03324"><ele></ele><time>2017-6-21T11:58:22Z</time></trkpt>
<trkpt lat="46.13261" lon="7.03324"><ele></ele><time>2017-6-21T11:58:25Z</time></trkpt>
<trkpt lat="46.13273" lon="7.03301"><ele></ele><time>2017-6-21T11:58:28Z</time></trkpt>
<trkpt lat="46.1328" lon="7.03411"><ele></ele><time>2017-6-21T11:58:31Z</time></trkpt>
<trkpt lat="46.13287" lon="7.03408"><ele></ele><time>2017-6-21T11:58:34Z</time></trkpt>
<trkpt lat="46.1328" lon="7.03393"><ele></ele><time>2017-6-21T11:58:37Z</time></trkpt>
<trkpt lat="46.13278" lon="7.03387"><ele></ele><time>2017-6-21T11:58:40Z</time></trkpt>
<trkpt lat="46.13274" lon="7.0338"><ele></ele><time>2017-6-21T11:58:43Z</time></trkpt>
<trkpt lat="46.13271" lon="7.03375"><ele></ele><time>2017-6-21T11:58:46Z</time></trkpt>
<trkpt lat="46.13272" lon="7.03373"><ele></ele><time>2017-6-21T11:58:49Z</time></trkpt>
<trkpt lat="46.13273" lon="7.03371"><ele></ele><time>2017-6-21T11:58:52Z</time></trkpt>
<trkpt lat="46.13274" lon="7.03369"><ele></ele><time>2017-6-21T11:58:55Z</time></trkpt>
<trkpt lat="46.13275" lon="7.03365"><ele></ele><time>2017-6-21T11:58:58Z</time></trkpt>
<trkpt lat="46.13277" lon="7.03361"><ele></ele><time>2017-6-21T11:59:1Z</time></trkpt>
<trkpt lat="46.13278" lon="7.03357"><ele></ele><time>2017-6-21T11:59:4Z</time></trkpt>
<trkpt lat="46.1328" lon="7.03353"><ele></ele><time>2017-6-21T11:59:7Z</time></trkpt>
<trkpt lat="46.13283" lon="7.03349"><ele></ele><time>2017-6-21T11:59:10Z</time></trkpt>
<trkpt lat="46.13287" lon="7.03347"><ele></ele><time>2017-6-21T11:59:13Z</time></trkpt>
<trkpt lat="46.13291" lon="7.03345"><ele></ele><time>2017-6-21T11:59:16Z</time></trkpt>
<trkpt lat="46.13299" lon="7.03341"><ele></ele><time>2017-6-21T11:59:19Z</time></trkpt>
<trkpt lat="46.13304" lon="7.0334"><ele></ele><time>2017-6-21T11:59:22Z</time></trkpt>
<trkpt lat="46.13309" lon="7.03341"><ele></ele><time>2017-6-21T11:59:25Z</time></trkpt>
<trkpt lat="46.13318" lon="7.03342"><ele></ele><time>2017-6-21T11:59:28Z</time></trkpt>
<trkpt lat="46.1332" lon="7.03343"><ele></ele><time>2017-6-21T11:59:31Z</time></trkpt>
<trkpt lat="46.13317" lon="7.03346"><ele></ele><time>2017-6-21T11:59:34Z</time></trkpt>
<trkpt lat="46.13317" lon="7.03349"><ele></ele><time>2017-6-21T11:59:37Z</time></trkpt>
<trkpt lat="46.13316" lon="7.03352"><ele></ele><time>2017-6-21T11:59:40Z</time></trkpt>
<trkpt lat="46.13305" lon="7.03358"><ele></ele><time>2017-6-21T11:59:43Z</time></trkpt>
<trkpt lat="46.13302" lon="7.03364"><ele></ele><time>2017-6-21T11:59:46Z</time></trkpt>
<trkpt lat="46.13299" lon="7.03371"><ele></ele><time>2017-6-21T11:59:49Z</time></trkpt>
<trkpt lat="46.13296" lon="7.03377"><ele></ele><time>2017-6-21T11:59:52Z</time></trkpt>
<trkpt lat="46.13295" lon="7.03381"><ele></ele><time>2017-6-21T11:59:55Z</time></trkpt>
<trkpt lat="46.13295" lon="7.03386"><ele></ele><time>2017-6-21T11:59:58Z</time></trkpt>
<trkpt lat="46.13296" lon="7.03396"><ele></ele><time>2017-6-21T12:0:1Z</time></trkpt>
<trkpt lat="46.13297" lon="7.03399"><ele></ele><time>2017-6-21T12:0:4Z</time></trkpt>
<trkpt lat="46.13303" lon="7.03396"><ele></ele><time>2017-6-21T12:0:7Z</time></trkpt>
<trkpt lat="46.13305" lon="7.03392"><ele></ele><time>2017-6-21T12:0:10Z</time></trkpt>
<trkpt lat="46.13308" lon="7.03389"><ele></ele><time>2017-6-21T12:0:13Z</time></trkpt>
<trkpt lat="46.13311" lon="7.03385"><ele></ele><time>2017-6-21T12:0:16Z</time></trkpt>
<trkpt lat="46.13317" lon="7.03378"><ele></ele><time>2017-6-21T12:0:19Z</time></trkpt>
<trkpt lat="46.13326" lon="7.03367"><ele></ele><time>2017-6-21T12:0:22Z</time></trkpt>
<trkpt lat="46.13329" lon="7.03364"><ele></ele><time>2017-6-21T12:0:25Z</time></trkpt>
<trkpt lat="46.13331" lon="7.03362"><ele></ele><time>2017-6-21T12:0:28Z</time></trkpt>
<trkpt lat="46.13332" lon="7.03365"><ele></ele><time>2017-6-21T12:0:31Z</time></trkpt>
<trkpt lat="46.13335" lon="7.03369"><ele></ele><time>2017-6-21T12:0:34Z</time></trkpt>
<trkpt lat="46.13331" lon="7.0338"><ele></ele><time>2017-6-21T12:0:37Z</time></trkpt>
<trkpt lat="46.13315" lon="7.03401"><ele></ele><time>2017-6-21T12:0:40Z</time></trkpt>
<trkpt lat="46.13308" lon="7.03416"><ele></ele><time>2017-6-21T12:0:43Z</time></trkpt>
<trkpt lat="46.13319" lon="7.03404"><ele></ele><time>2017-6-21T12:0:46Z</time></trkpt>
<trkpt lat="46.13323" lon="7.03399"><ele></ele><time>2017-6-21T12:0:49Z</time></trkpt>
<trkpt lat="46.13328" lon="7.0339"><ele></ele><time>2017-6-21T12:0:52Z</time></trkpt>
<trkpt lat="46.13326" lon="7.03385"><ele></ele><time>2017-6-21T12:0:55Z</time></trkpt>
<trkpt lat="46.13328" lon="7.03379"><ele></ele><time>2017-6-21T12:0:58Z</time></trkpt>
<trkpt lat="46.13332" lon="7.03376"><ele></ele><time>2017-6-21T12:1:1Z</time></trkpt>
<trkpt lat="46.13336" lon="7.03373"><ele></ele><time>2017-6-21T12:1:4Z</time></trkpt>
<trkpt lat="46.1334" lon="7.0337"><ele></ele><time>2017-6-21T12:1:7Z</time></trkpt>
<trkpt lat="46.13345" lon="7.03367"><ele></ele><time>2017-6-21T12:1:10Z</time></trkpt>
<trkpt lat="46.13351" lon="7.03363"><ele></ele><time>2017-6-21T12:1:13Z</time></trkpt>
<trkpt lat="46.13353" lon="7.03362"><ele></ele><time>2017-6-21T12:1:16Z</time></trkpt>
<trkpt lat="46.1336" lon="7.03357"><ele></ele><time>2017-6-21T12:1:19Z</time></trkpt>
<trkpt lat="46.13362" lon="7.03356"><ele></ele><time>2017-6-21T12:1:22Z</time></trkpt>
<trkpt lat="46.13366" lon="7.03353"><ele></ele><time>2017-6-21T12:1:25Z</time></trkpt>
<trkpt lat="46.13368" lon="7.03352"><ele></ele><time>2017-6-21T12:1:28Z</time></trkpt>
<trkpt lat="46.13374" lon="7.03348"><ele></ele><time>2017-6-21T12:1:31Z</time></trkpt>
<trkpt lat="46.13386" lon="7.03338"><ele></ele><time>2017-6-21T12:1:34Z</time></trkpt>
<trkpt lat="46.13389" lon="7.03333"><ele></ele><time>2017-6-21T12:1:37Z</time></trkpt>
<trkpt lat="46.13391" lon="7.03331"><ele></ele><time>2017-6-21T12:1:40Z</time></trkpt>
<trkpt lat="46.13395" lon="7.03328"><ele></ele><time>2017-6-21T12:1:43Z</time></trkpt>
<trkpt lat="46.134" lon="7.03325"><ele></ele><time>2017-6-21T12:1:46Z</time></trkpt>
<trkpt lat="46.13405" lon="7.03321"><ele></ele><time>2017-6-21T12:1:49Z</time></trkpt>
<trkpt lat="46.13418" lon="7.03318"><ele></ele><time>2017-6-21T12:1:52Z</time></trkpt>
<trkpt lat="46.13428" lon="7.03316"><ele></ele><time>2017-6-21T12:1:55Z</time></trkpt>
<trkpt lat="46.13428" lon="7.03318"><ele></ele><time>2017-6-21T12:1:58Z</time></trkpt>
<trkpt lat="46.13423" lon="7.03321"><ele></ele><time>2017-6-21T12:2:1Z</time></trkpt>
<trkpt lat="46.13413" lon="7.03328"><ele></ele><time>2017-6-21T12:2:4Z</time></trkpt>
<trkpt lat="46.13403" lon="7.03334"><ele></ele><time>2017-6-21T12:2:7Z</time></trkpt>
<trkpt lat="46.13394" lon="7.03341"><ele></ele><time>2017-6-21T12:2:10Z</time></trkpt>
<trkpt lat="46.13389" lon="7.03349"><ele></ele><time>2017-6-21T12:2:13Z</time></trkpt>
<trkpt lat="46.13384" lon="7.03357"><ele></ele><time>2017-6-21T12:2:16Z</time></trkpt>
<trkpt lat="46.13378" lon="7.03365"><ele></ele><time>2017-6-21T12:2:19Z</time></trkpt>
<trkpt lat="46.13376" lon="7.03369"><ele></ele><time>2017-6-21T12:2:22Z</time></trkpt>
<trkpt lat="46.13375" lon="7.03373"><ele></ele><time>2017-6-21T12:2:25Z</time></trkpt>
<trkpt lat="46.13372" lon="7.03381"><ele></ele><time>2017-6-21T12:2:28Z</time></trkpt>
<trkpt lat="46.13368" lon="7.0339"><ele></ele><time>2017-6-21T12:2:31Z</time></trkpt>
<trkpt lat="46.13365" lon="7.03398"><ele></ele><time>2017-6-21T12:2:34Z</time></trkpt>
<trkpt lat="46.13364" lon="7.03402"><ele></ele><time>2017-6-21T12:2:37Z</time></trkpt>
<trkpt lat="46.13362" lon="7.03405"><ele></ele><time>2017-6-21T12:2:40Z</time></trkpt>
<trkpt lat="46.13359" lon="7.03412"><ele></ele><time>2017-6-21T12:2:43Z</time></trkpt>
<trkpt lat="46.13363" lon="7.03412"><ele></ele><time>2017-6-21T12:2:46Z</time></trkpt>
<trkpt lat="46.1337" lon="7.03402"><ele></ele><time>2017-6-21T12:2:49Z</time></trkpt>
<trkpt lat="46.13374" lon="7.03396"><ele></ele><time>2017-6-21T12:2:52Z</time></trkpt>
<trkpt lat="46.13379" lon="7.03386"><ele></ele><time>2017-6-21T12:2:55Z</time></trkpt>
<trkpt lat="46.13392" lon="7.03372"><ele></ele><time>2017-6-21T12:2:58Z</time></trkpt>
<trkpt lat="46.13399" lon="7.03367"><ele></ele><time>2017-6-21T12:3:1Z</time></trkpt>
<trkpt lat="46.13409" lon="7.03363"><ele></ele><time>2017-6-21T12:3:4Z</time></trkpt>
<trkpt lat="46.13429" lon="7.03357"><ele></ele><time>2017-6-21T12:3:7Z</time></trkpt>
<trkpt lat="46.13446" lon="7.03356"><ele></ele><time>2017-6-21T12:3:10Z</time></trkpt>
<trkpt lat="46.13449" lon="7.03358"><ele></ele><time>2017-6-21T12:3:13Z</time></trkpt>
<trkpt lat="46.1345" lon="7.03359"><ele></ele><time>2017-6-21T12:3:16Z</time></trkpt>
<trkpt lat="46.13445" lon="7.03358"><ele></ele><time>2017-6-21T12:3:19Z</time></trkpt>
<trkpt lat="46.13442" lon="7.0336"><ele></ele><time>2017-6-21T12:3:22Z</time></trkpt>
<trkpt lat="46.1344" lon="7.03365"><ele></ele><time>2017-6-21T12:3:25Z</time></trkpt>
<trkpt lat="46.13433" lon="7.0337"><ele></ele><time>2017-6-21T12:3:28Z</time></trkpt>
<trkpt lat="46.1342" lon="7.03382"><ele></ele><time>2017-6-21T12:3:31Z</time></trkpt>
<trkpt lat="46.13404" lon="7.03413"><ele></ele><time>2017-6-21T12:3:34Z</time></trkpt>
<trkpt lat="46.134" lon="7.03423"><ele></ele><time>2017-6-21T12:3:37Z</time></trkpt>
<trkpt lat="46.13397" lon="7.03431"><ele></ele><time>2017-6-21T12:3:40Z</time></trkpt>
<trkpt lat="46.13393" lon="7.03438"><ele></ele><time>2017-6-21T12:3:43Z</time></trkpt>
<trkpt lat="46.13393" lon="7.03449"><ele></ele><time>2017-6-21T12:3:46Z</time></trkpt>
<trkpt lat="46.13395" lon="7.03462"><ele></ele><time>2017-6-21T12:3:49Z</time></trkpt>
<trkpt lat="46.13397" lon="7.03488"><ele></ele><time>2017-6-21T12:3:52Z</time></trkpt>
<trkpt lat="46.13394" lon="7.03498"><ele></ele><time>2017-6-21T12:3:55Z</time></trkpt>
<trkpt lat="46.13395" lon="7.03508"><ele></ele><time>2017-6-21T12:3:58Z</time></trkpt>
<trkpt lat="46.13397" lon="7.03518"><ele></ele><time>2017-6-21T12:4:1Z</time></trkpt>
<trkpt lat="46.13399" lon="7.03527"><ele></ele><time>2017-6-21T12:4:4Z</time></trkpt>
<trkpt lat="46.13405" lon="7.03543"><ele></ele><time>2017-6-21T12:4:7Z</time></trkpt>
<trkpt lat="46.13409" lon="7.0355"><ele></ele><time>2017-6-21T12:4:10Z</time></trkpt>
<trkpt lat="46.13418" lon="7.03557"><ele></ele><time>2017-6-21T12:4:13Z</time></trkpt>
<trkpt lat="46.13428" lon="7.03563"><ele></ele><time>2017-6-21T12:4:16Z</time></trkpt>
<trkpt lat="46.13437" lon="7.03569"><ele></ele><time>2017-6-21T12:4:19Z</time></trkpt>
<trkpt lat="46.13455" lon="7.03582"><ele></ele><time>2017-6-21T12:4:22Z</time></trkpt>
<trkpt lat="46.13467" lon="7.03599"><ele></ele><time>2017-6-21T12:4:25Z</time></trkpt>
<trkpt lat="46.13469" lon="7.03609"><ele></ele><time>2017-6-21T12:4:28Z</time></trkpt>
<trkpt lat="46.13466" lon="7.0362"><ele></ele><time>2017-6-21T12:4:31Z</time></trkpt>
<trkpt lat="46.13461" lon="7.03639"><ele></ele><time>2017-6-21T12:4:34Z</time></trkpt>
<trkpt lat="46.13455" lon="7.03658"><ele></ele><time>2017-6-21T12:4:37Z</time></trkpt>
<trkpt lat="46.13451" lon="7.03665"><ele></ele><time>2017-6-21T12:4:40Z</time></trkpt>
<trkpt lat="46.13444" lon="7.03669"><ele></ele><time>2017-6-21T12:4:43Z</time></trkpt>
<trkpt lat="46.13432" lon="7.03676"><ele></ele><time>2017-6-21T12:4:46Z</time></trkpt>
<trkpt lat="46.13421" lon="7.03684"><ele></ele><time>2017-6-21T12:4:49Z</time></trkpt>
<trkpt lat="46.13416" lon="7.03699"><ele></ele><time>2017-6-21T12:4:52Z</time></trkpt>
<trkpt lat="46.13417" lon="7.03708"><ele></ele><time>2017-6-21T12:4:55Z</time></trkpt>
<trkpt lat="46.13419" lon="7.03717"><ele></ele><time>2017-6-21T12:4:58Z</time></trkpt>
<trkpt lat="46.13424" lon="7.03735"><ele></ele><time>2017-6-21T12:5:1Z</time></trkpt>
<trkpt lat="46.1343" lon="7.03752"><ele></ele><time>2017-6-21T12:5:4Z</time></trkpt>
<trkpt lat="46.13435" lon="7.0377"><ele></ele><time>2017-6-21T12:5:7Z</time></trkpt>
<trkpt lat="46.13438" lon="7.03778"><ele></ele><time>2017-6-21T12:5:10Z</time></trkpt>
<trkpt lat="46.13439" lon="7.03787"><ele></ele><time>2017-6-21T12:5:13Z</time></trkpt>
<trkpt lat="46.13443" lon="7.03804"><ele></ele><time>2017-6-21T12:5:16Z</time></trkpt>
<trkpt lat="46.13446" lon="7.03822"><ele></ele><time>2017-6-21T12:5:19Z</time></trkpt>
<trkpt lat="46.1345" lon="7.03839"><ele></ele><time>2017-6-21T12:5:22Z</time></trkpt>
<trkpt lat="46.13451" lon="7.03848"><ele></ele><time>2017-6-21T12:5:25Z</time></trkpt>
<trkpt lat="46.13452" lon="7.03855"><ele></ele><time>2017-6-21T12:5:28Z</time></trkpt>
<trkpt lat="46.13456" lon="7.03879"><ele></ele><time>2017-6-21T12:5:31Z</time></trkpt>
<trkpt lat="46.13457" lon="7.03886"><ele></ele><time>2017-6-21T12:5:34Z</time></trkpt>
<trkpt lat="46.13459" lon="7.03902"><ele></ele><time>2017-6-21T12:5:37Z</time></trkpt>
<trkpt lat="46.1346" lon="7.03909"><ele></ele><time>2017-6-21T12:5:40Z</time></trkpt>
<trkpt lat="46.13462" lon="7.03914"><ele></ele><time>2017-6-21T12:5:43Z</time></trkpt>
<trkpt lat="46.13465" lon="7.03925"><ele></ele><time>2017-6-21T12:5:46Z</time></trkpt>
<trkpt lat="46.13469" lon="7.03936"><ele></ele><time>2017-6-21T12:5:49Z</time></trkpt>
<trkpt lat="46.13472" lon="7.03947"><ele></ele><time>2017-6-21T12:5:52Z</time></trkpt>
<trkpt lat="46.13474" lon="7.0395"><ele></ele><time>2017-6-21T12:5:55Z</time></trkpt>
<trkpt lat="46.13478" lon="7.03951"><ele></ele><time>2017-6-21T12:5:58Z</time></trkpt>
<trkpt lat="46.1348" lon="7.03951"><ele></ele><time>2017-6-21T12:6:1Z</time></trkpt>
<trkpt lat="46.13484" lon="7.03951"><ele></ele><time>2017-6-21T12:6:4Z</time></trkpt>
<trkpt lat="46.13484" lon="7.03949"><ele></ele><time>2017-6-21T12:6:7Z</time></trkpt>
<trkpt lat="46.13488" lon="7.03949"><ele></ele><time>2017-6-21T12:6:10Z</time></trkpt>
<trkpt lat="46.13495" lon="7.0394"><ele></ele><time>2017-6-21T12:6:13Z</time></trkpt>
<trkpt lat="46.13503" lon="7.03931"><ele></ele><time>2017-6-21T12:6:16Z</time></trkpt>
<trkpt lat="46.1351" lon="7.03922"><ele></ele><time>2017-6-21T12:6:19Z</time></trkpt>
<trkpt lat="46.13517" lon="7.03911"><ele></ele><time>2017-6-21T12:6:22Z</time></trkpt>
<trkpt lat="46.13521" lon="7.03906"><ele></ele><time>2017-6-21T12:6:25Z</time></trkpt>
<trkpt lat="46.13526" lon="7.03902"><ele></ele><time>2017-6-21T12:6:28Z</time></trkpt>
<trkpt lat="46.13536" lon="7.03894"><ele></ele><time>2017-6-21T12:6:31Z</time></trkpt>
<trkpt lat="46.13547" lon="7.03886"><ele></ele><time>2017-6-21T12:6:34Z</time></trkpt>
<trkpt lat="46.13557" lon="7.03878"><ele></ele><time>2017-6-21T12:6:37Z</time></trkpt>
<trkpt lat="46.13562" lon="7.03874"><ele></ele><time>2017-6-21T12:6:40Z</time></trkpt>
<trkpt lat="46.13566" lon="7.03869"><ele></ele><time>2017-6-21T12:6:43Z</time></trkpt>
<trkpt lat="46.13589" lon="7.03846"><ele></ele><time>2017-6-21T12:6:46Z</time></trkpt>
<trkpt lat="46.13593" lon="7.03841"><ele></ele><time>2017-6-21T12:6:49Z</time></trkpt>
<trkpt lat="46.13598" lon="7.03835"><ele></ele><time>2017-6-21T12:6:52Z</time></trkpt>
<trkpt lat="46.13602" lon="7.03828"><ele></ele><time>2017-6-21T12:6:55Z</time></trkpt>
<trkpt lat="46.13606" lon="7.03822"><ele></ele><time>2017-6-21T12:6:58Z</time></trkpt>
<trkpt lat="46.13612" lon="7.03818"><ele></ele><time>2017-6-21T12:7:1Z</time></trkpt>
<trkpt lat="46.13623" lon="7.03808"><ele></ele><time>2017-6-21T12:7:4Z</time></trkpt>
<trkpt lat="46.13634" lon="7.03799"><ele></ele><time>2017-6-21T12:7:7Z</time></trkpt>
<trkpt lat="46.13645" lon="7.0379"><ele></ele><time>2017-6-21T12:7:10Z</time></trkpt>
<trkpt lat="46.13651" lon="7.03785"><ele></ele><time>2017-6-21T12:7:13Z</time></trkpt>
<trkpt lat="46.13656" lon="7.03781"><ele></ele><time>2017-6-21T12:7:16Z</time></trkpt>
<trkpt lat="46.13667" lon="7.03771"><ele></ele><time>2017-6-21T12:7:19Z</time></trkpt>
<trkpt lat="46.13677" lon="7.0376"><ele></ele><time>2017-6-21T12:7:22Z</time></trkpt>
<trkpt lat="46.13687" lon="7.0375"><ele></ele><time>2017-6-21T12:7:25Z</time></trkpt>
<trkpt lat="46.13697" lon="7.03739"><ele></ele><time>2017-6-21T12:7:28Z</time></trkpt>
<trkpt lat="46.13707" lon="7.03728"><ele></ele><time>2017-6-21T12:7:31Z</time></trkpt>
<trkpt lat="46.13717" lon="7.03718"><ele></ele><time>2017-6-21T12:7:34Z</time></trkpt>
<trkpt lat="46.13727" lon="7.03708"><ele></ele><time>2017-6-21T12:7:37Z</time></trkpt>
<trkpt lat="46.13738" lon="7.03698"><ele></ele><time>2017-6-21T12:7:40Z</time></trkpt>
<trkpt lat="46.13748" lon="7.03689"><ele></ele><time>2017-6-21T12:7:43Z</time></trkpt>
<trkpt lat="46.13757" lon="7.0368"><ele></ele><time>2017-6-21T12:7:46Z</time></trkpt>
<trkpt lat="46.13767" lon="7.03672"><ele></ele><time>2017-6-21T12:7:49Z</time></trkpt>
<trkpt lat="46.13777" lon="7.03663"><ele></ele><time>2017-6-21T12:7:52Z</time></trkpt>
<trkpt lat="46.13787" lon="7.03655"><ele></ele><time>2017-6-21T12:7:55Z</time></trkpt>
<trkpt lat="46.13796" lon="7.03645"><ele></ele><time>2017-6-21T12:7:58Z</time></trkpt>
<trkpt lat="46.13801" lon="7.03641"><ele></ele><time>2017-6-21T12:8:1Z</time></trkpt>
<trkpt lat="46.13806" lon="7.03637"><ele></ele><time>2017-6-21T12:8:4Z</time></trkpt>
<trkpt lat="46.13816" lon="7.03628"><ele></ele><time>2017-6-21T12:8:7Z</time></trkpt>
<trkpt lat="46.13826" lon="7.03619"><ele></ele><time>2017-6-21T12:8:10Z</time></trkpt>
<trkpt lat="46.13836" lon="7.03611"><ele></ele><time>2017-6-21T12:8:13Z</time></trkpt>
<trkpt lat="46.13841" lon="7.03606"><ele></ele><time>2017-6-21T12:8:16Z</time></trkpt>
<trkpt lat="46.13846" lon="7.03601"><ele></ele><time>2017-6-21T12:8:19Z</time></trkpt>
<trkpt lat="46.13855" lon="7.03592"><ele></ele><time>2017-6-21T12:8:22Z</time></trkpt>
<trkpt lat="46.13865" lon="7.03582"><ele></ele><time>2017-6-21T12:8:25Z</time></trkpt>
<trkpt lat="46.13874" lon="7.03573"><ele></ele><time>2017-6-21T12:8:28Z</time></trkpt>
<trkpt lat="46.13879" lon="7.03568"><ele></ele><time>2017-6-21T12:8:31Z</time></trkpt>
<trkpt lat="46.13883" lon="7.03563"><ele></ele><time>2017-6-21T12:8:34Z</time></trkpt>
<trkpt lat="46.13893" lon="7.03554"><ele></ele><time>2017-6-21T12:8:37Z</time></trkpt>
<trkpt lat="46.13903" lon="7.03545"><ele></ele><time>2017-6-21T12:8:40Z</time></trkpt>
<trkpt lat="46.13912" lon="7.03536"><ele></ele><time>2017-6-21T12:8:43Z</time></trkpt>
<trkpt lat="46.13922" lon="7.03527"><ele></ele><time>2017-6-21T12:8:46Z</time></trkpt>
<trkpt lat="46.13931" lon="7.03517"><ele></ele><time>2017-6-21T12:8:49Z</time></trkpt>
<trkpt lat="46.1394" lon="7.03507"><ele></ele><time>2017-6-21T12:8:52Z</time></trkpt>
<trkpt lat="46.13949" lon="7.03497"><ele></ele><time>2017-6-21T12:8:55Z</time></trkpt>
<trkpt lat="46.13959" lon="7.03487"><ele></ele><time>2017-6-21T12:8:58Z</time></trkpt>
<trkpt lat="46.1397" lon="7.03477"><ele></ele><time>2017-6-21T12:9:1Z</time></trkpt>
<trkpt lat="46.1398" lon="7.03467"><ele></ele><time>2017-6-21T12:9:4Z</time></trkpt>
<trkpt lat="46.13991" lon="7.03457"><ele></ele><time>2017-6-21T12:9:7Z</time></trkpt>
<trkpt lat="46.13997" lon="7.03452"><ele></ele><time>2017-6-21T12:9:10Z</time></trkpt>
<trkpt lat="46.14001" lon="7.03447"><ele></ele><time>2017-6-21T12:9:13Z</time></trkpt>
<trkpt lat="46.14011" lon="7.03439"><ele></ele><time>2017-6-21T12:9:16Z</time></trkpt>
<trkpt lat="46.14021" lon="7.0343"><ele></ele><time>2017-6-21T12:9:19Z</time></trkpt>
<trkpt lat="46.14031" lon="7.03421"><ele></ele><time>2017-6-21T12:9:22Z</time></trkpt>
<trkpt lat="46.1404" lon="7.03409"><ele></ele><time>2017-6-21T12:9:25Z</time></trkpt>
<trkpt lat="46.1405" lon="7.03403"><ele></ele><time>2017-6-21T12:9:28Z</time></trkpt>
<trkpt lat="46.1406" lon="7.03393"><ele></ele><time>2017-6-21T12:9:31Z</time></trkpt>
<trkpt lat="46.14069" lon="7.03384"><ele></ele><time>2017-6-21T12:9:34Z</time></trkpt>
<trkpt lat="46.14074" lon="7.03379"><ele></ele><time>2017-6-21T12:9:37Z</time></trkpt>
<trkpt lat="46.14077" lon="7.03372"><ele></ele><time>2017-6-21T12:9:40Z</time></trkpt>
<trkpt lat="46.14081" lon="7.03366"><ele></ele><time>2017-6-21T12:9:43Z</time></trkpt>
<trkpt lat="46.14087" lon="7.03361"><ele></ele><time>2017-6-21T12:9:46Z</time></trkpt>
<trkpt lat="46.14098" lon="7.03351"><ele></ele><time>2017-6-21T12:9:49Z</time></trkpt>
<trkpt lat="46.14108" lon="7.03341"><ele></ele><time>2017-6-21T12:9:52Z</time></trkpt>
<trkpt lat="46.14119" lon="7.03331"><ele></ele><time>2017-6-21T12:9:55Z</time></trkpt>
<trkpt lat="46.14128" lon="7.03321"><ele></ele><time>2017-6-21T12:9:58Z</time></trkpt>
<trkpt lat="46.14137" lon="7.03312"><ele></ele><time>2017-6-21T12:10:1Z</time></trkpt>
<trkpt lat="46.14147" lon="7.03302"><ele></ele><time>2017-6-21T12:10:4Z</time></trkpt>
<trkpt lat="46.14156" lon="7.03292"><ele></ele><time>2017-6-21T12:10:7Z</time></trkpt>
<trkpt lat="46.14166" lon="7.03281"><ele></ele><time>2017-6-21T12:10:10Z</time></trkpt>
<trkpt lat="46.14171" lon="7.03276"><ele></ele><time>2017-6-21T12:10:13Z</time></trkpt>
<trkpt lat="46.14176" lon="7.03273"><ele></ele><time>2017-6-21T12:10:16Z</time></trkpt>
<trkpt lat="46.14185" lon="7.03266"><ele></ele><time>2017-6-21T12:10:19Z</time></trkpt>
<trkpt lat="46.14194" lon="7.03259"><ele></ele><time>2017-6-21T12:10:22Z</time></trkpt>
<trkpt lat="46.14203" lon="7.03248"><ele></ele><time>2017-6-21T12:10:25Z</time></trkpt>
<trkpt lat="46.14211" lon="7.03238"><ele></ele><time>2017-6-21T12:10:28Z</time></trkpt>
<trkpt lat="46.14219" lon="7.03227"><ele></ele><time>2017-6-21T12:10:31Z</time></trkpt>
<trkpt lat="46.14223" lon="7.03223"><ele></ele><time>2017-6-21T12:10:34Z</time></trkpt>
<trkpt lat="46.14228" lon="7.03218"><ele></ele><time>2017-6-21T12:10:37Z</time></trkpt>
<trkpt lat="46.14237" lon="7.0321"><ele></ele><time>2017-6-21T12:10:40Z</time></trkpt>
<trkpt lat="46.14247" lon="7.03201"><ele></ele><time>2017-6-21T12:10:43Z</time></trkpt>
<trkpt lat="46.14256" lon="7.03193"><ele></ele><time>2017-6-21T12:10:46Z</time></trkpt>
<trkpt lat="46.14265" lon="7.03185"><ele></ele><time>2017-6-21T12:10:49Z</time></trkpt>
<trkpt lat="46.14275" lon="7.03176"><ele></ele><time>2017-6-21T12:10:52Z</time></trkpt>
<trkpt lat="46.14284" lon="7.03168"><ele></ele><time>2017-6-21T12:10:55Z</time></trkpt>
<trkpt lat="46.14294" lon="7.0316"><ele></ele><time>2017-6-21T12:10:58Z</time></trkpt>
<trkpt lat="46.14303" lon="7.03152"><ele></ele><time>2017-6-21T12:11:1Z</time></trkpt>
<trkpt lat="46.14308" lon="7.03149"><ele></ele><time>2017-6-21T12:11:4Z</time></trkpt>
<trkpt lat="46.14313" lon="7.03145"><ele></ele><time>2017-6-21T12:11:7Z</time></trkpt>
<trkpt lat="46.14324" lon="7.03138"><ele></ele><time>2017-6-21T12:11:10Z</time></trkpt>
<trkpt lat="46.14334" lon="7.03131"><ele></ele><time>2017-6-21T12:11:13Z</time></trkpt>
<trkpt lat="46.14344" lon="7.03125"><ele></ele><time>2017-6-21T12:11:16Z</time></trkpt>
<trkpt lat="46.14349" lon="7.03121"><ele></ele><time>2017-6-21T12:11:19Z</time></trkpt>
<trkpt lat="46.14354" lon="7.03117"><ele></ele><time>2017-6-21T12:11:22Z</time></trkpt>
<trkpt lat="46.14364" lon="7.03109"><ele></ele><time>2017-6-21T12:11:25Z</time></trkpt>
<trkpt lat="46.14366" lon="7.03104"><ele></ele><time>2017-6-21T12:11:28Z</time></trkpt>
<trkpt lat="46.14367" lon="7.03101"><ele></ele><time>2017-6-21T12:11:31Z</time></trkpt>
<trkpt lat="46.1438" lon="7.03094"><ele></ele><time>2017-6-21T12:11:34Z</time></trkpt>
<trkpt lat="46.14392" lon="7.03087"><ele></ele><time>2017-6-21T12:11:37Z</time></trkpt>
<trkpt lat="46.14404" lon="7.03082"><ele></ele><time>2017-6-21T12:11:40Z</time></trkpt>
<trkpt lat="46.14416" lon="7.03079"><ele></ele><time>2017-6-21T12:11:43Z</time></trkpt>
<trkpt lat="46.14424" lon="7.03072"><ele></ele><time>2017-6-21T12:11:46Z</time></trkpt>
<trkpt lat="46.14432" lon="7.03065"><ele></ele><time>2017-6-21T12:11:49Z</time></trkpt>
<trkpt lat="46.14442" lon="7.03061"><ele></ele><time>2017-6-21T12:11:52Z</time></trkpt>
<trkpt lat="46.14457" lon="7.03055"><ele></ele><time>2017-6-21T12:11:55Z</time></trkpt>
<trkpt lat="46.14462" lon="7.03053"><ele></ele><time>2017-6-21T12:11:58Z</time></trkpt>
<trkpt lat="46.14471" lon="7.03048"><ele></ele><time>2017-6-21T12:12:1Z</time></trkpt>
<trkpt lat="46.14474" lon="7.03045"><ele></ele><time>2017-6-21T12:12:4Z</time></trkpt>
<trkpt lat="46.1448" lon="7.03043"><ele></ele><time>2017-6-21T12:12:7Z</time></trkpt>
<trkpt lat="46.14492" lon="7.03039"><ele></ele><time>2017-6-21T12:12:10Z</time></trkpt>
<trkpt lat="46.14503" lon="7.03034"><ele></ele><time>2017-6-21T12:12:13Z</time></trkpt>
<trkpt lat="46.14515" lon="7.0303"><ele></ele><time>2017-6-21T12:12:16Z</time></trkpt>
<trkpt lat="46.14521" lon="7.03028"><ele></ele><time>2017-6-21T12:12:19Z</time></trkpt>
<trkpt lat="46.14527" lon="7.03026"><ele></ele><time>2017-6-21T12:12:22Z</time></trkpt>
<trkpt lat="46.14539" lon="7.03023"><ele></ele><time>2017-6-21T12:12:25Z</time></trkpt>
<trkpt lat="46.14545" lon="7.03022"><ele></ele><time>2017-6-21T12:12:28Z</time></trkpt>
<trkpt lat="46.14552" lon="7.03021"><ele></ele><time>2017-6-21T12:12:31Z</time></trkpt>
<trkpt lat="46.14565" lon="7.03019"><ele></ele><time>2017-6-21T12:12:34Z</time></trkpt>
<trkpt lat="46.14572" lon="7.03018"><ele></ele><time>2017-6-21T12:12:37Z</time></trkpt>
<trkpt lat="46.14577" lon="7.03017"><ele></ele><time>2017-6-21T12:12:40Z</time></trkpt>
<trkpt lat="46.14589" lon="7.03014"><ele></ele><time>2017-6-21T12:12:43Z</time></trkpt>
<trkpt lat="46.14601" lon="7.03012"><ele></ele><time>2017-6-21T12:12:46Z</time></trkpt>
<trkpt lat="46.14612" lon="7.03009"><ele></ele><time>2017-6-21T12:12:49Z</time></trkpt>
<trkpt lat="46.14624" lon="7.03006"><ele></ele><time>2017-6-21T12:12:52Z</time></trkpt>
<trkpt lat="46.14636" lon="7.03005"><ele></ele><time>2017-6-21T12:12:55Z</time></trkpt>
<trkpt lat="46.14649" lon="7.03004"><ele></ele><time>2017-6-21T12:12:58Z</time></trkpt>
<trkpt lat="46.14662" lon="7.03003"><ele></ele><time>2017-6-21T12:13:1Z</time></trkpt>
<trkpt lat="46.14674" lon="7.03002"><ele></ele><time>2017-6-21T12:13:4Z</time></trkpt>
<trkpt lat="46.14686" lon="7.03002"><ele></ele><time>2017-6-21T12:13:7Z</time></trkpt>
<trkpt lat="46.14698" lon="7.03002"><ele></ele><time>2017-6-21T12:13:10Z</time></trkpt>
<trkpt lat="46.14711" lon="7.03002"><ele></ele><time>2017-6-21T12:13:13Z</time></trkpt>
<trkpt lat="46.14722" lon="7.03002"><ele></ele><time>2017-6-21T12:13:16Z</time></trkpt>
<trkpt lat="46.14731" lon="7.03002"><ele></ele><time>2017-6-21T12:13:19Z</time></trkpt>
<trkpt lat="46.14739" lon="7.03002"><ele></ele><time>2017-6-21T12:13:22Z</time></trkpt>
<trkpt lat="46.14748" lon="7.03003"><ele></ele><time>2017-6-21T12:13:25Z</time></trkpt>
<trkpt lat="46.14757" lon="7.03005"><ele></ele><time>2017-6-21T12:13:28Z</time></trkpt>
<trkpt lat="46.14768" lon="7.03016"><ele></ele><time>2017-6-21T12:13:31Z</time></trkpt>
<trkpt lat="46.14778" lon="7.03027"><ele></ele><time>2017-6-21T12:13:34Z</time></trkpt>
<trkpt lat="46.14787" lon="7.03039"><ele></ele><time>2017-6-21T12:13:37Z</time></trkpt>
<trkpt lat="46.14789" lon="7.03056"><ele></ele><time>2017-6-21T12:13:40Z</time></trkpt>
<trkpt lat="46.14791" lon="7.03072"><ele></ele><time>2017-6-21T12:13:43Z</time></trkpt>
<trkpt lat="46.14794" lon="7.03089"><ele></ele><time>2017-6-21T12:13:46Z</time></trkpt>
<trkpt lat="46.14796" lon="7.03106"><ele></ele><time>2017-6-21T12:13:49Z</time></trkpt>
<trkpt lat="46.14802" lon="7.03122"><ele></ele><time>2017-6-21T12:13:52Z</time></trkpt>
<trkpt lat="46.14807" lon="7.03138"><ele></ele><time>2017-6-21T12:13:55Z</time></trkpt>
<trkpt lat="46.14812" lon="7.03154"><ele></ele><time>2017-6-21T12:13:58Z</time></trkpt>
<trkpt lat="46.14816" lon="7.0317"><ele></ele><time>2017-6-21T12:14:1Z</time></trkpt>
<trkpt lat="46.14817" lon="7.03178"><ele></ele><time>2017-6-21T12:14:4Z</time></trkpt>
<trkpt lat="46.14819" lon="7.03187"><ele></ele><time>2017-6-21T12:14:7Z</time></trkpt>
<trkpt lat="46.14825" lon="7.03203"><ele></ele><time>2017-6-21T12:14:10Z</time></trkpt>
<trkpt lat="46.14829" lon="7.0322"><ele></ele><time>2017-6-21T12:14:13Z</time></trkpt>
<trkpt lat="46.14828" lon="7.03236"><ele></ele><time>2017-6-21T12:14:16Z</time></trkpt>
<trkpt lat="46.14828" lon="7.0325"><ele></ele><time>2017-6-21T12:14:19Z</time></trkpt>
<trkpt lat="46.14827" lon="7.03257"><ele></ele><time>2017-6-21T12:14:22Z</time></trkpt>
<trkpt lat="46.14827" lon="7.03265"><ele></ele><time>2017-6-21T12:14:25Z</time></trkpt>
<trkpt lat="46.14826" lon="7.0328"><ele></ele><time>2017-6-21T12:14:28Z</time></trkpt>
<trkpt lat="46.14826" lon="7.03295"><ele></ele><time>2017-6-21T12:14:31Z</time></trkpt>
<trkpt lat="46.14825" lon="7.0331"><ele></ele><time>2017-6-21T12:14:34Z</time></trkpt>
<trkpt lat="46.14825" lon="7.03318"><ele></ele><time>2017-6-21T12:14:37Z</time></trkpt>
<trkpt lat="46.14826" lon="7.03326"><ele></ele><time>2017-6-21T12:14:40Z</time></trkpt>
<trkpt lat="46.14827" lon="7.03344"><ele></ele><time>2017-6-21T12:14:43Z</time></trkpt>
<trkpt lat="46.14829" lon="7.03351"><ele></ele><time>2017-6-21T12:14:46Z</time></trkpt>
<trkpt lat="46.14834" lon="7.03353"><ele></ele><time>2017-6-21T12:14:49Z</time></trkpt>
<trkpt lat="46.14844" lon="7.03357"><ele></ele><time>2017-6-21T12:14:52Z</time></trkpt>
<trkpt lat="46.14852" lon="7.03355"><ele></ele><time>2017-6-21T12:14:55Z</time></trkpt>
<trkpt lat="46.14859" lon="7.03353"><ele></ele><time>2017-6-21T12:14:58Z</time></trkpt>
<trkpt lat="46.14866" lon="7.0335"><ele></ele><time>2017-6-21T12:15:1Z</time></trkpt>
<trkpt lat="46.14873" lon="7.03345"><ele></ele><time>2017-6-21T12:15:4Z</time></trkpt>
<trkpt lat="46.14881" lon="7.03339"><ele></ele><time>2017-6-21T12:15:7Z</time></trkpt>
<trkpt lat="46.14888" lon="7.03334"><ele></ele><time>2017-6-21T12:15:10Z</time></trkpt>
<trkpt lat="46.14895" lon="7.03329"><ele></ele><time>2017-6-21T12:15:13Z</time></trkpt>
<trkpt lat="46.14902" lon="7.03323"><ele></ele><time>2017-6-21T12:15:16Z</time></trkpt>
<trkpt lat="46.14906" lon="7.0332"><ele></ele><time>2017-6-21T12:15:19Z</time></trkpt>
<trkpt lat="46.14909" lon="7.03314"><ele></ele><time>2017-6-21T12:15:22Z</time></trkpt>
<trkpt lat="46.14913" lon="7.0331"><ele></ele><time>2017-6-21T12:15:25Z</time></trkpt>
<trkpt lat="46.14918" lon="7.03308"><ele></ele><time>2017-6-21T12:15:28Z</time></trkpt>
<trkpt lat="46.14927" lon="7.03305"><ele></ele><time>2017-6-21T12:15:31Z</time></trkpt>
<trkpt lat="46.14935" lon="7.03301"><ele></ele><time>2017-6-21T12:15:34Z</time></trkpt>
<trkpt lat="46.14944" lon="7.03297"><ele></ele><time>2017-6-21T12:15:37Z</time></trkpt>
<trkpt lat="46.14953" lon="7.03293"><ele></ele><time>2017-6-21T12:15:40Z</time></trkpt>
<trkpt lat="46.14958" lon="7.03291"><ele></ele><time>2017-6-21T12:15:43Z</time></trkpt>
<trkpt lat="46.14964" lon="7.03288"><ele></ele><time>2017-6-21T12:15:46Z</time></trkpt>
<trkpt lat="46.14975" lon="7.03283"><ele></ele><time>2017-6-21T12:15:49Z</time></trkpt>
<trkpt lat="46.14987" lon="7.03278"><ele></ele><time>2017-6-21T12:15:52Z</time></trkpt>
<trkpt lat="46.14998" lon="7.03276"><ele></ele><time>2017-6-21T12:15:55Z</time></trkpt>
<trkpt lat="46.1501" lon="7.03274"><ele></ele><time>2017-6-21T12:15:58Z</time></trkpt>
<trkpt lat="46.15021" lon="7.0327"><ele></ele><time>2017-6-21T12:16:1Z</time></trkpt>
<trkpt lat="46.15032" lon="7.03266"><ele></ele><time>2017-6-21T12:16:4Z</time></trkpt>
<trkpt lat="46.15043" lon="7.03261"><ele></ele><time>2017-6-21T12:16:7Z</time></trkpt>
<trkpt lat="46.15054" lon="7.03257"><ele></ele><time>2017-6-21T12:16:10Z</time></trkpt>
<trkpt lat="46.15059" lon="7.03256"><ele></ele><time>2017-6-21T12:16:13Z</time></trkpt>
<trkpt lat="46.15065" lon="7.03254"><ele></ele><time>2017-6-21T12:16:16Z</time></trkpt>
<trkpt lat="46.15076" lon="7.03251"><ele></ele><time>2017-6-21T12:16:19Z</time></trkpt>
<trkpt lat="46.15087" lon="7.03248"><ele></ele><time>2017-6-21T12:16:22Z</time></trkpt>
<trkpt lat="46.15098" lon="7.03245"><ele></ele><time>2017-6-21T12:16:25Z</time></trkpt>
<trkpt lat="46.15109" lon="7.03242"><ele></ele><time>2017-6-21T12:16:28Z</time></trkpt>
<trkpt lat="46.15122" lon="7.03239"><ele></ele><time>2017-6-21T12:16:31Z</time></trkpt>
<trkpt lat="46.15134" lon="7.03236"><ele></ele><time>2017-6-21T12:16:34Z</time></trkpt>
<trkpt lat="46.15146" lon="7.03232"><ele></ele><time>2017-6-21T12:16:37Z</time></trkpt>
<trkpt lat="46.15158" lon="7.03229"><ele></ele><time>2017-6-21T12:16:40Z</time></trkpt>
<trkpt lat="46.1517" lon="7.03227"><ele></ele><time>2017-6-21T12:16:43Z</time></trkpt>
<trkpt lat="46.15183" lon="7.03225"><ele></ele><time>2017-6-21T12:16:46Z</time></trkpt>
<trkpt lat="46.15195" lon="7.03223"><ele></ele><time>2017-6-21T12:16:49Z</time></trkpt>
<trkpt lat="46.15207" lon="7.0322"><ele></ele><time>2017-6-21T12:16:52Z</time></trkpt>
<trkpt lat="46.15218" lon="7.03218"><ele></ele><time>2017-6-21T12:16:55Z</time></trkpt>
<trkpt lat="46.15229" lon="7.03215"><ele></ele><time>2017-6-21T12:16:58Z</time></trkpt>
<trkpt lat="46.15251" lon="7.0321"><ele></ele><time>2017-6-21T12:17:1Z</time></trkpt>
<trkpt lat="46.15264" lon="7.03209"><ele></ele><time>2017-6-21T12:17:4Z</time></trkpt>
<trkpt lat="46.15278" lon="7.03208"><ele></ele><time>2017-6-21T12:17:7Z</time></trkpt>
<trkpt lat="46.15291" lon="7.03207"><ele></ele><time>2017-6-21T12:17:10Z</time></trkpt>
<trkpt lat="46.15305" lon="7.03206"><ele></ele><time>2017-6-21T12:17:13Z</time></trkpt>
<trkpt lat="46.15319" lon="7.03201"><ele></ele><time>2017-6-21T12:17:16Z</time></trkpt>
<trkpt lat="46.15325" lon="7.03199"><ele></ele><time>2017-6-21T12:17:19Z</time></trkpt>
<trkpt lat="46.15331" lon="7.032"><ele></ele><time>2017-6-21T12:17:22Z</time></trkpt>
<trkpt lat="46.15342" lon="7.032"><ele></ele><time>2017-6-21T12:17:25Z</time></trkpt>
<trkpt lat="46.15354" lon="7.032"><ele></ele><time>2017-6-21T12:17:28Z</time></trkpt>
<trkpt lat="46.15365" lon="7.032"><ele></ele><time>2017-6-21T12:17:31Z</time></trkpt>
<trkpt lat="46.15371" lon="7.032"><ele></ele><time>2017-6-21T12:17:34Z</time></trkpt>
<trkpt lat="46.15377" lon="7.032"><ele></ele><time>2017-6-21T12:17:37Z</time></trkpt>
<trkpt lat="46.15389" lon="7.032"><ele></ele><time>2017-6-21T12:17:40Z</time></trkpt>
<trkpt lat="46.15401" lon="7.03201"><ele></ele><time>2017-6-21T12:17:43Z</time></trkpt>
<trkpt lat="46.15412" lon="7.03201"><ele></ele><time>2017-6-21T12:17:46Z</time></trkpt>
<trkpt lat="46.15418" lon="7.03201"><ele></ele><time>2017-6-21T12:17:49Z</time></trkpt>
<trkpt lat="46.15424" lon="7.03202"><ele></ele><time>2017-6-21T12:17:52Z</time></trkpt>
<trkpt lat="46.15435" lon="7.03203"><ele></ele><time>2017-6-21T12:17:55Z</time></trkpt>
<trkpt lat="46.15452" lon="7.03206"><ele></ele><time>2017-6-21T12:17:58Z</time></trkpt>
<trkpt lat="46.15458" lon="7.03206"><ele></ele><time>2017-6-21T12:18:1Z</time></trkpt>
<trkpt lat="46.15464" lon="7.03207"><ele></ele><time>2017-6-21T12:18:4Z</time></trkpt>
<trkpt lat="46.1547" lon="7.03207"><ele></ele><time>2017-6-21T12:18:7Z</time></trkpt>
<trkpt lat="46.15482" lon="7.03208"><ele></ele><time>2017-6-21T12:18:10Z</time></trkpt>
<trkpt lat="46.15494" lon="7.03209"><ele></ele><time>2017-6-21T12:18:13Z</time></trkpt>
<trkpt lat="46.15506" lon="7.0321"><ele></ele><time>2017-6-21T12:18:16Z</time></trkpt>
<trkpt lat="46.15512" lon="7.03211"><ele></ele><time>2017-6-21T12:18:19Z</time></trkpt>
<trkpt lat="46.15517" lon="7.03211"><ele></ele><time>2017-6-21T12:18:22Z</time></trkpt>
<trkpt lat="46.15528" lon="7.03212"><ele></ele><time>2017-6-21T12:18:25Z</time></trkpt>
<trkpt lat="46.15538" lon="7.03213"><ele></ele><time>2017-6-21T12:18:28Z</time></trkpt>
<trkpt lat="46.15549" lon="7.03214"><ele></ele><time>2017-6-21T12:18:31Z</time></trkpt>
<trkpt lat="46.1556" lon="7.03215"><ele></ele><time>2017-6-21T12:18:34Z</time></trkpt>
<trkpt lat="46.15567" lon="7.03214"><ele></ele><time>2017-6-21T12:18:37Z</time></trkpt>
<trkpt lat="46.15574" lon="7.03214"><ele></ele><time>2017-6-21T12:18:40Z</time></trkpt>
<trkpt lat="46.15587" lon="7.03212"><ele></ele><time>2017-6-21T12:18:43Z</time></trkpt>
<trkpt lat="46.15594" lon="7.03212"><ele></ele><time>2017-6-21T12:18:46Z</time></trkpt>
<trkpt lat="46.15599" lon="7.03213"><ele></ele><time>2017-6-21T12:18:49Z</time></trkpt>
<trkpt lat="46.15611" lon="7.03216"><ele></ele><time>2017-6-21T12:18:52Z</time></trkpt>
<trkpt lat="46.15623" lon="7.03219"><ele></ele><time>2017-6-21T12:18:55Z</time></trkpt>
<trkpt lat="46.15635" lon="7.03222"><ele></ele><time>2017-6-21T12:18:58Z</time></trkpt>
<trkpt lat="46.15641" lon="7.03224"><ele></ele><time>2017-6-21T12:19:1Z</time></trkpt>
<trkpt lat="46.15647" lon="7.03224"><ele></ele><time>2017-6-21T12:19:4Z</time></trkpt>
<trkpt lat="46.15659" lon="7.03225"><ele></ele><time>2017-6-21T12:19:7Z</time></trkpt>
<trkpt lat="46.15671" lon="7.03227"><ele></ele><time>2017-6-21T12:19:10Z</time></trkpt>
<trkpt lat="46.15683" lon="7.03228"><ele></ele><time>2017-6-21T12:19:13Z</time></trkpt>
<trkpt lat="46.15689" lon="7.03228"><ele></ele><time>2017-6-21T12:19:16Z</time></trkpt>
<trkpt lat="46.15695" lon="7.03229"><ele></ele><time>2017-6-21T12:19:19Z</time></trkpt>
<trkpt lat="46.15708" lon="7.03229"><ele></ele><time>2017-6-21T12:19:22Z</time></trkpt>
<trkpt lat="46.1572" lon="7.0323"><ele></ele><time>2017-6-21T12:19:25Z</time></trkpt>
<trkpt lat="46.15733" lon="7.03231"><ele></ele><time>2017-6-21T12:19:28Z</time></trkpt>
<trkpt lat="46.15738" lon="7.03231"><ele></ele><time>2017-6-21T12:19:31Z</time></trkpt>
<trkpt lat="46.15744" lon="7.03233"><ele></ele><time>2017-6-21T12:19:34Z</time></trkpt>
<trkpt lat="46.1575" lon="7.03236"><ele></ele><time>2017-6-21T12:19:37Z</time></trkpt>
<trkpt lat="46.15756" lon="7.03235"><ele></ele><time>2017-6-21T12:19:40Z</time></trkpt>
<trkpt lat="46.15768" lon="7.03234"><ele></ele><time>2017-6-21T12:19:43Z</time></trkpt>
<trkpt lat="46.15774" lon="7.03234"><ele></ele><time>2017-6-21T12:19:46Z</time></trkpt>
<trkpt lat="46.15779" lon="7.03236"><ele></ele><time>2017-6-21T12:19:49Z</time></trkpt>
<trkpt lat="46.15785" lon="7.03237"><ele></ele><time>2017-6-21T12:19:52Z</time></trkpt>
<trkpt lat="46.15791" lon="7.03233"><ele></ele><time>2017-6-21T12:19:55Z</time></trkpt>
<trkpt lat="46.15795" lon="7.03227"><ele></ele><time>2017-6-21T12:19:58Z</time></trkpt>
<trkpt lat="46.15795" lon="7.03219"><ele></ele><time>2017-6-21T12:20:1Z</time></trkpt>
<trkpt lat="46.15797" lon="7.03212"><ele></ele><time>2017-6-21T12:20:4Z</time></trkpt>
<trkpt lat="46.15801" lon="7.03208"><ele></ele><time>2017-6-21T12:20:7Z</time></trkpt>
<trkpt lat="46.15806" lon="7.03209"><ele></ele><time>2017-6-21T12:20:10Z</time></trkpt>
<trkpt lat="46.15811" lon="7.03211"><ele></ele><time>2017-6-21T12:20:13Z</time></trkpt>
<trkpt lat="46.15823" lon="7.03215"><ele></ele><time>2017-6-21T12:20:16Z</time></trkpt>
<trkpt lat="46.15835" lon="7.03219"><ele></ele><time>2017-6-21T12:20:19Z</time></trkpt>
<trkpt lat="46.15846" lon="7.03223"><ele></ele><time>2017-6-21T12:20:22Z</time></trkpt>
<trkpt lat="46.15852" lon="7.03225"><ele></ele><time>2017-6-21T12:20:25Z</time></trkpt>
<trkpt lat="46.15858" lon="7.03226"><ele></ele><time>2017-6-21T12:20:28Z</time></trkpt>
<trkpt lat="46.1587" lon="7.03229"><ele></ele><time>2017-6-21T12:20:31Z</time></trkpt>
<trkpt lat="46.15883" lon="7.03231"><ele></ele><time>2017-6-21T12:20:34Z</time></trkpt>
<trkpt lat="46.15895" lon="7.03234"><ele></ele><time>2017-6-21T12:20:37Z</time></trkpt>
<trkpt lat="46.15901" lon="7.03235"><ele></ele><time>2017-6-21T12:20:40Z</time></trkpt>
<trkpt lat="46.15907" lon="7.03236"><ele></ele><time>2017-6-21T12:20:43Z</time></trkpt>
<trkpt lat="46.15921" lon="7.03239"><ele></ele><time>2017-6-21T12:20:46Z</time></trkpt>
<trkpt lat="46.15934" lon="7.03242"><ele></ele><time>2017-6-21T12:20:49Z</time></trkpt>
<trkpt lat="46.15947" lon="7.03245"><ele></ele><time>2017-6-21T12:20:52Z</time></trkpt>
<trkpt lat="46.1596" lon="7.03248"><ele></ele><time>2017-6-21T12:20:55Z</time></trkpt>
<trkpt lat="46.15973" lon="7.03252"><ele></ele><time>2017-6-21T12:20:58Z</time></trkpt>
<trkpt lat="46.15985" lon="7.03255"><ele></ele><time>2017-6-21T12:21:1Z</time></trkpt>
<trkpt lat="46.15991" lon="7.03256"><ele></ele><time>2017-6-21T12:21:4Z</time></trkpt>
<trkpt lat="46.15997" lon="7.03257"><ele></ele><time>2017-6-21T12:21:7Z</time></trkpt>
<trkpt lat="46.16008" lon="7.03258"><ele></ele><time>2017-6-21T12:21:10Z</time></trkpt>
<trkpt lat="46.16019" lon="7.03259"><ele></ele><time>2017-6-21T12:21:13Z</time></trkpt>
<trkpt lat="46.16031" lon="7.0326"><ele></ele><time>2017-6-21T12:21:16Z</time></trkpt>
<trkpt lat="46.16043" lon="7.03261"><ele></ele><time>2017-6-21T12:21:19Z</time></trkpt>
<trkpt lat="46.16058" lon="7.0326"><ele></ele><time>2017-6-21T12:21:22Z</time></trkpt>
<trkpt lat="46.16073" lon="7.03258"><ele></ele><time>2017-6-21T12:21:25Z</time></trkpt>
<trkpt lat="46.16087" lon="7.03257"><ele></ele><time>2017-6-21T12:21:28Z</time></trkpt>
<trkpt lat="46.16098" lon="7.03254"><ele></ele><time>2017-6-21T12:21:31Z</time></trkpt>
<trkpt lat="46.1611" lon="7.03251"><ele></ele><time>2017-6-21T12:21:34Z</time></trkpt>
<trkpt lat="46.16121" lon="7.03249"><ele></ele><time>2017-6-21T12:21:37Z</time></trkpt>
<trkpt lat="46.16132" lon="7.03246"><ele></ele><time>2017-6-21T12:21:40Z</time></trkpt>
<trkpt lat="46.16143" lon="7.03243"><ele></ele><time>2017-6-21T12:21:43Z</time></trkpt>
<trkpt lat="46.16155" lon="7.0324"><ele></ele><time>2017-6-21T12:21:46Z</time></trkpt>
<trkpt lat="46.16166" lon="7.03237"><ele></ele><time>2017-6-21T12:21:49Z</time></trkpt>
<trkpt lat="46.16177" lon="7.03233"><ele></ele><time>2017-6-21T12:21:52Z</time></trkpt>
<trkpt lat="46.16187" lon="7.0323"><ele></ele><time>2017-6-21T12:21:55Z</time></trkpt>
<trkpt lat="46.16198" lon="7.03226"><ele></ele><time>2017-6-21T12:21:58Z</time></trkpt>
<trkpt lat="46.16208" lon="7.03223"><ele></ele><time>2017-6-21T12:22:1Z</time></trkpt>
<trkpt lat="46.1622" lon="7.0322"><ele></ele><time>2017-6-21T12:22:4Z</time></trkpt>
<trkpt lat="46.16231" lon="7.03217"><ele></ele><time>2017-6-21T12:22:7Z</time></trkpt>
<trkpt lat="46.16243" lon="7.03214"><ele></ele><time>2017-6-21T12:22:10Z</time></trkpt>
<trkpt lat="46.16255" lon="7.03211"><ele></ele><time>2017-6-21T12:22:13Z</time></trkpt>
<trkpt lat="46.16266" lon="7.03208"><ele></ele><time>2017-6-21T12:22:16Z</time></trkpt>
<trkpt lat="46.16277" lon="7.03204"><ele></ele><time>2017-6-21T12:22:19Z</time></trkpt>
<trkpt lat="46.16287" lon="7.03199"><ele></ele><time>2017-6-21T12:22:22Z</time></trkpt>
<trkpt lat="46.16298" lon="7.03195"><ele></ele><time>2017-6-21T12:22:25Z</time></trkpt>
<trkpt lat="46.16308" lon="7.0319"><ele></ele><time>2017-6-21T12:22:28Z</time></trkpt>
<trkpt lat="46.16319" lon="7.03185"><ele></ele><time>2017-6-21T12:22:31Z</time></trkpt>
<trkpt lat="46.16324" lon="7.03183"><ele></ele><time>2017-6-21T12:22:34Z</time></trkpt>
<trkpt lat="46.16329" lon="7.03181"><ele></ele><time>2017-6-21T12:22:37Z</time></trkpt>
<trkpt lat="46.16339" lon="7.03177"><ele></ele><time>2017-6-21T12:22:40Z</time></trkpt>
<trkpt lat="46.16348" lon="7.03173"><ele></ele><time>2017-6-21T12:22:43Z</time></trkpt>
<trkpt lat="46.16358" lon="7.03169"><ele></ele><time>2017-6-21T12:22:46Z</time></trkpt>
<trkpt lat="46.16368" lon="7.03165"><ele></ele><time>2017-6-21T12:22:49Z</time></trkpt>
<trkpt lat="46.16377" lon="7.03161"><ele></ele><time>2017-6-21T12:22:52Z</time></trkpt>
<trkpt lat="46.16387" lon="7.03157"><ele></ele><time>2017-6-21T12:22:55Z</time></trkpt>
<trkpt lat="46.16397" lon="7.03153"><ele></ele><time>2017-6-21T12:22:58Z</time></trkpt>
<trkpt lat="46.16406" lon="7.03149"><ele></ele><time>2017-6-21T12:23:1Z</time></trkpt>
<trkpt lat="46.16416" lon="7.03145"><ele></ele><time>2017-6-21T12:23:4Z</time></trkpt>
<trkpt lat="46.16427" lon="7.03139"><ele></ele><time>2017-6-21T12:23:7Z</time></trkpt>
<trkpt lat="46.16437" lon="7.03133"><ele></ele><time>2017-6-21T12:23:10Z</time></trkpt>
<trkpt lat="46.16448" lon="7.03127"><ele></ele><time>2017-6-21T12:23:13Z</time></trkpt>
<trkpt lat="46.16458" lon="7.0312"><ele></ele><time>2017-6-21T12:23:16Z</time></trkpt>
<trkpt lat="46.16469" lon="7.03114"><ele></ele><time>2017-6-21T12:23:19Z</time></trkpt>
<trkpt lat="46.16479" lon="7.03107"><ele></ele><time>2017-6-21T12:23:22Z</time></trkpt>
<trkpt lat="46.1649" lon="7.031"><ele></ele><time>2017-6-21T12:23:25Z</time></trkpt>
<trkpt lat="46.165" lon="7.03094"><ele></ele><time>2017-6-21T12:23:28Z</time></trkpt>
<trkpt lat="46.16507" lon="7.0309"><ele></ele><time>2017-6-21T12:23:31Z</time></trkpt>
<trkpt lat="46.16514" lon="7.03086"><ele></ele><time>2017-6-21T12:23:34Z</time></trkpt>
<trkpt lat="46.16521" lon="7.03082"><ele></ele><time>2017-6-21T12:23:37Z</time></trkpt>
<trkpt lat="46.16528" lon="7.03078"><ele></ele><time>2017-6-21T12:23:40Z</time></trkpt>
<trkpt lat="46.16536" lon="7.03074"><ele></ele><time>2017-6-21T12:23:43Z</time></trkpt>
<trkpt lat="46.16543" lon="7.03069"><ele></ele><time>2017-6-21T12:23:46Z</time></trkpt>
<trkpt lat="46.16551" lon="7.03065"><ele></ele><time>2017-6-21T12:23:49Z</time></trkpt>
<trkpt lat="46.16558" lon="7.03061"><ele></ele><time>2017-6-21T12:23:52Z</time></trkpt>
<trkpt lat="46.16566" lon="7.03057"><ele></ele><time>2017-6-21T12:23:55Z</time></trkpt>
<trkpt lat="46.16574" lon="7.03053"><ele></ele><time>2017-6-21T12:23:58Z</time></trkpt>
<trkpt lat="46.16581" lon="7.03049"><ele></ele><time>2017-6-21T12:24:1Z</time></trkpt>
<trkpt lat="46.16586" lon="7.03047"><ele></ele><time>2017-6-21T12:24:4Z</time></trkpt>
<trkpt lat="46.16591" lon="7.03044"><ele></ele><time>2017-6-21T12:24:7Z</time></trkpt>
<trkpt lat="46.16601" lon="7.03039"><ele></ele><time>2017-6-21T12:24:10Z</time></trkpt>
<trkpt lat="46.16612" lon="7.03034"><ele></ele><time>2017-6-21T12:24:13Z</time></trkpt>
<trkpt lat="46.16622" lon="7.03029"><ele></ele><time>2017-6-21T12:24:16Z</time></trkpt>
<trkpt lat="46.16632" lon="7.03025"><ele></ele><time>2017-6-21T12:24:19Z</time></trkpt>
<trkpt lat="46.16647" lon="7.03018"><ele></ele><time>2017-6-21T12:24:22Z</time></trkpt>
<trkpt lat="46.16652" lon="7.03016"><ele></ele><time>2017-6-21T12:24:25Z</time></trkpt>
<trkpt lat="46.16662" lon="7.03012"><ele></ele><time>2017-6-21T12:24:28Z</time></trkpt>
<trkpt lat="46.16671" lon="7.03008"><ele></ele><time>2017-6-21T12:24:31Z</time></trkpt>
<trkpt lat="46.16676" lon="7.03006"><ele></ele><time>2017-6-21T12:24:34Z</time></trkpt>
<trkpt lat="46.16679" lon="7.03004"><ele></ele><time>2017-6-21T12:24:37Z</time></trkpt>
<trkpt lat="46.16684" lon="7.03004"><ele></ele><time>2017-6-21T12:24:40Z</time></trkpt>
<trkpt lat="46.16691" lon="7.03004"><ele></ele><time>2017-6-21T12:24:43Z</time></trkpt>
<trkpt lat="46.167" lon="7.02999"><ele></ele><time>2017-6-21T12:24:46Z</time></trkpt>
<trkpt lat="46.1671" lon="7.02995"><ele></ele><time>2017-6-21T12:24:49Z</time></trkpt>
<trkpt lat="46.16716" lon="7.02994"><ele></ele><time>2017-6-21T12:24:52Z</time></trkpt>
<trkpt lat="46.16723" lon="7.02991"><ele></ele><time>2017-6-21T12:24:55Z</time></trkpt>
<trkpt lat="46.16735" lon="7.02985"><ele></ele><time>2017-6-21T12:24:58Z</time></trkpt>
<trkpt lat="46.16754" lon="7.02976"><ele></ele><time>2017-6-21T12:25:1Z</time></trkpt>
<trkpt lat="46.1676" lon="7.02973"><ele></ele><time>2017-6-21T12:25:4Z</time></trkpt>
<trkpt lat="46.16772" lon="7.02968"><ele></ele><time>2017-6-21T12:25:7Z</time></trkpt>
<trkpt lat="46.16783" lon="7.02963"><ele></ele><time>2017-6-21T12:25:10Z</time></trkpt>
<trkpt lat="46.16795" lon="7.02958"><ele></ele><time>2017-6-21T12:25:13Z</time></trkpt>
<trkpt lat="46.16801" lon="7.02955"><ele></ele><time>2017-6-21T12:25:16Z</time></trkpt>
<trkpt lat="46.16806" lon="7.02953"><ele></ele><time>2017-6-21T12:25:19Z</time></trkpt>
<trkpt lat="46.16817" lon="7.02949"><ele></ele><time>2017-6-21T12:25:22Z</time></trkpt>
<trkpt lat="46.16828" lon="7.02945"><ele></ele><time>2017-6-21T12:25:25Z</time></trkpt>
<trkpt lat="46.1684" lon="7.0294"><ele></ele><time>2017-6-21T12:25:28Z</time></trkpt>
<trkpt lat="46.16845" lon="7.02938"><ele></ele><time>2017-6-21T12:25:31Z</time></trkpt>
<trkpt lat="46.16851" lon="7.02936"><ele></ele><time>2017-6-21T12:25:34Z</time></trkpt>
<trkpt lat="46.16862" lon="7.02931"><ele></ele><time>2017-6-21T12:25:37Z</time></trkpt>
<trkpt lat="46.16872" lon="7.02926"><ele></ele><time>2017-6-21T12:25:40Z</time></trkpt>
<trkpt lat="46.16875" lon="7.02923"><ele></ele><time>2017-6-21T12:25:43Z</time></trkpt>
<trkpt lat="46.16879" lon="7.02919"><ele></ele><time>2017-6-21T12:25:46Z</time></trkpt>
<trkpt lat="46.16882" lon="7.02916"><ele></ele><time>2017-6-21T12:25:49Z</time></trkpt>
<trkpt lat="46.16886" lon="7.02912"><ele></ele><time>2017-6-21T12:25:52Z</time></trkpt>
<trkpt lat="46.1689" lon="7.02909"><ele></ele><time>2017-6-21T12:25:55Z</time></trkpt>
<trkpt lat="46.16891" lon="7.02907"><ele></ele><time>2017-6-21T12:25:58Z</time></trkpt>
<trkpt lat="46.1689" lon="7.02905"><ele></ele><time>2017-6-21T12:26:1Z</time></trkpt>
<trkpt lat="46.16889" lon="7.02902"><ele></ele><time>2017-6-21T12:26:4Z</time></trkpt>
<trkpt lat="46.1689" lon="7.02901"><ele></ele><time>2017-6-21T12:26:7Z</time></trkpt>
<trkpt lat="46.16893" lon="7.02901"><ele></ele><time>2017-6-21T12:26:10Z</time></trkpt>
<trkpt lat="46.16897" lon="7.02901"><ele></ele><time>2017-6-21T12:26:13Z</time></trkpt>
<trkpt lat="46.16903" lon="7.029"><ele></ele><time>2017-6-21T12:26:16Z</time></trkpt>
<trkpt lat="46.1691" lon="7.02899"><ele></ele><time>2017-6-21T12:26:19Z</time></trkpt>
<trkpt lat="46.16917" lon="7.02899"><ele></ele><time>2017-6-21T12:26:22Z</time></trkpt>
<trkpt lat="46.16924" lon="7.02898"><ele></ele><time>2017-6-21T12:26:25Z</time></trkpt>
<trkpt lat="46.16931" lon="7.02897"><ele></ele><time>2017-6-21T12:26:28Z</time></trkpt>
<trkpt lat="46.16938" lon="7.02896"><ele></ele><time>2017-6-21T12:26:31Z</time></trkpt>
<trkpt lat="46.16947" lon="7.02894"><ele></ele><time>2017-6-21T12:26:34Z</time></trkpt>
<trkpt lat="46.16956" lon="7.02892"><ele></ele><time>2017-6-21T12:26:37Z</time></trkpt>
<trkpt lat="46.16966" lon="7.02889"><ele></ele><time>2017-6-21T12:26:40Z</time></trkpt>
<trkpt lat="46.16975" lon="7.02887"><ele></ele><time>2017-6-21T12:26:43Z</time></trkpt>
<trkpt lat="46.16984" lon="7.02884"><ele></ele><time>2017-6-21T12:26:46Z</time></trkpt>
<trkpt lat="46.16994" lon="7.0288"><ele></ele><time>2017-6-21T12:26:49Z</time></trkpt>
<trkpt lat="46.17003" lon="7.02875"><ele></ele><time>2017-6-21T12:26:52Z</time></trkpt>
<trkpt lat="46.17012" lon="7.02871"><ele></ele><time>2017-6-21T12:26:55Z</time></trkpt>
<trkpt lat="46.17021" lon="7.02867"><ele></ele><time>2017-6-21T12:26:58Z</time></trkpt>
<trkpt lat="46.1703" lon="7.02863"><ele></ele><time>2017-6-21T12:27:1Z</time></trkpt>
<trkpt lat="46.17035" lon="7.0286"><ele></ele><time>2017-6-21T12:27:4Z</time></trkpt>
<trkpt lat="46.1704" lon="7.02858"><ele></ele><time>2017-6-21T12:27:7Z</time></trkpt>
<trkpt lat="46.17046" lon="7.02855"><ele></ele><time>2017-6-21T12:27:10Z</time></trkpt>
<trkpt lat="46.17051" lon="7.02852"><ele></ele><time>2017-6-21T12:27:13Z</time></trkpt>
<trkpt lat="46.17057" lon="7.0285"><ele></ele><time>2017-6-21T12:27:16Z</time></trkpt>
<trkpt lat="46.17062" lon="7.02847"><ele></ele><time>2017-6-21T12:27:19Z</time></trkpt>
<trkpt lat="46.17073" lon="7.02842"><ele></ele><time>2017-6-21T12:27:22Z</time></trkpt>
<trkpt lat="46.17079" lon="7.02839"><ele></ele><time>2017-6-21T12:27:25Z</time></trkpt>
<trkpt lat="46.17085" lon="7.02836"><ele></ele><time>2017-6-21T12:27:28Z</time></trkpt>
<trkpt lat="46.17091" lon="7.02834"><ele></ele><time>2017-6-21T12:27:31Z</time></trkpt>
<trkpt lat="46.17097" lon="7.02831"><ele></ele><time>2017-6-21T12:27:34Z</time></trkpt>
<trkpt lat="46.17103" lon="7.02828"><ele></ele><time>2017-6-21T12:27:37Z</time></trkpt>
<trkpt lat="46.17109" lon="7.02825"><ele></ele><time>2017-6-21T12:27:40Z</time></trkpt>
<trkpt lat="46.17115" lon="7.02823"><ele></ele><time>2017-6-21T12:27:43Z</time></trkpt>
<trkpt lat="46.17118" lon="7.02821"><ele></ele><time>2017-6-21T12:27:46Z</time></trkpt>
<trkpt lat="46.17122" lon="7.02819"><ele></ele><time>2017-6-21T12:27:49Z</time></trkpt>
<trkpt lat="46.1713" lon="7.02816"><ele></ele><time>2017-6-21T12:27:52Z</time></trkpt>
<trkpt lat="46.17137" lon="7.02813"><ele></ele><time>2017-6-21T12:27:55Z</time></trkpt>
<trkpt lat="46.17145" lon="7.02809"><ele></ele><time>2017-6-21T12:27:58Z</time></trkpt>
<trkpt lat="46.17153" lon="7.02806"><ele></ele><time>2017-6-21T12:28:1Z</time></trkpt>
<trkpt lat="46.1716" lon="7.02802"><ele></ele><time>2017-6-21T12:28:4Z</time></trkpt>
<trkpt lat="46.17164" lon="7.02801"><ele></ele><time>2017-6-21T12:28:7Z</time></trkpt>
<trkpt lat="46.17167" lon="7.02799"><ele></ele><time>2017-6-21T12:28:10Z</time></trkpt>
<trkpt lat="46.17173" lon="7.02796"><ele></ele><time>2017-6-21T12:28:13Z</time></trkpt>
<trkpt lat="46.17179" lon="7.02793"><ele></ele><time>2017-6-21T12:28:16Z</time></trkpt>
<trkpt lat="46.17185" lon="7.0279"><ele></ele><time>2017-6-21T12:28:19Z</time></trkpt>
<trkpt lat="46.17191" lon="7.02787"><ele></ele><time>2017-6-21T12:28:22Z</time></trkpt>
<trkpt lat="46.17197" lon="7.02784"><ele></ele><time>2017-6-21T12:28:25Z</time></trkpt>
<trkpt lat="46.17203" lon="7.02781"><ele></ele><time>2017-6-21T12:28:28Z</time></trkpt>
<trkpt lat="46.17209" lon="7.02778"><ele></ele><time>2017-6-21T12:28:31Z</time></trkpt>
<trkpt lat="46.17216" lon="7.02775"><ele></ele><time>2017-6-21T12:28:34Z</time></trkpt>
<trkpt lat="46.17222" lon="7.02772"><ele></ele><time>2017-6-21T12:28:37Z</time></trkpt>
<trkpt lat="46.17229" lon="7.02769"><ele></ele><time>2017-6-21T12:28:40Z</time></trkpt>
<trkpt lat="46.17235" lon="7.02766"><ele></ele><time>2017-6-21T12:28:43Z</time></trkpt>
<trkpt lat="46.17245" lon="7.02761"><ele></ele><time>2017-6-21T12:28:46Z</time></trkpt>
<trkpt lat="46.17248" lon="7.0276"><ele></ele><time>2017-6-21T12:28:49Z</time></trkpt>
<trkpt lat="46.17254" lon="7.02757"><ele></ele><time>2017-6-21T12:28:52Z</time></trkpt>
<trkpt lat="46.17262" lon="7.02753"><ele></ele><time>2017-6-21T12:28:55Z</time></trkpt>
<trkpt lat="46.17269" lon="7.02749"><ele></ele><time>2017-6-21T12:28:58Z</time></trkpt>
<trkpt lat="46.17276" lon="7.02745"><ele></ele><time>2017-6-21T12:29:1Z</time></trkpt>
<trkpt lat="46.17284" lon="7.02741"><ele></ele><time>2017-6-21T12:29:4Z</time></trkpt>
<trkpt lat="46.17291" lon="7.02738"><ele></ele><time>2017-6-21T12:29:7Z</time></trkpt>
<trkpt lat="46.17298" lon="7.02734"><ele></ele><time>2017-6-21T12:29:10Z</time></trkpt>
<trkpt lat="46.17307" lon="7.0273"><ele></ele><time>2017-6-21T12:29:13Z</time></trkpt>
<trkpt lat="46.17315" lon="7.02726"><ele></ele><time>2017-6-21T12:29:16Z</time></trkpt>
<trkpt lat="46.17323" lon="7.02723"><ele></ele><time>2017-6-21T12:29:19Z</time></trkpt>
<trkpt lat="46.17331" lon="7.02719"><ele></ele><time>2017-6-21T12:29:22Z</time></trkpt>
<trkpt lat="46.1734" lon="7.02715"><ele></ele><time>2017-6-21T12:29:25Z</time></trkpt>
<trkpt lat="46.17344" lon="7.02714"><ele></ele><time>2017-6-21T12:29:28Z</time></trkpt>
<trkpt lat="46.17348" lon="7.02712"><ele></ele><time>2017-6-21T12:29:31Z</time></trkpt>
<trkpt lat="46.17358" lon="7.02709"><ele></ele><time>2017-6-21T12:29:34Z</time></trkpt>
<trkpt lat="46.17367" lon="7.02705"><ele></ele><time>2017-6-21T12:29:37Z</time></trkpt>
<trkpt lat="46.17376" lon="7.02702"><ele></ele><time>2017-6-21T12:29:40Z</time></trkpt>
<trkpt lat="46.17385" lon="7.02698"><ele></ele><time>2017-6-21T12:29:43Z</time></trkpt>
<trkpt lat="46.17389" lon="7.02697"><ele></ele><time>2017-6-21T12:29:46Z</time></trkpt>
<trkpt lat="46.17394" lon="7.02696"><ele></ele><time>2017-6-21T12:29:49Z</time></trkpt>
<trkpt lat="46.17403" lon="7.02693"><ele></ele><time>2017-6-21T12:29:52Z</time></trkpt>
<trkpt lat="46.17412" lon="7.0269"><ele></ele><time>2017-6-21T12:29:55Z</time></trkpt>
<trkpt lat="46.17421" lon="7.02688"><ele></ele><time>2017-6-21T12:29:58Z</time></trkpt>
<trkpt lat="46.1743" lon="7.02685"><ele></ele><time>2017-6-21T12:30:1Z</time></trkpt>
<trkpt lat="46.17434" lon="7.02684"><ele></ele><time>2017-6-21T12:30:4Z</time></trkpt>
<trkpt lat="46.17439" lon="7.02683"><ele></ele><time>2017-6-21T12:30:7Z</time></trkpt>
<trkpt lat="46.17448" lon="7.02682"><ele></ele><time>2017-6-21T12:30:10Z</time></trkpt>
<trkpt lat="46.17458" lon="7.02681"><ele></ele><time>2017-6-21T12:30:13Z</time></trkpt>
<trkpt lat="46.17467" lon="7.0268"><ele></ele><time>2017-6-21T12:30:16Z</time></trkpt>
<trkpt lat="46.17476" lon="7.02678"><ele></ele><time>2017-6-21T12:30:19Z</time></trkpt>
<trkpt lat="46.17481" lon="7.02678"><ele></ele><time>2017-6-21T12:30:22Z</time></trkpt>
<trkpt lat="46.17485" lon="7.02677"><ele></ele><time>2017-6-21T12:30:25Z</time></trkpt>
<trkpt lat="46.17493" lon="7.02676"><ele></ele><time>2017-6-21T12:30:28Z</time></trkpt>
<trkpt lat="46.17501" lon="7.02674"><ele></ele><time>2017-6-21T12:30:31Z</time></trkpt>
<trkpt lat="46.17509" lon="7.02673"><ele></ele><time>2017-6-21T12:30:34Z</time></trkpt>
<trkpt lat="46.17517" lon="7.02672"><ele></ele><time>2017-6-21T12:30:37Z</time></trkpt>
<trkpt lat="46.17525" lon="7.0267"><ele></ele><time>2017-6-21T12:30:40Z</time></trkpt>
<trkpt lat="46.17529" lon="7.0267"><ele></ele><time>2017-6-21T12:30:43Z</time></trkpt>
<trkpt lat="46.17534" lon="7.0267"><ele></ele><time>2017-6-21T12:30:46Z</time></trkpt>
<trkpt lat="46.17543" lon="7.02672"><ele></ele><time>2017-6-21T12:30:49Z</time></trkpt>
<trkpt lat="46.17552" lon="7.02673"><ele></ele><time>2017-6-21T12:30:52Z</time></trkpt>
<trkpt lat="46.17561" lon="7.02674"><ele></ele><time>2017-6-21T12:30:55Z</time></trkpt>
<trkpt lat="46.1757" lon="7.02675"><ele></ele><time>2017-6-21T12:30:58Z</time></trkpt>
<trkpt lat="46.17574" lon="7.02675"><ele></ele><time>2017-6-21T12:31:1Z</time></trkpt>
<trkpt lat="46.17579" lon="7.02676"><ele></ele><time>2017-6-21T12:31:4Z</time></trkpt>
<trkpt lat="46.17588" lon="7.02677"><ele></ele><time>2017-6-21T12:31:7Z</time></trkpt>
<trkpt lat="46.17597" lon="7.02679"><ele></ele><time>2017-6-21T12:31:10Z</time></trkpt>
<trkpt lat="46.17605" lon="7.0268"><ele></ele><time>2017-6-21T12:31:13Z</time></trkpt>
<trkpt lat="46.17614" lon="7.02681"><ele></ele><time>2017-6-21T12:31:16Z</time></trkpt>
<trkpt lat="46.17623" lon="7.02682"><ele></ele><time>2017-6-21T12:31:19Z</time></trkpt>
<trkpt lat="46.17631" lon="7.02683"><ele></ele><time>2017-6-21T12:31:22Z</time></trkpt>
<trkpt lat="46.1764" lon="7.02683"><ele></ele><time>2017-6-21T12:31:25Z</time></trkpt>
<trkpt lat="46.17648" lon="7.02684"><ele></ele><time>2017-6-21T12:31:28Z</time></trkpt>
<trkpt lat="46.17657" lon="7.02684"><ele></ele><time>2017-6-21T12:31:31Z</time></trkpt>
<trkpt lat="46.17665" lon="7.02685"><ele></ele><time>2017-6-21T12:31:34Z</time></trkpt>
<trkpt lat="46.17669" lon="7.02685"><ele></ele><time>2017-6-21T12:31:37Z</time></trkpt>
<trkpt lat="46.17671" lon="7.02686"><ele></ele><time>2017-6-21T12:31:40Z</time></trkpt>
<trkpt lat="46.17676" lon="7.02688"><ele></ele><time>2017-6-21T12:31:43Z</time></trkpt>
<trkpt lat="46.17681" lon="7.0269"><ele></ele><time>2017-6-21T12:31:46Z</time></trkpt>
<trkpt lat="46.17686" lon="7.02691"><ele></ele><time>2017-6-21T12:31:49Z</time></trkpt>
<trkpt lat="46.1769" lon="7.02693"><ele></ele><time>2017-6-21T12:31:52Z</time></trkpt>
<trkpt lat="46.17695" lon="7.02695"><ele></ele><time>2017-6-21T12:31:55Z</time></trkpt>
<trkpt lat="46.17697" lon="7.02696"><ele></ele><time>2017-6-21T12:31:58Z</time></trkpt>
<trkpt lat="46.177" lon="7.02696"><ele></ele><time>2017-6-21T12:32:1Z</time></trkpt>
<trkpt lat="46.17707" lon="7.02699"><ele></ele><time>2017-6-21T12:32:4Z</time></trkpt>
<trkpt lat="46.17709" lon="7.027"><ele></ele><time>2017-6-21T12:32:7Z</time></trkpt>
<trkpt lat="46.17714" lon="7.02701"><ele></ele><time>2017-6-21T12:32:10Z</time></trkpt>
<trkpt lat="46.17719" lon="7.02703"><ele></ele><time>2017-6-21T12:32:13Z</time></trkpt>
<trkpt lat="46.17724" lon="7.02705"><ele></ele><time>2017-6-21T12:32:16Z</time></trkpt>
<trkpt lat="46.17729" lon="7.02706"><ele></ele><time>2017-6-21T12:32:19Z</time></trkpt>
<trkpt lat="46.17733" lon="7.02708"><ele></ele><time>2017-6-21T12:32:22Z</time></trkpt>
<trkpt lat="46.17738" lon="7.0271"><ele></ele><time>2017-6-21T12:32:25Z</time></trkpt>
<trkpt lat="46.17741" lon="7.02711"><ele></ele><time>2017-6-21T12:32:28Z</time></trkpt>
<trkpt lat="46.17743" lon="7.02712"><ele></ele><time>2017-6-21T12:32:31Z</time></trkpt>
<trkpt lat="46.17748" lon="7.02713"><ele></ele><time>2017-6-21T12:32:34Z</time></trkpt>
<trkpt lat="46.17753" lon="7.02715"><ele></ele><time>2017-6-21T12:32:37Z</time></trkpt>
<trkpt lat="46.17757" lon="7.02717"><ele></ele><time>2017-6-21T12:32:40Z</time></trkpt>
<trkpt lat="46.1776" lon="7.02717"><ele></ele><time>2017-6-21T12:32:43Z</time></trkpt>
<trkpt lat="46.17762" lon="7.02719"><ele></ele><time>2017-6-21T12:32:46Z</time></trkpt>
<trkpt lat="46.17766" lon="7.02721"><ele></ele><time>2017-6-21T12:32:49Z</time></trkpt>
<trkpt lat="46.17771" lon="7.02723"><ele></ele><time>2017-6-21T12:32:52Z</time></trkpt>
<trkpt lat="46.17775" lon="7.02725"><ele></ele><time>2017-6-21T12:32:55Z</time></trkpt>
<trkpt lat="46.17779" lon="7.02727"><ele></ele><time>2017-6-21T12:32:58Z</time></trkpt>
<trkpt lat="46.17784" lon="7.02729"><ele></ele><time>2017-6-21T12:33:1Z</time></trkpt>
<trkpt lat="46.17788" lon="7.02731"><ele></ele><time>2017-6-21T12:33:4Z</time></trkpt>
<trkpt lat="46.17793" lon="7.02734"><ele></ele><time>2017-6-21T12:33:7Z</time></trkpt>
<trkpt lat="46.17797" lon="7.02736"><ele></ele><time>2017-6-21T12:33:10Z</time></trkpt>
<trkpt lat="46.17801" lon="7.02738"><ele></ele><time>2017-6-21T12:33:13Z</time></trkpt>
<trkpt lat="46.17804" lon="7.0274"><ele></ele><time>2017-6-21T12:33:16Z</time></trkpt>
<trkpt lat="46.17809" lon="7.02743"><ele></ele><time>2017-6-21T12:33:19Z</time></trkpt>
<trkpt lat="46.17818" lon="7.0275"><ele></ele><time>2017-6-21T12:33:22Z</time></trkpt>
<trkpt lat="46.17827" lon="7.02756"><ele></ele><time>2017-6-21T12:33:25Z</time></trkpt>
<trkpt lat="46.17831" lon="7.0276"><ele></ele><time>2017-6-21T12:33:28Z</time></trkpt>
<trkpt lat="46.17836" lon="7.02763"><ele></ele><time>2017-6-21T12:33:31Z</time></trkpt>
<trkpt lat="46.17845" lon="7.0277"><ele></ele><time>2017-6-21T12:33:34Z</time></trkpt>
<trkpt lat="46.17855" lon="7.02777"><ele></ele><time>2017-6-21T12:33:37Z</time></trkpt>
<trkpt lat="46.17865" lon="7.02783"><ele></ele><time>2017-6-21T12:33:40Z</time></trkpt>
<trkpt lat="46.17874" lon="7.0279"><ele></ele><time>2017-6-21T12:33:43Z</time></trkpt>
<trkpt lat="46.17884" lon="7.02796"><ele></ele><time>2017-6-21T12:33:46Z</time></trkpt>
<trkpt lat="46.17889" lon="7.028"><ele></ele><time>2017-6-21T12:33:49Z</time></trkpt>
<trkpt lat="46.17892" lon="7.02802"><ele></ele><time>2017-6-21T12:33:52Z</time></trkpt>
<trkpt lat="46.17899" lon="7.02808"><ele></ele><time>2017-6-21T12:33:55Z</time></trkpt>
<trkpt lat="46.17906" lon="7.02814"><ele></ele><time>2017-6-21T12:33:58Z</time></trkpt>
<trkpt lat="46.17913" lon="7.02819"><ele></ele><time>2017-6-21T12:34:1Z</time></trkpt>
<trkpt lat="46.1792" lon="7.02825"><ele></ele><time>2017-6-21T12:34:4Z</time></trkpt>
<trkpt lat="46.17928" lon="7.0283"><ele></ele><time>2017-6-21T12:34:7Z</time></trkpt>
<trkpt lat="46.17932" lon="7.02834"><ele></ele><time>2017-6-21T12:34:10Z</time></trkpt>
<trkpt lat="46.17936" lon="7.02837"><ele></ele><time>2017-6-21T12:34:13Z</time></trkpt>
<trkpt lat="46.17946" lon="7.02844"><ele></ele><time>2017-6-21T12:34:16Z</time></trkpt>
<trkpt lat="46.17951" lon="7.02848"><ele></ele><time>2017-6-21T12:34:19Z</time></trkpt>
<trkpt lat="46.17956" lon="7.02851"><ele></ele><time>2017-6-21T12:34:22Z</time></trkpt>
<trkpt lat="46.17966" lon="7.02858"><ele></ele><time>2017-6-21T12:34:25Z</time></trkpt>
<trkpt lat="46.17976" lon="7.02866"><ele></ele><time>2017-6-21T12:34:28Z</time></trkpt>
<trkpt lat="46.17986" lon="7.02876"><ele></ele><time>2017-6-21T12:34:31Z</time></trkpt>
<trkpt lat="46.17997" lon="7.02886"><ele></ele><time>2017-6-21T12:34:34Z</time></trkpt>
<trkpt lat="46.18008" lon="7.02896"><ele></ele><time>2017-6-21T12:34:37Z</time></trkpt>
<trkpt lat="46.18013" lon="7.02901"><ele></ele><time>2017-6-21T12:34:40Z</time></trkpt>
<trkpt lat="46.1802" lon="7.02909"><ele></ele><time>2017-6-21T12:34:43Z</time></trkpt>
<trkpt lat="46.18026" lon="7.02913"><ele></ele><time>2017-6-21T12:34:46Z</time></trkpt>
<trkpt lat="46.18032" lon="7.02914"><ele></ele><time>2017-6-21T12:34:49Z</time></trkpt>
<trkpt lat="46.18034" lon="7.02911"><ele></ele><time>2017-6-21T12:34:52Z</time></trkpt>
<trkpt lat="46.18032" lon="7.02905"><ele></ele><time>2017-6-21T12:34:55Z</time></trkpt>
<trkpt lat="46.18041" lon="7.02899"><ele></ele><time>2017-6-21T12:34:58Z</time></trkpt>
<trkpt lat="46.18045" lon="7.02898"><ele></ele><time>2017-6-21T12:35:1Z</time></trkpt>
<trkpt lat="46.18048" lon="7.02899"><ele></ele><time>2017-6-21T12:35:4Z</time></trkpt>
<trkpt lat="46.18053" lon="7.02901"><ele></ele><time>2017-6-21T12:35:7Z</time></trkpt>
<trkpt lat="46.18058" lon="7.02903"><ele></ele><time>2017-6-21T12:35:10Z</time></trkpt>
<trkpt lat="46.18064" lon="7.02905"><ele></ele><time>2017-6-21T12:35:13Z</time></trkpt>
<trkpt lat="46.18066" lon="7.02906"><ele></ele><time>2017-6-21T12:35:16Z</time></trkpt>
<trkpt lat="46.18069" lon="7.02907"><ele></ele><time>2017-6-21T12:35:19Z</time></trkpt>
<trkpt lat="46.18074" lon="7.02909"><ele></ele><time>2017-6-21T12:35:22Z</time></trkpt>
<trkpt lat="46.1808" lon="7.02911"><ele></ele><time>2017-6-21T12:35:25Z</time></trkpt>
<trkpt lat="46.18085" lon="7.02913"><ele></ele><time>2017-6-21T12:35:28Z</time></trkpt>
<trkpt lat="46.18091" lon="7.02915"><ele></ele><time>2017-6-21T12:35:31Z</time></trkpt>
<trkpt lat="46.18097" lon="7.02916"><ele></ele><time>2017-6-21T12:35:34Z</time></trkpt>
<trkpt lat="46.18102" lon="7.02918"><ele></ele><time>2017-6-21T12:35:37Z</time></trkpt>
<trkpt lat="46.18108" lon="7.0292"><ele></ele><time>2017-6-21T12:35:40Z</time></trkpt>
<trkpt lat="46.18114" lon="7.02922"><ele></ele><time>2017-6-21T12:35:43Z</time></trkpt>
<trkpt lat="46.1812" lon="7.02924"><ele></ele><time>2017-6-21T12:35:46Z</time></trkpt>
<trkpt lat="46.18126" lon="7.02926"><ele></ele><time>2017-6-21T12:35:49Z</time></trkpt>
<trkpt lat="46.18132" lon="7.02927"><ele></ele><time>2017-6-21T12:35:52Z</time></trkpt>
<trkpt lat="46.18135" lon="7.02928"><ele></ele><time>2017-6-21T12:35:55Z</time></trkpt>
<trkpt lat="46.18139" lon="7.02929"><ele></ele><time>2017-6-21T12:35:58Z</time></trkpt>
<trkpt lat="46.18146" lon="7.02931"><ele></ele><time>2017-6-21T12:36:1Z</time></trkpt>
<trkpt lat="46.18152" lon="7.02932"><ele></ele><time>2017-6-21T12:36:4Z</time></trkpt>
<trkpt lat="46.18159" lon="7.02934"><ele></ele><time>2017-6-21T12:36:7Z</time></trkpt>
<trkpt lat="46.18166" lon="7.02935"><ele></ele><time>2017-6-21T12:36:10Z</time></trkpt>
<trkpt lat="46.18173" lon="7.02937"><ele></ele><time>2017-6-21T12:36:13Z</time></trkpt>
<trkpt lat="46.1818" lon="7.02939"><ele></ele><time>2017-6-21T12:36:16Z</time></trkpt>
<trkpt lat="46.18183" lon="7.02939"><ele></ele><time>2017-6-21T12:36:19Z</time></trkpt>
<trkpt lat="46.18189" lon="7.02939"><ele></ele><time>2017-6-21T12:36:22Z</time></trkpt>
<trkpt lat="46.18192" lon="7.02939"><ele></ele><time>2017-6-21T12:36:25Z</time></trkpt>
<trkpt lat="46.18199" lon="7.02939"><ele></ele><time>2017-6-21T12:36:28Z</time></trkpt>
<trkpt lat="46.18205" lon="7.02939"><ele></ele><time>2017-6-21T12:36:31Z</time></trkpt>
<trkpt lat="46.18211" lon="7.02939"><ele></ele><time>2017-6-21T12:36:34Z</time></trkpt>
<trkpt lat="46.18217" lon="7.02939"><ele></ele><time>2017-6-21T12:36:37Z</time></trkpt>
<trkpt lat="46.18224" lon="7.02939"><ele></ele><time>2017-6-21T12:36:40Z</time></trkpt>
<trkpt lat="46.1823" lon="7.02939"><ele></ele><time>2017-6-21T12:36:43Z</time></trkpt>
<trkpt lat="46.18236" lon="7.02939"><ele></ele><time>2017-6-21T12:36:46Z</time></trkpt>
<trkpt lat="46.18243" lon="7.02939"><ele></ele><time>2017-6-21T12:36:49Z</time></trkpt>
<trkpt lat="46.18249" lon="7.02939"><ele></ele><time>2017-6-21T12:36:52Z</time></trkpt>
<trkpt lat="46.18256" lon="7.02939"><ele></ele><time>2017-6-21T12:36:55Z</time></trkpt>
<trkpt lat="46.18263" lon="7.02939"><ele></ele><time>2017-6-21T12:36:58Z</time></trkpt>
<trkpt lat="46.18269" lon="7.02939"><ele></ele><time>2017-6-21T12:37:1Z</time></trkpt>
<trkpt lat="46.18276" lon="7.02939"><ele></ele><time>2017-6-21T12:37:4Z</time></trkpt>
<trkpt lat="46.18283" lon="7.02938"><ele></ele><time>2017-6-21T12:37:7Z</time></trkpt>
<trkpt lat="46.1829" lon="7.02937"><ele></ele><time>2017-6-21T12:37:10Z</time></trkpt>
<trkpt lat="46.18297" lon="7.02936"><ele></ele><time>2017-6-21T12:37:13Z</time></trkpt>
<trkpt lat="46.18304" lon="7.02936"><ele></ele><time>2017-6-21T12:37:16Z</time></trkpt>
<trkpt lat="46.1831" lon="7.02935"><ele></ele><time>2017-6-21T12:37:19Z</time></trkpt>
<trkpt lat="46.18314" lon="7.02934"><ele></ele><time>2017-6-21T12:37:22Z</time></trkpt>
<trkpt lat="46.18317" lon="7.02934"><ele></ele><time>2017-6-21T12:37:25Z</time></trkpt>
<trkpt lat="46.18321" lon="7.02933"><ele></ele><time>2017-6-21T12:37:28Z</time></trkpt>
<trkpt lat="46.18324" lon="7.02932"><ele></ele><time>2017-6-21T12:37:31Z</time></trkpt>
<trkpt lat="46.18331" lon="7.0293"><ele></ele><time>2017-6-21T12:37:34Z</time></trkpt>
<trkpt lat="46.18344" lon="7.02926"><ele></ele><time>2017-6-21T12:37:37Z</time></trkpt>
<trkpt lat="46.1835" lon="7.02924"><ele></ele><time>2017-6-21T12:37:40Z</time></trkpt>
<trkpt lat="46.18357" lon="7.02922"><ele></ele><time>2017-6-21T12:37:43Z</time></trkpt>
<trkpt lat="46.18363" lon="7.0292"><ele></ele><time>2017-6-21T12:37:46Z</time></trkpt>
<trkpt lat="46.18367" lon="7.02919"><ele></ele><time>2017-6-21T12:37:49Z</time></trkpt>
<trkpt lat="46.1837" lon="7.02918"><ele></ele><time>2017-6-21T12:37:52Z</time></trkpt>
<trkpt lat="46.18378" lon="7.02915"><ele></ele><time>2017-6-21T12:37:55Z</time></trkpt>
<trkpt lat="46.18385" lon="7.02912"><ele></ele><time>2017-6-21T12:37:58Z</time></trkpt>
<trkpt lat="46.18392" lon="7.0291"><ele></ele><time>2017-6-21T12:38:1Z</time></trkpt>
<trkpt lat="46.184" lon="7.02907"><ele></ele><time>2017-6-21T12:38:4Z</time></trkpt>
<trkpt lat="46.18407" lon="7.02904"><ele></ele><time>2017-6-21T12:38:7Z</time></trkpt>
<trkpt lat="46.18411" lon="7.02902"><ele></ele><time>2017-6-21T12:38:10Z</time></trkpt>
<trkpt lat="46.18414" lon="7.02901"><ele></ele><time>2017-6-21T12:38:13Z</time></trkpt>
<trkpt lat="46.18421" lon="7.02897"><ele></ele><time>2017-6-21T12:38:16Z</time></trkpt>
<trkpt lat="46.18428" lon="7.02894"><ele></ele><time>2017-6-21T12:38:19Z</time></trkpt>
<trkpt lat="46.18435" lon="7.0289"><ele></ele><time>2017-6-21T12:38:22Z</time></trkpt>
<trkpt lat="46.18442" lon="7.02887"><ele></ele><time>2017-6-21T12:38:25Z</time></trkpt>
<trkpt lat="46.18446" lon="7.02885"><ele></ele><time>2017-6-21T12:38:28Z</time></trkpt>
<trkpt lat="46.18449" lon="7.02883"><ele></ele><time>2017-6-21T12:38:31Z</time></trkpt>
<trkpt lat="46.18456" lon="7.0288"><ele></ele><time>2017-6-21T12:38:34Z</time></trkpt>
<trkpt lat="46.18464" lon="7.02876"><ele></ele><time>2017-6-21T12:38:37Z</time></trkpt>
<trkpt lat="46.18472" lon="7.02872"><ele></ele><time>2017-6-21T12:38:40Z</time></trkpt>
<trkpt lat="46.1848" lon="7.02868"><ele></ele><time>2017-6-21T12:38:43Z</time></trkpt>
<trkpt lat="46.18488" lon="7.02865"><ele></ele><time>2017-6-21T12:38:46Z</time></trkpt>
<trkpt lat="46.18495" lon="7.02861"><ele></ele><time>2017-6-21T12:38:49Z</time></trkpt>
<trkpt lat="46.18499" lon="7.02859"><ele></ele><time>2017-6-21T12:38:52Z</time></trkpt>
<trkpt lat="46.18503" lon="7.02857"><ele></ele><time>2017-6-21T12:38:55Z</time></trkpt>
<trkpt lat="46.18511" lon="7.02854"><ele></ele><time>2017-6-21T12:38:58Z</time></trkpt>
<trkpt lat="46.18519" lon="7.0285"><ele></ele><time>2017-6-21T12:39:1Z</time></trkpt>
<trkpt lat="46.18527" lon="7.02846"><ele></ele><time>2017-6-21T12:39:4Z</time></trkpt>
<trkpt lat="46.18534" lon="7.02843"><ele></ele><time>2017-6-21T12:39:7Z</time></trkpt>
<trkpt lat="46.18542" lon="7.02839"><ele></ele><time>2017-6-21T12:39:10Z</time></trkpt>
<trkpt lat="46.1855" lon="7.02835"><ele></ele><time>2017-6-21T12:39:13Z</time></trkpt>
<trkpt lat="46.18558" lon="7.02831"><ele></ele><time>2017-6-21T12:39:16Z</time></trkpt>
<trkpt lat="46.18565" lon="7.02826"><ele></ele><time>2017-6-21T12:39:19Z</time></trkpt>
<trkpt lat="46.18573" lon="7.02822"><ele></ele><time>2017-6-21T12:39:22Z</time></trkpt>
<trkpt lat="46.18581" lon="7.02818"><ele></ele><time>2017-6-21T12:39:25Z</time></trkpt>
<trkpt lat="46.18585" lon="7.02816"><ele></ele><time>2017-6-21T12:39:28Z</time></trkpt>
<trkpt lat="46.1859" lon="7.02815"><ele></ele><time>2017-6-21T12:39:31Z</time></trkpt>
<trkpt lat="46.18599" lon="7.02812"><ele></ele><time>2017-6-21T12:39:34Z</time></trkpt>
<trkpt lat="46.18609" lon="7.02809"><ele></ele><time>2017-6-21T12:39:37Z</time></trkpt>
<trkpt lat="46.18623" lon="7.02804"><ele></ele><time>2017-6-21T12:39:40Z</time></trkpt>
<trkpt lat="46.18627" lon="7.02802"><ele></ele><time>2017-6-21T12:39:43Z</time></trkpt>
<trkpt lat="46.18632" lon="7.02801"><ele></ele><time>2017-6-21T12:39:46Z</time></trkpt>
<trkpt lat="46.18637" lon="7.028"><ele></ele><time>2017-6-21T12:39:49Z</time></trkpt>
<trkpt lat="46.18646" lon="7.02798"><ele></ele><time>2017-6-21T12:39:52Z</time></trkpt>
<trkpt lat="46.18655" lon="7.02796"><ele></ele><time>2017-6-21T12:39:55Z</time></trkpt>
<trkpt lat="46.18664" lon="7.02793"><ele></ele><time>2017-6-21T12:39:58Z</time></trkpt>
<trkpt lat="46.18673" lon="7.02791"><ele></ele><time>2017-6-21T12:40:1Z</time></trkpt>
<trkpt lat="46.18677" lon="7.02791"><ele></ele><time>2017-6-21T12:40:4Z</time></trkpt>
<trkpt lat="46.1868" lon="7.02789"><ele></ele><time>2017-6-21T12:40:7Z</time></trkpt>
<trkpt lat="46.1868" lon="7.02789"><ele></ele><time>2017-6-21T12:40:10Z</time></trkpt>
<trkpt lat="46.18683" lon="7.02785"><ele></ele><time>2017-6-21T12:40:13Z</time></trkpt>
<trkpt lat="46.18692" lon="7.02782"><ele></ele><time>2017-6-21T12:40:16Z</time></trkpt>
<trkpt lat="46.18701" lon="7.02779"><ele></ele><time>2017-6-21T12:40:19Z</time></trkpt>
<trkpt lat="46.1871" lon="7.02777"><ele></ele><time>2017-6-21T12:40:22Z</time></trkpt>
<trkpt lat="46.18719" lon="7.02774"><ele></ele><time>2017-6-21T12:40:25Z</time></trkpt>
<trkpt lat="46.18729" lon="7.02771"><ele></ele><time>2017-6-21T12:40:28Z</time></trkpt>
<trkpt lat="46.18739" lon="7.02768"><ele></ele><time>2017-6-21T12:40:31Z</time></trkpt>
<trkpt lat="46.18748" lon="7.02765"><ele></ele><time>2017-6-21T12:40:34Z</time></trkpt>
<trkpt lat="46.18758" lon="7.02762"><ele></ele><time>2017-6-21T12:40:37Z</time></trkpt>
<trkpt lat="46.18768" lon="7.02759"><ele></ele><time>2017-6-21T12:40:40Z</time></trkpt>
<trkpt lat="46.18778" lon="7.02754"><ele></ele><time>2017-6-21T12:40:43Z</time></trkpt>
<trkpt lat="46.18789" lon="7.0275"><ele></ele><time>2017-6-21T12:40:46Z</time></trkpt>
<trkpt lat="46.18799" lon="7.02745"><ele></ele><time>2017-6-21T12:40:49Z</time></trkpt>
<trkpt lat="46.18809" lon="7.02741"><ele></ele><time>2017-6-21T12:40:52Z</time></trkpt>
<trkpt lat="46.18814" lon="7.02738"><ele></ele><time>2017-6-21T12:40:55Z</time></trkpt>
<trkpt lat="46.18819" lon="7.02735"><ele></ele><time>2017-6-21T12:40:58Z</time></trkpt>
<trkpt lat="46.18828" lon="7.02728"><ele></ele><time>2017-6-21T12:41:1Z</time></trkpt>
<trkpt lat="46.18838" lon="7.02721"><ele></ele><time>2017-6-21T12:41:4Z</time></trkpt>
<trkpt lat="46.18847" lon="7.02714"><ele></ele><time>2017-6-21T12:41:7Z</time></trkpt>
<trkpt lat="46.18857" lon="7.02708"><ele></ele><time>2017-6-21T12:41:10Z</time></trkpt>
<trkpt lat="46.1887" lon="7.02697"><ele></ele><time>2017-6-21T12:41:13Z</time></trkpt>
<trkpt lat="46.18875" lon="7.02694"><ele></ele><time>2017-6-21T12:41:16Z</time></trkpt>
<trkpt lat="46.18884" lon="7.02687"><ele></ele><time>2017-6-21T12:41:19Z</time></trkpt>
<trkpt lat="46.18893" lon="7.0268"><ele></ele><time>2017-6-21T12:41:22Z</time></trkpt>
<trkpt lat="46.18897" lon="7.02677"><ele></ele><time>2017-6-21T12:41:25Z</time></trkpt>
<trkpt lat="46.18901" lon="7.02673"><ele></ele><time>2017-6-21T12:41:28Z</time></trkpt>
<trkpt lat="46.18909" lon="7.02665"><ele></ele><time>2017-6-21T12:41:31Z</time></trkpt>
<trkpt lat="46.18917" lon="7.02658"><ele></ele><time>2017-6-21T12:41:34Z</time></trkpt>
<trkpt lat="46.18925" lon="7.0265"><ele></ele><time>2017-6-21T12:41:37Z</time></trkpt>
<trkpt lat="46.18933" lon="7.02642"><ele></ele><time>2017-6-21T12:41:40Z</time></trkpt>
<trkpt lat="46.18936" lon="7.02638"><ele></ele><time>2017-6-21T12:41:43Z</time></trkpt>
<trkpt lat="46.1894" lon="7.02635"><ele></ele><time>2017-6-21T12:41:46Z</time></trkpt>
<trkpt lat="46.18947" lon="7.02628"><ele></ele><time>2017-6-21T12:41:49Z</time></trkpt>
<trkpt lat="46.18954" lon="7.02621"><ele></ele><time>2017-6-21T12:41:52Z</time></trkpt>
<trkpt lat="46.18962" lon="7.02614"><ele></ele><time>2017-6-21T12:41:55Z</time></trkpt>
<trkpt lat="46.18972" lon="7.02604"><ele></ele><time>2017-6-21T12:41:58Z</time></trkpt>
<trkpt lat="46.18976" lon="7.026"><ele></ele><time>2017-6-21T12:42:1Z</time></trkpt>
<trkpt lat="46.1898" lon="7.02597"><ele></ele><time>2017-6-21T12:42:4Z</time></trkpt>
<trkpt lat="46.18987" lon="7.0259"><ele></ele><time>2017-6-21T12:42:7Z</time></trkpt>
<trkpt lat="46.18991" lon="7.02587"><ele></ele><time>2017-6-21T12:42:10Z</time></trkpt>
<trkpt lat="46.18998" lon="7.02581"><ele></ele><time>2017-6-21T12:42:13Z</time></trkpt>
<trkpt lat="46.19005" lon="7.02574"><ele></ele><time>2017-6-21T12:42:16Z</time></trkpt>
<trkpt lat="46.19013" lon="7.02568"><ele></ele><time>2017-6-21T12:42:19Z</time></trkpt>
<trkpt lat="46.19017" lon="7.02564"><ele></ele><time>2017-6-21T12:42:22Z</time></trkpt>
<trkpt lat="46.1902" lon="7.02562"><ele></ele><time>2017-6-21T12:42:25Z</time></trkpt>
<trkpt lat="46.19028" lon="7.02556"><ele></ele><time>2017-6-21T12:42:28Z</time></trkpt>
<trkpt lat="46.19036" lon="7.02551"><ele></ele><time>2017-6-21T12:42:31Z</time></trkpt>
<trkpt lat="46.19044" lon="7.02546"><ele></ele><time>2017-6-21T12:42:34Z</time></trkpt>
<trkpt lat="46.19052" lon="7.0254"><ele></ele><time>2017-6-21T12:42:37Z</time></trkpt>
<trkpt lat="46.1906" lon="7.02535"><ele></ele><time>2017-6-21T12:42:40Z</time></trkpt>
<trkpt lat="46.19066" lon="7.02531"><ele></ele><time>2017-6-21T12:42:43Z</time></trkpt>
<trkpt lat="46.19073" lon="7.02527"><ele></ele><time>2017-6-21T12:42:46Z</time></trkpt>
<trkpt lat="46.19079" lon="7.02523"><ele></ele><time>2017-6-21T12:42:49Z</time></trkpt>
<trkpt lat="46.19086" lon="7.02519"><ele></ele><time>2017-6-21T12:42:52Z</time></trkpt>
<trkpt lat="46.19093" lon="7.02515"><ele></ele><time>2017-6-21T12:42:55Z</time></trkpt>
<trkpt lat="46.19099" lon="7.02511"><ele></ele><time>2017-6-21T12:42:58Z</time></trkpt>
<trkpt lat="46.19103" lon="7.02509"><ele></ele><time>2017-6-21T12:43:1Z</time></trkpt>
<trkpt lat="46.19113" lon="7.02504"><ele></ele><time>2017-6-21T12:43:4Z</time></trkpt>
<trkpt lat="46.19123" lon="7.02499"><ele></ele><time>2017-6-21T12:43:7Z</time></trkpt>
<trkpt lat="46.19128" lon="7.02496"><ele></ele><time>2017-6-21T12:43:10Z</time></trkpt>
<trkpt lat="46.19138" lon="7.02491"><ele></ele><time>2017-6-21T12:43:13Z</time></trkpt>
<trkpt lat="46.19149" lon="7.02486"><ele></ele><time>2017-6-21T12:43:16Z</time></trkpt>
<trkpt lat="46.1916" lon="7.02481"><ele></ele><time>2017-6-21T12:43:19Z</time></trkpt>
<trkpt lat="46.19172" lon="7.02475"><ele></ele><time>2017-6-21T12:43:22Z</time></trkpt>
<trkpt lat="46.19183" lon="7.0247"><ele></ele><time>2017-6-21T12:43:25Z</time></trkpt>
<trkpt lat="46.19195" lon="7.02464"><ele></ele><time>2017-6-21T12:43:28Z</time></trkpt>
<trkpt lat="46.19206" lon="7.02458"><ele></ele><time>2017-6-21T12:43:31Z</time></trkpt>
<trkpt lat="46.19218" lon="7.02452"><ele></ele><time>2017-6-21T12:43:34Z</time></trkpt>
<trkpt lat="46.19229" lon="7.02446"><ele></ele><time>2017-6-21T12:43:37Z</time></trkpt>
<trkpt lat="46.19241" lon="7.0244"><ele></ele><time>2017-6-21T12:43:40Z</time></trkpt>
<trkpt lat="46.19251" lon="7.02434"><ele></ele><time>2017-6-21T12:43:43Z</time></trkpt>
<trkpt lat="46.19262" lon="7.02428"><ele></ele><time>2017-6-21T12:43:46Z</time></trkpt>
<trkpt lat="46.19277" lon="7.02419"><ele></ele><time>2017-6-21T12:43:49Z</time></trkpt>
<trkpt lat="46.19283" lon="7.02416"><ele></ele><time>2017-6-21T12:43:52Z</time></trkpt>
<trkpt lat="46.19294" lon="7.0241"><ele></ele><time>2017-6-21T12:43:55Z</time></trkpt>
<trkpt lat="46.19305" lon="7.02404"><ele></ele><time>2017-6-21T12:43:58Z</time></trkpt>
<trkpt lat="46.19316" lon="7.02398"><ele></ele><time>2017-6-21T12:44:1Z</time></trkpt>
<trkpt lat="46.19327" lon="7.02392"><ele></ele><time>2017-6-21T12:44:4Z</time></trkpt>
<trkpt lat="46.19338" lon="7.02386"><ele></ele><time>2017-6-21T12:44:7Z</time></trkpt>
<trkpt lat="46.19349" lon="7.02381"><ele></ele><time>2017-6-21T12:44:10Z</time></trkpt>
<trkpt lat="46.1936" lon="7.02375"><ele></ele><time>2017-6-21T12:44:13Z</time></trkpt>
<trkpt lat="46.19371" lon="7.02369"><ele></ele><time>2017-6-21T12:44:16Z</time></trkpt>
<trkpt lat="46.19388" lon="7.02357"><ele></ele><time>2017-6-21T12:44:19Z</time></trkpt>
<trkpt lat="46.19394" lon="7.02353"><ele></ele><time>2017-6-21T12:44:22Z</time></trkpt>
<trkpt lat="46.19405" lon="7.02346"><ele></ele><time>2017-6-21T12:44:25Z</time></trkpt>
<trkpt lat="46.19417" lon="7.02337"><ele></ele><time>2017-6-21T12:44:28Z</time></trkpt>
<trkpt lat="46.19429" lon="7.02328"><ele></ele><time>2017-6-21T12:44:31Z</time></trkpt>
<trkpt lat="46.1944" lon="7.02318"><ele></ele><time>2017-6-21T12:44:34Z</time></trkpt>
<trkpt lat="46.19452" lon="7.02308"><ele></ele><time>2017-6-21T12:44:37Z</time></trkpt>
<trkpt lat="46.19458" lon="7.02303"><ele></ele><time>2017-6-21T12:44:40Z</time></trkpt>
<trkpt lat="46.19464" lon="7.02298"><ele></ele><time>2017-6-21T12:44:43Z</time></trkpt>
<trkpt lat="46.19475" lon="7.02287"><ele></ele><time>2017-6-21T12:44:46Z</time></trkpt>
<trkpt lat="46.19487" lon="7.02276"><ele></ele><time>2017-6-21T12:44:49Z</time></trkpt>
<trkpt lat="46.19492" lon="7.0227"><ele></ele><time>2017-6-21T12:44:52Z</time></trkpt>
<trkpt lat="46.19497" lon="7.02263"><ele></ele><time>2017-6-21T12:44:55Z</time></trkpt>
<trkpt lat="46.19508" lon="7.02249"><ele></ele><time>2017-6-21T12:44:58Z</time></trkpt>
<trkpt lat="46.19518" lon="7.02235"><ele></ele><time>2017-6-21T12:45:1Z</time></trkpt>
<trkpt lat="46.19529" lon="7.02222"><ele></ele><time>2017-6-21T12:45:4Z</time></trkpt>
<trkpt lat="46.19541" lon="7.02211"><ele></ele><time>2017-6-21T12:45:7Z</time></trkpt>
<trkpt lat="46.19547" lon="7.02206"><ele></ele><time>2017-6-21T12:45:10Z</time></trkpt>
<trkpt lat="46.19553" lon="7.022"><ele></ele><time>2017-6-21T12:45:13Z</time></trkpt>
<trkpt lat="46.19565" lon="7.0219"><ele></ele><time>2017-6-21T12:45:16Z</time></trkpt>
<trkpt lat="46.19571" lon="7.02184"><ele></ele><time>2017-6-21T12:45:19Z</time></trkpt>
<trkpt lat="46.19576" lon="7.02179"><ele></ele><time>2017-6-21T12:45:22Z</time></trkpt>
<trkpt lat="46.19588" lon="7.02171"><ele></ele><time>2017-6-21T12:45:25Z</time></trkpt>
<trkpt lat="46.19595" lon="7.02169"><ele></ele><time>2017-6-21T12:45:28Z</time></trkpt>
<trkpt lat="46.196" lon="7.02164"><ele></ele><time>2017-6-21T12:45:31Z</time></trkpt>
<trkpt lat="46.19611" lon="7.02155"><ele></ele><time>2017-6-21T12:45:34Z</time></trkpt>
<trkpt lat="46.19621" lon="7.02146"><ele></ele><time>2017-6-21T12:45:37Z</time></trkpt>
<trkpt lat="46.19631" lon="7.02137"><ele></ele><time>2017-6-21T12:45:40Z</time></trkpt>
<trkpt lat="46.19637" lon="7.02132"><ele></ele><time>2017-6-21T12:45:43Z</time></trkpt>
<trkpt lat="46.19644" lon="7.02127"><ele></ele><time>2017-6-21T12:45:46Z</time></trkpt>
<trkpt lat="46.19657" lon="7.02116"><ele></ele><time>2017-6-21T12:45:49Z</time></trkpt>
<trkpt lat="46.19672" lon="7.02106"><ele></ele><time>2017-6-21T12:45:52Z</time></trkpt>
<trkpt lat="46.19679" lon="7.02101"><ele></ele><time>2017-6-21T12:45:55Z</time></trkpt>
<trkpt lat="46.19686" lon="7.02095"><ele></ele><time>2017-6-21T12:45:58Z</time></trkpt>
<trkpt lat="46.19692" lon="7.02089"><ele></ele><time>2017-6-21T12:46:1Z</time></trkpt>
<trkpt lat="46.19698" lon="7.02083"><ele></ele><time>2017-6-21T12:46:4Z</time></trkpt>
<trkpt lat="46.19711" lon="7.02071"><ele></ele><time>2017-6-21T12:46:7Z</time></trkpt>
<trkpt lat="46.19717" lon="7.02065"><ele></ele><time>2017-6-21T12:46:10Z</time></trkpt>
<trkpt lat="46.19724" lon="7.02059"><ele></ele><time>2017-6-21T12:46:13Z</time></trkpt>
<trkpt lat="46.19738" lon="7.02047"><ele></ele><time>2017-6-21T12:46:16Z</time></trkpt>
<trkpt lat="46.19752" lon="7.02035"><ele></ele><time>2017-6-21T12:46:19Z</time></trkpt>
<trkpt lat="46.19759" lon="7.02029"><ele></ele><time>2017-6-21T12:46:22Z</time></trkpt>
<trkpt lat="46.19765" lon="7.02023"><ele></ele><time>2017-6-21T12:46:25Z</time></trkpt>
<trkpt lat="46.1979" lon="7.01999"><ele></ele><time>2017-6-21T12:46:28Z</time></trkpt>
<trkpt lat="46.19797" lon="7.01992"><ele></ele><time>2017-6-21T12:46:31Z</time></trkpt>
<trkpt lat="46.19804" lon="7.01984"><ele></ele><time>2017-6-21T12:46:34Z</time></trkpt>
<trkpt lat="46.19819" lon="7.01969"><ele></ele><time>2017-6-21T12:46:37Z</time></trkpt>
<trkpt lat="46.19834" lon="7.01954"><ele></ele><time>2017-6-21T12:46:40Z</time></trkpt>
<trkpt lat="46.19849" lon="7.01938"><ele></ele><time>2017-6-21T12:46:43Z</time></trkpt>
<trkpt lat="46.19865" lon="7.01922"><ele></ele><time>2017-6-21T12:46:46Z</time></trkpt>
<trkpt lat="46.19873" lon="7.01914"><ele></ele><time>2017-6-21T12:46:49Z</time></trkpt>
<trkpt lat="46.19881" lon="7.01906"><ele></ele><time>2017-6-21T12:46:52Z</time></trkpt>
<trkpt lat="46.1989" lon="7.01898"><ele></ele><time>2017-6-21T12:46:55Z</time></trkpt>
<trkpt lat="46.199" lon="7.01892"><ele></ele><time>2017-6-21T12:46:58Z</time></trkpt>
<trkpt lat="46.1991" lon="7.01886"><ele></ele><time>2017-6-21T12:47:1Z</time></trkpt>
<trkpt lat="46.19918" lon="7.01877"><ele></ele><time>2017-6-21T12:47:4Z</time></trkpt>
<trkpt lat="46.19932" lon="7.01857"><ele></ele><time>2017-6-21T12:47:7Z</time></trkpt>
<trkpt lat="46.19937" lon="7.01844"><ele></ele><time>2017-6-21T12:47:10Z</time></trkpt>
<trkpt lat="46.19941" lon="7.01832"><ele></ele><time>2017-6-21T12:47:13Z</time></trkpt>
<trkpt lat="46.19948" lon="7.01806"><ele></ele><time>2017-6-21T12:47:16Z</time></trkpt>
<trkpt lat="46.19953" lon="7.01782"><ele></ele><time>2017-6-21T12:47:19Z</time></trkpt>
<trkpt lat="46.19958" lon="7.01758"><ele></ele><time>2017-6-21T12:47:22Z</time></trkpt>
<trkpt lat="46.19962" lon="7.01734"><ele></ele><time>2017-6-21T12:47:25Z</time></trkpt>
<trkpt lat="46.19968" lon="7.0171"><ele></ele><time>2017-6-21T12:47:28Z</time></trkpt>
<trkpt lat="46.19973" lon="7.01686"><ele></ele><time>2017-6-21T12:47:31Z</time></trkpt>
<trkpt lat="46.19978" lon="7.01662"><ele></ele><time>2017-6-21T12:47:34Z</time></trkpt>
<trkpt lat="46.19983" lon="7.01637"><ele></ele><time>2017-6-21T12:47:37Z</time></trkpt>
<trkpt lat="46.19989" lon="7.01613"><ele></ele><time>2017-6-21T12:47:40Z</time></trkpt>
<trkpt lat="46.1999" lon="7.01602"><ele></ele><time>2017-6-21T12:47:43Z</time></trkpt>
<trkpt lat="46.19991" lon="7.0159"><ele></ele><time>2017-6-21T12:47:46Z</time></trkpt>
<trkpt lat="46.19991" lon="7.01579"><ele></ele><time>2017-6-21T12:47:49Z</time></trkpt>
<trkpt lat="46.19993" lon="7.01567"><ele></ele><time>2017-6-21T12:47:52Z</time></trkpt>
<trkpt lat="46.20003" lon="7.01543"><ele></ele><time>2017-6-21T12:47:55Z</time></trkpt>
<trkpt lat="46.20008" lon="7.01518"><ele></ele><time>2017-6-21T12:47:58Z</time></trkpt>
<trkpt lat="46.20016" lon="7.01496"><ele></ele><time>2017-6-21T12:48:1Z</time></trkpt>
<trkpt lat="46.20023" lon="7.01475"><ele></ele><time>2017-6-21T12:48:4Z</time></trkpt>
<trkpt lat="46.20031" lon="7.01453"><ele></ele><time>2017-6-21T12:48:7Z</time></trkpt>
<trkpt lat="46.20038" lon="7.0143"><ele></ele><time>2017-6-21T12:48:10Z</time></trkpt>
<trkpt lat="46.20046" lon="7.01408"><ele></ele><time>2017-6-21T12:48:13Z</time></trkpt>
<trkpt lat="46.20054" lon="7.01386"><ele></ele><time>2017-6-21T12:48:16Z</time></trkpt>
<trkpt lat="46.20062" lon="7.01365"><ele></ele><time>2017-6-21T12:48:19Z</time></trkpt>
<trkpt lat="46.20071" lon="7.01343"><ele></ele><time>2017-6-21T12:48:22Z</time></trkpt>
<trkpt lat="46.20075" lon="7.01333"><ele></ele><time>2017-6-21T12:48:25Z</time></trkpt>
<trkpt lat="46.2008" lon="7.01322"><ele></ele><time>2017-6-21T12:48:28Z</time></trkpt>
<trkpt lat="46.20089" lon="7.01303"><ele></ele><time>2017-6-21T12:48:31Z</time></trkpt>
<trkpt lat="46.20099" lon="7.01284"><ele></ele><time>2017-6-21T12:48:34Z</time></trkpt>
<trkpt lat="46.20108" lon="7.01265"><ele></ele><time>2017-6-21T12:48:37Z</time></trkpt>
<trkpt lat="46.20118" lon="7.01245"><ele></ele><time>2017-6-21T12:48:40Z</time></trkpt>
<trkpt lat="46.20127" lon="7.01225"><ele></ele><time>2017-6-21T12:48:43Z</time></trkpt>
<trkpt lat="46.20137" lon="7.01206"><ele></ele><time>2017-6-21T12:48:46Z</time></trkpt>
<trkpt lat="46.20149" lon="7.01188"><ele></ele><time>2017-6-21T12:48:49Z</time></trkpt>
<trkpt lat="46.2016" lon="7.0117"><ele></ele><time>2017-6-21T12:48:52Z</time></trkpt>
<trkpt lat="46.2017" lon="7.01149"><ele></ele><time>2017-6-21T12:48:55Z</time></trkpt>
<trkpt lat="46.20181" lon="7.01129"><ele></ele><time>2017-6-21T12:48:58Z</time></trkpt>
<trkpt lat="46.20186" lon="7.01119"><ele></ele><time>2017-6-21T12:49:1Z</time></trkpt>
<trkpt lat="46.20193" lon="7.0111"><ele></ele><time>2017-6-21T12:49:4Z</time></trkpt>
<trkpt lat="46.20207" lon="7.01092"><ele></ele><time>2017-6-21T12:49:7Z</time></trkpt>
<trkpt lat="46.20221" lon="7.01074"><ele></ele><time>2017-6-21T12:49:10Z</time></trkpt>
<trkpt lat="46.20234" lon="7.01056"><ele></ele><time>2017-6-21T12:49:13Z</time></trkpt>
<trkpt lat="46.20247" lon="7.01037"><ele></ele><time>2017-6-21T12:49:16Z</time></trkpt>
<trkpt lat="46.20254" lon="7.01028"><ele></ele><time>2017-6-21T12:49:19Z</time></trkpt>
<trkpt lat="46.20261" lon="7.0102"><ele></ele><time>2017-6-21T12:49:22Z</time></trkpt>
<trkpt lat="46.20275" lon="7.01004"><ele></ele><time>2017-6-21T12:49:25Z</time></trkpt>
<trkpt lat="46.20291" lon="7.00989"><ele></ele><time>2017-6-21T12:49:28Z</time></trkpt>
<trkpt lat="46.203" lon="7.00984"><ele></ele><time>2017-6-21T12:49:31Z</time></trkpt>
<trkpt lat="46.20308" lon="7.00977"><ele></ele><time>2017-6-21T12:49:34Z</time></trkpt>
<trkpt lat="46.20324" lon="7.00967"><ele></ele><time>2017-6-21T12:49:37Z</time></trkpt>
<trkpt lat="46.20341" lon="7.00957"><ele></ele><time>2017-6-21T12:49:40Z</time></trkpt>
<trkpt lat="46.20349" lon="7.00952"><ele></ele><time>2017-6-21T12:49:43Z</time></trkpt>
<trkpt lat="46.20357" lon="7.00947"><ele></ele><time>2017-6-21T12:49:46Z</time></trkpt>
<trkpt lat="46.2037" lon="7.00936"><ele></ele><time>2017-6-21T12:49:49Z</time></trkpt>
<trkpt lat="46.20384" lon="7.00925"><ele></ele><time>2017-6-21T12:49:52Z</time></trkpt>
<trkpt lat="46.20391" lon="7.0092"><ele></ele><time>2017-6-21T12:49:55Z</time></trkpt>
<trkpt lat="46.20397" lon="7.00915"><ele></ele><time>2017-6-21T12:49:58Z</time></trkpt>
<trkpt lat="46.20408" lon="7.00905"><ele></ele><time>2017-6-21T12:50:1Z</time></trkpt>
<trkpt lat="46.2042" lon="7.00895"><ele></ele><time>2017-6-21T12:50:4Z</time></trkpt>
<trkpt lat="46.20431" lon="7.00885"><ele></ele><time>2017-6-21T12:50:7Z</time></trkpt>
<trkpt lat="46.20437" lon="7.0088"><ele></ele><time>2017-6-21T12:50:10Z</time></trkpt>
<trkpt lat="46.20442" lon="7.00876"><ele></ele><time>2017-6-21T12:50:13Z</time></trkpt>
<trkpt lat="46.20452" lon="7.00867"><ele></ele><time>2017-6-21T12:50:16Z</time></trkpt>
<trkpt lat="46.20462" lon="7.00857"><ele></ele><time>2017-6-21T12:50:19Z</time></trkpt>
<trkpt lat="46.20472" lon="7.00847"><ele></ele><time>2017-6-21T12:50:22Z</time></trkpt>
<trkpt lat="46.20482" lon="7.00838"><ele></ele><time>2017-6-21T12:50:25Z</time></trkpt>
<trkpt lat="46.20493" lon="7.0083"><ele></ele><time>2017-6-21T12:50:28Z</time></trkpt>
<trkpt lat="46.20505" lon="7.00822"><ele></ele><time>2017-6-21T12:50:31Z</time></trkpt>
<trkpt lat="46.20516" lon="7.00814"><ele></ele><time>2017-6-21T12:50:34Z</time></trkpt>
<trkpt lat="46.20521" lon="7.0081"><ele></ele><time>2017-6-21T12:50:37Z</time></trkpt>
<trkpt lat="46.20527" lon="7.00805"><ele></ele><time>2017-6-21T12:50:40Z</time></trkpt>
<trkpt lat="46.20538" lon="7.00797"><ele></ele><time>2017-6-21T12:50:43Z</time></trkpt>
<trkpt lat="46.2055" lon="7.00791"><ele></ele><time>2017-6-21T12:50:46Z</time></trkpt>
<trkpt lat="46.2056" lon="7.00783"><ele></ele><time>2017-6-21T12:50:49Z</time></trkpt>
<trkpt lat="46.2057" lon="7.00775"><ele></ele><time>2017-6-21T12:50:52Z</time></trkpt>
<trkpt lat="46.2058" lon="7.00767"><ele></ele><time>2017-6-21T12:50:55Z</time></trkpt>
<trkpt lat="46.20589" lon="7.00761"><ele></ele><time>2017-6-21T12:50:58Z</time></trkpt>
<trkpt lat="46.20601" lon="7.00752"><ele></ele><time>2017-6-21T12:51:1Z</time></trkpt>
<trkpt lat="46.20606" lon="7.0075"><ele></ele><time>2017-6-21T12:51:4Z</time></trkpt>
<trkpt lat="46.20614" lon="7.00744"><ele></ele><time>2017-6-21T12:51:7Z</time></trkpt>
<trkpt lat="46.20622" lon="7.00738"><ele></ele><time>2017-6-21T12:51:10Z</time></trkpt>
<trkpt lat="46.2063" lon="7.00732"><ele></ele><time>2017-6-21T12:51:13Z</time></trkpt>
<trkpt lat="46.20637" lon="7.00726"><ele></ele><time>2017-6-21T12:51:16Z</time></trkpt>
<trkpt lat="46.20641" lon="7.00723"><ele></ele><time>2017-6-21T12:51:19Z</time></trkpt>
<trkpt lat="46.20645" lon="7.00721"><ele></ele><time>2017-6-21T12:51:22Z</time></trkpt>
<trkpt lat="46.20653" lon="7.00717"><ele></ele><time>2017-6-21T12:51:25Z</time></trkpt>
<trkpt lat="46.20661" lon="7.00713"><ele></ele><time>2017-6-21T12:51:28Z</time></trkpt>
<trkpt lat="46.20669" lon="7.00709"><ele></ele><time>2017-6-21T12:51:31Z</time></trkpt>
<trkpt lat="46.20677" lon="7.00704"><ele></ele><time>2017-6-21T12:51:34Z</time></trkpt>
<trkpt lat="46.20681" lon="7.00702"><ele></ele><time>2017-6-21T12:51:37Z</time></trkpt>
<trkpt lat="46.20685" lon="7.007"><ele></ele><time>2017-6-21T12:51:40Z</time></trkpt>
<trkpt lat="46.20693" lon="7.00694"><ele></ele><time>2017-6-21T12:51:43Z</time></trkpt>
<trkpt lat="46.207" lon="7.00689"><ele></ele><time>2017-6-21T12:51:46Z</time></trkpt>
<trkpt lat="46.20708" lon="7.00683"><ele></ele><time>2017-6-21T12:51:49Z</time></trkpt>
<trkpt lat="46.20715" lon="7.00678"><ele></ele><time>2017-6-21T12:51:52Z</time></trkpt>
<trkpt lat="46.20723" lon="7.00672"><ele></ele><time>2017-6-21T12:51:55Z</time></trkpt>
<trkpt lat="46.20726" lon="7.00669"><ele></ele><time>2017-6-21T12:51:58Z</time></trkpt>
<trkpt lat="46.2073" lon="7.00665"><ele></ele><time>2017-6-21T12:52:1Z</time></trkpt>
<trkpt lat="46.20737" lon="7.00658"><ele></ele><time>2017-6-21T12:52:4Z</time></trkpt>
<trkpt lat="46.20745" lon="7.00651"><ele></ele><time>2017-6-21T12:52:7Z</time></trkpt>
<trkpt lat="46.20756" lon="7.0064"><ele></ele><time>2017-6-21T12:52:10Z</time></trkpt>
<trkpt lat="46.20759" lon="7.00636"><ele></ele><time>2017-6-21T12:52:13Z</time></trkpt>
<trkpt lat="46.20767" lon="7.00629"><ele></ele><time>2017-6-21T12:52:16Z</time></trkpt>
<trkpt lat="46.20774" lon="7.00622"><ele></ele><time>2017-6-21T12:52:19Z</time></trkpt>
<trkpt lat="46.20781" lon="7.00615"><ele></ele><time>2017-6-21T12:52:22Z</time></trkpt>
<trkpt lat="46.20785" lon="7.00611"><ele></ele><time>2017-6-21T12:52:25Z</time></trkpt>
<trkpt lat="46.20788" lon="7.00607"><ele></ele><time>2017-6-21T12:52:28Z</time></trkpt>
<trkpt lat="46.20795" lon="7.00599"><ele></ele><time>2017-6-21T12:52:31Z</time></trkpt>
<trkpt lat="46.20801" lon="7.00591"><ele></ele><time>2017-6-21T12:52:34Z</time></trkpt>
<trkpt lat="46.20808" lon="7.00584"><ele></ele><time>2017-6-21T12:52:37Z</time></trkpt>
<trkpt lat="46.20812" lon="7.00581"><ele></ele><time>2017-6-21T12:52:40Z</time></trkpt>
<trkpt lat="46.20817" lon="7.00582"><ele></ele><time>2017-6-21T12:52:43Z</time></trkpt>
<trkpt lat="46.20826" lon="7.00583"><ele></ele><time>2017-6-21T12:52:46Z</time></trkpt>
<trkpt lat="46.2083" lon="7.00585"><ele></ele><time>2017-6-21T12:52:49Z</time></trkpt>
<trkpt lat="46.20834" lon="7.0059"><ele></ele><time>2017-6-21T12:52:52Z</time></trkpt>
<trkpt lat="46.20841" lon="7.00601"><ele></ele><time>2017-6-21T12:52:55Z</time></trkpt>
<trkpt lat="46.20848" lon="7.00611"><ele></ele><time>2017-6-21T12:52:58Z</time></trkpt>
<trkpt lat="46.20854" lon="7.00622"><ele></ele><time>2017-6-21T12:53:1Z</time></trkpt>
<trkpt lat="46.20855" lon="7.00632"><ele></ele><time>2017-6-21T12:53:4Z</time></trkpt>
<trkpt lat="46.20855" lon="7.00637"><ele></ele><time>2017-6-21T12:53:7Z</time></trkpt>
<trkpt lat="46.20853" lon="7.00643"><ele></ele><time>2017-6-21T12:53:10Z</time></trkpt>
<trkpt lat="46.20851" lon="7.00653"><ele></ele><time>2017-6-21T12:53:13Z</time></trkpt>
<trkpt lat="46.20849" lon="7.00664"><ele></ele><time>2017-6-21T12:53:16Z</time></trkpt>
<trkpt lat="46.20851" lon="7.00678"><ele></ele><time>2017-6-21T12:53:19Z</time></trkpt>
<trkpt lat="46.2086" lon="7.00686"><ele></ele><time>2017-6-21T12:53:22Z</time></trkpt>
<trkpt lat="46.20871" lon="7.00686"><ele></ele><time>2017-6-21T12:53:25Z</time></trkpt>
<trkpt lat="46.20875" lon="7.00685"><ele></ele><time>2017-6-21T12:53:28Z</time></trkpt>
<trkpt lat="46.20879" lon="7.0068"><ele></ele><time>2017-6-21T12:53:31Z</time></trkpt>
<trkpt lat="46.20886" lon="7.0067"><ele></ele><time>2017-6-21T12:53:34Z</time></trkpt>
<trkpt lat="46.20893" lon="7.00662"><ele></ele><time>2017-6-21T12:53:37Z</time></trkpt>
<trkpt lat="46.20903" lon="7.00658"><ele></ele><time>2017-6-21T12:53:40Z</time></trkpt>
<trkpt lat="46.20914" lon="7.00654"><ele></ele><time>2017-6-21T12:53:43Z</time></trkpt>
<trkpt lat="46.20924" lon="7.0065"><ele></ele><time>2017-6-21T12:53:46Z</time></trkpt>
<trkpt lat="46.20934" lon="7.00646"><ele></ele><time>2017-6-21T12:53:49Z</time></trkpt>
<trkpt lat="46.20939" lon="7.00643"><ele></ele><time>2017-6-21T12:53:52Z</time></trkpt>
<trkpt lat="46.20946" lon="7.00641"><ele></ele><time>2017-6-21T12:53:55Z</time></trkpt>
<trkpt lat="46.20958" lon="7.00636"><ele></ele><time>2017-6-21T12:53:58Z</time></trkpt>
<trkpt lat="46.20971" lon="7.00632"><ele></ele><time>2017-6-21T12:54:1Z</time></trkpt>
<trkpt lat="46.20984" lon="7.00627"><ele></ele><time>2017-6-21T12:54:4Z</time></trkpt>
<trkpt lat="46.20997" lon="7.00622"><ele></ele><time>2017-6-21T12:54:7Z</time></trkpt>
<trkpt lat="46.2101" lon="7.00618"><ele></ele><time>2017-6-21T12:54:10Z</time></trkpt>
<trkpt lat="46.21023" lon="7.00613"><ele></ele><time>2017-6-21T12:54:13Z</time></trkpt>
<trkpt lat="46.21027" lon="7.00611"><ele></ele><time>2017-6-21T12:54:16Z</time></trkpt>
<trkpt lat="46.21028" lon="7.0061"><ele></ele><time>2017-6-21T12:54:19Z</time></trkpt>
<trkpt lat="46.21042" lon="7.00606"><ele></ele><time>2017-6-21T12:54:22Z</time></trkpt>
<trkpt lat="46.21056" lon="7.00602"><ele></ele><time>2017-6-21T12:54:25Z</time></trkpt>
<trkpt lat="46.21063" lon="7.00601"><ele></ele><time>2017-6-21T12:54:28Z</time></trkpt>
<trkpt lat="46.21071" lon="7.006"><ele></ele><time>2017-6-21T12:54:31Z</time></trkpt>
<trkpt lat="46.21095" lon="7.00597"><ele></ele><time>2017-6-21T12:54:34Z</time></trkpt>
<trkpt lat="46.21103" lon="7.00596"><ele></ele><time>2017-6-21T12:54:37Z</time></trkpt>
<trkpt lat="46.2111" lon="7.00595"><ele></ele><time>2017-6-21T12:54:40Z</time></trkpt>
<trkpt lat="46.21118" lon="7.00594"><ele></ele><time>2017-6-21T12:54:43Z</time></trkpt>
<trkpt lat="46.21132" lon="7.00593"><ele></ele><time>2017-6-21T12:54:46Z</time></trkpt>
<trkpt lat="46.21147" lon="7.00591"><ele></ele><time>2017-6-21T12:54:49Z</time></trkpt>
<trkpt lat="46.21161" lon="7.0059"><ele></ele><time>2017-6-21T12:54:52Z</time></trkpt>
<trkpt lat="46.21174" lon="7.00589"><ele></ele><time>2017-6-21T12:54:55Z</time></trkpt>
<trkpt lat="46.21186" lon="7.00588"><ele></ele><time>2017-6-21T12:54:58Z</time></trkpt>
<trkpt lat="46.21191" lon="7.00585"><ele></ele><time>2017-6-21T12:55:1Z</time></trkpt>
<trkpt lat="46.21196" lon="7.00579"><ele></ele><time>2017-6-21T12:55:4Z</time></trkpt>
<trkpt lat="46.21205" lon="7.00567"><ele></ele><time>2017-6-21T12:55:7Z</time></trkpt>
<trkpt lat="46.2121" lon="7.00563"><ele></ele><time>2017-6-21T12:55:10Z</time></trkpt>
<trkpt lat="46.21216" lon="7.00561"><ele></ele><time>2017-6-21T12:55:13Z</time></trkpt>
<trkpt lat="46.21227" lon="7.00558"><ele></ele><time>2017-6-21T12:55:16Z</time></trkpt>
<trkpt lat="46.21238" lon="7.00555"><ele></ele><time>2017-6-21T12:55:19Z</time></trkpt>
<trkpt lat="46.21249" lon="7.00552"><ele></ele><time>2017-6-21T12:55:22Z</time></trkpt>
<trkpt lat="46.21261" lon="7.0055"><ele></ele><time>2017-6-21T12:55:25Z</time></trkpt>
<trkpt lat="46.21274" lon="7.00547"><ele></ele><time>2017-6-21T12:55:28Z</time></trkpt>
<trkpt lat="46.21286" lon="7.00544"><ele></ele><time>2017-6-21T12:55:31Z</time></trkpt>
<trkpt lat="46.21299" lon="7.00541"><ele></ele><time>2017-6-21T12:55:34Z</time></trkpt>
<trkpt lat="46.21305" lon="7.00539"><ele></ele><time>2017-6-21T12:55:37Z</time></trkpt>
<trkpt lat="46.21311" lon="7.00537"><ele></ele><time>2017-6-21T12:55:40Z</time></trkpt>
<trkpt lat="46.21323" lon="7.00534"><ele></ele><time>2017-6-21T12:55:43Z</time></trkpt>
<trkpt lat="46.21335" lon="7.0053"><ele></ele><time>2017-6-21T12:55:46Z</time></trkpt>
<trkpt lat="46.21347" lon="7.00527"><ele></ele><time>2017-6-21T12:55:49Z</time></trkpt>
<trkpt lat="46.21353" lon="7.00525"><ele></ele><time>2017-6-21T12:55:52Z</time></trkpt>
<trkpt lat="46.21358" lon="7.00524"><ele></ele><time>2017-6-21T12:55:55Z</time></trkpt>
<trkpt lat="46.21369" lon="7.0052"><ele></ele><time>2017-6-21T12:55:58Z</time></trkpt>
<trkpt lat="46.2138" lon="7.00517"><ele></ele><time>2017-6-21T12:56:1Z</time></trkpt>
<trkpt lat="46.21391" lon="7.00514"><ele></ele><time>2017-6-21T12:56:4Z</time></trkpt>
<trkpt lat="46.21397" lon="7.00512"><ele></ele><time>2017-6-21T12:56:7Z</time></trkpt>
<trkpt lat="46.21403" lon="7.0051"><ele></ele><time>2017-6-21T12:56:10Z</time></trkpt>
<trkpt lat="46.21415" lon="7.00505"><ele></ele><time>2017-6-21T12:56:13Z</time></trkpt>
<trkpt lat="46.21427" lon="7.00501"><ele></ele><time>2017-6-21T12:56:16Z</time></trkpt>
<trkpt lat="46.21439" lon="7.00497"><ele></ele><time>2017-6-21T12:56:19Z</time></trkpt>
<trkpt lat="46.21445" lon="7.00495"><ele></ele><time>2017-6-21T12:56:22Z</time></trkpt>
<trkpt lat="46.21451" lon="7.00493"><ele></ele><time>2017-6-21T12:56:25Z</time></trkpt>
<trkpt lat="46.21462" lon="7.0049"><ele></ele><time>2017-6-21T12:56:28Z</time></trkpt>
<trkpt lat="46.21473" lon="7.00487"><ele></ele><time>2017-6-21T12:56:31Z</time></trkpt>
<trkpt lat="46.21485" lon="7.00485"><ele></ele><time>2017-6-21T12:56:34Z</time></trkpt>
<trkpt lat="46.2149" lon="7.00483"><ele></ele><time>2017-6-21T12:56:37Z</time></trkpt>
<trkpt lat="46.21496" lon="7.00482"><ele></ele><time>2017-6-21T12:56:40Z</time></trkpt>
<trkpt lat="46.21506" lon="7.00478"><ele></ele><time>2017-6-21T12:56:43Z</time></trkpt>
<trkpt lat="46.21517" lon="7.00475"><ele></ele><time>2017-6-21T12:56:46Z</time></trkpt>
<trkpt lat="46.21527" lon="7.00472"><ele></ele><time>2017-6-21T12:56:49Z</time></trkpt>
<trkpt lat="46.21537" lon="7.00469"><ele></ele><time>2017-6-21T12:56:52Z</time></trkpt>
<trkpt lat="46.21545" lon="7.00468"><ele></ele><time>2017-6-21T12:56:55Z</time></trkpt>
<trkpt lat="46.21553" lon="7.00466"><ele></ele><time>2017-6-21T12:56:58Z</time></trkpt>
<trkpt lat="46.21561" lon="7.00464"><ele></ele><time>2017-6-21T12:57:1Z</time></trkpt>
<trkpt lat="46.21569" lon="7.00462"><ele></ele><time>2017-6-21T12:57:4Z</time></trkpt>
<trkpt lat="46.21586" lon="7.00458"><ele></ele><time>2017-6-21T12:57:7Z</time></trkpt>
<trkpt lat="46.21606" lon="7.00453"><ele></ele><time>2017-6-21T12:57:10Z</time></trkpt>
<trkpt lat="46.21625" lon="7.00448"><ele></ele><time>2017-6-21T12:57:13Z</time></trkpt>
<trkpt lat="46.21634" lon="7.00447"><ele></ele><time>2017-6-21T12:57:16Z</time></trkpt>
<trkpt lat="46.21639" lon="7.00447"><ele></ele><time>2017-6-21T12:57:19Z</time></trkpt>
<trkpt lat="46.21651" lon="7.00447"><ele></ele><time>2017-6-21T12:57:22Z</time></trkpt>
<trkpt lat="46.21663" lon="7.00447"><ele></ele><time>2017-6-21T12:57:25Z</time></trkpt>
<trkpt lat="46.21673" lon="7.00445"><ele></ele><time>2017-6-21T12:57:28Z</time></trkpt>
<trkpt lat="46.21677" lon="7.0044"><ele></ele><time>2017-6-21T12:57:31Z</time></trkpt>
<trkpt lat="46.21685" lon="7.00438"><ele></ele><time>2017-6-21T12:57:34Z</time></trkpt>
<trkpt lat="46.21694" lon="7.00436"><ele></ele><time>2017-6-21T12:57:37Z</time></trkpt>
<trkpt lat="46.21698" lon="7.00436"><ele></ele><time>2017-6-21T12:57:40Z</time></trkpt>
<trkpt lat="46.21702" lon="7.00437"><ele></ele><time>2017-6-21T12:57:43Z</time></trkpt>
<trkpt lat="46.2171" lon="7.00439"><ele></ele><time>2017-6-21T12:57:46Z</time></trkpt>
<trkpt lat="46.21718" lon="7.00441"><ele></ele><time>2017-6-21T12:57:49Z</time></trkpt>
<trkpt lat="46.21726" lon="7.00443"><ele></ele><time>2017-6-21T12:57:52Z</time></trkpt>
<trkpt lat="46.21734" lon="7.00445"><ele></ele><time>2017-6-21T12:57:55Z</time></trkpt>
<trkpt lat="46.21742" lon="7.00447"><ele></ele><time>2017-6-21T12:57:58Z</time></trkpt>
<trkpt lat="46.21745" lon="7.00447"><ele></ele><time>2017-6-21T12:58:1Z</time></trkpt>
<trkpt lat="46.21749" lon="7.00447"><ele></ele><time>2017-6-21T12:58:4Z</time></trkpt>
<trkpt lat="46.21755" lon="7.00445"><ele></ele><time>2017-6-21T12:58:7Z</time></trkpt>
<trkpt lat="46.21762" lon="7.00444"><ele></ele><time>2017-6-21T12:58:10Z</time></trkpt>
<trkpt lat="46.21769" lon="7.00445"><ele></ele><time>2017-6-21T12:58:13Z</time></trkpt>
<trkpt lat="46.21776" lon="7.00446"><ele></ele><time>2017-6-21T12:58:16Z</time></trkpt>
<trkpt lat="46.21783" lon="7.00448"><ele></ele><time>2017-6-21T12:58:19Z</time></trkpt>
<trkpt lat="46.21791" lon="7.00449"><ele></ele><time>2017-6-21T12:58:22Z</time></trkpt>
<trkpt lat="46.21798" lon="7.0045"><ele></ele><time>2017-6-21T12:58:25Z</time></trkpt>
<trkpt lat="46.21805" lon="7.00451"><ele></ele><time>2017-6-21T12:58:28Z</time></trkpt>
<trkpt lat="46.21808" lon="7.00452"><ele></ele><time>2017-6-21T12:58:31Z</time></trkpt>
<trkpt lat="46.21811" lon="7.00453"><ele></ele><time>2017-6-21T12:58:34Z</time></trkpt>
<trkpt lat="46.21817" lon="7.00454"><ele></ele><time>2017-6-21T12:58:37Z</time></trkpt>
<trkpt lat="46.21823" lon="7.00456"><ele></ele><time>2017-6-21T12:58:40Z</time></trkpt>
<trkpt lat="46.21829" lon="7.00457"><ele></ele><time>2017-6-21T12:58:43Z</time></trkpt>
<trkpt lat="46.21836" lon="7.00459"><ele></ele><time>2017-6-21T12:58:46Z</time></trkpt>
<trkpt lat="46.21842" lon="7.0046"><ele></ele><time>2017-6-21T12:58:49Z</time></trkpt>
<trkpt lat="46.21848" lon="7.00462"><ele></ele><time>2017-6-21T12:58:52Z</time></trkpt>
<trkpt lat="46.21854" lon="7.00463"><ele></ele><time>2017-6-21T12:58:55Z</time></trkpt>
<trkpt lat="46.21861" lon="7.00461"><ele></ele><time>2017-6-21T12:58:58Z</time></trkpt>
<trkpt lat="46.21868" lon="7.0046"><ele></ele><time>2017-6-21T12:59:1Z</time></trkpt>
<trkpt lat="46.21875" lon="7.00458"><ele></ele><time>2017-6-21T12:59:4Z</time></trkpt>
<trkpt lat="46.21882" lon="7.00457"><ele></ele><time>2017-6-21T12:59:7Z</time></trkpt>
<trkpt lat="46.21889" lon="7.00455"><ele></ele><time>2017-6-21T12:59:10Z</time></trkpt>
<trkpt lat="46.21893" lon="7.00455"><ele></ele><time>2017-6-21T12:59:13Z</time></trkpt>
<trkpt lat="46.21897" lon="7.00456"><ele></ele><time>2017-6-21T12:59:16Z</time></trkpt>
<trkpt lat="46.21905" lon="7.00458"><ele></ele><time>2017-6-21T12:59:19Z</time></trkpt>
<trkpt lat="46.21913" lon="7.0046"><ele></ele><time>2017-6-21T12:59:22Z</time></trkpt>
<trkpt lat="46.21921" lon="7.00462"><ele></ele><time>2017-6-21T12:59:25Z</time></trkpt>
<trkpt lat="46.21931" lon="7.00464"><ele></ele><time>2017-6-21T12:59:28Z</time></trkpt>
<trkpt lat="46.21944" lon="7.00463"><ele></ele><time>2017-6-21T12:59:31Z</time></trkpt>
<trkpt lat="46.21947" lon="7.00465"><ele></ele><time>2017-6-21T12:59:34Z</time></trkpt>
<trkpt lat="46.21951" lon="7.00464"><ele></ele><time>2017-6-21T12:59:37Z</time></trkpt>
<trkpt lat="46.21957" lon="7.00462"><ele></ele><time>2017-6-21T12:59:40Z</time></trkpt>
<trkpt lat="46.21963" lon="7.00462"><ele></ele><time>2017-6-21T12:59:43Z</time></trkpt>
<trkpt lat="46.2197" lon="7.00462"><ele></ele><time>2017-6-21T12:59:46Z</time></trkpt>
<trkpt lat="46.21977" lon="7.00462"><ele></ele><time>2017-6-21T12:59:49Z</time></trkpt>
<trkpt lat="46.21984" lon="7.00462"><ele></ele><time>2017-6-21T12:59:52Z</time></trkpt>
<trkpt lat="46.21992" lon="7.00462"><ele></ele><time>2017-6-21T12:59:55Z</time></trkpt>
<trkpt lat="46.21999" lon="7.00462"><ele></ele><time>2017-6-21T12:59:58Z</time></trkpt>
<trkpt lat="46.22006" lon="7.00462"><ele></ele><time>2017-6-21T13:0:1Z</time></trkpt>
<trkpt lat="46.2201" lon="7.00461"><ele></ele><time>2017-6-21T13:0:4Z</time></trkpt>
<trkpt lat="46.22014" lon="7.00461"><ele></ele><time>2017-6-21T13:0:7Z</time></trkpt>
<trkpt lat="46.22024" lon="7.00459"><ele></ele><time>2017-6-21T13:0:10Z</time></trkpt>
<trkpt lat="46.22033" lon="7.00457"><ele></ele><time>2017-6-21T13:0:13Z</time></trkpt>
<trkpt lat="46.22043" lon="7.00455"><ele></ele><time>2017-6-21T13:0:16Z</time></trkpt>
<trkpt lat="46.22055" lon="7.00454"><ele></ele><time>2017-6-21T13:0:19Z</time></trkpt>
<trkpt lat="46.22067" lon="7.00453"><ele></ele><time>2017-6-21T13:0:22Z</time></trkpt>
<trkpt lat="46.22079" lon="7.00452"><ele></ele><time>2017-6-21T13:0:25Z</time></trkpt>
<trkpt lat="46.22091" lon="7.0045"><ele></ele><time>2017-6-21T13:0:28Z</time></trkpt>
<trkpt lat="46.22104" lon="7.00446"><ele></ele><time>2017-6-21T13:0:31Z</time></trkpt>
<trkpt lat="46.22116" lon="7.00443"><ele></ele><time>2017-6-21T13:0:34Z</time></trkpt>
<trkpt lat="46.2213" lon="7.00444"><ele></ele><time>2017-6-21T13:0:37Z</time></trkpt>
<trkpt lat="46.22136" lon="7.00446"><ele></ele><time>2017-6-21T13:0:40Z</time></trkpt>
<trkpt lat="46.2214" lon="7.00447"><ele></ele><time>2017-6-21T13:0:43Z</time></trkpt>
<trkpt lat="46.22153" lon="7.00443"><ele></ele><time>2017-6-21T13:0:46Z</time></trkpt>
<trkpt lat="46.22165" lon="7.0044"><ele></ele><time>2017-6-21T13:0:49Z</time></trkpt>
<trkpt lat="46.22177" lon="7.00435"><ele></ele><time>2017-6-21T13:0:52Z</time></trkpt>
<trkpt lat="46.22187" lon="7.00427"><ele></ele><time>2017-6-21T13:0:55Z</time></trkpt>
<trkpt lat="46.22198" lon="7.0042"><ele></ele><time>2017-6-21T13:0:58Z</time></trkpt>
<trkpt lat="46.22209" lon="7.00412"><ele></ele><time>2017-6-21T13:1:1Z</time></trkpt>
<trkpt lat="46.22219" lon="7.00404"><ele></ele><time>2017-6-21T13:1:4Z</time></trkpt>
<trkpt lat="46.22228" lon="7.00397"><ele></ele><time>2017-6-21T13:1:7Z</time></trkpt>
<trkpt lat="46.22238" lon="7.0039"><ele></ele><time>2017-6-21T13:1:10Z</time></trkpt>
<trkpt lat="46.22247" lon="7.00383"><ele></ele><time>2017-6-21T13:1:13Z</time></trkpt>
<trkpt lat="46.22256" lon="7.00376"><ele></ele><time>2017-6-21T13:1:16Z</time></trkpt>
<trkpt lat="46.22265" lon="7.00369"><ele></ele><time>2017-6-21T13:1:19Z</time></trkpt>
<trkpt lat="46.22274" lon="7.00363"><ele></ele><time>2017-6-21T13:1:22Z</time></trkpt>
<trkpt lat="46.22283" lon="7.00356"><ele></ele><time>2017-6-21T13:1:25Z</time></trkpt>
<trkpt lat="46.22286" lon="7.00352"><ele></ele><time>2017-6-21T13:1:28Z</time></trkpt>
<trkpt lat="46.22287" lon="7.00349"><ele></ele><time>2017-6-21T13:1:31Z</time></trkpt>
<trkpt lat="46.22296" lon="7.00343"><ele></ele><time>2017-6-21T13:1:34Z</time></trkpt>
<trkpt lat="46.22304" lon="7.00336"><ele></ele><time>2017-6-21T13:1:37Z</time></trkpt>
<trkpt lat="46.22312" lon="7.0033"><ele></ele><time>2017-6-21T13:1:40Z</time></trkpt>
<trkpt lat="46.22321" lon="7.00324"><ele></ele><time>2017-6-21T13:1:43Z</time></trkpt>
<trkpt lat="46.22329" lon="7.00318"><ele></ele><time>2017-6-21T13:1:46Z</time></trkpt>
<trkpt lat="46.22333" lon="7.00315"><ele></ele><time>2017-6-21T13:1:49Z</time></trkpt>
<trkpt lat="46.22336" lon="7.00313"><ele></ele><time>2017-6-21T13:1:52Z</time></trkpt>
<trkpt lat="46.22346" lon="7.00307"><ele></ele><time>2017-6-21T13:1:55Z</time></trkpt>
<trkpt lat="46.22349" lon="7.00304"><ele></ele><time>2017-6-21T13:1:58Z</time></trkpt>
<trkpt lat="46.22357" lon="7.00294"><ele></ele><time>2017-6-21T13:2:1Z</time></trkpt>
<trkpt lat="46.22364" lon="7.00285"><ele></ele><time>2017-6-21T13:2:4Z</time></trkpt>
<trkpt lat="46.22368" lon="7.00274"><ele></ele><time>2017-6-21T13:2:7Z</time></trkpt>
<trkpt lat="46.22372" lon="7.00269"><ele></ele><time>2017-6-21T13:2:10Z</time></trkpt>
<trkpt lat="46.22377" lon="7.00265"><ele></ele><time>2017-6-21T13:2:13Z</time></trkpt>
<trkpt lat="46.22386" lon="7.00256"><ele></ele><time>2017-6-21T13:2:16Z</time></trkpt>
<trkpt lat="46.22396" lon="7.00247"><ele></ele><time>2017-6-21T13:2:19Z</time></trkpt>
<trkpt lat="46.22401" lon="7.00242"><ele></ele><time>2017-6-21T13:2:22Z</time></trkpt>
<trkpt lat="46.22408" lon="7.00238"><ele></ele><time>2017-6-21T13:2:25Z</time></trkpt>
<trkpt lat="46.2242" lon="7.00228"><ele></ele><time>2017-6-21T13:2:28Z</time></trkpt>
<trkpt lat="46.22433" lon="7.0022"><ele></ele><time>2017-6-21T13:2:31Z</time></trkpt>
<trkpt lat="46.22441" lon="7.00217"><ele></ele><time>2017-6-21T13:2:34Z</time></trkpt>
<trkpt lat="46.22448" lon="7.00215"><ele></ele><time>2017-6-21T13:2:37Z</time></trkpt>
<trkpt lat="46.22464" lon="7.00209"><ele></ele><time>2017-6-21T13:2:40Z</time></trkpt>
<trkpt lat="46.22479" lon="7.00204"><ele></ele><time>2017-6-21T13:2:43Z</time></trkpt>
<trkpt lat="46.22493" lon="7.00197"><ele></ele><time>2017-6-21T13:2:46Z</time></trkpt>
<trkpt lat="46.22508" lon="7.00191"><ele></ele><time>2017-6-21T13:2:49Z</time></trkpt>
<trkpt lat="46.22522" lon="7.00183"><ele></ele><time>2017-6-21T13:2:52Z</time></trkpt>
<trkpt lat="46.22533" lon="7.00168"><ele></ele><time>2017-6-21T13:2:55Z</time></trkpt>
<trkpt lat="46.22543" lon="7.00154"><ele></ele><time>2017-6-21T13:2:58Z</time></trkpt>
<trkpt lat="46.22545" lon="7.00147"><ele></ele><time>2017-6-21T13:3:1Z</time></trkpt>
<trkpt lat="46.22548" lon="7.00142"><ele></ele><time>2017-6-21T13:3:4Z</time></trkpt>
<trkpt lat="46.22553" lon="7.00138"><ele></ele><time>2017-6-21T13:3:7Z</time></trkpt>
<trkpt lat="46.22564" lon="7.0013"><ele></ele><time>2017-6-21T13:3:10Z</time></trkpt>
<trkpt lat="46.2258" lon="7.00128"><ele></ele><time>2017-6-21T13:3:13Z</time></trkpt>
<trkpt lat="46.22595" lon="7.00127"><ele></ele><time>2017-6-21T13:3:16Z</time></trkpt>
<trkpt lat="46.22602" lon="7.00126"><ele></ele><time>2017-6-21T13:3:19Z</time></trkpt>
<trkpt lat="46.22608" lon="7.00126"><ele></ele><time>2017-6-21T13:3:22Z</time></trkpt>
<trkpt lat="46.22621" lon="7.00126"><ele></ele><time>2017-6-21T13:3:25Z</time></trkpt>
<trkpt lat="46.22633" lon="7.00126"><ele></ele><time>2017-6-21T13:3:28Z</time></trkpt>
<trkpt lat="46.22646" lon="7.00126"><ele></ele><time>2017-6-21T13:3:31Z</time></trkpt>
<trkpt lat="46.22652" lon="7.00126"><ele></ele><time>2017-6-21T13:3:34Z</time></trkpt>
<trkpt lat="46.22657" lon="7.00125"><ele></ele><time>2017-6-21T13:3:37Z</time></trkpt>
<trkpt lat="46.22669" lon="7.00122"><ele></ele><time>2017-6-21T13:3:40Z</time></trkpt>
<trkpt lat="46.2268" lon="7.0012"><ele></ele><time>2017-6-21T13:3:43Z</time></trkpt>
<trkpt lat="46.22692" lon="7.00117"><ele></ele><time>2017-6-21T13:3:46Z</time></trkpt>
<trkpt lat="46.22698" lon="7.00116"><ele></ele><time>2017-6-21T13:3:49Z</time></trkpt>
<trkpt lat="46.22704" lon="7.00115"><ele></ele><time>2017-6-21T13:3:52Z</time></trkpt>
<trkpt lat="46.22717" lon="7.00112"><ele></ele><time>2017-6-21T13:3:55Z</time></trkpt>
<trkpt lat="46.2273" lon="7.0011"><ele></ele><time>2017-6-21T13:3:58Z</time></trkpt>
<trkpt lat="46.22743" lon="7.00108"><ele></ele><time>2017-6-21T13:4:1Z</time></trkpt>
<trkpt lat="46.22756" lon="7.00105"><ele></ele><time>2017-6-21T13:4:4Z</time></trkpt>
<trkpt lat="46.22768" lon="7.00102"><ele></ele><time>2017-6-21T13:4:7Z</time></trkpt>
<trkpt lat="46.22781" lon="7.00098"><ele></ele><time>2017-6-21T13:4:10Z</time></trkpt>
<trkpt lat="46.22792" lon="7.00094"><ele></ele><time>2017-6-21T13:4:13Z</time></trkpt>
<trkpt lat="46.22804" lon="7.0009"><ele></ele><time>2017-6-21T13:4:16Z</time></trkpt>
<trkpt lat="46.22815" lon="7.00086"><ele></ele><time>2017-6-21T13:4:19Z</time></trkpt>
<trkpt lat="46.22827" lon="7.00082"><ele></ele><time>2017-6-21T13:4:22Z</time></trkpt>
<trkpt lat="46.22838" lon="7.00077"><ele></ele><time>2017-6-21T13:4:25Z</time></trkpt>
<trkpt lat="46.2285" lon="7.00071"><ele></ele><time>2017-6-21T13:4:28Z</time></trkpt>
<trkpt lat="46.22861" lon="7.00066"><ele></ele><time>2017-6-21T13:4:31Z</time></trkpt>
<trkpt lat="46.22872" lon="7.00061"><ele></ele><time>2017-6-21T13:4:34Z</time></trkpt>
<trkpt lat="46.22883" lon="7.00053"><ele></ele><time>2017-6-21T13:4:37Z</time></trkpt>
<trkpt lat="46.22893" lon="7.00046"><ele></ele><time>2017-6-21T13:4:40Z</time></trkpt>
<trkpt lat="46.22904" lon="7.00039"><ele></ele><time>2017-6-21T13:4:43Z</time></trkpt>
<trkpt lat="46.22915" lon="7.00031"><ele></ele><time>2017-6-21T13:4:46Z</time></trkpt>
<trkpt lat="46.22928" lon="7.00023"><ele></ele><time>2017-6-21T13:4:49Z</time></trkpt>
<trkpt lat="46.2294" lon="7.00015"><ele></ele><time>2017-6-21T13:4:52Z</time></trkpt>
<trkpt lat="46.22953" lon="7.00007"><ele></ele><time>2017-6-21T13:4:55Z</time></trkpt>
<trkpt lat="46.2296" lon="7.00003"><ele></ele><time>2017-6-21T13:4:58Z</time></trkpt>
<trkpt lat="46.22966" lon="6.99997"><ele></ele><time>2017-6-21T13:5:1Z</time></trkpt>
<trkpt lat="46.2298" lon="6.99986"><ele></ele><time>2017-6-21T13:5:4Z</time></trkpt>
<trkpt lat="46.22994" lon="6.99975"><ele></ele><time>2017-6-21T13:5:7Z</time></trkpt>
<trkpt lat="46.23" lon="6.99969"><ele></ele><time>2017-6-21T13:5:10Z</time></trkpt>
<trkpt lat="46.23006" lon="6.99963"><ele></ele><time>2017-6-21T13:5:13Z</time></trkpt>
<trkpt lat="46.23018" lon="6.99949"><ele></ele><time>2017-6-21T13:5:16Z</time></trkpt>
<trkpt lat="46.23031" lon="6.99937"><ele></ele><time>2017-6-21T13:5:19Z</time></trkpt>
<trkpt lat="46.23045" lon="6.99925"><ele></ele><time>2017-6-21T13:5:22Z</time></trkpt>
<trkpt lat="46.23058" lon="6.99912"><ele></ele><time>2017-6-21T13:5:25Z</time></trkpt>
<trkpt lat="46.23071" lon="6.99899"><ele></ele><time>2017-6-21T13:5:28Z</time></trkpt>
<trkpt lat="46.23083" lon="6.99886"><ele></ele><time>2017-6-21T13:5:31Z</time></trkpt>
<trkpt lat="46.23096" lon="6.99872"><ele></ele><time>2017-6-21T13:5:34Z</time></trkpt>
<trkpt lat="46.23109" lon="6.99857"><ele></ele><time>2017-6-21T13:5:37Z</time></trkpt>
<trkpt lat="46.23121" lon="6.99843"><ele></ele><time>2017-6-21T13:5:40Z</time></trkpt>
<trkpt lat="46.23126" lon="6.99836"><ele></ele><time>2017-6-21T13:5:43Z</time></trkpt>
<trkpt lat="46.23132" lon="6.99828"><ele></ele><time>2017-6-21T13:5:46Z</time></trkpt>
<trkpt lat="46.23146" lon="6.99813"><ele></ele><time>2017-6-21T13:5:49Z</time></trkpt>
<trkpt lat="46.23159" lon="6.99798"><ele></ele><time>2017-6-21T13:5:52Z</time></trkpt>
<trkpt lat="46.23165" lon="6.99791"><ele></ele><time>2017-6-21T13:5:55Z</time></trkpt>
<trkpt lat="46.23171" lon="6.99785"><ele></ele><time>2017-6-21T13:5:58Z</time></trkpt>
<trkpt lat="46.23184" lon="6.99773"><ele></ele><time>2017-6-21T13:6:1Z</time></trkpt>
<trkpt lat="46.23202" lon="6.99754"><ele></ele><time>2017-6-21T13:6:4Z</time></trkpt>
<trkpt lat="46.23222" lon="6.99731"><ele></ele><time>2017-6-21T13:6:7Z</time></trkpt>
<trkpt lat="46.23227" lon="6.99725"><ele></ele><time>2017-6-21T13:6:10Z</time></trkpt>
<trkpt lat="46.23237" lon="6.99714"><ele></ele><time>2017-6-21T13:6:13Z</time></trkpt>
<trkpt lat="46.23242" lon="6.99708"><ele></ele><time>2017-6-21T13:6:16Z</time></trkpt>
<trkpt lat="46.23248" lon="6.99703"><ele></ele><time>2017-6-21T13:6:19Z</time></trkpt>
<trkpt lat="46.23259" lon="6.99693"><ele></ele><time>2017-6-21T13:6:22Z</time></trkpt>
<trkpt lat="46.23265" lon="6.99681"><ele></ele><time>2017-6-21T13:6:25Z</time></trkpt>
<trkpt lat="46.23274" lon="6.99664"><ele></ele><time>2017-6-21T13:6:28Z</time></trkpt>
<trkpt lat="46.23277" lon="6.99659"><ele></ele><time>2017-6-21T13:6:31Z</time></trkpt>
<trkpt lat="46.23283" lon="6.99647"><ele></ele><time>2017-6-21T13:6:34Z</time></trkpt>
<trkpt lat="46.23287" lon="6.99642"><ele></ele><time>2017-6-21T13:6:37Z</time></trkpt>
<trkpt lat="46.23293" lon="6.99639"><ele></ele><time>2017-6-21T13:6:40Z</time></trkpt>
<trkpt lat="46.23299" lon="6.99636"><ele></ele><time>2017-6-21T13:6:43Z</time></trkpt>
<trkpt lat="46.23305" lon="6.99635"><ele></ele><time>2017-6-21T13:6:46Z</time></trkpt>
<trkpt lat="46.23316" lon="6.9963"><ele></ele><time>2017-6-21T13:6:49Z</time></trkpt>
<trkpt lat="46.23325" lon="6.99618"><ele></ele><time>2017-6-21T13:6:52Z</time></trkpt>
<trkpt lat="46.23334" lon="6.99607"><ele></ele><time>2017-6-21T13:6:55Z</time></trkpt>
<trkpt lat="46.23343" lon="6.99595"><ele></ele><time>2017-6-21T13:6:58Z</time></trkpt>
<trkpt lat="46.23351" lon="6.99584"><ele></ele><time>2017-6-21T13:7:1Z</time></trkpt>
<trkpt lat="46.23359" lon="6.99576"><ele></ele><time>2017-6-21T13:7:4Z</time></trkpt>
<trkpt lat="46.23367" lon="6.99568"><ele></ele><time>2017-6-21T13:7:7Z</time></trkpt>
<trkpt lat="46.23374" lon="6.9956"><ele></ele><time>2017-6-21T13:7:10Z</time></trkpt>
<trkpt lat="46.23386" lon="6.99547"><ele></ele><time>2017-6-21T13:7:13Z</time></trkpt>
<trkpt lat="46.23394" lon="6.99538"><ele></ele><time>2017-6-21T13:7:16Z</time></trkpt>
<trkpt lat="46.23413" lon="6.99516"><ele></ele><time>2017-6-21T13:7:19Z</time></trkpt>
<trkpt lat="46.23425" lon="6.99514"><ele></ele><time>2017-6-21T13:7:22Z</time></trkpt>
<trkpt lat="46.23436" lon="6.99516"><ele></ele><time>2017-6-21T13:7:25Z</time></trkpt>
<trkpt lat="46.23447" lon="6.99519"><ele></ele><time>2017-6-21T13:7:28Z</time></trkpt>
<trkpt lat="46.23458" lon="6.99521"><ele></ele><time>2017-6-21T13:7:31Z</time></trkpt>
<trkpt lat="46.23468" lon="6.99524"><ele></ele><time>2017-6-21T13:7:34Z</time></trkpt>
<trkpt lat="46.23474" lon="6.99526"><ele></ele><time>2017-6-21T13:7:37Z</time></trkpt>
<trkpt lat="46.23478" lon="6.9953"><ele></ele><time>2017-6-21T13:7:40Z</time></trkpt>
<trkpt lat="46.23486" lon="6.99541"><ele></ele><time>2017-6-21T13:7:43Z</time></trkpt>
<trkpt lat="46.23494" lon="6.99553"><ele></ele><time>2017-6-21T13:7:46Z</time></trkpt>
<trkpt lat="46.23503" lon="6.99564"><ele></ele><time>2017-6-21T13:7:49Z</time></trkpt>
<trkpt lat="46.23516" lon="6.99574"><ele></ele><time>2017-6-21T13:7:52Z</time></trkpt>
<trkpt lat="46.23528" lon="6.99585"><ele></ele><time>2017-6-21T13:7:55Z</time></trkpt>
<trkpt lat="46.2354" lon="6.99596"><ele></ele><time>2017-6-21T13:7:58Z</time></trkpt>
<trkpt lat="46.23546" lon="6.99602"><ele></ele><time>2017-6-21T13:8:1Z</time></trkpt>
<trkpt lat="46.23552" lon="6.99608"><ele></ele><time>2017-6-21T13:8:4Z</time></trkpt>
<trkpt lat="46.23563" lon="6.99616"><ele></ele><time>2017-6-21T13:8:7Z</time></trkpt>
<trkpt lat="46.23573" lon="6.9961"><ele></ele><time>2017-6-21T13:8:10Z</time></trkpt>
<trkpt lat="46.23577" lon="6.99604"><ele></ele><time>2017-6-21T13:8:13Z</time></trkpt>
<trkpt lat="46.23582" lon="6.99598"><ele></ele><time>2017-6-21T13:8:16Z</time></trkpt>
<trkpt lat="46.23591" lon="6.99585"><ele></ele><time>2017-6-21T13:8:19Z</time></trkpt>
<trkpt lat="46.236" lon="6.99572"><ele></ele><time>2017-6-21T13:8:22Z</time></trkpt>
<trkpt lat="46.23609" lon="6.99559"><ele></ele><time>2017-6-21T13:8:25Z</time></trkpt>
<trkpt lat="46.23619" lon="6.99548"><ele></ele><time>2017-6-21T13:8:28Z</time></trkpt>
<trkpt lat="46.23629" lon="6.99536"><ele></ele><time>2017-6-21T13:8:31Z</time></trkpt>
<trkpt lat="46.23634" lon="6.99531"><ele></ele><time>2017-6-21T13:8:34Z</time></trkpt>
<trkpt lat="46.2364" lon="6.99528"><ele></ele><time>2017-6-21T13:8:37Z</time></trkpt>
<trkpt lat="46.23651" lon="6.99523"><ele></ele><time>2017-6-21T13:8:40Z</time></trkpt>
<trkpt lat="46.23656" lon="6.99521"><ele></ele><time>2017-6-21T13:8:43Z</time></trkpt>
<trkpt lat="46.23662" lon="6.99518"><ele></ele><time>2017-6-21T13:8:46Z</time></trkpt>
<trkpt lat="46.23673" lon="6.99513"><ele></ele><time>2017-6-21T13:8:49Z</time></trkpt>
<trkpt lat="46.23679" lon="6.9951"><ele></ele><time>2017-6-21T13:8:52Z</time></trkpt>
<trkpt lat="46.23685" lon="6.99507"><ele></ele><time>2017-6-21T13:8:55Z</time></trkpt>
<trkpt lat="46.23697" lon="6.99501"><ele></ele><time>2017-6-21T13:8:58Z</time></trkpt>
<trkpt lat="46.2371" lon="6.99495"><ele></ele><time>2017-6-21T13:9:1Z</time></trkpt>
<trkpt lat="46.23722" lon="6.99489"><ele></ele><time>2017-6-21T13:9:4Z</time></trkpt>
<trkpt lat="46.23734" lon="6.99485"><ele></ele><time>2017-6-21T13:9:7Z</time></trkpt>
<trkpt lat="46.23746" lon="6.99481"><ele></ele><time>2017-6-21T13:9:10Z</time></trkpt>
<trkpt lat="46.23758" lon="6.99476"><ele></ele><time>2017-6-21T13:9:13Z</time></trkpt>
<trkpt lat="46.2377" lon="6.99472"><ele></ele><time>2017-6-21T13:9:16Z</time></trkpt>
<trkpt lat="46.23782" lon="6.99469"><ele></ele><time>2017-6-21T13:9:19Z</time></trkpt>
<trkpt lat="46.23793" lon="6.99466"><ele></ele><time>2017-6-21T13:9:22Z</time></trkpt>
<trkpt lat="46.23805" lon="6.99462"><ele></ele><time>2017-6-21T13:9:25Z</time></trkpt>
<trkpt lat="46.23817" lon="6.99459"><ele></ele><time>2017-6-21T13:9:28Z</time></trkpt>
<trkpt lat="46.23831" lon="6.99453"><ele></ele><time>2017-6-21T13:9:31Z</time></trkpt>
<trkpt lat="46.23846" lon="6.99447"><ele></ele><time>2017-6-21T13:9:34Z</time></trkpt>
<trkpt lat="46.23853" lon="6.99444"><ele></ele><time>2017-6-21T13:9:37Z</time></trkpt>
<trkpt lat="46.23858" lon="6.99441"><ele></ele><time>2017-6-21T13:9:40Z</time></trkpt>
<trkpt lat="46.23868" lon="6.99434"><ele></ele><time>2017-6-21T13:9:43Z</time></trkpt>
<trkpt lat="46.23878" lon="6.99427"><ele></ele><time>2017-6-21T13:9:46Z</time></trkpt>
<trkpt lat="46.23888" lon="6.9942"><ele></ele><time>2017-6-21T13:9:49Z</time></trkpt>
<trkpt lat="46.23898" lon="6.99414"><ele></ele><time>2017-6-21T13:9:52Z</time></trkpt>
<trkpt lat="46.23907" lon="6.99407"><ele></ele><time>2017-6-21T13:9:55Z</time></trkpt>
<trkpt lat="46.23915" lon="6.994"><ele></ele><time>2017-6-21T13:9:58Z</time></trkpt>
<trkpt lat="46.23924" lon="6.99393"><ele></ele><time>2017-6-21T13:10:1Z</time></trkpt>
<trkpt lat="46.23933" lon="6.99386"><ele></ele><time>2017-6-21T13:10:4Z</time></trkpt>
<trkpt lat="46.23938" lon="6.99383"><ele></ele><time>2017-6-21T13:10:7Z</time></trkpt>
<trkpt lat="46.23944" lon="6.99379"><ele></ele><time>2017-6-21T13:10:10Z</time></trkpt>
<trkpt lat="46.23956" lon="6.99371"><ele></ele><time>2017-6-21T13:10:13Z</time></trkpt>
<trkpt lat="46.23965" lon="6.99362"><ele></ele><time>2017-6-21T13:10:16Z</time></trkpt>
<trkpt lat="46.23975" lon="6.99352"><ele></ele><time>2017-6-21T13:10:19Z</time></trkpt>
<trkpt lat="46.23985" lon="6.99342"><ele></ele><time>2017-6-21T13:10:22Z</time></trkpt>
<trkpt lat="46.23994" lon="6.99332"><ele></ele><time>2017-6-21T13:10:25Z</time></trkpt>
<trkpt lat="46.24004" lon="6.99321"><ele></ele><time>2017-6-21T13:10:28Z</time></trkpt>
<trkpt lat="46.24014" lon="6.99309"><ele></ele><time>2017-6-21T13:10:31Z</time></trkpt>
<trkpt lat="46.24024" lon="6.99298"><ele></ele><time>2017-6-21T13:10:34Z</time></trkpt>
<trkpt lat="46.24029" lon="6.99292"><ele></ele><time>2017-6-21T13:10:37Z</time></trkpt>
<trkpt lat="46.24034" lon="6.99286"><ele></ele><time>2017-6-21T13:10:40Z</time></trkpt>
<trkpt lat="46.24043" lon="6.99275"><ele></ele><time>2017-6-21T13:10:43Z</time></trkpt>
<trkpt lat="46.24047" lon="6.9927"><ele></ele><time>2017-6-21T13:10:46Z</time></trkpt>
<trkpt lat="46.24051" lon="6.99265"><ele></ele><time>2017-6-21T13:10:49Z</time></trkpt>
<trkpt lat="46.24059" lon="6.99257"><ele></ele><time>2017-6-21T13:10:52Z</time></trkpt>
<trkpt lat="46.24067" lon="6.99248"><ele></ele><time>2017-6-21T13:10:55Z</time></trkpt>
<trkpt lat="46.24075" lon="6.99239"><ele></ele><time>2017-6-21T13:10:58Z</time></trkpt>
<trkpt lat="46.24083" lon="6.9923"><ele></ele><time>2017-6-21T13:11:1Z</time></trkpt>
<trkpt lat="46.24092" lon="6.99221"><ele></ele><time>2017-6-21T13:11:4Z</time></trkpt>
<trkpt lat="46.24101" lon="6.99212"><ele></ele><time>2017-6-21T13:11:7Z</time></trkpt>
<trkpt lat="46.24111" lon="6.99203"><ele></ele><time>2017-6-21T13:11:10Z</time></trkpt>
<trkpt lat="46.2412" lon="6.99194"><ele></ele><time>2017-6-21T13:11:13Z</time></trkpt>
<trkpt lat="46.24124" lon="6.99189"><ele></ele><time>2017-6-21T13:11:16Z</time></trkpt>
<trkpt lat="46.24129" lon="6.99183"><ele></ele><time>2017-6-21T13:11:19Z</time></trkpt>
<trkpt lat="46.2414" lon="6.99174"><ele></ele><time>2017-6-21T13:11:22Z</time></trkpt>
<trkpt lat="46.24146" lon="6.99171"><ele></ele><time>2017-6-21T13:11:25Z</time></trkpt>
<trkpt lat="46.24151" lon="6.99165"><ele></ele><time>2017-6-21T13:11:28Z</time></trkpt>
<trkpt lat="46.2416" lon="6.99154"><ele></ele><time>2017-6-21T13:11:31Z</time></trkpt>
<trkpt lat="46.24171" lon="6.99143"><ele></ele><time>2017-6-21T13:11:34Z</time></trkpt>
<trkpt lat="46.24182" lon="6.99132"><ele></ele><time>2017-6-21T13:11:37Z</time></trkpt>
<trkpt lat="46.24193" lon="6.9912"><ele></ele><time>2017-6-21T13:11:40Z</time></trkpt>
<trkpt lat="46.24198" lon="6.99115"><ele></ele><time>2017-6-21T13:11:43Z</time></trkpt>
<trkpt lat="46.24202" lon="6.9911"><ele></ele><time>2017-6-21T13:11:46Z</time></trkpt>
<trkpt lat="46.24211" lon="6.99099"><ele></ele><time>2017-6-21T13:11:49Z</time></trkpt>
<trkpt lat="46.24221" lon="6.99089"><ele></ele><time>2017-6-21T13:11:52Z</time></trkpt>
<trkpt lat="46.2423" lon="6.99079"><ele></ele><time>2017-6-21T13:11:55Z</time></trkpt>
<trkpt lat="46.24234" lon="6.99074"><ele></ele><time>2017-6-21T13:11:58Z</time></trkpt>
<trkpt lat="46.24238" lon="6.9907"><ele></ele><time>2017-6-21T13:12:1Z</time></trkpt>
<trkpt lat="46.24246" lon="6.99061"><ele></ele><time>2017-6-21T13:12:4Z</time></trkpt>
<trkpt lat="46.24252" lon="6.99048"><ele></ele><time>2017-6-21T13:12:7Z</time></trkpt>
<trkpt lat="46.24255" lon="6.99043"><ele></ele><time>2017-6-21T13:12:10Z</time></trkpt>
<trkpt lat="46.2426" lon="6.99039"><ele></ele><time>2017-6-21T13:12:13Z</time></trkpt>
<trkpt lat="46.24269" lon="6.99031"><ele></ele><time>2017-6-21T13:12:16Z</time></trkpt>
<trkpt lat="46.24273" lon="6.99027"><ele></ele><time>2017-6-21T13:12:19Z</time></trkpt>
<trkpt lat="46.24276" lon="6.99024"><ele></ele><time>2017-6-21T13:12:22Z</time></trkpt>
<trkpt lat="46.24284" lon="6.99023"><ele></ele><time>2017-6-21T13:12:25Z</time></trkpt>
<trkpt lat="46.24287" lon="6.99024"><ele></ele><time>2017-6-21T13:12:28Z</time></trkpt>
<trkpt lat="46.24289" lon="6.99028"><ele></ele><time>2017-6-21T13:12:31Z</time></trkpt>
<trkpt lat="46.24293" lon="6.99034"><ele></ele><time>2017-6-21T13:12:34Z</time></trkpt>
<trkpt lat="46.24298" lon="6.99041"><ele></ele><time>2017-6-21T13:12:37Z</time></trkpt>
<trkpt lat="46.24302" lon="6.99048"><ele></ele><time>2017-6-21T13:12:40Z</time></trkpt>
<trkpt lat="46.24306" lon="6.99054"><ele></ele><time>2017-6-21T13:12:43Z</time></trkpt>
<trkpt lat="46.2431" lon="6.99061"><ele></ele><time>2017-6-21T13:12:46Z</time></trkpt>
<trkpt lat="46.24315" lon="6.99068"><ele></ele><time>2017-6-21T13:12:49Z</time></trkpt>
<trkpt lat="46.24319" lon="6.99075"><ele></ele><time>2017-6-21T13:12:52Z</time></trkpt>
<trkpt lat="46.24324" lon="6.99083"><ele></ele><time>2017-6-21T13:12:55Z</time></trkpt>
<trkpt lat="46.24329" lon="6.99091"><ele></ele><time>2017-6-21T13:12:58Z</time></trkpt>
<trkpt lat="46.24334" lon="6.991"><ele></ele><time>2017-6-21T13:13:1Z</time></trkpt>
<trkpt lat="46.24339" lon="6.99108"><ele></ele><time>2017-6-21T13:13:4Z</time></trkpt>
<trkpt lat="46.24344" lon="6.99117"><ele></ele><time>2017-6-21T13:13:7Z</time></trkpt>
<trkpt lat="46.24346" lon="6.99121"><ele></ele><time>2017-6-21T13:13:10Z</time></trkpt>
<trkpt lat="46.24349" lon="6.99126"><ele></ele><time>2017-6-21T13:13:13Z</time></trkpt>
<trkpt lat="46.24357" lon="6.99138"><ele></ele><time>2017-6-21T13:13:16Z</time></trkpt>
<trkpt lat="46.24365" lon="6.9915"><ele></ele><time>2017-6-21T13:13:19Z</time></trkpt>
<trkpt lat="46.24372" lon="6.99163"><ele></ele><time>2017-6-21T13:13:22Z</time></trkpt>
<trkpt lat="46.2438" lon="6.99175"><ele></ele><time>2017-6-21T13:13:25Z</time></trkpt>
<trkpt lat="46.24389" lon="6.99186"><ele></ele><time>2017-6-21T13:13:28Z</time></trkpt>
<trkpt lat="46.24392" lon="6.99192"><ele></ele><time>2017-6-21T13:13:31Z</time></trkpt>
<trkpt lat="46.24389" lon="6.99197"><ele></ele><time>2017-6-21T13:13:34Z</time></trkpt>
<trkpt lat="46.24381" lon="6.99205"><ele></ele><time>2017-6-21T13:13:37Z</time></trkpt>
<trkpt lat="46.24372" lon="6.99213"><ele></ele><time>2017-6-21T13:13:40Z</time></trkpt>
<trkpt lat="46.24364" lon="6.9922"><ele></ele><time>2017-6-21T13:13:43Z</time></trkpt>
<trkpt lat="46.24355" lon="6.99228"><ele></ele><time>2017-6-21T13:13:46Z</time></trkpt>
<trkpt lat="46.24351" lon="6.99231"><ele></ele><time>2017-6-21T13:13:49Z</time></trkpt>
<trkpt lat="46.24348" lon="6.99235"><ele></ele><time>2017-6-21T13:13:52Z</time></trkpt>
<trkpt lat="46.24341" lon="6.99241"><ele></ele><time>2017-6-21T13:13:55Z</time></trkpt>
<trkpt lat="46.24336" lon="6.9924"><ele></ele><time>2017-6-21T13:13:58Z</time></trkpt>
<trkpt lat="46.24332" lon="6.99234"><ele></ele><time>2017-6-21T13:14:1Z</time></trkpt>
<trkpt lat="46.24325" lon="6.99222"><ele></ele><time>2017-6-21T13:14:4Z</time></trkpt>
<trkpt lat="46.24317" lon="6.99211"><ele></ele><time>2017-6-21T13:14:7Z</time></trkpt>
<trkpt lat="46.2431" lon="6.99196"><ele></ele><time>2017-6-21T13:14:10Z</time></trkpt>
<trkpt lat="46.24303" lon="6.99181"><ele></ele><time>2017-6-21T13:14:13Z</time></trkpt>
<trkpt lat="46.24295" lon="6.99168"><ele></ele><time>2017-6-21T13:14:16Z</time></trkpt>
<trkpt lat="46.24285" lon="6.99161"><ele></ele><time>2017-6-21T13:14:19Z</time></trkpt>
<trkpt lat="46.24274" lon="6.99163"><ele></ele><time>2017-6-21T13:14:22Z</time></trkpt>
<trkpt lat="46.24266" lon="6.99173"><ele></ele><time>2017-6-21T13:14:25Z</time></trkpt>
<trkpt lat="46.24257" lon="6.99183"><ele></ele><time>2017-6-21T13:14:28Z</time></trkpt>
<trkpt lat="46.24249" lon="6.99193"><ele></ele><time>2017-6-21T13:14:31Z</time></trkpt>
<trkpt lat="46.2424" lon="6.99204"><ele></ele><time>2017-6-21T13:14:34Z</time></trkpt>
<trkpt lat="46.24236" lon="6.99208"><ele></ele><time>2017-6-21T13:14:37Z</time></trkpt>
<trkpt lat="46.24231" lon="6.99213"><ele></ele><time>2017-6-21T13:14:40Z</time></trkpt>
<trkpt lat="46.24222" lon="6.99222"><ele></ele><time>2017-6-21T13:14:43Z</time></trkpt>
<trkpt lat="46.24213" lon="6.99231"><ele></ele><time>2017-6-21T13:14:46Z</time></trkpt>
<trkpt lat="46.24204" lon="6.99243"><ele></ele><time>2017-6-21T13:14:49Z</time></trkpt>
<trkpt lat="46.24195" lon="6.99255"><ele></ele><time>2017-6-21T13:14:52Z</time></trkpt>
<trkpt lat="46.24187" lon="6.99266"><ele></ele><time>2017-6-21T13:14:55Z</time></trkpt>
<trkpt lat="46.24178" lon="6.99278"><ele></ele><time>2017-6-21T13:14:58Z</time></trkpt>
<trkpt lat="46.24169" lon="6.99289"><ele></ele><time>2017-6-21T13:15:1Z</time></trkpt>
<trkpt lat="46.2416" lon="6.993"><ele></ele><time>2017-6-21T13:15:4Z</time></trkpt>
<trkpt lat="46.24152" lon="6.99311"><ele></ele><time>2017-6-21T13:15:7Z</time></trkpt>
<trkpt lat="46.24143" lon="6.99322"><ele></ele><time>2017-6-21T13:15:10Z</time></trkpt>
<trkpt lat="46.24133" lon="6.99333"><ele></ele><time>2017-6-21T13:15:13Z</time></trkpt>
<trkpt lat="46.24124" lon="6.99343"><ele></ele><time>2017-6-21T13:15:16Z</time></trkpt>
<trkpt lat="46.24114" lon="6.99353"><ele></ele><time>2017-6-21T13:15:19Z</time></trkpt>
<trkpt lat="46.2411" lon="6.99359"><ele></ele><time>2017-6-21T13:15:22Z</time></trkpt>
<trkpt lat="46.24105" lon="6.99366"><ele></ele><time>2017-6-21T13:15:25Z</time></trkpt>
<trkpt lat="46.24096" lon="6.99381"><ele></ele><time>2017-6-21T13:15:28Z</time></trkpt>
<trkpt lat="46.24092" lon="6.99387"><ele></ele><time>2017-6-21T13:15:31Z</time></trkpt>
<trkpt lat="46.24087" lon="6.99392"><ele></ele><time>2017-6-21T13:15:34Z</time></trkpt>
<trkpt lat="46.24077" lon="6.99401"><ele></ele><time>2017-6-21T13:15:37Z</time></trkpt>
<trkpt lat="46.24067" lon="6.9941"><ele></ele><time>2017-6-21T13:15:40Z</time></trkpt>
<trkpt lat="46.24057" lon="6.99419"><ele></ele><time>2017-6-21T13:15:43Z</time></trkpt>
<trkpt lat="46.24052" lon="6.99424"><ele></ele><time>2017-6-21T13:15:46Z</time></trkpt>
<trkpt lat="46.24046" lon="6.99429"><ele></ele><time>2017-6-21T13:15:49Z</time></trkpt>
<trkpt lat="46.24035" lon="6.99439"><ele></ele><time>2017-6-21T13:15:52Z</time></trkpt>
<trkpt lat="46.24024" lon="6.99449"><ele></ele><time>2017-6-21T13:15:55Z</time></trkpt>
<trkpt lat="46.24013" lon="6.99459"><ele></ele><time>2017-6-21T13:15:58Z</time></trkpt>
<trkpt lat="46.24003" lon="6.99467"><ele></ele><time>2017-6-21T13:16:1Z</time></trkpt>
<trkpt lat="46.23992" lon="6.99475"><ele></ele><time>2017-6-21T13:16:4Z</time></trkpt>
<trkpt lat="46.23982" lon="6.99484"><ele></ele><time>2017-6-21T13:16:7Z</time></trkpt>
<trkpt lat="46.23971" lon="6.99492"><ele></ele><time>2017-6-21T13:16:10Z</time></trkpt>
<trkpt lat="46.23961" lon="6.99498"><ele></ele><time>2017-6-21T13:16:13Z</time></trkpt>
<trkpt lat="46.2395" lon="6.99503"><ele></ele><time>2017-6-21T13:16:16Z</time></trkpt>
<trkpt lat="46.23939" lon="6.99509"><ele></ele><time>2017-6-21T13:16:19Z</time></trkpt>
<trkpt lat="46.23929" lon="6.99515"><ele></ele><time>2017-6-21T13:16:22Z</time></trkpt>
<trkpt lat="46.23919" lon="6.9952"><ele></ele><time>2017-6-21T13:16:25Z</time></trkpt>
<trkpt lat="46.23908" lon="6.99525"><ele></ele><time>2017-6-21T13:16:28Z</time></trkpt>
<trkpt lat="46.23898" lon="6.9953"><ele></ele><time>2017-6-21T13:16:31Z</time></trkpt>
<trkpt lat="46.23888" lon="6.99536"><ele></ele><time>2017-6-21T13:16:34Z</time></trkpt>
<trkpt lat="46.23883" lon="6.99538"><ele></ele><time>2017-6-21T13:16:37Z</time></trkpt>
<trkpt lat="46.23879" lon="6.99541"><ele></ele><time>2017-6-21T13:16:40Z</time></trkpt>
<trkpt lat="46.23871" lon="6.99545"><ele></ele><time>2017-6-21T13:16:43Z</time></trkpt>
<trkpt lat="46.23868" lon="6.99549"><ele></ele><time>2017-6-21T13:16:46Z</time></trkpt>
<trkpt lat="46.23866" lon="6.99555"><ele></ele><time>2017-6-21T13:16:49Z</time></trkpt>
<trkpt lat="46.23864" lon="6.99566"><ele></ele><time>2017-6-21T13:16:52Z</time></trkpt>
<trkpt lat="46.23867" lon="6.99579"><ele></ele><time>2017-6-21T13:16:55Z</time></trkpt>
<trkpt lat="46.23872" lon="6.99593"><ele></ele><time>2017-6-21T13:16:58Z</time></trkpt>
<trkpt lat="46.23877" lon="6.99606"><ele></ele><time>2017-6-21T13:17:1Z</time></trkpt>
<trkpt lat="46.23882" lon="6.9962"><ele></ele><time>2017-6-21T13:17:4Z</time></trkpt>
<trkpt lat="46.23887" lon="6.99634"><ele></ele><time>2017-6-21T13:17:7Z</time></trkpt>
<trkpt lat="46.2389" lon="6.9964"><ele></ele><time>2017-6-21T13:17:10Z</time></trkpt>
<trkpt lat="46.23892" lon="6.99645"><ele></ele><time>2017-6-21T13:17:13Z</time></trkpt>
<trkpt lat="46.23896" lon="6.99656"><ele></ele><time>2017-6-21T13:17:16Z</time></trkpt>
<trkpt lat="46.239" lon="6.99667"><ele></ele><time>2017-6-21T13:17:19Z</time></trkpt>
<trkpt lat="46.23902" lon="6.99673"><ele></ele><time>2017-6-21T13:17:22Z</time></trkpt>
<trkpt lat="46.23903" lon="6.99677"><ele></ele><time>2017-6-21T13:17:25Z</time></trkpt>
<trkpt lat="46.23906" lon="6.99686"><ele></ele><time>2017-6-21T13:17:28Z</time></trkpt>
<trkpt lat="46.23911" lon="6.997"><ele></ele><time>2017-6-21T13:17:31Z</time></trkpt>
<trkpt lat="46.23912" lon="6.99705"><ele></ele><time>2017-6-21T13:17:34Z</time></trkpt>
<trkpt lat="46.23915" lon="6.99714"><ele></ele><time>2017-6-21T13:17:37Z</time></trkpt>
<trkpt lat="46.2392" lon="6.99728"><ele></ele><time>2017-6-21T13:17:40Z</time></trkpt>
<trkpt lat="46.23921" lon="6.99733"><ele></ele><time>2017-6-21T13:17:43Z</time></trkpt>
<trkpt lat="46.23925" lon="6.99744"><ele></ele><time>2017-6-21T13:17:46Z</time></trkpt>
<trkpt lat="46.23929" lon="6.99756"><ele></ele><time>2017-6-21T13:17:49Z</time></trkpt>
<trkpt lat="46.23933" lon="6.99768"><ele></ele><time>2017-6-21T13:17:52Z</time></trkpt>
<trkpt lat="46.23937" lon="6.99779"><ele></ele><time>2017-6-21T13:17:55Z</time></trkpt>
<trkpt lat="46.23941" lon="6.99791"><ele></ele><time>2017-6-21T13:17:58Z</time></trkpt>
<trkpt lat="46.23943" lon="6.99797"><ele></ele><time>2017-6-21T13:18:1Z</time></trkpt>
<trkpt lat="46.23946" lon="6.99804"><ele></ele><time>2017-6-21T13:18:4Z</time></trkpt>
<trkpt lat="46.23951" lon="6.99819"><ele></ele><time>2017-6-21T13:18:7Z</time></trkpt>
<trkpt lat="46.23956" lon="6.99833"><ele></ele><time>2017-6-21T13:18:10Z</time></trkpt>
<trkpt lat="46.23962" lon="6.99848"><ele></ele><time>2017-6-21T13:18:13Z</time></trkpt>
<trkpt lat="46.23964" lon="6.99856"><ele></ele><time>2017-6-21T13:18:16Z</time></trkpt>
<trkpt lat="46.23967" lon="6.99864"><ele></ele><time>2017-6-21T13:18:19Z</time></trkpt>
<trkpt lat="46.23972" lon="6.99882"><ele></ele><time>2017-6-21T13:18:22Z</time></trkpt>
<trkpt lat="46.23974" lon="6.9989"><ele></ele><time>2017-6-21T13:18:25Z</time></trkpt>
<trkpt lat="46.23973" lon="6.99899"><ele></ele><time>2017-6-21T13:18:28Z</time></trkpt>
<trkpt lat="46.23971" lon="6.99916"><ele></ele><time>2017-6-21T13:18:31Z</time></trkpt>
<trkpt lat="46.23969" lon="6.99934"><ele></ele><time>2017-6-21T13:18:34Z</time></trkpt>
<trkpt lat="46.23968" lon="6.99951"><ele></ele><time>2017-6-21T13:18:37Z</time></trkpt>
<trkpt lat="46.23968" lon="6.99959"><ele></ele><time>2017-6-21T13:18:40Z</time></trkpt>
<trkpt lat="46.2397" lon="6.99971"><ele></ele><time>2017-6-21T13:18:43Z</time></trkpt>
<trkpt lat="46.23971" lon="6.99977"><ele></ele><time>2017-6-21T13:18:46Z</time></trkpt>
<trkpt lat="46.23974" lon="6.99988"><ele></ele><time>2017-6-21T13:18:49Z</time></trkpt>
<trkpt lat="46.23975" lon="6.99994"><ele></ele><time>2017-6-21T13:18:52Z</time></trkpt>
<trkpt lat="46.23976" lon="7"><ele></ele><time>2017-6-21T13:18:55Z</time></trkpt>
<trkpt lat="46.23979" lon="7.00012"><ele></ele><time>2017-6-21T13:18:58Z</time></trkpt>
<trkpt lat="46.23981" lon="7.00024"><ele></ele><time>2017-6-21T13:19:1Z</time></trkpt>
<trkpt lat="46.23985" lon="7.00035"><ele></ele><time>2017-6-21T13:19:4Z</time></trkpt>
<trkpt lat="46.23988" lon="7.00046"><ele></ele><time>2017-6-21T13:19:7Z</time></trkpt>
<trkpt lat="46.23992" lon="7.00058"><ele></ele><time>2017-6-21T13:19:10Z</time></trkpt>
<trkpt lat="46.23995" lon="7.00069"><ele></ele><time>2017-6-21T13:19:13Z</time></trkpt>
<trkpt lat="46.23999" lon="7.00081"><ele></ele><time>2017-6-21T13:19:16Z</time></trkpt>
<trkpt lat="46.24" lon="7.00086"><ele></ele><time>2017-6-21T13:19:19Z</time></trkpt>
<trkpt lat="46.24001" lon="7.00091"><ele></ele><time>2017-6-21T13:19:22Z</time></trkpt>
<trkpt lat="46.24003" lon="7.001"><ele></ele><time>2017-6-21T13:19:25Z</time></trkpt>
<trkpt lat="46.24005" lon="7.0011"><ele></ele><time>2017-6-21T13:19:28Z</time></trkpt>
<trkpt lat="46.24007" lon="7.00119"><ele></ele><time>2017-6-21T13:19:31Z</time></trkpt>
<trkpt lat="46.24009" lon="7.00128"><ele></ele><time>2017-6-21T13:19:34Z</time></trkpt>
<trkpt lat="46.24012" lon="7.00137"><ele></ele><time>2017-6-21T13:19:37Z</time></trkpt>
<trkpt lat="46.24019" lon="7.0014"><ele></ele><time>2017-6-21T13:19:40Z</time></trkpt>
<trkpt lat="46.24027" lon="7.00143"><ele></ele><time>2017-6-21T13:19:43Z</time></trkpt>
<trkpt lat="46.24031" lon="7.00144"><ele></ele><time>2017-6-21T13:19:46Z</time></trkpt>
<trkpt lat="46.24036" lon="7.00144"><ele></ele><time>2017-6-21T13:19:49Z</time></trkpt>
<trkpt lat="46.24045" lon="7.00146"><ele></ele><time>2017-6-21T13:19:52Z</time></trkpt>
<trkpt lat="46.24054" lon="7.00148"><ele></ele><time>2017-6-21T13:19:55Z</time></trkpt>
<trkpt lat="46.24064" lon="7.0015"><ele></ele><time>2017-6-21T13:19:58Z</time></trkpt>
<trkpt lat="46.24072" lon="7.00151"><ele></ele><time>2017-6-21T13:20:1Z</time></trkpt>
<trkpt lat="46.24079" lon="7.00153"><ele></ele><time>2017-6-21T13:20:4Z</time></trkpt>
<trkpt lat="46.24086" lon="7.00155"><ele></ele><time>2017-6-21T13:20:7Z</time></trkpt>
<trkpt lat="46.24093" lon="7.00156"><ele></ele><time>2017-6-21T13:20:10Z</time></trkpt>
<trkpt lat="46.241" lon="7.00158"><ele></ele><time>2017-6-21T13:20:13Z</time></trkpt>
<trkpt lat="46.24107" lon="7.0016"><ele></ele><time>2017-6-21T13:20:16Z</time></trkpt>
<trkpt lat="46.24113" lon="7.00163"><ele></ele><time>2017-6-21T13:20:19Z</time></trkpt>
<trkpt lat="46.24113" lon="7.00174"><ele></ele><time>2017-6-21T13:20:22Z</time></trkpt>
<trkpt lat="46.24114" lon="7.00185"><ele></ele><time>2017-6-21T13:20:25Z</time></trkpt>
<trkpt lat="46.24114" lon="7.00195"><ele></ele><time>2017-6-21T13:20:28Z</time></trkpt>
<trkpt lat="46.24114" lon="7.00206"><ele></ele><time>2017-6-21T13:20:31Z</time></trkpt>
<trkpt lat="46.24114" lon="7.00216"><ele></ele><time>2017-6-21T13:20:34Z</time></trkpt>
<trkpt lat="46.24114" lon="7.00227"><ele></ele><time>2017-6-21T13:20:37Z</time></trkpt>
<trkpt lat="46.24115" lon="7.00232"><ele></ele><time>2017-6-21T13:20:40Z</time></trkpt>
<trkpt lat="46.24116" lon="7.00237"><ele></ele><time>2017-6-21T13:20:43Z</time></trkpt>
<trkpt lat="46.24119" lon="7.00247"><ele></ele><time>2017-6-21T13:20:46Z</time></trkpt>
<trkpt lat="46.24121" lon="7.00258"><ele></ele><time>2017-6-21T13:20:49Z</time></trkpt>
<trkpt lat="46.24124" lon="7.00268"><ele></ele><time>2017-6-21T13:20:52Z</time></trkpt>
<trkpt lat="46.24127" lon="7.00278"><ele></ele><time>2017-6-21T13:20:55Z</time></trkpt>
<trkpt lat="46.24129" lon="7.00288"><ele></ele><time>2017-6-21T13:20:58Z</time></trkpt>
<trkpt lat="46.2413" lon="7.00293"><ele></ele><time>2017-6-21T13:21:1Z</time></trkpt>
<trkpt lat="46.24131" lon="7.00297"><ele></ele><time>2017-6-21T13:21:4Z</time></trkpt>
<trkpt lat="46.24134" lon="7.00305"><ele></ele><time>2017-6-21T13:21:7Z</time></trkpt>
<trkpt lat="46.24136" lon="7.00312"><ele></ele><time>2017-6-21T13:21:10Z</time></trkpt>
<trkpt lat="46.24138" lon="7.0032"><ele></ele><time>2017-6-21T13:21:13Z</time></trkpt>
<trkpt lat="46.2414" lon="7.00328"><ele></ele><time>2017-6-21T13:21:16Z</time></trkpt>
<trkpt lat="46.24141" lon="7.00331"><ele></ele><time>2017-6-21T13:21:19Z</time></trkpt>
<trkpt lat="46.24143" lon="7.00332"><ele></ele><time>2017-6-21T13:21:22Z</time></trkpt>
<trkpt lat="46.24148" lon="7.00335"><ele></ele><time>2017-6-21T13:21:25Z</time></trkpt>
<trkpt lat="46.24153" lon="7.00337"><ele></ele><time>2017-6-21T13:21:28Z</time></trkpt>
<trkpt lat="46.24157" lon="7.0034"><ele></ele><time>2017-6-21T13:21:31Z</time></trkpt>
<trkpt lat="46.24162" lon="7.00343"><ele></ele><time>2017-6-21T13:21:34Z</time></trkpt>
<trkpt lat="46.24166" lon="7.00345"><ele></ele><time>2017-6-21T13:21:37Z</time></trkpt>
<trkpt lat="46.24171" lon="7.00348"><ele></ele><time>2017-6-21T13:21:40Z</time></trkpt>
<trkpt lat="46.24175" lon="7.0035"><ele></ele><time>2017-6-21T13:21:43Z</time></trkpt>
<trkpt lat="46.24177" lon="7.00352"><ele></ele><time>2017-6-21T13:21:46Z</time></trkpt>
<trkpt lat="46.24179" lon="7.00354"><ele></ele><time>2017-6-21T13:21:49Z</time></trkpt>
<trkpt lat="46.24182" lon="7.0036"><ele></ele><time>2017-6-21T13:21:52Z</time></trkpt>
<trkpt lat="46.24185" lon="7.00366"><ele></ele><time>2017-6-21T13:21:55Z</time></trkpt>
<trkpt lat="46.24187" lon="7.00373"><ele></ele><time>2017-6-21T13:21:58Z</time></trkpt>
<trkpt lat="46.2419" lon="7.00379"><ele></ele><time>2017-6-21T13:22:1Z</time></trkpt>
<trkpt lat="46.24193" lon="7.00385"><ele></ele><time>2017-6-21T13:22:4Z</time></trkpt>
<trkpt lat="46.24195" lon="7.00392"><ele></ele><time>2017-6-21T13:22:7Z</time></trkpt>
<trkpt lat="46.24198" lon="7.00398"><ele></ele><time>2017-6-21T13:22:10Z</time></trkpt>
<trkpt lat="46.24201" lon="7.00404"><ele></ele><time>2017-6-21T13:22:13Z</time></trkpt>
<trkpt lat="46.24202" lon="7.00408"><ele></ele><time>2017-6-21T13:22:16Z</time></trkpt>
<trkpt lat="46.24203" lon="7.00411"><ele></ele><time>2017-6-21T13:22:19Z</time></trkpt>
<trkpt lat="46.24203" lon="7.00418"><ele></ele><time>2017-6-21T13:22:22Z</time></trkpt>
<trkpt lat="46.24202" lon="7.00421"><ele></ele><time>2017-6-21T13:22:25Z</time></trkpt>
<trkpt lat="46.24199" lon="7.00424"><ele></ele><time>2017-6-21T13:22:28Z</time></trkpt>
<trkpt lat="46.24194" lon="7.00428"><ele></ele><time>2017-6-21T13:22:31Z</time></trkpt>
<trkpt lat="46.24188" lon="7.00433"><ele></ele><time>2017-6-21T13:22:34Z</time></trkpt>
<trkpt lat="46.24182" lon="7.00438"><ele></ele><time>2017-6-21T13:22:37Z</time></trkpt>
<trkpt lat="46.24176" lon="7.00443"><ele></ele><time>2017-6-21T13:22:40Z</time></trkpt>
<trkpt lat="46.24171" lon="7.00448"><ele></ele><time>2017-6-21T13:22:43Z</time></trkpt>
<trkpt lat="46.24165" lon="7.00453"><ele></ele><time>2017-6-21T13:22:46Z</time></trkpt>
<trkpt lat="46.24162" lon="7.00455"><ele></ele><time>2017-6-21T13:22:49Z</time></trkpt>
<trkpt lat="46.24159" lon="7.00458"><ele></ele><time>2017-6-21T13:22:52Z</time></trkpt>
<trkpt lat="46.24153" lon="7.00463"><ele></ele><time>2017-6-21T13:22:55Z</time></trkpt>
<trkpt lat="46.24148" lon="7.00468"><ele></ele><time>2017-6-21T13:22:58Z</time></trkpt>
<trkpt lat="46.24142" lon="7.00473"><ele></ele><time>2017-6-21T13:23:1Z</time></trkpt>
<trkpt lat="46.24136" lon="7.00478"><ele></ele><time>2017-6-21T13:23:4Z</time></trkpt>
<trkpt lat="46.2413" lon="7.00484"><ele></ele><time>2017-6-21T13:23:7Z</time></trkpt>
<trkpt lat="46.24124" lon="7.00489"><ele></ele><time>2017-6-21T13:23:10Z</time></trkpt>
<trkpt lat="46.24122" lon="7.00491"><ele></ele><time>2017-6-21T13:23:13Z</time></trkpt>
<trkpt lat="46.24119" lon="7.00494"><ele></ele><time>2017-6-21T13:23:16Z</time></trkpt>
<trkpt lat="46.24114" lon="7.00499"><ele></ele><time>2017-6-21T13:23:19Z</time></trkpt>
<trkpt lat="46.24108" lon="7.00504"><ele></ele><time>2017-6-21T13:23:22Z</time></trkpt>
<trkpt lat="46.24103" lon="7.0051"><ele></ele><time>2017-6-21T13:23:25Z</time></trkpt>
<trkpt lat="46.24098" lon="7.00515"><ele></ele><time>2017-6-21T13:23:28Z</time></trkpt>
<trkpt lat="46.24093" lon="7.0052"><ele></ele><time>2017-6-21T13:23:31Z</time></trkpt>
<trkpt lat="46.24087" lon="7.00526"><ele></ele><time>2017-6-21T13:23:34Z</time></trkpt>
<trkpt lat="46.24085" lon="7.00529"><ele></ele><time>2017-6-21T13:23:37Z</time></trkpt>
<trkpt lat="46.24085" lon="7.00534"><ele></ele><time>2017-6-21T13:23:40Z</time></trkpt>
<trkpt lat="46.24084" lon="7.00545"><ele></ele><time>2017-6-21T13:23:43Z</time></trkpt>
<trkpt lat="46.24085" lon="7.0055"><ele></ele><time>2017-6-21T13:23:46Z</time></trkpt>
<trkpt lat="46.24089" lon="7.00555"><ele></ele><time>2017-6-21T13:23:49Z</time></trkpt>
<trkpt lat="46.24093" lon="7.00567"><ele></ele><time>2017-6-21T13:23:52Z</time></trkpt>
<trkpt lat="46.24096" lon="7.00579"><ele></ele><time>2017-6-21T13:23:55Z</time></trkpt>
<trkpt lat="46.241" lon="7.0059"><ele></ele><time>2017-6-21T13:23:58Z</time></trkpt>
<trkpt lat="46.24104" lon="7.00602"><ele></ele><time>2017-6-21T13:24:1Z</time></trkpt>
<trkpt lat="46.24108" lon="7.00613"><ele></ele><time>2017-6-21T13:24:4Z</time></trkpt>
<trkpt lat="46.2411" lon="7.00619"><ele></ele><time>2017-6-21T13:24:7Z</time></trkpt>
<trkpt lat="46.24112" lon="7.00625"><ele></ele><time>2017-6-21T13:24:10Z</time></trkpt>
<trkpt lat="46.24116" lon="7.00637"><ele></ele><time>2017-6-21T13:24:13Z</time></trkpt>
<trkpt lat="46.2412" lon="7.00649"><ele></ele><time>2017-6-21T13:24:16Z</time></trkpt>
<trkpt lat="46.24123" lon="7.00661"><ele></ele><time>2017-6-21T13:24:19Z</time></trkpt>
<trkpt lat="46.24127" lon="7.00674"><ele></ele><time>2017-6-21T13:24:22Z</time></trkpt>
<trkpt lat="46.24129" lon="7.00679"><ele></ele><time>2017-6-21T13:24:25Z</time></trkpt>
<trkpt lat="46.24131" lon="7.00684"><ele></ele><time>2017-6-21T13:24:28Z</time></trkpt>
<trkpt lat="46.24134" lon="7.00695"><ele></ele><time>2017-6-21T13:24:31Z</time></trkpt>
<trkpt lat="46.24138" lon="7.00705"><ele></ele><time>2017-6-21T13:24:34Z</time></trkpt>
<trkpt lat="46.24141" lon="7.00715"><ele></ele><time>2017-6-21T13:24:37Z</time></trkpt>
<trkpt lat="46.24145" lon="7.00725"><ele></ele><time>2017-6-21T13:24:40Z</time></trkpt>
<trkpt lat="46.24148" lon="7.00735"><ele></ele><time>2017-6-21T13:24:43Z</time></trkpt>
<trkpt lat="46.2415" lon="7.0074"><ele></ele><time>2017-6-21T13:24:46Z</time></trkpt>
<trkpt lat="46.24151" lon="7.00745"><ele></ele><time>2017-6-21T13:24:49Z</time></trkpt>
<trkpt lat="46.24154" lon="7.00755"><ele></ele><time>2017-6-21T13:24:52Z</time></trkpt>
<trkpt lat="46.24157" lon="7.00764"><ele></ele><time>2017-6-21T13:24:55Z</time></trkpt>
<trkpt lat="46.24159" lon="7.00774"><ele></ele><time>2017-6-21T13:24:58Z</time></trkpt>
<trkpt lat="46.24162" lon="7.00783"><ele></ele><time>2017-6-21T13:25:1Z</time></trkpt>
<trkpt lat="46.24165" lon="7.00793"><ele></ele><time>2017-6-21T13:25:4Z</time></trkpt>
<trkpt lat="46.24168" lon="7.00803"><ele></ele><time>2017-6-21T13:25:7Z</time></trkpt>
<trkpt lat="46.24171" lon="7.00815"><ele></ele><time>2017-6-21T13:25:10Z</time></trkpt>
<trkpt lat="46.24175" lon="7.00828"><ele></ele><time>2017-6-21T13:25:13Z</time></trkpt>
<trkpt lat="46.24179" lon="7.0084"><ele></ele><time>2017-6-21T13:25:16Z</time></trkpt>
<trkpt lat="46.24183" lon="7.00852"><ele></ele><time>2017-6-21T13:25:19Z</time></trkpt>
<trkpt lat="46.24187" lon="7.00865"><ele></ele><time>2017-6-21T13:25:22Z</time></trkpt>
<trkpt lat="46.24192" lon="7.00877"><ele></ele><time>2017-6-21T13:25:25Z</time></trkpt>
<trkpt lat="46.24195" lon="7.00889"><ele></ele><time>2017-6-21T13:25:28Z</time></trkpt>
<trkpt lat="46.24197" lon="7.00895"><ele></ele><time>2017-6-21T13:25:31Z</time></trkpt>
<trkpt lat="46.24199" lon="7.00901"><ele></ele><time>2017-6-21T13:25:34Z</time></trkpt>
<trkpt lat="46.24204" lon="7.00912"><ele></ele><time>2017-6-21T13:25:37Z</time></trkpt>
<trkpt lat="46.2421" lon="7.00924"><ele></ele><time>2017-6-21T13:25:40Z</time></trkpt>
<trkpt lat="46.24212" lon="7.0093"><ele></ele><time>2017-6-21T13:25:43Z</time></trkpt>
<trkpt lat="46.24212" lon="7.00936"><ele></ele><time>2017-6-21T13:25:46Z</time></trkpt>
<trkpt lat="46.24213" lon="7.00942"><ele></ele><time>2017-6-21T13:25:49Z</time></trkpt>
<trkpt lat="46.24217" lon="7.00948"><ele></ele><time>2017-6-21T13:25:52Z</time></trkpt>
<trkpt lat="46.2422" lon="7.00954"><ele></ele><time>2017-6-21T13:25:55Z</time></trkpt>
<trkpt lat="46.24222" lon="7.00961"><ele></ele><time>2017-6-21T13:25:58Z</time></trkpt>
<trkpt lat="46.24227" lon="7.00974"><ele></ele><time>2017-6-21T13:26:1Z</time></trkpt>
<trkpt lat="46.24232" lon="7.00988"><ele></ele><time>2017-6-21T13:26:4Z</time></trkpt>
<trkpt lat="46.24237" lon="7.01001"><ele></ele><time>2017-6-21T13:26:7Z</time></trkpt>
<trkpt lat="46.24242" lon="7.01014"><ele></ele><time>2017-6-21T13:26:10Z</time></trkpt>
<trkpt lat="46.24245" lon="7.01025"><ele></ele><time>2017-6-21T13:26:13Z</time></trkpt>
<trkpt lat="46.24248" lon="7.01037"><ele></ele><time>2017-6-21T13:26:16Z</time></trkpt>
<trkpt lat="46.2425" lon="7.01043"><ele></ele><time>2017-6-21T13:26:19Z</time></trkpt>
<trkpt lat="46.24253" lon="7.01048"><ele></ele><time>2017-6-21T13:26:22Z</time></trkpt>
<trkpt lat="46.24257" lon="7.01059"><ele></ele><time>2017-6-21T13:26:25Z</time></trkpt>
<trkpt lat="46.24262" lon="7.01071"><ele></ele><time>2017-6-21T13:26:28Z</time></trkpt>
<trkpt lat="46.24267" lon="7.01082"><ele></ele><time>2017-6-21T13:26:31Z</time></trkpt>
<trkpt lat="46.24271" lon="7.01093"><ele></ele><time>2017-6-21T13:26:34Z</time></trkpt>
<trkpt lat="46.24271" lon="7.01104"><ele></ele><time>2017-6-21T13:26:37Z</time></trkpt>
<trkpt lat="46.24272" lon="7.01109"><ele></ele><time>2017-6-21T13:26:40Z</time></trkpt>
<trkpt lat="46.24274" lon="7.01115"><ele></ele><time>2017-6-21T13:26:43Z</time></trkpt>
<trkpt lat="46.24279" lon="7.01127"><ele></ele><time>2017-6-21T13:26:46Z</time></trkpt>
<trkpt lat="46.24283" lon="7.01139"><ele></ele><time>2017-6-21T13:26:49Z</time></trkpt>
<trkpt lat="46.24288" lon="7.01151"><ele></ele><time>2017-6-21T13:26:52Z</time></trkpt>
<trkpt lat="46.24292" lon="7.01162"><ele></ele><time>2017-6-21T13:26:55Z</time></trkpt>
<trkpt lat="46.24294" lon="7.01168"><ele></ele><time>2017-6-21T13:26:58Z</time></trkpt>
<trkpt lat="46.24297" lon="7.01175"><ele></ele><time>2017-6-21T13:27:1Z</time></trkpt>
<trkpt lat="46.24302" lon="7.01187"><ele></ele><time>2017-6-21T13:27:4Z</time></trkpt>
<trkpt lat="46.24306" lon="7.012"><ele></ele><time>2017-6-21T13:27:7Z</time></trkpt>
<trkpt lat="46.24309" lon="7.01206"><ele></ele><time>2017-6-21T13:27:10Z</time></trkpt>
<trkpt lat="46.24311" lon="7.01212"><ele></ele><time>2017-6-21T13:27:13Z</time></trkpt>
<trkpt lat="46.24316" lon="7.01225"><ele></ele><time>2017-6-21T13:27:16Z</time></trkpt>
<trkpt lat="46.24319" lon="7.01231"><ele></ele><time>2017-6-21T13:27:19Z</time></trkpt>
<trkpt lat="46.24321" lon="7.01237"><ele></ele><time>2017-6-21T13:27:22Z</time></trkpt>
<trkpt lat="46.24326" lon="7.01249"><ele></ele><time>2017-6-21T13:27:25Z</time></trkpt>
<trkpt lat="46.24331" lon="7.0126"><ele></ele><time>2017-6-21T13:27:28Z</time></trkpt>
<trkpt lat="46.24336" lon="7.01272"><ele></ele><time>2017-6-21T13:27:31Z</time></trkpt>
<trkpt lat="46.24341" lon="7.01284"><ele></ele><time>2017-6-21T13:27:34Z</time></trkpt>
<trkpt lat="46.24344" lon="7.01289"><ele></ele><time>2017-6-21T13:27:37Z</time></trkpt>
<trkpt lat="46.24346" lon="7.01294"><ele></ele><time>2017-6-21T13:27:40Z</time></trkpt>
<trkpt lat="46.2435" lon="7.01304"><ele></ele><time>2017-6-21T13:27:43Z</time></trkpt>
<trkpt lat="46.24354" lon="7.01315"><ele></ele><time>2017-6-21T13:27:46Z</time></trkpt>
<trkpt lat="46.24358" lon="7.01325"><ele></ele><time>2017-6-21T13:27:49Z</time></trkpt>
<trkpt lat="46.2436" lon="7.0133"><ele></ele><time>2017-6-21T13:27:52Z</time></trkpt>
<trkpt lat="46.24362" lon="7.01335"><ele></ele><time>2017-6-21T13:27:55Z</time></trkpt>
<trkpt lat="46.24366" lon="7.01345"><ele></ele><time>2017-6-21T13:27:58Z</time></trkpt>
<trkpt lat="46.24368" lon="7.01348"><ele></ele><time>2017-6-21T13:28:1Z</time></trkpt>
<trkpt lat="46.24371" lon="7.01349"><ele></ele><time>2017-6-21T13:28:4Z</time></trkpt>
<trkpt lat="46.24377" lon="7.01349"><ele></ele><time>2017-6-21T13:28:7Z</time></trkpt>
<trkpt lat="46.24383" lon="7.01343"><ele></ele><time>2017-6-21T13:28:10Z</time></trkpt>
<trkpt lat="46.24389" lon="7.01337"><ele></ele><time>2017-6-21T13:28:13Z</time></trkpt>
<trkpt lat="46.24397" lon="7.01327"><ele></ele><time>2017-6-21T13:28:16Z</time></trkpt>
<trkpt lat="46.244" lon="7.01324"><ele></ele><time>2017-6-21T13:28:19Z</time></trkpt>
<trkpt lat="46.24406" lon="7.01318"><ele></ele><time>2017-6-21T13:28:22Z</time></trkpt>
<trkpt lat="46.24412" lon="7.01312"><ele></ele><time>2017-6-21T13:28:25Z</time></trkpt>
<trkpt lat="46.24415" lon="7.01309"><ele></ele><time>2017-6-21T13:28:28Z</time></trkpt>
<trkpt lat="46.24417" lon="7.01306"><ele></ele><time>2017-6-21T13:28:31Z</time></trkpt>
<trkpt lat="46.24422" lon="7.01301"><ele></ele><time>2017-6-21T13:28:34Z</time></trkpt>
<trkpt lat="46.24428" lon="7.01295"><ele></ele><time>2017-6-21T13:28:37Z</time></trkpt>
<trkpt lat="46.24433" lon="7.0129"><ele></ele><time>2017-6-21T13:28:40Z</time></trkpt>
<trkpt lat="46.24438" lon="7.01284"><ele></ele><time>2017-6-21T13:28:43Z</time></trkpt>
<trkpt lat="46.24443" lon="7.01279"><ele></ele><time>2017-6-21T13:28:46Z</time></trkpt>
<trkpt lat="46.24449" lon="7.01273"><ele></ele><time>2017-6-21T13:28:49Z</time></trkpt>
<trkpt lat="46.24451" lon="7.0127"><ele></ele><time>2017-6-21T13:28:52Z</time></trkpt>
<trkpt lat="46.24454" lon="7.01268"><ele></ele><time>2017-6-21T13:28:55Z</time></trkpt>
<trkpt lat="46.24462" lon="7.01263"><ele></ele><time>2017-6-21T13:28:58Z</time></trkpt>
<trkpt lat="46.2447" lon="7.01258"><ele></ele><time>2017-6-21T13:29:1Z</time></trkpt>
<trkpt lat="46.24478" lon="7.01254"><ele></ele><time>2017-6-21T13:29:4Z</time></trkpt>
<trkpt lat="46.2449" lon="7.0125"><ele></ele><time>2017-6-21T13:29:7Z</time></trkpt>
<trkpt lat="46.24501" lon="7.01246"><ele></ele><time>2017-6-21T13:29:10Z</time></trkpt>
<trkpt lat="46.24513" lon="7.01242"><ele></ele><time>2017-6-21T13:29:13Z</time></trkpt>
<trkpt lat="46.24523" lon="7.01236"><ele></ele><time>2017-6-21T13:29:16Z</time></trkpt>
<trkpt lat="46.24534" lon="7.0123"><ele></ele><time>2017-6-21T13:29:19Z</time></trkpt>
<trkpt lat="46.24545" lon="7.01224"><ele></ele><time>2017-6-21T13:29:22Z</time></trkpt>
<trkpt lat="46.24556" lon="7.01219"><ele></ele><time>2017-6-21T13:29:25Z</time></trkpt>
<trkpt lat="46.24567" lon="7.01219"><ele></ele><time>2017-6-21T13:29:28Z</time></trkpt>
<trkpt lat="46.24577" lon="7.01229"><ele></ele><time>2017-6-21T13:29:31Z</time></trkpt>
<trkpt lat="46.24582" lon="7.01241"><ele></ele><time>2017-6-21T13:29:34Z</time></trkpt>
<trkpt lat="46.24586" lon="7.01247"><ele></ele><time>2017-6-21T13:29:37Z</time></trkpt>
<trkpt lat="46.2459" lon="7.0125"><ele></ele><time>2017-6-21T13:29:40Z</time></trkpt>
<trkpt lat="46.24598" lon="7.01255"><ele></ele><time>2017-6-21T13:29:43Z</time></trkpt>
</trkseg></trk></gpx>